<?xml version="1.0"?>
<gpx
 version="1.1"
 creator="Satmap Active 20"
 xmlns:xsi="http://www.w3.org/2001/XMLSchema-instance"
 xmlns="http://www.topografix.com/GPX/1/1"
 xmlns:satmap="http://www.satmap.com/updates/xmlschemas/GpxExtensions/v2/GpxExtensions_v2.xsd"
 xsi:schemaLocation="http://www.topografix.com/GPX/1/1 http://www.topografix.com/GPX/1/1/gpx.xsd">
<metadata>
<time>2021-05-01T12:56:51Z</time>
<extensions>
<satmap:platform>43</satmap:platform>
<satmap:software version="3.13.037">SM15.exe</satmap:software>
<satmap:username>pieter metz</satmap:username>
<satmap:network_ids>
<satmap:network_id type="wifi">00-23-A7-CA-E3-5C</satmap:network_id>
<satmap:network_id type="bluetooth">80-BB-EB-78-4F-29</satmap:network_id>
</satmap:network_ids>
<satmap:snap_type>simple</satmap:snap_type>
</extensions>
</metadata>
<trk>
<name>2021-05-01_1256</name>
<desc>Track 1</desc>
<number>1</number>
<trkseg>
<trkpt lat="52.042670" lon="05.730327"><ele>24.6</ele><time>2021-05-01T12:56:51Z</time><name>PT1</name></trkpt>
<trkpt lat="52.042669" lon="05.730325"><ele>23.8</ele><time>2021-05-01T12:57:06Z</time><name>PT2</name></trkpt>
<trkpt lat="52.042674" lon="05.730317"><ele>23.9</ele><time>2021-05-01T12:57:08Z</time><name>PT3</name></trkpt>
<trkpt lat="52.042680" lon="05.730308"><ele>23.8</ele><time>2021-05-01T12:57:09Z</time><name>PT4</name></trkpt>
<trkpt lat="52.042685" lon="05.730288"><ele>23.8</ele><time>2021-05-01T12:57:09Z</time><name>PT5</name></trkpt>
<trkpt lat="52.042684" lon="05.730275"><ele>23.9</ele><time>2021-05-01T12:57:11Z</time><name>PT6</name></trkpt>
<trkpt lat="52.042687" lon="05.730255"><ele>23.8</ele><time>2021-05-01T12:57:12Z</time><name>PT7</name></trkpt>
<trkpt lat="52.042689" lon="05.730242"><ele>23.7</ele><time>2021-05-01T12:57:12Z</time><name>PT8</name></trkpt>
<trkpt lat="52.042695" lon="05.730214"><ele>23.8</ele><time>2021-05-01T12:57:14Z</time><name>PT9</name></trkpt>
<trkpt lat="52.042696" lon="05.730193"><ele>23.7</ele><time>2021-05-01T12:57:15Z</time><name>PT10</name></trkpt>
<trkpt lat="52.042695" lon="05.730170"><ele>23.8</ele><time>2021-05-01T12:57:15Z</time><name>PT11</name></trkpt>
<trkpt lat="52.042697" lon="05.730150"><ele>24.1</ele><time>2021-05-01T12:57:17Z</time><name>PT12</name></trkpt>
<trkpt lat="52.042698" lon="05.730132"><ele>24.3</ele><time>2021-05-01T12:57:18Z</time><name>PT13</name></trkpt>
<trkpt lat="52.042700" lon="05.730112"><ele>24.1</ele><time>2021-05-01T12:57:18Z</time><name>PT14</name></trkpt>
<trkpt lat="52.042702" lon="05.730092"><ele>24.3</ele><time>2021-05-01T12:57:20Z</time><name>PT15</name></trkpt>
<trkpt lat="52.042704" lon="05.730079"><ele>24</ele><time>2021-05-01T12:57:20Z</time><name>PT16</name></trkpt>
<trkpt lat="52.042704" lon="05.730064"><ele>23.9</ele><time>2021-05-01T12:57:22Z</time><name>PT17</name></trkpt>
<trkpt lat="52.042706" lon="05.730050"><ele>23.8</ele><time>2021-05-01T12:57:22Z</time><name>PT18</name></trkpt>
<trkpt lat="52.042704" lon="05.730041"><ele>23.8</ele><time>2021-05-01T12:57:24Z</time><name>PT19</name></trkpt>
<trkpt lat="52.042706" lon="05.730025"><ele>23.9</ele><time>2021-05-01T12:57:25Z</time><name>PT20</name></trkpt>
<trkpt lat="52.042707" lon="05.730007"><ele>24.3</ele><time>2021-05-01T12:57:25Z</time><name>PT21</name></trkpt>
<trkpt lat="52.042709" lon="05.729993"><ele>24.1</ele><time>2021-05-01T12:57:27Z</time><name>PT22</name></trkpt>
<trkpt lat="52.042711" lon="05.729975"><ele>24.2</ele><time>2021-05-01T12:57:28Z</time><name>PT23</name></trkpt>
<trkpt lat="52.042713" lon="05.729960"><ele>24.1</ele><time>2021-05-01T12:57:28Z</time><name>PT24</name></trkpt>
<trkpt lat="52.042713" lon="05.729943"><ele>24</ele><time>2021-05-01T12:57:30Z</time><name>PT25</name></trkpt>
<trkpt lat="52.042713" lon="05.729930"><ele>23.9</ele><time>2021-05-01T12:57:31Z</time><name>PT26</name></trkpt>
<trkpt lat="52.042714" lon="05.729917"><ele>24</ele><time>2021-05-01T12:57:31Z</time><name>PT27</name></trkpt>
<trkpt lat="52.042715" lon="05.729901"><ele>24.1</ele><time>2021-05-01T12:57:33Z</time><name>PT28</name></trkpt>
<trkpt lat="52.042715" lon="05.729881"><ele>24.1</ele><time>2021-05-01T12:57:33Z</time><name>PT29</name></trkpt>
<trkpt lat="52.042716" lon="05.729861"><ele>24.2</ele><time>2021-05-01T12:57:35Z</time><name>PT30</name></trkpt>
<trkpt lat="52.042717" lon="05.729841"><ele>24.2</ele><time>2021-05-01T12:57:36Z</time><name>PT31</name></trkpt>
<trkpt lat="52.042720" lon="05.729824"><ele>24.3</ele><time>2021-05-01T12:57:36Z</time><name>PT32</name></trkpt>
<trkpt lat="52.042718" lon="05.729808"><ele>24.5</ele><time>2021-05-01T12:57:38Z</time><name>PT33</name></trkpt>
<trkpt lat="52.042717" lon="05.729793"><ele>24.6</ele><time>2021-05-01T12:57:39Z</time><name>PT34</name></trkpt>
<trkpt lat="52.042715" lon="05.729775"><ele>24.5</ele><time>2021-05-01T12:57:39Z</time><name>PT35</name></trkpt>
<trkpt lat="52.042716" lon="05.729758"><ele>24.6</ele><time>2021-05-01T12:57:41Z</time><name>PT36</name></trkpt>
<trkpt lat="52.042717" lon="05.729739"><ele>24.5</ele><time>2021-05-01T12:57:42Z</time><name>PT37</name></trkpt>
<trkpt lat="52.042716" lon="05.729716"><ele>24.4</ele><time>2021-05-01T12:57:42Z</time><name>PT38</name></trkpt>
<trkpt lat="52.042714" lon="05.729700"><ele>24.4</ele><time>2021-05-01T12:57:44Z</time><name>PT39</name></trkpt>
<trkpt lat="52.042712" lon="05.729684"><ele>24.6</ele><time>2021-05-01T12:57:45Z</time><name>PT40</name></trkpt>
<trkpt lat="52.042708" lon="05.729665"><ele>24.5</ele><time>2021-05-01T12:57:45Z</time><name>PT41</name></trkpt>
<trkpt lat="52.042703" lon="05.729648"><ele>24.5</ele><time>2021-05-01T12:57:47Z</time><name>PT42</name></trkpt>
<trkpt lat="52.042703" lon="05.729627"><ele>24.6</ele><time>2021-05-01T12:57:47Z</time><name>PT43</name></trkpt>
<trkpt lat="52.042704" lon="05.729607"><ele>24.4</ele><time>2021-05-01T12:57:49Z</time><name>PT44</name></trkpt>
<trkpt lat="52.042704" lon="05.729588"><ele>24.3</ele><time>2021-05-01T12:57:50Z</time><name>PT45</name></trkpt>
<trkpt lat="52.042706" lon="05.729566"><ele>24.3</ele><time>2021-05-01T12:57:50Z</time><name>PT46</name></trkpt>
<trkpt lat="52.042709" lon="05.729550"><ele>24.3</ele><time>2021-05-01T12:57:52Z</time><name>PT47</name></trkpt>
<trkpt lat="52.042709" lon="05.729530"><ele>24.2</ele><time>2021-05-01T12:57:52Z</time><name>PT48</name></trkpt>
<trkpt lat="52.042710" lon="05.729515"><ele>24.2</ele><time>2021-05-01T12:57:54Z</time><name>PT49</name></trkpt>
<trkpt lat="52.042711" lon="05.729497"><ele>24</ele><time>2021-05-01T12:57:55Z</time><name>PT50</name></trkpt>
<trkpt lat="52.042713" lon="05.729482"><ele>23.9</ele><time>2021-05-01T12:57:55Z</time><name>PT51</name></trkpt>
<trkpt lat="52.042715" lon="05.729465"><ele>23.8</ele><time>2021-05-01T12:57:57Z</time><name>PT52</name></trkpt>
<trkpt lat="52.042716" lon="05.729451"><ele>23.6</ele><time>2021-05-01T12:57:58Z</time><name>PT53</name></trkpt>
<trkpt lat="52.042716" lon="05.729438"><ele>23.6</ele><time>2021-05-01T12:57:58Z</time><name>PT54</name></trkpt>
<trkpt lat="52.042719" lon="05.729420"><ele>23.8</ele><time>2021-05-01T12:58:00Z</time><name>PT55</name></trkpt>
<trkpt lat="52.042726" lon="05.729404"><ele>23.9</ele><time>2021-05-01T12:58:00Z</time><name>PT56</name></trkpt>
<trkpt lat="52.042732" lon="05.729391"><ele>23.9</ele><time>2021-05-01T12:58:02Z</time><name>PT57</name></trkpt>
<trkpt lat="52.042742" lon="05.729382"><ele>24.1</ele><time>2021-05-01T12:58:03Z</time><name>PT58</name></trkpt>
<trkpt lat="52.042749" lon="05.729366"><ele>24.1</ele><time>2021-05-01T12:58:03Z</time><name>PT59</name></trkpt>
<trkpt lat="52.042757" lon="05.729347"><ele>23.9</ele><time>2021-05-01T12:58:05Z</time><name>PT60</name></trkpt>
<trkpt lat="52.042765" lon="05.729331"><ele>23.9</ele><time>2021-05-01T12:58:06Z</time><name>PT61</name></trkpt>
<trkpt lat="52.042773" lon="05.729314"><ele>24</ele><time>2021-05-01T12:58:06Z</time><name>PT62</name></trkpt>
<trkpt lat="52.042780" lon="05.729293"><ele>24.1</ele><time>2021-05-01T12:58:08Z</time><name>PT63</name></trkpt>
<trkpt lat="52.042783" lon="05.729275"><ele>24</ele><time>2021-05-01T12:58:09Z</time><name>PT64</name></trkpt>
<trkpt lat="52.042786" lon="05.729257"><ele>24</ele><time>2021-05-01T12:58:09Z</time><name>PT65</name></trkpt>
<trkpt lat="52.042788" lon="05.729238"><ele>24.1</ele><time>2021-05-01T12:58:11Z</time><name>PT66</name></trkpt>
<trkpt lat="52.042792" lon="05.729223"><ele>24.2</ele><time>2021-05-01T12:58:12Z</time><name>PT67</name></trkpt>
<trkpt lat="52.042797" lon="05.729206"><ele>24.1</ele><time>2021-05-01T12:58:12Z</time><name>PT68</name></trkpt>
<trkpt lat="52.042802" lon="05.729189"><ele>24.1</ele><time>2021-05-01T12:58:14Z</time><name>PT69</name></trkpt>
<trkpt lat="52.042806" lon="05.729168"><ele>24.2</ele><time>2021-05-01T12:58:14Z</time><name>PT70</name></trkpt>
<trkpt lat="52.042811" lon="05.729142"><ele>24.1</ele><time>2021-05-01T12:58:16Z</time><name>PT71</name></trkpt>
<trkpt lat="52.042816" lon="05.729127"><ele>24.3</ele><time>2021-05-01T12:58:17Z</time><name>PT72</name></trkpt>
<trkpt lat="52.042819" lon="05.729105"><ele>24.3</ele><time>2021-05-01T12:58:18Z</time><name>PT73</name></trkpt>
<trkpt lat="52.042823" lon="05.729080"><ele>24.3</ele><time>2021-05-01T12:58:19Z</time><name>PT74</name></trkpt>
<trkpt lat="52.042825" lon="05.729058"><ele>24.3</ele><time>2021-05-01T12:58:20Z</time><name>PT75</name></trkpt>
<trkpt lat="52.042825" lon="05.729037"><ele>24.3</ele><time>2021-05-01T12:58:20Z</time><name>PT76</name></trkpt>
<trkpt lat="52.042827" lon="05.729013"><ele>24.3</ele><time>2021-05-01T12:58:22Z</time><name>PT77</name></trkpt>
<trkpt lat="52.042830" lon="05.728990"><ele>24.5</ele><time>2021-05-01T12:58:23Z</time><name>PT78</name></trkpt>
<trkpt lat="52.042828" lon="05.728972"><ele>24.6</ele><time>2021-05-01T12:58:23Z</time><name>PT79</name></trkpt>
<trkpt lat="52.042828" lon="05.728955"><ele>24.8</ele><time>2021-05-01T12:58:25Z</time><name>PT80</name></trkpt>
<trkpt lat="52.042827" lon="05.728935"><ele>24.8</ele><time>2021-05-01T12:58:26Z</time><name>PT81</name></trkpt>
<trkpt lat="52.042829" lon="05.728918"><ele>24.6</ele><time>2021-05-01T12:58:27Z</time><name>PT82</name></trkpt>
<trkpt lat="52.042831" lon="05.728900"><ele>24.4</ele><time>2021-05-01T12:58:28Z</time><name>PT83</name></trkpt>
<trkpt lat="52.042834" lon="05.728883"><ele>24.5</ele><time>2021-05-01T12:58:29Z</time><name>PT84</name></trkpt>
<trkpt lat="52.042837" lon="05.728865"><ele>24.4</ele><time>2021-05-01T12:58:30Z</time><name>PT85</name></trkpt>
<trkpt lat="52.042839" lon="05.728845"><ele>24.3</ele><time>2021-05-01T12:58:31Z</time><name>PT86</name></trkpt>
<trkpt lat="52.042841" lon="05.728824"><ele>24.6</ele><time>2021-05-01T12:58:32Z</time><name>PT87</name></trkpt>
<trkpt lat="52.042843" lon="05.728807"><ele>24.7</ele><time>2021-05-01T12:58:33Z</time><name>PT88</name></trkpt>
<trkpt lat="52.042843" lon="05.728786"><ele>24.7</ele><time>2021-05-01T12:58:33Z</time><name>PT89</name></trkpt>
<trkpt lat="52.042844" lon="05.728765"><ele>24.4</ele><time>2021-05-01T12:58:35Z</time><name>PT90</name></trkpt>
<trkpt lat="52.042843" lon="05.728743"><ele>23.9</ele><time>2021-05-01T12:58:36Z</time><name>PT91</name></trkpt>
<trkpt lat="52.042842" lon="05.728722"><ele>24.1</ele><time>2021-05-01T12:58:36Z</time><name>PT92</name></trkpt>
<trkpt lat="52.042840" lon="05.728696"><ele>24</ele><time>2021-05-01T12:58:38Z</time><name>PT93</name></trkpt>
<trkpt lat="52.042838" lon="05.728675"><ele>24.6</ele><time>2021-05-01T12:58:39Z</time><name>PT94</name></trkpt>
<trkpt lat="52.042838" lon="05.728654"><ele>25.3</ele><time>2021-05-01T12:58:40Z</time><name>PT95</name></trkpt>
<trkpt lat="52.042837" lon="05.728635"><ele>25.8</ele><time>2021-05-01T12:58:41Z</time><name>PT96</name></trkpt>
<trkpt lat="52.042837" lon="05.728618"><ele>25.5</ele><time>2021-05-01T12:58:42Z</time><name>PT97</name></trkpt>
<trkpt lat="52.042836" lon="05.728598"><ele>25.6</ele><time>2021-05-01T12:58:43Z</time><name>PT98</name></trkpt>
<trkpt lat="52.042837" lon="05.728581"><ele>25.6</ele><time>2021-05-01T12:58:44Z</time><name>PT99</name></trkpt>
<trkpt lat="52.042838" lon="05.728563"><ele>25.7</ele><time>2021-05-01T12:58:44Z</time><name>PT100</name></trkpt>
<trkpt lat="52.042839" lon="05.728545"><ele>25.5</ele><time>2021-05-01T12:58:46Z</time><name>PT101</name></trkpt>
<trkpt lat="52.042841" lon="05.728528"><ele>25.4</ele><time>2021-05-01T12:58:47Z</time><name>PT102</name></trkpt>
<trkpt lat="52.042845" lon="05.728512"><ele>25.4</ele><time>2021-05-01T12:58:47Z</time><name>PT103</name></trkpt>
<trkpt lat="52.042847" lon="05.728497"><ele>25.4</ele><time>2021-05-01T12:58:49Z</time><name>PT104</name></trkpt>
<trkpt lat="52.042848" lon="05.728479"><ele>25.3</ele><time>2021-05-01T12:58:50Z</time><name>PT105</name></trkpt>
<trkpt lat="52.042848" lon="05.728460"><ele>25.3</ele><time>2021-05-01T12:58:50Z</time><name>PT106</name></trkpt>
<trkpt lat="52.042850" lon="05.728441"><ele>25.2</ele><time>2021-05-01T12:58:52Z</time><name>PT107</name></trkpt>
<trkpt lat="52.042852" lon="05.728422"><ele>25.1</ele><time>2021-05-01T12:58:52Z</time><name>PT108</name></trkpt>
<trkpt lat="52.042852" lon="05.728403"><ele>24.8</ele><time>2021-05-01T12:58:54Z</time><name>PT109</name></trkpt>
<trkpt lat="52.042853" lon="05.728385"><ele>24.8</ele><time>2021-05-01T12:58:55Z</time><name>PT110</name></trkpt>
<trkpt lat="52.042855" lon="05.728367"><ele>24.8</ele><time>2021-05-01T12:58:55Z</time><name>PT111</name></trkpt>
<trkpt lat="52.042856" lon="05.728349"><ele>24.8</ele><time>2021-05-01T12:58:57Z</time><name>PT112</name></trkpt>
<trkpt lat="52.042857" lon="05.728329"><ele>24.8</ele><time>2021-05-01T12:58:58Z</time><name>PT113</name></trkpt>
<trkpt lat="52.042858" lon="05.728309"><ele>24.8</ele><time>2021-05-01T12:58:58Z</time><name>PT114</name></trkpt>
<trkpt lat="52.042858" lon="05.728287"><ele>24.9</ele><time>2021-05-01T12:59:00Z</time><name>PT115</name></trkpt>
<trkpt lat="52.042858" lon="05.728269"><ele>25</ele><time>2021-05-01T12:59:01Z</time><name>PT116</name></trkpt>
<trkpt lat="52.042859" lon="05.728249"><ele>25</ele><time>2021-05-01T12:59:01Z</time><name>PT117</name></trkpt>
<trkpt lat="52.042860" lon="05.728230"><ele>25.1</ele><time>2021-05-01T12:59:03Z</time><name>PT118</name></trkpt>
<trkpt lat="52.042861" lon="05.728208"><ele>25.1</ele><time>2021-05-01T12:59:03Z</time><name>PT119</name></trkpt>
<trkpt lat="52.042865" lon="05.728185"><ele>25.1</ele><time>2021-05-01T12:59:05Z</time><name>PT120</name></trkpt>
<trkpt lat="52.042867" lon="05.728162"><ele>25.1</ele><time>2021-05-01T12:59:05Z</time><name>PT121</name></trkpt>
<trkpt lat="52.042872" lon="05.728141"><ele>24.9</ele><time>2021-05-01T12:59:07Z</time><name>PT122</name></trkpt>
<trkpt lat="52.042874" lon="05.728120"><ele>25</ele><time>2021-05-01T12:59:07Z</time><name>PT123</name></trkpt>
<trkpt lat="52.042877" lon="05.728099"><ele>24.8</ele><time>2021-05-01T12:59:09Z</time><name>PT124</name></trkpt>
<trkpt lat="52.042881" lon="05.728080"><ele>24.7</ele><time>2021-05-01T12:59:09Z</time><name>PT125</name></trkpt>
<trkpt lat="52.042884" lon="05.728060"><ele>24.7</ele><time>2021-05-01T12:59:11Z</time><name>PT126</name></trkpt>
<trkpt lat="52.042889" lon="05.728043"><ele>24.7</ele><time>2021-05-01T12:59:11Z</time><name>PT127</name></trkpt>
<trkpt lat="52.042893" lon="05.728024"><ele>24.7</ele><time>2021-05-01T12:59:13Z</time><name>PT128</name></trkpt>
<trkpt lat="52.042898" lon="05.728007"><ele>24.8</ele><time>2021-05-01T12:59:13Z</time><name>PT129</name></trkpt>
<trkpt lat="52.042900" lon="05.727992"><ele>24.8</ele><time>2021-05-01T12:59:15Z</time><name>PT130</name></trkpt>
<trkpt lat="52.042901" lon="05.727974"><ele>24.9</ele><time>2021-05-01T12:59:15Z</time><name>PT131</name></trkpt>
<trkpt lat="52.042901" lon="05.727953"><ele>25</ele><time>2021-05-01T12:59:17Z</time><name>PT132</name></trkpt>
<trkpt lat="52.042902" lon="05.727934"><ele>25.1</ele><time>2021-05-01T12:59:17Z</time><name>PT133</name></trkpt>
<trkpt lat="52.042902" lon="05.727916"><ele>25.1</ele><time>2021-05-01T12:59:19Z</time><name>PT134</name></trkpt>
<trkpt lat="52.042903" lon="05.727898"><ele>25.2</ele><time>2021-05-01T12:59:19Z</time><name>PT135</name></trkpt>
<trkpt lat="52.042903" lon="05.727882"><ele>25.2</ele><time>2021-05-01T12:59:21Z</time><name>PT136</name></trkpt>
<trkpt lat="52.042904" lon="05.727864"><ele>25.1</ele><time>2021-05-01T12:59:22Z</time><name>PT137</name></trkpt>
<trkpt lat="52.042906" lon="05.727849"><ele>25</ele><time>2021-05-01T12:59:22Z</time><name>PT138</name></trkpt>
<trkpt lat="52.042908" lon="05.727834"><ele>25</ele><time>2021-05-01T12:59:24Z</time><name>PT139</name></trkpt>
<trkpt lat="52.042911" lon="05.727818"><ele>25.2</ele><time>2021-05-01T12:59:24Z</time><name>PT140</name></trkpt>
<trkpt lat="52.042915" lon="05.727799"><ele>25.2</ele><time>2021-05-01T12:59:26Z</time><name>PT141</name></trkpt>
<trkpt lat="52.042918" lon="05.727780"><ele>25.2</ele><time>2021-05-01T12:59:26Z</time><name>PT142</name></trkpt>
<trkpt lat="52.042922" lon="05.727763"><ele>25.3</ele><time>2021-05-01T12:59:28Z</time><name>PT143</name></trkpt>
<trkpt lat="52.042925" lon="05.727746"><ele>25.2</ele><time>2021-05-01T12:59:29Z</time><name>PT144</name></trkpt>
<trkpt lat="52.042926" lon="05.727728"><ele>25.3</ele><time>2021-05-01T12:59:29Z</time><name>PT145</name></trkpt>
<trkpt lat="52.042929" lon="05.727708"><ele>25.3</ele><time>2021-05-01T12:59:31Z</time><name>PT146</name></trkpt>
<trkpt lat="52.042927" lon="05.727693"><ele>25.5</ele><time>2021-05-01T12:59:31Z</time><name>PT147</name></trkpt>
<trkpt lat="52.042924" lon="05.727673"><ele>25.7</ele><time>2021-05-01T12:59:33Z</time><name>PT148</name></trkpt>
<trkpt lat="52.042925" lon="05.727656"><ele>25.8</ele><time>2021-05-01T12:59:33Z</time><name>PT149</name></trkpt>
<trkpt lat="52.042929" lon="05.727638"><ele>25.6</ele><time>2021-05-01T12:59:35Z</time><name>PT150</name></trkpt>
<trkpt lat="52.042931" lon="05.727620"><ele>25.6</ele><time>2021-05-01T12:59:35Z</time><name>PT151</name></trkpt>
<trkpt lat="52.042934" lon="05.727600"><ele>25.4</ele><time>2021-05-01T12:59:37Z</time><name>PT152</name></trkpt>
<trkpt lat="52.042935" lon="05.727578"><ele>25.3</ele><time>2021-05-01T12:59:38Z</time><name>PT153</name></trkpt>
<trkpt lat="52.042939" lon="05.727560"><ele>25.4</ele><time>2021-05-01T12:59:38Z</time><name>PT154</name></trkpt>
<trkpt lat="52.042942" lon="05.727542"><ele>25.4</ele><time>2021-05-01T12:59:40Z</time><name>PT155</name></trkpt>
<trkpt lat="52.042943" lon="05.727518"><ele>25.4</ele><time>2021-05-01T12:59:40Z</time><name>PT156</name></trkpt>
<trkpt lat="52.042945" lon="05.727499"><ele>25.5</ele><time>2021-05-01T12:59:42Z</time><name>PT157</name></trkpt>
<trkpt lat="52.042947" lon="05.727479"><ele>25.5</ele><time>2021-05-01T12:59:43Z</time><name>PT158</name></trkpt>
<trkpt lat="52.042950" lon="05.727459"><ele>25.5</ele><time>2021-05-01T12:59:43Z</time><name>PT159</name></trkpt>
<trkpt lat="52.042951" lon="05.727434"><ele>25.5</ele><time>2021-05-01T12:59:45Z</time><name>PT160</name></trkpt>
<trkpt lat="52.042955" lon="05.727419"><ele>25.4</ele><time>2021-05-01T12:59:45Z</time><name>PT161</name></trkpt>
<trkpt lat="52.042960" lon="05.727400"><ele>25.4</ele><time>2021-05-01T12:59:47Z</time><name>PT162</name></trkpt>
<trkpt lat="52.042966" lon="05.727379"><ele>25.4</ele><time>2021-05-01T12:59:48Z</time><name>PT163</name></trkpt>
<trkpt lat="52.042970" lon="05.727357"><ele>25.3</ele><time>2021-05-01T12:59:48Z</time><name>PT164</name></trkpt>
<trkpt lat="52.042972" lon="05.727330"><ele>25.3</ele><time>2021-05-01T12:59:50Z</time><name>PT165</name></trkpt>
<trkpt lat="52.042979" lon="05.727307"><ele>25.2</ele><time>2021-05-01T12:59:51Z</time><name>PT166</name></trkpt>
<trkpt lat="52.042984" lon="05.727287"><ele>25.1</ele><time>2021-05-01T12:59:52Z</time><name>PT167</name></trkpt>
<trkpt lat="52.042988" lon="05.727265"><ele>25.1</ele><time>2021-05-01T12:59:53Z</time><name>PT168</name></trkpt>
<trkpt lat="52.042989" lon="05.727240"><ele>25.1</ele><time>2021-05-01T12:59:54Z</time><name>PT169</name></trkpt>
<trkpt lat="52.042992" lon="05.727218"><ele>25.1</ele><time>2021-05-01T12:59:55Z</time><name>PT170</name></trkpt>
<trkpt lat="52.042990" lon="05.727195"><ele>25.2</ele><time>2021-05-01T12:59:56Z</time><name>PT171</name></trkpt>
<trkpt lat="52.042991" lon="05.727174"><ele>25.1</ele><time>2021-05-01T12:59:57Z</time><name>PT172</name></trkpt>
<trkpt lat="52.042989" lon="05.727150"><ele>25.2</ele><time>2021-05-01T12:59:58Z</time><name>PT173</name></trkpt>
<trkpt lat="52.042990" lon="05.727128"><ele>25.3</ele><time>2021-05-01T12:59:59Z</time><name>PT174</name></trkpt>
<trkpt lat="52.042993" lon="05.727112"><ele>25.2</ele><time>2021-05-01T13:00:00Z</time><name>PT175</name></trkpt>
<trkpt lat="52.042996" lon="05.727101"><ele>25.3</ele><time>2021-05-01T13:00:01Z</time><name>PT176</name></trkpt>
<trkpt lat="52.042998" lon="05.727091"><ele>25.3</ele><time>2021-05-01T13:00:02Z</time><name>PT177</name></trkpt>
<trkpt lat="52.043001" lon="05.727074"><ele>25.3</ele><time>2021-05-01T13:00:02Z</time><name>PT178</name></trkpt>
<trkpt lat="52.043004" lon="05.727050"><ele>25.3</ele><time>2021-05-01T13:00:04Z</time><name>PT179</name></trkpt>
<trkpt lat="52.043008" lon="05.727024"><ele>25.4</ele><time>2021-05-01T13:00:04Z</time><name>PT180</name></trkpt>
<trkpt lat="52.043012" lon="05.727001"><ele>25.4</ele><time>2021-05-01T13:00:06Z</time><name>PT181</name></trkpt>
<trkpt lat="52.043015" lon="05.726979"><ele>25.3</ele><time>2021-05-01T13:00:06Z</time><name>PT182</name></trkpt>
<trkpt lat="52.043018" lon="05.726961"><ele>25.3</ele><time>2021-05-01T13:00:08Z</time><name>PT183</name></trkpt>
<trkpt lat="52.043020" lon="05.726941"><ele>25.4</ele><time>2021-05-01T13:00:08Z</time><name>PT184</name></trkpt>
<trkpt lat="52.043022" lon="05.726922"><ele>25.3</ele><time>2021-05-01T13:00:10Z</time><name>PT185</name></trkpt>
<trkpt lat="52.043024" lon="05.726901"><ele>25.3</ele><time>2021-05-01T13:00:10Z</time><name>PT186</name></trkpt>
<trkpt lat="52.043024" lon="05.726880"><ele>25.4</ele><time>2021-05-01T13:00:12Z</time><name>PT187</name></trkpt>
<trkpt lat="52.043023" lon="05.726862"><ele>25.4</ele><time>2021-05-01T13:00:12Z</time><name>PT188</name></trkpt>
<trkpt lat="52.043025" lon="05.726850"><ele>25.4</ele><time>2021-05-01T13:00:14Z</time><name>PT189</name></trkpt>
<trkpt lat="52.043026" lon="05.726830"><ele>25.4</ele><time>2021-05-01T13:00:14Z</time><name>PT190</name></trkpt>
<trkpt lat="52.043027" lon="05.726811"><ele>25.5</ele><time>2021-05-01T13:00:16Z</time><name>PT191</name></trkpt>
<trkpt lat="52.043027" lon="05.726791"><ele>25.6</ele><time>2021-05-01T13:00:16Z</time><name>PT192</name></trkpt>
<trkpt lat="52.043029" lon="05.726776"><ele>25.7</ele><time>2021-05-01T13:00:18Z</time><name>PT193</name></trkpt>
<trkpt lat="52.043031" lon="05.726758"><ele>25.7</ele><time>2021-05-01T13:00:18Z</time><name>PT194</name></trkpt>
<trkpt lat="52.043033" lon="05.726739"><ele>25.8</ele><time>2021-05-01T13:00:20Z</time><name>PT195</name></trkpt>
<trkpt lat="52.043034" lon="05.726720"><ele>25.6</ele><time>2021-05-01T13:00:20Z</time><name>PT196</name></trkpt>
<trkpt lat="52.043035" lon="05.726699"><ele>25.6</ele><time>2021-05-01T13:00:22Z</time><name>PT197</name></trkpt>
<trkpt lat="52.043038" lon="05.726681"><ele>25.6</ele><time>2021-05-01T13:00:22Z</time><name>PT198</name></trkpt>
<trkpt lat="52.043041" lon="05.726666"><ele>25.7</ele><time>2021-05-01T13:00:24Z</time><name>PT199</name></trkpt>
<trkpt lat="52.043045" lon="05.726652"><ele>25.7</ele><time>2021-05-01T13:00:24Z</time><name>PT200</name></trkpt>
<trkpt lat="52.043048" lon="05.726638"><ele>25.7</ele><time>2021-05-01T13:00:26Z</time><name>PT201</name></trkpt>
<trkpt lat="52.043052" lon="05.726619"><ele>25.6</ele><time>2021-05-01T13:00:26Z</time><name>PT202</name></trkpt>
<trkpt lat="52.043055" lon="05.726597"><ele>25.6</ele><time>2021-05-01T13:00:28Z</time><name>PT203</name></trkpt>
<trkpt lat="52.043056" lon="05.726577"><ele>25.7</ele><time>2021-05-01T13:00:28Z</time><name>PT204</name></trkpt>
<trkpt lat="52.043058" lon="05.726556"><ele>25.4</ele><time>2021-05-01T13:00:30Z</time><name>PT205</name></trkpt>
<trkpt lat="52.043062" lon="05.726532"><ele>25.5</ele><time>2021-05-01T13:00:30Z</time><name>PT206</name></trkpt>
<trkpt lat="52.043063" lon="05.726508"><ele>25.5</ele><time>2021-05-01T13:00:32Z</time><name>PT207</name></trkpt>
<trkpt lat="52.043066" lon="05.726491"><ele>25.4</ele><time>2021-05-01T13:00:32Z</time><name>PT208</name></trkpt>
<trkpt lat="52.043069" lon="05.726474"><ele>25.3</ele><time>2021-05-01T13:00:34Z</time><name>PT209</name></trkpt>
<trkpt lat="52.043072" lon="05.726455"><ele>25.4</ele><time>2021-05-01T13:00:34Z</time><name>PT210</name></trkpt>
<trkpt lat="52.043074" lon="05.726437"><ele>25.3</ele><time>2021-05-01T13:00:36Z</time><name>PT211</name></trkpt>
<trkpt lat="52.043073" lon="05.726420"><ele>25.3</ele><time>2021-05-01T13:00:37Z</time><name>PT212</name></trkpt>
<trkpt lat="52.043075" lon="05.726403"><ele>25.3</ele><time>2021-05-01T13:00:37Z</time><name>PT213</name></trkpt>
<trkpt lat="52.043076" lon="05.726387"><ele>25.3</ele><time>2021-05-01T13:00:39Z</time><name>PT214</name></trkpt>
<trkpt lat="52.043077" lon="05.726370"><ele>25.2</ele><time>2021-05-01T13:00:39Z</time><name>PT215</name></trkpt>
<trkpt lat="52.043078" lon="05.726351"><ele>25.4</ele><time>2021-05-01T13:00:41Z</time><name>PT216</name></trkpt>
<trkpt lat="52.043080" lon="05.726334"><ele>25.5</ele><time>2021-05-01T13:00:41Z</time><name>PT217</name></trkpt>
<trkpt lat="52.043083" lon="05.726314"><ele>25.6</ele><time>2021-05-01T13:00:43Z</time><name>PT218</name></trkpt>
<trkpt lat="52.043084" lon="05.726292"><ele>25.6</ele><time>2021-05-01T13:00:43Z</time><name>PT219</name></trkpt>
<trkpt lat="52.043084" lon="05.726272"><ele>25.5</ele><time>2021-05-01T13:00:45Z</time><name>PT220</name></trkpt>
<trkpt lat="52.043088" lon="05.726254"><ele>25.3</ele><time>2021-05-01T13:00:45Z</time><name>PT221</name></trkpt>
<trkpt lat="52.043091" lon="05.726235"><ele>25.2</ele><time>2021-05-01T13:00:47Z</time><name>PT222</name></trkpt>
<trkpt lat="52.043094" lon="05.726218"><ele>25.3</ele><time>2021-05-01T13:00:47Z</time><name>PT223</name></trkpt>
<trkpt lat="52.043098" lon="05.726207"><ele>25.3</ele><time>2021-05-01T13:00:49Z</time><name>PT224</name></trkpt>
<trkpt lat="52.043099" lon="05.726198"><ele>25.3</ele><time>2021-05-01T13:00:50Z</time><name>PT225</name></trkpt>
<trkpt lat="52.043101" lon="05.726183"><ele>25.3</ele><time>2021-05-01T13:00:50Z</time><name>PT226</name></trkpt>
<trkpt lat="52.043102" lon="05.726159"><ele>25.3</ele><time>2021-05-01T13:00:52Z</time><name>PT227</name></trkpt>
<trkpt lat="52.043103" lon="05.726128"><ele>25.1</ele><time>2021-05-01T13:00:52Z</time><name>PT228</name></trkpt>
<trkpt lat="52.043101" lon="05.726092"><ele>25</ele><time>2021-05-01T13:00:54Z</time><name>PT229</name></trkpt>
<trkpt lat="52.043096" lon="05.726069"><ele>24.9</ele><time>2021-05-01T13:00:54Z</time><name>PT230</name></trkpt>
<trkpt lat="52.043091" lon="05.726049"><ele>25.1</ele><time>2021-05-01T13:00:56Z</time><name>PT231</name></trkpt>
<trkpt lat="52.043092" lon="05.726030"><ele>25.2</ele><time>2021-05-01T13:00:56Z</time><name>PT232</name></trkpt>
<trkpt lat="52.043094" lon="05.726010"><ele>25.3</ele><time>2021-05-01T13:00:58Z</time><name>PT233</name></trkpt>
<trkpt lat="52.043094" lon="05.725986"><ele>25.4</ele><time>2021-05-01T13:00:59Z</time><name>PT234</name></trkpt>
<trkpt lat="52.043096" lon="05.725967"><ele>25.3</ele><time>2021-05-01T13:01:00Z</time><name>PT235</name></trkpt>
<trkpt lat="52.043100" lon="05.725955"><ele>25.3</ele><time>2021-05-01T13:01:00Z</time><name>PT236</name></trkpt>
<trkpt lat="52.043101" lon="05.725944"><ele>25.2</ele><time>2021-05-01T13:01:02Z</time><name>PT237</name></trkpt>
<trkpt lat="52.043099" lon="05.725935"><ele>25.2</ele><time>2021-05-01T13:01:03Z</time><name>PT238</name></trkpt>
<trkpt lat="52.043102" lon="05.725931"><ele>25.1</ele><time>2021-05-01T13:01:04Z</time><name>PT239</name></trkpt>
<trkpt lat="52.043103" lon="05.725926"><ele>25.3</ele><time>2021-05-01T13:01:05Z</time><name>PT240</name></trkpt>
<trkpt lat="52.043100" lon="05.725919"><ele>25.3</ele><time>2021-05-01T13:01:05Z</time><name>PT241</name></trkpt>
<trkpt lat="52.043097" lon="05.725902"><ele>25.4</ele><time>2021-05-01T13:01:07Z</time><name>PT242</name></trkpt>
<trkpt lat="52.043098" lon="05.725881"><ele>25.3</ele><time>2021-05-01T13:01:07Z</time><name>PT243</name></trkpt>
<trkpt lat="52.043100" lon="05.725858"><ele>25.3</ele><time>2021-05-01T13:01:09Z</time><name>PT244</name></trkpt>
<trkpt lat="52.043103" lon="05.725837"><ele>25.3</ele><time>2021-05-01T13:01:10Z</time><name>PT245</name></trkpt>
<trkpt lat="52.043105" lon="05.725815"><ele>25.1</ele><time>2021-05-01T13:01:10Z</time><name>PT246</name></trkpt>
<trkpt lat="52.043109" lon="05.725793"><ele>25.2</ele><time>2021-05-01T13:01:12Z</time><name>PT247</name></trkpt>
<trkpt lat="52.043114" lon="05.725776"><ele>25.3</ele><time>2021-05-01T13:01:12Z</time><name>PT248</name></trkpt>
<trkpt lat="52.043117" lon="05.725756"><ele>25.3</ele><time>2021-05-01T13:01:14Z</time><name>PT249</name></trkpt>
<trkpt lat="52.043120" lon="05.725737"><ele>25.3</ele><time>2021-05-01T13:01:14Z</time><name>PT250</name></trkpt>
<trkpt lat="52.043122" lon="05.725714"><ele>25.4</ele><time>2021-05-01T13:01:16Z</time><name>PT251</name></trkpt>
<trkpt lat="52.043127" lon="05.725689"><ele>25.4</ele><time>2021-05-01T13:01:17Z</time><name>PT252</name></trkpt>
<trkpt lat="52.043131" lon="05.725666"><ele>25.3</ele><time>2021-05-01T13:01:18Z</time><name>PT253</name></trkpt>
<trkpt lat="52.043135" lon="05.725644"><ele>25.2</ele><time>2021-05-01T13:01:19Z</time><name>PT254</name></trkpt>
<trkpt lat="52.043137" lon="05.725619"><ele>25.2</ele><time>2021-05-01T13:01:20Z</time><name>PT255</name></trkpt>
<trkpt lat="52.043140" lon="05.725596"><ele>25.2</ele><time>2021-05-01T13:01:20Z</time><name>PT256</name></trkpt>
<trkpt lat="52.043143" lon="05.725576"><ele>25.1</ele><time>2021-05-01T13:01:22Z</time><name>PT257</name></trkpt>
<trkpt lat="52.043144" lon="05.725556"><ele>25.3</ele><time>2021-05-01T13:01:22Z</time><name>PT258</name></trkpt>
<trkpt lat="52.043139" lon="05.725530"><ele>25.3</ele><time>2021-05-01T13:01:24Z</time><name>PT259</name></trkpt>
<trkpt lat="52.043140" lon="05.725508"><ele>25.4</ele><time>2021-05-01T13:01:24Z</time><name>PT260</name></trkpt>
<trkpt lat="52.043140" lon="05.725503"><ele>25.5</ele><time>2021-05-01T13:01:26Z</time><name>PT261</name></trkpt>
<trkpt lat="52.043142" lon="05.725493"><ele>25.5</ele><time>2021-05-01T13:01:27Z</time><name>PT262</name></trkpt>
<trkpt lat="52.043147" lon="05.725477"><ele>25.5</ele><time>2021-05-01T13:01:28Z</time><name>PT263</name></trkpt>
<trkpt lat="52.043154" lon="05.725455"><ele>25.7</ele><time>2021-05-01T13:01:29Z</time><name>PT264</name></trkpt>
<trkpt lat="52.043160" lon="05.725429"><ele>25.5</ele><time>2021-05-01T13:01:30Z</time><name>PT265</name></trkpt>
<trkpt lat="52.043168" lon="05.725400"><ele>25.5</ele><time>2021-05-01T13:01:30Z</time><name>PT266</name></trkpt>
<trkpt lat="52.043179" lon="05.725371"><ele>25.4</ele><time>2021-05-01T13:01:32Z</time><name>PT267</name></trkpt>
<trkpt lat="52.043188" lon="05.725340"><ele>25.3</ele><time>2021-05-01T13:01:33Z</time><name>PT268</name></trkpt>
<trkpt lat="52.043199" lon="05.725304"><ele>25.3</ele><time>2021-05-01T13:01:33Z</time><name>PT269</name></trkpt>
<trkpt lat="52.043209" lon="05.725274"><ele>25.3</ele><time>2021-05-01T13:01:35Z</time><name>PT270</name></trkpt>
<trkpt lat="52.043222" lon="05.725250"><ele>25.2</ele><time>2021-05-01T13:01:36Z</time><name>PT271</name></trkpt>
<trkpt lat="52.043232" lon="05.725227"><ele>25.3</ele><time>2021-05-01T13:01:36Z</time><name>PT272</name></trkpt>
<trkpt lat="52.043238" lon="05.725206"><ele>25.3</ele><time>2021-05-01T13:01:38Z</time><name>PT273</name></trkpt>
<trkpt lat="52.043244" lon="05.725196"><ele>25.3</ele><time>2021-05-01T13:01:39Z</time><name>PT274</name></trkpt>
<trkpt lat="52.043245" lon="05.725185"><ele>25.4</ele><time>2021-05-01T13:01:39Z</time><name>PT275</name></trkpt>
<trkpt lat="52.043248" lon="05.725180"><ele>25.4</ele><time>2021-05-01T13:01:41Z</time><name>PT276</name></trkpt>
<trkpt lat="52.043250" lon="05.725169"><ele>25.3</ele><time>2021-05-01T13:01:42Z</time><name>PT277</name></trkpt>
<trkpt lat="52.043253" lon="05.725153"><ele>25.4</ele><time>2021-05-01T13:01:43Z</time><name>PT278</name></trkpt>
<trkpt lat="52.043245" lon="05.725142"><ele>25.5</ele><time>2021-05-01T13:01:44Z</time><name>PT279</name></trkpt>
<trkpt lat="52.043250" lon="05.725129"><ele>25.5</ele><time>2021-05-01T13:01:45Z</time><name>PT280</name></trkpt>
<trkpt lat="52.043258" lon="05.725112"><ele>25.6</ele><time>2021-05-01T13:01:46Z</time><name>PT281</name></trkpt>
<trkpt lat="52.043265" lon="05.725093"><ele>25.7</ele><time>2021-05-01T13:01:47Z</time><name>PT282</name></trkpt>
<trkpt lat="52.043273" lon="05.725075"><ele>25.7</ele><time>2021-05-01T13:01:48Z</time><name>PT283</name></trkpt>
<trkpt lat="52.043279" lon="05.725059"><ele>25.6</ele><time>2021-05-01T13:01:49Z</time><name>PT284</name></trkpt>
<trkpt lat="52.043284" lon="05.725044"><ele>25.4</ele><time>2021-05-01T13:01:50Z</time><name>PT285</name></trkpt>
<trkpt lat="52.043289" lon="05.725029"><ele>25.3</ele><time>2021-05-01T13:01:51Z</time><name>PT286</name></trkpt>
<trkpt lat="52.043292" lon="05.725015"><ele>25.3</ele><time>2021-05-01T13:01:52Z</time><name>PT287</name></trkpt>
<trkpt lat="52.043299" lon="05.725000"><ele>25.4</ele><time>2021-05-01T13:01:52Z</time><name>PT288</name></trkpt>
<trkpt lat="52.043306" lon="05.724984"><ele>25.4</ele><time>2021-05-01T13:01:54Z</time><name>PT289</name></trkpt>
<trkpt lat="52.043310" lon="05.724967"><ele>25.3</ele><time>2021-05-01T13:01:55Z</time><name>PT290</name></trkpt>
<trkpt lat="52.043312" lon="05.724951"><ele>25.4</ele><time>2021-05-01T13:01:55Z</time><name>PT291</name></trkpt>
<trkpt lat="52.043317" lon="05.724934"><ele>25.5</ele><time>2021-05-01T13:01:57Z</time><name>PT292</name></trkpt>
<trkpt lat="52.043325" lon="05.724917"><ele>25.4</ele><time>2021-05-01T13:01:57Z</time><name>PT293</name></trkpt>
<trkpt lat="52.043332" lon="05.724900"><ele>25.5</ele><time>2021-05-01T13:01:59Z</time><name>PT294</name></trkpt>
<trkpt lat="52.043339" lon="05.724884"><ele>25.6</ele><time>2021-05-01T13:01:59Z</time><name>PT295</name></trkpt>
<trkpt lat="52.043348" lon="05.724868"><ele>25.6</ele><time>2021-05-01T13:02:01Z</time><name>PT296</name></trkpt>
<trkpt lat="52.043356" lon="05.724854"><ele>25.7</ele><time>2021-05-01T13:02:01Z</time><name>PT297</name></trkpt>
<trkpt lat="52.043366" lon="05.724838"><ele>25.6</ele><time>2021-05-01T13:02:03Z</time><name>PT298</name></trkpt>
<trkpt lat="52.043373" lon="05.724823"><ele>25.5</ele><time>2021-05-01T13:02:03Z</time><name>PT299</name></trkpt>
<trkpt lat="52.043379" lon="05.724808"><ele>25.3</ele><time>2021-05-01T13:02:05Z</time><name>PT300</name></trkpt>
<trkpt lat="52.043386" lon="05.724792"><ele>25.3</ele><time>2021-05-01T13:02:05Z</time><name>PT301</name></trkpt>
<trkpt lat="52.043389" lon="05.724775"><ele>25.4</ele><time>2021-05-01T13:02:07Z</time><name>PT302</name></trkpt>
<trkpt lat="52.043395" lon="05.724758"><ele>25.5</ele><time>2021-05-01T13:02:07Z</time><name>PT303</name></trkpt>
<trkpt lat="52.043397" lon="05.724743"><ele>25.7</ele><time>2021-05-01T13:02:09Z</time><name>PT304</name></trkpt>
<trkpt lat="52.043402" lon="05.724728"><ele>25.4</ele><time>2021-05-01T13:02:09Z</time><name>PT305</name></trkpt>
<trkpt lat="52.043411" lon="05.724711"><ele>25.6</ele><time>2021-05-01T13:02:11Z</time><name>PT306</name></trkpt>
<trkpt lat="52.043416" lon="05.724694"><ele>25.3</ele><time>2021-05-01T13:02:11Z</time><name>PT307</name></trkpt>
<trkpt lat="52.043423" lon="05.724679"><ele>25.4</ele><time>2021-05-01T13:02:13Z</time><name>PT308</name></trkpt>
<trkpt lat="52.043430" lon="05.724664"><ele>25.3</ele><time>2021-05-01T13:02:13Z</time><name>PT309</name></trkpt>
<trkpt lat="52.043439" lon="05.724646"><ele>25.5</ele><time>2021-05-01T13:02:15Z</time><name>PT310</name></trkpt>
<trkpt lat="52.043444" lon="05.724631"><ele>25.4</ele><time>2021-05-01T13:02:15Z</time><name>PT311</name></trkpt>
<trkpt lat="52.043451" lon="05.724614"><ele>25.3</ele><time>2021-05-01T13:02:17Z</time><name>PT312</name></trkpt>
<trkpt lat="52.043458" lon="05.724598"><ele>25.2</ele><time>2021-05-01T13:02:17Z</time><name>PT313</name></trkpt>
<trkpt lat="52.043465" lon="05.724581"><ele>25.1</ele><time>2021-05-01T13:02:19Z</time><name>PT314</name></trkpt>
<trkpt lat="52.043475" lon="05.724566"><ele>25</ele><time>2021-05-01T13:02:19Z</time><name>PT315</name></trkpt>
<trkpt lat="52.043483" lon="05.724550"><ele>25.3</ele><time>2021-05-01T13:02:21Z</time><name>PT316</name></trkpt>
<trkpt lat="52.043491" lon="05.724531"><ele>25.6</ele><time>2021-05-01T13:02:22Z</time><name>PT317</name></trkpt>
<trkpt lat="52.043498" lon="05.724512"><ele>25.7</ele><time>2021-05-01T13:02:22Z</time><name>PT318</name></trkpt>
<trkpt lat="52.043505" lon="05.724494"><ele>25.8</ele><time>2021-05-01T13:02:24Z</time><name>PT319</name></trkpt>
<trkpt lat="52.043507" lon="05.724480"><ele>25.8</ele><time>2021-05-01T13:02:25Z</time><name>PT320</name></trkpt>
<trkpt lat="52.043506" lon="05.724467"><ele>25.8</ele><time>2021-05-01T13:02:25Z</time><name>PT321</name></trkpt>
<trkpt lat="52.043509" lon="05.724450"><ele>25.5</ele><time>2021-05-01T13:02:27Z</time><name>PT322</name></trkpt>
<trkpt lat="52.043514" lon="05.724433"><ele>25.4</ele><time>2021-05-01T13:02:27Z</time><name>PT323</name></trkpt>
<trkpt lat="52.043517" lon="05.724415"><ele>25.3</ele><time>2021-05-01T13:02:29Z</time><name>PT324</name></trkpt>
<trkpt lat="52.043523" lon="05.724401"><ele>25.4</ele><time>2021-05-01T13:02:29Z</time><name>PT325</name></trkpt>
<trkpt lat="52.043531" lon="05.724387"><ele>25.4</ele><time>2021-05-01T13:02:31Z</time><name>PT326</name></trkpt>
<trkpt lat="52.043537" lon="05.724370"><ele>25.5</ele><time>2021-05-01T13:02:32Z</time><name>PT327</name></trkpt>
<trkpt lat="52.043540" lon="05.724351"><ele>25.3</ele><time>2021-05-01T13:02:32Z</time><name>PT328</name></trkpt>
<trkpt lat="52.043542" lon="05.724337"><ele>25.3</ele><time>2021-05-01T13:02:34Z</time><name>PT329</name></trkpt>
<trkpt lat="52.043547" lon="05.724319"><ele>25.3</ele><time>2021-05-01T13:02:34Z</time><name>PT330</name></trkpt>
<trkpt lat="52.043546" lon="05.724302"><ele>25.1</ele><time>2021-05-01T13:02:36Z</time><name>PT331</name></trkpt>
<trkpt lat="52.043549" lon="05.724285"><ele>25.1</ele><time>2021-05-01T13:02:37Z</time><name>PT332</name></trkpt>
<trkpt lat="52.043552" lon="05.724269"><ele>25.2</ele><time>2021-05-01T13:02:37Z</time><name>PT333</name></trkpt>
<trkpt lat="52.043555" lon="05.724252"><ele>25.3</ele><time>2021-05-01T13:02:39Z</time><name>PT334</name></trkpt>
<trkpt lat="52.043557" lon="05.724228"><ele>25.3</ele><time>2021-05-01T13:02:39Z</time><name>PT335</name></trkpt>
<trkpt lat="52.043560" lon="05.724207"><ele>25.5</ele><time>2021-05-01T13:02:41Z</time><name>PT336</name></trkpt>
<trkpt lat="52.043562" lon="05.724184"><ele>25.7</ele><time>2021-05-01T13:02:41Z</time><name>PT337</name></trkpt>
<trkpt lat="52.043567" lon="05.724165"><ele>25.7</ele><time>2021-05-01T13:02:43Z</time><name>PT338</name></trkpt>
<trkpt lat="52.043572" lon="05.724148"><ele>25.6</ele><time>2021-05-01T13:02:44Z</time><name>PT339</name></trkpt>
<trkpt lat="52.043576" lon="05.724131"><ele>25.7</ele><time>2021-05-01T13:02:44Z</time><name>PT340</name></trkpt>
<trkpt lat="52.043581" lon="05.724112"><ele>25.6</ele><time>2021-05-01T13:02:46Z</time><name>PT341</name></trkpt>
<trkpt lat="52.043585" lon="05.724094"><ele>25.5</ele><time>2021-05-01T13:02:47Z</time><name>PT342</name></trkpt>
<trkpt lat="52.043587" lon="05.724076"><ele>25.5</ele><time>2021-05-01T13:02:47Z</time><name>PT343</name></trkpt>
<trkpt lat="52.043590" lon="05.724055"><ele>25.3</ele><time>2021-05-01T13:02:49Z</time><name>PT344</name></trkpt>
<trkpt lat="52.043594" lon="05.724036"><ele>25.2</ele><time>2021-05-01T13:02:50Z</time><name>PT345</name></trkpt>
<trkpt lat="52.043598" lon="05.724018"><ele>25</ele><time>2021-05-01T13:02:50Z</time><name>PT346</name></trkpt>
<trkpt lat="52.043600" lon="05.723998"><ele>24.9</ele><time>2021-05-01T13:02:52Z</time><name>PT347</name></trkpt>
<trkpt lat="52.043603" lon="05.723976"><ele>24.9</ele><time>2021-05-01T13:02:53Z</time><name>PT348</name></trkpt>
<trkpt lat="52.043609" lon="05.723955"><ele>25.1</ele><time>2021-05-01T13:02:54Z</time><name>PT349</name></trkpt>
<trkpt lat="52.043614" lon="05.723932"><ele>25.3</ele><time>2021-05-01T13:02:55Z</time><name>PT350</name></trkpt>
<trkpt lat="52.043618" lon="05.723910"><ele>25.4</ele><time>2021-05-01T13:02:56Z</time><name>PT351</name></trkpt>
<trkpt lat="52.043622" lon="05.723890"><ele>25.5</ele><time>2021-05-01T13:02:57Z</time><name>PT352</name></trkpt>
<trkpt lat="52.043626" lon="05.723872"><ele>25.4</ele><time>2021-05-01T13:02:58Z</time><name>PT353</name></trkpt>
<trkpt lat="52.043632" lon="05.723854"><ele>25.1</ele><time>2021-05-01T13:02:59Z</time><name>PT354</name></trkpt>
<trkpt lat="52.043635" lon="05.723836"><ele>24.9</ele><time>2021-05-01T13:03:00Z</time><name>PT355</name></trkpt>
<trkpt lat="52.043639" lon="05.723818"><ele>24.8</ele><time>2021-05-01T13:03:01Z</time><name>PT356</name></trkpt>
<trkpt lat="52.043643" lon="05.723800"><ele>24.6</ele><time>2021-05-01T13:03:02Z</time><name>PT357</name></trkpt>
<trkpt lat="52.043646" lon="05.723780"><ele>24.8</ele><time>2021-05-01T13:03:03Z</time><name>PT358</name></trkpt>
<trkpt lat="52.043650" lon="05.723764"><ele>24.8</ele><time>2021-05-01T13:03:04Z</time><name>PT359</name></trkpt>
<trkpt lat="52.043653" lon="05.723746"><ele>25</ele><time>2021-05-01T13:03:05Z</time><name>PT360</name></trkpt>
<trkpt lat="52.043656" lon="05.723724"><ele>24.9</ele><time>2021-05-01T13:03:05Z</time><name>PT361</name></trkpt>
<trkpt lat="52.043659" lon="05.723703"><ele>25.1</ele><time>2021-05-01T13:03:07Z</time><name>PT362</name></trkpt>
<trkpt lat="52.043663" lon="05.723682"><ele>25.1</ele><time>2021-05-01T13:03:07Z</time><name>PT363</name></trkpt>
<trkpt lat="52.043667" lon="05.723663"><ele>25</ele><time>2021-05-01T13:03:09Z</time><name>PT364</name></trkpt>
<trkpt lat="52.043673" lon="05.723642"><ele>24.9</ele><time>2021-05-01T13:03:09Z</time><name>PT365</name></trkpt>
<trkpt lat="52.043680" lon="05.723620"><ele>25.1</ele><time>2021-05-01T13:03:11Z</time><name>PT366</name></trkpt>
<trkpt lat="52.043685" lon="05.723601"><ele>25.1</ele><time>2021-05-01T13:03:11Z</time><name>PT367</name></trkpt>
<trkpt lat="52.043691" lon="05.723581"><ele>24.9</ele><time>2021-05-01T13:03:13Z</time><name>PT368</name></trkpt>
<trkpt lat="52.043696" lon="05.723561"><ele>25</ele><time>2021-05-01T13:03:13Z</time><name>PT369</name></trkpt>
<trkpt lat="52.043702" lon="05.723544"><ele>25</ele><time>2021-05-01T13:03:15Z</time><name>PT370</name></trkpt>
<trkpt lat="52.043708" lon="05.723529"><ele>24.9</ele><time>2021-05-01T13:03:15Z</time><name>PT371</name></trkpt>
<trkpt lat="52.043713" lon="05.723513"><ele>25</ele><time>2021-05-01T13:03:17Z</time><name>PT372</name></trkpt>
<trkpt lat="52.043718" lon="05.723499"><ele>25.2</ele><time>2021-05-01T13:03:17Z</time><name>PT373</name></trkpt>
<trkpt lat="52.043723" lon="05.723482"><ele>25.2</ele><time>2021-05-01T13:03:19Z</time><name>PT374</name></trkpt>
<trkpt lat="52.043729" lon="05.723464"><ele>25</ele><time>2021-05-01T13:03:19Z</time><name>PT375</name></trkpt>
<trkpt lat="52.043735" lon="05.723448"><ele>25.1</ele><time>2021-05-01T13:03:21Z</time><name>PT376</name></trkpt>
<trkpt lat="52.043741" lon="05.723432"><ele>25.2</ele><time>2021-05-01T13:03:21Z</time><name>PT377</name></trkpt>
<trkpt lat="52.043747" lon="05.723416"><ele>25.1</ele><time>2021-05-01T13:03:23Z</time><name>PT378</name></trkpt>
<trkpt lat="52.043755" lon="05.723401"><ele>25.1</ele><time>2021-05-01T13:03:23Z</time><name>PT379</name></trkpt>
<trkpt lat="52.043763" lon="05.723385"><ele>25.1</ele><time>2021-05-01T13:03:25Z</time><name>PT380</name></trkpt>
<trkpt lat="52.043770" lon="05.723368"><ele>25.2</ele><time>2021-05-01T13:03:25Z</time><name>PT381</name></trkpt>
<trkpt lat="52.043780" lon="05.723351"><ele>25.1</ele><time>2021-05-01T13:03:27Z</time><name>PT382</name></trkpt>
<trkpt lat="52.043790" lon="05.723336"><ele>25.1</ele><time>2021-05-01T13:03:27Z</time><name>PT383</name></trkpt>
<trkpt lat="52.043799" lon="05.723322"><ele>25.3</ele><time>2021-05-01T13:03:29Z</time><name>PT384</name></trkpt>
<trkpt lat="52.043809" lon="05.723308"><ele>25.3</ele><time>2021-05-01T13:03:29Z</time><name>PT385</name></trkpt>
<trkpt lat="52.043820" lon="05.723294"><ele>25.4</ele><time>2021-05-01T13:03:31Z</time><name>PT386</name></trkpt>
<trkpt lat="52.043831" lon="05.723281"><ele>25.4</ele><time>2021-05-01T13:03:31Z</time><name>PT387</name></trkpt>
<trkpt lat="52.043843" lon="05.723272"><ele>25.3</ele><time>2021-05-01T13:03:33Z</time><name>PT388</name></trkpt>
<trkpt lat="52.043853" lon="05.723263"><ele>25.3</ele><time>2021-05-01T13:03:34Z</time><name>PT389</name></trkpt>
<trkpt lat="52.043863" lon="05.723253"><ele>25.3</ele><time>2021-05-01T13:03:34Z</time><name>PT390</name></trkpt>
<trkpt lat="52.043873" lon="05.723245"><ele>25.4</ele><time>2021-05-01T13:03:36Z</time><name>PT391</name></trkpt>
<trkpt lat="52.043889" lon="05.723245"><ele>25.5</ele><time>2021-05-01T13:03:36Z</time><name>PT392</name></trkpt>
<trkpt lat="52.043900" lon="05.723241"><ele>25.9</ele><time>2021-05-01T13:03:38Z</time><name>PT393</name></trkpt>
<trkpt lat="52.043911" lon="05.723238"><ele>26</ele><time>2021-05-01T13:03:38Z</time><name>PT394</name></trkpt>
<trkpt lat="52.043921" lon="05.723237"><ele>26.2</ele><time>2021-05-01T13:03:40Z</time><name>PT395</name></trkpt>
<trkpt lat="52.043932" lon="05.723234"><ele>26.1</ele><time>2021-05-01T13:03:40Z</time><name>PT396</name></trkpt>
<trkpt lat="52.043944" lon="05.723230"><ele>26.3</ele><time>2021-05-01T13:03:42Z</time><name>PT397</name></trkpt>
<trkpt lat="52.043953" lon="05.723225"><ele>26.2</ele><time>2021-05-01T13:03:42Z</time><name>PT398</name></trkpt>
<trkpt lat="52.043959" lon="05.723215"><ele>26.2</ele><time>2021-05-01T13:03:44Z</time><name>PT399</name></trkpt>
<trkpt lat="52.043964" lon="05.723206"><ele>26.1</ele><time>2021-05-01T13:03:44Z</time><name>PT400</name></trkpt>
<trkpt lat="52.043973" lon="05.723195"><ele>26.3</ele><time>2021-05-01T13:03:46Z</time><name>PT401</name></trkpt>
<trkpt lat="52.043978" lon="05.723183"><ele>26.2</ele><time>2021-05-01T13:03:46Z</time><name>PT402</name></trkpt>
<trkpt lat="52.043984" lon="05.723170"><ele>26.1</ele><time>2021-05-01T13:03:48Z</time><name>PT403</name></trkpt>
<trkpt lat="52.043989" lon="05.723156"><ele>26.1</ele><time>2021-05-01T13:03:48Z</time><name>PT404</name></trkpt>
<trkpt lat="52.043996" lon="05.723139"><ele>26.1</ele><time>2021-05-01T13:03:50Z</time><name>PT405</name></trkpt>
<trkpt lat="52.044000" lon="05.723126"><ele>26.2</ele><time>2021-05-01T13:03:51Z</time><name>PT406</name></trkpt>
<trkpt lat="52.044007" lon="05.723112"><ele>26.3</ele><time>2021-05-01T13:03:51Z</time><name>PT407</name></trkpt>
<trkpt lat="52.044014" lon="05.723098"><ele>26.6</ele><time>2021-05-01T13:03:53Z</time><name>PT408</name></trkpt>
<trkpt lat="52.044022" lon="05.723080"><ele>26.7</ele><time>2021-05-01T13:03:54Z</time><name>PT409</name></trkpt>
<trkpt lat="52.044034" lon="05.723067"><ele>26.8</ele><time>2021-05-01T13:03:54Z</time><name>PT410</name></trkpt>
<trkpt lat="52.044045" lon="05.723050"><ele>26.8</ele><time>2021-05-01T13:03:56Z</time><name>PT411</name></trkpt>
<trkpt lat="52.044054" lon="05.723034"><ele>26.8</ele><time>2021-05-01T13:03:56Z</time><name>PT412</name></trkpt>
<trkpt lat="52.044061" lon="05.723019"><ele>26.5</ele><time>2021-05-01T13:03:58Z</time><name>PT413</name></trkpt>
<trkpt lat="52.044067" lon="05.723006"><ele>26.3</ele><time>2021-05-01T13:03:58Z</time><name>PT414</name></trkpt>
<trkpt lat="52.044075" lon="05.722990"><ele>26.5</ele><time>2021-05-01T13:04:00Z</time><name>PT415</name></trkpt>
<trkpt lat="52.044084" lon="05.722975"><ele>26.3</ele><time>2021-05-01T13:04:01Z</time><name>PT416</name></trkpt>
<trkpt lat="52.044091" lon="05.722960"><ele>26.3</ele><time>2021-05-01T13:04:01Z</time><name>PT417</name></trkpt>
<trkpt lat="52.044100" lon="05.722942"><ele>26.3</ele><time>2021-05-01T13:04:03Z</time><name>PT418</name></trkpt>
<trkpt lat="52.044108" lon="05.722920"><ele>26.2</ele><time>2021-05-01T13:04:03Z</time><name>PT419</name></trkpt>
<trkpt lat="52.044116" lon="05.722898"><ele>26.1</ele><time>2021-05-01T13:04:05Z</time><name>PT420</name></trkpt>
<trkpt lat="52.044124" lon="05.722878"><ele>26.2</ele><time>2021-05-01T13:04:05Z</time><name>PT421</name></trkpt>
<trkpt lat="52.044132" lon="05.722859"><ele>26</ele><time>2021-05-01T13:04:07Z</time><name>PT422</name></trkpt>
<trkpt lat="52.044139" lon="05.722836"><ele>26.1</ele><time>2021-05-01T13:04:07Z</time><name>PT423</name></trkpt>
<trkpt lat="52.044145" lon="05.722819"><ele>26.2</ele><time>2021-05-01T13:04:09Z</time><name>PT424</name></trkpt>
<trkpt lat="52.044152" lon="05.722807"><ele>26.2</ele><time>2021-05-01T13:04:09Z</time><name>PT425</name></trkpt>
<trkpt lat="52.044161" lon="05.722788"><ele>26.3</ele><time>2021-05-01T13:04:11Z</time><name>PT426</name></trkpt>
<trkpt lat="52.044167" lon="05.722770"><ele>26.3</ele><time>2021-05-01T13:04:11Z</time><name>PT427</name></trkpt>
<trkpt lat="52.044176" lon="05.722755"><ele>26.3</ele><time>2021-05-01T13:04:13Z</time><name>PT428</name></trkpt>
<trkpt lat="52.044184" lon="05.722742"><ele>26.3</ele><time>2021-05-01T13:04:13Z</time><name>PT429</name></trkpt>
<trkpt lat="52.044192" lon="05.722727"><ele>26.3</ele><time>2021-05-01T13:04:15Z</time><name>PT430</name></trkpt>
<trkpt lat="52.044203" lon="05.722712"><ele>26.3</ele><time>2021-05-01T13:04:15Z</time><name>PT431</name></trkpt>
<trkpt lat="52.044211" lon="05.722697"><ele>26.3</ele><time>2021-05-01T13:04:17Z</time><name>PT432</name></trkpt>
<trkpt lat="52.044218" lon="05.722680"><ele>26.2</ele><time>2021-05-01T13:04:18Z</time><name>PT433</name></trkpt>
<trkpt lat="52.044225" lon="05.722662"><ele>26</ele><time>2021-05-01T13:04:19Z</time><name>PT434</name></trkpt>
<trkpt lat="52.044233" lon="05.722642"><ele>25.9</ele><time>2021-05-01T13:04:20Z</time><name>PT435</name></trkpt>
<trkpt lat="52.044239" lon="05.722624"><ele>26</ele><time>2021-05-01T13:04:21Z</time><name>PT436</name></trkpt>
<trkpt lat="52.044246" lon="05.722605"><ele>25.9</ele><time>2021-05-01T13:04:21Z</time><name>PT437</name></trkpt>
<trkpt lat="52.044255" lon="05.722586"><ele>26.1</ele><time>2021-05-01T13:04:23Z</time><name>PT438</name></trkpt>
<trkpt lat="52.044264" lon="05.722568"><ele>26.3</ele><time>2021-05-01T13:04:23Z</time><name>PT439</name></trkpt>
<trkpt lat="52.044271" lon="05.722552"><ele>26.3</ele><time>2021-05-01T13:04:25Z</time><name>PT440</name></trkpt>
<trkpt lat="52.044279" lon="05.722533"><ele>26.4</ele><time>2021-05-01T13:04:25Z</time><name>PT441</name></trkpt>
<trkpt lat="52.044286" lon="05.722518"><ele>26.6</ele><time>2021-05-01T13:04:27Z</time><name>PT442</name></trkpt>
<trkpt lat="52.044294" lon="05.722505"><ele>26.5</ele><time>2021-05-01T13:04:27Z</time><name>PT443</name></trkpt>
<trkpt lat="52.044303" lon="05.722492"><ele>26.5</ele><time>2021-05-01T13:04:29Z</time><name>PT444</name></trkpt>
<trkpt lat="52.044311" lon="05.722477"><ele>26.6</ele><time>2021-05-01T13:04:29Z</time><name>PT445</name></trkpt>
<trkpt lat="52.044319" lon="05.722466"><ele>26.4</ele><time>2021-05-01T13:04:31Z</time><name>PT446</name></trkpt>
<trkpt lat="52.044326" lon="05.722453"><ele>26.3</ele><time>2021-05-01T13:04:31Z</time><name>PT447</name></trkpt>
<trkpt lat="52.044333" lon="05.722439"><ele>26.3</ele><time>2021-05-01T13:04:33Z</time><name>PT448</name></trkpt>
<trkpt lat="52.044340" lon="05.722426"><ele>26.3</ele><time>2021-05-01T13:04:33Z</time><name>PT449</name></trkpt>
<trkpt lat="52.044347" lon="05.722411"><ele>26.3</ele><time>2021-05-01T13:04:35Z</time><name>PT450</name></trkpt>
<trkpt lat="52.044353" lon="05.722394"><ele>26.3</ele><time>2021-05-01T13:04:35Z</time><name>PT451</name></trkpt>
<trkpt lat="52.044361" lon="05.722377"><ele>26.3</ele><time>2021-05-01T13:04:37Z</time><name>PT452</name></trkpt>
<trkpt lat="52.044370" lon="05.722362"><ele>26.2</ele><time>2021-05-01T13:04:37Z</time><name>PT453</name></trkpt>
<trkpt lat="52.044379" lon="05.722343"><ele>26.1</ele><time>2021-05-01T13:04:39Z</time><name>PT454</name></trkpt>
<trkpt lat="52.044388" lon="05.722325"><ele>26.3</ele><time>2021-05-01T13:04:39Z</time><name>PT455</name></trkpt>
<trkpt lat="52.044396" lon="05.722306"><ele>26.3</ele><time>2021-05-01T13:04:41Z</time><name>PT456</name></trkpt>
<trkpt lat="52.044403" lon="05.722285"><ele>26.3</ele><time>2021-05-01T13:04:42Z</time><name>PT457</name></trkpt>
<trkpt lat="52.044409" lon="05.722267"><ele>26.3</ele><time>2021-05-01T13:04:43Z</time><name>PT458</name></trkpt>
<trkpt lat="52.044417" lon="05.722251"><ele>26.3</ele><time>2021-05-01T13:04:44Z</time><name>PT459</name></trkpt>
<trkpt lat="52.044425" lon="05.722237"><ele>26.2</ele><time>2021-05-01T13:04:45Z</time><name>PT460</name></trkpt>
<trkpt lat="52.044433" lon="05.722224"><ele>26.2</ele><time>2021-05-01T13:04:46Z</time><name>PT461</name></trkpt>
<trkpt lat="52.044441" lon="05.722213"><ele>26.2</ele><time>2021-05-01T13:04:47Z</time><name>PT462</name></trkpt>
<trkpt lat="52.044450" lon="05.722201"><ele>26.2</ele><time>2021-05-01T13:04:48Z</time><name>PT463</name></trkpt>
<trkpt lat="52.044459" lon="05.722190"><ele>26.3</ele><time>2021-05-01T13:04:49Z</time><name>PT464</name></trkpt>
<trkpt lat="52.044469" lon="05.722177"><ele>26.1</ele><time>2021-05-01T13:04:50Z</time><name>PT465</name></trkpt>
<trkpt lat="52.044476" lon="05.722161"><ele>26.1</ele><time>2021-05-01T13:04:51Z</time><name>PT466</name></trkpt>
<trkpt lat="52.044483" lon="05.722143"><ele>26.2</ele><time>2021-05-01T13:04:52Z</time><name>PT467</name></trkpt>
<trkpt lat="52.044490" lon="05.722126"><ele>26.2</ele><time>2021-05-01T13:04:53Z</time><name>PT468</name></trkpt>
<trkpt lat="52.044496" lon="05.722109"><ele>26.3</ele><time>2021-05-01T13:04:53Z</time><name>PT469</name></trkpt>
<trkpt lat="52.044502" lon="05.722092"><ele>26.6</ele><time>2021-05-01T13:04:55Z</time><name>PT470</name></trkpt>
<trkpt lat="52.044508" lon="05.722071"><ele>26.8</ele><time>2021-05-01T13:04:55Z</time><name>PT471</name></trkpt>
<trkpt lat="52.044519" lon="05.722054"><ele>26.7</ele><time>2021-05-01T13:04:57Z</time><name>PT472</name></trkpt>
<trkpt lat="52.044526" lon="05.722038"><ele>26.8</ele><time>2021-05-01T13:04:57Z</time><name>PT473</name></trkpt>
<trkpt lat="52.044533" lon="05.722021"><ele>26.7</ele><time>2021-05-01T13:04:59Z</time><name>PT474</name></trkpt>
<trkpt lat="52.044541" lon="05.722005"><ele>26.7</ele><time>2021-05-01T13:04:59Z</time><name>PT475</name></trkpt>
<trkpt lat="52.044549" lon="05.721994"><ele>26.8</ele><time>2021-05-01T13:05:01Z</time><name>PT476</name></trkpt>
<trkpt lat="52.044557" lon="05.721984"><ele>26.8</ele><time>2021-05-01T13:05:01Z</time><name>PT477</name></trkpt>
<trkpt lat="52.044566" lon="05.721973"><ele>26.7</ele><time>2021-05-01T13:05:03Z</time><name>PT478</name></trkpt>
<trkpt lat="52.044574" lon="05.721960"><ele>26.7</ele><time>2021-05-01T13:05:03Z</time><name>PT479</name></trkpt>
<trkpt lat="52.044582" lon="05.721944"><ele>26.6</ele><time>2021-05-01T13:05:05Z</time><name>PT480</name></trkpt>
<trkpt lat="52.044589" lon="05.721926"><ele>26.5</ele><time>2021-05-01T13:05:05Z</time><name>PT481</name></trkpt>
<trkpt lat="52.044596" lon="05.721908"><ele>26.6</ele><time>2021-05-01T13:05:07Z</time><name>PT482</name></trkpt>
<trkpt lat="52.044605" lon="05.721891"><ele>26.7</ele><time>2021-05-01T13:05:07Z</time><name>PT483</name></trkpt>
<trkpt lat="52.044612" lon="05.721873"><ele>26.6</ele><time>2021-05-01T13:05:09Z</time><name>PT484</name></trkpt>
<trkpt lat="52.044619" lon="05.721856"><ele>26.7</ele><time>2021-05-01T13:05:09Z</time><name>PT485</name></trkpt>
<trkpt lat="52.044628" lon="05.721840"><ele>26.6</ele><time>2021-05-01T13:05:11Z</time><name>PT486</name></trkpt>
<trkpt lat="52.044635" lon="05.721821"><ele>26.6</ele><time>2021-05-01T13:05:11Z</time><name>PT487</name></trkpt>
<trkpt lat="52.044642" lon="05.721805"><ele>26.6</ele><time>2021-05-01T13:05:13Z</time><name>PT488</name></trkpt>
<trkpt lat="52.044649" lon="05.721790"><ele>26.7</ele><time>2021-05-01T13:05:13Z</time><name>PT489</name></trkpt>
<trkpt lat="52.044657" lon="05.721775"><ele>26.7</ele><time>2021-05-01T13:05:15Z</time><name>PT490</name></trkpt>
<trkpt lat="52.044664" lon="05.721762"><ele>26.4</ele><time>2021-05-01T13:05:15Z</time><name>PT491</name></trkpt>
<trkpt lat="52.044672" lon="05.721748"><ele>26.3</ele><time>2021-05-01T13:05:17Z</time><name>PT492</name></trkpt>
<trkpt lat="52.044679" lon="05.721736"><ele>26.3</ele><time>2021-05-01T13:05:17Z</time><name>PT493</name></trkpt>
<trkpt lat="52.044686" lon="05.721724"><ele>26.3</ele><time>2021-05-01T13:05:19Z</time><name>PT494</name></trkpt>
<trkpt lat="52.044694" lon="05.721710"><ele>26.2</ele><time>2021-05-01T13:05:19Z</time><name>PT495</name></trkpt>
<trkpt lat="52.044697" lon="05.721696"><ele>26.3</ele><time>2021-05-01T13:05:21Z</time><name>PT496</name></trkpt>
<trkpt lat="52.044702" lon="05.721682"><ele>26.4</ele><time>2021-05-01T13:05:21Z</time><name>PT497</name></trkpt>
<trkpt lat="52.044707" lon="05.721666"><ele>26.5</ele><time>2021-05-01T13:05:23Z</time><name>PT498</name></trkpt>
<trkpt lat="52.044713" lon="05.721650"><ele>26.6</ele><time>2021-05-01T13:05:23Z</time><name>PT499</name></trkpt>
<trkpt lat="52.044720" lon="05.721632"><ele>26.6</ele><time>2021-05-01T13:05:25Z</time><name>PT500</name></trkpt>
<trkpt lat="52.044727" lon="05.721613"><ele>26.6</ele><time>2021-05-01T13:05:25Z</time><name>PT501</name></trkpt>
<trkpt lat="52.044735" lon="05.721597"><ele>26.7</ele><time>2021-05-01T13:05:27Z</time><name>PT502</name></trkpt>
<trkpt lat="52.044746" lon="05.721585"><ele>26.7</ele><time>2021-05-01T13:05:27Z</time><name>PT503</name></trkpt>
<trkpt lat="52.044754" lon="05.721573"><ele>26.5</ele><time>2021-05-01T13:05:29Z</time><name>PT504</name></trkpt>
<trkpt lat="52.044760" lon="05.721563"><ele>26.5</ele><time>2021-05-01T13:05:29Z</time><name>PT505</name></trkpt>
<trkpt lat="52.044767" lon="05.721551"><ele>26.4</ele><time>2021-05-01T13:05:31Z</time><name>PT506</name></trkpt>
<trkpt lat="52.044773" lon="05.721534"><ele>26.1</ele><time>2021-05-01T13:05:31Z</time><name>PT507</name></trkpt>
<trkpt lat="52.044780" lon="05.721519"><ele>26.1</ele><time>2021-05-01T13:05:33Z</time><name>PT508</name></trkpt>
<trkpt lat="52.044786" lon="05.721503"><ele>26</ele><time>2021-05-01T13:05:33Z</time><name>PT509</name></trkpt>
<trkpt lat="52.044794" lon="05.721486"><ele>26</ele><time>2021-05-01T13:05:35Z</time><name>PT510</name></trkpt>
<trkpt lat="52.044802" lon="05.721468"><ele>25.8</ele><time>2021-05-01T13:05:35Z</time><name>PT511</name></trkpt>
<trkpt lat="52.044807" lon="05.721448"><ele>25.8</ele><time>2021-05-01T13:05:37Z</time><name>PT512</name></trkpt>
<trkpt lat="52.044812" lon="05.721432"><ele>25.9</ele><time>2021-05-01T13:05:37Z</time><name>PT513</name></trkpt>
<trkpt lat="52.044819" lon="05.721419"><ele>25.9</ele><time>2021-05-01T13:05:39Z</time><name>PT514</name></trkpt>
<trkpt lat="52.044827" lon="05.721405"><ele>26</ele><time>2021-05-01T13:05:39Z</time><name>PT515</name></trkpt>
<trkpt lat="52.044836" lon="05.721390"><ele>26.1</ele><time>2021-05-01T13:05:41Z</time><name>PT516</name></trkpt>
<trkpt lat="52.044842" lon="05.721374"><ele>26.1</ele><time>2021-05-01T13:05:41Z</time><name>PT517</name></trkpt>
<trkpt lat="52.044846" lon="05.721359"><ele>26.2</ele><time>2021-05-01T13:05:43Z</time><name>PT518</name></trkpt>
<trkpt lat="52.044853" lon="05.721343"><ele>26.2</ele><time>2021-05-01T13:05:43Z</time><name>PT519</name></trkpt>
<trkpt lat="52.044861" lon="05.721328"><ele>26.2</ele><time>2021-05-01T13:05:45Z</time><name>PT520</name></trkpt>
<trkpt lat="52.044868" lon="05.721313"><ele>26.1</ele><time>2021-05-01T13:05:46Z</time><name>PT521</name></trkpt>
<trkpt lat="52.044877" lon="05.721300"><ele>26.2</ele><time>2021-05-01T13:05:46Z</time><name>PT522</name></trkpt>
<trkpt lat="52.044882" lon="05.721281"><ele>26.1</ele><time>2021-05-01T13:05:48Z</time><name>PT523</name></trkpt>
<trkpt lat="52.044886" lon="05.721266"><ele>26</ele><time>2021-05-01T13:05:48Z</time><name>PT524</name></trkpt>
<trkpt lat="52.044891" lon="05.721255"><ele>26.1</ele><time>2021-05-01T13:05:50Z</time><name>PT525</name></trkpt>
<trkpt lat="52.044898" lon="05.721244"><ele>26</ele><time>2021-05-01T13:05:51Z</time><name>PT526</name></trkpt>
<trkpt lat="52.044904" lon="05.721230"><ele>25.9</ele><time>2021-05-01T13:05:52Z</time><name>PT527</name></trkpt>
<trkpt lat="52.044909" lon="05.721215"><ele>26.2</ele><time>2021-05-01T13:05:53Z</time><name>PT528</name></trkpt>
<trkpt lat="52.044915" lon="05.721199"><ele>26.2</ele><time>2021-05-01T13:05:54Z</time><name>PT529</name></trkpt>
<trkpt lat="52.044921" lon="05.721183"><ele>26.2</ele><time>2021-05-01T13:05:55Z</time><name>PT530</name></trkpt>
<trkpt lat="52.044927" lon="05.721165"><ele>26.3</ele><time>2021-05-01T13:05:56Z</time><name>PT531</name></trkpt>
<trkpt lat="52.044934" lon="05.721146"><ele>26.3</ele><time>2021-05-01T13:05:57Z</time><name>PT532</name></trkpt>
<trkpt lat="52.044940" lon="05.721128"><ele>26.3</ele><time>2021-05-01T13:05:58Z</time><name>PT533</name></trkpt>
<trkpt lat="52.044947" lon="05.721111"><ele>26.3</ele><time>2021-05-01T13:05:59Z</time><name>PT534</name></trkpt>
<trkpt lat="52.044952" lon="05.721100"><ele>26.3</ele><time>2021-05-01T13:06:00Z</time><name>PT535</name></trkpt>
<trkpt lat="52.044955" lon="05.721093"><ele>26.1</ele><time>2021-05-01T13:06:01Z</time><name>PT536</name></trkpt>
<trkpt lat="52.044957" lon="05.721087"><ele>26.3</ele><time>2021-05-01T13:06:02Z</time><name>PT537</name></trkpt>
<trkpt lat="52.044961" lon="05.721077"><ele>26.3</ele><time>2021-05-01T13:06:03Z</time><name>PT538</name></trkpt>
<trkpt lat="52.044962" lon="05.721068"><ele>26.3</ele><time>2021-05-01T13:06:04Z</time><name>PT539</name></trkpt>
<trkpt lat="52.044964" lon="05.721062"><ele>26.4</ele><time>2021-05-01T13:06:05Z</time><name>PT540</name></trkpt>
<trkpt lat="52.044965" lon="05.721058"><ele>26.6</ele><time>2021-05-01T13:06:06Z</time><name>PT541</name></trkpt>
<trkpt lat="52.044967" lon="05.721055"><ele>26.5</ele><time>2021-05-01T13:06:07Z</time><name>PT542</name></trkpt>
<trkpt lat="52.044971" lon="05.721052"><ele>26.4</ele><time>2021-05-01T13:06:07Z</time><name>PT543</name></trkpt>
<trkpt lat="52.044975" lon="05.721049"><ele>26.2</ele><time>2021-05-01T13:06:09Z</time><name>PT544</name></trkpt>
<trkpt lat="52.044982" lon="05.721047"><ele>26.2</ele><time>2021-05-01T13:06:09Z</time><name>PT545</name></trkpt>
<trkpt lat="52.044991" lon="05.721043"><ele>26.3</ele><time>2021-05-01T13:06:11Z</time><name>PT546</name></trkpt>
<trkpt lat="52.044997" lon="05.721036"><ele>26.3</ele><time>2021-05-01T13:06:11Z</time><name>PT547</name></trkpt>
<trkpt lat="52.045001" lon="05.721025"><ele>26.6</ele><time>2021-05-01T13:06:13Z</time><name>PT548</name></trkpt>
<trkpt lat="52.045003" lon="05.721010"><ele>26.8</ele><time>2021-05-01T13:06:13Z</time><name>PT549</name></trkpt>
<trkpt lat="52.045011" lon="05.721002"><ele>26.8</ele><time>2021-05-01T13:06:15Z</time><name>PT550</name></trkpt>
<trkpt lat="52.045016" lon="05.720990"><ele>26.8</ele><time>2021-05-01T13:06:15Z</time><name>PT551</name></trkpt>
<trkpt lat="52.045019" lon="05.720974"><ele>26.6</ele><time>2021-05-01T13:06:17Z</time><name>PT552</name></trkpt>
<trkpt lat="52.045025" lon="05.720957"><ele>26.4</ele><time>2021-05-01T13:06:17Z</time><name>PT553</name></trkpt>
<trkpt lat="52.045030" lon="05.720938"><ele>26.4</ele><time>2021-05-01T13:06:19Z</time><name>PT554</name></trkpt>
<trkpt lat="52.045035" lon="05.720920"><ele>26.5</ele><time>2021-05-01T13:06:19Z</time><name>PT555</name></trkpt>
<trkpt lat="52.045039" lon="05.720906"><ele>26.6</ele><time>2021-05-01T13:06:21Z</time><name>PT556</name></trkpt>
<trkpt lat="52.045042" lon="05.720894"><ele>26.8</ele><time>2021-05-01T13:06:21Z</time><name>PT557</name></trkpt>
<trkpt lat="52.045045" lon="05.720880"><ele>26.8</ele><time>2021-05-01T13:06:23Z</time><name>PT558</name></trkpt>
<trkpt lat="52.045049" lon="05.720867"><ele>26.9</ele><time>2021-05-01T13:06:23Z</time><name>PT559</name></trkpt>
<trkpt lat="52.045053" lon="05.720854"><ele>26.8</ele><time>2021-05-01T13:06:25Z</time><name>PT560</name></trkpt>
<trkpt lat="52.045057" lon="05.720842"><ele>26.8</ele><time>2021-05-01T13:06:25Z</time><name>PT561</name></trkpt>
<trkpt lat="52.045061" lon="05.720826"><ele>26.8</ele><time>2021-05-01T13:06:27Z</time><name>PT562</name></trkpt>
<trkpt lat="52.045067" lon="05.720813"><ele>26.7</ele><time>2021-05-01T13:06:27Z</time><name>PT563</name></trkpt>
<trkpt lat="52.045072" lon="05.720804"><ele>26.8</ele><time>2021-05-01T13:06:29Z</time><name>PT564</name></trkpt>
<trkpt lat="52.045073" lon="05.720799"><ele>26.8</ele><time>2021-05-01T13:06:29Z</time><name>PT565</name></trkpt>
<trkpt lat="52.045076" lon="05.720791"><ele>26.8</ele><time>2021-05-01T13:06:31Z</time><name>PT566</name></trkpt>
<trkpt lat="52.045080" lon="05.720785"><ele>26.8</ele><time>2021-05-01T13:06:31Z</time><name>PT567</name></trkpt>
<trkpt lat="52.045086" lon="05.720780"><ele>26.8</ele><time>2021-05-01T13:06:33Z</time><name>PT568</name></trkpt>
<trkpt lat="52.045092" lon="05.720773"><ele>26.7</ele><time>2021-05-01T13:06:33Z</time><name>PT569</name></trkpt>
<trkpt lat="52.045096" lon="05.720764"><ele>26.8</ele><time>2021-05-01T13:06:35Z</time><name>PT570</name></trkpt>
<trkpt lat="52.045100" lon="05.720753"><ele>26.7</ele><time>2021-05-01T13:06:35Z</time><name>PT571</name></trkpt>
<trkpt lat="52.045104" lon="05.720743"><ele>26.8</ele><time>2021-05-01T13:06:37Z</time><name>PT572</name></trkpt>
<trkpt lat="52.045109" lon="05.720729"><ele>26.8</ele><time>2021-05-01T13:06:37Z</time><name>PT573</name></trkpt>
<trkpt lat="52.045112" lon="05.720715"><ele>26.9</ele><time>2021-05-01T13:06:39Z</time><name>PT574</name></trkpt>
<trkpt lat="52.045118" lon="05.720704"><ele>26.8</ele><time>2021-05-01T13:06:40Z</time><name>PT575</name></trkpt>
<trkpt lat="52.045123" lon="05.720694"><ele>26.8</ele><time>2021-05-01T13:06:40Z</time><name>PT576</name></trkpt>
<trkpt lat="52.045127" lon="05.720686"><ele>26.7</ele><time>2021-05-01T13:06:42Z</time><name>PT577</name></trkpt>
<trkpt lat="52.045133" lon="05.720677"><ele>26.8</ele><time>2021-05-01T13:06:42Z</time><name>PT578</name></trkpt>
<trkpt lat="52.045139" lon="05.720668"><ele>26.8</ele><time>2021-05-01T13:06:44Z</time><name>PT579</name></trkpt>
<trkpt lat="52.045142" lon="05.720657"><ele>26.8</ele><time>2021-05-01T13:06:44Z</time><name>PT580</name></trkpt>
<trkpt lat="52.045148" lon="05.720646"><ele>26.8</ele><time>2021-05-01T13:06:46Z</time><name>PT581</name></trkpt>
<trkpt lat="52.045153" lon="05.720638"><ele>26.9</ele><time>2021-05-01T13:06:46Z</time><name>PT582</name></trkpt>
<trkpt lat="52.045159" lon="05.720629"><ele>26.8</ele><time>2021-05-01T13:06:48Z</time><name>PT583</name></trkpt>
<trkpt lat="52.045164" lon="05.720618"><ele>26.8</ele><time>2021-05-01T13:06:48Z</time><name>PT584</name></trkpt>
<trkpt lat="52.045170" lon="05.720608"><ele>26.8</ele><time>2021-05-01T13:06:50Z</time><name>PT585</name></trkpt>
<trkpt lat="52.045174" lon="05.720598"><ele>26.8</ele><time>2021-05-01T13:06:50Z</time><name>PT586</name></trkpt>
<trkpt lat="52.045177" lon="05.720590"><ele>26.9</ele><time>2021-05-01T13:06:52Z</time><name>PT587</name></trkpt>
<trkpt lat="52.045182" lon="05.720582"><ele>26.8</ele><time>2021-05-01T13:06:52Z</time><name>PT588</name></trkpt>
<trkpt lat="52.045188" lon="05.720575"><ele>26.8</ele><time>2021-05-01T13:06:54Z</time><name>PT589</name></trkpt>
<trkpt lat="52.045193" lon="05.720568"><ele>26.9</ele><time>2021-05-01T13:06:54Z</time><name>PT590</name></trkpt>
<trkpt lat="52.045198" lon="05.720559"><ele>26.9</ele><time>2021-05-01T13:06:56Z</time><name>PT591</name></trkpt>
<trkpt lat="52.045201" lon="05.720551"><ele>26.8</ele><time>2021-05-01T13:06:56Z</time><name>PT592</name></trkpt>
<trkpt lat="52.045206" lon="05.720544"><ele>26.8</ele><time>2021-05-01T13:06:58Z</time><name>PT593</name></trkpt>
<trkpt lat="52.045210" lon="05.720536"><ele>27</ele><time>2021-05-01T13:06:58Z</time><name>PT594</name></trkpt>
<trkpt lat="52.045214" lon="05.720529"><ele>26.8</ele><time>2021-05-01T13:07:00Z</time><name>PT595</name></trkpt>
<trkpt lat="52.045220" lon="05.720522"><ele>26.8</ele><time>2021-05-01T13:07:00Z</time><name>PT596</name></trkpt>
<trkpt lat="52.045223" lon="05.720513"><ele>26.9</ele><time>2021-05-01T13:07:02Z</time><name>PT597</name></trkpt>
<trkpt lat="52.045227" lon="05.720506"><ele>26.9</ele><time>2021-05-01T13:07:02Z</time><name>PT598</name></trkpt>
<trkpt lat="52.045232" lon="05.720501"><ele>26.8</ele><time>2021-05-01T13:07:04Z</time><name>PT599</name></trkpt>
<trkpt lat="52.045233" lon="05.720498"><ele>26.8</ele><time>2021-05-01T13:07:04Z</time><name>PT600</name></trkpt>
<trkpt lat="52.045232" lon="05.720497"><ele>26.8</ele><time>2021-05-01T13:07:06Z</time><name>PT601</name></trkpt>
<trkpt lat="52.045231" lon="05.720497"><ele>26.9</ele><time>2021-05-01T13:07:06Z</time><name>PT602</name></trkpt>
<trkpt lat="52.045231" lon="05.720496"><ele>27</ele><time>2021-05-01T13:07:08Z</time><name>PT603</name></trkpt>
<trkpt lat="52.045230" lon="05.720489"><ele>27.1</ele><time>2021-05-01T13:07:10Z</time><name>PT604</name></trkpt>
<trkpt lat="52.045228" lon="05.720484"><ele>27</ele><time>2021-05-01T13:07:10Z</time><name>PT605</name></trkpt>
<trkpt lat="52.045226" lon="05.720481"><ele>27</ele><time>2021-05-01T13:07:12Z</time><name>PT606</name></trkpt>
<trkpt lat="52.045225" lon="05.720482"><ele>27</ele><time>2021-05-01T13:07:12Z</time><name>PT607</name></trkpt>
<trkpt lat="52.045224" lon="05.720481"><ele>27.2</ele><time>2021-05-01T13:07:14Z</time><name>PT608</name></trkpt>
<trkpt lat="52.045224" lon="05.720484"><ele>26.8</ele><time>2021-05-01T13:07:16Z</time><name>PT609</name></trkpt>
<trkpt lat="52.045225" lon="05.720484"><ele>26.8</ele><time>2021-05-01T13:07:18Z</time><name>PT610</name></trkpt>
<trkpt lat="52.045225" lon="05.720484"><ele>26.8</ele><time>2021-05-01T13:07:18Z</time><name>PT611</name></trkpt>
<trkpt lat="52.045229" lon="05.720482"><ele>27.2</ele><time>2021-05-01T13:07:50Z</time><name>PT612</name></trkpt>
<trkpt lat="52.045231" lon="05.720475"><ele>27.2</ele><time>2021-05-01T13:07:50Z</time><name>PT613</name></trkpt>
<trkpt lat="52.045235" lon="05.720465"><ele>27.4</ele><time>2021-05-01T13:07:52Z</time><name>PT614</name></trkpt>
<trkpt lat="52.045238" lon="05.720456"><ele>27.2</ele><time>2021-05-01T13:07:52Z</time><name>PT615</name></trkpt>
<trkpt lat="52.045241" lon="05.720450"><ele>27.3</ele><time>2021-05-01T13:07:54Z</time><name>PT616</name></trkpt>
<trkpt lat="52.045244" lon="05.720446"><ele>27.3</ele><time>2021-05-01T13:07:54Z</time><name>PT617</name></trkpt>
<trkpt lat="52.045244" lon="05.720445"><ele>27.2</ele><time>2021-05-01T13:07:56Z</time><name>PT618</name></trkpt>
<trkpt lat="52.045243" lon="05.720443"><ele>27.2</ele><time>2021-05-01T13:07:56Z</time><name>PT619</name></trkpt>
<trkpt lat="52.045243" lon="05.720442"><ele>26.9</ele><time>2021-05-01T13:07:58Z</time><name>PT620</name></trkpt>
<trkpt lat="52.045244" lon="05.720441"><ele>26.8</ele><time>2021-05-01T13:07:59Z</time><name>PT621</name></trkpt>
<trkpt lat="52.045244" lon="05.720442"><ele>26.9</ele><time>2021-05-01T13:08:00Z</time><name>PT622</name></trkpt>
<trkpt lat="52.045242" lon="05.720441"><ele>26.8</ele><time>2021-05-01T13:08:12Z</time><name>PT623</name></trkpt>
<trkpt lat="52.045246" lon="05.720430"><ele>26.6</ele><time>2021-05-01T13:08:13Z</time><name>PT624</name></trkpt>
<trkpt lat="52.045247" lon="05.720419"><ele>26.8</ele><time>2021-05-01T13:08:14Z</time><name>PT625</name></trkpt>
<trkpt lat="52.045248" lon="05.720406"><ele>26.7</ele><time>2021-05-01T13:08:15Z</time><name>PT626</name></trkpt>
<trkpt lat="52.045250" lon="05.720390"><ele>26.7</ele><time>2021-05-01T13:08:16Z</time><name>PT627</name></trkpt>
<trkpt lat="52.045254" lon="05.720375"><ele>26.6</ele><time>2021-05-01T13:08:17Z</time><name>PT628</name></trkpt>
<trkpt lat="52.045256" lon="05.720363"><ele>26.5</ele><time>2021-05-01T13:08:18Z</time><name>PT629</name></trkpt>
<trkpt lat="52.045257" lon="05.720346"><ele>26.5</ele><time>2021-05-01T13:08:19Z</time><name>PT630</name></trkpt>
<trkpt lat="52.045255" lon="05.720330"><ele>26.5</ele><time>2021-05-01T13:08:20Z</time><name>PT631</name></trkpt>
<trkpt lat="52.045251" lon="05.720315"><ele>26.6</ele><time>2021-05-01T13:08:21Z</time><name>PT632</name></trkpt>
<trkpt lat="52.045244" lon="05.720301"><ele>26.8</ele><time>2021-05-01T13:08:22Z</time><name>PT633</name></trkpt>
<trkpt lat="52.045235" lon="05.720287"><ele>26.8</ele><time>2021-05-01T13:08:23Z</time><name>PT634</name></trkpt>
<trkpt lat="52.045231" lon="05.720276"><ele>26.7</ele><time>2021-05-01T13:08:24Z</time><name>PT635</name></trkpt>
<trkpt lat="52.045234" lon="05.720273"><ele>26.6</ele><time>2021-05-01T13:08:25Z</time><name>PT636</name></trkpt>
<trkpt lat="52.045231" lon="05.720264"><ele>26.3</ele><time>2021-05-01T13:08:26Z</time><name>PT637</name></trkpt>
<trkpt lat="52.045227" lon="05.720254"><ele>25.9</ele><time>2021-05-01T13:08:27Z</time><name>PT638</name></trkpt>
<trkpt lat="52.045226" lon="05.720245"><ele>25.7</ele><time>2021-05-01T13:08:28Z</time><name>PT639</name></trkpt>
<trkpt lat="52.045225" lon="05.720242"><ele>25.8</ele><time>2021-05-01T13:08:29Z</time><name>PT640</name></trkpt>
<trkpt lat="52.045225" lon="05.720241"><ele>25.7</ele><time>2021-05-01T13:08:30Z</time><name>PT641</name></trkpt>
<trkpt lat="52.045223" lon="05.720226"><ele>25.8</ele><time>2021-05-01T13:08:31Z</time><name>PT642</name></trkpt>
<trkpt lat="52.045222" lon="05.720219"><ele>25.9</ele><time>2021-05-01T13:08:31Z</time><name>PT643</name></trkpt>
<trkpt lat="52.045219" lon="05.720209"><ele>25.9</ele><time>2021-05-01T13:08:33Z</time><name>PT644</name></trkpt>
<trkpt lat="52.045210" lon="05.720204"><ele>25.8</ele><time>2021-05-01T13:08:33Z</time><name>PT645</name></trkpt>
<trkpt lat="52.045202" lon="05.720205"><ele>26</ele><time>2021-05-01T13:08:35Z</time><name>PT646</name></trkpt>
<trkpt lat="52.045192" lon="05.720205"><ele>26.1</ele><time>2021-05-01T13:08:35Z</time><name>PT647</name></trkpt>
<trkpt lat="52.045184" lon="05.720202"><ele>26.3</ele><time>2021-05-01T13:08:37Z</time><name>PT648</name></trkpt>
<trkpt lat="52.045176" lon="05.720200"><ele>26.3</ele><time>2021-05-01T13:08:37Z</time><name>PT649</name></trkpt>
<trkpt lat="52.045171" lon="05.720190"><ele>26.3</ele><time>2021-05-01T13:08:39Z</time><name>PT650</name></trkpt>
<trkpt lat="52.045168" lon="05.720174"><ele>26.3</ele><time>2021-05-01T13:08:39Z</time><name>PT651</name></trkpt>
<trkpt lat="52.045166" lon="05.720157"><ele>26.2</ele><time>2021-05-01T13:08:41Z</time><name>PT652</name></trkpt>
<trkpt lat="52.045163" lon="05.720142"><ele>25.9</ele><time>2021-05-01T13:08:41Z</time><name>PT653</name></trkpt>
<trkpt lat="52.045161" lon="05.720126"><ele>26</ele><time>2021-05-01T13:08:43Z</time><name>PT654</name></trkpt>
<trkpt lat="52.045160" lon="05.720108"><ele>25.8</ele><time>2021-05-01T13:08:43Z</time><name>PT655</name></trkpt>
<trkpt lat="52.045158" lon="05.720089"><ele>25.7</ele><time>2021-05-01T13:08:45Z</time><name>PT656</name></trkpt>
<trkpt lat="52.045156" lon="05.720069"><ele>25.6</ele><time>2021-05-01T13:08:45Z</time><name>PT657</name></trkpt>
<trkpt lat="52.045153" lon="05.720049"><ele>25.5</ele><time>2021-05-01T13:08:47Z</time><name>PT658</name></trkpt>
<trkpt lat="52.045152" lon="05.720026"><ele>25.5</ele><time>2021-05-01T13:08:47Z</time><name>PT659</name></trkpt>
<trkpt lat="52.045149" lon="05.720002"><ele>25.5</ele><time>2021-05-01T13:08:49Z</time><name>PT660</name></trkpt>
<trkpt lat="52.045150" lon="05.719981"><ele>25.6</ele><time>2021-05-01T13:08:49Z</time><name>PT661</name></trkpt>
<trkpt lat="52.045152" lon="05.719961"><ele>25.6</ele><time>2021-05-01T13:08:51Z</time><name>PT662</name></trkpt>
<trkpt lat="52.045157" lon="05.719941"><ele>25.8</ele><time>2021-05-01T13:08:51Z</time><name>PT663</name></trkpt>
<trkpt lat="52.045165" lon="05.719923"><ele>25.6</ele><time>2021-05-01T13:08:53Z</time><name>PT664</name></trkpt>
<trkpt lat="52.045174" lon="05.719907"><ele>25.6</ele><time>2021-05-01T13:08:53Z</time><name>PT665</name></trkpt>
<trkpt lat="52.045183" lon="05.719892"><ele>25.5</ele><time>2021-05-01T13:08:55Z</time><name>PT666</name></trkpt>
<trkpt lat="52.045191" lon="05.719883"><ele>25.3</ele><time>2021-05-01T13:08:55Z</time><name>PT667</name></trkpt>
<trkpt lat="52.045199" lon="05.719870"><ele>25.5</ele><time>2021-05-01T13:08:57Z</time><name>PT668</name></trkpt>
<trkpt lat="52.045207" lon="05.719856"><ele>25.5</ele><time>2021-05-01T13:08:57Z</time><name>PT669</name></trkpt>
<trkpt lat="52.045215" lon="05.719843"><ele>25.6</ele><time>2021-05-01T13:08:59Z</time><name>PT670</name></trkpt>
<trkpt lat="52.045223" lon="05.719838"><ele>25.7</ele><time>2021-05-01T13:08:59Z</time><name>PT671</name></trkpt>
<trkpt lat="52.045232" lon="05.719827"><ele>25.8</ele><time>2021-05-01T13:09:01Z</time><name>PT672</name></trkpt>
<trkpt lat="52.045246" lon="05.719810"><ele>25.8</ele><time>2021-05-01T13:09:01Z</time><name>PT673</name></trkpt>
<trkpt lat="52.045262" lon="05.719787"><ele>26</ele><time>2021-05-01T13:09:03Z</time><name>PT674</name></trkpt>
<trkpt lat="52.045272" lon="05.719764"><ele>26.1</ele><time>2021-05-01T13:09:03Z</time><name>PT675</name></trkpt>
<trkpt lat="52.045281" lon="05.719748"><ele>26.1</ele><time>2021-05-01T13:09:05Z</time><name>PT676</name></trkpt>
<trkpt lat="52.045291" lon="05.719730"><ele>26.2</ele><time>2021-05-01T13:09:05Z</time><name>PT677</name></trkpt>
<trkpt lat="52.045299" lon="05.719714"><ele>26.3</ele><time>2021-05-01T13:09:07Z</time><name>PT678</name></trkpt>
<trkpt lat="52.045305" lon="05.719700"><ele>26.3</ele><time>2021-05-01T13:09:07Z</time><name>PT679</name></trkpt>
<trkpt lat="52.045309" lon="05.719683"><ele>26.2</ele><time>2021-05-01T13:09:09Z</time><name>PT680</name></trkpt>
<trkpt lat="52.045314" lon="05.719667"><ele>26.3</ele><time>2021-05-01T13:09:09Z</time><name>PT681</name></trkpt>
<trkpt lat="52.045319" lon="05.719654"><ele>26.3</ele><time>2021-05-01T13:09:11Z</time><name>PT682</name></trkpt>
<trkpt lat="52.045322" lon="05.719641"><ele>26.3</ele><time>2021-05-01T13:09:11Z</time><name>PT683</name></trkpt>
<trkpt lat="52.045326" lon="05.719628"><ele>26.3</ele><time>2021-05-01T13:09:13Z</time><name>PT684</name></trkpt>
<trkpt lat="52.045330" lon="05.719610"><ele>26.3</ele><time>2021-05-01T13:09:13Z</time><name>PT685</name></trkpt>
<trkpt lat="52.045340" lon="05.719587"><ele>26.1</ele><time>2021-05-01T13:09:15Z</time><name>PT686</name></trkpt>
<trkpt lat="52.045351" lon="05.719564"><ele>26.1</ele><time>2021-05-01T13:09:15Z</time><name>PT687</name></trkpt>
<trkpt lat="52.045364" lon="05.719545"><ele>26.1</ele><time>2021-05-01T13:09:17Z</time><name>PT688</name></trkpt>
<trkpt lat="52.045376" lon="05.719523"><ele>26</ele><time>2021-05-01T13:09:17Z</time><name>PT689</name></trkpt>
<trkpt lat="52.045385" lon="05.719504"><ele>26.1</ele><time>2021-05-01T13:09:19Z</time><name>PT690</name></trkpt>
<trkpt lat="52.045391" lon="05.719485"><ele>26.1</ele><time>2021-05-01T13:09:19Z</time><name>PT691</name></trkpt>
<trkpt lat="52.045394" lon="05.719475"><ele>25.9</ele><time>2021-05-01T13:09:21Z</time><name>PT692</name></trkpt>
<trkpt lat="52.045395" lon="05.719467"><ele>25.8</ele><time>2021-05-01T13:09:21Z</time><name>PT693</name></trkpt>
<trkpt lat="52.045397" lon="05.719455"><ele>26</ele><time>2021-05-01T13:09:23Z</time><name>PT694</name></trkpt>
<trkpt lat="52.045396" lon="05.719442"><ele>26</ele><time>2021-05-01T13:09:23Z</time><name>PT695</name></trkpt>
<trkpt lat="52.045397" lon="05.719427"><ele>26</ele><time>2021-05-01T13:09:25Z</time><name>PT696</name></trkpt>
<trkpt lat="52.045397" lon="05.719410"><ele>26</ele><time>2021-05-01T13:09:25Z</time><name>PT697</name></trkpt>
<trkpt lat="52.045400" lon="05.719394"><ele>26</ele><time>2021-05-01T13:09:27Z</time><name>PT698</name></trkpt>
<trkpt lat="52.045407" lon="05.719372"><ele>25.8</ele><time>2021-05-01T13:09:27Z</time><name>PT699</name></trkpt>
<trkpt lat="52.045418" lon="05.719350"><ele>25.8</ele><time>2021-05-01T13:09:29Z</time><name>PT700</name></trkpt>
<trkpt lat="52.045428" lon="05.719322"><ele>25.8</ele><time>2021-05-01T13:09:29Z</time><name>PT701</name></trkpt>
<trkpt lat="52.045440" lon="05.719298"><ele>25.7</ele><time>2021-05-01T13:09:31Z</time><name>PT702</name></trkpt>
<trkpt lat="52.045446" lon="05.719276"><ele>25.8</ele><time>2021-05-01T13:09:32Z</time><name>PT703</name></trkpt>
<trkpt lat="52.045454" lon="05.719255"><ele>25.9</ele><time>2021-05-01T13:09:33Z</time><name>PT704</name></trkpt>
<trkpt lat="52.045462" lon="05.719236"><ele>26</ele><time>2021-05-01T13:09:34Z</time><name>PT705</name></trkpt>
<trkpt lat="52.045476" lon="05.719218"><ele>26.2</ele><time>2021-05-01T13:09:34Z</time><name>PT706</name></trkpt>
<trkpt lat="52.045485" lon="05.719200"><ele>26.3</ele><time>2021-05-01T13:09:36Z</time><name>PT707</name></trkpt>
<trkpt lat="52.045493" lon="05.719183"><ele>26.3</ele><time>2021-05-01T13:09:37Z</time><name>PT708</name></trkpt>
<trkpt lat="52.045499" lon="05.719172"><ele>26.4</ele><time>2021-05-01T13:09:38Z</time><name>PT709</name></trkpt>
<trkpt lat="52.045507" lon="05.719161"><ele>26.7</ele><time>2021-05-01T13:09:39Z</time><name>PT710</name></trkpt>
<trkpt lat="52.045520" lon="05.719147"><ele>27</ele><time>2021-05-01T13:09:40Z</time><name>PT711</name></trkpt>
<trkpt lat="52.045526" lon="05.719141"><ele>27.1</ele><time>2021-05-01T13:09:41Z</time><name>PT712</name></trkpt>
<trkpt lat="52.045532" lon="05.719136"><ele>27.1</ele><time>2021-05-01T13:09:42Z</time><name>PT713</name></trkpt>
<trkpt lat="52.045532" lon="05.719121"><ele>27.2</ele><time>2021-05-01T13:09:43Z</time><name>PT714</name></trkpt>
<trkpt lat="52.045534" lon="05.719106"><ele>27.2</ele><time>2021-05-01T13:09:44Z</time><name>PT715</name></trkpt>
<trkpt lat="52.045543" lon="05.719095"><ele>27</ele><time>2021-05-01T13:09:45Z</time><name>PT716</name></trkpt>
<trkpt lat="52.045549" lon="05.719079"><ele>27.2</ele><time>2021-05-01T13:09:46Z</time><name>PT717</name></trkpt>
<trkpt lat="52.045558" lon="05.719062"><ele>27</ele><time>2021-05-01T13:09:47Z</time><name>PT718</name></trkpt>
<trkpt lat="52.045569" lon="05.719045"><ele>27.2</ele><time>2021-05-01T13:09:48Z</time><name>PT719</name></trkpt>
<trkpt lat="52.045581" lon="05.719024"><ele>27</ele><time>2021-05-01T13:09:48Z</time><name>PT720</name></trkpt>
<trkpt lat="52.045592" lon="05.719002"><ele>27</ele><time>2021-05-01T13:09:50Z</time><name>PT721</name></trkpt>
<trkpt lat="52.045601" lon="05.718980"><ele>27.1</ele><time>2021-05-01T13:09:50Z</time><name>PT722</name></trkpt>
<trkpt lat="52.045617" lon="05.718955"><ele>27.1</ele><time>2021-05-01T13:09:52Z</time><name>PT723</name></trkpt>
<trkpt lat="52.045628" lon="05.718938"><ele>27</ele><time>2021-05-01T13:09:52Z</time><name>PT724</name></trkpt>
<trkpt lat="52.045634" lon="05.718922"><ele>27.2</ele><time>2021-05-01T13:09:54Z</time><name>PT725</name></trkpt>
<trkpt lat="52.045641" lon="05.718907"><ele>27.2</ele><time>2021-05-01T13:09:54Z</time><name>PT726</name></trkpt>
<trkpt lat="52.045642" lon="05.718896"><ele>27.3</ele><time>2021-05-01T13:09:56Z</time><name>PT727</name></trkpt>
<trkpt lat="52.045646" lon="05.718885"><ele>27.2</ele><time>2021-05-01T13:09:56Z</time><name>PT728</name></trkpt>
<trkpt lat="52.045651" lon="05.718875"><ele>27.3</ele><time>2021-05-01T13:09:58Z</time><name>PT729</name></trkpt>
<trkpt lat="52.045654" lon="05.718871"><ele>27.4</ele><time>2021-05-01T13:09:58Z</time><name>PT730</name></trkpt>
<trkpt lat="52.045656" lon="05.718866"><ele>27.2</ele><time>2021-05-01T13:10:00Z</time><name>PT731</name></trkpt>
<trkpt lat="52.045661" lon="05.718858"><ele>27.3</ele><time>2021-05-01T13:10:00Z</time><name>PT732</name></trkpt>
<trkpt lat="52.045666" lon="05.718846"><ele>27.2</ele><time>2021-05-01T13:10:02Z</time><name>PT733</name></trkpt>
<trkpt lat="52.045672" lon="05.718826"><ele>27.3</ele><time>2021-05-01T13:10:02Z</time><name>PT734</name></trkpt>
<trkpt lat="52.045680" lon="05.718809"><ele>27.2</ele><time>2021-05-01T13:10:04Z</time><name>PT735</name></trkpt>
<trkpt lat="52.045687" lon="05.718779"><ele>27</ele><time>2021-05-01T13:10:04Z</time><name>PT736</name></trkpt>
<trkpt lat="52.045693" lon="05.718759"><ele>26.6</ele><time>2021-05-01T13:10:06Z</time><name>PT737</name></trkpt>
<trkpt lat="52.045702" lon="05.718742"><ele>26.3</ele><time>2021-05-01T13:10:06Z</time><name>PT738</name></trkpt>
<trkpt lat="52.045708" lon="05.718726"><ele>26.1</ele><time>2021-05-01T13:10:08Z</time><name>PT739</name></trkpt>
<trkpt lat="52.045717" lon="05.718711"><ele>26</ele><time>2021-05-01T13:10:08Z</time><name>PT740</name></trkpt>
<trkpt lat="52.045724" lon="05.718697"><ele>25.9</ele><time>2021-05-01T13:10:10Z</time><name>PT741</name></trkpt>
<trkpt lat="52.045734" lon="05.718684"><ele>26.1</ele><time>2021-05-01T13:10:10Z</time><name>PT742</name></trkpt>
<trkpt lat="52.045743" lon="05.718669"><ele>26.2</ele><time>2021-05-01T13:10:12Z</time><name>PT743</name></trkpt>
<trkpt lat="52.045750" lon="05.718653"><ele>26.3</ele><time>2021-05-01T13:10:12Z</time><name>PT744</name></trkpt>
<trkpt lat="52.045758" lon="05.718638"><ele>26.3</ele><time>2021-05-01T13:10:14Z</time><name>PT745</name></trkpt>
<trkpt lat="52.045765" lon="05.718622"><ele>26.5</ele><time>2021-05-01T13:10:14Z</time><name>PT746</name></trkpt>
<trkpt lat="52.045772" lon="05.718608"><ele>26.4</ele><time>2021-05-01T13:10:16Z</time><name>PT747</name></trkpt>
<trkpt lat="52.045780" lon="05.718594"><ele>26.6</ele><time>2021-05-01T13:10:16Z</time><name>PT748</name></trkpt>
<trkpt lat="52.045789" lon="05.718582"><ele>26.5</ele><time>2021-05-01T13:10:18Z</time><name>PT749</name></trkpt>
<trkpt lat="52.045796" lon="05.718569"><ele>26.6</ele><time>2021-05-01T13:10:19Z</time><name>PT750</name></trkpt>
<trkpt lat="52.045805" lon="05.718556"><ele>26.7</ele><time>2021-05-01T13:10:20Z</time><name>PT751</name></trkpt>
<trkpt lat="52.045814" lon="05.718544"><ele>26.8</ele><time>2021-05-01T13:10:20Z</time><name>PT752</name></trkpt>
<trkpt lat="52.045822" lon="05.718536"><ele>26.8</ele><time>2021-05-01T13:10:22Z</time><name>PT753</name></trkpt>
<trkpt lat="52.045831" lon="05.718527"><ele>26.8</ele><time>2021-05-01T13:10:22Z</time><name>PT754</name></trkpt>
<trkpt lat="52.045839" lon="05.718514"><ele>26.8</ele><time>2021-05-01T13:10:24Z</time><name>PT755</name></trkpt>
<trkpt lat="52.045851" lon="05.718496"><ele>26.9</ele><time>2021-05-01T13:10:24Z</time><name>PT756</name></trkpt>
<trkpt lat="52.045861" lon="05.718472"><ele>27.2</ele><time>2021-05-01T13:10:26Z</time><name>PT757</name></trkpt>
<trkpt lat="52.045877" lon="05.718446"><ele>27.1</ele><time>2021-05-01T13:10:26Z</time><name>PT758</name></trkpt>
<trkpt lat="52.045888" lon="05.718425"><ele>27.1</ele><time>2021-05-01T13:10:28Z</time><name>PT759</name></trkpt>
<trkpt lat="52.045900" lon="05.718401"><ele>26.9</ele><time>2021-05-01T13:10:28Z</time><name>PT760</name></trkpt>
<trkpt lat="52.045912" lon="05.718376"><ele>26.8</ele><time>2021-05-01T13:10:30Z</time><name>PT761</name></trkpt>
<trkpt lat="52.045922" lon="05.718351"><ele>26.7</ele><time>2021-05-01T13:10:30Z</time><name>PT762</name></trkpt>
<trkpt lat="52.045933" lon="05.718332"><ele>26.8</ele><time>2021-05-01T13:10:32Z</time><name>PT763</name></trkpt>
<trkpt lat="52.045943" lon="05.718311"><ele>26.8</ele><time>2021-05-01T13:10:32Z</time><name>PT764</name></trkpt>
<trkpt lat="52.045951" lon="05.718294"><ele>26.8</ele><time>2021-05-01T13:10:34Z</time><name>PT765</name></trkpt>
<trkpt lat="52.045957" lon="05.718280"><ele>26.7</ele><time>2021-05-01T13:10:34Z</time><name>PT766</name></trkpt>
<trkpt lat="52.045960" lon="05.718269"><ele>26.7</ele><time>2021-05-01T13:10:36Z</time><name>PT767</name></trkpt>
<trkpt lat="52.045964" lon="05.718261"><ele>26.6</ele><time>2021-05-01T13:10:36Z</time><name>PT768</name></trkpt>
<trkpt lat="52.045965" lon="05.718252"><ele>26.6</ele><time>2021-05-01T13:10:38Z</time><name>PT769</name></trkpt>
<trkpt lat="52.045967" lon="05.718245"><ele>26.7</ele><time>2021-05-01T13:10:38Z</time><name>PT770</name></trkpt>
<trkpt lat="52.045971" lon="05.718237"><ele>26.8</ele><time>2021-05-01T13:10:40Z</time><name>PT771</name></trkpt>
<trkpt lat="52.045974" lon="05.718226"><ele>26.8</ele><time>2021-05-01T13:10:40Z</time><name>PT772</name></trkpt>
<trkpt lat="52.045978" lon="05.718213"><ele>26.9</ele><time>2021-05-01T13:10:42Z</time><name>PT773</name></trkpt>
<trkpt lat="52.045985" lon="05.718195"><ele>27</ele><time>2021-05-01T13:10:42Z</time><name>PT774</name></trkpt>
<trkpt lat="52.045992" lon="05.718177"><ele>27</ele><time>2021-05-01T13:10:44Z</time><name>PT775</name></trkpt>
<trkpt lat="52.046003" lon="05.718156"><ele>27.2</ele><time>2021-05-01T13:10:44Z</time><name>PT776</name></trkpt>
<trkpt lat="52.046015" lon="05.718137"><ele>27.3</ele><time>2021-05-01T13:10:46Z</time><name>PT777</name></trkpt>
<trkpt lat="52.046029" lon="05.718119"><ele>27.4</ele><time>2021-05-01T13:10:46Z</time><name>PT778</name></trkpt>
<trkpt lat="52.046044" lon="05.718098"><ele>27.4</ele><time>2021-05-01T13:10:48Z</time><name>PT779</name></trkpt>
<trkpt lat="52.046055" lon="05.718078"><ele>27.5</ele><time>2021-05-01T13:10:48Z</time><name>PT780</name></trkpt>
<trkpt lat="52.046063" lon="05.718062"><ele>27.4</ele><time>2021-05-01T13:10:50Z</time><name>PT781</name></trkpt>
<trkpt lat="52.046071" lon="05.718048"><ele>27.3</ele><time>2021-05-01T13:10:50Z</time><name>PT782</name></trkpt>
<trkpt lat="52.046076" lon="05.718035"><ele>27.2</ele><time>2021-05-01T13:10:52Z</time><name>PT783</name></trkpt>
<trkpt lat="52.046080" lon="05.718029"><ele>27</ele><time>2021-05-01T13:10:52Z</time><name>PT784</name></trkpt>
<trkpt lat="52.046082" lon="05.718022"><ele>26.8</ele><time>2021-05-01T13:10:54Z</time><name>PT785</name></trkpt>
<trkpt lat="52.046087" lon="05.718014"><ele>26.8</ele><time>2021-05-01T13:10:54Z</time><name>PT786</name></trkpt>
<trkpt lat="52.046092" lon="05.718005"><ele>26.6</ele><time>2021-05-01T13:10:56Z</time><name>PT787</name></trkpt>
<trkpt lat="52.046097" lon="05.717993"><ele>26.6</ele><time>2021-05-01T13:10:56Z</time><name>PT788</name></trkpt>
<trkpt lat="52.046104" lon="05.717978"><ele>26.6</ele><time>2021-05-01T13:10:58Z</time><name>PT789</name></trkpt>
<trkpt lat="52.046112" lon="05.717961"><ele>26.6</ele><time>2021-05-01T13:10:58Z</time><name>PT790</name></trkpt>
<trkpt lat="52.046123" lon="05.717941"><ele>26.8</ele><time>2021-05-01T13:11:00Z</time><name>PT791</name></trkpt>
<trkpt lat="52.046135" lon="05.717920"><ele>26.8</ele><time>2021-05-01T13:11:00Z</time><name>PT792</name></trkpt>
<trkpt lat="52.046147" lon="05.717897"><ele>26.7</ele><time>2021-05-01T13:11:02Z</time><name>PT793</name></trkpt>
<trkpt lat="52.046159" lon="05.717875"><ele>26.6</ele><time>2021-05-01T13:11:02Z</time><name>PT794</name></trkpt>
<trkpt lat="52.046169" lon="05.717858"><ele>26.6</ele><time>2021-05-01T13:11:04Z</time><name>PT795</name></trkpt>
<trkpt lat="52.046178" lon="05.717843"><ele>26.4</ele><time>2021-05-01T13:11:04Z</time><name>PT796</name></trkpt>
<trkpt lat="52.046186" lon="05.717831"><ele>26.4</ele><time>2021-05-01T13:11:06Z</time><name>PT797</name></trkpt>
<trkpt lat="52.046191" lon="05.717819"><ele>26.3</ele><time>2021-05-01T13:11:06Z</time><name>PT798</name></trkpt>
<trkpt lat="52.046194" lon="05.717811"><ele>26.3</ele><time>2021-05-01T13:11:08Z</time><name>PT799</name></trkpt>
<trkpt lat="52.046197" lon="05.717805"><ele>26.2</ele><time>2021-05-01T13:11:08Z</time><name>PT800</name></trkpt>
<trkpt lat="52.046201" lon="05.717797"><ele>26.2</ele><time>2021-05-01T13:11:10Z</time><name>PT801</name></trkpt>
<trkpt lat="52.046206" lon="05.717787"><ele>26.3</ele><time>2021-05-01T13:11:10Z</time><name>PT802</name></trkpt>
<trkpt lat="52.046212" lon="05.717774"><ele>26.3</ele><time>2021-05-01T13:11:12Z</time><name>PT803</name></trkpt>
<trkpt lat="52.046221" lon="05.717761"><ele>26.3</ele><time>2021-05-01T13:11:13Z</time><name>PT804</name></trkpt>
<trkpt lat="52.046230" lon="05.717745"><ele>26.3</ele><time>2021-05-01T13:11:14Z</time><name>PT805</name></trkpt>
<trkpt lat="52.046241" lon="05.717725"><ele>26.3</ele><time>2021-05-01T13:11:15Z</time><name>PT806</name></trkpt>
<trkpt lat="52.046260" lon="05.717704"><ele>26.4</ele><time>2021-05-01T13:11:16Z</time><name>PT807</name></trkpt>
<trkpt lat="52.046275" lon="05.717684"><ele>26.3</ele><time>2021-05-01T13:11:17Z</time><name>PT808</name></trkpt>
<trkpt lat="52.046288" lon="05.717663"><ele>26.3</ele><time>2021-05-01T13:11:18Z</time><name>PT809</name></trkpt>
<trkpt lat="52.046302" lon="05.717644"><ele>26.3</ele><time>2021-05-01T13:11:19Z</time><name>PT810</name></trkpt>
<trkpt lat="52.046312" lon="05.717630"><ele>26.3</ele><time>2021-05-01T13:11:20Z</time><name>PT811</name></trkpt>
<trkpt lat="52.046318" lon="05.717619"><ele>26.1</ele><time>2021-05-01T13:11:21Z</time><name>PT812</name></trkpt>
<trkpt lat="52.046321" lon="05.717610"><ele>26.2</ele><time>2021-05-01T13:11:22Z</time><name>PT813</name></trkpt>
<trkpt lat="52.046325" lon="05.717602"><ele>26</ele><time>2021-05-01T13:11:23Z</time><name>PT814</name></trkpt>
<trkpt lat="52.046329" lon="05.717594"><ele>25.8</ele><time>2021-05-01T13:11:24Z</time><name>PT815</name></trkpt>
<trkpt lat="52.046333" lon="05.717580"><ele>25.7</ele><time>2021-05-01T13:11:24Z</time><name>PT816</name></trkpt>
<trkpt lat="52.046343" lon="05.717564"><ele>25.5</ele><time>2021-05-01T13:11:26Z</time><name>PT817</name></trkpt>
<trkpt lat="52.046353" lon="05.717550"><ele>25.3</ele><time>2021-05-01T13:11:26Z</time><name>PT818</name></trkpt>
<trkpt lat="52.046361" lon="05.717537"><ele>25.4</ele><time>2021-05-01T13:11:28Z</time><name>PT819</name></trkpt>
<trkpt lat="52.046368" lon="05.717525"><ele>25.6</ele><time>2021-05-01T13:11:28Z</time><name>PT820</name></trkpt>
<trkpt lat="52.046374" lon="05.717511"><ele>25.6</ele><time>2021-05-01T13:11:30Z</time><name>PT821</name></trkpt>
<trkpt lat="52.046381" lon="05.717497"><ele>25.7</ele><time>2021-05-01T13:11:30Z</time><name>PT822</name></trkpt>
<trkpt lat="52.046388" lon="05.717481"><ele>25.6</ele><time>2021-05-01T13:11:32Z</time><name>PT823</name></trkpt>
<trkpt lat="52.046396" lon="05.717466"><ele>25.4</ele><time>2021-05-01T13:11:32Z</time><name>PT824</name></trkpt>
<trkpt lat="52.046405" lon="05.717452"><ele>25.4</ele><time>2021-05-01T13:11:34Z</time><name>PT825</name></trkpt>
<trkpt lat="52.046413" lon="05.717438"><ele>25.4</ele><time>2021-05-01T13:11:34Z</time><name>PT826</name></trkpt>
<trkpt lat="52.046420" lon="05.717423"><ele>25.3</ele><time>2021-05-01T13:11:36Z</time><name>PT827</name></trkpt>
<trkpt lat="52.046425" lon="05.717415"><ele>25.3</ele><time>2021-05-01T13:11:36Z</time><name>PT828</name></trkpt>
<trkpt lat="52.046429" lon="05.717408"><ele>25.2</ele><time>2021-05-01T13:11:38Z</time><name>PT829</name></trkpt>
<trkpt lat="52.046432" lon="05.717396"><ele>25.2</ele><time>2021-05-01T13:11:38Z</time><name>PT830</name></trkpt>
<trkpt lat="52.046437" lon="05.717381"><ele>25.2</ele><time>2021-05-01T13:11:40Z</time><name>PT831</name></trkpt>
<trkpt lat="52.046449" lon="05.717364"><ele>25.3</ele><time>2021-05-01T13:11:40Z</time><name>PT832</name></trkpt>
<trkpt lat="52.046460" lon="05.717340"><ele>25.5</ele><time>2021-05-01T13:11:42Z</time><name>PT833</name></trkpt>
<trkpt lat="52.046470" lon="05.717314"><ele>25.5</ele><time>2021-05-01T13:11:42Z</time><name>PT834</name></trkpt>
<trkpt lat="52.046479" lon="05.717285"><ele>25.7</ele><time>2021-05-01T13:11:44Z</time><name>PT835</name></trkpt>
<trkpt lat="52.046487" lon="05.717259"><ele>25.8</ele><time>2021-05-01T13:11:44Z</time><name>PT836</name></trkpt>
<trkpt lat="52.046493" lon="05.717231"><ele>25.8</ele><time>2021-05-01T13:11:46Z</time><name>PT837</name></trkpt>
<trkpt lat="52.046498" lon="05.717205"><ele>25.7</ele><time>2021-05-01T13:11:46Z</time><name>PT838</name></trkpt>
<trkpt lat="52.046503" lon="05.717181"><ele>25.8</ele><time>2021-05-01T13:11:48Z</time><name>PT839</name></trkpt>
<trkpt lat="52.046509" lon="05.717165"><ele>25.5</ele><time>2021-05-01T13:11:48Z</time><name>PT840</name></trkpt>
<trkpt lat="52.046512" lon="05.717155"><ele>25.4</ele><time>2021-05-01T13:11:50Z</time><name>PT841</name></trkpt>
<trkpt lat="52.046514" lon="05.717144"><ele>25.3</ele><time>2021-05-01T13:11:50Z</time><name>PT842</name></trkpt>
<trkpt lat="52.046515" lon="05.717138"><ele>25.5</ele><time>2021-05-01T13:11:52Z</time><name>PT843</name></trkpt>
<trkpt lat="52.046519" lon="05.717133"><ele>25.4</ele><time>2021-05-01T13:11:52Z</time><name>PT844</name></trkpt>
<trkpt lat="52.046522" lon="05.717124"><ele>25.4</ele><time>2021-05-01T13:11:54Z</time><name>PT845</name></trkpt>
<trkpt lat="52.046525" lon="05.717112"><ele>25.5</ele><time>2021-05-01T13:11:54Z</time><name>PT846</name></trkpt>
<trkpt lat="52.046527" lon="05.717101"><ele>25.4</ele><time>2021-05-01T13:11:56Z</time><name>PT847</name></trkpt>
<trkpt lat="52.046529" lon="05.717092"><ele>25.3</ele><time>2021-05-01T13:11:57Z</time><name>PT848</name></trkpt>
<trkpt lat="52.046538" lon="05.717052"><ele>25.3</ele><time>2021-05-01T13:12:04Z</time><name>PT849</name></trkpt>
<trkpt lat="52.046550" lon="05.717003"><ele>25.3</ele><time>2021-05-01T13:12:04Z</time><name>PT850</name></trkpt>
<trkpt lat="52.046558" lon="05.716964"><ele>25.4</ele><time>2021-05-01T13:12:06Z</time><name>PT851</name></trkpt>
<trkpt lat="52.046567" lon="05.716931"><ele>25.5</ele><time>2021-05-01T13:12:06Z</time><name>PT852</name></trkpt>
<trkpt lat="52.046575" lon="05.716902"><ele>25.5</ele><time>2021-05-01T13:12:08Z</time><name>PT853</name></trkpt>
<trkpt lat="52.046581" lon="05.716877"><ele>25.5</ele><time>2021-05-01T13:12:08Z</time><name>PT854</name></trkpt>
<trkpt lat="52.046587" lon="05.716859"><ele>25.6</ele><time>2021-05-01T13:12:10Z</time><name>PT855</name></trkpt>
<trkpt lat="52.046589" lon="05.716845"><ele>25.7</ele><time>2021-05-01T13:12:10Z</time><name>PT856</name></trkpt>
<trkpt lat="52.046589" lon="05.716832"><ele>25.8</ele><time>2021-05-01T13:12:12Z</time><name>PT857</name></trkpt>
<trkpt lat="52.046591" lon="05.716825"><ele>26</ele><time>2021-05-01T13:12:12Z</time><name>PT858</name></trkpt>
<trkpt lat="52.046600" lon="05.716820"><ele>26</ele><time>2021-05-01T13:12:14Z</time><name>PT859</name></trkpt>
<trkpt lat="52.046608" lon="05.716804"><ele>26</ele><time>2021-05-01T13:12:14Z</time><name>PT860</name></trkpt>
<trkpt lat="52.046616" lon="05.716780"><ele>26</ele><time>2021-05-01T13:12:16Z</time><name>PT861</name></trkpt>
<trkpt lat="52.046624" lon="05.716754"><ele>25.9</ele><time>2021-05-01T13:12:16Z</time><name>PT862</name></trkpt>
<trkpt lat="52.046630" lon="05.716724"><ele>25.8</ele><time>2021-05-01T13:12:18Z</time><name>PT863</name></trkpt>
<trkpt lat="52.046638" lon="05.716696"><ele>25.8</ele><time>2021-05-01T13:12:18Z</time><name>PT864</name></trkpt>
<trkpt lat="52.046644" lon="05.716672"><ele>25.6</ele><time>2021-05-01T13:12:20Z</time><name>PT865</name></trkpt>
<trkpt lat="52.046645" lon="05.716658"><ele>25.5</ele><time>2021-05-01T13:12:20Z</time><name>PT866</name></trkpt>
<trkpt lat="52.046647" lon="05.716651"><ele>25.3</ele><time>2021-05-01T13:12:22Z</time><name>PT867</name></trkpt>
<trkpt lat="52.046651" lon="05.716637"><ele>25.3</ele><time>2021-05-01T13:12:22Z</time><name>PT868</name></trkpt>
<trkpt lat="52.046653" lon="05.716625"><ele>25.3</ele><time>2021-05-01T13:12:24Z</time><name>PT869</name></trkpt>
<trkpt lat="52.046653" lon="05.716619"><ele>25.4</ele><time>2021-05-01T13:12:24Z</time><name>PT870</name></trkpt>
<trkpt lat="52.046655" lon="05.716614"><ele>25.7</ele><time>2021-05-01T13:12:26Z</time><name>PT871</name></trkpt>
<trkpt lat="52.046659" lon="05.716603"><ele>25.8</ele><time>2021-05-01T13:12:26Z</time><name>PT872</name></trkpt>
<trkpt lat="52.046668" lon="05.716588"><ele>25.8</ele><time>2021-05-01T13:12:28Z</time><name>PT873</name></trkpt>
<trkpt lat="52.046684" lon="05.716567"><ele>25.8</ele><time>2021-05-01T13:12:28Z</time><name>PT874</name></trkpt>
<trkpt lat="52.046695" lon="05.716536"><ele>25.7</ele><time>2021-05-01T13:12:30Z</time><name>PT875</name></trkpt>
<trkpt lat="52.046696" lon="05.716503"><ele>25.7</ele><time>2021-05-01T13:12:30Z</time><name>PT876</name></trkpt>
<trkpt lat="52.046698" lon="05.716486"><ele>25.7</ele><time>2021-05-01T13:12:32Z</time><name>PT877</name></trkpt>
<trkpt lat="52.046701" lon="05.716481"><ele>25.7</ele><time>2021-05-01T13:12:32Z</time><name>PT878</name></trkpt>
<trkpt lat="52.046704" lon="05.716479"><ele>25.8</ele><time>2021-05-01T13:12:34Z</time><name>PT879</name></trkpt>
<trkpt lat="52.046706" lon="05.716471"><ele>25.8</ele><time>2021-05-01T13:12:34Z</time><name>PT880</name></trkpt>
<trkpt lat="52.046710" lon="05.716458"><ele>25.8</ele><time>2021-05-01T13:12:36Z</time><name>PT881</name></trkpt>
<trkpt lat="52.046715" lon="05.716441"><ele>25.8</ele><time>2021-05-01T13:12:36Z</time><name>PT882</name></trkpt>
<trkpt lat="52.046724" lon="05.716417"><ele>25.8</ele><time>2021-05-01T13:12:38Z</time><name>PT883</name></trkpt>
<trkpt lat="52.046733" lon="05.716387"><ele>25.8</ele><time>2021-05-01T13:12:38Z</time><name>PT884</name></trkpt>
<trkpt lat="52.046746" lon="05.716362"><ele>25.6</ele><time>2021-05-01T13:12:40Z</time><name>PT885</name></trkpt>
<trkpt lat="52.046757" lon="05.716341"><ele>25.7</ele><time>2021-05-01T13:12:40Z</time><name>PT886</name></trkpt>
<trkpt lat="52.046760" lon="05.716324"><ele>25.8</ele><time>2021-05-01T13:12:42Z</time><name>PT887</name></trkpt>
<trkpt lat="52.046764" lon="05.716314"><ele>25.6</ele><time>2021-05-01T13:12:42Z</time><name>PT888</name></trkpt>
<trkpt lat="52.046768" lon="05.716308"><ele>25.8</ele><time>2021-05-01T13:12:44Z</time><name>PT889</name></trkpt>
<trkpt lat="52.046770" lon="05.716301"><ele>25.8</ele><time>2021-05-01T13:12:44Z</time><name>PT890</name></trkpt>
<trkpt lat="52.046770" lon="05.716295"><ele>25.9</ele><time>2021-05-01T13:12:46Z</time><name>PT891</name></trkpt>
<trkpt lat="52.046773" lon="05.716291"><ele>25.8</ele><time>2021-05-01T13:12:46Z</time><name>PT892</name></trkpt>
<trkpt lat="52.046777" lon="05.716284"><ele>25.9</ele><time>2021-05-01T13:12:48Z</time><name>PT893</name></trkpt>
<trkpt lat="52.046781" lon="05.716264"><ele>25.9</ele><time>2021-05-01T13:12:48Z</time><name>PT894</name></trkpt>
<trkpt lat="52.046790" lon="05.716239"><ele>25.9</ele><time>2021-05-01T13:12:50Z</time><name>PT895</name></trkpt>
<trkpt lat="52.046799" lon="05.716207"><ele>25.9</ele><time>2021-05-01T13:12:50Z</time><name>PT896</name></trkpt>
<trkpt lat="52.046809" lon="05.716169"><ele>25.9</ele><time>2021-05-01T13:12:52Z</time><name>PT897</name></trkpt>
<trkpt lat="52.046824" lon="05.716139"><ele>26</ele><time>2021-05-01T13:12:52Z</time><name>PT898</name></trkpt>
<trkpt lat="52.046834" lon="05.716109"><ele>25.8</ele><time>2021-05-01T13:12:54Z</time><name>PT899</name></trkpt>
<trkpt lat="52.046840" lon="05.716086"><ele>25.8</ele><time>2021-05-01T13:12:54Z</time><name>PT900</name></trkpt>
<trkpt lat="52.046844" lon="05.716066"><ele>25.7</ele><time>2021-05-01T13:12:56Z</time><name>PT901</name></trkpt>
<trkpt lat="52.046849" lon="05.716052"><ele>25.7</ele><time>2021-05-01T13:12:56Z</time><name>PT902</name></trkpt>
<trkpt lat="52.046850" lon="05.716039"><ele>25.7</ele><time>2021-05-01T13:12:58Z</time><name>PT903</name></trkpt>
<trkpt lat="52.046852" lon="05.716030"><ele>25.7</ele><time>2021-05-01T13:12:58Z</time><name>PT904</name></trkpt>
<trkpt lat="52.046857" lon="05.716020"><ele>25.5</ele><time>2021-05-01T13:13:00Z</time><name>PT905</name></trkpt>
<trkpt lat="52.046860" lon="05.716011"><ele>25.3</ele><time>2021-05-01T13:13:00Z</time><name>PT906</name></trkpt>
<trkpt lat="52.046860" lon="05.716003"><ele>25.2</ele><time>2021-05-01T13:13:02Z</time><name>PT907</name></trkpt>
<trkpt lat="52.046861" lon="05.715998"><ele>25</ele><time>2021-05-01T13:13:02Z</time><name>PT908</name></trkpt>
<trkpt lat="52.046860" lon="05.715991"><ele>25</ele><time>2021-05-01T13:13:04Z</time><name>PT909</name></trkpt>
<trkpt lat="52.046862" lon="05.715983"><ele>25</ele><time>2021-05-01T13:13:04Z</time><name>PT910</name></trkpt>
<trkpt lat="52.046871" lon="05.715965"><ele>25.3</ele><time>2021-05-01T13:13:06Z</time><name>PT911</name></trkpt>
<trkpt lat="52.046885" lon="05.715938"><ele>25.3</ele><time>2021-05-01T13:13:06Z</time><name>PT912</name></trkpt>
<trkpt lat="52.046897" lon="05.715906"><ele>25.5</ele><time>2021-05-01T13:13:08Z</time><name>PT913</name></trkpt>
<trkpt lat="52.046906" lon="05.715873"><ele>25.5</ele><time>2021-05-01T13:13:08Z</time><name>PT914</name></trkpt>
<trkpt lat="52.046913" lon="05.715846"><ele>25.6</ele><time>2021-05-01T13:13:10Z</time><name>PT915</name></trkpt>
<trkpt lat="52.046918" lon="05.715823"><ele>25.6</ele><time>2021-05-01T13:13:10Z</time><name>PT916</name></trkpt>
<trkpt lat="52.046921" lon="05.715807"><ele>25.8</ele><time>2021-05-01T13:13:12Z</time><name>PT917</name></trkpt>
<trkpt lat="52.046923" lon="05.715798"><ele>25.6</ele><time>2021-05-01T13:13:12Z</time><name>PT918</name></trkpt>
<trkpt lat="52.046924" lon="05.715794"><ele>25.7</ele><time>2021-05-01T13:13:14Z</time><name>PT919</name></trkpt>
<trkpt lat="52.046924" lon="05.715789"><ele>25.7</ele><time>2021-05-01T13:13:14Z</time><name>PT920</name></trkpt>
<trkpt lat="52.046925" lon="05.715784"><ele>25.6</ele><time>2021-05-01T13:13:16Z</time><name>PT921</name></trkpt>
<trkpt lat="52.046928" lon="05.715778"><ele>25.5</ele><time>2021-05-01T13:13:16Z</time><name>PT922</name></trkpt>
<trkpt lat="52.046930" lon="05.715766"><ele>25.5</ele><time>2021-05-01T13:13:18Z</time><name>PT923</name></trkpt>
<trkpt lat="52.046935" lon="05.715753"><ele>25.6</ele><time>2021-05-01T13:13:18Z</time><name>PT924</name></trkpt>
<trkpt lat="52.046939" lon="05.715735"><ele>25.6</ele><time>2021-05-01T13:13:20Z</time><name>PT925</name></trkpt>
<trkpt lat="52.046944" lon="05.715718"><ele>25.8</ele><time>2021-05-01T13:13:20Z</time><name>PT926</name></trkpt>
<trkpt lat="52.046948" lon="05.715698"><ele>25.7</ele><time>2021-05-01T13:13:22Z</time><name>PT927</name></trkpt>
<trkpt lat="52.046953" lon="05.715674"><ele>25.6</ele><time>2021-05-01T13:13:22Z</time><name>PT928</name></trkpt>
<trkpt lat="52.046960" lon="05.715645"><ele>25.5</ele><time>2021-05-01T13:13:24Z</time><name>PT929</name></trkpt>
<trkpt lat="52.046967" lon="05.715617"><ele>25.4</ele><time>2021-05-01T13:13:24Z</time><name>PT930</name></trkpt>
<trkpt lat="52.046976" lon="05.715592"><ele>25.3</ele><time>2021-05-01T13:13:26Z</time><name>PT931</name></trkpt>
<trkpt lat="52.046985" lon="05.715563"><ele>25.3</ele><time>2021-05-01T13:13:27Z</time><name>PT932</name></trkpt>
<trkpt lat="52.046992" lon="05.715533"><ele>25.6</ele><time>2021-05-01T13:13:28Z</time><name>PT933</name></trkpt>
<trkpt lat="52.047000" lon="05.715503"><ele>25.7</ele><time>2021-05-01T13:13:28Z</time><name>PT934</name></trkpt>
<trkpt lat="52.047007" lon="05.715481"><ele>25.8</ele><time>2021-05-01T13:13:30Z</time><name>PT935</name></trkpt>
<trkpt lat="52.047014" lon="05.715464"><ele>25.8</ele><time>2021-05-01T13:13:30Z</time><name>PT936</name></trkpt>
<trkpt lat="52.047022" lon="05.715437"><ele>25.8</ele><time>2021-05-01T13:13:32Z</time><name>PT937</name></trkpt>
<trkpt lat="52.047028" lon="05.715412"><ele>25.7</ele><time>2021-05-01T13:13:32Z</time><name>PT938</name></trkpt>
<trkpt lat="52.047033" lon="05.715388"><ele>25.7</ele><time>2021-05-01T13:13:34Z</time><name>PT939</name></trkpt>
<trkpt lat="52.047039" lon="05.715365"><ele>25.7</ele><time>2021-05-01T13:13:34Z</time><name>PT940</name></trkpt>
<trkpt lat="52.047046" lon="05.715348"><ele>25.8</ele><time>2021-05-01T13:13:36Z</time><name>PT941</name></trkpt>
<trkpt lat="52.047054" lon="05.715331"><ele>25.8</ele><time>2021-05-01T13:13:36Z</time><name>PT942</name></trkpt>
<trkpt lat="52.047062" lon="05.715316"><ele>25.8</ele><time>2021-05-01T13:13:38Z</time><name>PT943</name></trkpt>
<trkpt lat="52.047066" lon="05.715304"><ele>25.8</ele><time>2021-05-01T13:13:38Z</time><name>PT944</name></trkpt>
<trkpt lat="52.047067" lon="05.715291"><ele>25.8</ele><time>2021-05-01T13:13:40Z</time><name>PT945</name></trkpt>
<trkpt lat="52.047065" lon="05.715282"><ele>25.8</ele><time>2021-05-01T13:13:41Z</time><name>PT946</name></trkpt>
<trkpt lat="52.047063" lon="05.715273"><ele>25.8</ele><time>2021-05-01T13:13:41Z</time><name>PT947</name></trkpt>
<trkpt lat="52.047064" lon="05.715263"><ele>25.9</ele><time>2021-05-01T13:13:43Z</time><name>PT948</name></trkpt>
<trkpt lat="52.047064" lon="05.715255"><ele>25.8</ele><time>2021-05-01T13:13:43Z</time><name>PT949</name></trkpt>
<trkpt lat="52.047065" lon="05.715246"><ele>26</ele><time>2021-05-01T13:13:45Z</time><name>PT950</name></trkpt>
<trkpt lat="52.047066" lon="05.715237"><ele>26.1</ele><time>2021-05-01T13:13:45Z</time><name>PT951</name></trkpt>
<trkpt lat="52.047077" lon="05.715209"><ele>26.1</ele><time>2021-05-01T13:13:47Z</time><name>PT952</name></trkpt>
<trkpt lat="52.047085" lon="05.715177"><ele>26</ele><time>2021-05-01T13:13:49Z</time><name>PT953</name></trkpt>
<trkpt lat="52.047094" lon="05.715140"><ele>25.9</ele><time>2021-05-01T13:13:50Z</time><name>PT954</name></trkpt>
<trkpt lat="52.047106" lon="05.715107"><ele>25.8</ele><time>2021-05-01T13:13:51Z</time><name>PT955</name></trkpt>
<trkpt lat="52.047116" lon="05.715075"><ele>25.8</ele><time>2021-05-01T13:13:52Z</time><name>PT956</name></trkpt>
<trkpt lat="52.047128" lon="05.715041"><ele>25.8</ele><time>2021-05-01T13:13:53Z</time><name>PT957</name></trkpt>
<trkpt lat="52.047136" lon="05.715013"><ele>25.7</ele><time>2021-05-01T13:13:54Z</time><name>PT958</name></trkpt>
<trkpt lat="52.047144" lon="05.714991"><ele>25.6</ele><time>2021-05-01T13:13:55Z</time><name>PT959</name></trkpt>
<trkpt lat="52.047150" lon="05.714976"><ele>25.4</ele><time>2021-05-01T13:13:56Z</time><name>PT960</name></trkpt>
<trkpt lat="52.047153" lon="05.714969"><ele>25.5</ele><time>2021-05-01T13:13:57Z</time><name>PT961</name></trkpt>
<trkpt lat="52.047156" lon="05.714968"><ele>25.6</ele><time>2021-05-01T13:13:58Z</time><name>PT962</name></trkpt>
<trkpt lat="52.047159" lon="05.714963"><ele>25.7</ele><time>2021-05-01T13:13:59Z</time><name>PT963</name></trkpt>
<trkpt lat="52.047162" lon="05.714961"><ele>25.8</ele><time>2021-05-01T13:13:59Z</time><name>PT964</name></trkpt>
<trkpt lat="52.047165" lon="05.714951"><ele>26.1</ele><time>2021-05-01T13:14:01Z</time><name>PT965</name></trkpt>
<trkpt lat="52.047173" lon="05.714933"><ele>25.9</ele><time>2021-05-01T13:14:03Z</time><name>PT966</name></trkpt>
<trkpt lat="52.047187" lon="05.714906"><ele>25.9</ele><time>2021-05-01T13:14:03Z</time><name>PT967</name></trkpt>
<trkpt lat="52.047199" lon="05.714876"><ele>25.9</ele><time>2021-05-01T13:14:05Z</time><name>PT968</name></trkpt>
<trkpt lat="52.047215" lon="05.714845"><ele>25.9</ele><time>2021-05-01T13:14:05Z</time><name>PT969</name></trkpt>
<trkpt lat="52.047231" lon="05.714811"><ele>25.9</ele><time>2021-05-01T13:14:07Z</time><name>PT970</name></trkpt>
<trkpt lat="52.047237" lon="05.714788"><ele>26.2</ele><time>2021-05-01T13:14:07Z</time><name>PT971</name></trkpt>
<trkpt lat="52.047240" lon="05.714761"><ele>26.1</ele><time>2021-05-01T13:14:09Z</time><name>PT972</name></trkpt>
<trkpt lat="52.047249" lon="05.714736"><ele>26</ele><time>2021-05-01T13:14:09Z</time><name>PT973</name></trkpt>
<trkpt lat="52.047257" lon="05.714711"><ele>26.2</ele><time>2021-05-01T13:14:11Z</time><name>PT974</name></trkpt>
<trkpt lat="52.047263" lon="05.714686"><ele>26.3</ele><time>2021-05-01T13:14:11Z</time><name>PT975</name></trkpt>
<trkpt lat="52.047266" lon="05.714667"><ele>26.1</ele><time>2021-05-01T13:14:13Z</time><name>PT976</name></trkpt>
<trkpt lat="52.047268" lon="05.714652"><ele>26.3</ele><time>2021-05-01T13:14:13Z</time><name>PT977</name></trkpt>
<trkpt lat="52.047273" lon="05.714643"><ele>26.4</ele><time>2021-05-01T13:14:15Z</time><name>PT978</name></trkpt>
<trkpt lat="52.047271" lon="05.714627"><ele>26.5</ele><time>2021-05-01T13:14:15Z</time><name>PT979</name></trkpt>
<trkpt lat="52.047273" lon="05.714619"><ele>26.8</ele><time>2021-05-01T13:14:17Z</time><name>PT980</name></trkpt>
<trkpt lat="52.047275" lon="05.714610"><ele>26.9</ele><time>2021-05-01T13:14:17Z</time><name>PT981</name></trkpt>
<trkpt lat="52.047282" lon="05.714599"><ele>27.1</ele><time>2021-05-01T13:14:19Z</time><name>PT982</name></trkpt>
<trkpt lat="52.047290" lon="05.714581"><ele>27</ele><time>2021-05-01T13:14:19Z</time><name>PT983</name></trkpt>
<trkpt lat="52.047299" lon="05.714554"><ele>27.1</ele><time>2021-05-01T13:14:21Z</time><name>PT984</name></trkpt>
<trkpt lat="52.047312" lon="05.714526"><ele>27.2</ele><time>2021-05-01T13:14:21Z</time><name>PT985</name></trkpt>
<trkpt lat="52.047319" lon="05.714496"><ele>27.2</ele><time>2021-05-01T13:14:23Z</time><name>PT986</name></trkpt>
<trkpt lat="52.047329" lon="05.714468"><ele>27</ele><time>2021-05-01T13:14:23Z</time><name>PT987</name></trkpt>
<trkpt lat="52.047337" lon="05.714447"><ele>27.2</ele><time>2021-05-01T13:14:25Z</time><name>PT988</name></trkpt>
<trkpt lat="52.047343" lon="05.714434"><ele>27.1</ele><time>2021-05-01T13:14:25Z</time><name>PT989</name></trkpt>
<trkpt lat="52.047345" lon="05.714423"><ele>27</ele><time>2021-05-01T13:14:27Z</time><name>PT990</name></trkpt>
<trkpt lat="52.047348" lon="05.714420"><ele>27.1</ele><time>2021-05-01T13:14:27Z</time><name>PT991</name></trkpt>
<trkpt lat="52.047347" lon="05.714417"><ele>26.9</ele><time>2021-05-01T13:14:29Z</time><name>PT992</name></trkpt>
<trkpt lat="52.047349" lon="05.714414"><ele>26.9</ele><time>2021-05-01T13:14:29Z</time><name>PT993</name></trkpt>
<trkpt lat="52.047353" lon="05.714406"><ele>26.9</ele><time>2021-05-01T13:14:31Z</time><name>PT994</name></trkpt>
<trkpt lat="52.047358" lon="05.714396"><ele>26.9</ele><time>2021-05-01T13:14:31Z</time><name>PT995</name></trkpt>
<trkpt lat="52.047362" lon="05.714378"><ele>26.8</ele><time>2021-05-01T13:14:33Z</time><name>PT996</name></trkpt>
<trkpt lat="52.047367" lon="05.714354"><ele>26.8</ele><time>2021-05-01T13:14:33Z</time><name>PT997</name></trkpt>
<trkpt lat="52.047376" lon="05.714324"><ele>26.9</ele><time>2021-05-01T13:14:35Z</time><name>PT998</name></trkpt>
<trkpt lat="52.047384" lon="05.714300"><ele>27</ele><time>2021-05-01T13:14:35Z</time><name>PT999</name></trkpt>
<trkpt lat="52.047391" lon="05.714276"><ele>27.1</ele><time>2021-05-01T13:14:37Z</time><name>PT1000</name></trkpt>
<trkpt lat="52.047401" lon="05.714256"><ele>27.1</ele><time>2021-05-01T13:14:37Z</time><name>PT1001</name></trkpt>
<trkpt lat="52.047410" lon="05.714240"><ele>27.3</ele><time>2021-05-01T13:14:39Z</time><name>PT1002</name></trkpt>
<trkpt lat="52.047417" lon="05.714226"><ele>27.2</ele><time>2021-05-01T13:14:39Z</time><name>PT1003</name></trkpt>
<trkpt lat="52.047421" lon="05.714213"><ele>27.3</ele><time>2021-05-01T13:14:41Z</time><name>PT1004</name></trkpt>
<trkpt lat="52.047424" lon="05.714203"><ele>27.2</ele><time>2021-05-01T13:14:41Z</time><name>PT1005</name></trkpt>
<trkpt lat="52.047427" lon="05.714194"><ele>27.6</ele><time>2021-05-01T13:14:43Z</time><name>PT1006</name></trkpt>
<trkpt lat="52.047430" lon="05.714192"><ele>27.5</ele><time>2021-05-01T13:14:43Z</time><name>PT1007</name></trkpt>
<trkpt lat="52.047436" lon="05.714188"><ele>27.7</ele><time>2021-05-01T13:14:45Z</time><name>PT1008</name></trkpt>
<trkpt lat="52.047442" lon="05.714180"><ele>27.7</ele><time>2021-05-01T13:14:45Z</time><name>PT1009</name></trkpt>
<trkpt lat="52.047452" lon="05.714164"><ele>27.7</ele><time>2021-05-01T13:14:47Z</time><name>PT1010</name></trkpt>
<trkpt lat="52.047467" lon="05.714145"><ele>27.6</ele><time>2021-05-01T13:14:47Z</time><name>PT1011</name></trkpt>
<trkpt lat="52.047484" lon="05.714127"><ele>27.6</ele><time>2021-05-01T13:14:49Z</time><name>PT1012</name></trkpt>
<trkpt lat="52.047499" lon="05.714110"><ele>27.5</ele><time>2021-05-01T13:14:49Z</time><name>PT1013</name></trkpt>
<trkpt lat="52.047511" lon="05.714098"><ele>27.5</ele><time>2021-05-01T13:14:51Z</time><name>PT1014</name></trkpt>
<trkpt lat="52.047517" lon="05.714089"><ele>27.5</ele><time>2021-05-01T13:14:51Z</time><name>PT1015</name></trkpt>
<trkpt lat="52.047522" lon="05.714085"><ele>27.4</ele><time>2021-05-01T13:14:53Z</time><name>PT1016</name></trkpt>
<trkpt lat="52.047525" lon="05.714084"><ele>27.4</ele><time>2021-05-01T13:14:53Z</time><name>PT1017</name></trkpt>
<trkpt lat="52.047529" lon="05.714081"><ele>27.4</ele><time>2021-05-01T13:14:55Z</time><name>PT1018</name></trkpt>
<trkpt lat="52.047536" lon="05.714070"><ele>27.3</ele><time>2021-05-01T13:14:55Z</time><name>PT1019</name></trkpt>
<trkpt lat="52.047548" lon="05.714054"><ele>27.3</ele><time>2021-05-01T13:14:57Z</time><name>PT1020</name></trkpt>
<trkpt lat="52.047560" lon="05.714036"><ele>27.4</ele><time>2021-05-01T13:14:57Z</time><name>PT1021</name></trkpt>
<trkpt lat="52.047576" lon="05.714024"><ele>27.5</ele><time>2021-05-01T13:14:59Z</time><name>PT1022</name></trkpt>
<trkpt lat="52.047594" lon="05.714007"><ele>27.6</ele><time>2021-05-01T13:15:00Z</time><name>PT1023</name></trkpt>
<trkpt lat="52.047606" lon="05.713997"><ele>27.5</ele><time>2021-05-01T13:15:00Z</time><name>PT1024</name></trkpt>
<trkpt lat="52.047619" lon="05.713985"><ele>27.7</ele><time>2021-05-01T13:15:02Z</time><name>PT1025</name></trkpt>
<trkpt lat="52.047628" lon="05.713977"><ele>27.6</ele><time>2021-05-01T13:15:02Z</time><name>PT1026</name></trkpt>
<trkpt lat="52.047633" lon="05.713972"><ele>27.5</ele><time>2021-05-01T13:15:04Z</time><name>PT1027</name></trkpt>
<trkpt lat="52.047638" lon="05.713968"><ele>27.2</ele><time>2021-05-01T13:15:04Z</time><name>PT1028</name></trkpt>
<trkpt lat="52.047639" lon="05.713963"><ele>27.2</ele><time>2021-05-01T13:15:06Z</time><name>PT1029</name></trkpt>
<trkpt lat="52.047644" lon="05.713954"><ele>27.2</ele><time>2021-05-01T13:15:06Z</time><name>PT1030</name></trkpt>
<trkpt lat="52.047653" lon="05.713946"><ele>27.2</ele><time>2021-05-01T13:15:08Z</time><name>PT1031</name></trkpt>
<trkpt lat="52.047665" lon="05.713937"><ele>27.4</ele><time>2021-05-01T13:15:09Z</time><name>PT1032</name></trkpt>
<trkpt lat="52.047677" lon="05.713924"><ele>27.5</ele><time>2021-05-01T13:15:09Z</time><name>PT1033</name></trkpt>
<trkpt lat="52.047691" lon="05.713907"><ele>27.2</ele><time>2021-05-01T13:15:11Z</time><name>PT1034</name></trkpt>
<trkpt lat="52.047710" lon="05.713887"><ele>27.2</ele><time>2021-05-01T13:15:12Z</time><name>PT1035</name></trkpt>
<trkpt lat="52.047729" lon="05.713870"><ele>27.1</ele><time>2021-05-01T13:15:13Z</time><name>PT1036</name></trkpt>
<trkpt lat="52.047744" lon="05.713854"><ele>27.1</ele><time>2021-05-01T13:15:14Z</time><name>PT1037</name></trkpt>
<trkpt lat="52.047755" lon="05.713843"><ele>27.1</ele><time>2021-05-01T13:15:15Z</time><name>PT1038</name></trkpt>
<trkpt lat="52.047766" lon="05.713832"><ele>27</ele><time>2021-05-01T13:15:16Z</time><name>PT1039</name></trkpt>
<trkpt lat="52.047777" lon="05.713820"><ele>27</ele><time>2021-05-01T13:15:17Z</time><name>PT1040</name></trkpt>
<trkpt lat="52.047786" lon="05.713816"><ele>26.9</ele><time>2021-05-01T13:15:18Z</time><name>PT1041</name></trkpt>
<trkpt lat="52.047787" lon="05.713817"><ele>26.9</ele><time>2021-05-01T13:15:19Z</time><name>PT1042</name></trkpt>
<trkpt lat="52.047786" lon="05.713823"><ele>27.2</ele><time>2021-05-01T13:15:19Z</time><name>PT1043</name></trkpt>
<trkpt lat="52.047787" lon="05.713821"><ele>27.3</ele><time>2021-05-01T13:15:21Z</time><name>PT1044</name></trkpt>
<trkpt lat="52.047793" lon="05.713818"><ele>27.4</ele><time>2021-05-01T13:15:21Z</time><name>PT1045</name></trkpt>
<trkpt lat="52.047799" lon="05.713810"><ele>27.4</ele><time>2021-05-01T13:15:23Z</time><name>PT1046</name></trkpt>
<trkpt lat="52.047810" lon="05.713798"><ele>27.4</ele><time>2021-05-01T13:15:23Z</time><name>PT1047</name></trkpt>
<trkpt lat="52.047827" lon="05.713784"><ele>27.2</ele><time>2021-05-01T13:15:25Z</time><name>PT1048</name></trkpt>
<trkpt lat="52.047848" lon="05.713764"><ele>27.2</ele><time>2021-05-01T13:15:25Z</time><name>PT1049</name></trkpt>
<trkpt lat="52.047864" lon="05.713744"><ele>27.3</ele><time>2021-05-01T13:15:27Z</time><name>PT1050</name></trkpt>
<trkpt lat="52.047875" lon="05.713724"><ele>27.5</ele><time>2021-05-01T13:15:27Z</time><name>PT1051</name></trkpt>
<trkpt lat="52.047884" lon="05.713703"><ele>27.5</ele><time>2021-05-01T13:15:29Z</time><name>PT1052</name></trkpt>
<trkpt lat="52.047891" lon="05.713687"><ele>27.7</ele><time>2021-05-01T13:15:29Z</time><name>PT1053</name></trkpt>
<trkpt lat="52.047895" lon="05.713669"><ele>28</ele><time>2021-05-01T13:15:31Z</time><name>PT1054</name></trkpt>
<trkpt lat="52.047901" lon="05.713658"><ele>27.9</ele><time>2021-05-01T13:15:31Z</time><name>PT1055</name></trkpt>
<trkpt lat="52.047905" lon="05.713645"><ele>27.8</ele><time>2021-05-01T13:15:33Z</time><name>PT1056</name></trkpt>
<trkpt lat="52.047910" lon="05.713633"><ele>27.7</ele><time>2021-05-01T13:15:33Z</time><name>PT1057</name></trkpt>
<trkpt lat="52.047918" lon="05.713627"><ele>27.7</ele><time>2021-05-01T13:15:35Z</time><name>PT1058</name></trkpt>
<trkpt lat="52.047925" lon="05.713618"><ele>27.6</ele><time>2021-05-01T13:15:35Z</time><name>PT1059</name></trkpt>
<trkpt lat="52.047933" lon="05.713612"><ele>27.7</ele><time>2021-05-01T13:15:37Z</time><name>PT1060</name></trkpt>
<trkpt lat="52.047939" lon="05.713609"><ele>27.7</ele><time>2021-05-01T13:15:37Z</time><name>PT1061</name></trkpt>
<trkpt lat="52.047948" lon="05.713605"><ele>27.7</ele><time>2021-05-01T13:15:39Z</time><name>PT1062</name></trkpt>
<trkpt lat="52.047962" lon="05.713595"><ele>27.7</ele><time>2021-05-01T13:15:39Z</time><name>PT1063</name></trkpt>
<trkpt lat="52.047977" lon="05.713587"><ele>27.8</ele><time>2021-05-01T13:15:41Z</time><name>PT1064</name></trkpt>
<trkpt lat="52.047991" lon="05.713588"><ele>27.7</ele><time>2021-05-01T13:15:41Z</time><name>PT1065</name></trkpt>
<trkpt lat="52.048009" lon="05.713579"><ele>27.8</ele><time>2021-05-01T13:15:43Z</time><name>PT1066</name></trkpt>
<trkpt lat="52.048024" lon="05.713570"><ele>27.8</ele><time>2021-05-01T13:15:43Z</time><name>PT1067</name></trkpt>
<trkpt lat="52.048035" lon="05.713566"><ele>27.9</ele><time>2021-05-01T13:15:45Z</time><name>PT1068</name></trkpt>
<trkpt lat="52.048045" lon="05.713562"><ele>27.8</ele><time>2021-05-01T13:15:46Z</time><name>PT1069</name></trkpt>
<trkpt lat="52.048055" lon="05.713560"><ele>27.9</ele><time>2021-05-01T13:15:46Z</time><name>PT1070</name></trkpt>
<trkpt lat="52.048064" lon="05.713559"><ele>28.1</ele><time>2021-05-01T13:15:48Z</time><name>PT1071</name></trkpt>
<trkpt lat="52.048069" lon="05.713558"><ele>28</ele><time>2021-05-01T13:15:48Z</time><name>PT1072</name></trkpt>
<trkpt lat="52.048071" lon="05.713557"><ele>28</ele><time>2021-05-01T13:15:50Z</time><name>PT1073</name></trkpt>
<trkpt lat="52.048073" lon="05.713561"><ele>28</ele><time>2021-05-01T13:15:50Z</time><name>PT1074</name></trkpt>
<trkpt lat="52.048079" lon="05.713566"><ele>28.1</ele><time>2021-05-01T13:15:52Z</time><name>PT1075</name></trkpt>
<trkpt lat="52.048094" lon="05.713565"><ele>28</ele><time>2021-05-01T13:15:52Z</time><name>PT1076</name></trkpt>
<trkpt lat="52.048110" lon="05.713559"><ele>27.9</ele><time>2021-05-01T13:15:54Z</time><name>PT1077</name></trkpt>
<trkpt lat="52.048129" lon="05.713548"><ele>28</ele><time>2021-05-01T13:15:54Z</time><name>PT1078</name></trkpt>
<trkpt lat="52.048146" lon="05.713537"><ele>28.1</ele><time>2021-05-01T13:15:56Z</time><name>PT1079</name></trkpt>
<trkpt lat="52.048158" lon="05.713528"><ele>28</ele><time>2021-05-01T13:15:56Z</time><name>PT1080</name></trkpt>
<trkpt lat="52.048164" lon="05.713524"><ele>28</ele><time>2021-05-01T13:15:58Z</time><name>PT1081</name></trkpt>
<trkpt lat="52.048168" lon="05.713517"><ele>28.1</ele><time>2021-05-01T13:15:58Z</time><name>PT1082</name></trkpt>
<trkpt lat="52.048171" lon="05.713515"><ele>28.2</ele><time>2021-05-01T13:16:00Z</time><name>PT1083</name></trkpt>
<trkpt lat="52.048174" lon="05.713516"><ele>28.1</ele><time>2021-05-01T13:16:00Z</time><name>PT1084</name></trkpt>
<trkpt lat="52.048180" lon="05.713510"><ele>28.1</ele><time>2021-05-01T13:16:02Z</time><name>PT1085</name></trkpt>
<trkpt lat="52.048185" lon="05.713506"><ele>28.1</ele><time>2021-05-01T13:16:02Z</time><name>PT1086</name></trkpt>
<trkpt lat="52.048189" lon="05.713499"><ele>28.2</ele><time>2021-05-01T13:16:04Z</time><name>PT1087</name></trkpt>
<trkpt lat="52.048198" lon="05.713490"><ele>28.1</ele><time>2021-05-01T13:16:04Z</time><name>PT1088</name></trkpt>
<trkpt lat="52.048211" lon="05.713485"><ele>28.2</ele><time>2021-05-01T13:16:06Z</time><name>PT1089</name></trkpt>
<trkpt lat="52.048219" lon="05.713483"><ele>28.1</ele><time>2021-05-01T13:16:06Z</time><name>PT1090</name></trkpt>
<trkpt lat="52.048230" lon="05.713483"><ele>27.8</ele><time>2021-05-01T13:16:08Z</time><name>PT1091</name></trkpt>
<trkpt lat="52.048248" lon="05.713479"><ele>27.7</ele><time>2021-05-01T13:16:08Z</time><name>PT1092</name></trkpt>
<trkpt lat="52.048262" lon="05.713472"><ele>27.7</ele><time>2021-05-01T13:16:10Z</time><name>PT1093</name></trkpt>
<trkpt lat="52.048272" lon="05.713459"><ele>27.6</ele><time>2021-05-01T13:16:10Z</time><name>PT1094</name></trkpt>
<trkpt lat="52.048281" lon="05.713455"><ele>27.5</ele><time>2021-05-01T13:16:12Z</time><name>PT1095</name></trkpt>
<trkpt lat="52.048296" lon="05.713457"><ele>27.6</ele><time>2021-05-01T13:16:12Z</time><name>PT1096</name></trkpt>
<trkpt lat="52.048306" lon="05.713456"><ele>27.6</ele><time>2021-05-01T13:16:14Z</time><name>PT1097</name></trkpt>
<trkpt lat="52.048318" lon="05.713458"><ele>27.5</ele><time>2021-05-01T13:16:14Z</time><name>PT1098</name></trkpt>
<trkpt lat="52.048334" lon="05.713458"><ele>27.4</ele><time>2021-05-01T13:16:16Z</time><name>PT1099</name></trkpt>
<trkpt lat="52.048352" lon="05.713464"><ele>27.3</ele><time>2021-05-01T13:16:16Z</time><name>PT1100</name></trkpt>
<trkpt lat="52.048364" lon="05.713472"><ele>27.4</ele><time>2021-05-01T13:16:18Z</time><name>PT1101</name></trkpt>
<trkpt lat="52.048374" lon="05.713472"><ele>27.4</ele><time>2021-05-01T13:16:18Z</time><name>PT1102</name></trkpt>
<trkpt lat="52.048381" lon="05.713471"><ele>27.3</ele><time>2021-05-01T13:16:20Z</time><name>PT1103</name></trkpt>
<trkpt lat="52.048389" lon="05.713471"><ele>27.2</ele><time>2021-05-01T13:16:20Z</time><name>PT1104</name></trkpt>
<trkpt lat="52.048395" lon="05.713469"><ele>27.1</ele><time>2021-05-01T13:16:22Z</time><name>PT1105</name></trkpt>
<trkpt lat="52.048414" lon="05.713466"><ele>27.1</ele><time>2021-05-01T13:16:26Z</time><name>PT1106</name></trkpt>
<trkpt lat="52.048436" lon="05.713453"><ele>27.2</ele><time>2021-05-01T13:16:26Z</time><name>PT1107</name></trkpt>
<trkpt lat="52.048460" lon="05.713459"><ele>27.2</ele><time>2021-05-01T13:16:28Z</time><name>PT1108</name></trkpt>
<trkpt lat="52.048479" lon="05.713466"><ele>27.2</ele><time>2021-05-01T13:16:28Z</time><name>PT1109</name></trkpt>
<trkpt lat="52.048490" lon="05.713467"><ele>27.1</ele><time>2021-05-01T13:16:30Z</time><name>PT1110</name></trkpt>
<trkpt lat="52.048497" lon="05.713463"><ele>27.1</ele><time>2021-05-01T13:16:30Z</time><name>PT1111</name></trkpt>
<trkpt lat="52.048505" lon="05.713464"><ele>27.2</ele><time>2021-05-01T13:16:32Z</time><name>PT1112</name></trkpt>
<trkpt lat="52.048508" lon="05.713470"><ele>27.1</ele><time>2021-05-01T13:16:32Z</time><name>PT1113</name></trkpt>
<trkpt lat="52.048512" lon="05.713467"><ele>27.1</ele><time>2021-05-01T13:16:34Z</time><name>PT1114</name></trkpt>
<trkpt lat="52.048514" lon="05.713466"><ele>27.2</ele><time>2021-05-01T13:16:34Z</time><name>PT1115</name></trkpt>
<trkpt lat="52.048520" lon="05.713468"><ele>27.3</ele><time>2021-05-01T13:16:36Z</time><name>PT1116</name></trkpt>
<trkpt lat="52.048525" lon="05.713473"><ele>27.2</ele><time>2021-05-01T13:16:36Z</time><name>PT1117</name></trkpt>
<trkpt lat="52.048530" lon="05.713474"><ele>27.3</ele><time>2021-05-01T13:16:38Z</time><name>PT1118</name></trkpt>
<trkpt lat="52.048532" lon="05.713466"><ele>27.2</ele><time>2021-05-01T13:16:38Z</time><name>PT1119</name></trkpt>
<trkpt lat="52.048538" lon="05.713458"><ele>27.2</ele><time>2021-05-01T13:16:40Z</time><name>PT1120</name></trkpt>
<trkpt lat="52.048539" lon="05.713458"><ele>27.2</ele><time>2021-05-01T13:16:41Z</time><name>PT1121</name></trkpt>
<trkpt lat="52.048542" lon="05.713460"><ele>27.3</ele><time>2021-05-01T13:16:42Z</time><name>PT1122</name></trkpt>
<trkpt lat="52.048547" lon="05.713465"><ele>27.2</ele><time>2021-05-01T13:16:43Z</time><name>PT1123</name></trkpt>
<trkpt lat="52.048559" lon="05.713466"><ele>27.2</ele><time>2021-05-01T13:16:44Z</time><name>PT1124</name></trkpt>
<trkpt lat="52.048566" lon="05.713462"><ele>27.3</ele><time>2021-05-01T13:16:44Z</time><name>PT1125</name></trkpt>
<trkpt lat="52.048570" lon="05.713464"><ele>27.4</ele><time>2021-05-01T13:16:46Z</time><name>PT1126</name></trkpt>
<trkpt lat="52.048575" lon="05.713466"><ele>27.4</ele><time>2021-05-01T13:16:46Z</time><name>PT1127</name></trkpt>
<trkpt lat="52.048577" lon="05.713473"><ele>27.2</ele><time>2021-05-01T13:16:48Z</time><name>PT1128</name></trkpt>
<trkpt lat="52.048588" lon="05.713479"><ele>27.4</ele><time>2021-05-01T13:16:48Z</time><name>PT1129</name></trkpt>
<trkpt lat="52.048603" lon="05.713478"><ele>27.4</ele><time>2021-05-01T13:16:50Z</time><name>PT1130</name></trkpt>
<trkpt lat="52.048623" lon="05.713478"><ele>27.2</ele><time>2021-05-01T13:16:51Z</time><name>PT1131</name></trkpt>
<trkpt lat="52.048639" lon="05.713482"><ele>27.2</ele><time>2021-05-01T13:16:51Z</time><name>PT1132</name></trkpt>
<trkpt lat="52.048647" lon="05.713494"><ele>27.4</ele><time>2021-05-01T13:16:53Z</time><name>PT1133</name></trkpt>
<trkpt lat="52.048653" lon="05.713496"><ele>27.3</ele><time>2021-05-01T13:16:54Z</time><name>PT1134</name></trkpt>
<trkpt lat="52.048656" lon="05.713496"><ele>27.3</ele><time>2021-05-01T13:16:54Z</time><name>PT1135</name></trkpt>
<trkpt lat="52.048658" lon="05.713499"><ele>27.5</ele><time>2021-05-01T13:16:56Z</time><name>PT1136</name></trkpt>
<trkpt lat="52.048660" lon="05.713502"><ele>27.5</ele><time>2021-05-01T13:16:56Z</time><name>PT1137</name></trkpt>
<trkpt lat="52.048666" lon="05.713506"><ele>27.4</ele><time>2021-05-01T13:16:58Z</time><name>PT1138</name></trkpt>
<trkpt lat="52.048672" lon="05.713512"><ele>27.4</ele><time>2021-05-01T13:16:58Z</time><name>PT1139</name></trkpt>
<trkpt lat="52.048684" lon="05.713521"><ele>27.5</ele><time>2021-05-01T13:17:00Z</time><name>PT1140</name></trkpt>
<trkpt lat="52.048699" lon="05.713529"><ele>27.6</ele><time>2021-05-01T13:17:00Z</time><name>PT1141</name></trkpt>
<trkpt lat="52.048710" lon="05.713528"><ele>27.6</ele><time>2021-05-01T13:17:02Z</time><name>PT1142</name></trkpt>
<trkpt lat="52.048720" lon="05.713531"><ele>27.7</ele><time>2021-05-01T13:17:02Z</time><name>PT1143</name></trkpt>
<trkpt lat="52.048729" lon="05.713540"><ele>27.7</ele><time>2021-05-01T13:17:04Z</time><name>PT1144</name></trkpt>
<trkpt lat="52.048738" lon="05.713549"><ele>27.8</ele><time>2021-05-01T13:17:05Z</time><name>PT1145</name></trkpt>
<trkpt lat="52.048747" lon="05.713559"><ele>28</ele><time>2021-05-01T13:17:05Z</time><name>PT1146</name></trkpt>
<trkpt lat="52.048761" lon="05.713569"><ele>27.9</ele><time>2021-05-01T13:17:07Z</time><name>PT1147</name></trkpt>
<trkpt lat="52.048774" lon="05.713575"><ele>27.9</ele><time>2021-05-01T13:17:08Z</time><name>PT1148</name></trkpt>
<trkpt lat="52.048783" lon="05.713583"><ele>27.7</ele><time>2021-05-01T13:17:09Z</time><name>PT1149</name></trkpt>
<trkpt lat="52.048792" lon="05.713592"><ele>27.7</ele><time>2021-05-01T13:17:10Z</time><name>PT1150</name></trkpt>
<trkpt lat="52.048803" lon="05.713604"><ele>27.5</ele><time>2021-05-01T13:17:11Z</time><name>PT1151</name></trkpt>
<trkpt lat="52.048809" lon="05.713612"><ele>27.5</ele><time>2021-05-01T13:17:12Z</time><name>PT1152</name></trkpt>
<trkpt lat="52.048814" lon="05.713621"><ele>27.3</ele><time>2021-05-01T13:17:13Z</time><name>PT1153</name></trkpt>
<trkpt lat="52.048821" lon="05.713631"><ele>27.2</ele><time>2021-05-01T13:17:14Z</time><name>PT1154</name></trkpt>
<trkpt lat="52.048831" lon="05.713642"><ele>27.1</ele><time>2021-05-01T13:17:15Z</time><name>PT1155</name></trkpt>
<trkpt lat="52.048842" lon="05.713652"><ele>26.9</ele><time>2021-05-01T13:17:15Z</time><name>PT1156</name></trkpt>
<trkpt lat="52.048855" lon="05.713667"><ele>26.8</ele><time>2021-05-01T13:17:17Z</time><name>PT1157</name></trkpt>
<trkpt lat="52.048866" lon="05.713681"><ele>26.9</ele><time>2021-05-01T13:17:17Z</time><name>PT1158</name></trkpt>
<trkpt lat="52.048877" lon="05.713683"><ele>26.8</ele><time>2021-05-01T13:17:19Z</time><name>PT1159</name></trkpt>
<trkpt lat="52.048887" lon="05.713700"><ele>26.7</ele><time>2021-05-01T13:17:19Z</time><name>PT1160</name></trkpt>
<trkpt lat="52.048897" lon="05.713725"><ele>26.7</ele><time>2021-05-01T13:17:21Z</time><name>PT1161</name></trkpt>
<trkpt lat="52.048908" lon="05.713743"><ele>26.7</ele><time>2021-05-01T13:17:21Z</time><name>PT1162</name></trkpt>
<trkpt lat="52.048922" lon="05.713758"><ele>26.4</ele><time>2021-05-01T13:17:23Z</time><name>PT1163</name></trkpt>
<trkpt lat="52.048934" lon="05.713776"><ele>26.4</ele><time>2021-05-01T13:17:23Z</time><name>PT1164</name></trkpt>
<trkpt lat="52.048945" lon="05.713791"><ele>26.3</ele><time>2021-05-01T13:17:25Z</time><name>PT1165</name></trkpt>
<trkpt lat="52.048955" lon="05.713803"><ele>26.3</ele><time>2021-05-01T13:17:25Z</time><name>PT1166</name></trkpt>
<trkpt lat="52.048964" lon="05.713811"><ele>26.5</ele><time>2021-05-01T13:17:27Z</time><name>PT1167</name></trkpt>
<trkpt lat="52.048973" lon="05.713814"><ele>26.3</ele><time>2021-05-01T13:17:27Z</time><name>PT1168</name></trkpt>
<trkpt lat="52.048984" lon="05.713813"><ele>26.1</ele><time>2021-05-01T13:17:29Z</time><name>PT1169</name></trkpt>
<trkpt lat="52.048994" lon="05.713818"><ele>25.9</ele><time>2021-05-01T13:17:29Z</time><name>PT1170</name></trkpt>
<trkpt lat="52.049004" lon="05.713823"><ele>25.8</ele><time>2021-05-01T13:17:31Z</time><name>PT1171</name></trkpt>
<trkpt lat="52.049011" lon="05.713839"><ele>25.7</ele><time>2021-05-01T13:17:31Z</time><name>PT1172</name></trkpt>
<trkpt lat="52.049016" lon="05.713848"><ele>25.8</ele><time>2021-05-01T13:17:33Z</time><name>PT1173</name></trkpt>
<trkpt lat="52.049023" lon="05.713855"><ele>25.8</ele><time>2021-05-01T13:17:33Z</time><name>PT1174</name></trkpt>
<trkpt lat="52.049033" lon="05.713866"><ele>25.7</ele><time>2021-05-01T13:17:35Z</time><name>PT1175</name></trkpt>
<trkpt lat="52.049040" lon="05.713879"><ele>25.6</ele><time>2021-05-01T13:17:35Z</time><name>PT1176</name></trkpt>
<trkpt lat="52.049044" lon="05.713891"><ele>25.6</ele><time>2021-05-01T13:17:37Z</time><name>PT1177</name></trkpt>
<trkpt lat="52.049048" lon="05.713911"><ele>25.6</ele><time>2021-05-01T13:17:37Z</time><name>PT1178</name></trkpt>
<trkpt lat="52.049061" lon="05.713928"><ele>25.6</ele><time>2021-05-01T13:17:39Z</time><name>PT1179</name></trkpt>
<trkpt lat="52.049073" lon="05.713948"><ele>25.5</ele><time>2021-05-01T13:17:39Z</time><name>PT1180</name></trkpt>
<trkpt lat="52.049080" lon="05.713972"><ele>25.4</ele><time>2021-05-01T13:17:41Z</time><name>PT1181</name></trkpt>
<trkpt lat="52.049086" lon="05.713985"><ele>25.4</ele><time>2021-05-01T13:17:41Z</time><name>PT1182</name></trkpt>
<trkpt lat="52.049085" lon="05.713989"><ele>25.3</ele><time>2021-05-01T13:17:43Z</time><name>PT1183</name></trkpt>
<trkpt lat="52.049084" lon="05.713992"><ele>25.1</ele><time>2021-05-01T13:17:43Z</time><name>PT1184</name></trkpt>
<trkpt lat="52.049089" lon="05.714000"><ele>25.2</ele><time>2021-05-01T13:17:45Z</time><name>PT1185</name></trkpt>
<trkpt lat="52.049092" lon="05.714016"><ele>25.3</ele><time>2021-05-01T13:17:45Z</time><name>PT1186</name></trkpt>
<trkpt lat="52.049095" lon="05.714028"><ele>25.4</ele><time>2021-05-01T13:17:47Z</time><name>PT1187</name></trkpt>
<trkpt lat="52.049095" lon="05.714046"><ele>25.3</ele><time>2021-05-01T13:17:47Z</time><name>PT1188</name></trkpt>
<trkpt lat="52.049101" lon="05.714065"><ele>25.4</ele><time>2021-05-01T13:17:49Z</time><name>PT1189</name></trkpt>
<trkpt lat="52.049112" lon="05.714083"><ele>25.3</ele><time>2021-05-01T13:17:49Z</time><name>PT1190</name></trkpt>
<trkpt lat="52.049115" lon="05.714098"><ele>25.3</ele><time>2021-05-01T13:17:51Z</time><name>PT1191</name></trkpt>
<trkpt lat="52.049123" lon="05.714114"><ele>25.3</ele><time>2021-05-01T13:17:51Z</time><name>PT1192</name></trkpt>
<trkpt lat="52.049129" lon="05.714130"><ele>25.4</ele><time>2021-05-01T13:17:53Z</time><name>PT1193</name></trkpt>
<trkpt lat="52.049134" lon="05.714151"><ele>25.3</ele><time>2021-05-01T13:17:53Z</time><name>PT1194</name></trkpt>
<trkpt lat="52.049135" lon="05.714167"><ele>25.3</ele><time>2021-05-01T13:17:55Z</time><name>PT1195</name></trkpt>
<trkpt lat="52.049138" lon="05.714175"><ele>25.2</ele><time>2021-05-01T13:17:55Z</time><name>PT1196</name></trkpt>
<trkpt lat="52.049141" lon="05.714185"><ele>25.1</ele><time>2021-05-01T13:17:57Z</time><name>PT1197</name></trkpt>
<trkpt lat="52.049145" lon="05.714195"><ele>25.2</ele><time>2021-05-01T13:17:57Z</time><name>PT1198</name></trkpt>
<trkpt lat="52.049149" lon="05.714203"><ele>25</ele><time>2021-05-01T13:17:59Z</time><name>PT1199</name></trkpt>
<trkpt lat="52.049151" lon="05.714206"><ele>25.2</ele><time>2021-05-01T13:17:59Z</time><name>PT1200</name></trkpt>
<trkpt lat="52.049152" lon="05.714207"><ele>25.3</ele><time>2021-05-01T13:18:01Z</time><name>PT1201</name></trkpt>
<trkpt lat="52.049155" lon="05.714205"><ele>25.3</ele><time>2021-05-01T13:18:01Z</time><name>PT1202</name></trkpt>
<trkpt lat="52.049152" lon="05.714208"><ele>25.3</ele><time>2021-05-01T13:18:04Z</time><name>PT1203</name></trkpt>
<trkpt lat="52.049152" lon="05.714230"><ele>25.1</ele><time>2021-05-01T13:18:04Z</time><name>PT1204</name></trkpt>
<trkpt lat="52.049167" lon="05.714253"><ele>25</ele><time>2021-05-01T13:18:06Z</time><name>PT1205</name></trkpt>
<trkpt lat="52.049182" lon="05.714282"><ele>25.1</ele><time>2021-05-01T13:18:06Z</time><name>PT1206</name></trkpt>
<trkpt lat="52.049198" lon="05.714304"><ele>24.9</ele><time>2021-05-01T13:18:08Z</time><name>PT1207</name></trkpt>
<trkpt lat="52.049211" lon="05.714331"><ele>24.9</ele><time>2021-05-01T13:18:08Z</time><name>PT1208</name></trkpt>
<trkpt lat="52.049226" lon="05.714346"><ele>24.9</ele><time>2021-05-01T13:18:10Z</time><name>PT1209</name></trkpt>
<trkpt lat="52.049237" lon="05.714356"><ele>24.8</ele><time>2021-05-01T13:18:10Z</time><name>PT1210</name></trkpt>
<trkpt lat="52.049240" lon="05.714365"><ele>24.8</ele><time>2021-05-01T13:18:12Z</time><name>PT1211</name></trkpt>
<trkpt lat="52.049245" lon="05.714371"><ele>24.8</ele><time>2021-05-01T13:18:12Z</time><name>PT1212</name></trkpt>
<trkpt lat="52.049252" lon="05.714381"><ele>24.7</ele><time>2021-05-01T13:18:14Z</time><name>PT1213</name></trkpt>
<trkpt lat="52.049259" lon="05.714391"><ele>24.6</ele><time>2021-05-01T13:18:14Z</time><name>PT1214</name></trkpt>
<trkpt lat="52.049264" lon="05.714400"><ele>24.6</ele><time>2021-05-01T13:18:16Z</time><name>PT1215</name></trkpt>
<trkpt lat="52.049267" lon="05.714420"><ele>24.3</ele><time>2021-05-01T13:18:17Z</time><name>PT1216</name></trkpt>
<trkpt lat="52.049268" lon="05.714443"><ele>24.4</ele><time>2021-05-01T13:18:17Z</time><name>PT1217</name></trkpt>
<trkpt lat="52.049271" lon="05.714465"><ele>24.5</ele><time>2021-05-01T13:18:19Z</time><name>PT1218</name></trkpt>
<trkpt lat="52.049270" lon="05.714489"><ele>24.6</ele><time>2021-05-01T13:18:20Z</time><name>PT1219</name></trkpt>
<trkpt lat="52.049270" lon="05.714511"><ele>24.6</ele><time>2021-05-01T13:18:21Z</time><name>PT1220</name></trkpt>
<trkpt lat="52.049270" lon="05.714527"><ele>24.7</ele><time>2021-05-01T13:18:22Z</time><name>PT1221</name></trkpt>
<trkpt lat="52.049271" lon="05.714535"><ele>24.4</ele><time>2021-05-01T13:18:23Z</time><name>PT1222</name></trkpt>
<trkpt lat="52.049275" lon="05.714543"><ele>24.4</ele><time>2021-05-01T13:18:24Z</time><name>PT1223</name></trkpt>
<trkpt lat="52.049280" lon="05.714549"><ele>24.5</ele><time>2021-05-01T13:18:25Z</time><name>PT1224</name></trkpt>
<trkpt lat="52.049284" lon="05.714565"><ele>24.5</ele><time>2021-05-01T13:18:25Z</time><name>PT1225</name></trkpt>
<trkpt lat="52.049289" lon="05.714589"><ele>24.3</ele><time>2021-05-01T13:18:27Z</time><name>PT1226</name></trkpt>
<trkpt lat="52.049294" lon="05.714614"><ele>24.5</ele><time>2021-05-01T13:18:27Z</time><name>PT1227</name></trkpt>
<trkpt lat="52.049294" lon="05.714639"><ele>24.4</ele><time>2021-05-01T13:18:29Z</time><name>PT1228</name></trkpt>
<trkpt lat="52.049301" lon="05.714659"><ele>24.3</ele><time>2021-05-01T13:18:29Z</time><name>PT1229</name></trkpt>
<trkpt lat="52.049308" lon="05.714674"><ele>24.5</ele><time>2021-05-01T13:18:31Z</time><name>PT1230</name></trkpt>
<trkpt lat="52.049310" lon="05.714681"><ele>24.4</ele><time>2021-05-01T13:18:31Z</time><name>PT1231</name></trkpt>
<trkpt lat="52.049310" lon="05.714686"><ele>24.3</ele><time>2021-05-01T13:18:33Z</time><name>PT1232</name></trkpt>
<trkpt lat="52.049311" lon="05.714689"><ele>24.5</ele><time>2021-05-01T13:18:33Z</time><name>PT1233</name></trkpt>
<trkpt lat="52.049315" lon="05.714708"><ele>24.5</ele><time>2021-05-01T13:18:35Z</time><name>PT1234</name></trkpt>
<trkpt lat="52.049318" lon="05.714733"><ele>24.5</ele><time>2021-05-01T13:18:37Z</time><name>PT1235</name></trkpt>
<trkpt lat="52.049319" lon="05.714765"><ele>24.6</ele><time>2021-05-01T13:18:37Z</time><name>PT1236</name></trkpt>
<trkpt lat="52.049332" lon="05.714802"><ele>24.4</ele><time>2021-05-01T13:18:39Z</time><name>PT1237</name></trkpt>
<trkpt lat="52.049341" lon="05.714836"><ele>24.3</ele><time>2021-05-01T13:18:39Z</time><name>PT1238</name></trkpt>
<trkpt lat="52.049346" lon="05.714856"><ele>24.4</ele><time>2021-05-01T13:18:41Z</time><name>PT1239</name></trkpt>
<trkpt lat="52.049352" lon="05.714872"><ele>24.4</ele><time>2021-05-01T13:18:41Z</time><name>PT1240</name></trkpt>
<trkpt lat="52.049357" lon="05.714887"><ele>24.5</ele><time>2021-05-01T13:18:43Z</time><name>PT1241</name></trkpt>
<trkpt lat="52.049361" lon="05.714902"><ele>24.7</ele><time>2021-05-01T13:18:43Z</time><name>PT1242</name></trkpt>
<trkpt lat="52.049368" lon="05.714917"><ele>25.1</ele><time>2021-05-01T13:18:45Z</time><name>PT1243</name></trkpt>
<trkpt lat="52.049376" lon="05.714943"><ele>25</ele><time>2021-05-01T13:18:45Z</time><name>PT1244</name></trkpt>
<trkpt lat="52.049382" lon="05.714969"><ele>25.1</ele><time>2021-05-01T13:18:47Z</time><name>PT1245</name></trkpt>
<trkpt lat="52.049392" lon="05.714989"><ele>25</ele><time>2021-05-01T13:18:47Z</time><name>PT1246</name></trkpt>
<trkpt lat="52.049401" lon="05.715011"><ele>24.8</ele><time>2021-05-01T13:18:49Z</time><name>PT1247</name></trkpt>
<trkpt lat="52.049408" lon="05.715026"><ele>24.7</ele><time>2021-05-01T13:18:49Z</time><name>PT1248</name></trkpt>
<trkpt lat="52.049413" lon="05.715032"><ele>24.5</ele><time>2021-05-01T13:18:51Z</time><name>PT1249</name></trkpt>
<trkpt lat="52.049418" lon="05.715039"><ele>24.5</ele><time>2021-05-01T13:18:51Z</time><name>PT1250</name></trkpt>
<trkpt lat="52.049423" lon="05.715050"><ele>24.6</ele><time>2021-05-01T13:18:53Z</time><name>PT1251</name></trkpt>
<trkpt lat="52.049430" lon="05.715066"><ele>24.5</ele><time>2021-05-01T13:18:53Z</time><name>PT1252</name></trkpt>
<trkpt lat="52.049436" lon="05.715086"><ele>24.7</ele><time>2021-05-01T13:18:55Z</time><name>PT1253</name></trkpt>
<trkpt lat="52.049439" lon="05.715099"><ele>24.8</ele><time>2021-05-01T13:18:55Z</time><name>PT1254</name></trkpt>
<trkpt lat="52.049445" lon="05.715108"><ele>24.7</ele><time>2021-05-01T13:18:57Z</time><name>PT1255</name></trkpt>
<trkpt lat="52.049450" lon="05.715115"><ele>24.7</ele><time>2021-05-01T13:18:57Z</time><name>PT1256</name></trkpt>
<trkpt lat="52.049452" lon="05.715121"><ele>24.6</ele><time>2021-05-01T13:18:59Z</time><name>PT1257</name></trkpt>
<trkpt lat="52.049458" lon="05.715139"><ele>24.5</ele><time>2021-05-01T13:19:00Z</time><name>PT1258</name></trkpt>
<trkpt lat="52.049466" lon="05.715166"><ele>24.5</ele><time>2021-05-01T13:19:00Z</time><name>PT1259</name></trkpt>
<trkpt lat="52.049478" lon="05.715196"><ele>24.5</ele><time>2021-05-01T13:19:02Z</time><name>PT1260</name></trkpt>
<trkpt lat="52.049481" lon="05.715213"><ele>24.5</ele><time>2021-05-01T13:19:02Z</time><name>PT1261</name></trkpt>
<trkpt lat="52.049482" lon="05.715234"><ele>24.5</ele><time>2021-05-01T13:19:04Z</time><name>PT1262</name></trkpt>
<trkpt lat="52.049489" lon="05.715251"><ele>24.4</ele><time>2021-05-01T13:19:04Z</time><name>PT1263</name></trkpt>
<trkpt lat="52.049494" lon="05.715260"><ele>24.4</ele><time>2021-05-01T13:19:06Z</time><name>PT1264</name></trkpt>
<trkpt lat="52.049498" lon="05.715268"><ele>24.6</ele><time>2021-05-01T13:19:06Z</time><name>PT1265</name></trkpt>
<trkpt lat="52.049502" lon="05.715275"><ele>24.7</ele><time>2021-05-01T13:19:08Z</time><name>PT1266</name></trkpt>
<trkpt lat="52.049509" lon="05.715285"><ele>24.7</ele><time>2021-05-01T13:19:09Z</time><name>PT1267</name></trkpt>
<trkpt lat="52.049519" lon="05.715309"><ele>24.5</ele><time>2021-05-01T13:19:11Z</time><name>PT1268</name></trkpt>
<trkpt lat="52.049529" lon="05.715335"><ele>24.7</ele><time>2021-05-01T13:19:13Z</time><name>PT1269</name></trkpt>
<trkpt lat="52.049540" lon="05.715354"><ele>24.5</ele><time>2021-05-01T13:19:13Z</time><name>PT1270</name></trkpt>
<trkpt lat="52.049546" lon="05.715369"><ele>24.6</ele><time>2021-05-01T13:19:15Z</time><name>PT1271</name></trkpt>
<trkpt lat="52.049551" lon="05.715383"><ele>24.7</ele><time>2021-05-01T13:19:15Z</time><name>PT1272</name></trkpt>
<trkpt lat="52.049557" lon="05.715389"><ele>24.5</ele><time>2021-05-01T13:19:17Z</time><name>PT1273</name></trkpt>
<trkpt lat="52.049565" lon="05.715403"><ele>24.6</ele><time>2021-05-01T13:19:18Z</time><name>PT1274</name></trkpt>
<trkpt lat="52.049571" lon="05.715418"><ele>24.8</ele><time>2021-05-01T13:19:19Z</time><name>PT1275</name></trkpt>
<trkpt lat="52.049576" lon="05.715436"><ele>24.7</ele><time>2021-05-01T13:19:20Z</time><name>PT1276</name></trkpt>
<trkpt lat="52.049584" lon="05.715463"><ele>24.6</ele><time>2021-05-01T13:19:21Z</time><name>PT1277</name></trkpt>
<trkpt lat="52.049598" lon="05.715493"><ele>24.6</ele><time>2021-05-01T13:19:22Z</time><name>PT1278</name></trkpt>
<trkpt lat="52.049606" lon="05.715511"><ele>24.4</ele><time>2021-05-01T13:19:23Z</time><name>PT1279</name></trkpt>
<trkpt lat="52.049614" lon="05.715533"><ele>24.4</ele><time>2021-05-01T13:19:23Z</time><name>PT1280</name></trkpt>
<trkpt lat="52.049620" lon="05.715552"><ele>24.5</ele><time>2021-05-01T13:19:25Z</time><name>PT1281</name></trkpt>
<trkpt lat="52.049624" lon="05.715562"><ele>24.5</ele><time>2021-05-01T13:19:25Z</time><name>PT1282</name></trkpt>
<trkpt lat="52.049627" lon="05.715565"><ele>24.5</ele><time>2021-05-01T13:19:27Z</time><name>PT1283</name></trkpt>
<trkpt lat="52.049631" lon="05.715573"><ele>24.3</ele><time>2021-05-01T13:19:27Z</time><name>PT1284</name></trkpt>
<trkpt lat="52.049634" lon="05.715581"><ele>24.3</ele><time>2021-05-01T13:19:29Z</time><name>PT1285</name></trkpt>
<trkpt lat="52.049637" lon="05.715578"><ele>24.3</ele><time>2021-05-01T13:19:29Z</time><name>PT1286</name></trkpt>
<trkpt lat="52.049643" lon="05.715595"><ele>24.3</ele><time>2021-05-01T13:19:31Z</time><name>PT1287</name></trkpt>
<trkpt lat="52.049653" lon="05.715612"><ele>24.3</ele><time>2021-05-01T13:19:31Z</time><name>PT1288</name></trkpt>
<trkpt lat="52.049661" lon="05.715634"><ele>24.3</ele><time>2021-05-01T13:19:33Z</time><name>PT1289</name></trkpt>
<trkpt lat="52.049668" lon="05.715656"><ele>24.4</ele><time>2021-05-01T13:19:33Z</time><name>PT1290</name></trkpt>
<trkpt lat="52.049673" lon="05.715677"><ele>24.4</ele><time>2021-05-01T13:19:35Z</time><name>PT1291</name></trkpt>
<trkpt lat="52.049677" lon="05.715697"><ele>24.4</ele><time>2021-05-01T13:19:35Z</time><name>PT1292</name></trkpt>
<trkpt lat="52.049679" lon="05.715715"><ele>24.4</ele><time>2021-05-01T13:19:37Z</time><name>PT1293</name></trkpt>
<trkpt lat="52.049685" lon="05.715727"><ele>24.4</ele><time>2021-05-01T13:19:37Z</time><name>PT1294</name></trkpt>
<trkpt lat="52.049691" lon="05.715741"><ele>24.4</ele><time>2021-05-01T13:19:39Z</time><name>PT1295</name></trkpt>
<trkpt lat="52.049695" lon="05.715770"><ele>24.4</ele><time>2021-05-01T13:19:39Z</time><name>PT1296</name></trkpt>
<trkpt lat="52.049700" lon="05.715798"><ele>24.5</ele><time>2021-05-01T13:19:41Z</time><name>PT1297</name></trkpt>
<trkpt lat="52.049702" lon="05.715828"><ele>24.5</ele><time>2021-05-01T13:19:41Z</time><name>PT1298</name></trkpt>
<trkpt lat="52.049703" lon="05.715855"><ele>24.4</ele><time>2021-05-01T13:19:43Z</time><name>PT1299</name></trkpt>
<trkpt lat="52.049707" lon="05.715877"><ele>24.3</ele><time>2021-05-01T13:19:43Z</time><name>PT1300</name></trkpt>
<trkpt lat="52.049713" lon="05.715903"><ele>24.3</ele><time>2021-05-01T13:19:45Z</time><name>PT1301</name></trkpt>
<trkpt lat="52.049715" lon="05.715918"><ele>24.3</ele><time>2021-05-01T13:19:45Z</time><name>PT1302</name></trkpt>
<trkpt lat="52.049717" lon="05.715928"><ele>24.3</ele><time>2021-05-01T13:19:47Z</time><name>PT1303</name></trkpt>
<trkpt lat="52.049721" lon="05.715934"><ele>24.4</ele><time>2021-05-01T13:19:47Z</time><name>PT1304</name></trkpt>
<trkpt lat="52.049726" lon="05.715941"><ele>24.4</ele><time>2021-05-01T13:19:49Z</time><name>PT1305</name></trkpt>
<trkpt lat="52.049729" lon="05.715954"><ele>24.3</ele><time>2021-05-01T13:19:49Z</time><name>PT1306</name></trkpt>
<trkpt lat="52.049732" lon="05.715977"><ele>24.5</ele><time>2021-05-01T13:19:51Z</time><name>PT1307</name></trkpt>
<trkpt lat="52.049738" lon="05.715996"><ele>24.5</ele><time>2021-05-01T13:19:51Z</time><name>PT1308</name></trkpt>
<trkpt lat="52.049741" lon="05.716008"><ele>24.5</ele><time>2021-05-01T13:19:53Z</time><name>PT1309</name></trkpt>
<trkpt lat="52.049750" lon="05.716026"><ele>24.5</ele><time>2021-05-01T13:19:53Z</time><name>PT1310</name></trkpt>
<trkpt lat="52.049758" lon="05.716041"><ele>24.5</ele><time>2021-05-01T13:19:55Z</time><name>PT1311</name></trkpt>
<trkpt lat="52.049764" lon="05.716058"><ele>24.7</ele><time>2021-05-01T13:19:55Z</time><name>PT1312</name></trkpt>
<trkpt lat="52.049770" lon="05.716080"><ele>24.8</ele><time>2021-05-01T13:19:57Z</time><name>PT1313</name></trkpt>
<trkpt lat="52.049779" lon="05.716099"><ele>24.9</ele><time>2021-05-01T13:19:57Z</time><name>PT1314</name></trkpt>
<trkpt lat="52.049784" lon="05.716116"><ele>25</ele><time>2021-05-01T13:19:59Z</time><name>PT1315</name></trkpt>
<trkpt lat="52.049787" lon="05.716134"><ele>24.9</ele><time>2021-05-01T13:20:00Z</time><name>PT1316</name></trkpt>
<trkpt lat="52.049792" lon="05.716152"><ele>24.8</ele><time>2021-05-01T13:20:00Z</time><name>PT1317</name></trkpt>
<trkpt lat="52.049798" lon="05.716168"><ele>24.5</ele><time>2021-05-01T13:20:02Z</time><name>PT1318</name></trkpt>
<trkpt lat="52.049802" lon="05.716180"><ele>24.5</ele><time>2021-05-01T13:20:02Z</time><name>PT1319</name></trkpt>
<trkpt lat="52.049806" lon="05.716192"><ele>24.4</ele><time>2021-05-01T13:20:04Z</time><name>PT1320</name></trkpt>
<trkpt lat="52.049813" lon="05.716206"><ele>24.3</ele><time>2021-05-01T13:20:05Z</time><name>PT1321</name></trkpt>
<trkpt lat="52.049819" lon="05.716217"><ele>24.3</ele><time>2021-05-01T13:20:05Z</time><name>PT1322</name></trkpt>
<trkpt lat="52.049821" lon="05.716230"><ele>24.3</ele><time>2021-05-01T13:20:07Z</time><name>PT1323</name></trkpt>
<trkpt lat="52.049827" lon="05.716244"><ele>24.3</ele><time>2021-05-01T13:20:07Z</time><name>PT1324</name></trkpt>
<trkpt lat="52.049829" lon="05.716264"><ele>24.3</ele><time>2021-05-01T13:20:09Z</time><name>PT1325</name></trkpt>
<trkpt lat="52.049832" lon="05.716279"><ele>24.1</ele><time>2021-05-01T13:20:10Z</time><name>PT1326</name></trkpt>
<trkpt lat="52.049835" lon="05.716295"><ele>24</ele><time>2021-05-01T13:20:10Z</time><name>PT1327</name></trkpt>
<trkpt lat="52.049839" lon="05.716306"><ele>23.8</ele><time>2021-05-01T13:20:12Z</time><name>PT1328</name></trkpt>
<trkpt lat="52.049844" lon="05.716317"><ele>23.9</ele><time>2021-05-01T13:20:12Z</time><name>PT1329</name></trkpt>
<trkpt lat="52.049850" lon="05.716329"><ele>24.1</ele><time>2021-05-01T13:20:14Z</time><name>PT1330</name></trkpt>
<trkpt lat="52.049854" lon="05.716339"><ele>24.3</ele><time>2021-05-01T13:20:14Z</time><name>PT1331</name></trkpt>
<trkpt lat="52.049858" lon="05.716352"><ele>24.5</ele><time>2021-05-01T13:20:16Z</time><name>PT1332</name></trkpt>
<trkpt lat="52.049862" lon="05.716379"><ele>24.6</ele><time>2021-05-01T13:20:16Z</time><name>PT1333</name></trkpt>
<trkpt lat="52.049866" lon="05.716405"><ele>24.4</ele><time>2021-05-01T13:20:18Z</time><name>PT1334</name></trkpt>
<trkpt lat="52.049869" lon="05.716428"><ele>24.3</ele><time>2021-05-01T13:20:18Z</time><name>PT1335</name></trkpt>
<trkpt lat="52.049865" lon="05.716453"><ele>24.2</ele><time>2021-05-01T13:20:20Z</time><name>PT1336</name></trkpt>
<trkpt lat="52.049863" lon="05.716472"><ele>24.2</ele><time>2021-05-01T13:20:20Z</time><name>PT1337</name></trkpt>
<trkpt lat="52.049863" lon="05.716489"><ele>24.2</ele><time>2021-05-01T13:20:22Z</time><name>PT1338</name></trkpt>
<trkpt lat="52.049862" lon="05.716495"><ele>24.1</ele><time>2021-05-01T13:20:23Z</time><name>PT1339</name></trkpt>
<trkpt lat="52.049870" lon="05.716493"><ele>24</ele><time>2021-05-01T13:20:24Z</time><name>PT1340</name></trkpt>
<trkpt lat="52.049876" lon="05.716499"><ele>24</ele><time>2021-05-01T13:20:25Z</time><name>PT1341</name></trkpt>
<trkpt lat="52.049878" lon="05.716509"><ele>23.9</ele><time>2021-05-01T13:20:26Z</time><name>PT1342</name></trkpt>
<trkpt lat="52.049893" lon="05.716525"><ele>23.8</ele><time>2021-05-01T13:20:27Z</time><name>PT1343</name></trkpt>
<trkpt lat="52.049905" lon="05.716542"><ele>23.9</ele><time>2021-05-01T13:20:28Z</time><name>PT1344</name></trkpt>
<trkpt lat="52.049912" lon="05.716556"><ele>24</ele><time>2021-05-01T13:20:29Z</time><name>PT1345</name></trkpt>
<trkpt lat="52.049916" lon="05.716562"><ele>24.1</ele><time>2021-05-01T13:20:30Z</time><name>PT1346</name></trkpt>
<trkpt lat="52.049921" lon="05.716576"><ele>24.1</ele><time>2021-05-01T13:20:30Z</time><name>PT1347</name></trkpt>
<trkpt lat="52.049921" lon="05.716590"><ele>24.1</ele><time>2021-05-01T13:20:32Z</time><name>PT1348</name></trkpt>
<trkpt lat="52.049924" lon="05.716599"><ele>24</ele><time>2021-05-01T13:20:32Z</time><name>PT1349</name></trkpt>
<trkpt lat="52.049925" lon="05.716609"><ele>24</ele><time>2021-05-01T13:20:34Z</time><name>PT1350</name></trkpt>
<trkpt lat="52.049925" lon="05.716617"><ele>24.1</ele><time>2021-05-01T13:20:34Z</time><name>PT1351</name></trkpt>
<trkpt lat="52.049930" lon="05.716631"><ele>24.1</ele><time>2021-05-01T13:20:36Z</time><name>PT1352</name></trkpt>
<trkpt lat="52.049935" lon="05.716643"><ele>24.1</ele><time>2021-05-01T13:20:36Z</time><name>PT1353</name></trkpt>
<trkpt lat="52.049943" lon="05.716662"><ele>24.2</ele><time>2021-05-01T13:20:38Z</time><name>PT1354</name></trkpt>
<trkpt lat="52.049955" lon="05.716683"><ele>24.1</ele><time>2021-05-01T13:20:38Z</time><name>PT1355</name></trkpt>
<trkpt lat="52.049965" lon="05.716702"><ele>24.1</ele><time>2021-05-01T13:20:40Z</time><name>PT1356</name></trkpt>
<trkpt lat="52.049974" lon="05.716727"><ele>24</ele><time>2021-05-01T13:20:40Z</time><name>PT1357</name></trkpt>
<trkpt lat="52.049981" lon="05.716750"><ele>24</ele><time>2021-05-01T13:20:42Z</time><name>PT1358</name></trkpt>
<trkpt lat="52.049988" lon="05.716771"><ele>24</ele><time>2021-05-01T13:20:42Z</time><name>PT1359</name></trkpt>
<trkpt lat="52.049993" lon="05.716787"><ele>23.8</ele><time>2021-05-01T13:20:44Z</time><name>PT1360</name></trkpt>
<trkpt lat="52.049997" lon="05.716799"><ele>23.8</ele><time>2021-05-01T13:20:44Z</time><name>PT1361</name></trkpt>
<trkpt lat="52.050001" lon="05.716807"><ele>23.9</ele><time>2021-05-01T13:20:46Z</time><name>PT1362</name></trkpt>
<trkpt lat="52.050001" lon="05.716813"><ele>24</ele><time>2021-05-01T13:20:46Z</time><name>PT1363</name></trkpt>
<trkpt lat="52.050006" lon="05.716831"><ele>23.8</ele><time>2021-05-01T13:20:48Z</time><name>PT1364</name></trkpt>
<trkpt lat="52.050014" lon="05.716845"><ele>24</ele><time>2021-05-01T13:20:48Z</time><name>PT1365</name></trkpt>
<trkpt lat="52.050020" lon="05.716868"><ele>23.9</ele><time>2021-05-01T13:20:50Z</time><name>PT1366</name></trkpt>
<trkpt lat="52.050021" lon="05.716897"><ele>23.9</ele><time>2021-05-01T13:20:50Z</time><name>PT1367</name></trkpt>
<trkpt lat="52.050024" lon="05.716917"><ele>23.9</ele><time>2021-05-01T13:20:52Z</time><name>PT1368</name></trkpt>
<trkpt lat="52.050023" lon="05.716931"><ele>24</ele><time>2021-05-01T13:20:52Z</time><name>PT1369</name></trkpt>
<trkpt lat="52.050028" lon="05.716948"><ele>23.8</ele><time>2021-05-01T13:20:54Z</time><name>PT1370</name></trkpt>
<trkpt lat="52.050029" lon="05.716961"><ele>23.8</ele><time>2021-05-01T13:20:54Z</time><name>PT1371</name></trkpt>
<trkpt lat="52.050034" lon="05.716972"><ele>23.5</ele><time>2021-05-01T13:20:56Z</time><name>PT1372</name></trkpt>
<trkpt lat="52.050031" lon="05.716981"><ele>23.7</ele><time>2021-05-01T13:20:56Z</time><name>PT1373</name></trkpt>
<trkpt lat="52.050037" lon="05.716999"><ele>23.7</ele><time>2021-05-01T13:20:58Z</time><name>PT1374</name></trkpt>
<trkpt lat="52.050044" lon="05.717016"><ele>23.6</ele><time>2021-05-01T13:20:58Z</time><name>PT1375</name></trkpt>
<trkpt lat="52.050045" lon="05.717036"><ele>23.8</ele><time>2021-05-01T13:21:00Z</time><name>PT1376</name></trkpt>
<trkpt lat="52.050047" lon="05.717048"><ele>24.1</ele><time>2021-05-01T13:21:00Z</time><name>PT1377</name></trkpt>
<trkpt lat="52.050053" lon="05.717062"><ele>24.1</ele><time>2021-05-01T13:21:02Z</time><name>PT1378</name></trkpt>
<trkpt lat="52.050061" lon="05.717077"><ele>24.1</ele><time>2021-05-01T13:21:02Z</time><name>PT1379</name></trkpt>
<trkpt lat="52.050071" lon="05.717089"><ele>24.2</ele><time>2021-05-01T13:21:04Z</time><name>PT1380</name></trkpt>
<trkpt lat="52.050075" lon="05.717105"><ele>24</ele><time>2021-05-01T13:21:04Z</time><name>PT1381</name></trkpt>
<trkpt lat="52.050087" lon="05.717125"><ele>23.9</ele><time>2021-05-01T13:21:06Z</time><name>PT1382</name></trkpt>
<trkpt lat="52.050099" lon="05.717147"><ele>23.8</ele><time>2021-05-01T13:21:06Z</time><name>PT1383</name></trkpt>
<trkpt lat="52.050108" lon="05.717178"><ele>23.7</ele><time>2021-05-01T13:21:08Z</time><name>PT1384</name></trkpt>
<trkpt lat="52.050117" lon="05.717204"><ele>23.8</ele><time>2021-05-01T13:21:08Z</time><name>PT1385</name></trkpt>
<trkpt lat="52.050122" lon="05.717231"><ele>24</ele><time>2021-05-01T13:21:10Z</time><name>PT1386</name></trkpt>
<trkpt lat="52.050124" lon="05.717252"><ele>23.9</ele><time>2021-05-01T13:21:10Z</time><name>PT1387</name></trkpt>
<trkpt lat="52.050130" lon="05.717268"><ele>24</ele><time>2021-05-01T13:21:12Z</time><name>PT1388</name></trkpt>
<trkpt lat="52.050139" lon="05.717276"><ele>24.1</ele><time>2021-05-01T13:21:12Z</time><name>PT1389</name></trkpt>
<trkpt lat="52.050150" lon="05.717290"><ele>24.1</ele><time>2021-05-01T13:21:14Z</time><name>PT1390</name></trkpt>
<trkpt lat="52.050158" lon="05.717300"><ele>23.9</ele><time>2021-05-01T13:21:14Z</time><name>PT1391</name></trkpt>
<trkpt lat="52.050164" lon="05.717309"><ele>24</ele><time>2021-05-01T13:21:16Z</time><name>PT1392</name></trkpt>
<trkpt lat="52.050165" lon="05.717323"><ele>23.8</ele><time>2021-05-01T13:21:16Z</time><name>PT1393</name></trkpt>
<trkpt lat="52.050169" lon="05.717331"><ele>23.8</ele><time>2021-05-01T13:21:18Z</time><name>PT1394</name></trkpt>
<trkpt lat="52.050177" lon="05.717338"><ele>23.7</ele><time>2021-05-01T13:21:18Z</time><name>PT1395</name></trkpt>
<trkpt lat="52.050181" lon="05.717343"><ele>23.8</ele><time>2021-05-01T13:21:20Z</time><name>PT1396</name></trkpt>
<trkpt lat="52.050180" lon="05.717348"><ele>23.9</ele><time>2021-05-01T13:21:20Z</time><name>PT1397</name></trkpt>
<trkpt lat="52.050184" lon="05.717350"><ele>24</ele><time>2021-05-01T13:21:22Z</time><name>PT1398</name></trkpt>
<trkpt lat="52.050191" lon="05.717362"><ele>24.1</ele><time>2021-05-01T13:21:23Z</time><name>PT1399</name></trkpt>
<trkpt lat="52.050193" lon="05.717376"><ele>24.1</ele><time>2021-05-01T13:21:23Z</time><name>PT1400</name></trkpt>
<trkpt lat="52.050196" lon="05.717387"><ele>24.1</ele><time>2021-05-01T13:21:25Z</time><name>PT1401</name></trkpt>
<trkpt lat="52.050200" lon="05.717388"><ele>24.2</ele><time>2021-05-01T13:21:25Z</time><name>PT1402</name></trkpt>
<trkpt lat="52.050212" lon="05.717402"><ele>24.1</ele><time>2021-05-01T13:21:27Z</time><name>PT1403</name></trkpt>
<trkpt lat="52.050222" lon="05.717417"><ele>24.3</ele><time>2021-05-01T13:21:27Z</time><name>PT1404</name></trkpt>
<trkpt lat="52.050233" lon="05.717442"><ele>24</ele><time>2021-05-01T13:21:29Z</time><name>PT1405</name></trkpt>
<trkpt lat="52.050239" lon="05.717474"><ele>24</ele><time>2021-05-01T13:21:29Z</time><name>PT1406</name></trkpt>
<trkpt lat="52.050242" lon="05.717497"><ele>23.9</ele><time>2021-05-01T13:21:31Z</time><name>PT1407</name></trkpt>
<trkpt lat="52.050249" lon="05.717518"><ele>23.8</ele><time>2021-05-01T13:21:31Z</time><name>PT1408</name></trkpt>
<trkpt lat="52.050255" lon="05.717540"><ele>24</ele><time>2021-05-01T13:21:33Z</time><name>PT1409</name></trkpt>
<trkpt lat="52.050264" lon="05.717558"><ele>24.2</ele><time>2021-05-01T13:21:33Z</time><name>PT1410</name></trkpt>
<trkpt lat="52.050274" lon="05.717572"><ele>24.3</ele><time>2021-05-01T13:21:35Z</time><name>PT1411</name></trkpt>
<trkpt lat="52.050284" lon="05.717585"><ele>24.3</ele><time>2021-05-01T13:21:35Z</time><name>PT1412</name></trkpt>
<trkpt lat="52.050291" lon="05.717606"><ele>24.3</ele><time>2021-05-01T13:21:37Z</time><name>PT1413</name></trkpt>
<trkpt lat="52.050303" lon="05.717631"><ele>24.1</ele><time>2021-05-01T13:21:37Z</time><name>PT1414</name></trkpt>
<trkpt lat="52.050320" lon="05.717653"><ele>24</ele><time>2021-05-01T13:21:39Z</time><name>PT1415</name></trkpt>
<trkpt lat="52.050328" lon="05.717669"><ele>23.9</ele><time>2021-05-01T13:21:39Z</time><name>PT1416</name></trkpt>
<trkpt lat="52.050332" lon="05.717684"><ele>23.9</ele><time>2021-05-01T13:21:41Z</time><name>PT1417</name></trkpt>
<trkpt lat="52.050332" lon="05.717691"><ele>23.8</ele><time>2021-05-01T13:21:41Z</time><name>PT1418</name></trkpt>
<trkpt lat="52.050334" lon="05.717697"><ele>23.8</ele><time>2021-05-01T13:21:43Z</time><name>PT1419</name></trkpt>
<trkpt lat="52.050338" lon="05.717717"><ele>23.8</ele><time>2021-05-01T13:21:43Z</time><name>PT1420</name></trkpt>
<trkpt lat="52.050338" lon="05.717736"><ele>23.8</ele><time>2021-05-01T13:21:45Z</time><name>PT1421</name></trkpt>
<trkpt lat="52.050338" lon="05.717752"><ele>23.8</ele><time>2021-05-01T13:21:45Z</time><name>PT1422</name></trkpt>
<trkpt lat="52.050335" lon="05.717762"><ele>23.8</ele><time>2021-05-01T13:21:47Z</time><name>PT1423</name></trkpt>
<trkpt lat="52.050331" lon="05.717766"><ele>23.8</ele><time>2021-05-01T13:21:47Z</time><name>PT1424</name></trkpt>
<trkpt lat="52.050325" lon="05.717770"><ele>23.8</ele><time>2021-05-01T13:21:49Z</time><name>PT1425</name></trkpt>
<trkpt lat="52.050322" lon="05.717772"><ele>23.9</ele><time>2021-05-01T13:21:49Z</time><name>PT1426</name></trkpt>
<trkpt lat="52.050317" lon="05.717778"><ele>24.2</ele><time>2021-05-01T13:21:51Z</time><name>PT1427</name></trkpt>
<trkpt lat="52.050313" lon="05.717784"><ele>24.3</ele><time>2021-05-01T13:21:51Z</time><name>PT1428</name></trkpt>
<trkpt lat="52.050303" lon="05.717791"><ele>24.3</ele><time>2021-05-01T13:22:33Z</time><name>PT1429</name></trkpt>
<trkpt lat="52.050290" lon="05.717792"><ele>24.3</ele><time>2021-05-01T13:22:33Z</time><name>PT1430</name></trkpt>
<trkpt lat="52.050280" lon="05.717792"><ele>24.2</ele><time>2021-05-01T13:22:35Z</time><name>PT1431</name></trkpt>
<trkpt lat="52.050271" lon="05.717791"><ele>24.3</ele><time>2021-05-01T13:22:35Z</time><name>PT1432</name></trkpt>
<trkpt lat="52.050258" lon="05.717794"><ele>24.3</ele><time>2021-05-01T13:22:37Z</time><name>PT1433</name></trkpt>
<trkpt lat="52.050242" lon="05.717798"><ele>24.3</ele><time>2021-05-01T13:22:37Z</time><name>PT1434</name></trkpt>
<trkpt lat="52.050230" lon="05.717797"><ele>24.3</ele><time>2021-05-01T13:22:39Z</time><name>PT1435</name></trkpt>
<trkpt lat="52.050221" lon="05.717805"><ele>24.4</ele><time>2021-05-01T13:22:39Z</time><name>PT1436</name></trkpt>
<trkpt lat="52.050211" lon="05.717805"><ele>24.3</ele><time>2021-05-01T13:22:41Z</time><name>PT1437</name></trkpt>
<trkpt lat="52.050201" lon="05.717808"><ele>24.3</ele><time>2021-05-01T13:22:41Z</time><name>PT1438</name></trkpt>
<trkpt lat="52.050194" lon="05.717809"><ele>24.3</ele><time>2021-05-01T13:22:43Z</time><name>PT1439</name></trkpt>
<trkpt lat="52.050186" lon="05.717810"><ele>24.3</ele><time>2021-05-01T13:22:43Z</time><name>PT1440</name></trkpt>
<trkpt lat="52.050178" lon="05.717810"><ele>24.4</ele><time>2021-05-01T13:22:45Z</time><name>PT1441</name></trkpt>
<trkpt lat="52.050172" lon="05.717810"><ele>24.3</ele><time>2021-05-01T13:22:45Z</time><name>PT1442</name></trkpt>
<trkpt lat="52.050164" lon="05.717820"><ele>24</ele><time>2021-05-01T13:22:55Z</time><name>PT1443</name></trkpt>
<trkpt lat="52.050154" lon="05.717836"><ele>24.1</ele><time>2021-05-01T13:22:57Z</time><name>PT1444</name></trkpt>
<trkpt lat="52.050144" lon="05.717857"><ele>24.2</ele><time>2021-05-01T13:22:57Z</time><name>PT1445</name></trkpt>
<trkpt lat="52.050135" lon="05.717868"><ele>24.2</ele><time>2021-05-01T13:22:59Z</time><name>PT1446</name></trkpt>
<trkpt lat="52.050127" lon="05.717887"><ele>24.3</ele><time>2021-05-01T13:22:59Z</time><name>PT1447</name></trkpt>
<trkpt lat="52.050117" lon="05.717904"><ele>24.3</ele><time>2021-05-01T13:23:01Z</time><name>PT1448</name></trkpt>
<trkpt lat="52.050110" lon="05.717920"><ele>24.3</ele><time>2021-05-01T13:23:01Z</time><name>PT1449</name></trkpt>
<trkpt lat="52.050105" lon="05.717939"><ele>24</ele><time>2021-05-01T13:23:03Z</time><name>PT1450</name></trkpt>
<trkpt lat="52.050101" lon="05.717960"><ele>24.1</ele><time>2021-05-01T13:23:03Z</time><name>PT1451</name></trkpt>
<trkpt lat="52.050094" lon="05.717980"><ele>23.9</ele><time>2021-05-01T13:23:05Z</time><name>PT1452</name></trkpt>
<trkpt lat="52.050088" lon="05.717996"><ele>23.8</ele><time>2021-05-01T13:23:05Z</time><name>PT1453</name></trkpt>
<trkpt lat="52.050082" lon="05.718010"><ele>23.9</ele><time>2021-05-01T13:23:07Z</time><name>PT1454</name></trkpt>
<trkpt lat="52.050074" lon="05.718024"><ele>23.9</ele><time>2021-05-01T13:23:07Z</time><name>PT1455</name></trkpt>
<trkpt lat="52.050069" lon="05.718041"><ele>23.9</ele><time>2021-05-01T13:23:09Z</time><name>PT1456</name></trkpt>
<trkpt lat="52.050064" lon="05.718063"><ele>23.9</ele><time>2021-05-01T13:23:09Z</time><name>PT1457</name></trkpt>
<trkpt lat="52.050061" lon="05.718088"><ele>23.8</ele><time>2021-05-01T13:23:11Z</time><name>PT1458</name></trkpt>
<trkpt lat="52.050056" lon="05.718108"><ele>23.9</ele><time>2021-05-01T13:23:11Z</time><name>PT1459</name></trkpt>
<trkpt lat="52.050050" lon="05.718128"><ele>23.8</ele><time>2021-05-01T13:23:13Z</time><name>PT1460</name></trkpt>
<trkpt lat="52.050044" lon="05.718145"><ele>23.9</ele><time>2021-05-01T13:23:13Z</time><name>PT1461</name></trkpt>
<trkpt lat="52.050038" lon="05.718161"><ele>23.9</ele><time>2021-05-01T13:23:15Z</time><name>PT1462</name></trkpt>
<trkpt lat="52.050033" lon="05.718172"><ele>23.9</ele><time>2021-05-01T13:23:15Z</time><name>PT1463</name></trkpt>
<trkpt lat="52.050030" lon="05.718179"><ele>23.9</ele><time>2021-05-01T13:23:17Z</time><name>PT1464</name></trkpt>
<trkpt lat="52.050027" lon="05.718192"><ele>23.8</ele><time>2021-05-01T13:23:17Z</time><name>PT1465</name></trkpt>
<trkpt lat="52.050026" lon="05.718201"><ele>23.8</ele><time>2021-05-01T13:23:19Z</time><name>PT1466</name></trkpt>
<trkpt lat="52.050024" lon="05.718207"><ele>23.8</ele><time>2021-05-01T13:23:19Z</time><name>PT1467</name></trkpt>
<trkpt lat="52.050020" lon="05.718221"><ele>23.8</ele><time>2021-05-01T13:23:21Z</time><name>PT1468</name></trkpt>
<trkpt lat="52.050015" lon="05.718237"><ele>23.7</ele><time>2021-05-01T13:23:21Z</time><name>PT1469</name></trkpt>
<trkpt lat="52.050010" lon="05.718254"><ele>23.6</ele><time>2021-05-01T13:23:23Z</time><name>PT1470</name></trkpt>
<trkpt lat="52.050005" lon="05.718265"><ele>23.7</ele><time>2021-05-01T13:23:23Z</time><name>PT1471</name></trkpt>
<trkpt lat="52.050003" lon="05.718270"><ele>23.8</ele><time>2021-05-01T13:23:25Z</time><name>PT1472</name></trkpt>
<trkpt lat="52.050000" lon="05.718273"><ele>23.7</ele><time>2021-05-01T13:23:25Z</time><name>PT1473</name></trkpt>
<trkpt lat="52.049997" lon="05.718274"><ele>23.8</ele><time>2021-05-01T13:23:27Z</time><name>PT1474</name></trkpt>
<trkpt lat="52.049993" lon="05.718285"><ele>23.8</ele><time>2021-05-01T13:23:30Z</time><name>PT1475</name></trkpt>
<trkpt lat="52.049989" lon="05.718310"><ele>23.8</ele><time>2021-05-01T13:23:30Z</time><name>PT1476</name></trkpt>
<trkpt lat="52.049985" lon="05.718328"><ele>24</ele><time>2021-05-01T13:23:32Z</time><name>PT1477</name></trkpt>
<trkpt lat="52.049977" lon="05.718345"><ele>23.9</ele><time>2021-05-01T13:23:32Z</time><name>PT1478</name></trkpt>
<trkpt lat="52.049973" lon="05.718355"><ele>23.9</ele><time>2021-05-01T13:23:34Z</time><name>PT1479</name></trkpt>
<trkpt lat="52.049967" lon="05.718365"><ele>23.8</ele><time>2021-05-01T13:23:34Z</time><name>PT1480</name></trkpt>
<trkpt lat="52.049964" lon="05.718373"><ele>23.8</ele><time>2021-05-01T13:23:36Z</time><name>PT1481</name></trkpt>
<trkpt lat="52.049957" lon="05.718382"><ele>23.7</ele><time>2021-05-01T13:23:36Z</time><name>PT1482</name></trkpt>
<trkpt lat="52.049944" lon="05.718390"><ele>23.8</ele><time>2021-05-01T13:23:38Z</time><name>PT1483</name></trkpt>
<trkpt lat="52.049934" lon="05.718401"><ele>23.9</ele><time>2021-05-01T13:23:38Z</time><name>PT1484</name></trkpt>
<trkpt lat="52.049925" lon="05.718414"><ele>24.1</ele><time>2021-05-01T13:23:40Z</time><name>PT1485</name></trkpt>
<trkpt lat="52.049918" lon="05.718430"><ele>24.1</ele><time>2021-05-01T13:23:41Z</time><name>PT1486</name></trkpt>
<trkpt lat="52.049910" lon="05.718445"><ele>24</ele><time>2021-05-01T13:23:41Z</time><name>PT1487</name></trkpt>
<trkpt lat="52.049900" lon="05.718460"><ele>24.1</ele><time>2021-05-01T13:23:43Z</time><name>PT1488</name></trkpt>
<trkpt lat="52.049892" lon="05.718473"><ele>24.1</ele><time>2021-05-01T13:23:43Z</time><name>PT1489</name></trkpt>
<trkpt lat="52.049884" lon="05.718481"><ele>24</ele><time>2021-05-01T13:23:45Z</time><name>PT1490</name></trkpt>
<trkpt lat="52.049873" lon="05.718491"><ele>23.8</ele><time>2021-05-01T13:23:46Z</time><name>PT1491</name></trkpt>
<trkpt lat="52.049866" lon="05.718501"><ele>23.8</ele><time>2021-05-01T13:23:47Z</time><name>PT1492</name></trkpt>
<trkpt lat="52.049856" lon="05.718512"><ele>23.8</ele><time>2021-05-01T13:23:47Z</time><name>PT1493</name></trkpt>
<trkpt lat="52.049847" lon="05.718523"><ele>23.8</ele><time>2021-05-01T13:23:49Z</time><name>PT1494</name></trkpt>
<trkpt lat="52.049836" lon="05.718536"><ele>23.8</ele><time>2021-05-01T13:23:50Z</time><name>PT1495</name></trkpt>
<trkpt lat="52.049827" lon="05.718549"><ele>23.9</ele><time>2021-05-01T13:23:51Z</time><name>PT1496</name></trkpt>
<trkpt lat="52.049817" lon="05.718563"><ele>23.8</ele><time>2021-05-01T13:23:51Z</time><name>PT1497</name></trkpt>
<trkpt lat="52.049810" lon="05.718577"><ele>23.8</ele><time>2021-05-01T13:23:53Z</time><name>PT1498</name></trkpt>
<trkpt lat="52.049801" lon="05.718592"><ele>23.8</ele><time>2021-05-01T13:23:53Z</time><name>PT1499</name></trkpt>
<trkpt lat="52.049792" lon="05.718605"><ele>23.8</ele><time>2021-05-01T13:23:55Z</time><name>PT1500</name></trkpt>
<trkpt lat="52.049783" lon="05.718617"><ele>23.9</ele><time>2021-05-01T13:23:55Z</time><name>PT1501</name></trkpt>
<trkpt lat="52.049775" lon="05.718629"><ele>24.2</ele><time>2021-05-01T13:23:57Z</time><name>PT1502</name></trkpt>
<trkpt lat="52.049767" lon="05.718643"><ele>24.2</ele><time>2021-05-01T13:23:57Z</time><name>PT1503</name></trkpt>
<trkpt lat="52.049756" lon="05.718657"><ele>24</ele><time>2021-05-01T13:23:59Z</time><name>PT1504</name></trkpt>
<trkpt lat="52.049746" lon="05.718665"><ele>23.9</ele><time>2021-05-01T13:23:59Z</time><name>PT1505</name></trkpt>
<trkpt lat="52.049734" lon="05.718677"><ele>23.8</ele><time>2021-05-01T13:24:01Z</time><name>PT1506</name></trkpt>
<trkpt lat="52.049724" lon="05.718690"><ele>23.8</ele><time>2021-05-01T13:24:01Z</time><name>PT1507</name></trkpt>
<trkpt lat="52.049714" lon="05.718704"><ele>24</ele><time>2021-05-01T13:24:03Z</time><name>PT1508</name></trkpt>
<trkpt lat="52.049705" lon="05.718714"><ele>24.1</ele><time>2021-05-01T13:24:03Z</time><name>PT1509</name></trkpt>
<trkpt lat="52.049698" lon="05.718723"><ele>24.3</ele><time>2021-05-01T13:24:05Z</time><name>PT1510</name></trkpt>
<trkpt lat="52.049693" lon="05.718729"><ele>24.3</ele><time>2021-05-01T13:24:05Z</time><name>PT1511</name></trkpt>
<trkpt lat="52.049694" lon="05.718733"><ele>24.2</ele><time>2021-05-01T13:24:07Z</time><name>PT1512</name></trkpt>
<trkpt lat="52.049690" lon="05.718739"><ele>24.3</ele><time>2021-05-01T13:24:07Z</time><name>PT1513</name></trkpt>
<trkpt lat="52.049688" lon="05.718744"><ele>24.3</ele><time>2021-05-01T13:24:09Z</time><name>PT1514</name></trkpt>
<trkpt lat="52.049685" lon="05.718747"><ele>24.3</ele><time>2021-05-01T13:24:09Z</time><name>PT1515</name></trkpt>
<trkpt lat="52.049681" lon="05.718747"><ele>24.3</ele><time>2021-05-01T13:24:11Z</time><name>PT1516</name></trkpt>
<trkpt lat="52.049676" lon="05.718756"><ele>24.3</ele><time>2021-05-01T13:24:11Z</time><name>PT1517</name></trkpt>
<trkpt lat="52.049668" lon="05.718764"><ele>24.1</ele><time>2021-05-01T13:24:13Z</time><name>PT1518</name></trkpt>
<trkpt lat="52.049661" lon="05.718770"><ele>24</ele><time>2021-05-01T13:24:13Z</time><name>PT1519</name></trkpt>
<trkpt lat="52.049652" lon="05.718777"><ele>24</ele><time>2021-05-01T13:24:15Z</time><name>PT1520</name></trkpt>
<trkpt lat="52.049646" lon="05.718780"><ele>23.9</ele><time>2021-05-01T13:24:15Z</time><name>PT1521</name></trkpt>
<trkpt lat="52.049638" lon="05.718783"><ele>23.8</ele><time>2021-05-01T13:24:17Z</time><name>PT1522</name></trkpt>
<trkpt lat="52.049630" lon="05.718787"><ele>23.8</ele><time>2021-05-01T13:24:17Z</time><name>PT1523</name></trkpt>
<trkpt lat="52.049619" lon="05.718790"><ele>23.9</ele><time>2021-05-01T13:24:19Z</time><name>PT1524</name></trkpt>
<trkpt lat="52.049609" lon="05.718797"><ele>24</ele><time>2021-05-01T13:24:19Z</time><name>PT1525</name></trkpt>
<trkpt lat="52.049598" lon="05.718805"><ele>23.8</ele><time>2021-05-01T13:24:21Z</time><name>PT1526</name></trkpt>
<trkpt lat="52.049586" lon="05.718813"><ele>23.8</ele><time>2021-05-01T13:24:21Z</time><name>PT1527</name></trkpt>
<trkpt lat="52.049575" lon="05.718820"><ele>24.1</ele><time>2021-05-01T13:24:23Z</time><name>PT1528</name></trkpt>
<trkpt lat="52.049565" lon="05.718828"><ele>23.9</ele><time>2021-05-01T13:24:23Z</time><name>PT1529</name></trkpt>
<trkpt lat="52.049557" lon="05.718834"><ele>24</ele><time>2021-05-01T13:24:25Z</time><name>PT1530</name></trkpt>
<trkpt lat="52.049547" lon="05.718841"><ele>24</ele><time>2021-05-01T13:24:25Z</time><name>PT1531</name></trkpt>
<trkpt lat="52.049540" lon="05.718855"><ele>23.8</ele><time>2021-05-01T13:24:27Z</time><name>PT1532</name></trkpt>
<trkpt lat="52.049538" lon="05.718871"><ele>23.8</ele><time>2021-05-01T13:24:27Z</time><name>PT1533</name></trkpt>
<trkpt lat="52.049537" lon="05.718885"><ele>23.8</ele><time>2021-05-01T13:24:29Z</time><name>PT1534</name></trkpt>
<trkpt lat="52.049534" lon="05.718900"><ele>23.8</ele><time>2021-05-01T13:24:29Z</time><name>PT1535</name></trkpt>
<trkpt lat="52.049534" lon="05.718909"><ele>23.8</ele><time>2021-05-01T13:24:31Z</time><name>PT1536</name></trkpt>
<trkpt lat="52.049533" lon="05.718919"><ele>23.9</ele><time>2021-05-01T13:24:31Z</time><name>PT1537</name></trkpt>
<trkpt lat="52.049532" lon="05.718930"><ele>23.9</ele><time>2021-05-01T13:24:33Z</time><name>PT1538</name></trkpt>
<trkpt lat="52.049532" lon="05.718940"><ele>24.1</ele><time>2021-05-01T13:24:33Z</time><name>PT1539</name></trkpt>
<trkpt lat="52.049533" lon="05.718943"><ele>24</ele><time>2021-05-01T13:24:35Z</time><name>PT1540</name></trkpt>
<trkpt lat="52.049533" lon="05.718942"><ele>23.8</ele><time>2021-05-01T13:24:35Z</time><name>PT1541</name></trkpt>
<trkpt lat="52.049533" lon="05.718940"><ele>23.7</ele><time>2021-05-01T13:24:37Z</time><name>PT1542</name></trkpt>
<trkpt lat="52.049533" lon="05.718941"><ele>23.8</ele><time>2021-05-01T13:24:37Z</time><name>PT1543</name></trkpt>
<trkpt lat="52.049533" lon="05.718949"><ele>23.7</ele><time>2021-05-01T13:24:39Z</time><name>PT1544</name></trkpt>
<trkpt lat="52.049532" lon="05.718967"><ele>23.8</ele><time>2021-05-01T13:24:41Z</time><name>PT1545</name></trkpt>
<trkpt lat="52.049527" lon="05.718988"><ele>23.8</ele><time>2021-05-01T13:24:41Z</time><name>PT1546</name></trkpt>
<trkpt lat="52.049524" lon="05.719005"><ele>23.8</ele><time>2021-05-01T13:24:43Z</time><name>PT1547</name></trkpt>
<trkpt lat="52.049525" lon="05.719020"><ele>23.8</ele><time>2021-05-01T13:24:43Z</time><name>PT1548</name></trkpt>
<trkpt lat="52.049523" lon="05.719035"><ele>23.7</ele><time>2021-05-01T13:24:45Z</time><name>PT1549</name></trkpt>
<trkpt lat="52.049519" lon="05.719051"><ele>23.8</ele><time>2021-05-01T13:24:45Z</time><name>PT1550</name></trkpt>
<trkpt lat="52.049519" lon="05.719064"><ele>23.8</ele><time>2021-05-01T13:24:47Z</time><name>PT1551</name></trkpt>
<trkpt lat="52.049518" lon="05.719076"><ele>23.7</ele><time>2021-05-01T13:24:47Z</time><name>PT1552</name></trkpt>
<trkpt lat="52.049517" lon="05.719090"><ele>23.9</ele><time>2021-05-01T13:24:49Z</time><name>PT1553</name></trkpt>
<trkpt lat="52.049516" lon="05.719108"><ele>23.9</ele><time>2021-05-01T13:24:49Z</time><name>PT1554</name></trkpt>
<trkpt lat="52.049514" lon="05.719127"><ele>23.9</ele><time>2021-05-01T13:24:51Z</time><name>PT1555</name></trkpt>
<trkpt lat="52.049513" lon="05.719145"><ele>24.2</ele><time>2021-05-01T13:24:51Z</time><name>PT1556</name></trkpt>
<trkpt lat="52.049513" lon="05.719166"><ele>24.3</ele><time>2021-05-01T13:24:53Z</time><name>PT1557</name></trkpt>
<trkpt lat="52.049515" lon="05.719180"><ele>24.3</ele><time>2021-05-01T13:24:53Z</time><name>PT1558</name></trkpt>
<trkpt lat="52.049516" lon="05.719203"><ele>24.3</ele><time>2021-05-01T13:24:55Z</time><name>PT1559</name></trkpt>
<trkpt lat="52.049516" lon="05.719224"><ele>24.3</ele><time>2021-05-01T13:24:55Z</time><name>PT1560</name></trkpt>
<trkpt lat="52.049514" lon="05.719244"><ele>24.2</ele><time>2021-05-01T13:24:57Z</time><name>PT1561</name></trkpt>
<trkpt lat="52.049511" lon="05.719261"><ele>24.2</ele><time>2021-05-01T13:24:57Z</time><name>PT1562</name></trkpt>
<trkpt lat="52.049509" lon="05.719277"><ele>24.1</ele><time>2021-05-01T13:24:59Z</time><name>PT1563</name></trkpt>
<trkpt lat="52.049508" lon="05.719299"><ele>24.1</ele><time>2021-05-01T13:24:59Z</time><name>PT1564</name></trkpt>
<trkpt lat="52.049501" lon="05.719330"><ele>24.1</ele><time>2021-05-01T13:25:01Z</time><name>PT1565</name></trkpt>
<trkpt lat="52.049502" lon="05.719342"><ele>24.3</ele><time>2021-05-01T13:25:01Z</time><name>PT1566</name></trkpt>
<trkpt lat="52.049503" lon="05.719361"><ele>24.3</ele><time>2021-05-01T13:25:03Z</time><name>PT1567</name></trkpt>
<trkpt lat="52.049503" lon="05.719380"><ele>24.3</ele><time>2021-05-01T13:25:03Z</time><name>PT1568</name></trkpt>
<trkpt lat="52.049503" lon="05.719396"><ele>24.4</ele><time>2021-05-01T13:25:05Z</time><name>PT1569</name></trkpt>
<trkpt lat="52.049504" lon="05.719414"><ele>24.3</ele><time>2021-05-01T13:25:05Z</time><name>PT1570</name></trkpt>
<trkpt lat="52.049508" lon="05.719430"><ele>24.3</ele><time>2021-05-01T13:25:07Z</time><name>PT1571</name></trkpt>
<trkpt lat="52.049511" lon="05.719454"><ele>24.3</ele><time>2021-05-01T13:25:08Z</time><name>PT1572</name></trkpt>
<trkpt lat="52.049518" lon="05.719475"><ele>24.3</ele><time>2021-05-01T13:25:09Z</time><name>PT1573</name></trkpt>
<trkpt lat="52.049518" lon="05.719493"><ele>24.3</ele><time>2021-05-01T13:25:09Z</time><name>PT1574</name></trkpt>
<trkpt lat="52.049515" lon="05.719509"><ele>24.3</ele><time>2021-05-01T13:25:11Z</time><name>PT1575</name></trkpt>
<trkpt lat="52.049511" lon="05.719527"><ele>24.3</ele><time>2021-05-01T13:25:11Z</time><name>PT1576</name></trkpt>
<trkpt lat="52.049510" lon="05.719549"><ele>24.2</ele><time>2021-05-01T13:25:13Z</time><name>PT1577</name></trkpt>
<trkpt lat="52.049508" lon="05.719566"><ele>24.2</ele><time>2021-05-01T13:25:13Z</time><name>PT1578</name></trkpt>
<trkpt lat="52.049506" lon="05.719582"><ele>24.2</ele><time>2021-05-01T13:25:15Z</time><name>PT1579</name></trkpt>
<trkpt lat="52.049506" lon="05.719599"><ele>24.2</ele><time>2021-05-01T13:25:15Z</time><name>PT1580</name></trkpt>
<trkpt lat="52.049505" lon="05.719612"><ele>24</ele><time>2021-05-01T13:25:17Z</time><name>PT1581</name></trkpt>
<trkpt lat="52.049504" lon="05.719631"><ele>24.1</ele><time>2021-05-01T13:25:18Z</time><name>PT1582</name></trkpt>
<trkpt lat="52.049504" lon="05.719649"><ele>24.2</ele><time>2021-05-01T13:25:18Z</time><name>PT1583</name></trkpt>
<trkpt lat="52.049504" lon="05.719664"><ele>24.2</ele><time>2021-05-01T13:25:20Z</time><name>PT1584</name></trkpt>
<trkpt lat="52.049498" lon="05.719671"><ele>24.3</ele><time>2021-05-01T13:25:21Z</time><name>PT1585</name></trkpt>
<trkpt lat="52.049498" lon="05.719682"><ele>24.3</ele><time>2021-05-01T13:25:21Z</time><name>PT1586</name></trkpt>
<trkpt lat="52.049502" lon="05.719697"><ele>24.2</ele><time>2021-05-01T13:25:23Z</time><name>PT1587</name></trkpt>
<trkpt lat="52.049509" lon="05.719707"><ele>24.2</ele><time>2021-05-01T13:25:23Z</time><name>PT1588</name></trkpt>
<trkpt lat="52.049518" lon="05.719713"><ele>24.3</ele><time>2021-05-01T13:25:25Z</time><name>PT1589</name></trkpt>
<trkpt lat="52.049525" lon="05.719724"><ele>24.3</ele><time>2021-05-01T13:25:26Z</time><name>PT1590</name></trkpt>
<trkpt lat="52.049528" lon="05.719728"><ele>24.4</ele><time>2021-05-01T13:25:26Z</time><name>PT1591</name></trkpt>
<trkpt lat="52.049528" lon="05.719734"><ele>24.4</ele><time>2021-05-01T13:25:28Z</time><name>PT1592</name></trkpt>
<trkpt lat="52.049529" lon="05.719735"><ele>24.4</ele><time>2021-05-01T13:25:29Z</time><name>PT1593</name></trkpt>
<trkpt lat="52.049527" lon="05.719730"><ele>24.3</ele><time>2021-05-01T13:25:32Z</time><name>PT1594</name></trkpt>
<trkpt lat="52.049529" lon="05.719728"><ele>24.1</ele><time>2021-05-01T13:25:34Z</time><name>PT1595</name></trkpt>
<trkpt lat="52.049529" lon="05.719726"><ele>24.1</ele><time>2021-05-01T13:25:34Z</time><name>PT1596</name></trkpt>
<trkpt lat="52.049530" lon="05.719729"><ele>24.2</ele><time>2021-05-01T13:25:36Z</time><name>PT1597</name></trkpt>
<trkpt lat="52.049530" lon="05.719734"><ele>24.1</ele><time>2021-05-01T13:25:37Z</time><name>PT1598</name></trkpt>
<trkpt lat="52.049534" lon="05.719733"><ele>24.2</ele><time>2021-05-01T13:25:38Z</time><name>PT1599</name></trkpt>
<trkpt lat="52.049544" lon="05.719732"><ele>24.3</ele><time>2021-05-01T13:25:39Z</time><name>PT1600</name></trkpt>
<trkpt lat="52.049551" lon="05.719732"><ele>24.5</ele><time>2021-05-01T13:25:40Z</time><name>PT1601</name></trkpt>
<trkpt lat="52.049564" lon="05.719735"><ele>24.5</ele><time>2021-05-01T13:25:41Z</time><name>PT1602</name></trkpt>
<trkpt lat="52.049577" lon="05.719731"><ele>24.4</ele><time>2021-05-01T13:25:42Z</time><name>PT1603</name></trkpt>
<trkpt lat="52.049585" lon="05.719731"><ele>24.3</ele><time>2021-05-01T13:25:43Z</time><name>PT1604</name></trkpt>
<trkpt lat="52.049590" lon="05.719729"><ele>24.2</ele><time>2021-05-01T13:25:44Z</time><name>PT1605</name></trkpt>
<trkpt lat="52.049592" lon="05.719725"><ele>23.8</ele><time>2021-05-01T13:25:45Z</time><name>PT1606</name></trkpt>
<trkpt lat="52.049598" lon="05.719721"><ele>23.9</ele><time>2021-05-01T13:25:45Z</time><name>PT1607</name></trkpt>
<trkpt lat="52.049600" lon="05.719719"><ele>23.9</ele><time>2021-05-01T13:25:47Z</time><name>PT1608</name></trkpt>
<trkpt lat="52.049607" lon="05.719709"><ele>24</ele><time>2021-05-01T13:25:47Z</time><name>PT1609</name></trkpt>
<trkpt lat="52.049625" lon="05.719686"><ele>24</ele><time>2021-05-01T13:25:49Z</time><name>PT1610</name></trkpt>
<trkpt lat="52.049643" lon="05.719660"><ele>24.1</ele><time>2021-05-01T13:25:49Z</time><name>PT1611</name></trkpt>
<trkpt lat="52.049661" lon="05.719648"><ele>23.9</ele><time>2021-05-01T13:25:51Z</time><name>PT1612</name></trkpt>
<trkpt lat="52.049673" lon="05.719641"><ele>24</ele><time>2021-05-01T13:25:51Z</time><name>PT1613</name></trkpt>
<trkpt lat="52.049680" lon="05.719639"><ele>24.1</ele><time>2021-05-01T13:25:53Z</time><name>PT1614</name></trkpt>
<trkpt lat="52.049686" lon="05.719637"><ele>24.2</ele><time>2021-05-01T13:25:53Z</time><name>PT1615</name></trkpt>
<trkpt lat="52.049696" lon="05.719624"><ele>24.3</ele><time>2021-05-01T13:25:55Z</time><name>PT1616</name></trkpt>
<trkpt lat="52.049704" lon="05.719616"><ele>24.4</ele><time>2021-05-01T13:25:55Z</time><name>PT1617</name></trkpt>
<trkpt lat="52.049717" lon="05.719606"><ele>24.3</ele><time>2021-05-01T13:25:57Z</time><name>PT1618</name></trkpt>
<trkpt lat="52.049734" lon="05.719589"><ele>24.3</ele><time>2021-05-01T13:25:57Z</time><name>PT1619</name></trkpt>
<trkpt lat="52.049754" lon="05.719582"><ele>24.1</ele><time>2021-05-01T13:25:59Z</time><name>PT1620</name></trkpt>
<trkpt lat="52.049770" lon="05.719576"><ele>24.1</ele><time>2021-05-01T13:25:59Z</time><name>PT1621</name></trkpt>
<trkpt lat="52.049783" lon="05.719569"><ele>23.9</ele><time>2021-05-01T13:26:01Z</time><name>PT1622</name></trkpt>
<trkpt lat="52.049793" lon="05.719565"><ele>23.8</ele><time>2021-05-01T13:26:01Z</time><name>PT1623</name></trkpt>
<trkpt lat="52.049802" lon="05.719561"><ele>23.8</ele><time>2021-05-01T13:26:03Z</time><name>PT1624</name></trkpt>
<trkpt lat="52.049811" lon="05.719557"><ele>24</ele><time>2021-05-01T13:26:03Z</time><name>PT1625</name></trkpt>
<trkpt lat="52.049816" lon="05.719554"><ele>23.8</ele><time>2021-05-01T13:26:05Z</time><name>PT1626</name></trkpt>
<trkpt lat="52.049823" lon="05.719549"><ele>23.9</ele><time>2021-05-01T13:26:05Z</time><name>PT1627</name></trkpt>
<trkpt lat="52.049830" lon="05.719544"><ele>24</ele><time>2021-05-01T13:26:07Z</time><name>PT1628</name></trkpt>
<trkpt lat="52.049834" lon="05.719537"><ele>24.1</ele><time>2021-05-01T13:26:07Z</time><name>PT1629</name></trkpt>
<trkpt lat="52.049846" lon="05.719523"><ele>24</ele><time>2021-05-01T13:26:09Z</time><name>PT1630</name></trkpt>
<trkpt lat="52.049867" lon="05.719518"><ele>24.3</ele><time>2021-05-01T13:26:09Z</time><name>PT1631</name></trkpt>
<trkpt lat="52.049885" lon="05.719524"><ele>24.1</ele><time>2021-05-01T13:26:11Z</time><name>PT1632</name></trkpt>
<trkpt lat="52.049903" lon="05.719534"><ele>24.1</ele><time>2021-05-01T13:26:11Z</time><name>PT1633</name></trkpt>
<trkpt lat="52.049913" lon="05.719537"><ele>24</ele><time>2021-05-01T13:26:13Z</time><name>PT1634</name></trkpt>
<trkpt lat="52.049924" lon="05.719537"><ele>24</ele><time>2021-05-01T13:26:13Z</time><name>PT1635</name></trkpt>
<trkpt lat="52.049930" lon="05.719534"><ele>24</ele><time>2021-05-01T13:26:15Z</time><name>PT1636</name></trkpt>
<trkpt lat="52.049935" lon="05.719532"><ele>24.1</ele><time>2021-05-01T13:26:15Z</time><name>PT1637</name></trkpt>
<trkpt lat="52.049937" lon="05.719526"><ele>24</ele><time>2021-05-01T13:26:17Z</time><name>PT1638</name></trkpt>
<trkpt lat="52.049944" lon="05.719517"><ele>23.9</ele><time>2021-05-01T13:26:17Z</time><name>PT1639</name></trkpt>
<trkpt lat="52.049955" lon="05.719505"><ele>23.8</ele><time>2021-05-01T13:26:19Z</time><name>PT1640</name></trkpt>
<trkpt lat="52.049969" lon="05.719489"><ele>23.8</ele><time>2021-05-01T13:26:19Z</time><name>PT1641</name></trkpt>
<trkpt lat="52.049985" lon="05.719476"><ele>23.9</ele><time>2021-05-01T13:26:21Z</time><name>PT1642</name></trkpt>
<trkpt lat="52.050000" lon="05.719464"><ele>24</ele><time>2021-05-01T13:26:21Z</time><name>PT1643</name></trkpt>
<trkpt lat="52.050021" lon="05.719459"><ele>24.1</ele><time>2021-05-01T13:26:23Z</time><name>PT1644</name></trkpt>
<trkpt lat="52.050038" lon="05.719448"><ele>24.3</ele><time>2021-05-01T13:26:23Z</time><name>PT1645</name></trkpt>
<trkpt lat="52.050052" lon="05.719441"><ele>24.3</ele><time>2021-05-01T13:26:25Z</time><name>PT1646</name></trkpt>
<trkpt lat="52.050058" lon="05.719433"><ele>24.3</ele><time>2021-05-01T13:26:25Z</time><name>PT1647</name></trkpt>
<trkpt lat="52.050065" lon="05.719432"><ele>24.3</ele><time>2021-05-01T13:26:27Z</time><name>PT1648</name></trkpt>
<trkpt lat="52.050070" lon="05.719434"><ele>24.3</ele><time>2021-05-01T13:26:27Z</time><name>PT1649</name></trkpt>
<trkpt lat="52.050073" lon="05.719431"><ele>24.3</ele><time>2021-05-01T13:26:29Z</time><name>PT1650</name></trkpt>
<trkpt lat="52.050074" lon="05.719425"><ele>24.2</ele><time>2021-05-01T13:26:30Z</time><name>PT1651</name></trkpt>
<trkpt lat="52.050083" lon="05.719409"><ele>24.3</ele><time>2021-05-01T13:26:30Z</time><name>PT1652</name></trkpt>
<trkpt lat="52.050092" lon="05.719389"><ele>24.2</ele><time>2021-05-01T13:26:32Z</time><name>PT1653</name></trkpt>
<trkpt lat="52.050103" lon="05.719377"><ele>24</ele><time>2021-05-01T13:26:32Z</time><name>PT1654</name></trkpt>
<trkpt lat="52.050117" lon="05.719367"><ele>24.2</ele><time>2021-05-01T13:26:34Z</time><name>PT1655</name></trkpt>
<trkpt lat="52.050134" lon="05.719357"><ele>24.4</ele><time>2021-05-01T13:26:34Z</time><name>PT1656</name></trkpt>
<trkpt lat="52.050149" lon="05.719348"><ele>24.3</ele><time>2021-05-01T13:26:36Z</time><name>PT1657</name></trkpt>
<trkpt lat="52.050163" lon="05.719343"><ele>24.3</ele><time>2021-05-01T13:26:36Z</time><name>PT1658</name></trkpt>
<trkpt lat="52.050170" lon="05.719336"><ele>24.3</ele><time>2021-05-01T13:26:38Z</time><name>PT1659</name></trkpt>
<trkpt lat="52.050180" lon="05.719326"><ele>24.3</ele><time>2021-05-01T13:26:38Z</time><name>PT1660</name></trkpt>
<trkpt lat="52.050192" lon="05.719321"><ele>24.3</ele><time>2021-05-01T13:26:40Z</time><name>PT1661</name></trkpt>
<trkpt lat="52.050200" lon="05.719316"><ele>24.3</ele><time>2021-05-01T13:26:40Z</time><name>PT1662</name></trkpt>
<trkpt lat="52.050206" lon="05.719309"><ele>24.3</ele><time>2021-05-01T13:26:42Z</time><name>PT1663</name></trkpt>
<trkpt lat="52.050218" lon="05.719300"><ele>24.3</ele><time>2021-05-01T13:26:42Z</time><name>PT1664</name></trkpt>
<trkpt lat="52.050233" lon="05.719291"><ele>24.2</ele><time>2021-05-01T13:26:44Z</time><name>PT1665</name></trkpt>
<trkpt lat="52.050246" lon="05.719285"><ele>24.2</ele><time>2021-05-01T13:26:44Z</time><name>PT1666</name></trkpt>
<trkpt lat="52.050258" lon="05.719281"><ele>24.3</ele><time>2021-05-01T13:26:46Z</time><name>PT1667</name></trkpt>
<trkpt lat="52.050271" lon="05.719278"><ele>24.3</ele><time>2021-05-01T13:26:46Z</time><name>PT1668</name></trkpt>
<trkpt lat="52.050280" lon="05.719273"><ele>24.3</ele><time>2021-05-01T13:26:48Z</time><name>PT1669</name></trkpt>
<trkpt lat="52.050285" lon="05.719269"><ele>24.3</ele><time>2021-05-01T13:26:48Z</time><name>PT1670</name></trkpt>
<trkpt lat="52.050287" lon="05.719266"><ele>24.3</ele><time>2021-05-01T13:26:50Z</time><name>PT1671</name></trkpt>
<trkpt lat="52.050292" lon="05.719262"><ele>24.3</ele><time>2021-05-01T13:26:50Z</time><name>PT1672</name></trkpt>
<trkpt lat="52.050304" lon="05.719246"><ele>24.3</ele><time>2021-05-01T13:26:52Z</time><name>PT1673</name></trkpt>
<trkpt lat="52.050316" lon="05.719229"><ele>24.3</ele><time>2021-05-01T13:26:53Z</time><name>PT1674</name></trkpt>
<trkpt lat="52.050330" lon="05.719221"><ele>24</ele><time>2021-05-01T13:26:53Z</time><name>PT1675</name></trkpt>
<trkpt lat="52.050347" lon="05.719212"><ele>24.2</ele><time>2021-05-01T13:26:55Z</time><name>PT1676</name></trkpt>
<trkpt lat="52.050366" lon="05.719203"><ele>24.1</ele><time>2021-05-01T13:26:55Z</time><name>PT1677</name></trkpt>
<trkpt lat="52.050384" lon="05.719195"><ele>24.2</ele><time>2021-05-01T13:26:57Z</time><name>PT1678</name></trkpt>
<trkpt lat="52.050398" lon="05.719193"><ele>24.2</ele><time>2021-05-01T13:26:57Z</time><name>PT1679</name></trkpt>
<trkpt lat="52.050409" lon="05.719192"><ele>24.3</ele><time>2021-05-01T13:26:59Z</time><name>PT1680</name></trkpt>
<trkpt lat="52.050412" lon="05.719185"><ele>24.2</ele><time>2021-05-01T13:26:59Z</time><name>PT1681</name></trkpt>
<trkpt lat="52.050412" lon="05.719181"><ele>24.3</ele><time>2021-05-01T13:27:01Z</time><name>PT1682</name></trkpt>
<trkpt lat="52.050415" lon="05.719180"><ele>24.3</ele><time>2021-05-01T13:27:01Z</time><name>PT1683</name></trkpt>
<trkpt lat="52.050420" lon="05.719179"><ele>24.5</ele><time>2021-05-01T13:27:03Z</time><name>PT1684</name></trkpt>
<trkpt lat="52.050427" lon="05.719175"><ele>24.6</ele><time>2021-05-01T13:27:03Z</time><name>PT1685</name></trkpt>
<trkpt lat="52.050442" lon="05.719176"><ele>24.7</ele><time>2021-05-01T13:27:05Z</time><name>PT1686</name></trkpt>
<trkpt lat="52.050458" lon="05.719178"><ele>24.6</ele><time>2021-05-01T13:27:05Z</time><name>PT1687</name></trkpt>
<trkpt lat="52.050475" lon="05.719175"><ele>24.5</ele><time>2021-05-01T13:27:07Z</time><name>PT1688</name></trkpt>
<trkpt lat="52.050490" lon="05.719173"><ele>24.4</ele><time>2021-05-01T13:27:08Z</time><name>PT1689</name></trkpt>
<trkpt lat="52.050502" lon="05.719166"><ele>24.3</ele><time>2021-05-01T13:27:08Z</time><name>PT1690</name></trkpt>
<trkpt lat="52.050508" lon="05.719167"><ele>24.3</ele><time>2021-05-01T13:27:10Z</time><name>PT1691</name></trkpt>
<trkpt lat="52.050511" lon="05.719167"><ele>24.3</ele><time>2021-05-01T13:27:11Z</time><name>PT1692</name></trkpt>
<trkpt lat="52.050517" lon="05.719148"><ele>24.4</ele><time>2021-05-01T13:27:12Z</time><name>PT1693</name></trkpt>
<trkpt lat="52.050527" lon="05.719133"><ele>24.6</ele><time>2021-05-01T13:27:13Z</time><name>PT1694</name></trkpt>
<trkpt lat="52.050542" lon="05.719112"><ele>24.8</ele><time>2021-05-01T13:27:14Z</time><name>PT1695</name></trkpt>
<trkpt lat="52.050563" lon="05.719092"><ele>24.7</ele><time>2021-05-01T13:27:15Z</time><name>PT1696</name></trkpt>
<trkpt lat="52.050583" lon="05.719092"><ele>24.7</ele><time>2021-05-01T13:27:16Z</time><name>PT1697</name></trkpt>
<trkpt lat="52.050596" lon="05.719083"><ele>24.8</ele><time>2021-05-01T13:27:17Z</time><name>PT1698</name></trkpt>
<trkpt lat="52.050606" lon="05.719074"><ele>24.7</ele><time>2021-05-01T13:27:18Z</time><name>PT1699</name></trkpt>
<trkpt lat="52.050616" lon="05.719066"><ele>24.6</ele><time>2021-05-01T13:27:18Z</time><name>PT1700</name></trkpt>
<trkpt lat="52.050625" lon="05.719064"><ele>24.7</ele><time>2021-05-01T13:27:20Z</time><name>PT1701</name></trkpt>
<trkpt lat="52.050633" lon="05.719064"><ele>24.6</ele><time>2021-05-01T13:27:20Z</time><name>PT1702</name></trkpt>
<trkpt lat="52.050635" lon="05.719061"><ele>24.6</ele><time>2021-05-01T13:27:22Z</time><name>PT1703</name></trkpt>
<trkpt lat="52.050638" lon="05.719059"><ele>24.8</ele><time>2021-05-01T13:27:22Z</time><name>PT1704</name></trkpt>
<trkpt lat="52.050644" lon="05.719061"><ele>24.8</ele><time>2021-05-01T13:27:24Z</time><name>PT1705</name></trkpt>
<trkpt lat="52.050650" lon="05.719061"><ele>24.7</ele><time>2021-05-01T13:27:24Z</time><name>PT1706</name></trkpt>
<trkpt lat="52.050656" lon="05.719059"><ele>24.4</ele><time>2021-05-01T13:27:26Z</time><name>PT1707</name></trkpt>
<trkpt lat="52.050663" lon="05.719065"><ele>24.4</ele><time>2021-05-01T13:27:26Z</time><name>PT1708</name></trkpt>
<trkpt lat="52.050675" lon="05.719078"><ele>24.5</ele><time>2021-05-01T13:27:28Z</time><name>PT1709</name></trkpt>
<trkpt lat="52.050686" lon="05.719091"><ele>24.4</ele><time>2021-05-01T13:27:28Z</time><name>PT1710</name></trkpt>
<trkpt lat="52.050694" lon="05.719101"><ele>24.5</ele><time>2021-05-01T13:27:30Z</time><name>PT1711</name></trkpt>
<trkpt lat="52.050706" lon="05.719124"><ele>24.6</ele><time>2021-05-01T13:27:30Z</time><name>PT1712</name></trkpt>
<trkpt lat="52.050718" lon="05.719156"><ele>24.5</ele><time>2021-05-01T13:27:32Z</time><name>PT1713</name></trkpt>
<trkpt lat="52.050726" lon="05.719179"><ele>24.5</ele><time>2021-05-01T13:27:32Z</time><name>PT1714</name></trkpt>
<trkpt lat="52.050733" lon="05.719190"><ele>24.6</ele><time>2021-05-01T13:27:34Z</time><name>PT1715</name></trkpt>
<trkpt lat="52.050737" lon="05.719198"><ele>24.5</ele><time>2021-05-01T13:27:34Z</time><name>PT1716</name></trkpt>
<trkpt lat="52.050739" lon="05.719194"><ele>24.6</ele><time>2021-05-01T13:27:36Z</time><name>PT1717</name></trkpt>
<trkpt lat="52.050744" lon="05.719199"><ele>24.7</ele><time>2021-05-01T13:27:36Z</time><name>PT1718</name></trkpt>
<trkpt lat="52.050750" lon="05.719206"><ele>24.6</ele><time>2021-05-01T13:27:38Z</time><name>PT1719</name></trkpt>
<trkpt lat="52.050755" lon="05.719218"><ele>24.5</ele><time>2021-05-01T13:27:38Z</time><name>PT1720</name></trkpt>
<trkpt lat="52.050764" lon="05.719239"><ele>24.3</ele><time>2021-05-01T13:27:40Z</time><name>PT1721</name></trkpt>
<trkpt lat="52.050769" lon="05.719265"><ele>24.4</ele><time>2021-05-01T13:27:40Z</time><name>PT1722</name></trkpt>
<trkpt lat="52.050775" lon="05.719294"><ele>24.4</ele><time>2021-05-01T13:27:42Z</time><name>PT1723</name></trkpt>
<trkpt lat="52.050779" lon="05.719320"><ele>24.4</ele><time>2021-05-01T13:27:42Z</time><name>PT1724</name></trkpt>
<trkpt lat="52.050785" lon="05.719334"><ele>24.3</ele><time>2021-05-01T13:27:44Z</time><name>PT1725</name></trkpt>
<trkpt lat="52.050791" lon="05.719337"><ele>24.3</ele><time>2021-05-01T13:27:44Z</time><name>PT1726</name></trkpt>
<trkpt lat="52.050796" lon="05.719337"><ele>24.3</ele><time>2021-05-01T13:27:46Z</time><name>PT1727</name></trkpt>
<trkpt lat="52.050797" lon="05.719340"><ele>24.3</ele><time>2021-05-01T13:27:46Z</time><name>PT1728</name></trkpt>
<trkpt lat="52.050800" lon="05.719345"><ele>24.4</ele><time>2021-05-01T13:27:48Z</time><name>PT1729</name></trkpt>
<trkpt lat="52.050807" lon="05.719353"><ele>24.6</ele><time>2021-05-01T13:27:48Z</time><name>PT1730</name></trkpt>
<trkpt lat="52.050813" lon="05.719375"><ele>24.7</ele><time>2021-05-01T13:27:50Z</time><name>PT1731</name></trkpt>
<trkpt lat="52.050817" lon="05.719405"><ele>24.6</ele><time>2021-05-01T13:27:50Z</time><name>PT1732</name></trkpt>
<trkpt lat="52.050821" lon="05.719439"><ele>24.6</ele><time>2021-05-01T13:27:52Z</time><name>PT1733</name></trkpt>
<trkpt lat="52.050819" lon="05.719469"><ele>24.4</ele><time>2021-05-01T13:27:52Z</time><name>PT1734</name></trkpt>
<trkpt lat="52.050820" lon="05.719491"><ele>24.5</ele><time>2021-05-01T13:27:54Z</time><name>PT1735</name></trkpt>
<trkpt lat="52.050823" lon="05.719503"><ele>24.3</ele><time>2021-05-01T13:27:54Z</time><name>PT1736</name></trkpt>
<trkpt lat="52.050825" lon="05.719507"><ele>24.3</ele><time>2021-05-01T13:27:56Z</time><name>PT1737</name></trkpt>
<trkpt lat="52.050826" lon="05.719513"><ele>24.1</ele><time>2021-05-01T13:27:56Z</time><name>PT1738</name></trkpt>
<trkpt lat="52.050828" lon="05.719519"><ele>24.2</ele><time>2021-05-01T13:27:58Z</time><name>PT1739</name></trkpt>
<trkpt lat="52.050835" lon="05.719531"><ele>24.3</ele><time>2021-05-01T13:27:58Z</time><name>PT1740</name></trkpt>
<trkpt lat="52.050848" lon="05.719551"><ele>24.3</ele><time>2021-05-01T13:28:00Z</time><name>PT1741</name></trkpt>
<trkpt lat="52.050856" lon="05.719583"><ele>24.3</ele><time>2021-05-01T13:28:00Z</time><name>PT1742</name></trkpt>
<trkpt lat="52.050862" lon="05.719611"><ele>24.3</ele><time>2021-05-01T13:28:02Z</time><name>PT1743</name></trkpt>
<trkpt lat="52.050868" lon="05.719640"><ele>24.3</ele><time>2021-05-01T13:28:02Z</time><name>PT1744</name></trkpt>
<trkpt lat="52.050874" lon="05.719661"><ele>24.3</ele><time>2021-05-01T13:28:04Z</time><name>PT1745</name></trkpt>
<trkpt lat="52.050883" lon="05.719675"><ele>24.3</ele><time>2021-05-01T13:28:04Z</time><name>PT1746</name></trkpt>
<trkpt lat="52.050890" lon="05.719686"><ele>24.3</ele><time>2021-05-01T13:28:06Z</time><name>PT1747</name></trkpt>
<trkpt lat="52.050897" lon="05.719695"><ele>24.2</ele><time>2021-05-01T13:28:06Z</time><name>PT1748</name></trkpt>
<trkpt lat="52.050903" lon="05.719702"><ele>24.3</ele><time>2021-05-01T13:28:08Z</time><name>PT1749</name></trkpt>
<trkpt lat="52.050910" lon="05.719709"><ele>24.2</ele><time>2021-05-01T13:28:08Z</time><name>PT1750</name></trkpt>
<trkpt lat="52.050917" lon="05.719724"><ele>24.3</ele><time>2021-05-01T13:28:10Z</time><name>PT1751</name></trkpt>
<trkpt lat="52.050925" lon="05.719753"><ele>24.2</ele><time>2021-05-01T13:28:10Z</time><name>PT1752</name></trkpt>
<trkpt lat="52.050933" lon="05.719777"><ele>24.3</ele><time>2021-05-01T13:28:12Z</time><name>PT1753</name></trkpt>
<trkpt lat="52.050937" lon="05.719800"><ele>24</ele><time>2021-05-01T13:28:12Z</time><name>PT1754</name></trkpt>
<trkpt lat="52.050949" lon="05.719829"><ele>24.1</ele><time>2021-05-01T13:28:14Z</time><name>PT1755</name></trkpt>
<trkpt lat="52.050956" lon="05.719845"><ele>24.1</ele><time>2021-05-01T13:28:15Z</time><name>PT1756</name></trkpt>
<trkpt lat="52.050960" lon="05.719848"><ele>24.1</ele><time>2021-05-01T13:28:15Z</time><name>PT1757</name></trkpt>
<trkpt lat="52.050963" lon="05.719848"><ele>24.2</ele><time>2021-05-01T13:28:17Z</time><name>PT1758</name></trkpt>
<trkpt lat="52.050965" lon="05.719854"><ele>24.3</ele><time>2021-05-01T13:28:17Z</time><name>PT1759</name></trkpt>
<trkpt lat="52.050974" lon="05.719868"><ele>24.3</ele><time>2021-05-01T13:28:19Z</time><name>PT1760</name></trkpt>
<trkpt lat="52.050984" lon="05.719896"><ele>24.3</ele><time>2021-05-01T13:28:20Z</time><name>PT1761</name></trkpt>
<trkpt lat="52.050996" lon="05.719923"><ele>24.3</ele><time>2021-05-01T13:28:20Z</time><name>PT1762</name></trkpt>
<trkpt lat="52.051003" lon="05.719948"><ele>24.3</ele><time>2021-05-01T13:28:22Z</time><name>PT1763</name></trkpt>
<trkpt lat="52.051008" lon="05.719971"><ele>24.2</ele><time>2021-05-01T13:28:22Z</time><name>PT1764</name></trkpt>
<trkpt lat="52.051013" lon="05.719981"><ele>24.3</ele><time>2021-05-01T13:28:24Z</time><name>PT1765</name></trkpt>
<trkpt lat="52.051017" lon="05.719993"><ele>24.3</ele><time>2021-05-01T13:28:24Z</time><name>PT1766</name></trkpt>
<trkpt lat="52.051021" lon="05.719998"><ele>24.2</ele><time>2021-05-01T13:28:26Z</time><name>PT1767</name></trkpt>
<trkpt lat="52.051028" lon="05.720004"><ele>24.1</ele><time>2021-05-01T13:28:26Z</time><name>PT1768</name></trkpt>
<trkpt lat="52.051035" lon="05.720012"><ele>24</ele><time>2021-05-01T13:28:28Z</time><name>PT1769</name></trkpt>
<trkpt lat="52.051041" lon="05.720025"><ele>23.8</ele><time>2021-05-01T13:28:28Z</time><name>PT1770</name></trkpt>
<trkpt lat="52.051048" lon="05.720044"><ele>23.8</ele><time>2021-05-01T13:28:30Z</time><name>PT1771</name></trkpt>
<trkpt lat="52.051053" lon="05.720066"><ele>23.8</ele><time>2021-05-01T13:28:30Z</time><name>PT1772</name></trkpt>
<trkpt lat="52.051058" lon="05.720093"><ele>23.8</ele><time>2021-05-01T13:28:32Z</time><name>PT1773</name></trkpt>
<trkpt lat="52.051060" lon="05.720117"><ele>23.8</ele><time>2021-05-01T13:28:32Z</time><name>PT1774</name></trkpt>
<trkpt lat="52.051065" lon="05.720136"><ele>23.8</ele><time>2021-05-01T13:28:34Z</time><name>PT1775</name></trkpt>
<trkpt lat="52.051070" lon="05.720155"><ele>23.8</ele><time>2021-05-01T13:28:34Z</time><name>PT1776</name></trkpt>
<trkpt lat="52.051070" lon="05.720159"><ele>23.6</ele><time>2021-05-01T13:28:36Z</time><name>PT1777</name></trkpt>
<trkpt lat="52.051070" lon="05.720172"><ele>23.8</ele><time>2021-05-01T13:28:37Z</time><name>PT1778</name></trkpt>
<trkpt lat="52.051067" lon="05.720181"><ele>23.8</ele><time>2021-05-01T13:28:37Z</time><name>PT1779</name></trkpt>
<trkpt lat="52.051072" lon="05.720195"><ele>23.9</ele><time>2021-05-01T13:28:39Z</time><name>PT1780</name></trkpt>
<trkpt lat="52.051080" lon="05.720213"><ele>23.9</ele><time>2021-05-01T13:28:40Z</time><name>PT1781</name></trkpt>
<trkpt lat="52.051086" lon="05.720240"><ele>24.1</ele><time>2021-05-01T13:28:40Z</time><name>PT1782</name></trkpt>
<trkpt lat="52.051090" lon="05.720267"><ele>24</ele><time>2021-05-01T13:28:42Z</time><name>PT1783</name></trkpt>
<trkpt lat="52.051078" lon="05.720292"><ele>23.8</ele><time>2021-05-01T13:28:42Z</time><name>PT1784</name></trkpt>
<trkpt lat="52.051078" lon="05.720308"><ele>24</ele><time>2021-05-01T13:28:44Z</time><name>PT1785</name></trkpt>
<trkpt lat="52.051078" lon="05.720323"><ele>23.9</ele><time>2021-05-01T13:28:44Z</time><name>PT1786</name></trkpt>
<trkpt lat="52.051079" lon="05.720329"><ele>23.8</ele><time>2021-05-01T13:28:46Z</time><name>PT1787</name></trkpt>
<trkpt lat="52.051084" lon="05.720341"><ele>23.8</ele><time>2021-05-01T13:28:46Z</time><name>PT1788</name></trkpt>
<trkpt lat="52.051089" lon="05.720356"><ele>23.8</ele><time>2021-05-01T13:28:48Z</time><name>PT1789</name></trkpt>
<trkpt lat="52.051092" lon="05.720387"><ele>23.7</ele><time>2021-05-01T13:28:48Z</time><name>PT1790</name></trkpt>
<trkpt lat="52.051098" lon="05.720420"><ele>23.8</ele><time>2021-05-01T13:28:50Z</time><name>PT1791</name></trkpt>
<trkpt lat="52.051102" lon="05.720449"><ele>23.8</ele><time>2021-05-01T13:28:51Z</time><name>PT1792</name></trkpt>
<trkpt lat="52.051103" lon="05.720467"><ele>23.8</ele><time>2021-05-01T13:28:51Z</time><name>PT1793</name></trkpt>
<trkpt lat="52.051105" lon="05.720482"><ele>24</ele><time>2021-05-01T13:28:53Z</time><name>PT1794</name></trkpt>
<trkpt lat="52.051110" lon="05.720501"><ele>23.9</ele><time>2021-05-01T13:28:53Z</time><name>PT1795</name></trkpt>
<trkpt lat="52.051119" lon="05.720515"><ele>24</ele><time>2021-05-01T13:28:55Z</time><name>PT1796</name></trkpt>
<trkpt lat="52.051127" lon="05.720531"><ele>24.1</ele><time>2021-05-01T13:28:55Z</time><name>PT1797</name></trkpt>
<trkpt lat="52.051134" lon="05.720541"><ele>24.2</ele><time>2021-05-01T13:28:57Z</time><name>PT1798</name></trkpt>
<trkpt lat="52.051148" lon="05.720550"><ele>24.1</ele><time>2021-05-01T13:28:58Z</time><name>PT1799</name></trkpt>
<trkpt lat="52.051151" lon="05.720559"><ele>24.2</ele><time>2021-05-01T13:28:59Z</time><name>PT1800</name></trkpt>
<trkpt lat="52.051159" lon="05.720576"><ele>24.2</ele><time>2021-05-01T13:29:00Z</time><name>PT1801</name></trkpt>
<trkpt lat="52.051166" lon="05.720601"><ele>24.1</ele><time>2021-05-01T13:29:01Z</time><name>PT1802</name></trkpt>
<trkpt lat="52.051177" lon="05.720627"><ele>24</ele><time>2021-05-01T13:29:02Z</time><name>PT1803</name></trkpt>
<trkpt lat="52.051189" lon="05.720652"><ele>24</ele><time>2021-05-01T13:29:03Z</time><name>PT1804</name></trkpt>
<trkpt lat="52.051196" lon="05.720675"><ele>24</ele><time>2021-05-01T13:29:04Z</time><name>PT1805</name></trkpt>
<trkpt lat="52.051207" lon="05.720702"><ele>23.9</ele><time>2021-05-01T13:29:05Z</time><name>PT1806</name></trkpt>
<trkpt lat="52.051212" lon="05.720727"><ele>24</ele><time>2021-05-01T13:29:05Z</time><name>PT1807</name></trkpt>
<trkpt lat="52.051216" lon="05.720742"><ele>24</ele><time>2021-05-01T13:29:07Z</time><name>PT1808</name></trkpt>
<trkpt lat="52.051221" lon="05.720755"><ele>23.9</ele><time>2021-05-01T13:29:07Z</time><name>PT1809</name></trkpt>
<trkpt lat="52.051225" lon="05.720766"><ele>23.8</ele><time>2021-05-01T13:29:09Z</time><name>PT1810</name></trkpt>
<trkpt lat="52.051229" lon="05.720773"><ele>23.8</ele><time>2021-05-01T13:29:09Z</time><name>PT1811</name></trkpt>
<trkpt lat="52.051231" lon="05.720781"><ele>23.8</ele><time>2021-05-01T13:29:11Z</time><name>PT1812</name></trkpt>
<trkpt lat="52.051234" lon="05.720789"><ele>23.9</ele><time>2021-05-01T13:29:11Z</time><name>PT1813</name></trkpt>
<trkpt lat="52.051234" lon="05.720807"><ele>23.9</ele><time>2021-05-01T13:29:13Z</time><name>PT1814</name></trkpt>
<trkpt lat="52.051236" lon="05.720830"><ele>23.9</ele><time>2021-05-01T13:29:13Z</time><name>PT1815</name></trkpt>
<trkpt lat="52.051244" lon="05.720854"><ele>23.8</ele><time>2021-05-01T13:29:15Z</time><name>PT1816</name></trkpt>
<trkpt lat="52.051247" lon="05.720879"><ele>23.6</ele><time>2021-05-01T13:29:15Z</time><name>PT1817</name></trkpt>
<trkpt lat="52.051250" lon="05.720906"><ele>23.7</ele><time>2021-05-01T13:29:17Z</time><name>PT1818</name></trkpt>
<trkpt lat="52.051255" lon="05.720929"><ele>23.6</ele><time>2021-05-01T13:29:17Z</time><name>PT1819</name></trkpt>
<trkpt lat="52.051261" lon="05.720949"><ele>23.7</ele><time>2021-05-01T13:29:19Z</time><name>PT1820</name></trkpt>
<trkpt lat="52.051265" lon="05.720968"><ele>23.8</ele><time>2021-05-01T13:29:19Z</time><name>PT1821</name></trkpt>
<trkpt lat="52.051269" lon="05.720981"><ele>24</ele><time>2021-05-01T13:29:21Z</time><name>PT1822</name></trkpt>
<trkpt lat="52.051275" lon="05.720984"><ele>24</ele><time>2021-05-01T13:29:21Z</time><name>PT1823</name></trkpt>
<trkpt lat="52.051279" lon="05.720988"><ele>24.1</ele><time>2021-05-01T13:29:23Z</time><name>PT1824</name></trkpt>
<trkpt lat="52.051282" lon="05.721004"><ele>23.8</ele><time>2021-05-01T13:29:23Z</time><name>PT1825</name></trkpt>
<trkpt lat="52.051287" lon="05.721016"><ele>23.8</ele><time>2021-05-01T13:29:25Z</time><name>PT1826</name></trkpt>
<trkpt lat="52.051302" lon="05.721040"><ele>23.8</ele><time>2021-05-01T13:29:25Z</time><name>PT1827</name></trkpt>
<trkpt lat="52.051314" lon="05.721064"><ele>23.7</ele><time>2021-05-01T13:29:27Z</time><name>PT1828</name></trkpt>
<trkpt lat="52.051317" lon="05.721085"><ele>23.7</ele><time>2021-05-01T13:29:27Z</time><name>PT1829</name></trkpt>
<trkpt lat="52.051316" lon="05.721106"><ele>23.8</ele><time>2021-05-01T13:29:29Z</time><name>PT1830</name></trkpt>
<trkpt lat="52.051314" lon="05.721138"><ele>23.9</ele><time>2021-05-01T13:29:29Z</time><name>PT1831</name></trkpt>
<trkpt lat="52.051313" lon="05.721170"><ele>23.8</ele><time>2021-05-01T13:29:31Z</time><name>PT1832</name></trkpt>
<trkpt lat="52.051316" lon="05.721192"><ele>23.8</ele><time>2021-05-01T13:29:31Z</time><name>PT1833</name></trkpt>
<trkpt lat="52.051321" lon="05.721206"><ele>23.6</ele><time>2021-05-01T13:29:33Z</time><name>PT1834</name></trkpt>
<trkpt lat="52.051324" lon="05.721216"><ele>23.7</ele><time>2021-05-01T13:29:33Z</time><name>PT1835</name></trkpt>
<trkpt lat="52.051330" lon="05.721218"><ele>23.6</ele><time>2021-05-01T13:29:35Z</time><name>PT1836</name></trkpt>
<trkpt lat="52.051330" lon="05.721219"><ele>23.8</ele><time>2021-05-01T13:29:35Z</time><name>PT1837</name></trkpt>
<trkpt lat="52.051329" lon="05.721227"><ele>23.9</ele><time>2021-05-01T13:29:37Z</time><name>PT1838</name></trkpt>
<trkpt lat="52.051329" lon="05.721240"><ele>24</ele><time>2021-05-01T13:29:37Z</time><name>PT1839</name></trkpt>
<trkpt lat="52.051325" lon="05.721257"><ele>23.9</ele><time>2021-05-01T13:29:39Z</time><name>PT1840</name></trkpt>
<trkpt lat="52.051315" lon="05.721277"><ele>23.9</ele><time>2021-05-01T13:29:39Z</time><name>PT1841</name></trkpt>
<trkpt lat="52.051302" lon="05.721282"><ele>23.8</ele><time>2021-05-01T13:29:41Z</time><name>PT1842</name></trkpt>
<trkpt lat="52.051293" lon="05.721278"><ele>23.6</ele><time>2021-05-01T13:29:41Z</time><name>PT1843</name></trkpt>
<trkpt lat="52.051286" lon="05.721269"><ele>23.6</ele><time>2021-05-01T13:29:43Z</time><name>PT1844</name></trkpt>
<trkpt lat="52.051273" lon="05.721273"><ele>23.5</ele><time>2021-05-01T13:29:43Z</time><name>PT1845</name></trkpt>
<trkpt lat="52.051263" lon="05.721277"><ele>23.6</ele><time>2021-05-01T13:29:45Z</time><name>PT1846</name></trkpt>
<trkpt lat="52.051258" lon="05.721282"><ele>23.6</ele><time>2021-05-01T13:29:45Z</time><name>PT1847</name></trkpt>
<trkpt lat="52.051254" lon="05.721284"><ele>23.7</ele><time>2021-05-01T13:29:47Z</time><name>PT1848</name></trkpt>
<trkpt lat="52.051248" lon="05.721290"><ele>23.8</ele><time>2021-05-01T13:29:47Z</time><name>PT1849</name></trkpt>
<trkpt lat="52.051241" lon="05.721300"><ele>23.9</ele><time>2021-05-01T13:29:49Z</time><name>PT1850</name></trkpt>
<trkpt lat="52.051231" lon="05.721315"><ele>23.8</ele><time>2021-05-01T13:29:49Z</time><name>PT1851</name></trkpt>
<trkpt lat="52.051214" lon="05.721325"><ele>23.8</ele><time>2021-05-01T13:29:51Z</time><name>PT1852</name></trkpt>
<trkpt lat="52.051201" lon="05.721345"><ele>23.8</ele><time>2021-05-01T13:29:51Z</time><name>PT1853</name></trkpt>
<trkpt lat="52.051185" lon="05.721357"><ele>23.8</ele><time>2021-05-01T13:29:53Z</time><name>PT1854</name></trkpt>
<trkpt lat="52.051169" lon="05.721360"><ele>23.8</ele><time>2021-05-01T13:29:53Z</time><name>PT1855</name></trkpt>
<trkpt lat="52.051152" lon="05.721366"><ele>23.8</ele><time>2021-05-01T13:29:55Z</time><name>PT1856</name></trkpt>
<trkpt lat="52.051141" lon="05.721372"><ele>23.9</ele><time>2021-05-01T13:29:55Z</time><name>PT1857</name></trkpt>
<trkpt lat="52.051134" lon="05.721376"><ele>24</ele><time>2021-05-01T13:29:57Z</time><name>PT1858</name></trkpt>
<trkpt lat="52.051130" lon="05.721381"><ele>24.1</ele><time>2021-05-01T13:29:57Z</time><name>PT1859</name></trkpt>
<trkpt lat="52.051128" lon="05.721386"><ele>24.2</ele><time>2021-05-01T13:29:59Z</time><name>PT1860</name></trkpt>
<trkpt lat="52.051127" lon="05.721394"><ele>24.2</ele><time>2021-05-01T13:29:59Z</time><name>PT1861</name></trkpt>
<trkpt lat="52.051126" lon="05.721402"><ele>24</ele><time>2021-05-01T13:30:01Z</time><name>PT1862</name></trkpt>
<trkpt lat="52.051121" lon="05.721409"><ele>24</ele><time>2021-05-01T13:30:01Z</time><name>PT1863</name></trkpt>
<trkpt lat="52.051117" lon="05.721415"><ele>23.8</ele><time>2021-05-01T13:30:03Z</time><name>PT1864</name></trkpt>
<trkpt lat="52.051109" lon="05.721432"><ele>23.8</ele><time>2021-05-01T13:30:03Z</time><name>PT1865</name></trkpt>
<trkpt lat="52.051095" lon="05.721450"><ele>23.7</ele><time>2021-05-01T13:30:05Z</time><name>PT1866</name></trkpt>
<trkpt lat="52.051080" lon="05.721465"><ele>23.7</ele><time>2021-05-01T13:30:05Z</time><name>PT1867</name></trkpt>
<trkpt lat="52.051061" lon="05.721484"><ele>23.7</ele><time>2021-05-01T13:30:07Z</time><name>PT1868</name></trkpt>
<trkpt lat="52.051043" lon="05.721495"><ele>23.7</ele><time>2021-05-01T13:30:07Z</time><name>PT1869</name></trkpt>
<trkpt lat="52.051028" lon="05.721505"><ele>23.7</ele><time>2021-05-01T13:30:09Z</time><name>PT1870</name></trkpt>
<trkpt lat="52.051015" lon="05.721515"><ele>23.8</ele><time>2021-05-01T13:30:10Z</time><name>PT1871</name></trkpt>
<trkpt lat="52.051010" lon="05.721523"><ele>23.7</ele><time>2021-05-01T13:30:10Z</time><name>PT1872</name></trkpt>
<trkpt lat="52.051005" lon="05.721531"><ele>23.5</ele><time>2021-05-01T13:30:12Z</time><name>PT1873</name></trkpt>
<trkpt lat="52.051002" lon="05.721537"><ele>23.4</ele><time>2021-05-01T13:30:12Z</time><name>PT1874</name></trkpt>
<trkpt lat="52.051000" lon="05.721542"><ele>23.4</ele><time>2021-05-01T13:30:14Z</time><name>PT1875</name></trkpt>
<trkpt lat="52.050997" lon="05.721548"><ele>23.5</ele><time>2021-05-01T13:30:14Z</time><name>PT1876</name></trkpt>
<trkpt lat="52.050994" lon="05.721558"><ele>23.7</ele><time>2021-05-01T13:30:16Z</time><name>PT1877</name></trkpt>
<trkpt lat="52.050994" lon="05.721573"><ele>23.9</ele><time>2021-05-01T13:30:16Z</time><name>PT1878</name></trkpt>
<trkpt lat="52.050993" lon="05.721586"><ele>23.9</ele><time>2021-05-01T13:30:18Z</time><name>PT1879</name></trkpt>
<trkpt lat="52.050989" lon="05.721587"><ele>24.1</ele><time>2021-05-01T13:30:18Z</time><name>PT1880</name></trkpt>
<trkpt lat="52.050978" lon="05.721600"><ele>24</ele><time>2021-05-01T13:30:20Z</time><name>PT1881</name></trkpt>
<trkpt lat="52.050969" lon="05.721616"><ele>24</ele><time>2021-05-01T13:30:20Z</time><name>PT1882</name></trkpt>
<trkpt lat="52.050953" lon="05.721627"><ele>24</ele><time>2021-05-01T13:30:22Z</time><name>PT1883</name></trkpt>
<trkpt lat="52.050940" lon="05.721637"><ele>24</ele><time>2021-05-01T13:30:22Z</time><name>PT1884</name></trkpt>
<trkpt lat="52.050928" lon="05.721646"><ele>23.8</ele><time>2021-05-01T13:30:24Z</time><name>PT1885</name></trkpt>
<trkpt lat="52.050913" lon="05.721654"><ele>23.8</ele><time>2021-05-01T13:30:24Z</time><name>PT1886</name></trkpt>
<trkpt lat="52.050898" lon="05.721662"><ele>23.9</ele><time>2021-05-01T13:30:26Z</time><name>PT1887</name></trkpt>
<trkpt lat="52.050885" lon="05.721672"><ele>23.9</ele><time>2021-05-01T13:30:26Z</time><name>PT1888</name></trkpt>
<trkpt lat="52.050876" lon="05.721680"><ele>24.1</ele><time>2021-05-01T13:30:28Z</time><name>PT1889</name></trkpt>
<trkpt lat="52.050870" lon="05.721684"><ele>24.2</ele><time>2021-05-01T13:30:28Z</time><name>PT1890</name></trkpt>
<trkpt lat="52.050864" lon="05.721690"><ele>24</ele><time>2021-05-01T13:30:30Z</time><name>PT1891</name></trkpt>
<trkpt lat="52.050858" lon="05.721696"><ele>24</ele><time>2021-05-01T13:30:30Z</time><name>PT1892</name></trkpt>
<trkpt lat="52.050858" lon="05.721701"><ele>24.1</ele><time>2021-05-01T13:30:32Z</time><name>PT1893</name></trkpt>
<trkpt lat="52.050857" lon="05.721702"><ele>24</ele><time>2021-05-01T13:30:32Z</time><name>PT1894</name></trkpt>
<trkpt lat="52.050851" lon="05.721709"><ele>23.9</ele><time>2021-05-01T13:30:34Z</time><name>PT1895</name></trkpt>
<trkpt lat="52.050844" lon="05.721719"><ele>23.9</ele><time>2021-05-01T13:30:34Z</time><name>PT1896</name></trkpt>
<trkpt lat="52.050837" lon="05.721727"><ele>23.6</ele><time>2021-05-01T13:30:36Z</time><name>PT1897</name></trkpt>
<trkpt lat="52.050828" lon="05.721746"><ele>23.7</ele><time>2021-05-01T13:30:37Z</time><name>PT1898</name></trkpt>
<trkpt lat="52.050821" lon="05.721759"><ele>23.8</ele><time>2021-05-01T13:30:37Z</time><name>PT1899</name></trkpt>
<trkpt lat="52.050812" lon="05.721777"><ele>23.8</ele><time>2021-05-01T13:30:39Z</time><name>PT1900</name></trkpt>
<trkpt lat="52.050798" lon="05.721795"><ele>23.8</ele><time>2021-05-01T13:30:39Z</time><name>PT1901</name></trkpt>
<trkpt lat="52.050782" lon="05.721809"><ele>23.8</ele><time>2021-05-01T13:30:41Z</time><name>PT1902</name></trkpt>
<trkpt lat="52.050761" lon="05.721821"><ele>23.8</ele><time>2021-05-01T13:30:41Z</time><name>PT1903</name></trkpt>
<trkpt lat="52.050739" lon="05.721826"><ele>23.8</ele><time>2021-05-01T13:30:43Z</time><name>PT1904</name></trkpt>
<trkpt lat="52.050723" lon="05.721829"><ele>23.8</ele><time>2021-05-01T13:30:44Z</time><name>PT1905</name></trkpt>
<trkpt lat="52.050712" lon="05.721835"><ele>23.8</ele><time>2021-05-01T13:30:44Z</time><name>PT1906</name></trkpt>
<trkpt lat="52.050704" lon="05.721839"><ele>23.9</ele><time>2021-05-01T13:30:46Z</time><name>PT1907</name></trkpt>
<trkpt lat="52.050702" lon="05.721839"><ele>23.8</ele><time>2021-05-01T13:30:46Z</time><name>PT1908</name></trkpt>
<trkpt lat="52.050698" lon="05.721848"><ele>23.8</ele><time>2021-05-01T13:30:48Z</time><name>PT1909</name></trkpt>
<trkpt lat="52.050688" lon="05.721859"><ele>24.1</ele><time>2021-05-01T13:30:48Z</time><name>PT1910</name></trkpt>
<trkpt lat="52.050677" lon="05.721863"><ele>23.9</ele><time>2021-05-01T13:30:50Z</time><name>PT1911</name></trkpt>
<trkpt lat="52.050664" lon="05.721866"><ele>24</ele><time>2021-05-01T13:30:50Z</time><name>PT1912</name></trkpt>
<trkpt lat="52.050659" lon="05.721880"><ele>23.9</ele><time>2021-05-01T13:30:52Z</time><name>PT1913</name></trkpt>
<trkpt lat="52.050663" lon="05.721888"><ele>23.8</ele><time>2021-05-01T13:30:52Z</time><name>PT1914</name></trkpt>
<trkpt lat="52.050665" lon="05.721891"><ele>24</ele><time>2021-05-01T13:30:54Z</time><name>PT1915</name></trkpt>
<trkpt lat="52.050666" lon="05.721894"><ele>23.8</ele><time>2021-05-01T13:30:54Z</time><name>PT1916</name></trkpt>
<trkpt lat="52.050664" lon="05.721897"><ele>23.7</ele><time>2021-05-01T13:30:56Z</time><name>PT1917</name></trkpt>
<trkpt lat="52.050665" lon="05.721898"><ele>23.8</ele><time>2021-05-01T13:30:56Z</time><name>PT1918</name></trkpt>
<trkpt lat="52.050661" lon="05.721899"><ele>23.7</ele><time>2021-05-01T13:30:58Z</time><name>PT1919</name></trkpt>
<trkpt lat="52.050659" lon="05.721901"><ele>23.8</ele><time>2021-05-01T13:30:58Z</time><name>PT1920</name></trkpt>
<trkpt lat="52.050660" lon="05.721901"><ele>23.8</ele><time>2021-05-01T13:31:00Z</time><name>PT1921</name></trkpt>
<trkpt lat="52.050662" lon="05.721903"><ele>23.9</ele><time>2021-05-01T13:31:00Z</time><name>PT1922</name></trkpt>
<trkpt lat="52.050663" lon="05.721905"><ele>23.9</ele><time>2021-05-01T13:31:02Z</time><name>PT1923</name></trkpt>
<trkpt lat="52.050661" lon="05.721907"><ele>23.8</ele><time>2021-05-01T13:31:02Z</time><name>PT1924</name></trkpt>
<trkpt lat="52.050661" lon="05.721906"><ele>23.8</ele><time>2021-05-01T13:31:04Z</time><name>PT1925</name></trkpt>
<trkpt lat="52.050662" lon="05.721906"><ele>23.8</ele><time>2021-05-01T13:31:04Z</time><name>PT1926</name></trkpt>
<trkpt lat="52.050663" lon="05.721905"><ele>23.9</ele><time>2021-05-01T13:31:06Z</time><name>PT1927</name></trkpt>
<trkpt lat="52.050661" lon="05.721901"><ele>24.2</ele><time>2021-05-01T13:31:06Z</time><name>PT1928</name></trkpt>
<trkpt lat="52.050660" lon="05.721896"><ele>24.1</ele><time>2021-05-01T13:31:08Z</time><name>PT1929</name></trkpt>
<trkpt lat="52.050663" lon="05.721899"><ele>24.1</ele><time>2021-05-01T13:31:08Z</time><name>PT1930</name></trkpt>
<trkpt lat="52.050672" lon="05.721889"><ele>24</ele><time>2021-05-01T13:31:10Z</time><name>PT1931</name></trkpt>
<trkpt lat="52.050680" lon="05.721884"><ele>24</ele><time>2021-05-01T13:31:10Z</time><name>PT1932</name></trkpt>
<trkpt lat="52.050688" lon="05.721872"><ele>24.1</ele><time>2021-05-01T13:31:12Z</time><name>PT1933</name></trkpt>
<trkpt lat="52.050699" lon="05.721864"><ele>24.3</ele><time>2021-05-01T13:31:12Z</time><name>PT1934</name></trkpt>
<trkpt lat="52.050708" lon="05.721858"><ele>24.2</ele><time>2021-05-01T13:31:14Z</time><name>PT1935</name></trkpt>
<trkpt lat="52.050713" lon="05.721850"><ele>24.2</ele><time>2021-05-01T13:31:14Z</time><name>PT1936</name></trkpt>
<trkpt lat="52.050721" lon="05.721850"><ele>24.2</ele><time>2021-05-01T13:31:16Z</time><name>PT1937</name></trkpt>
<trkpt lat="52.050726" lon="05.721849"><ele>24.3</ele><time>2021-05-01T13:31:16Z</time><name>PT1938</name></trkpt>
<trkpt lat="52.050731" lon="05.721851"><ele>24.3</ele><time>2021-05-01T13:31:18Z</time><name>PT1939</name></trkpt>
<trkpt lat="52.050736" lon="05.721840"><ele>24.3</ele><time>2021-05-01T13:31:18Z</time><name>PT1940</name></trkpt>
<trkpt lat="52.050747" lon="05.721831"><ele>24.2</ele><time>2021-05-01T13:31:20Z</time><name>PT1941</name></trkpt>
<trkpt lat="52.050758" lon="05.721826"><ele>24.1</ele><time>2021-05-01T13:31:20Z</time><name>PT1942</name></trkpt>
<trkpt lat="52.050768" lon="05.721816"><ele>23.8</ele><time>2021-05-01T13:31:22Z</time><name>PT1943</name></trkpt>
<trkpt lat="52.050784" lon="05.721807"><ele>24.1</ele><time>2021-05-01T13:31:22Z</time><name>PT1944</name></trkpt>
<trkpt lat="52.050800" lon="05.721800"><ele>24</ele><time>2021-05-01T13:31:24Z</time><name>PT1945</name></trkpt>
<trkpt lat="52.050814" lon="05.721800"><ele>24.1</ele><time>2021-05-01T13:31:24Z</time><name>PT1946</name></trkpt>
<trkpt lat="52.050818" lon="05.721803"><ele>24.1</ele><time>2021-05-01T13:31:26Z</time><name>PT1947</name></trkpt>
<trkpt lat="52.050822" lon="05.721802"><ele>24.1</ele><time>2021-05-01T13:31:26Z</time><name>PT1948</name></trkpt>
<trkpt lat="52.050825" lon="05.721797"><ele>24.2</ele><time>2021-05-01T13:31:28Z</time><name>PT1949</name></trkpt>
<trkpt lat="52.050827" lon="05.721795"><ele>24.2</ele><time>2021-05-01T13:31:28Z</time><name>PT1950</name></trkpt>
<trkpt lat="52.050838" lon="05.721786"><ele>24.1</ele><time>2021-05-01T13:31:30Z</time><name>PT1951</name></trkpt>
<trkpt lat="52.050845" lon="05.721774"><ele>24.3</ele><time>2021-05-01T13:31:30Z</time><name>PT1952</name></trkpt>
<trkpt lat="52.050850" lon="05.721768"><ele>24.2</ele><time>2021-05-01T13:31:32Z</time><name>PT1953</name></trkpt>
<trkpt lat="52.050856" lon="05.721766"><ele>24</ele><time>2021-05-01T13:31:32Z</time><name>PT1954</name></trkpt>
<trkpt lat="52.050872" lon="05.721761"><ele>24</ele><time>2021-05-01T13:31:34Z</time><name>PT1955</name></trkpt>
<trkpt lat="52.050886" lon="05.721767"><ele>24</ele><time>2021-05-01T13:31:34Z</time><name>PT1956</name></trkpt>
<trkpt lat="52.050897" lon="05.721766"><ele>23.9</ele><time>2021-05-01T13:31:36Z</time><name>PT1957</name></trkpt>
<trkpt lat="52.050903" lon="05.721758"><ele>24.1</ele><time>2021-05-01T13:31:36Z</time><name>PT1958</name></trkpt>
<trkpt lat="52.050911" lon="05.721757"><ele>24.1</ele><time>2021-05-01T13:31:38Z</time><name>PT1959</name></trkpt>
<trkpt lat="52.050925" lon="05.721758"><ele>24.2</ele><time>2021-05-01T13:31:38Z</time><name>PT1960</name></trkpt>
<trkpt lat="52.050934" lon="05.721757"><ele>24.1</ele><time>2021-05-01T13:31:40Z</time><name>PT1961</name></trkpt>
<trkpt lat="52.050943" lon="05.721729"><ele>24.1</ele><time>2021-05-01T13:31:40Z</time><name>PT1962</name></trkpt>
<trkpt lat="52.050955" lon="05.721706"><ele>24.1</ele><time>2021-05-01T13:31:42Z</time><name>PT1963</name></trkpt>
<trkpt lat="52.050973" lon="05.721674"><ele>24.1</ele><time>2021-05-01T13:31:43Z</time><name>PT1964</name></trkpt>
<trkpt lat="52.050979" lon="05.721655"><ele>24</ele><time>2021-05-01T13:31:43Z</time><name>PT1965</name></trkpt>
<trkpt lat="52.050997" lon="05.721633"><ele>24</ele><time>2021-05-01T13:31:45Z</time><name>PT1966</name></trkpt>
<trkpt lat="52.051012" lon="05.721619"><ele>23.9</ele><time>2021-05-01T13:31:45Z</time><name>PT1967</name></trkpt>
<trkpt lat="52.051023" lon="05.721611"><ele>23.9</ele><time>2021-05-01T13:31:47Z</time><name>PT1968</name></trkpt>
<trkpt lat="52.051031" lon="05.721601"><ele>23.9</ele><time>2021-05-01T13:31:47Z</time><name>PT1969</name></trkpt>
<trkpt lat="52.051036" lon="05.721591"><ele>24.1</ele><time>2021-05-01T13:31:49Z</time><name>PT1970</name></trkpt>
<trkpt lat="52.051037" lon="05.721587"><ele>24</ele><time>2021-05-01T13:31:49Z</time><name>PT1971</name></trkpt>
<trkpt lat="52.051041" lon="05.721581"><ele>24.1</ele><time>2021-05-01T13:31:51Z</time><name>PT1972</name></trkpt>
<trkpt lat="52.051051" lon="05.721570"><ele>24</ele><time>2021-05-01T13:31:51Z</time><name>PT1973</name></trkpt>
<trkpt lat="52.051068" lon="05.721551"><ele>24</ele><time>2021-05-01T13:31:53Z</time><name>PT1974</name></trkpt>
<trkpt lat="52.051084" lon="05.721525"><ele>24</ele><time>2021-05-01T13:31:54Z</time><name>PT1975</name></trkpt>
<trkpt lat="52.051100" lon="05.721502"><ele>23.9</ele><time>2021-05-01T13:31:54Z</time><name>PT1976</name></trkpt>
<trkpt lat="52.051119" lon="05.721484"><ele>24.3</ele><time>2021-05-01T13:31:56Z</time><name>PT1977</name></trkpt>
<trkpt lat="52.051134" lon="05.721467"><ele>24.3</ele><time>2021-05-01T13:31:56Z</time><name>PT1978</name></trkpt>
<trkpt lat="52.051148" lon="05.721452"><ele>24.8</ele><time>2021-05-01T13:31:58Z</time><name>PT1979</name></trkpt>
<trkpt lat="52.051160" lon="05.721440"><ele>24.7</ele><time>2021-05-01T13:31:59Z</time><name>PT1980</name></trkpt>
<trkpt lat="52.051172" lon="05.721429"><ele>24.8</ele><time>2021-05-01T13:31:59Z</time><name>PT1981</name></trkpt>
<trkpt lat="52.051186" lon="05.721417"><ele>24.7</ele><time>2021-05-01T13:32:01Z</time><name>PT1982</name></trkpt>
<trkpt lat="52.051198" lon="05.721406"><ele>24.6</ele><time>2021-05-01T13:32:01Z</time><name>PT1983</name></trkpt>
<trkpt lat="52.051208" lon="05.721399"><ele>24.3</ele><time>2021-05-01T13:32:03Z</time><name>PT1984</name></trkpt>
<trkpt lat="52.051215" lon="05.721398"><ele>24.4</ele><time>2021-05-01T13:32:04Z</time><name>PT1985</name></trkpt>
<trkpt lat="52.051219" lon="05.721397"><ele>24.3</ele><time>2021-05-01T13:32:04Z</time><name>PT1986</name></trkpt>
<trkpt lat="52.051224" lon="05.721392"><ele>24.2</ele><time>2021-05-01T13:32:06Z</time><name>PT1987</name></trkpt>
<trkpt lat="52.051235" lon="05.721380"><ele>24.2</ele><time>2021-05-01T13:32:07Z</time><name>PT1988</name></trkpt>
<trkpt lat="52.051250" lon="05.721364"><ele>24.3</ele><time>2021-05-01T13:32:07Z</time><name>PT1989</name></trkpt>
<trkpt lat="52.051270" lon="05.721351"><ele>24.2</ele><time>2021-05-01T13:32:09Z</time><name>PT1990</name></trkpt>
<trkpt lat="52.051287" lon="05.721342"><ele>24.1</ele><time>2021-05-01T13:32:10Z</time><name>PT1991</name></trkpt>
<trkpt lat="52.051302" lon="05.721330"><ele>24.1</ele><time>2021-05-01T13:32:10Z</time><name>PT1992</name></trkpt>
<trkpt lat="52.051314" lon="05.721325"><ele>24.2</ele><time>2021-05-01T13:32:12Z</time><name>PT1993</name></trkpt>
<trkpt lat="52.051322" lon="05.721328"><ele>24</ele><time>2021-05-01T13:32:12Z</time><name>PT1994</name></trkpt>
<trkpt lat="52.051332" lon="05.721322"><ele>24.1</ele><time>2021-05-01T13:32:14Z</time><name>PT1995</name></trkpt>
<trkpt lat="52.051337" lon="05.721323"><ele>24.2</ele><time>2021-05-01T13:32:14Z</time><name>PT1996</name></trkpt>
<trkpt lat="52.051345" lon="05.721321"><ele>24</ele><time>2021-05-01T13:32:16Z</time><name>PT1997</name></trkpt>
<trkpt lat="52.051356" lon="05.721317"><ele>24</ele><time>2021-05-01T13:32:17Z</time><name>PT1998</name></trkpt>
<trkpt lat="52.051368" lon="05.721324"><ele>24.1</ele><time>2021-05-01T13:32:17Z</time><name>PT1999</name></trkpt>
<trkpt lat="52.051378" lon="05.721328"><ele>23.9</ele><time>2021-05-01T13:32:19Z</time><name>PT2000</name></trkpt>
<trkpt lat="52.051380" lon="05.721337"><ele>23.8</ele><time>2021-05-01T13:32:19Z</time><name>PT2001</name></trkpt>
<trkpt lat="52.051377" lon="05.721331"><ele>24.2</ele><time>2021-05-01T13:32:21Z</time><name>PT2002</name></trkpt>
<trkpt lat="52.051376" lon="05.721326"><ele>24.2</ele><time>2021-05-01T13:32:21Z</time><name>PT2003</name></trkpt>
<trkpt lat="52.051377" lon="05.721322"><ele>24.3</ele><time>2021-05-01T13:32:23Z</time><name>PT2004</name></trkpt>
<trkpt lat="52.051381" lon="05.721334"><ele>23.8</ele><time>2021-05-01T13:32:25Z</time><name>PT2005</name></trkpt>
<trkpt lat="52.051384" lon="05.721353"><ele>24</ele><time>2021-05-01T13:32:27Z</time><name>PT2006</name></trkpt>
<trkpt lat="52.051384" lon="05.721373"><ele>24.1</ele><time>2021-05-01T13:32:27Z</time><name>PT2007</name></trkpt>
<trkpt lat="52.051385" lon="05.721406"><ele>24.1</ele><time>2021-05-01T13:32:29Z</time><name>PT2008</name></trkpt>
<trkpt lat="52.051391" lon="05.721434"><ele>24.3</ele><time>2021-05-01T13:32:29Z</time><name>PT2009</name></trkpt>
<trkpt lat="52.051395" lon="05.721461"><ele>24.3</ele><time>2021-05-01T13:32:31Z</time><name>PT2010</name></trkpt>
<trkpt lat="52.051395" lon="05.721474"><ele>24.2</ele><time>2021-05-01T13:32:31Z</time><name>PT2011</name></trkpt>
<trkpt lat="52.051396" lon="05.721469"><ele>23.9</ele><time>2021-05-01T13:32:33Z</time><name>PT2012</name></trkpt>
<trkpt lat="52.051397" lon="05.721471"><ele>23.8</ele><time>2021-05-01T13:32:33Z</time><name>PT2013</name></trkpt>
<trkpt lat="52.051399" lon="05.721479"><ele>23.8</ele><time>2021-05-01T13:32:35Z</time><name>PT2014</name></trkpt>
<trkpt lat="52.051400" lon="05.721490"><ele>23.7</ele><time>2021-05-01T13:32:36Z</time><name>PT2015</name></trkpt>
<trkpt lat="52.051400" lon="05.721496"><ele>23.7</ele><time>2021-05-01T13:32:36Z</time><name>PT2016</name></trkpt>
<trkpt lat="52.051404" lon="05.721505"><ele>23.8</ele><time>2021-05-01T13:32:38Z</time><name>PT2017</name></trkpt>
<trkpt lat="52.051407" lon="05.721511"><ele>24.1</ele><time>2021-05-01T13:32:38Z</time><name>PT2018</name></trkpt>
<trkpt lat="52.051410" lon="05.721514"><ele>24</ele><time>2021-05-01T13:32:40Z</time><name>PT2019</name></trkpt>
<trkpt lat="52.051414" lon="05.721538"><ele>24</ele><time>2021-05-01T13:32:41Z</time><name>PT2020</name></trkpt>
<trkpt lat="52.051418" lon="05.721566"><ele>24.2</ele><time>2021-05-01T13:32:41Z</time><name>PT2021</name></trkpt>
<trkpt lat="52.051422" lon="05.721588"><ele>24</ele><time>2021-05-01T13:32:43Z</time><name>PT2022</name></trkpt>
<trkpt lat="52.051414" lon="05.721611"><ele>23.8</ele><time>2021-05-01T13:32:43Z</time><name>PT2023</name></trkpt>
<trkpt lat="52.051414" lon="05.721637"><ele>24.2</ele><time>2021-05-01T13:32:45Z</time><name>PT2024</name></trkpt>
<trkpt lat="52.051421" lon="05.721661"><ele>24.2</ele><time>2021-05-01T13:32:45Z</time><name>PT2025</name></trkpt>
<trkpt lat="52.051425" lon="05.721681"><ele>24.1</ele><time>2021-05-01T13:32:47Z</time><name>PT2026</name></trkpt>
<trkpt lat="52.051428" lon="05.721690"><ele>24.1</ele><time>2021-05-01T13:32:47Z</time><name>PT2027</name></trkpt>
<trkpt lat="52.051429" lon="05.721698"><ele>24.1</ele><time>2021-05-01T13:32:49Z</time><name>PT2028</name></trkpt>
<trkpt lat="52.051431" lon="05.721705"><ele>24.1</ele><time>2021-05-01T13:32:49Z</time><name>PT2029</name></trkpt>
<trkpt lat="52.051435" lon="05.721716"><ele>24</ele><time>2021-05-01T13:32:51Z</time><name>PT2030</name></trkpt>
<trkpt lat="52.051439" lon="05.721743"><ele>24</ele><time>2021-05-01T13:32:52Z</time><name>PT2031</name></trkpt>
<trkpt lat="52.051443" lon="05.721769"><ele>24.1</ele><time>2021-05-01T13:32:52Z</time><name>PT2032</name></trkpt>
<trkpt lat="52.051450" lon="05.721804"><ele>24.1</ele><time>2021-05-01T13:32:54Z</time><name>PT2033</name></trkpt>
<trkpt lat="52.051453" lon="05.721826"><ele>24.1</ele><time>2021-05-01T13:32:55Z</time><name>PT2034</name></trkpt>
<trkpt lat="52.051457" lon="05.721834"><ele>24.2</ele><time>2021-05-01T13:32:55Z</time><name>PT2035</name></trkpt>
<trkpt lat="52.051458" lon="05.721838"><ele>24.2</ele><time>2021-05-01T13:32:57Z</time><name>PT2036</name></trkpt>
<trkpt lat="52.051464" lon="05.721843"><ele>24.2</ele><time>2021-05-01T13:32:57Z</time><name>PT2037</name></trkpt>
<trkpt lat="52.051467" lon="05.721851"><ele>24.2</ele><time>2021-05-01T13:32:59Z</time><name>PT2038</name></trkpt>
<trkpt lat="52.051469" lon="05.721857"><ele>24.1</ele><time>2021-05-01T13:32:59Z</time><name>PT2039</name></trkpt>
<trkpt lat="52.051472" lon="05.721872"><ele>24.1</ele><time>2021-05-01T13:33:01Z</time><name>PT2040</name></trkpt>
<trkpt lat="52.051473" lon="05.721895"><ele>24.2</ele><time>2021-05-01T13:33:02Z</time><name>PT2041</name></trkpt>
<trkpt lat="52.051475" lon="05.721924"><ele>24.1</ele><time>2021-05-01T13:33:02Z</time><name>PT2042</name></trkpt>
<trkpt lat="52.051481" lon="05.721952"><ele>24.1</ele><time>2021-05-01T13:33:04Z</time><name>PT2043</name></trkpt>
<trkpt lat="52.051486" lon="05.721974"><ele>24</ele><time>2021-05-01T13:33:04Z</time><name>PT2044</name></trkpt>
<trkpt lat="52.051487" lon="05.721978"><ele>24.1</ele><time>2021-05-01T13:33:06Z</time><name>PT2045</name></trkpt>
<trkpt lat="52.051492" lon="05.721986"><ele>23.9</ele><time>2021-05-01T13:33:07Z</time><name>PT2046</name></trkpt>
<trkpt lat="52.051497" lon="05.722000"><ele>24</ele><time>2021-05-01T13:33:08Z</time><name>PT2047</name></trkpt>
<trkpt lat="52.051498" lon="05.722019"><ele>23.9</ele><time>2021-05-01T13:33:09Z</time><name>PT2048</name></trkpt>
<trkpt lat="52.051500" lon="05.722049"><ele>23.9</ele><time>2021-05-01T13:33:10Z</time><name>PT2049</name></trkpt>
<trkpt lat="52.051499" lon="05.722072"><ele>23.8</ele><time>2021-05-01T13:33:11Z</time><name>PT2050</name></trkpt>
<trkpt lat="52.051504" lon="05.722095"><ele>23.8</ele><time>2021-05-01T13:33:12Z</time><name>PT2051</name></trkpt>
<trkpt lat="52.051508" lon="05.722112"><ele>23.7</ele><time>2021-05-01T13:33:12Z</time><name>PT2052</name></trkpt>
<trkpt lat="52.051511" lon="05.722126"><ele>23.8</ele><time>2021-05-01T13:33:14Z</time><name>PT2053</name></trkpt>
<trkpt lat="52.051514" lon="05.722135"><ele>23.8</ele><time>2021-05-01T13:33:14Z</time><name>PT2054</name></trkpt>
<trkpt lat="52.051517" lon="05.722136"><ele>24</ele><time>2021-05-01T13:33:16Z</time><name>PT2055</name></trkpt>
<trkpt lat="52.051517" lon="05.722146"><ele>24.2</ele><time>2021-05-01T13:33:16Z</time><name>PT2056</name></trkpt>
<trkpt lat="52.051523" lon="05.722176"><ele>24.2</ele><time>2021-05-01T13:33:18Z</time><name>PT2057</name></trkpt>
<trkpt lat="52.051528" lon="05.722203"><ele>24.3</ele><time>2021-05-01T13:33:18Z</time><name>PT2058</name></trkpt>
<trkpt lat="52.051530" lon="05.722226"><ele>24.3</ele><time>2021-05-01T13:33:20Z</time><name>PT2059</name></trkpt>
<trkpt lat="52.051528" lon="05.722251"><ele>24.3</ele><time>2021-05-01T13:33:20Z</time><name>PT2060</name></trkpt>
<trkpt lat="52.051531" lon="05.722280"><ele>24.1</ele><time>2021-05-01T13:33:22Z</time><name>PT2061</name></trkpt>
<trkpt lat="52.051533" lon="05.722300"><ele>24.1</ele><time>2021-05-01T13:33:22Z</time><name>PT2062</name></trkpt>
<trkpt lat="52.051537" lon="05.722317"><ele>24.1</ele><time>2021-05-01T13:33:24Z</time><name>PT2063</name></trkpt>
<trkpt lat="52.051541" lon="05.722334"><ele>24</ele><time>2021-05-01T13:33:24Z</time><name>PT2064</name></trkpt>
<trkpt lat="52.051544" lon="05.722352"><ele>24</ele><time>2021-05-01T13:33:26Z</time><name>PT2065</name></trkpt>
<trkpt lat="52.051548" lon="05.722365"><ele>24.1</ele><time>2021-05-01T13:33:26Z</time><name>PT2066</name></trkpt>
<trkpt lat="52.051549" lon="05.722376"><ele>24.1</ele><time>2021-05-01T13:33:28Z</time><name>PT2067</name></trkpt>
<trkpt lat="52.051549" lon="05.722391"><ele>24.1</ele><time>2021-05-01T13:33:28Z</time><name>PT2068</name></trkpt>
<trkpt lat="52.051549" lon="05.722404"><ele>24.3</ele><time>2021-05-01T13:33:30Z</time><name>PT2069</name></trkpt>
<trkpt lat="52.051551" lon="05.722419"><ele>24.4</ele><time>2021-05-01T13:33:30Z</time><name>PT2070</name></trkpt>
<trkpt lat="52.051553" lon="05.722439"><ele>24.5</ele><time>2021-05-01T13:33:32Z</time><name>PT2071</name></trkpt>
<trkpt lat="52.051557" lon="05.722461"><ele>24.5</ele><time>2021-05-01T13:33:32Z</time><name>PT2072</name></trkpt>
<trkpt lat="52.051557" lon="05.722481"><ele>24.5</ele><time>2021-05-01T13:33:34Z</time><name>PT2073</name></trkpt>
<trkpt lat="52.051562" lon="05.722497"><ele>24.5</ele><time>2021-05-01T13:33:34Z</time><name>PT2074</name></trkpt>
<trkpt lat="52.051567" lon="05.722516"><ele>24.3</ele><time>2021-05-01T13:33:36Z</time><name>PT2075</name></trkpt>
<trkpt lat="52.051576" lon="05.722533"><ele>24.2</ele><time>2021-05-01T13:33:36Z</time><name>PT2076</name></trkpt>
<trkpt lat="52.051585" lon="05.722549"><ele>24.3</ele><time>2021-05-01T13:33:38Z</time><name>PT2077</name></trkpt>
<trkpt lat="52.051594" lon="05.722564"><ele>24.3</ele><time>2021-05-01T13:33:38Z</time><name>PT2078</name></trkpt>
<trkpt lat="52.051600" lon="05.722584"><ele>24.3</ele><time>2021-05-01T13:33:40Z</time><name>PT2079</name></trkpt>
<trkpt lat="52.051601" lon="05.722597"><ele>24.3</ele><time>2021-05-01T13:33:40Z</time><name>PT2080</name></trkpt>
<trkpt lat="52.051603" lon="05.722615"><ele>24.3</ele><time>2021-05-01T13:33:42Z</time><name>PT2081</name></trkpt>
<trkpt lat="52.051608" lon="05.722633"><ele>24.4</ele><time>2021-05-01T13:33:42Z</time><name>PT2082</name></trkpt>
<trkpt lat="52.051607" lon="05.722652"><ele>24.4</ele><time>2021-05-01T13:33:44Z</time><name>PT2083</name></trkpt>
<trkpt lat="52.051614" lon="05.722666"><ele>24.4</ele><time>2021-05-01T13:33:44Z</time><name>PT2084</name></trkpt>
<trkpt lat="52.051622" lon="05.722684"><ele>24.4</ele><time>2021-05-01T13:33:46Z</time><name>PT2085</name></trkpt>
<trkpt lat="52.051626" lon="05.722697"><ele>24.3</ele><time>2021-05-01T13:33:46Z</time><name>PT2086</name></trkpt>
<trkpt lat="52.051630" lon="05.722714"><ele>24.3</ele><time>2021-05-01T13:33:48Z</time><name>PT2087</name></trkpt>
<trkpt lat="52.051632" lon="05.722735"><ele>24.3</ele><time>2021-05-01T13:33:48Z</time><name>PT2088</name></trkpt>
<trkpt lat="52.051639" lon="05.722756"><ele>24.3</ele><time>2021-05-01T13:33:50Z</time><name>PT2089</name></trkpt>
<trkpt lat="52.051649" lon="05.722777"><ele>24.2</ele><time>2021-05-01T13:33:50Z</time><name>PT2090</name></trkpt>
<trkpt lat="52.051654" lon="05.722798"><ele>24.4</ele><time>2021-05-01T13:33:52Z</time><name>PT2091</name></trkpt>
<trkpt lat="52.051660" lon="05.722817"><ele>24.3</ele><time>2021-05-01T13:33:52Z</time><name>PT2092</name></trkpt>
<trkpt lat="52.051666" lon="05.722838"><ele>24.4</ele><time>2021-05-01T13:33:54Z</time><name>PT2093</name></trkpt>
<trkpt lat="52.051673" lon="05.722857"><ele>24.5</ele><time>2021-05-01T13:33:54Z</time><name>PT2094</name></trkpt>
<trkpt lat="52.051682" lon="05.722873"><ele>24.4</ele><time>2021-05-01T13:33:56Z</time><name>PT2095</name></trkpt>
<trkpt lat="52.051690" lon="05.722899"><ele>24.4</ele><time>2021-05-01T13:33:56Z</time><name>PT2096</name></trkpt>
<trkpt lat="52.051697" lon="05.722916"><ele>24.6</ele><time>2021-05-01T13:33:58Z</time><name>PT2097</name></trkpt>
<trkpt lat="52.051703" lon="05.722930"><ele>24.5</ele><time>2021-05-01T13:33:58Z</time><name>PT2098</name></trkpt>
<trkpt lat="52.051709" lon="05.722947"><ele>24.7</ele><time>2021-05-01T13:34:00Z</time><name>PT2099</name></trkpt>
<trkpt lat="52.051713" lon="05.722961"><ele>24.8</ele><time>2021-05-01T13:34:00Z</time><name>PT2100</name></trkpt>
<trkpt lat="52.051717" lon="05.722975"><ele>24.7</ele><time>2021-05-01T13:34:02Z</time><name>PT2101</name></trkpt>
<trkpt lat="52.051719" lon="05.722992"><ele>24.7</ele><time>2021-05-01T13:34:02Z</time><name>PT2102</name></trkpt>
<trkpt lat="52.051721" lon="05.723006"><ele>24.7</ele><time>2021-05-01T13:34:04Z</time><name>PT2103</name></trkpt>
<trkpt lat="52.051727" lon="05.723017"><ele>24.6</ele><time>2021-05-01T13:34:04Z</time><name>PT2104</name></trkpt>
<trkpt lat="52.051732" lon="05.723030"><ele>24.4</ele><time>2021-05-01T13:34:06Z</time><name>PT2105</name></trkpt>
<trkpt lat="52.051738" lon="05.723045"><ele>24.5</ele><time>2021-05-01T13:34:06Z</time><name>PT2106</name></trkpt>
<trkpt lat="52.051738" lon="05.723065"><ele>24.6</ele><time>2021-05-01T13:34:08Z</time><name>PT2107</name></trkpt>
<trkpt lat="52.051741" lon="05.723081"><ele>24.6</ele><time>2021-05-01T13:34:08Z</time><name>PT2108</name></trkpt>
<trkpt lat="52.051742" lon="05.723099"><ele>24.6</ele><time>2021-05-01T13:34:10Z</time><name>PT2109</name></trkpt>
<trkpt lat="52.051742" lon="05.723120"><ele>24.7</ele><time>2021-05-01T13:34:10Z</time><name>PT2110</name></trkpt>
<trkpt lat="52.051742" lon="05.723141"><ele>24.6</ele><time>2021-05-01T13:34:12Z</time><name>PT2111</name></trkpt>
<trkpt lat="52.051741" lon="05.723161"><ele>24.5</ele><time>2021-05-01T13:34:12Z</time><name>PT2112</name></trkpt>
<trkpt lat="52.051739" lon="05.723182"><ele>24.5</ele><time>2021-05-01T13:34:14Z</time><name>PT2113</name></trkpt>
<trkpt lat="52.051738" lon="05.723206"><ele>24.3</ele><time>2021-05-01T13:34:14Z</time><name>PT2114</name></trkpt>
<trkpt lat="52.051735" lon="05.723229"><ele>24.3</ele><time>2021-05-01T13:34:16Z</time><name>PT2115</name></trkpt>
<trkpt lat="52.051731" lon="05.723251"><ele>24.3</ele><time>2021-05-01T13:34:16Z</time><name>PT2116</name></trkpt>
<trkpt lat="52.051732" lon="05.723268"><ele>24.4</ele><time>2021-05-01T13:34:18Z</time><name>PT2117</name></trkpt>
<trkpt lat="52.051728" lon="05.723283"><ele>24.3</ele><time>2021-05-01T13:34:18Z</time><name>PT2118</name></trkpt>
<trkpt lat="52.051723" lon="05.723305"><ele>24.4</ele><time>2021-05-01T13:34:20Z</time><name>PT2119</name></trkpt>
<trkpt lat="52.051717" lon="05.723324"><ele>24.4</ele><time>2021-05-01T13:34:20Z</time><name>PT2120</name></trkpt>
<trkpt lat="52.051706" lon="05.723338"><ele>24.5</ele><time>2021-05-01T13:34:22Z</time><name>PT2121</name></trkpt>
<trkpt lat="52.051699" lon="05.723352"><ele>24.5</ele><time>2021-05-01T13:34:22Z</time><name>PT2122</name></trkpt>
<trkpt lat="52.051690" lon="05.723365"><ele>24.3</ele><time>2021-05-01T13:34:24Z</time><name>PT2123</name></trkpt>
<trkpt lat="52.051685" lon="05.723381"><ele>24.3</ele><time>2021-05-01T13:34:24Z</time><name>PT2124</name></trkpt>
<trkpt lat="52.051679" lon="05.723389"><ele>24.3</ele><time>2021-05-01T13:34:26Z</time><name>PT2125</name></trkpt>
<trkpt lat="52.051672" lon="05.723398"><ele>24.2</ele><time>2021-05-01T13:34:26Z</time><name>PT2126</name></trkpt>
<trkpt lat="52.051666" lon="05.723410"><ele>24.2</ele><time>2021-05-01T13:34:28Z</time><name>PT2127</name></trkpt>
<trkpt lat="52.051661" lon="05.723427"><ele>24.2</ele><time>2021-05-01T13:34:28Z</time><name>PT2128</name></trkpt>
<trkpt lat="52.051654" lon="05.723445"><ele>24.2</ele><time>2021-05-01T13:34:30Z</time><name>PT2129</name></trkpt>
<trkpt lat="52.051644" lon="05.723465"><ele>24.3</ele><time>2021-05-01T13:34:30Z</time><name>PT2130</name></trkpt>
<trkpt lat="52.051637" lon="05.723485"><ele>24</ele><time>2021-05-01T13:34:32Z</time><name>PT2131</name></trkpt>
<trkpt lat="52.051629" lon="05.723504"><ele>24.1</ele><time>2021-05-01T13:34:32Z</time><name>PT2132</name></trkpt>
<trkpt lat="52.051624" lon="05.723518"><ele>24.3</ele><time>2021-05-01T13:34:34Z</time><name>PT2133</name></trkpt>
<trkpt lat="52.051618" lon="05.723536"><ele>24.3</ele><time>2021-05-01T13:34:34Z</time><name>PT2134</name></trkpt>
<trkpt lat="52.051610" lon="05.723553"><ele>24.3</ele><time>2021-05-01T13:34:36Z</time><name>PT2135</name></trkpt>
<trkpt lat="52.051600" lon="05.723564"><ele>24.3</ele><time>2021-05-01T13:34:37Z</time><name>PT2136</name></trkpt>
<trkpt lat="52.051589" lon="05.723574"><ele>24.4</ele><time>2021-05-01T13:34:38Z</time><name>PT2137</name></trkpt>
<trkpt lat="52.051579" lon="05.723588"><ele>24.5</ele><time>2021-05-01T13:34:38Z</time><name>PT2138</name></trkpt>
<trkpt lat="52.051571" lon="05.723599"><ele>24.5</ele><time>2021-05-01T13:34:40Z</time><name>PT2139</name></trkpt>
<trkpt lat="52.051564" lon="05.723607"><ele>24.5</ele><time>2021-05-01T13:34:41Z</time><name>PT2140</name></trkpt>
<trkpt lat="52.051556" lon="05.723619"><ele>24.4</ele><time>2021-05-01T13:34:42Z</time><name>PT2141</name></trkpt>
<trkpt lat="52.051548" lon="05.723632"><ele>24.3</ele><time>2021-05-01T13:34:43Z</time><name>PT2142</name></trkpt>
<trkpt lat="52.051539" lon="05.723654"><ele>24.2</ele><time>2021-05-01T13:34:43Z</time><name>PT2143</name></trkpt>
<trkpt lat="52.051533" lon="05.723672"><ele>24.1</ele><time>2021-05-01T13:34:45Z</time><name>PT2144</name></trkpt>
<trkpt lat="52.051526" lon="05.723676"><ele>24.1</ele><time>2021-05-01T13:34:45Z</time><name>PT2145</name></trkpt>
<trkpt lat="52.051520" lon="05.723693"><ele>24.2</ele><time>2021-05-01T13:34:47Z</time><name>PT2146</name></trkpt>
<trkpt lat="52.051512" lon="05.723705"><ele>24.3</ele><time>2021-05-01T13:34:47Z</time><name>PT2147</name></trkpt>
<trkpt lat="52.051505" lon="05.723716"><ele>24.3</ele><time>2021-05-01T13:34:49Z</time><name>PT2148</name></trkpt>
<trkpt lat="52.051495" lon="05.723728"><ele>24.1</ele><time>2021-05-01T13:34:50Z</time><name>PT2149</name></trkpt>
<trkpt lat="52.051486" lon="05.723744"><ele>24.2</ele><time>2021-05-01T13:34:51Z</time><name>PT2150</name></trkpt>
<trkpt lat="52.051477" lon="05.723757"><ele>24.1</ele><time>2021-05-01T13:34:51Z</time><name>PT2151</name></trkpt>
<trkpt lat="52.051468" lon="05.723772"><ele>24.1</ele><time>2021-05-01T13:34:53Z</time><name>PT2152</name></trkpt>
<trkpt lat="52.051461" lon="05.723787"><ele>24.1</ele><time>2021-05-01T13:34:53Z</time><name>PT2153</name></trkpt>
<trkpt lat="52.051452" lon="05.723801"><ele>24.2</ele><time>2021-05-01T13:34:55Z</time><name>PT2154</name></trkpt>
<trkpt lat="52.051446" lon="05.723816"><ele>24.2</ele><time>2021-05-01T13:34:55Z</time><name>PT2155</name></trkpt>
<trkpt lat="52.051440" lon="05.723829"><ele>24.3</ele><time>2021-05-01T13:34:57Z</time><name>PT2156</name></trkpt>
<trkpt lat="52.051434" lon="05.723839"><ele>24.3</ele><time>2021-05-01T13:34:57Z</time><name>PT2157</name></trkpt>
<trkpt lat="52.051421" lon="05.723863"><ele>24.4</ele><time>2021-05-01T13:34:59Z</time><name>PT2158</name></trkpt>
<trkpt lat="52.051411" lon="05.723877"><ele>24.4</ele><time>2021-05-01T13:34:59Z</time><name>PT2159</name></trkpt>
<trkpt lat="52.051404" lon="05.723893"><ele>24.3</ele><time>2021-05-01T13:35:01Z</time><name>PT2160</name></trkpt>
<trkpt lat="52.051397" lon="05.723907"><ele>24.3</ele><time>2021-05-01T13:35:01Z</time><name>PT2161</name></trkpt>
<trkpt lat="52.051389" lon="05.723920"><ele>24.3</ele><time>2021-05-01T13:35:03Z</time><name>PT2162</name></trkpt>
<trkpt lat="52.051381" lon="05.723934"><ele>24.2</ele><time>2021-05-01T13:35:03Z</time><name>PT2163</name></trkpt>
<trkpt lat="52.051373" lon="05.723949"><ele>24.2</ele><time>2021-05-01T13:35:05Z</time><name>PT2164</name></trkpt>
<trkpt lat="52.051366" lon="05.723961"><ele>24.3</ele><time>2021-05-01T13:35:05Z</time><name>PT2165</name></trkpt>
<trkpt lat="52.051356" lon="05.723976"><ele>24.4</ele><time>2021-05-01T13:35:07Z</time><name>PT2166</name></trkpt>
<trkpt lat="52.051348" lon="05.723992"><ele>24.4</ele><time>2021-05-01T13:35:07Z</time><name>PT2167</name></trkpt>
<trkpt lat="52.051340" lon="05.724010"><ele>24.3</ele><time>2021-05-01T13:35:09Z</time><name>PT2168</name></trkpt>
<trkpt lat="52.051331" lon="05.724027"><ele>24.2</ele><time>2021-05-01T13:35:10Z</time><name>PT2169</name></trkpt>
<trkpt lat="52.051322" lon="05.724037"><ele>24.3</ele><time>2021-05-01T13:35:11Z</time><name>PT2170</name></trkpt>
<trkpt lat="52.051315" lon="05.724050"><ele>24.2</ele><time>2021-05-01T13:35:12Z</time><name>PT2171</name></trkpt>
<trkpt lat="52.051306" lon="05.724058"><ele>24.2</ele><time>2021-05-01T13:35:13Z</time><name>PT2172</name></trkpt>
<trkpt lat="52.051297" lon="05.724068"><ele>24.3</ele><time>2021-05-01T13:35:13Z</time><name>PT2173</name></trkpt>
<trkpt lat="52.051290" lon="05.724082"><ele>24.3</ele><time>2021-05-01T13:35:15Z</time><name>PT2174</name></trkpt>
<trkpt lat="52.051284" lon="05.724093"><ele>24.3</ele><time>2021-05-01T13:35:15Z</time><name>PT2175</name></trkpt>
<trkpt lat="52.051275" lon="05.724108"><ele>24.3</ele><time>2021-05-01T13:35:17Z</time><name>PT2176</name></trkpt>
<trkpt lat="52.051266" lon="05.724129"><ele>24.3</ele><time>2021-05-01T13:35:18Z</time><name>PT2177</name></trkpt>
<trkpt lat="52.051259" lon="05.724145"><ele>24.3</ele><time>2021-05-01T13:35:18Z</time><name>PT2178</name></trkpt>
<trkpt lat="52.051252" lon="05.724161"><ele>24.3</ele><time>2021-05-01T13:35:20Z</time><name>PT2179</name></trkpt>
<trkpt lat="52.051245" lon="05.724178"><ele>24.3</ele><time>2021-05-01T13:35:21Z</time><name>PT2180</name></trkpt>
<trkpt lat="52.051237" lon="05.724191"><ele>24.4</ele><time>2021-05-01T13:35:22Z</time><name>PT2181</name></trkpt>
<trkpt lat="52.051229" lon="05.724203"><ele>24.4</ele><time>2021-05-01T13:35:23Z</time><name>PT2182</name></trkpt>
<trkpt lat="52.051221" lon="05.724219"><ele>24.3</ele><time>2021-05-01T13:35:23Z</time><name>PT2183</name></trkpt>
<trkpt lat="52.051213" lon="05.724233"><ele>24.3</ele><time>2021-05-01T13:35:25Z</time><name>PT2184</name></trkpt>
<trkpt lat="52.051206" lon="05.724250"><ele>24.3</ele><time>2021-05-01T13:35:25Z</time><name>PT2185</name></trkpt>
<trkpt lat="52.051201" lon="05.724263"><ele>24.4</ele><time>2021-05-01T13:35:27Z</time><name>PT2186</name></trkpt>
<trkpt lat="52.051195" lon="05.724280"><ele>24.5</ele><time>2021-05-01T13:35:27Z</time><name>PT2187</name></trkpt>
<trkpt lat="52.051188" lon="05.724296"><ele>24.7</ele><time>2021-05-01T13:35:29Z</time><name>PT2188</name></trkpt>
<trkpt lat="52.051183" lon="05.724305"><ele>24.8</ele><time>2021-05-01T13:35:29Z</time><name>PT2189</name></trkpt>
<trkpt lat="52.051176" lon="05.724317"><ele>24.8</ele><time>2021-05-01T13:35:31Z</time><name>PT2190</name></trkpt>
<trkpt lat="52.051166" lon="05.724327"><ele>24.8</ele><time>2021-05-01T13:35:31Z</time><name>PT2191</name></trkpt>
<trkpt lat="52.051158" lon="05.724338"><ele>24.8</ele><time>2021-05-01T13:35:33Z</time><name>PT2192</name></trkpt>
<trkpt lat="52.051150" lon="05.724351"><ele>24.6</ele><time>2021-05-01T13:35:33Z</time><name>PT2193</name></trkpt>
<trkpt lat="52.051144" lon="05.724364"><ele>24.7</ele><time>2021-05-01T13:35:35Z</time><name>PT2194</name></trkpt>
<trkpt lat="52.051141" lon="05.724371"><ele>24.6</ele><time>2021-05-01T13:35:36Z</time><name>PT2195</name></trkpt>
<trkpt lat="52.051138" lon="05.724376"><ele>24.5</ele><time>2021-05-01T13:35:36Z</time><name>PT2196</name></trkpt>
<trkpt lat="52.051138" lon="05.724384"><ele>24.4</ele><time>2021-05-01T13:35:38Z</time><name>PT2197</name></trkpt>
<trkpt lat="52.051138" lon="05.724389"><ele>24.5</ele><time>2021-05-01T13:35:38Z</time><name>PT2198</name></trkpt>
<trkpt lat="52.051134" lon="05.724400"><ele>24.3</ele><time>2021-05-01T13:35:40Z</time><name>PT2199</name></trkpt>
<trkpt lat="52.051128" lon="05.724413"><ele>24.3</ele><time>2021-05-01T13:35:40Z</time><name>PT2200</name></trkpt>
<trkpt lat="52.051121" lon="05.724431"><ele>24.3</ele><time>2021-05-01T13:35:42Z</time><name>PT2201</name></trkpt>
<trkpt lat="52.051113" lon="05.724445"><ele>24.2</ele><time>2021-05-01T13:35:42Z</time><name>PT2202</name></trkpt>
<trkpt lat="52.051107" lon="05.724456"><ele>24.2</ele><time>2021-05-01T13:35:44Z</time><name>PT2203</name></trkpt>
<trkpt lat="52.051100" lon="05.724470"><ele>24.2</ele><time>2021-05-01T13:35:44Z</time><name>PT2204</name></trkpt>
<trkpt lat="52.051093" lon="05.724486"><ele>24.3</ele><time>2021-05-01T13:35:46Z</time><name>PT2205</name></trkpt>
<trkpt lat="52.051088" lon="05.724500"><ele>24.3</ele><time>2021-05-01T13:35:47Z</time><name>PT2206</name></trkpt>
<trkpt lat="52.051083" lon="05.724514"><ele>24.3</ele><time>2021-05-01T13:35:48Z</time><name>PT2207</name></trkpt>
<trkpt lat="52.051078" lon="05.724527"><ele>24.3</ele><time>2021-05-01T13:35:48Z</time><name>PT2208</name></trkpt>
<trkpt lat="52.051073" lon="05.724547"><ele>24.3</ele><time>2021-05-01T13:35:50Z</time><name>PT2209</name></trkpt>
<trkpt lat="52.051068" lon="05.724561"><ele>24.3</ele><time>2021-05-01T13:35:51Z</time><name>PT2210</name></trkpt>
<trkpt lat="52.051063" lon="05.724581"><ele>24.1</ele><time>2021-05-01T13:35:51Z</time><name>PT2211</name></trkpt>
<trkpt lat="52.051059" lon="05.724594"><ele>24.2</ele><time>2021-05-01T13:35:53Z</time><name>PT2212</name></trkpt>
<trkpt lat="52.051054" lon="05.724623"><ele>24.3</ele><time>2021-05-01T13:35:54Z</time><name>PT2213</name></trkpt>
<trkpt lat="52.051051" lon="05.724641"><ele>24.5</ele><time>2021-05-01T13:35:54Z</time><name>PT2214</name></trkpt>
<trkpt lat="52.051045" lon="05.724660"><ele>24.6</ele><time>2021-05-01T13:35:56Z</time><name>PT2215</name></trkpt>
<trkpt lat="52.051040" lon="05.724674"><ele>24.6</ele><time>2021-05-01T13:35:56Z</time><name>PT2216</name></trkpt>
<trkpt lat="52.051035" lon="05.724688"><ele>24.8</ele><time>2021-05-01T13:35:58Z</time><name>PT2217</name></trkpt>
<trkpt lat="52.051030" lon="05.724703"><ele>24.8</ele><time>2021-05-01T13:35:58Z</time><name>PT2218</name></trkpt>
<trkpt lat="52.051028" lon="05.724720"><ele>24.7</ele><time>2021-05-01T13:36:00Z</time><name>PT2219</name></trkpt>
<trkpt lat="52.051025" lon="05.724742"><ele>24.6</ele><time>2021-05-01T13:36:00Z</time><name>PT2220</name></trkpt>
<trkpt lat="52.051021" lon="05.724758"><ele>24.6</ele><time>2021-05-01T13:36:02Z</time><name>PT2221</name></trkpt>
<trkpt lat="52.051019" lon="05.724777"><ele>24.6</ele><time>2021-05-01T13:36:02Z</time><name>PT2222</name></trkpt>
<trkpt lat="52.051015" lon="05.724796"><ele>24.5</ele><time>2021-05-01T13:36:04Z</time><name>PT2223</name></trkpt>
<trkpt lat="52.051012" lon="05.724816"><ele>24.3</ele><time>2021-05-01T13:36:05Z</time><name>PT2224</name></trkpt>
<trkpt lat="52.051009" lon="05.724840"><ele>24.7</ele><time>2021-05-01T13:36:06Z</time><name>PT2225</name></trkpt>
<trkpt lat="52.051004" lon="05.724859"><ele>24.7</ele><time>2021-05-01T13:36:07Z</time><name>PT2226</name></trkpt>
<trkpt lat="52.051001" lon="05.724879"><ele>24.7</ele><time>2021-05-01T13:36:08Z</time><name>PT2227</name></trkpt>
<trkpt lat="52.050997" lon="05.724895"><ele>24.8</ele><time>2021-05-01T13:36:08Z</time><name>PT2228</name></trkpt>
<trkpt lat="52.050993" lon="05.724912"><ele>24.8</ele><time>2021-05-01T13:36:10Z</time><name>PT2229</name></trkpt>
<trkpt lat="52.050990" lon="05.724930"><ele>24.7</ele><time>2021-05-01T13:36:10Z</time><name>PT2230</name></trkpt>
<trkpt lat="52.050989" lon="05.724949"><ele>24.7</ele><time>2021-05-01T13:36:12Z</time><name>PT2231</name></trkpt>
<trkpt lat="52.050986" lon="05.724966"><ele>24.7</ele><time>2021-05-01T13:36:12Z</time><name>PT2232</name></trkpt>
<trkpt lat="52.050984" lon="05.724986"><ele>24.7</ele><time>2021-05-01T13:36:14Z</time><name>PT2233</name></trkpt>
<trkpt lat="52.050981" lon="05.725011"><ele>24.8</ele><time>2021-05-01T13:36:14Z</time><name>PT2234</name></trkpt>
<trkpt lat="52.050979" lon="05.725029"><ele>24.6</ele><time>2021-05-01T13:36:16Z</time><name>PT2235</name></trkpt>
<trkpt lat="52.050978" lon="05.725050"><ele>24.3</ele><time>2021-05-01T13:36:16Z</time><name>PT2236</name></trkpt>
<trkpt lat="52.050978" lon="05.725068"><ele>24.4</ele><time>2021-05-01T13:36:18Z</time><name>PT2237</name></trkpt>
<trkpt lat="52.050976" lon="05.725084"><ele>24.3</ele><time>2021-05-01T13:36:18Z</time><name>PT2238</name></trkpt>
<trkpt lat="52.050972" lon="05.725101"><ele>24.3</ele><time>2021-05-01T13:36:20Z</time><name>PT2239</name></trkpt>
<trkpt lat="52.050967" lon="05.725121"><ele>24.5</ele><time>2021-05-01T13:36:20Z</time><name>PT2240</name></trkpt>
<trkpt lat="52.050965" lon="05.725142"><ele>24.6</ele><time>2021-05-01T13:36:22Z</time><name>PT2241</name></trkpt>
<trkpt lat="52.050963" lon="05.725158"><ele>24.6</ele><time>2021-05-01T13:36:22Z</time><name>PT2242</name></trkpt>
<trkpt lat="52.050961" lon="05.725175"><ele>24.7</ele><time>2021-05-01T13:36:24Z</time><name>PT2243</name></trkpt>
<trkpt lat="52.050958" lon="05.725195"><ele>24.8</ele><time>2021-05-01T13:36:24Z</time><name>PT2244</name></trkpt>
<trkpt lat="52.050954" lon="05.725212"><ele>24.8</ele><time>2021-05-01T13:36:26Z</time><name>PT2245</name></trkpt>
<trkpt lat="52.050950" lon="05.725231"><ele>24.9</ele><time>2021-05-01T13:36:26Z</time><name>PT2246</name></trkpt>
<trkpt lat="52.050946" lon="05.725251"><ele>25</ele><time>2021-05-01T13:36:28Z</time><name>PT2247</name></trkpt>
<trkpt lat="52.050943" lon="05.725267"><ele>24.9</ele><time>2021-05-01T13:36:28Z</time><name>PT2248</name></trkpt>
<trkpt lat="52.050941" lon="05.725284"><ele>24.8</ele><time>2021-05-01T13:36:30Z</time><name>PT2249</name></trkpt>
<trkpt lat="52.050941" lon="05.725302"><ele>24.8</ele><time>2021-05-01T13:36:30Z</time><name>PT2250</name></trkpt>
<trkpt lat="52.050941" lon="05.725321"><ele>24.7</ele><time>2021-05-01T13:36:32Z</time><name>PT2251</name></trkpt>
<trkpt lat="52.050939" lon="05.725343"><ele>24.7</ele><time>2021-05-01T13:36:32Z</time><name>PT2252</name></trkpt>
<trkpt lat="52.050937" lon="05.725362"><ele>24.8</ele><time>2021-05-01T13:36:34Z</time><name>PT2253</name></trkpt>
<trkpt lat="52.050936" lon="05.725382"><ele>24.8</ele><time>2021-05-01T13:36:34Z</time><name>PT2254</name></trkpt>
<trkpt lat="52.050933" lon="05.725400"><ele>24.7</ele><time>2021-05-01T13:36:36Z</time><name>PT2255</name></trkpt>
<trkpt lat="52.050930" lon="05.725418"><ele>24.8</ele><time>2021-05-01T13:36:36Z</time><name>PT2256</name></trkpt>
<trkpt lat="52.050929" lon="05.725435"><ele>24.8</ele><time>2021-05-01T13:36:38Z</time><name>PT2257</name></trkpt>
<trkpt lat="52.050927" lon="05.725454"><ele>24.7</ele><time>2021-05-01T13:36:38Z</time><name>PT2258</name></trkpt>
<trkpt lat="52.050923" lon="05.725471"><ele>24.6</ele><time>2021-05-01T13:36:40Z</time><name>PT2259</name></trkpt>
<trkpt lat="52.050920" lon="05.725488"><ele>24.6</ele><time>2021-05-01T13:36:40Z</time><name>PT2260</name></trkpt>
<trkpt lat="52.050915" lon="05.725510"><ele>24.5</ele><time>2021-05-01T13:36:42Z</time><name>PT2261</name></trkpt>
<trkpt lat="52.050914" lon="05.725529"><ele>24.5</ele><time>2021-05-01T13:36:42Z</time><name>PT2262</name></trkpt>
<trkpt lat="52.050913" lon="05.725552"><ele>24.3</ele><time>2021-05-01T13:36:44Z</time><name>PT2263</name></trkpt>
<trkpt lat="52.050914" lon="05.725572"><ele>24.4</ele><time>2021-05-01T13:36:44Z</time><name>PT2264</name></trkpt>
<trkpt lat="52.050912" lon="05.725592"><ele>24.3</ele><time>2021-05-01T13:36:46Z</time><name>PT2265</name></trkpt>
<trkpt lat="52.050909" lon="05.725610"><ele>24.5</ele><time>2021-05-01T13:36:46Z</time><name>PT2266</name></trkpt>
<trkpt lat="52.050909" lon="05.725633"><ele>24.5</ele><time>2021-05-01T13:36:48Z</time><name>PT2267</name></trkpt>
<trkpt lat="52.050908" lon="05.725649"><ele>24.6</ele><time>2021-05-01T13:36:48Z</time><name>PT2268</name></trkpt>
<trkpt lat="52.050906" lon="05.725673"><ele>24.6</ele><time>2021-05-01T13:36:50Z</time><name>PT2269</name></trkpt>
<trkpt lat="52.050903" lon="05.725698"><ele>24.6</ele><time>2021-05-01T13:36:50Z</time><name>PT2270</name></trkpt>
<trkpt lat="52.050900" lon="05.725719"><ele>24.6</ele><time>2021-05-01T13:36:52Z</time><name>PT2271</name></trkpt>
<trkpt lat="52.050897" lon="05.725739"><ele>24.8</ele><time>2021-05-01T13:36:52Z</time><name>PT2272</name></trkpt>
<trkpt lat="52.050894" lon="05.725755"><ele>24.8</ele><time>2021-05-01T13:36:54Z</time><name>PT2273</name></trkpt>
<trkpt lat="52.050892" lon="05.725771"><ele>24.8</ele><time>2021-05-01T13:36:54Z</time><name>PT2274</name></trkpt>
<trkpt lat="52.050891" lon="05.725788"><ele>24.8</ele><time>2021-05-01T13:36:56Z</time><name>PT2275</name></trkpt>
<trkpt lat="52.050888" lon="05.725804"><ele>24.7</ele><time>2021-05-01T13:36:56Z</time><name>PT2276</name></trkpt>
<trkpt lat="52.050886" lon="05.725819"><ele>24.7</ele><time>2021-05-01T13:36:58Z</time><name>PT2277</name></trkpt>
<trkpt lat="52.050882" lon="05.725841"><ele>24.6</ele><time>2021-05-01T13:36:58Z</time><name>PT2278</name></trkpt>
<trkpt lat="52.050879" lon="05.725859"><ele>24.7</ele><time>2021-05-01T13:37:00Z</time><name>PT2279</name></trkpt>
<trkpt lat="52.050878" lon="05.725882"><ele>24.8</ele><time>2021-05-01T13:37:00Z</time><name>PT2280</name></trkpt>
<trkpt lat="52.050877" lon="05.725900"><ele>24.9</ele><time>2021-05-01T13:37:02Z</time><name>PT2281</name></trkpt>
<trkpt lat="52.050874" lon="05.725919"><ele>24.8</ele><time>2021-05-01T13:37:02Z</time><name>PT2282</name></trkpt>
<trkpt lat="52.050870" lon="05.725934"><ele>24.9</ele><time>2021-05-01T13:37:04Z</time><name>PT2283</name></trkpt>
<trkpt lat="52.050868" lon="05.725948"><ele>24.9</ele><time>2021-05-01T13:37:04Z</time><name>PT2284</name></trkpt>
<trkpt lat="52.050864" lon="05.725968"><ele>24.9</ele><time>2021-05-01T13:37:06Z</time><name>PT2285</name></trkpt>
<trkpt lat="52.050861" lon="05.725983"><ele>24.9</ele><time>2021-05-01T13:37:06Z</time><name>PT2286</name></trkpt>
<trkpt lat="52.050858" lon="05.725999"><ele>25.1</ele><time>2021-05-01T13:37:08Z</time><name>PT2287</name></trkpt>
<trkpt lat="52.050856" lon="05.726011"><ele>25</ele><time>2021-05-01T13:37:08Z</time><name>PT2288</name></trkpt>
<trkpt lat="52.050856" lon="05.726027"><ele>24.8</ele><time>2021-05-01T13:37:10Z</time><name>PT2289</name></trkpt>
<trkpt lat="52.050855" lon="05.726043"><ele>24.8</ele><time>2021-05-01T13:37:10Z</time><name>PT2290</name></trkpt>
<trkpt lat="52.050853" lon="05.726058"><ele>24.8</ele><time>2021-05-01T13:37:12Z</time><name>PT2291</name></trkpt>
<trkpt lat="52.050851" lon="05.726075"><ele>24.8</ele><time>2021-05-01T13:37:12Z</time><name>PT2292</name></trkpt>
<trkpt lat="52.050846" lon="05.726094"><ele>24.7</ele><time>2021-05-01T13:37:14Z</time><name>PT2293</name></trkpt>
<trkpt lat="52.050840" lon="05.726109"><ele>24.8</ele><time>2021-05-01T13:37:14Z</time><name>PT2294</name></trkpt>
<trkpt lat="52.050834" lon="05.726121"><ele>24.8</ele><time>2021-05-01T13:37:16Z</time><name>PT2295</name></trkpt>
<trkpt lat="52.050825" lon="05.726127"><ele>24.6</ele><time>2021-05-01T13:37:16Z</time><name>PT2296</name></trkpt>
<trkpt lat="52.050816" lon="05.726135"><ele>24.8</ele><time>2021-05-01T13:37:18Z</time><name>PT2297</name></trkpt>
<trkpt lat="52.050809" lon="05.726149"><ele>24.8</ele><time>2021-05-01T13:37:18Z</time><name>PT2298</name></trkpt>
<trkpt lat="52.050798" lon="05.726164"><ele>24.9</ele><time>2021-05-01T13:37:20Z</time><name>PT2299</name></trkpt>
<trkpt lat="52.050788" lon="05.726173"><ele>24.7</ele><time>2021-05-01T13:37:21Z</time><name>PT2300</name></trkpt>
<trkpt lat="52.050775" lon="05.726183"><ele>24.7</ele><time>2021-05-01T13:37:22Z</time><name>PT2301</name></trkpt>
<trkpt lat="52.050763" lon="05.726191"><ele>24.7</ele><time>2021-05-01T13:37:23Z</time><name>PT2302</name></trkpt>
<trkpt lat="52.050755" lon="05.726200"><ele>24.6</ele><time>2021-05-01T13:37:24Z</time><name>PT2303</name></trkpt>
<trkpt lat="52.050747" lon="05.726205"><ele>24.6</ele><time>2021-05-01T13:37:25Z</time><name>PT2304</name></trkpt>
<trkpt lat="52.050737" lon="05.726215"><ele>24.4</ele><time>2021-05-01T13:37:26Z</time><name>PT2305</name></trkpt>
<trkpt lat="52.050731" lon="05.726228"><ele>24.4</ele><time>2021-05-01T13:37:26Z</time><name>PT2306</name></trkpt>
<trkpt lat="52.050726" lon="05.726241"><ele>24.3</ele><time>2021-05-01T13:37:28Z</time><name>PT2307</name></trkpt>
<trkpt lat="52.050720" lon="05.726252"><ele>24.5</ele><time>2021-05-01T13:37:28Z</time><name>PT2308</name></trkpt>
<trkpt lat="52.050717" lon="05.726269"><ele>24.7</ele><time>2021-05-01T13:37:30Z</time><name>PT2309</name></trkpt>
<trkpt lat="52.050714" lon="05.726287"><ele>24.8</ele><time>2021-05-01T13:37:30Z</time><name>PT2310</name></trkpt>
<trkpt lat="52.050712" lon="05.726305"><ele>24.9</ele><time>2021-05-01T13:37:32Z</time><name>PT2311</name></trkpt>
<trkpt lat="52.050711" lon="05.726323"><ele>25.1</ele><time>2021-05-01T13:37:32Z</time><name>PT2312</name></trkpt>
<trkpt lat="52.050708" lon="05.726336"><ele>24.9</ele><time>2021-05-01T13:37:34Z</time><name>PT2313</name></trkpt>
<trkpt lat="52.050705" lon="05.726350"><ele>24.8</ele><time>2021-05-01T13:37:34Z</time><name>PT2314</name></trkpt>
<trkpt lat="52.050702" lon="05.726374"><ele>24.7</ele><time>2021-05-01T13:37:36Z</time><name>PT2315</name></trkpt>
<trkpt lat="52.050699" lon="05.726393"><ele>24.6</ele><time>2021-05-01T13:37:36Z</time><name>PT2316</name></trkpt>
<trkpt lat="52.050696" lon="05.726408"><ele>24.3</ele><time>2021-05-01T13:37:38Z</time><name>PT2317</name></trkpt>
<trkpt lat="52.050693" lon="05.726422"><ele>24.3</ele><time>2021-05-01T13:37:38Z</time><name>PT2318</name></trkpt>
<trkpt lat="52.050688" lon="05.726444"><ele>24.3</ele><time>2021-05-01T13:37:40Z</time><name>PT2319</name></trkpt>
<trkpt lat="52.050687" lon="05.726461"><ele>24.3</ele><time>2021-05-01T13:37:40Z</time><name>PT2320</name></trkpt>
<trkpt lat="52.050682" lon="05.726475"><ele>24.3</ele><time>2021-05-01T13:37:42Z</time><name>PT2321</name></trkpt>
<trkpt lat="52.050678" lon="05.726490"><ele>24.3</ele><time>2021-05-01T13:37:42Z</time><name>PT2322</name></trkpt>
<trkpt lat="52.050675" lon="05.726506"><ele>24.3</ele><time>2021-05-01T13:37:44Z</time><name>PT2323</name></trkpt>
<trkpt lat="52.050672" lon="05.726521"><ele>24.4</ele><time>2021-05-01T13:37:44Z</time><name>PT2324</name></trkpt>
<trkpt lat="52.050668" lon="05.726534"><ele>24.3</ele><time>2021-05-01T13:37:46Z</time><name>PT2325</name></trkpt>
<trkpt lat="52.050661" lon="05.726549"><ele>24.3</ele><time>2021-05-01T13:37:46Z</time><name>PT2326</name></trkpt>
<trkpt lat="52.050657" lon="05.726561"><ele>24.3</ele><time>2021-05-01T13:37:48Z</time><name>PT2327</name></trkpt>
<trkpt lat="52.050656" lon="05.726576"><ele>24.3</ele><time>2021-05-01T13:37:48Z</time><name>PT2328</name></trkpt>
<trkpt lat="52.050653" lon="05.726591"><ele>24.3</ele><time>2021-05-01T13:37:50Z</time><name>PT2329</name></trkpt>
<trkpt lat="52.050651" lon="05.726611"><ele>24.2</ele><time>2021-05-01T13:37:50Z</time><name>PT2330</name></trkpt>
<trkpt lat="52.050651" lon="05.726628"><ele>24.3</ele><time>2021-05-01T13:37:52Z</time><name>PT2331</name></trkpt>
<trkpt lat="52.050649" lon="05.726648"><ele>24.4</ele><time>2021-05-01T13:37:52Z</time><name>PT2332</name></trkpt>
<trkpt lat="52.050648" lon="05.726666"><ele>24.3</ele><time>2021-05-01T13:37:54Z</time><name>PT2333</name></trkpt>
<trkpt lat="52.050647" lon="05.726687"><ele>24.4</ele><time>2021-05-01T13:37:54Z</time><name>PT2334</name></trkpt>
<trkpt lat="52.050644" lon="05.726703"><ele>24.3</ele><time>2021-05-01T13:37:56Z</time><name>PT2335</name></trkpt>
<trkpt lat="52.050640" lon="05.726713"><ele>24.2</ele><time>2021-05-01T13:37:56Z</time><name>PT2336</name></trkpt>
<trkpt lat="52.050637" lon="05.726732"><ele>24.3</ele><time>2021-05-01T13:37:58Z</time><name>PT2337</name></trkpt>
<trkpt lat="52.050634" lon="05.726746"><ele>24.3</ele><time>2021-05-01T13:37:58Z</time><name>PT2338</name></trkpt>
<trkpt lat="52.050632" lon="05.726762"><ele>24.4</ele><time>2021-05-01T13:38:00Z</time><name>PT2339</name></trkpt>
<trkpt lat="52.050631" lon="05.726780"><ele>24.6</ele><time>2021-05-01T13:38:00Z</time><name>PT2340</name></trkpt>
<trkpt lat="52.050631" lon="05.726799"><ele>24.6</ele><time>2021-05-01T13:38:02Z</time><name>PT2341</name></trkpt>
<trkpt lat="52.050628" lon="05.726819"><ele>24.6</ele><time>2021-05-01T13:38:02Z</time><name>PT2342</name></trkpt>
<trkpt lat="52.050629" lon="05.726839"><ele>24.6</ele><time>2021-05-01T13:38:04Z</time><name>PT2343</name></trkpt>
<trkpt lat="52.050628" lon="05.726857"><ele>24.7</ele><time>2021-05-01T13:38:04Z</time><name>PT2344</name></trkpt>
<trkpt lat="52.050628" lon="05.726874"><ele>24.6</ele><time>2021-05-01T13:38:06Z</time><name>PT2345</name></trkpt>
<trkpt lat="52.050627" lon="05.726893"><ele>24.7</ele><time>2021-05-01T13:38:06Z</time><name>PT2346</name></trkpt>
<trkpt lat="52.050624" lon="05.726913"><ele>24.8</ele><time>2021-05-01T13:38:08Z</time><name>PT2347</name></trkpt>
<trkpt lat="52.050621" lon="05.726931"><ele>24.7</ele><time>2021-05-01T13:38:08Z</time><name>PT2348</name></trkpt>
<trkpt lat="52.050617" lon="05.726951"><ele>24.7</ele><time>2021-05-01T13:38:10Z</time><name>PT2349</name></trkpt>
<trkpt lat="52.050613" lon="05.726971"><ele>24.6</ele><time>2021-05-01T13:38:10Z</time><name>PT2350</name></trkpt>
<trkpt lat="52.050610" lon="05.726990"><ele>24.5</ele><time>2021-05-01T13:38:12Z</time><name>PT2351</name></trkpt>
<trkpt lat="52.050607" lon="05.727015"><ele>24.5</ele><time>2021-05-01T13:38:12Z</time><name>PT2352</name></trkpt>
<trkpt lat="52.050604" lon="05.727036"><ele>24.6</ele><time>2021-05-01T13:38:14Z</time><name>PT2353</name></trkpt>
<trkpt lat="52.050599" lon="05.727055"><ele>24.5</ele><time>2021-05-01T13:38:14Z</time><name>PT2354</name></trkpt>
<trkpt lat="52.050597" lon="05.727075"><ele>24.5</ele><time>2021-05-01T13:38:16Z</time><name>PT2355</name></trkpt>
<trkpt lat="52.050594" lon="05.727084"><ele>24.6</ele><time>2021-05-01T13:38:16Z</time><name>PT2356</name></trkpt>
<trkpt lat="52.050589" lon="05.727097"><ele>24.5</ele><time>2021-05-01T13:38:18Z</time><name>PT2357</name></trkpt>
<trkpt lat="52.050582" lon="05.727110"><ele>24.5</ele><time>2021-05-01T13:38:18Z</time><name>PT2358</name></trkpt>
<trkpt lat="52.050575" lon="05.727124"><ele>24.4</ele><time>2021-05-01T13:38:20Z</time><name>PT2359</name></trkpt>
<trkpt lat="52.050568" lon="05.727138"><ele>24.3</ele><time>2021-05-01T13:38:20Z</time><name>PT2360</name></trkpt>
<trkpt lat="52.050560" lon="05.727149"><ele>24.3</ele><time>2021-05-01T13:38:22Z</time><name>PT2361</name></trkpt>
<trkpt lat="52.050552" lon="05.727159"><ele>24.2</ele><time>2021-05-01T13:38:22Z</time><name>PT2362</name></trkpt>
<trkpt lat="52.050544" lon="05.727169"><ele>24.1</ele><time>2021-05-01T13:38:24Z</time><name>PT2363</name></trkpt>
<trkpt lat="52.050534" lon="05.727177"><ele>24.2</ele><time>2021-05-01T13:38:24Z</time><name>PT2364</name></trkpt>
<trkpt lat="52.050525" lon="05.727183"><ele>24.2</ele><time>2021-05-01T13:38:26Z</time><name>PT2365</name></trkpt>
<trkpt lat="52.050518" lon="05.727189"><ele>24.3</ele><time>2021-05-01T13:38:26Z</time><name>PT2366</name></trkpt>
<trkpt lat="52.050509" lon="05.727196"><ele>24.3</ele><time>2021-05-01T13:38:28Z</time><name>PT2367</name></trkpt>
<trkpt lat="52.050500" lon="05.727205"><ele>24.3</ele><time>2021-05-01T13:38:29Z</time><name>PT2368</name></trkpt>
<trkpt lat="52.050491" lon="05.727216"><ele>24.4</ele><time>2021-05-01T13:38:30Z</time><name>PT2369</name></trkpt>
<trkpt lat="52.050486" lon="05.727219"><ele>24.6</ele><time>2021-05-01T13:38:30Z</time><name>PT2370</name></trkpt>
<trkpt lat="52.050481" lon="05.727226"><ele>24.6</ele><time>2021-05-01T13:38:32Z</time><name>PT2371</name></trkpt>
<trkpt lat="52.050474" lon="05.727236"><ele>24.6</ele><time>2021-05-01T13:38:32Z</time><name>PT2372</name></trkpt>
<trkpt lat="52.050467" lon="05.727250"><ele>24.6</ele><time>2021-05-01T13:38:34Z</time><name>PT2373</name></trkpt>
<trkpt lat="52.050462" lon="05.727267"><ele>24.6</ele><time>2021-05-01T13:38:34Z</time><name>PT2374</name></trkpt>
<trkpt lat="52.050455" lon="05.727281"><ele>24.5</ele><time>2021-05-01T13:38:36Z</time><name>PT2375</name></trkpt>
<trkpt lat="52.050448" lon="05.727296"><ele>24.5</ele><time>2021-05-01T13:38:36Z</time><name>PT2376</name></trkpt>
<trkpt lat="52.050442" lon="05.727309"><ele>24.4</ele><time>2021-05-01T13:38:38Z</time><name>PT2377</name></trkpt>
<trkpt lat="52.050436" lon="05.727323"><ele>24.5</ele><time>2021-05-01T13:38:38Z</time><name>PT2378</name></trkpt>
<trkpt lat="52.050437" lon="05.727333"><ele>24.5</ele><time>2021-05-01T13:38:40Z</time><name>PT2379</name></trkpt>
<trkpt lat="52.050434" lon="05.727345"><ele>24.6</ele><time>2021-05-01T13:38:40Z</time><name>PT2380</name></trkpt>
<trkpt lat="52.050430" lon="05.727358"><ele>24.5</ele><time>2021-05-01T13:38:42Z</time><name>PT2381</name></trkpt>
<trkpt lat="52.050424" lon="05.727372"><ele>24.5</ele><time>2021-05-01T13:38:42Z</time><name>PT2382</name></trkpt>
<trkpt lat="52.050418" lon="05.727388"><ele>24.3</ele><time>2021-05-01T13:38:44Z</time><name>PT2383</name></trkpt>
<trkpt lat="52.050411" lon="05.727397"><ele>24.3</ele><time>2021-05-01T13:38:44Z</time><name>PT2384</name></trkpt>
<trkpt lat="52.050403" lon="05.727399"><ele>24.4</ele><time>2021-05-01T13:38:46Z</time><name>PT2385</name></trkpt>
<trkpt lat="52.050393" lon="05.727403"><ele>24.4</ele><time>2021-05-01T13:38:46Z</time><name>PT2386</name></trkpt>
<trkpt lat="52.050384" lon="05.727408"><ele>24.4</ele><time>2021-05-01T13:38:48Z</time><name>PT2387</name></trkpt>
<trkpt lat="52.050374" lon="05.727406"><ele>24.3</ele><time>2021-05-01T13:38:48Z</time><name>PT2388</name></trkpt>
<trkpt lat="52.050363" lon="05.727403"><ele>24.3</ele><time>2021-05-01T13:38:50Z</time><name>PT2389</name></trkpt>
<trkpt lat="52.050354" lon="05.727398"><ele>24.3</ele><time>2021-05-01T13:38:50Z</time><name>PT2390</name></trkpt>
<trkpt lat="52.050346" lon="05.727393"><ele>24.1</ele><time>2021-05-01T13:38:52Z</time><name>PT2391</name></trkpt>
<trkpt lat="52.050338" lon="05.727387"><ele>24.2</ele><time>2021-05-01T13:38:52Z</time><name>PT2392</name></trkpt>
<trkpt lat="52.050328" lon="05.727382"><ele>24.2</ele><time>2021-05-01T13:38:54Z</time><name>PT2393</name></trkpt>
<trkpt lat="52.050318" lon="05.727371"><ele>24.1</ele><time>2021-05-01T13:38:54Z</time><name>PT2394</name></trkpt>
<trkpt lat="52.050310" lon="05.727359"><ele>24.1</ele><time>2021-05-01T13:38:56Z</time><name>PT2395</name></trkpt>
<trkpt lat="52.050302" lon="05.727347"><ele>24.1</ele><time>2021-05-01T13:38:56Z</time><name>PT2396</name></trkpt>
<trkpt lat="52.050297" lon="05.727336"><ele>24.1</ele><time>2021-05-01T13:38:58Z</time><name>PT2397</name></trkpt>
<trkpt lat="52.050291" lon="05.727325"><ele>24.2</ele><time>2021-05-01T13:38:58Z</time><name>PT2398</name></trkpt>
<trkpt lat="52.050286" lon="05.727313"><ele>24</ele><time>2021-05-01T13:39:00Z</time><name>PT2399</name></trkpt>
<trkpt lat="52.050282" lon="05.727300"><ele>23.9</ele><time>2021-05-01T13:39:00Z</time><name>PT2400</name></trkpt>
<trkpt lat="52.050277" lon="05.727289"><ele>23.9</ele><time>2021-05-01T13:39:02Z</time><name>PT2401</name></trkpt>
<trkpt lat="52.050272" lon="05.727275"><ele>23.9</ele><time>2021-05-01T13:39:02Z</time><name>PT2402</name></trkpt>
<trkpt lat="52.050266" lon="05.727264"><ele>23.9</ele><time>2021-05-01T13:39:04Z</time><name>PT2403</name></trkpt>
<trkpt lat="52.050260" lon="05.727252"><ele>24.2</ele><time>2021-05-01T13:39:04Z</time><name>PT2404</name></trkpt>
<trkpt lat="52.050257" lon="05.727240"><ele>24.3</ele><time>2021-05-01T13:39:06Z</time><name>PT2405</name></trkpt>
<trkpt lat="52.050254" lon="05.727228"><ele>24.3</ele><time>2021-05-01T13:39:06Z</time><name>PT2406</name></trkpt>
<trkpt lat="52.050249" lon="05.727218"><ele>24.3</ele><time>2021-05-01T13:39:08Z</time><name>PT2407</name></trkpt>
<trkpt lat="52.050244" lon="05.727208"><ele>24.3</ele><time>2021-05-01T13:39:09Z</time><name>PT2408</name></trkpt>
<trkpt lat="52.050242" lon="05.727195"><ele>24.2</ele><time>2021-05-01T13:39:09Z</time><name>PT2409</name></trkpt>
<trkpt lat="52.050241" lon="05.727184"><ele>24.1</ele><time>2021-05-01T13:39:11Z</time><name>PT2410</name></trkpt>
<trkpt lat="52.050241" lon="05.727172"><ele>23.9</ele><time>2021-05-01T13:39:11Z</time><name>PT2411</name></trkpt>
<trkpt lat="52.050240" lon="05.727163"><ele>23.9</ele><time>2021-05-01T13:39:13Z</time><name>PT2412</name></trkpt>
<trkpt lat="52.050239" lon="05.727150"><ele>23.7</ele><time>2021-05-01T13:39:13Z</time><name>PT2413</name></trkpt>
<trkpt lat="52.050241" lon="05.727136"><ele>23.7</ele><time>2021-05-01T13:39:15Z</time><name>PT2414</name></trkpt>
<trkpt lat="52.050243" lon="05.727120"><ele>23.7</ele><time>2021-05-01T13:39:15Z</time><name>PT2415</name></trkpt>
<trkpt lat="52.050244" lon="05.727106"><ele>23.7</ele><time>2021-05-01T13:39:17Z</time><name>PT2416</name></trkpt>
<trkpt lat="52.050247" lon="05.727093"><ele>23.7</ele><time>2021-05-01T13:39:17Z</time><name>PT2417</name></trkpt>
<trkpt lat="52.050249" lon="05.727081"><ele>24</ele><time>2021-05-01T13:39:19Z</time><name>PT2418</name></trkpt>
<trkpt lat="52.050251" lon="05.727067"><ele>24</ele><time>2021-05-01T13:39:19Z</time><name>PT2419</name></trkpt>
<trkpt lat="52.050252" lon="05.727052"><ele>24.2</ele><time>2021-05-01T13:39:21Z</time><name>PT2420</name></trkpt>
<trkpt lat="52.050253" lon="05.727039"><ele>24.2</ele><time>2021-05-01T13:39:21Z</time><name>PT2421</name></trkpt>
<trkpt lat="52.050253" lon="05.727028"><ele>24.3</ele><time>2021-05-01T13:39:23Z</time><name>PT2422</name></trkpt>
<trkpt lat="52.050250" lon="05.727015"><ele>24.1</ele><time>2021-05-01T13:39:23Z</time><name>PT2423</name></trkpt>
<trkpt lat="52.050247" lon="05.727002"><ele>24</ele><time>2021-05-01T13:39:25Z</time><name>PT2424</name></trkpt>
<trkpt lat="52.050247" lon="05.726993"><ele>23.9</ele><time>2021-05-01T13:39:25Z</time><name>PT2425</name></trkpt>
<trkpt lat="52.050249" lon="05.726983"><ele>23.8</ele><time>2021-05-01T13:39:27Z</time><name>PT2426</name></trkpt>
<trkpt lat="52.050249" lon="05.726971"><ele>23.8</ele><time>2021-05-01T13:39:27Z</time><name>PT2427</name></trkpt>
<trkpt lat="52.050250" lon="05.726959"><ele>23.8</ele><time>2021-05-01T13:39:29Z</time><name>PT2428</name></trkpt>
<trkpt lat="52.050254" lon="05.726951"><ele>23.7</ele><time>2021-05-01T13:39:29Z</time><name>PT2429</name></trkpt>
<trkpt lat="52.050257" lon="05.726943"><ele>23.7</ele><time>2021-05-01T13:39:31Z</time><name>PT2430</name></trkpt>
<trkpt lat="52.050259" lon="05.726935"><ele>23.7</ele><time>2021-05-01T13:39:31Z</time><name>PT2431</name></trkpt>
<trkpt lat="52.050259" lon="05.726930"><ele>23.8</ele><time>2021-05-01T13:39:33Z</time><name>PT2432</name></trkpt>
<trkpt lat="52.050258" lon="05.726926"><ele>23.8</ele><time>2021-05-01T13:39:33Z</time><name>PT2433</name></trkpt>
<trkpt lat="52.050258" lon="05.726926"><ele>23.9</ele><time>2021-05-01T13:39:35Z</time><name>PT2434</name></trkpt>
<trkpt lat="52.050258" lon="05.726925"><ele>23.9</ele><time>2021-05-01T13:39:35Z</time><name>PT2435</name></trkpt>
<trkpt lat="52.050255" lon="05.726926"><ele>23.9</ele><time>2021-05-01T13:39:37Z</time><name>PT2436</name></trkpt>
<trkpt lat="52.050254" lon="05.726923"><ele>23.8</ele><time>2021-05-01T13:39:39Z</time><name>PT2437</name></trkpt>
<trkpt lat="52.050250" lon="05.726921"><ele>23.8</ele><time>2021-05-01T13:39:39Z</time><name>PT2438</name></trkpt>
<trkpt lat="52.050249" lon="05.726916"><ele>23.8</ele><time>2021-05-01T13:39:41Z</time><name>PT2439</name></trkpt>
<trkpt lat="52.050248" lon="05.726915"><ele>23.8</ele><time>2021-05-01T13:39:41Z</time><name>PT2440</name></trkpt>
<trkpt lat="52.050248" lon="05.726912"><ele>23.8</ele><time>2021-05-01T13:39:43Z</time><name>PT2441</name></trkpt>
<trkpt lat="52.050252" lon="05.726912"><ele>23.8</ele><time>2021-05-01T13:40:16Z</time><name>PT2442</name></trkpt>
<trkpt lat="52.050259" lon="05.726913"><ele>23.7</ele><time>2021-05-01T13:40:17Z</time><name>PT2443</name></trkpt>
<trkpt lat="52.050267" lon="05.726911"><ele>23.6</ele><time>2021-05-01T13:40:17Z</time><name>PT2444</name></trkpt>
<trkpt lat="52.050276" lon="05.726907"><ele>23.7</ele><time>2021-05-01T13:40:19Z</time><name>PT2445</name></trkpt>
<trkpt lat="52.050285" lon="05.726904"><ele>23.8</ele><time>2021-05-01T13:40:19Z</time><name>PT2446</name></trkpt>
<trkpt lat="52.050295" lon="05.726903"><ele>23.8</ele><time>2021-05-01T13:40:21Z</time><name>PT2447</name></trkpt>
<trkpt lat="52.050305" lon="05.726904"><ele>23.9</ele><time>2021-05-01T13:40:21Z</time><name>PT2448</name></trkpt>
<trkpt lat="52.050313" lon="05.726905"><ele>24.3</ele><time>2021-05-01T13:40:23Z</time><name>PT2449</name></trkpt>
<trkpt lat="52.050322" lon="05.726908"><ele>24.3</ele><time>2021-05-01T13:40:23Z</time><name>PT2450</name></trkpt>
<trkpt lat="52.050330" lon="05.726906"><ele>24.3</ele><time>2021-05-01T13:40:25Z</time><name>PT2451</name></trkpt>
<trkpt lat="52.050336" lon="05.726906"><ele>24.4</ele><time>2021-05-01T13:40:26Z</time><name>PT2452</name></trkpt>
<trkpt lat="52.050337" lon="05.726911"><ele>24.6</ele><time>2021-05-01T13:40:27Z</time><name>PT2453</name></trkpt>
<trkpt lat="52.050337" lon="05.726913"><ele>24.4</ele><time>2021-05-01T13:40:27Z</time><name>PT2454</name></trkpt>
<trkpt lat="52.050338" lon="05.726912"><ele>24.3</ele><time>2021-05-01T13:40:29Z</time><name>PT2455</name></trkpt>
<trkpt lat="52.050336" lon="05.726915"><ele>24.4</ele><time>2021-05-01T13:40:29Z</time><name>PT2456</name></trkpt>
<trkpt lat="52.050335" lon="05.726917"><ele>24.3</ele><time>2021-05-01T13:40:31Z</time><name>PT2457</name></trkpt>
<trkpt lat="52.050336" lon="05.726918"><ele>24.2</ele><time>2021-05-01T13:40:31Z</time><name>PT2458</name></trkpt>
<trkpt lat="52.050333" lon="05.726920"><ele>24.2</ele><time>2021-05-01T13:40:53Z</time><name>PT2459</name></trkpt>
<trkpt lat="52.050331" lon="05.726911"><ele>24.2</ele><time>2021-05-01T13:40:53Z</time><name>PT2460</name></trkpt>
<trkpt lat="52.050329" lon="05.726911"><ele>24.3</ele><time>2021-05-01T13:40:55Z</time><name>PT2461</name></trkpt>
<trkpt lat="52.050326" lon="05.726913"><ele>24.3</ele><time>2021-05-01T13:40:55Z</time><name>PT2462</name></trkpt>
<trkpt lat="52.050324" lon="05.726918"><ele>24.2</ele><time>2021-05-01T13:40:57Z</time><name>PT2463</name></trkpt>
<trkpt lat="52.050320" lon="05.726918"><ele>24.2</ele><time>2021-05-01T13:40:57Z</time><name>PT2464</name></trkpt>
<trkpt lat="52.050315" lon="05.726924"><ele>24.2</ele><time>2021-05-01T13:40:59Z</time><name>PT2465</name></trkpt>
<trkpt lat="52.050310" lon="05.726929"><ele>24.3</ele><time>2021-05-01T13:40:59Z</time><name>PT2466</name></trkpt>
<trkpt lat="52.050307" lon="05.726933"><ele>24.3</ele><time>2021-05-01T13:41:01Z</time><name>PT2467</name></trkpt>
<trkpt lat="52.050304" lon="05.726936"><ele>24.2</ele><time>2021-05-01T13:41:01Z</time><name>PT2468</name></trkpt>
<trkpt lat="52.050297" lon="05.726939"><ele>24.1</ele><time>2021-05-01T13:41:03Z</time><name>PT2469</name></trkpt>
<trkpt lat="52.050290" lon="05.726938"><ele>24.2</ele><time>2021-05-01T13:41:03Z</time><name>PT2470</name></trkpt>
<trkpt lat="52.050286" lon="05.726940"><ele>24</ele><time>2021-05-01T13:41:05Z</time><name>PT2471</name></trkpt>
<trkpt lat="52.050278" lon="05.726940"><ele>24.1</ele><time>2021-05-01T13:41:05Z</time><name>PT2472</name></trkpt>
<trkpt lat="52.050271" lon="05.726943"><ele>24</ele><time>2021-05-01T13:41:07Z</time><name>PT2473</name></trkpt>
<trkpt lat="52.050265" lon="05.726945"><ele>23.9</ele><time>2021-05-01T13:41:07Z</time><name>PT2474</name></trkpt>
<trkpt lat="52.050260" lon="05.726949"><ele>23.7</ele><time>2021-05-01T13:41:09Z</time><name>PT2475</name></trkpt>
<trkpt lat="52.050257" lon="05.726951"><ele>23.6</ele><time>2021-05-01T13:41:10Z</time><name>PT2476</name></trkpt>
<trkpt lat="52.050258" lon="05.726951"><ele>23.5</ele><time>2021-05-01T13:41:10Z</time><name>PT2477</name></trkpt>
<trkpt lat="52.050255" lon="05.726959"><ele>23.4</ele><time>2021-05-01T13:41:12Z</time><name>PT2478</name></trkpt>
<trkpt lat="52.050252" lon="05.726981"><ele>23.4</ele><time>2021-05-01T13:41:12Z</time><name>PT2479</name></trkpt>
<trkpt lat="52.050248" lon="05.726986"><ele>23.5</ele><time>2021-05-01T13:41:14Z</time><name>PT2480</name></trkpt>
<trkpt lat="52.050245" lon="05.726983"><ele>23.6</ele><time>2021-05-01T13:41:14Z</time><name>PT2481</name></trkpt>
<trkpt lat="52.050244" lon="05.726981"><ele>23.6</ele><time>2021-05-01T13:41:16Z</time><name>PT2482</name></trkpt>
<trkpt lat="52.050243" lon="05.726982"><ele>23.5</ele><time>2021-05-01T13:41:16Z</time><name>PT2483</name></trkpt>
<trkpt lat="52.050240" lon="05.726986"><ele>23.3</ele><time>2021-05-01T13:41:27Z</time><name>PT2484</name></trkpt>
<trkpt lat="52.050240" lon="05.727005"><ele>23.4</ele><time>2021-05-01T13:41:27Z</time><name>PT2485</name></trkpt>
<trkpt lat="52.050241" lon="05.727023"><ele>23.3</ele><time>2021-05-01T13:41:29Z</time><name>PT2486</name></trkpt>
<trkpt lat="52.050242" lon="05.727031"><ele>23.4</ele><time>2021-05-01T13:41:30Z</time><name>PT2487</name></trkpt>
<trkpt lat="52.050245" lon="05.727038"><ele>23.4</ele><time>2021-05-01T13:41:31Z</time><name>PT2488</name></trkpt>
<trkpt lat="52.050250" lon="05.727050"><ele>23.4</ele><time>2021-05-01T13:41:31Z</time><name>PT2489</name></trkpt>
<trkpt lat="52.050252" lon="05.727074"><ele>23.6</ele><time>2021-05-01T13:41:33Z</time><name>PT2490</name></trkpt>
<trkpt lat="52.050255" lon="05.727090"><ele>23.8</ele><time>2021-05-01T13:41:33Z</time><name>PT2491</name></trkpt>
<trkpt lat="52.050255" lon="05.727105"><ele>23.6</ele><time>2021-05-01T13:41:35Z</time><name>PT2492</name></trkpt>
<trkpt lat="52.050254" lon="05.727119"><ele>23.8</ele><time>2021-05-01T13:41:35Z</time><name>PT2493</name></trkpt>
<trkpt lat="52.050249" lon="05.727131"><ele>23.8</ele><time>2021-05-01T13:41:37Z</time><name>PT2494</name></trkpt>
<trkpt lat="52.050251" lon="05.727139"><ele>23.8</ele><time>2021-05-01T13:41:37Z</time><name>PT2495</name></trkpt>
<trkpt lat="52.050250" lon="05.727144"><ele>23.9</ele><time>2021-05-01T13:41:39Z</time><name>PT2496</name></trkpt>
<trkpt lat="52.050251" lon="05.727148"><ele>24.2</ele><time>2021-05-01T13:41:39Z</time><name>PT2497</name></trkpt>
<trkpt lat="52.050250" lon="05.727158"><ele>24</ele><time>2021-05-01T13:41:41Z</time><name>PT2498</name></trkpt>
<trkpt lat="52.050249" lon="05.727172"><ele>24.1</ele><time>2021-05-01T13:41:41Z</time><name>PT2499</name></trkpt>
<trkpt lat="52.050249" lon="05.727187"><ele>23.9</ele><time>2021-05-01T13:41:43Z</time><name>PT2500</name></trkpt>
<trkpt lat="52.050251" lon="05.727199"><ele>23.9</ele><time>2021-05-01T13:41:43Z</time><name>PT2501</name></trkpt>
<trkpt lat="52.050258" lon="05.727215"><ele>23.8</ele><time>2021-05-01T13:41:45Z</time><name>PT2502</name></trkpt>
<trkpt lat="52.050262" lon="05.727226"><ele>24</ele><time>2021-05-01T13:41:45Z</time><name>PT2503</name></trkpt>
<trkpt lat="52.050264" lon="05.727243"><ele>24</ele><time>2021-05-01T13:41:47Z</time><name>PT2504</name></trkpt>
<trkpt lat="52.050265" lon="05.727254"><ele>23.9</ele><time>2021-05-01T13:41:47Z</time><name>PT2505</name></trkpt>
<trkpt lat="52.050264" lon="05.727256"><ele>23.9</ele><time>2021-05-01T13:41:49Z</time><name>PT2506</name></trkpt>
<trkpt lat="52.050261" lon="05.727253"><ele>23.8</ele><time>2021-05-01T13:41:49Z</time><name>PT2507</name></trkpt>
<trkpt lat="52.050261" lon="05.727253"><ele>23.8</ele><time>2021-05-01T13:41:51Z</time><name>PT2508</name></trkpt>
<trkpt lat="52.050260" lon="05.727253"><ele>24</ele><time>2021-05-01T13:41:51Z</time><name>PT2509</name></trkpt>
<trkpt lat="52.050258" lon="05.727251"><ele>24.2</ele><time>2021-05-01T13:41:53Z</time><name>PT2510</name></trkpt>
<trkpt lat="52.050257" lon="05.727248"><ele>24.2</ele><time>2021-05-01T13:41:53Z</time><name>PT2511</name></trkpt>
<trkpt lat="52.050261" lon="05.727257"><ele>24.3</ele><time>2021-05-01T13:41:55Z</time><name>PT2512</name></trkpt>
<trkpt lat="52.050266" lon="05.727272"><ele>24.3</ele><time>2021-05-01T13:41:55Z</time><name>PT2513</name></trkpt>
<trkpt lat="52.050272" lon="05.727287"><ele>24.4</ele><time>2021-05-01T13:41:57Z</time><name>PT2514</name></trkpt>
<trkpt lat="52.050278" lon="05.727302"><ele>24.3</ele><time>2021-05-01T13:41:57Z</time><name>PT2515</name></trkpt>
<trkpt lat="52.050283" lon="05.727315"><ele>24.4</ele><time>2021-05-01T13:41:59Z</time><name>PT2516</name></trkpt>
<trkpt lat="52.050288" lon="05.727327"><ele>24.3</ele><time>2021-05-01T13:41:59Z</time><name>PT2517</name></trkpt>
<trkpt lat="52.050293" lon="05.727340"><ele>24.2</ele><time>2021-05-01T13:42:01Z</time><name>PT2518</name></trkpt>
<trkpt lat="52.050296" lon="05.727355"><ele>24.1</ele><time>2021-05-01T13:42:01Z</time><name>PT2519</name></trkpt>
<trkpt lat="52.050302" lon="05.727370"><ele>24</ele><time>2021-05-01T13:42:03Z</time><name>PT2520</name></trkpt>
<trkpt lat="52.050310" lon="05.727383"><ele>24</ele><time>2021-05-01T13:42:03Z</time><name>PT2521</name></trkpt>
<trkpt lat="52.050318" lon="05.727396"><ele>24.1</ele><time>2021-05-01T13:42:05Z</time><name>PT2522</name></trkpt>
<trkpt lat="52.050325" lon="05.727408"><ele>23.9</ele><time>2021-05-01T13:42:05Z</time><name>PT2523</name></trkpt>
<trkpt lat="52.050333" lon="05.727417"><ele>23.9</ele><time>2021-05-01T13:42:07Z</time><name>PT2524</name></trkpt>
<trkpt lat="52.050340" lon="05.727424"><ele>23.9</ele><time>2021-05-01T13:42:07Z</time><name>PT2525</name></trkpt>
<trkpt lat="52.050348" lon="05.727434"><ele>24</ele><time>2021-05-01T13:42:09Z</time><name>PT2526</name></trkpt>
<trkpt lat="52.050355" lon="05.727447"><ele>24</ele><time>2021-05-01T13:42:09Z</time><name>PT2527</name></trkpt>
<trkpt lat="52.050362" lon="05.727460"><ele>24.2</ele><time>2021-05-01T13:42:11Z</time><name>PT2528</name></trkpt>
<trkpt lat="52.050369" lon="05.727473"><ele>24.3</ele><time>2021-05-01T13:42:11Z</time><name>PT2529</name></trkpt>
<trkpt lat="52.050375" lon="05.727482"><ele>24.3</ele><time>2021-05-01T13:42:13Z</time><name>PT2530</name></trkpt>
<trkpt lat="52.050379" lon="05.727493"><ele>24.3</ele><time>2021-05-01T13:42:13Z</time><name>PT2531</name></trkpt>
<trkpt lat="52.050380" lon="05.727508"><ele>24.3</ele><time>2021-05-01T13:42:15Z</time><name>PT2532</name></trkpt>
<trkpt lat="52.050381" lon="05.727524"><ele>24.3</ele><time>2021-05-01T13:42:15Z</time><name>PT2533</name></trkpt>
<trkpt lat="52.050377" lon="05.727539"><ele>24.3</ele><time>2021-05-01T13:42:17Z</time><name>PT2534</name></trkpt>
<trkpt lat="52.050376" lon="05.727553"><ele>24.3</ele><time>2021-05-01T13:42:17Z</time><name>PT2535</name></trkpt>
<trkpt lat="52.050375" lon="05.727570"><ele>24</ele><time>2021-05-01T13:42:19Z</time><name>PT2536</name></trkpt>
<trkpt lat="52.050373" lon="05.727584"><ele>23.8</ele><time>2021-05-01T13:42:19Z</time><name>PT2537</name></trkpt>
<trkpt lat="52.050369" lon="05.727598"><ele>23.8</ele><time>2021-05-01T13:42:21Z</time><name>PT2538</name></trkpt>
<trkpt lat="52.050365" lon="05.727613"><ele>23.9</ele><time>2021-05-01T13:42:21Z</time><name>PT2539</name></trkpt>
<trkpt lat="52.050361" lon="05.727627"><ele>23.9</ele><time>2021-05-01T13:42:23Z</time><name>PT2540</name></trkpt>
<trkpt lat="52.050358" lon="05.727641"><ele>24.2</ele><time>2021-05-01T13:42:23Z</time><name>PT2541</name></trkpt>
<trkpt lat="52.050355" lon="05.727656"><ele>24.3</ele><time>2021-05-01T13:42:25Z</time><name>PT2542</name></trkpt>
<trkpt lat="52.050352" lon="05.727669"><ele>24.3</ele><time>2021-05-01T13:42:26Z</time><name>PT2543</name></trkpt>
<trkpt lat="52.050348" lon="05.727682"><ele>24.3</ele><time>2021-05-01T13:42:27Z</time><name>PT2544</name></trkpt>
<trkpt lat="52.050343" lon="05.727694"><ele>24.4</ele><time>2021-05-01T13:42:27Z</time><name>PT2545</name></trkpt>
<trkpt lat="52.050338" lon="05.727705"><ele>24.4</ele><time>2021-05-01T13:42:29Z</time><name>PT2546</name></trkpt>
<trkpt lat="52.050333" lon="05.727711"><ele>24.4</ele><time>2021-05-01T13:42:29Z</time><name>PT2547</name></trkpt>
<trkpt lat="52.050332" lon="05.727719"><ele>24.2</ele><time>2021-05-01T13:42:31Z</time><name>PT2548</name></trkpt>
<trkpt lat="52.050330" lon="05.727741"><ele>24.2</ele><time>2021-05-01T13:42:31Z</time><name>PT2549</name></trkpt>
<trkpt lat="52.050325" lon="05.727772"><ele>24.2</ele><time>2021-05-01T13:42:33Z</time><name>PT2550</name></trkpt>
<trkpt lat="52.050318" lon="05.727807"><ele>24.1</ele><time>2021-05-01T13:42:33Z</time><name>PT2551</name></trkpt>
<trkpt lat="52.050320" lon="05.727836"><ele>24.2</ele><time>2021-05-01T13:42:35Z</time><name>PT2552</name></trkpt>
<trkpt lat="52.050322" lon="05.727864"><ele>24.3</ele><time>2021-05-01T13:42:35Z</time><name>PT2553</name></trkpt>
<trkpt lat="52.050326" lon="05.727891"><ele>24</ele><time>2021-05-01T13:42:37Z</time><name>PT2554</name></trkpt>
<trkpt lat="52.050327" lon="05.727910"><ele>24</ele><time>2021-05-01T13:42:37Z</time><name>PT2555</name></trkpt>
<trkpt lat="52.050331" lon="05.727916"><ele>24.1</ele><time>2021-05-01T13:42:39Z</time><name>PT2556</name></trkpt>
<trkpt lat="52.050335" lon="05.727931"><ele>23.9</ele><time>2021-05-01T13:42:39Z</time><name>PT2557</name></trkpt>
<trkpt lat="52.050335" lon="05.727948"><ele>24.1</ele><time>2021-05-01T13:42:41Z</time><name>PT2558</name></trkpt>
<trkpt lat="52.050335" lon="05.727963"><ele>24.2</ele><time>2021-05-01T13:42:41Z</time><name>PT2559</name></trkpt>
<trkpt lat="52.050337" lon="05.727981"><ele>24.2</ele><time>2021-05-01T13:42:43Z</time><name>PT2560</name></trkpt>
<trkpt lat="52.050341" lon="05.727998"><ele>24.3</ele><time>2021-05-01T13:42:44Z</time><name>PT2561</name></trkpt>
<trkpt lat="52.050345" lon="05.728014"><ele>24.3</ele><time>2021-05-01T13:42:44Z</time><name>PT2562</name></trkpt>
<trkpt lat="52.050348" lon="05.728034"><ele>24.3</ele><time>2021-05-01T13:42:46Z</time><name>PT2563</name></trkpt>
<trkpt lat="52.050351" lon="05.728054"><ele>24.3</ele><time>2021-05-01T13:42:46Z</time><name>PT2564</name></trkpt>
<trkpt lat="52.050353" lon="05.728074"><ele>24.3</ele><time>2021-05-01T13:42:48Z</time><name>PT2565</name></trkpt>
<trkpt lat="52.050355" lon="05.728093"><ele>24.3</ele><time>2021-05-01T13:42:48Z</time><name>PT2566</name></trkpt>
<trkpt lat="52.050357" lon="05.728112"><ele>24.2</ele><time>2021-05-01T13:42:50Z</time><name>PT2567</name></trkpt>
<trkpt lat="52.050355" lon="05.728128"><ele>24.3</ele><time>2021-05-01T13:42:50Z</time><name>PT2568</name></trkpt>
<trkpt lat="52.050353" lon="05.728140"><ele>24.3</ele><time>2021-05-01T13:42:52Z</time><name>PT2569</name></trkpt>
<trkpt lat="52.050353" lon="05.728154"><ele>24.3</ele><time>2021-05-01T13:42:52Z</time><name>PT2570</name></trkpt>
<trkpt lat="52.050355" lon="05.728171"><ele>24.3</ele><time>2021-05-01T13:42:54Z</time><name>PT2571</name></trkpt>
<trkpt lat="52.050358" lon="05.728190"><ele>24.4</ele><time>2021-05-01T13:42:54Z</time><name>PT2572</name></trkpt>
<trkpt lat="52.050361" lon="05.728207"><ele>24.4</ele><time>2021-05-01T13:42:56Z</time><name>PT2573</name></trkpt>
<trkpt lat="52.050364" lon="05.728226"><ele>24.3</ele><time>2021-05-01T13:42:56Z</time><name>PT2574</name></trkpt>
<trkpt lat="52.050371" lon="05.728244"><ele>24.3</ele><time>2021-05-01T13:42:58Z</time><name>PT2575</name></trkpt>
<trkpt lat="52.050379" lon="05.728268"><ele>24.1</ele><time>2021-05-01T13:42:58Z</time><name>PT2576</name></trkpt>
<trkpt lat="52.050385" lon="05.728291"><ele>24</ele><time>2021-05-01T13:43:00Z</time><name>PT2577</name></trkpt>
<trkpt lat="52.050391" lon="05.728307"><ele>23.9</ele><time>2021-05-01T13:43:00Z</time><name>PT2578</name></trkpt>
<trkpt lat="52.050393" lon="05.728316"><ele>24.2</ele><time>2021-05-01T13:43:02Z</time><name>PT2579</name></trkpt>
<trkpt lat="52.050395" lon="05.728318"><ele>24.1</ele><time>2021-05-01T13:43:02Z</time><name>PT2580</name></trkpt>
<trkpt lat="52.050395" lon="05.728325"><ele>24.1</ele><time>2021-05-01T13:43:04Z</time><name>PT2581</name></trkpt>
<trkpt lat="52.050399" lon="05.728335"><ele>24.1</ele><time>2021-05-01T13:43:04Z</time><name>PT2582</name></trkpt>
<trkpt lat="52.050402" lon="05.728360"><ele>24.1</ele><time>2021-05-01T13:43:06Z</time><name>PT2583</name></trkpt>
<trkpt lat="52.050408" lon="05.728387"><ele>24.1</ele><time>2021-05-01T13:43:06Z</time><name>PT2584</name></trkpt>
<trkpt lat="52.050412" lon="05.728422"><ele>24</ele><time>2021-05-01T13:43:08Z</time><name>PT2585</name></trkpt>
<trkpt lat="52.050414" lon="05.728455"><ele>24</ele><time>2021-05-01T13:43:08Z</time><name>PT2586</name></trkpt>
<trkpt lat="52.050416" lon="05.728483"><ele>24</ele><time>2021-05-01T13:43:10Z</time><name>PT2587</name></trkpt>
<trkpt lat="52.050420" lon="05.728500"><ele>24</ele><time>2021-05-01T13:43:11Z</time><name>PT2588</name></trkpt>
<trkpt lat="52.050424" lon="05.728509"><ele>24</ele><time>2021-05-01T13:43:11Z</time><name>PT2589</name></trkpt>
<trkpt lat="52.050431" lon="05.728504"><ele>24.1</ele><time>2021-05-01T13:43:13Z</time><name>PT2590</name></trkpt>
<trkpt lat="52.050435" lon="05.728503"><ele>24.1</ele><time>2021-05-01T13:43:13Z</time><name>PT2591</name></trkpt>
<trkpt lat="52.050440" lon="05.728506"><ele>24</ele><time>2021-05-01T13:43:15Z</time><name>PT2592</name></trkpt>
<trkpt lat="52.050447" lon="05.728517"><ele>24</ele><time>2021-05-01T13:43:15Z</time><name>PT2593</name></trkpt>
<trkpt lat="52.050458" lon="05.728542"><ele>24</ele><time>2021-05-01T13:43:17Z</time><name>PT2594</name></trkpt>
<trkpt lat="52.050467" lon="05.728573"><ele>24.1</ele><time>2021-05-01T13:43:17Z</time><name>PT2595</name></trkpt>
<trkpt lat="52.050480" lon="05.728599"><ele>24</ele><time>2021-05-01T13:43:19Z</time><name>PT2596</name></trkpt>
<trkpt lat="52.050492" lon="05.728620"><ele>24.2</ele><time>2021-05-01T13:43:19Z</time><name>PT2597</name></trkpt>
<trkpt lat="52.050501" lon="05.728632"><ele>24.2</ele><time>2021-05-01T13:43:21Z</time><name>PT2598</name></trkpt>
<trkpt lat="52.050505" lon="05.728640"><ele>24</ele><time>2021-05-01T13:43:21Z</time><name>PT2599</name></trkpt>
<trkpt lat="52.050505" lon="05.728644"><ele>24</ele><time>2021-05-01T13:43:23Z</time><name>PT2600</name></trkpt>
<trkpt lat="52.050507" lon="05.728643"><ele>23.9</ele><time>2021-05-01T13:43:23Z</time><name>PT2601</name></trkpt>
<trkpt lat="52.050511" lon="05.728643"><ele>23.8</ele><time>2021-05-01T13:43:25Z</time><name>PT2602</name></trkpt>
<trkpt lat="52.050520" lon="05.728643"><ele>23.9</ele><time>2021-05-01T13:43:25Z</time><name>PT2603</name></trkpt>
<trkpt lat="52.050533" lon="05.728641"><ele>24</ele><time>2021-05-01T13:43:27Z</time><name>PT2604</name></trkpt>
<trkpt lat="52.050546" lon="05.728640"><ele>24</ele><time>2021-05-01T13:43:27Z</time><name>PT2605</name></trkpt>
<trkpt lat="52.050556" lon="05.728646"><ele>24.2</ele><time>2021-05-01T13:43:29Z</time><name>PT2606</name></trkpt>
<trkpt lat="52.050569" lon="05.728649"><ele>24.3</ele><time>2021-05-01T13:43:29Z</time><name>PT2607</name></trkpt>
<trkpt lat="52.050583" lon="05.728654"><ele>24</ele><time>2021-05-01T13:43:31Z</time><name>PT2608</name></trkpt>
<trkpt lat="52.050592" lon="05.728668"><ele>24.1</ele><time>2021-05-01T13:43:31Z</time><name>PT2609</name></trkpt>
<trkpt lat="52.050601" lon="05.728674"><ele>24.1</ele><time>2021-05-01T13:43:33Z</time><name>PT2610</name></trkpt>
<trkpt lat="52.050607" lon="05.728675"><ele>24.1</ele><time>2021-05-01T13:43:33Z</time><name>PT2611</name></trkpt>
<trkpt lat="52.050611" lon="05.728677"><ele>24</ele><time>2021-05-01T13:43:35Z</time><name>PT2612</name></trkpt>
<trkpt lat="52.050612" lon="05.728680"><ele>24.1</ele><time>2021-05-01T13:43:35Z</time><name>PT2613</name></trkpt>
<trkpt lat="52.050620" lon="05.728683"><ele>24</ele><time>2021-05-01T13:43:37Z</time><name>PT2614</name></trkpt>
<trkpt lat="52.050630" lon="05.728692"><ele>23.9</ele><time>2021-05-01T13:43:38Z</time><name>PT2615</name></trkpt>
<trkpt lat="52.050645" lon="05.728707"><ele>23.9</ele><time>2021-05-01T13:43:39Z</time><name>PT2616</name></trkpt>
<trkpt lat="52.050661" lon="05.728729"><ele>23.8</ele><time>2021-05-01T13:43:39Z</time><name>PT2617</name></trkpt>
<trkpt lat="52.050675" lon="05.728746"><ele>23.8</ele><time>2021-05-01T13:43:41Z</time><name>PT2618</name></trkpt>
<trkpt lat="52.050687" lon="05.728766"><ele>23.9</ele><time>2021-05-01T13:43:41Z</time><name>PT2619</name></trkpt>
<trkpt lat="52.050696" lon="05.728781"><ele>24.1</ele><time>2021-05-01T13:43:43Z</time><name>PT2620</name></trkpt>
<trkpt lat="52.050706" lon="05.728787"><ele>24.2</ele><time>2021-05-01T13:43:43Z</time><name>PT2621</name></trkpt>
<trkpt lat="52.050716" lon="05.728788"><ele>24.3</ele><time>2021-05-01T13:43:45Z</time><name>PT2622</name></trkpt>
<trkpt lat="52.050719" lon="05.728792"><ele>24.3</ele><time>2021-05-01T13:43:45Z</time><name>PT2623</name></trkpt>
<trkpt lat="52.050726" lon="05.728800"><ele>24.2</ele><time>2021-05-01T13:43:47Z</time><name>PT2624</name></trkpt>
<trkpt lat="52.050729" lon="05.728804"><ele>24.1</ele><time>2021-05-01T13:43:47Z</time><name>PT2625</name></trkpt>
<trkpt lat="52.050732" lon="05.728801"><ele>24.1</ele><time>2021-05-01T13:43:49Z</time><name>PT2626</name></trkpt>
<trkpt lat="52.050738" lon="05.728818"><ele>24.1</ele><time>2021-05-01T13:43:49Z</time><name>PT2627</name></trkpt>
<trkpt lat="52.050743" lon="05.728822"><ele>24.1</ele><time>2021-05-01T13:43:51Z</time><name>PT2628</name></trkpt>
<trkpt lat="52.050746" lon="05.728819"><ele>24.1</ele><time>2021-05-01T13:43:51Z</time><name>PT2629</name></trkpt>
<trkpt lat="52.050747" lon="05.728822"><ele>24</ele><time>2021-05-01T13:43:53Z</time><name>PT2630</name></trkpt>
<trkpt lat="52.050747" lon="05.728826"><ele>24.1</ele><time>2021-05-01T13:43:53Z</time><name>PT2631</name></trkpt>
<trkpt lat="52.050750" lon="05.728835"><ele>24.1</ele><time>2021-05-01T13:43:55Z</time><name>PT2632</name></trkpt>
<trkpt lat="52.050755" lon="05.728855"><ele>24.1</ele><time>2021-05-01T13:43:55Z</time><name>PT2633</name></trkpt>
<trkpt lat="52.050754" lon="05.728881"><ele>24.2</ele><time>2021-05-01T13:43:57Z</time><name>PT2634</name></trkpt>
<trkpt lat="52.050750" lon="05.728898"><ele>24.1</ele><time>2021-05-01T13:43:57Z</time><name>PT2635</name></trkpt>
<trkpt lat="52.050754" lon="05.728905"><ele>24.1</ele><time>2021-05-01T13:43:59Z</time><name>PT2636</name></trkpt>
<trkpt lat="52.050760" lon="05.728912"><ele>24.2</ele><time>2021-05-01T13:43:59Z</time><name>PT2637</name></trkpt>
<trkpt lat="52.050762" lon="05.728918"><ele>24.2</ele><time>2021-05-01T13:44:01Z</time><name>PT2638</name></trkpt>
<trkpt lat="52.050763" lon="05.728926"><ele>24.2</ele><time>2021-05-01T13:44:01Z</time><name>PT2639</name></trkpt>
<trkpt lat="52.050763" lon="05.728943"><ele>24.1</ele><time>2021-05-01T13:44:03Z</time><name>PT2640</name></trkpt>
<trkpt lat="52.050761" lon="05.728965"><ele>24.3</ele><time>2021-05-01T13:44:03Z</time><name>PT2641</name></trkpt>
<trkpt lat="52.050761" lon="05.728997"><ele>24.1</ele><time>2021-05-01T13:44:05Z</time><name>PT2642</name></trkpt>
<trkpt lat="52.050761" lon="05.729024"><ele>24.1</ele><time>2021-05-01T13:44:05Z</time><name>PT2643</name></trkpt>
<trkpt lat="52.050760" lon="05.729043"><ele>24.2</ele><time>2021-05-01T13:44:07Z</time><name>PT2644</name></trkpt>
<trkpt lat="52.050761" lon="05.729048"><ele>24.3</ele><time>2021-05-01T13:44:07Z</time><name>PT2645</name></trkpt>
<trkpt lat="52.050763" lon="05.729052"><ele>24.2</ele><time>2021-05-01T13:44:09Z</time><name>PT2646</name></trkpt>
<trkpt lat="52.050763" lon="05.729056"><ele>24.2</ele><time>2021-05-01T13:44:09Z</time><name>PT2647</name></trkpt>
<trkpt lat="52.050766" lon="05.729069"><ele>24.3</ele><time>2021-05-01T13:44:11Z</time><name>PT2648</name></trkpt>
<trkpt lat="52.050768" lon="05.729080"><ele>24.3</ele><time>2021-05-01T13:44:11Z</time><name>PT2649</name></trkpt>
<trkpt lat="52.050770" lon="05.729091"><ele>24.1</ele><time>2021-05-01T13:44:13Z</time><name>PT2650</name></trkpt>
<trkpt lat="52.050772" lon="05.729112"><ele>24.1</ele><time>2021-05-01T13:44:13Z</time><name>PT2651</name></trkpt>
<trkpt lat="52.050773" lon="05.729140"><ele>24.2</ele><time>2021-05-01T13:44:15Z</time><name>PT2652</name></trkpt>
<trkpt lat="52.050772" lon="05.729172"><ele>24.1</ele><time>2021-05-01T13:44:15Z</time><name>PT2653</name></trkpt>
<trkpt lat="52.050770" lon="05.729207"><ele>23.9</ele><time>2021-05-01T13:44:17Z</time><name>PT2654</name></trkpt>
<trkpt lat="52.050768" lon="05.729241"><ele>24</ele><time>2021-05-01T13:44:17Z</time><name>PT2655</name></trkpt>
<trkpt lat="52.050762" lon="05.729268"><ele>24.1</ele><time>2021-05-01T13:44:19Z</time><name>PT2656</name></trkpt>
<trkpt lat="52.050762" lon="05.729291"><ele>24</ele><time>2021-05-01T13:44:19Z</time><name>PT2657</name></trkpt>
<trkpt lat="52.050763" lon="05.729308"><ele>24.1</ele><time>2021-05-01T13:44:21Z</time><name>PT2658</name></trkpt>
<trkpt lat="52.050767" lon="05.729333"><ele>24.1</ele><time>2021-05-01T13:44:21Z</time><name>PT2659</name></trkpt>
<trkpt lat="52.050774" lon="05.729347"><ele>24.2</ele><time>2021-05-01T13:44:23Z</time><name>PT2660</name></trkpt>
<trkpt lat="52.050774" lon="05.729350"><ele>24.1</ele><time>2021-05-01T13:44:23Z</time><name>PT2661</name></trkpt>
<trkpt lat="52.050770" lon="05.729357"><ele>24</ele><time>2021-05-01T13:44:25Z</time><name>PT2662</name></trkpt>
<trkpt lat="52.050771" lon="05.729367"><ele>23.9</ele><time>2021-05-01T13:44:25Z</time><name>PT2663</name></trkpt>
<trkpt lat="52.050768" lon="05.729378"><ele>23.8</ele><time>2021-05-01T13:44:27Z</time><name>PT2664</name></trkpt>
<trkpt lat="52.050764" lon="05.729385"><ele>23.8</ele><time>2021-05-01T13:44:27Z</time><name>PT2665</name></trkpt>
<trkpt lat="52.050763" lon="05.729396"><ele>23.8</ele><time>2021-05-01T13:44:29Z</time><name>PT2666</name></trkpt>
<trkpt lat="52.050768" lon="05.729412"><ele>23.8</ele><time>2021-05-01T13:44:29Z</time><name>PT2667</name></trkpt>
<trkpt lat="52.050777" lon="05.729432"><ele>23.8</ele><time>2021-05-01T13:44:31Z</time><name>PT2668</name></trkpt>
<trkpt lat="52.050781" lon="05.729465"><ele>23.8</ele><time>2021-05-01T13:44:31Z</time><name>PT2669</name></trkpt>
<trkpt lat="52.050778" lon="05.729496"><ele>23.8</ele><time>2021-05-01T13:44:33Z</time><name>PT2670</name></trkpt>
<trkpt lat="52.050775" lon="05.729515"><ele>23.8</ele><time>2021-05-01T13:44:33Z</time><name>PT2671</name></trkpt>
<trkpt lat="52.050774" lon="05.729527"><ele>23.8</ele><time>2021-05-01T13:44:35Z</time><name>PT2672</name></trkpt>
<trkpt lat="52.050773" lon="05.729532"><ele>23.8</ele><time>2021-05-01T13:44:35Z</time><name>PT2673</name></trkpt>
<trkpt lat="52.050773" lon="05.729535"><ele>23.9</ele><time>2021-05-01T13:44:37Z</time><name>PT2674</name></trkpt>
<trkpt lat="52.050770" lon="05.729532"><ele>24</ele><time>2021-05-01T13:44:37Z</time><name>PT2675</name></trkpt>
<trkpt lat="52.050768" lon="05.729530"><ele>24.1</ele><time>2021-05-01T13:44:39Z</time><name>PT2676</name></trkpt>
<trkpt lat="52.050769" lon="05.729551"><ele>24.2</ele><time>2021-05-01T13:44:39Z</time><name>PT2677</name></trkpt>
<trkpt lat="52.050772" lon="05.729564"><ele>24.1</ele><time>2021-05-01T13:44:41Z</time><name>PT2678</name></trkpt>
<trkpt lat="52.050777" lon="05.729580"><ele>24.2</ele><time>2021-05-01T13:44:41Z</time><name>PT2679</name></trkpt>
<trkpt lat="52.050784" lon="05.729614"><ele>24.2</ele><time>2021-05-01T13:44:43Z</time><name>PT2680</name></trkpt>
<trkpt lat="52.050787" lon="05.729652"><ele>24.3</ele><time>2021-05-01T13:44:43Z</time><name>PT2681</name></trkpt>
<trkpt lat="52.050785" lon="05.729676"><ele>24.2</ele><time>2021-05-01T13:44:45Z</time><name>PT2682</name></trkpt>
<trkpt lat="52.050786" lon="05.729690"><ele>24.1</ele><time>2021-05-01T13:44:45Z</time><name>PT2683</name></trkpt>
<trkpt lat="52.050787" lon="05.729692"><ele>23.9</ele><time>2021-05-01T13:44:47Z</time><name>PT2684</name></trkpt>
<trkpt lat="52.050788" lon="05.729694"><ele>23.8</ele><time>2021-05-01T13:44:47Z</time><name>PT2685</name></trkpt>
<trkpt lat="52.050788" lon="05.729697"><ele>23.8</ele><time>2021-05-01T13:44:49Z</time><name>PT2686</name></trkpt>
<trkpt lat="52.050791" lon="05.729720"><ele>23.8</ele><time>2021-05-01T13:44:49Z</time><name>PT2687</name></trkpt>
<trkpt lat="52.050786" lon="05.729749"><ele>23.9</ele><time>2021-05-01T13:44:51Z</time><name>PT2688</name></trkpt>
<trkpt lat="52.050778" lon="05.729780"><ele>24.2</ele><time>2021-05-01T13:44:51Z</time><name>PT2689</name></trkpt>
<trkpt lat="52.050773" lon="05.729809"><ele>24.2</ele><time>2021-05-01T13:44:53Z</time><name>PT2690</name></trkpt>
<trkpt lat="52.050775" lon="05.729831"><ele>24.2</ele><time>2021-05-01T13:44:53Z</time><name>PT2691</name></trkpt>
<trkpt lat="52.050776" lon="05.729840"><ele>24.3</ele><time>2021-05-01T13:44:55Z</time><name>PT2692</name></trkpt>
<trkpt lat="52.050776" lon="05.729842"><ele>24.2</ele><time>2021-05-01T13:44:55Z</time><name>PT2693</name></trkpt>
<trkpt lat="52.050778" lon="05.729853"><ele>24.1</ele><time>2021-05-01T13:44:57Z</time><name>PT2694</name></trkpt>
<trkpt lat="52.050779" lon="05.729873"><ele>24</ele><time>2021-05-01T13:44:57Z</time><name>PT2695</name></trkpt>
<trkpt lat="52.050779" lon="05.729902"><ele>24.1</ele><time>2021-05-01T13:44:59Z</time><name>PT2696</name></trkpt>
<trkpt lat="52.050785" lon="05.729936"><ele>23.9</ele><time>2021-05-01T13:44:59Z</time><name>PT2697</name></trkpt>
<trkpt lat="52.050789" lon="05.729969"><ele>24</ele><time>2021-05-01T13:45:01Z</time><name>PT2698</name></trkpt>
<trkpt lat="52.050791" lon="05.729986"><ele>23.8</ele><time>2021-05-01T13:45:01Z</time><name>PT2699</name></trkpt>
<trkpt lat="52.050795" lon="05.729995"><ele>23.8</ele><time>2021-05-01T13:45:03Z</time><name>PT2700</name></trkpt>
<trkpt lat="52.050798" lon="05.730001"><ele>23.7</ele><time>2021-05-01T13:45:03Z</time><name>PT2701</name></trkpt>
<trkpt lat="52.050800" lon="05.730005"><ele>23.7</ele><time>2021-05-01T13:45:05Z</time><name>PT2702</name></trkpt>
<trkpt lat="52.050803" lon="05.730017"><ele>23.8</ele><time>2021-05-01T13:45:05Z</time><name>PT2703</name></trkpt>
<trkpt lat="52.050806" lon="05.730052"><ele>24.1</ele><time>2021-05-01T13:45:07Z</time><name>PT2704</name></trkpt>
<trkpt lat="52.050811" lon="05.730094"><ele>24.1</ele><time>2021-05-01T13:45:07Z</time><name>PT2705</name></trkpt>
<trkpt lat="52.050810" lon="05.730125"><ele>24.1</ele><time>2021-05-01T13:45:09Z</time><name>PT2706</name></trkpt>
<trkpt lat="52.050810" lon="05.730139"><ele>24.1</ele><time>2021-05-01T13:45:10Z</time><name>PT2707</name></trkpt>
<trkpt lat="52.050809" lon="05.730146"><ele>24</ele><time>2021-05-01T13:45:11Z</time><name>PT2708</name></trkpt>
<trkpt lat="52.050810" lon="05.730150"><ele>24</ele><time>2021-05-01T13:45:11Z</time><name>PT2709</name></trkpt>
<trkpt lat="52.050812" lon="05.730155"><ele>24.1</ele><time>2021-05-01T13:45:13Z</time><name>PT2710</name></trkpt>
<trkpt lat="52.050815" lon="05.730177"><ele>24.1</ele><time>2021-05-01T13:45:13Z</time><name>PT2711</name></trkpt>
<trkpt lat="52.050815" lon="05.730208"><ele>23.8</ele><time>2021-05-01T13:45:15Z</time><name>PT2712</name></trkpt>
<trkpt lat="52.050809" lon="05.730242"><ele>23.9</ele><time>2021-05-01T13:45:15Z</time><name>PT2713</name></trkpt>
<trkpt lat="52.050808" lon="05.730270"><ele>23.8</ele><time>2021-05-01T13:45:17Z</time><name>PT2714</name></trkpt>
<trkpt lat="52.050808" lon="05.730282"><ele>23.8</ele><time>2021-05-01T13:45:17Z</time><name>PT2715</name></trkpt>
<trkpt lat="52.050808" lon="05.730291"><ele>23.8</ele><time>2021-05-01T13:45:19Z</time><name>PT2716</name></trkpt>
<trkpt lat="52.050807" lon="05.730292"><ele>24</ele><time>2021-05-01T13:45:19Z</time><name>PT2717</name></trkpt>
<trkpt lat="52.050809" lon="05.730302"><ele>24</ele><time>2021-05-01T13:45:21Z</time><name>PT2718</name></trkpt>
<trkpt lat="52.050813" lon="05.730326"><ele>23.8</ele><time>2021-05-01T13:45:21Z</time><name>PT2719</name></trkpt>
<trkpt lat="52.050817" lon="05.730359"><ele>23.9</ele><time>2021-05-01T13:45:23Z</time><name>PT2720</name></trkpt>
<trkpt lat="52.050818" lon="05.730383"><ele>23.9</ele><time>2021-05-01T13:45:23Z</time><name>PT2721</name></trkpt>
<trkpt lat="52.050818" lon="05.730402"><ele>23.9</ele><time>2021-05-01T13:45:25Z</time><name>PT2722</name></trkpt>
<trkpt lat="52.050820" lon="05.730417"><ele>23.8</ele><time>2021-05-01T13:45:25Z</time><name>PT2723</name></trkpt>
<trkpt lat="52.050817" lon="05.730420"><ele>23.9</ele><time>2021-05-01T13:45:27Z</time><name>PT2724</name></trkpt>
<trkpt lat="52.050817" lon="05.730426"><ele>23.9</ele><time>2021-05-01T13:45:27Z</time><name>PT2725</name></trkpt>
<trkpt lat="52.050821" lon="05.730446"><ele>23.9</ele><time>2021-05-01T13:45:29Z</time><name>PT2726</name></trkpt>
<trkpt lat="52.050821" lon="05.730471"><ele>23.8</ele><time>2021-05-01T13:45:29Z</time><name>PT2727</name></trkpt>
<trkpt lat="52.050822" lon="05.730509"><ele>23.9</ele><time>2021-05-01T13:45:31Z</time><name>PT2728</name></trkpt>
<trkpt lat="52.050824" lon="05.730542"><ele>24.1</ele><time>2021-05-01T13:45:31Z</time><name>PT2729</name></trkpt>
<trkpt lat="52.050826" lon="05.730563"><ele>24.3</ele><time>2021-05-01T13:45:33Z</time><name>PT2730</name></trkpt>
<trkpt lat="52.050826" lon="05.730572"><ele>24.3</ele><time>2021-05-01T13:45:33Z</time><name>PT2731</name></trkpt>
<trkpt lat="52.050827" lon="05.730579"><ele>24.3</ele><time>2021-05-01T13:45:35Z</time><name>PT2732</name></trkpt>
<trkpt lat="52.050829" lon="05.730590"><ele>24.3</ele><time>2021-05-01T13:45:35Z</time><name>PT2733</name></trkpt>
<trkpt lat="52.050829" lon="05.730605"><ele>24.4</ele><time>2021-05-01T13:45:37Z</time><name>PT2734</name></trkpt>
<trkpt lat="52.050831" lon="05.730634"><ele>24.4</ele><time>2021-05-01T13:45:37Z</time><name>PT2735</name></trkpt>
<trkpt lat="52.050834" lon="05.730669"><ele>24.5</ele><time>2021-05-01T13:45:39Z</time><name>PT2736</name></trkpt>
<trkpt lat="52.050833" lon="05.730694"><ele>24.4</ele><time>2021-05-01T13:45:39Z</time><name>PT2737</name></trkpt>
<trkpt lat="52.050833" lon="05.730712"><ele>24.3</ele><time>2021-05-01T13:45:41Z</time><name>PT2738</name></trkpt>
<trkpt lat="52.050836" lon="05.730725"><ele>24</ele><time>2021-05-01T13:45:41Z</time><name>PT2739</name></trkpt>
<trkpt lat="52.050838" lon="05.730730"><ele>23.9</ele><time>2021-05-01T13:45:43Z</time><name>PT2740</name></trkpt>
<trkpt lat="52.050839" lon="05.730740"><ele>23.9</ele><time>2021-05-01T13:45:43Z</time><name>PT2741</name></trkpt>
<trkpt lat="52.050839" lon="05.730753"><ele>24.1</ele><time>2021-05-01T13:45:45Z</time><name>PT2742</name></trkpt>
<trkpt lat="52.050838" lon="05.730776"><ele>24.1</ele><time>2021-05-01T13:45:45Z</time><name>PT2743</name></trkpt>
<trkpt lat="52.050840" lon="05.730814"><ele>24.3</ele><time>2021-05-01T13:45:47Z</time><name>PT2744</name></trkpt>
<trkpt lat="52.050836" lon="05.730843"><ele>24.3</ele><time>2021-05-01T13:45:47Z</time><name>PT2745</name></trkpt>
<trkpt lat="52.050832" lon="05.730869"><ele>24.2</ele><time>2021-05-01T13:45:49Z</time><name>PT2746</name></trkpt>
<trkpt lat="52.050830" lon="05.730880"><ele>24.3</ele><time>2021-05-01T13:45:49Z</time><name>PT2747</name></trkpt>
<trkpt lat="52.050831" lon="05.730890"><ele>24.3</ele><time>2021-05-01T13:45:51Z</time><name>PT2748</name></trkpt>
<trkpt lat="52.050836" lon="05.730905"><ele>24.1</ele><time>2021-05-01T13:45:51Z</time><name>PT2749</name></trkpt>
<trkpt lat="52.050841" lon="05.730919"><ele>24.1</ele><time>2021-05-01T13:45:53Z</time><name>PT2750</name></trkpt>
<trkpt lat="52.050843" lon="05.730943"><ele>24.2</ele><time>2021-05-01T13:45:53Z</time><name>PT2751</name></trkpt>
<trkpt lat="52.050844" lon="05.730966"><ele>24.3</ele><time>2021-05-01T13:45:55Z</time><name>PT2752</name></trkpt>
<trkpt lat="52.050842" lon="05.730997"><ele>24.3</ele><time>2021-05-01T13:45:55Z</time><name>PT2753</name></trkpt>
<trkpt lat="52.050839" lon="05.731026"><ele>24.3</ele><time>2021-05-01T13:45:57Z</time><name>PT2754</name></trkpt>
<trkpt lat="52.050841" lon="05.731042"><ele>24.3</ele><time>2021-05-01T13:45:57Z</time><name>PT2755</name></trkpt>
<trkpt lat="52.050843" lon="05.731055"><ele>24.3</ele><time>2021-05-01T13:45:59Z</time><name>PT2756</name></trkpt>
<trkpt lat="52.050843" lon="05.731060"><ele>24.1</ele><time>2021-05-01T13:45:59Z</time><name>PT2757</name></trkpt>
<trkpt lat="52.050846" lon="05.731063"><ele>24.1</ele><time>2021-05-01T13:46:01Z</time><name>PT2758</name></trkpt>
<trkpt lat="52.050846" lon="05.731075"><ele>24.1</ele><time>2021-05-01T13:46:01Z</time><name>PT2759</name></trkpt>
<trkpt lat="52.050844" lon="05.731094"><ele>24.1</ele><time>2021-05-01T13:46:03Z</time><name>PT2760</name></trkpt>
<trkpt lat="52.050843" lon="05.731114"><ele>24.2</ele><time>2021-05-01T13:46:03Z</time><name>PT2761</name></trkpt>
<trkpt lat="52.050845" lon="05.731144"><ele>24.2</ele><time>2021-05-01T13:46:05Z</time><name>PT2762</name></trkpt>
<trkpt lat="52.050846" lon="05.731169"><ele>24.3</ele><time>2021-05-01T13:46:05Z</time><name>PT2763</name></trkpt>
<trkpt lat="52.050848" lon="05.731182"><ele>24.3</ele><time>2021-05-01T13:46:07Z</time><name>PT2764</name></trkpt>
<trkpt lat="52.050847" lon="05.731192"><ele>24.3</ele><time>2021-05-01T13:46:07Z</time><name>PT2765</name></trkpt>
<trkpt lat="52.050850" lon="05.731198"><ele>24.3</ele><time>2021-05-01T13:46:09Z</time><name>PT2766</name></trkpt>
<trkpt lat="52.050853" lon="05.731209"><ele>24.3</ele><time>2021-05-01T13:46:09Z</time><name>PT2767</name></trkpt>
<trkpt lat="52.050855" lon="05.731225"><ele>24.2</ele><time>2021-05-01T13:46:11Z</time><name>PT2768</name></trkpt>
<trkpt lat="52.050859" lon="05.731251"><ele>24.2</ele><time>2021-05-01T13:46:11Z</time><name>PT2769</name></trkpt>
<trkpt lat="52.050864" lon="05.731282"><ele>24</ele><time>2021-05-01T13:46:13Z</time><name>PT2770</name></trkpt>
<trkpt lat="52.050867" lon="05.731315"><ele>24</ele><time>2021-05-01T13:46:13Z</time><name>PT2771</name></trkpt>
<trkpt lat="52.050867" lon="05.731342"><ele>24</ele><time>2021-05-01T13:46:15Z</time><name>PT2772</name></trkpt>
<trkpt lat="52.050866" lon="05.731365"><ele>24.1</ele><time>2021-05-01T13:46:15Z</time><name>PT2773</name></trkpt>
<trkpt lat="52.050867" lon="05.731378"><ele>24.2</ele><time>2021-05-01T13:46:17Z</time><name>PT2774</name></trkpt>
<trkpt lat="52.050869" lon="05.731384"><ele>24.3</ele><time>2021-05-01T13:46:17Z</time><name>PT2775</name></trkpt>
<trkpt lat="52.050871" lon="05.731398"><ele>24.4</ele><time>2021-05-01T13:46:19Z</time><name>PT2776</name></trkpt>
<trkpt lat="52.050871" lon="05.731417"><ele>24.6</ele><time>2021-05-01T13:46:19Z</time><name>PT2777</name></trkpt>
<trkpt lat="52.050872" lon="05.731436"><ele>24.5</ele><time>2021-05-01T13:46:21Z</time><name>PT2778</name></trkpt>
<trkpt lat="52.050874" lon="05.731464"><ele>24.3</ele><time>2021-05-01T13:46:21Z</time><name>PT2779</name></trkpt>
<trkpt lat="52.050878" lon="05.731496"><ele>24.5</ele><time>2021-05-01T13:46:23Z</time><name>PT2780</name></trkpt>
<trkpt lat="52.050881" lon="05.731519"><ele>24.3</ele><time>2021-05-01T13:46:23Z</time><name>PT2781</name></trkpt>
<trkpt lat="52.050882" lon="05.731541"><ele>24.4</ele><time>2021-05-01T13:46:25Z</time><name>PT2782</name></trkpt>
<trkpt lat="52.050882" lon="05.731550"><ele>24.3</ele><time>2021-05-01T13:46:25Z</time><name>PT2783</name></trkpt>
<trkpt lat="52.050883" lon="05.731558"><ele>24.3</ele><time>2021-05-01T13:46:27Z</time><name>PT2784</name></trkpt>
<trkpt lat="52.050884" lon="05.731569"><ele>24.3</ele><time>2021-05-01T13:46:27Z</time><name>PT2785</name></trkpt>
<trkpt lat="52.050886" lon="05.731595"><ele>24.3</ele><time>2021-05-01T13:46:29Z</time><name>PT2786</name></trkpt>
<trkpt lat="52.050889" lon="05.731623"><ele>24.4</ele><time>2021-05-01T13:46:29Z</time><name>PT2787</name></trkpt>
<trkpt lat="52.050888" lon="05.731653"><ele>24.5</ele><time>2021-05-01T13:46:31Z</time><name>PT2788</name></trkpt>
<trkpt lat="52.050889" lon="05.731677"><ele>24.4</ele><time>2021-05-01T13:46:31Z</time><name>PT2789</name></trkpt>
<trkpt lat="52.050889" lon="05.731690"><ele>24.4</ele><time>2021-05-01T13:46:33Z</time><name>PT2790</name></trkpt>
<trkpt lat="52.050891" lon="05.731692"><ele>24.3</ele><time>2021-05-01T13:46:34Z</time><name>PT2791</name></trkpt>
<trkpt lat="52.050892" lon="05.731700"><ele>24.1</ele><time>2021-05-01T13:46:35Z</time><name>PT2792</name></trkpt>
<trkpt lat="52.050890" lon="05.731717"><ele>24.2</ele><time>2021-05-01T13:46:35Z</time><name>PT2793</name></trkpt>
<trkpt lat="52.050880" lon="05.731743"><ele>24.2</ele><time>2021-05-01T13:46:37Z</time><name>PT2794</name></trkpt>
<trkpt lat="52.050871" lon="05.731766"><ele>24.2</ele><time>2021-05-01T13:46:37Z</time><name>PT2795</name></trkpt>
<trkpt lat="52.050874" lon="05.731784"><ele>24.4</ele><time>2021-05-01T13:46:39Z</time><name>PT2796</name></trkpt>
<trkpt lat="52.050878" lon="05.731795"><ele>24.5</ele><time>2021-05-01T13:46:39Z</time><name>PT2797</name></trkpt>
<trkpt lat="52.050878" lon="05.731802"><ele>24.4</ele><time>2021-05-01T13:46:41Z</time><name>PT2798</name></trkpt>
<trkpt lat="52.050883" lon="05.731810"><ele>24.5</ele><time>2021-05-01T13:46:41Z</time><name>PT2799</name></trkpt>
<trkpt lat="52.050890" lon="05.731824"><ele>24.7</ele><time>2021-05-01T13:46:43Z</time><name>PT2800</name></trkpt>
<trkpt lat="52.050888" lon="05.731843"><ele>24.6</ele><time>2021-05-01T13:46:43Z</time><name>PT2801</name></trkpt>
<trkpt lat="52.050882" lon="05.731856"><ele>24.6</ele><time>2021-05-01T13:46:45Z</time><name>PT2802</name></trkpt>
<trkpt lat="52.050875" lon="05.731870"><ele>24.8</ele><time>2021-05-01T13:46:45Z</time><name>PT2803</name></trkpt>
<trkpt lat="52.050868" lon="05.731875"><ele>24.8</ele><time>2021-05-01T13:46:47Z</time><name>PT2804</name></trkpt>
<trkpt lat="52.050862" lon="05.731872"><ele>24.8</ele><time>2021-05-01T13:46:47Z</time><name>PT2805</name></trkpt>
<trkpt lat="52.050858" lon="05.731877"><ele>24.8</ele><time>2021-05-01T13:46:49Z</time><name>PT2806</name></trkpt>
<trkpt lat="52.050848" lon="05.731884"><ele>24.8</ele><time>2021-05-01T13:46:49Z</time><name>PT2807</name></trkpt>
<trkpt lat="52.050834" lon="05.731892"><ele>24.7</ele><time>2021-05-01T13:46:51Z</time><name>PT2808</name></trkpt>
<trkpt lat="52.050822" lon="05.731894"><ele>24.7</ele><time>2021-05-01T13:46:51Z</time><name>PT2809</name></trkpt>
<trkpt lat="52.050811" lon="05.731899"><ele>24.7</ele><time>2021-05-01T13:46:53Z</time><name>PT2810</name></trkpt>
<trkpt lat="52.050804" lon="05.731909"><ele>24.7</ele><time>2021-05-01T13:46:53Z</time><name>PT2811</name></trkpt>
<trkpt lat="52.050801" lon="05.731910"><ele>24.8</ele><time>2021-05-01T13:46:55Z</time><name>PT2812</name></trkpt>
<trkpt lat="52.050796" lon="05.731912"><ele>24.8</ele><time>2021-05-01T13:46:55Z</time><name>PT2813</name></trkpt>
<trkpt lat="52.050789" lon="05.731919"><ele>24.7</ele><time>2021-05-01T13:46:57Z</time><name>PT2814</name></trkpt>
<trkpt lat="52.050775" lon="05.731929"><ele>24.8</ele><time>2021-05-01T13:46:57Z</time><name>PT2815</name></trkpt>
<trkpt lat="52.050758" lon="05.731935"><ele>24.9</ele><time>2021-05-01T13:46:59Z</time><name>PT2816</name></trkpt>
<trkpt lat="52.050739" lon="05.731946"><ele>24.9</ele><time>2021-05-01T13:46:59Z</time><name>PT2817</name></trkpt>
<trkpt lat="52.050723" lon="05.731948"><ele>25.1</ele><time>2021-05-01T13:47:01Z</time><name>PT2818</name></trkpt>
<trkpt lat="52.050716" lon="05.731947"><ele>25.2</ele><time>2021-05-01T13:47:01Z</time><name>PT2819</name></trkpt>
<trkpt lat="52.050711" lon="05.731949"><ele>25.3</ele><time>2021-05-01T13:47:03Z</time><name>PT2820</name></trkpt>
<trkpt lat="52.050709" lon="05.731954"><ele>25</ele><time>2021-05-01T13:47:03Z</time><name>PT2821</name></trkpt>
<trkpt lat="52.050706" lon="05.731957"><ele>24.9</ele><time>2021-05-01T13:47:05Z</time><name>PT2822</name></trkpt>
<trkpt lat="52.050699" lon="05.731962"><ele>24.8</ele><time>2021-05-01T13:47:05Z</time><name>PT2823</name></trkpt>
<trkpt lat="52.050684" lon="05.731965"><ele>24.8</ele><time>2021-05-01T13:47:07Z</time><name>PT2824</name></trkpt>
<trkpt lat="52.050661" lon="05.731964"><ele>24.8</ele><time>2021-05-01T13:47:07Z</time><name>PT2825</name></trkpt>
<trkpt lat="52.050643" lon="05.731964"><ele>24.9</ele><time>2021-05-01T13:47:09Z</time><name>PT2826</name></trkpt>
<trkpt lat="52.050633" lon="05.731966"><ele>24.8</ele><time>2021-05-01T13:47:09Z</time><name>PT2827</name></trkpt>
<trkpt lat="52.050628" lon="05.731968"><ele>24.9</ele><time>2021-05-01T13:47:11Z</time><name>PT2828</name></trkpt>
<trkpt lat="52.050628" lon="05.731970"><ele>24.9</ele><time>2021-05-01T13:47:11Z</time><name>PT2829</name></trkpt>
<trkpt lat="52.050626" lon="05.731972"><ele>24.9</ele><time>2021-05-01T13:47:13Z</time><name>PT2830</name></trkpt>
<trkpt lat="52.050612" lon="05.731969"><ele>24.8</ele><time>2021-05-01T13:47:13Z</time><name>PT2831</name></trkpt>
<trkpt lat="52.050594" lon="05.731972"><ele>25</ele><time>2021-05-01T13:47:15Z</time><name>PT2832</name></trkpt>
<trkpt lat="52.050581" lon="05.731991"><ele>24.8</ele><time>2021-05-01T13:47:15Z</time><name>PT2833</name></trkpt>
<trkpt lat="52.050563" lon="05.731993"><ele>24.8</ele><time>2021-05-01T13:47:17Z</time><name>PT2834</name></trkpt>
<trkpt lat="52.050556" lon="05.731994"><ele>24.8</ele><time>2021-05-01T13:47:17Z</time><name>PT2835</name></trkpt>
<trkpt lat="52.050552" lon="05.732000"><ele>24.8</ele><time>2021-05-01T13:47:19Z</time><name>PT2836</name></trkpt>
<trkpt lat="52.050548" lon="05.732002"><ele>24.8</ele><time>2021-05-01T13:47:19Z</time><name>PT2837</name></trkpt>
<trkpt lat="52.050546" lon="05.732008"><ele>24.8</ele><time>2021-05-01T13:47:21Z</time><name>PT2838</name></trkpt>
<trkpt lat="52.050543" lon="05.732006"><ele>24.7</ele><time>2021-05-01T13:47:21Z</time><name>PT2839</name></trkpt>
<trkpt lat="52.050528" lon="05.732009"><ele>24.7</ele><time>2021-05-01T13:47:23Z</time><name>PT2840</name></trkpt>
<trkpt lat="52.050506" lon="05.732004"><ele>24.7</ele><time>2021-05-01T13:47:23Z</time><name>PT2841</name></trkpt>
<trkpt lat="52.050482" lon="05.732007"><ele>24.8</ele><time>2021-05-01T13:47:25Z</time><name>PT2842</name></trkpt>
<trkpt lat="52.050468" lon="05.732013"><ele>24.8</ele><time>2021-05-01T13:47:25Z</time><name>PT2843</name></trkpt>
<trkpt lat="52.050456" lon="05.732014"><ele>24.8</ele><time>2021-05-01T13:47:27Z</time><name>PT2844</name></trkpt>
<trkpt lat="52.050447" lon="05.732016"><ele>24.8</ele><time>2021-05-01T13:47:27Z</time><name>PT2845</name></trkpt>
<trkpt lat="52.050440" lon="05.732020"><ele>24.8</ele><time>2021-05-01T13:47:29Z</time><name>PT2846</name></trkpt>
<trkpt lat="52.050438" lon="05.732021"><ele>24.7</ele><time>2021-05-01T13:47:29Z</time><name>PT2847</name></trkpt>
<trkpt lat="52.050433" lon="05.732025"><ele>24.5</ele><time>2021-05-01T13:47:31Z</time><name>PT2848</name></trkpt>
<trkpt lat="52.050419" lon="05.732028"><ele>24.6</ele><time>2021-05-01T13:47:31Z</time><name>PT2849</name></trkpt>
<trkpt lat="52.050397" lon="05.732035"><ele>24.6</ele><time>2021-05-01T13:47:33Z</time><name>PT2850</name></trkpt>
<trkpt lat="52.050375" lon="05.732022"><ele>24.7</ele><time>2021-05-01T13:47:33Z</time><name>PT2851</name></trkpt>
<trkpt lat="52.050356" lon="05.732022"><ele>24.6</ele><time>2021-05-01T13:47:35Z</time><name>PT2852</name></trkpt>
<trkpt lat="52.050346" lon="05.732025"><ele>24.7</ele><time>2021-05-01T13:47:35Z</time><name>PT2853</name></trkpt>
<trkpt lat="52.050339" lon="05.732029"><ele>24.7</ele><time>2021-05-01T13:47:37Z</time><name>PT2854</name></trkpt>
<trkpt lat="52.050334" lon="05.732030"><ele>24.7</ele><time>2021-05-01T13:47:37Z</time><name>PT2855</name></trkpt>
<trkpt lat="52.050330" lon="05.732034"><ele>24.8</ele><time>2021-05-01T13:47:39Z</time><name>PT2856</name></trkpt>
<trkpt lat="52.050328" lon="05.732038"><ele>24.8</ele><time>2021-05-01T13:47:39Z</time><name>PT2857</name></trkpt>
<trkpt lat="52.050316" lon="05.732051"><ele>24.8</ele><time>2021-05-01T13:47:41Z</time><name>PT2858</name></trkpt>
<trkpt lat="52.050296" lon="05.732054"><ele>24.8</ele><time>2021-05-01T13:47:41Z</time><name>PT2859</name></trkpt>
<trkpt lat="52.050277" lon="05.732055"><ele>24.8</ele><time>2021-05-01T13:47:43Z</time><name>PT2860</name></trkpt>
<trkpt lat="52.050260" lon="05.732050"><ele>24.8</ele><time>2021-05-01T13:47:43Z</time><name>PT2861</name></trkpt>
<trkpt lat="52.050247" lon="05.732047"><ele>25</ele><time>2021-05-01T13:47:45Z</time><name>PT2862</name></trkpt>
<trkpt lat="52.050237" lon="05.732051"><ele>25</ele><time>2021-05-01T13:47:45Z</time><name>PT2863</name></trkpt>
<trkpt lat="52.050234" lon="05.732060"><ele>25</ele><time>2021-05-01T13:47:47Z</time><name>PT2864</name></trkpt>
<trkpt lat="52.050227" lon="05.732064"><ele>25.1</ele><time>2021-05-01T13:47:47Z</time><name>PT2865</name></trkpt>
<trkpt lat="52.050218" lon="05.732068"><ele>24.8</ele><time>2021-05-01T13:47:49Z</time><name>PT2866</name></trkpt>
<trkpt lat="52.050208" lon="05.732072"><ele>24.7</ele><time>2021-05-01T13:47:49Z</time><name>PT2867</name></trkpt>
<trkpt lat="52.050195" lon="05.732082"><ele>24.7</ele><time>2021-05-01T13:47:51Z</time><name>PT2868</name></trkpt>
<trkpt lat="52.050178" lon="05.732097"><ele>24.8</ele><time>2021-05-01T13:47:51Z</time><name>PT2869</name></trkpt>
<trkpt lat="52.050155" lon="05.732101"><ele>24.8</ele><time>2021-05-01T13:47:53Z</time><name>PT2870</name></trkpt>
<trkpt lat="52.050138" lon="05.732103"><ele>24.9</ele><time>2021-05-01T13:47:53Z</time><name>PT2871</name></trkpt>
<trkpt lat="52.050134" lon="05.732100"><ele>25</ele><time>2021-05-01T13:47:55Z</time><name>PT2872</name></trkpt>
<trkpt lat="52.050129" lon="05.732102"><ele>25</ele><time>2021-05-01T13:47:55Z</time><name>PT2873</name></trkpt>
<trkpt lat="52.050120" lon="05.732108"><ele>24.8</ele><time>2021-05-01T13:47:57Z</time><name>PT2874</name></trkpt>
<trkpt lat="52.050115" lon="05.732115"><ele>24.8</ele><time>2021-05-01T13:47:57Z</time><name>PT2875</name></trkpt>
<trkpt lat="52.050105" lon="05.732122"><ele>24.8</ele><time>2021-05-01T13:47:59Z</time><name>PT2876</name></trkpt>
<trkpt lat="52.050089" lon="05.732115"><ele>24.8</ele><time>2021-05-01T13:48:00Z</time><name>PT2877</name></trkpt>
<trkpt lat="52.050071" lon="05.732107"><ele>24.8</ele><time>2021-05-01T13:48:01Z</time><name>PT2878</name></trkpt>
<trkpt lat="52.050054" lon="05.732103"><ele>24.7</ele><time>2021-05-01T13:48:01Z</time><name>PT2879</name></trkpt>
<trkpt lat="52.050039" lon="05.732111"><ele>24.6</ele><time>2021-05-01T13:48:03Z</time><name>PT2880</name></trkpt>
<trkpt lat="52.050034" lon="05.732119"><ele>24.5</ele><time>2021-05-01T13:48:03Z</time><name>PT2881</name></trkpt>
<trkpt lat="52.050029" lon="05.732123"><ele>24.4</ele><time>2021-05-01T13:48:05Z</time><name>PT2882</name></trkpt>
<trkpt lat="52.050020" lon="05.732120"><ele>24.4</ele><time>2021-05-01T13:48:05Z</time><name>PT2883</name></trkpt>
<trkpt lat="52.050009" lon="05.732127"><ele>24.5</ele><time>2021-05-01T13:48:07Z</time><name>PT2884</name></trkpt>
<trkpt lat="52.049992" lon="05.732138"><ele>24.3</ele><time>2021-05-01T13:48:07Z</time><name>PT2885</name></trkpt>
<trkpt lat="52.049970" lon="05.732131"><ele>24.3</ele><time>2021-05-01T13:48:09Z</time><name>PT2886</name></trkpt>
<trkpt lat="52.049950" lon="05.732132"><ele>24.4</ele><time>2021-05-01T13:48:09Z</time><name>PT2887</name></trkpt>
<trkpt lat="52.049935" lon="05.732135"><ele>24.5</ele><time>2021-05-01T13:48:11Z</time><name>PT2888</name></trkpt>
<trkpt lat="52.049926" lon="05.732139"><ele>24.4</ele><time>2021-05-01T13:48:11Z</time><name>PT2889</name></trkpt>
<trkpt lat="52.049920" lon="05.732146"><ele>24.7</ele><time>2021-05-01T13:48:13Z</time><name>PT2890</name></trkpt>
<trkpt lat="52.049909" lon="05.732152"><ele>24.5</ele><time>2021-05-01T13:48:13Z</time><name>PT2891</name></trkpt>
<trkpt lat="52.049900" lon="05.732160"><ele>24.5</ele><time>2021-05-01T13:48:15Z</time><name>PT2892</name></trkpt>
<trkpt lat="52.049892" lon="05.732164"><ele>24.4</ele><time>2021-05-01T13:48:15Z</time><name>PT2893</name></trkpt>
<trkpt lat="52.049877" lon="05.732169"><ele>24.5</ele><time>2021-05-01T13:48:17Z</time><name>PT2894</name></trkpt>
<trkpt lat="52.049859" lon="05.732169"><ele>24.5</ele><time>2021-05-01T13:48:17Z</time><name>PT2895</name></trkpt>
<trkpt lat="52.049842" lon="05.732167"><ele>24.5</ele><time>2021-05-01T13:48:19Z</time><name>PT2896</name></trkpt>
<trkpt lat="52.049830" lon="05.732164"><ele>24.7</ele><time>2021-05-01T13:48:19Z</time><name>PT2897</name></trkpt>
<trkpt lat="52.049824" lon="05.732167"><ele>24.8</ele><time>2021-05-01T13:48:21Z</time><name>PT2898</name></trkpt>
<trkpt lat="52.049823" lon="05.732178"><ele>24.8</ele><time>2021-05-01T13:48:21Z</time><name>PT2899</name></trkpt>
<trkpt lat="52.049818" lon="05.732186"><ele>24.8</ele><time>2021-05-01T13:48:23Z</time><name>PT2900</name></trkpt>
<trkpt lat="52.049810" lon="05.732190"><ele>24.8</ele><time>2021-05-01T13:48:23Z</time><name>PT2901</name></trkpt>
<trkpt lat="52.049798" lon="05.732195"><ele>24.8</ele><time>2021-05-01T13:48:25Z</time><name>PT2902</name></trkpt>
<trkpt lat="52.049778" lon="05.732205"><ele>24.8</ele><time>2021-05-01T13:48:25Z</time><name>PT2903</name></trkpt>
<trkpt lat="52.049757" lon="05.732218"><ele>24.8</ele><time>2021-05-01T13:48:27Z</time><name>PT2904</name></trkpt>
<trkpt lat="52.049737" lon="05.732220"><ele>24.8</ele><time>2021-05-01T13:48:27Z</time><name>PT2905</name></trkpt>
<trkpt lat="52.049727" lon="05.732226"><ele>24.8</ele><time>2021-05-01T13:48:29Z</time><name>PT2906</name></trkpt>
<trkpt lat="52.049719" lon="05.732228"><ele>25</ele><time>2021-05-01T13:48:29Z</time><name>PT2907</name></trkpt>
<trkpt lat="52.049709" lon="05.732241"><ele>25.1</ele><time>2021-05-01T13:48:31Z</time><name>PT2908</name></trkpt>
<trkpt lat="52.049696" lon="05.732256"><ele>25.1</ele><time>2021-05-01T13:48:31Z</time><name>PT2909</name></trkpt>
<trkpt lat="52.049684" lon="05.732266"><ele>24.9</ele><time>2021-05-01T13:48:33Z</time><name>PT2910</name></trkpt>
<trkpt lat="52.049674" lon="05.732277"><ele>24.8</ele><time>2021-05-01T13:48:33Z</time><name>PT2911</name></trkpt>
<trkpt lat="52.049662" lon="05.732281"><ele>25.3</ele><time>2021-05-01T13:48:35Z</time><name>PT2912</name></trkpt>
<trkpt lat="52.049650" lon="05.732288"><ele>25.1</ele><time>2021-05-01T13:48:35Z</time><name>PT2913</name></trkpt>
<trkpt lat="52.049639" lon="05.732298"><ele>25.4</ele><time>2021-05-01T13:48:37Z</time><name>PT2914</name></trkpt>
<trkpt lat="52.049628" lon="05.732308"><ele>25.6</ele><time>2021-05-01T13:48:37Z</time><name>PT2915</name></trkpt>
<trkpt lat="52.049618" lon="05.732319"><ele>25.5</ele><time>2021-05-01T13:48:39Z</time><name>PT2916</name></trkpt>
<trkpt lat="52.049604" lon="05.732328"><ele>25.3</ele><time>2021-05-01T13:48:39Z</time><name>PT2917</name></trkpt>
<trkpt lat="52.049588" lon="05.732336"><ele>25.3</ele><time>2021-05-01T13:48:41Z</time><name>PT2918</name></trkpt>
<trkpt lat="52.049575" lon="05.732336"><ele>25</ele><time>2021-05-01T13:48:41Z</time><name>PT2919</name></trkpt>
<trkpt lat="52.049564" lon="05.732341"><ele>25</ele><time>2021-05-01T13:48:43Z</time><name>PT2920</name></trkpt>
<trkpt lat="52.049555" lon="05.732347"><ele>24.9</ele><time>2021-05-01T13:48:43Z</time><name>PT2921</name></trkpt>
<trkpt lat="52.049551" lon="05.732349"><ele>24.8</ele><time>2021-05-01T13:48:45Z</time><name>PT2922</name></trkpt>
<trkpt lat="52.049545" lon="05.732350"><ele>24.7</ele><time>2021-05-01T13:48:45Z</time><name>PT2923</name></trkpt>
<trkpt lat="52.049535" lon="05.732355"><ele>24.6</ele><time>2021-05-01T13:48:47Z</time><name>PT2924</name></trkpt>
<trkpt lat="52.049521" lon="05.732354"><ele>24.7</ele><time>2021-05-01T13:48:47Z</time><name>PT2925</name></trkpt>
<trkpt lat="52.049503" lon="05.732353"><ele>24.8</ele><time>2021-05-01T13:48:49Z</time><name>PT2926</name></trkpt>
<trkpt lat="52.049490" lon="05.732357"><ele>24.8</ele><time>2021-05-01T13:48:49Z</time><name>PT2927</name></trkpt>
<trkpt lat="52.049478" lon="05.732360"><ele>24.8</ele><time>2021-05-01T13:48:51Z</time><name>PT2928</name></trkpt>
<trkpt lat="52.049467" lon="05.732362"><ele>25</ele><time>2021-05-01T13:48:51Z</time><name>PT2929</name></trkpt>
<trkpt lat="52.049458" lon="05.732368"><ele>24.9</ele><time>2021-05-01T13:48:53Z</time><name>PT2930</name></trkpt>
<trkpt lat="52.049453" lon="05.732366"><ele>24.9</ele><time>2021-05-01T13:48:53Z</time><name>PT2931</name></trkpt>
<trkpt lat="52.049446" lon="05.732364"><ele>25</ele><time>2021-05-01T13:48:55Z</time><name>PT2932</name></trkpt>
<trkpt lat="52.049436" lon="05.732360"><ele>25</ele><time>2021-05-01T13:48:55Z</time><name>PT2933</name></trkpt>
<trkpt lat="52.049419" lon="05.732368"><ele>24.9</ele><time>2021-05-01T13:48:57Z</time><name>PT2934</name></trkpt>
<trkpt lat="52.049401" lon="05.732365"><ele>25</ele><time>2021-05-01T13:48:57Z</time><name>PT2935</name></trkpt>
<trkpt lat="52.049381" lon="05.732362"><ele>25.2</ele><time>2021-05-01T13:48:59Z</time><name>PT2936</name></trkpt>
<trkpt lat="52.049363" lon="05.732354"><ele>25.2</ele><time>2021-05-01T13:48:59Z</time><name>PT2937</name></trkpt>
<trkpt lat="52.049352" lon="05.732352"><ele>25</ele><time>2021-05-01T13:49:01Z</time><name>PT2938</name></trkpt>
<trkpt lat="52.049343" lon="05.732356"><ele>24.9</ele><time>2021-05-01T13:49:01Z</time><name>PT2939</name></trkpt>
<trkpt lat="52.049339" lon="05.732361"><ele>24.6</ele><time>2021-05-01T13:49:03Z</time><name>PT2940</name></trkpt>
<trkpt lat="52.049334" lon="05.732360"><ele>24.7</ele><time>2021-05-01T13:49:03Z</time><name>PT2941</name></trkpt>
<trkpt lat="52.049324" lon="05.732366"><ele>24.7</ele><time>2021-05-01T13:49:05Z</time><name>PT2942</name></trkpt>
<trkpt lat="52.049312" lon="05.732374"><ele>24.7</ele><time>2021-05-01T13:49:05Z</time><name>PT2943</name></trkpt>
<trkpt lat="52.049298" lon="05.732380"><ele>24.8</ele><time>2021-05-01T13:49:07Z</time><name>PT2944</name></trkpt>
<trkpt lat="52.049284" lon="05.732387"><ele>24.8</ele><time>2021-05-01T13:49:07Z</time><name>PT2945</name></trkpt>
<trkpt lat="52.049270" lon="05.732392"><ele>24.8</ele><time>2021-05-01T13:49:09Z</time><name>PT2946</name></trkpt>
<trkpt lat="52.049259" lon="05.732398"><ele>24.8</ele><time>2021-05-01T13:49:09Z</time><name>PT2947</name></trkpt>
<trkpt lat="52.049248" lon="05.732403"><ele>24.8</ele><time>2021-05-01T13:49:11Z</time><name>PT2948</name></trkpt>
<trkpt lat="52.049239" lon="05.732406"><ele>24.8</ele><time>2021-05-01T13:49:11Z</time><name>PT2949</name></trkpt>
<trkpt lat="52.049230" lon="05.732410"><ele>24.7</ele><time>2021-05-01T13:49:13Z</time><name>PT2950</name></trkpt>
<trkpt lat="52.049221" lon="05.732424"><ele>24.6</ele><time>2021-05-01T13:49:13Z</time><name>PT2951</name></trkpt>
<trkpt lat="52.049210" lon="05.732434"><ele>24.5</ele><time>2021-05-01T13:49:15Z</time><name>PT2952</name></trkpt>
<trkpt lat="52.049198" lon="05.732444"><ele>24.7</ele><time>2021-05-01T13:49:15Z</time><name>PT2953</name></trkpt>
<trkpt lat="52.049191" lon="05.732450"><ele>24.6</ele><time>2021-05-01T13:49:17Z</time><name>PT2954</name></trkpt>
<trkpt lat="52.049178" lon="05.732455"><ele>24.6</ele><time>2021-05-01T13:49:17Z</time><name>PT2955</name></trkpt>
<trkpt lat="52.049161" lon="05.732452"><ele>24.7</ele><time>2021-05-01T13:49:19Z</time><name>PT2956</name></trkpt>
<trkpt lat="52.049142" lon="05.732454"><ele>24.6</ele><time>2021-05-01T13:49:19Z</time><name>PT2957</name></trkpt>
<trkpt lat="52.049125" lon="05.732452"><ele>24.7</ele><time>2021-05-01T13:49:21Z</time><name>PT2958</name></trkpt>
<trkpt lat="52.049118" lon="05.732450"><ele>24.7</ele><time>2021-05-01T13:49:21Z</time><name>PT2959</name></trkpt>
<trkpt lat="52.049116" lon="05.732447"><ele>24.6</ele><time>2021-05-01T13:49:23Z</time><name>PT2960</name></trkpt>
<trkpt lat="52.049114" lon="05.732444"><ele>24.5</ele><time>2021-05-01T13:49:23Z</time><name>PT2961</name></trkpt>
<trkpt lat="52.049108" lon="05.732451"><ele>24.5</ele><time>2021-05-01T13:49:25Z</time><name>PT2962</name></trkpt>
<trkpt lat="52.049096" lon="05.732464"><ele>24.4</ele><time>2021-05-01T13:49:25Z</time><name>PT2963</name></trkpt>
<trkpt lat="52.049085" lon="05.732473"><ele>24.4</ele><time>2021-05-01T13:49:27Z</time><name>PT2964</name></trkpt>
<trkpt lat="52.049068" lon="05.732480"><ele>24.4</ele><time>2021-05-01T13:49:27Z</time><name>PT2965</name></trkpt>
<trkpt lat="52.049052" lon="05.732487"><ele>24.7</ele><time>2021-05-01T13:49:29Z</time><name>PT2966</name></trkpt>
<trkpt lat="52.049036" lon="05.732491"><ele>24.7</ele><time>2021-05-01T13:49:29Z</time><name>PT2967</name></trkpt>
<trkpt lat="52.049030" lon="05.732498"><ele>24.8</ele><time>2021-05-01T13:49:31Z</time><name>PT2968</name></trkpt>
<trkpt lat="52.049021" lon="05.732505"><ele>24.7</ele><time>2021-05-01T13:49:31Z</time><name>PT2969</name></trkpt>
<trkpt lat="52.049017" lon="05.732514"><ele>24.6</ele><time>2021-05-01T13:49:33Z</time><name>PT2970</name></trkpt>
<trkpt lat="52.049012" lon="05.732520"><ele>24.3</ele><time>2021-05-01T13:49:33Z</time><name>PT2971</name></trkpt>
<trkpt lat="52.049004" lon="05.732526"><ele>24.3</ele><time>2021-05-01T13:49:35Z</time><name>PT2972</name></trkpt>
<trkpt lat="52.048994" lon="05.732536"><ele>24.5</ele><time>2021-05-01T13:49:35Z</time><name>PT2973</name></trkpt>
<trkpt lat="52.048979" lon="05.732562"><ele>24.7</ele><time>2021-05-01T13:49:37Z</time><name>PT2974</name></trkpt>
<trkpt lat="52.048963" lon="05.732568"><ele>24.7</ele><time>2021-05-01T13:49:37Z</time><name>PT2975</name></trkpt>
<trkpt lat="52.048947" lon="05.732583"><ele>24.6</ele><time>2021-05-01T13:49:39Z</time><name>PT2976</name></trkpt>
<trkpt lat="52.048936" lon="05.732597"><ele>24.4</ele><time>2021-05-01T13:49:39Z</time><name>PT2977</name></trkpt>
<trkpt lat="52.048932" lon="05.732603"><ele>24.5</ele><time>2021-05-01T13:49:41Z</time><name>PT2978</name></trkpt>
<trkpt lat="52.048927" lon="05.732607"><ele>24.4</ele><time>2021-05-01T13:49:41Z</time><name>PT2979</name></trkpt>
<trkpt lat="52.048924" lon="05.732619"><ele>24.5</ele><time>2021-05-01T13:49:43Z</time><name>PT2980</name></trkpt>
<trkpt lat="52.048921" lon="05.732633"><ele>24.6</ele><time>2021-05-01T13:49:43Z</time><name>PT2981</name></trkpt>
<trkpt lat="52.048910" lon="05.732658"><ele>24.7</ele><time>2021-05-01T13:49:45Z</time><name>PT2982</name></trkpt>
<trkpt lat="52.048902" lon="05.732685"><ele>24.7</ele><time>2021-05-01T13:49:45Z</time><name>PT2983</name></trkpt>
<trkpt lat="52.048889" lon="05.732705"><ele>24.7</ele><time>2021-05-01T13:49:47Z</time><name>PT2984</name></trkpt>
<trkpt lat="52.048881" lon="05.732720"><ele>24.7</ele><time>2021-05-01T13:49:47Z</time><name>PT2985</name></trkpt>
<trkpt lat="52.048878" lon="05.732724"><ele>24.7</ele><time>2021-05-01T13:49:49Z</time><name>PT2986</name></trkpt>
<trkpt lat="52.048877" lon="05.732733"><ele>24.8</ele><time>2021-05-01T13:49:49Z</time><name>PT2987</name></trkpt>
<trkpt lat="52.048866" lon="05.732749"><ele>24.8</ele><time>2021-05-01T13:49:51Z</time><name>PT2988</name></trkpt>
<trkpt lat="52.048852" lon="05.732767"><ele>24.8</ele><time>2021-05-01T13:49:51Z</time><name>PT2989</name></trkpt>
<trkpt lat="52.048833" lon="05.732782"><ele>24.7</ele><time>2021-05-01T13:49:53Z</time><name>PT2990</name></trkpt>
<trkpt lat="52.048818" lon="05.732786"><ele>24.6</ele><time>2021-05-01T13:49:53Z</time><name>PT2991</name></trkpt>
<trkpt lat="52.048811" lon="05.732797"><ele>24.5</ele><time>2021-05-01T13:49:55Z</time><name>PT2992</name></trkpt>
<trkpt lat="52.048810" lon="05.732804"><ele>24.4</ele><time>2021-05-01T13:49:55Z</time><name>PT2993</name></trkpt>
<trkpt lat="52.048808" lon="05.732818"><ele>24.3</ele><time>2021-05-01T13:49:57Z</time><name>PT2994</name></trkpt>
<trkpt lat="52.048803" lon="05.732827"><ele>24.3</ele><time>2021-05-01T13:49:57Z</time><name>PT2995</name></trkpt>
<trkpt lat="52.048789" lon="05.732819"><ele>24.3</ele><time>2021-05-01T13:49:59Z</time><name>PT2996</name></trkpt>
<trkpt lat="52.048772" lon="05.732826"><ele>24.4</ele><time>2021-05-01T13:49:59Z</time><name>PT2997</name></trkpt>
<trkpt lat="52.048760" lon="05.732833"><ele>24.6</ele><time>2021-05-01T13:50:01Z</time><name>PT2998</name></trkpt>
<trkpt lat="52.048755" lon="05.732848"><ele>24.6</ele><time>2021-05-01T13:50:01Z</time><name>PT2999</name></trkpt>
<trkpt lat="52.048753" lon="05.732857"><ele>24.6</ele><time>2021-05-01T13:50:03Z</time><name>PT3000</name></trkpt>
<trkpt lat="52.048751" lon="05.732863"><ele>24.5</ele><time>2021-05-01T13:50:03Z</time><name>PT3001</name></trkpt>
<trkpt lat="52.048750" lon="05.732875"><ele>24.3</ele><time>2021-05-01T13:50:05Z</time><name>PT3002</name></trkpt>
<trkpt lat="52.048748" lon="05.732888"><ele>24.3</ele><time>2021-05-01T13:50:05Z</time><name>PT3003</name></trkpt>
<trkpt lat="52.048739" lon="05.732893"><ele>24.3</ele><time>2021-05-01T13:50:07Z</time><name>PT3004</name></trkpt>
<trkpt lat="52.048724" lon="05.732914"><ele>24.4</ele><time>2021-05-01T13:50:07Z</time><name>PT3005</name></trkpt>
<trkpt lat="52.048705" lon="05.732923"><ele>24.6</ele><time>2021-05-01T13:50:09Z</time><name>PT3006</name></trkpt>
<trkpt lat="52.048690" lon="05.732932"><ele>24.7</ele><time>2021-05-01T13:50:09Z</time><name>PT3007</name></trkpt>
<trkpt lat="52.048681" lon="05.732936"><ele>24.7</ele><time>2021-05-01T13:50:11Z</time><name>PT3008</name></trkpt>
<trkpt lat="52.048681" lon="05.732936"><ele>24.8</ele><time>2021-05-01T13:50:11Z</time><name>PT3009</name></trkpt>
<trkpt lat="52.048684" lon="05.732943"><ele>24.8</ele><time>2021-05-01T13:50:13Z</time><name>PT3010</name></trkpt>
<trkpt lat="52.048683" lon="05.732952"><ele>24.8</ele><time>2021-05-01T13:50:13Z</time><name>PT3011</name></trkpt>
<trkpt lat="52.048675" lon="05.732974"><ele>24.8</ele><time>2021-05-01T13:50:15Z</time><name>PT3012</name></trkpt>
<trkpt lat="52.048658" lon="05.733003"><ele>24.8</ele><time>2021-05-01T13:50:15Z</time><name>PT3013</name></trkpt>
<trkpt lat="52.048645" lon="05.733036"><ele>24.7</ele><time>2021-05-01T13:50:17Z</time><name>PT3014</name></trkpt>
<trkpt lat="52.048637" lon="05.733061"><ele>24.6</ele><time>2021-05-01T13:50:17Z</time><name>PT3015</name></trkpt>
<trkpt lat="52.048633" lon="05.733093"><ele>24.6</ele><time>2021-05-01T13:50:19Z</time><name>PT3016</name></trkpt>
<trkpt lat="52.048629" lon="05.733117"><ele>24.6</ele><time>2021-05-01T13:50:19Z</time><name>PT3017</name></trkpt>
<trkpt lat="52.048621" lon="05.733134"><ele>24.6</ele><time>2021-05-01T13:50:21Z</time><name>PT3018</name></trkpt>
<trkpt lat="52.048614" lon="05.733149"><ele>24.8</ele><time>2021-05-01T13:50:21Z</time><name>PT3019</name></trkpt>
<trkpt lat="52.048607" lon="05.733166"><ele>24.9</ele><time>2021-05-01T13:50:23Z</time><name>PT3020</name></trkpt>
<trkpt lat="52.048597" lon="05.733185"><ele>25</ele><time>2021-05-01T13:50:23Z</time><name>PT3021</name></trkpt>
<trkpt lat="52.048589" lon="05.733198"><ele>25.2</ele><time>2021-05-01T13:50:25Z</time><name>PT3022</name></trkpt>
<trkpt lat="52.048583" lon="05.733214"><ele>25.2</ele><time>2021-05-01T13:50:25Z</time><name>PT3023</name></trkpt>
<trkpt lat="52.048575" lon="05.733233"><ele>24.9</ele><time>2021-05-01T13:50:27Z</time><name>PT3024</name></trkpt>
<trkpt lat="52.048561" lon="05.733255"><ele>24.8</ele><time>2021-05-01T13:50:27Z</time><name>PT3025</name></trkpt>
<trkpt lat="52.048545" lon="05.733273"><ele>24.8</ele><time>2021-05-01T13:50:29Z</time><name>PT3026</name></trkpt>
<trkpt lat="52.048534" lon="05.733285"><ele>24.4</ele><time>2021-05-01T13:50:29Z</time><name>PT3027</name></trkpt>
<trkpt lat="52.048528" lon="05.733297"><ele>24.4</ele><time>2021-05-01T13:50:31Z</time><name>PT3028</name></trkpt>
<trkpt lat="52.048525" lon="05.733307"><ele>24.5</ele><time>2021-05-01T13:50:31Z</time><name>PT3029</name></trkpt>
<trkpt lat="52.048524" lon="05.733308"><ele>24.3</ele><time>2021-05-01T13:50:33Z</time><name>PT3030</name></trkpt>
<trkpt lat="52.048522" lon="05.733298"><ele>24.3</ele><time>2021-05-01T13:50:33Z</time><name>PT3031</name></trkpt>
<trkpt lat="52.048515" lon="05.733301"><ele>24.5</ele><time>2021-05-01T13:50:35Z</time><name>PT3032</name></trkpt>
<trkpt lat="52.048510" lon="05.733316"><ele>24.5</ele><time>2021-05-01T13:50:35Z</time><name>PT3033</name></trkpt>
<trkpt lat="52.048497" lon="05.733329"><ele>24.5</ele><time>2021-05-01T13:50:37Z</time><name>PT3034</name></trkpt>
<trkpt lat="52.048491" lon="05.733333"><ele>24.7</ele><time>2021-05-01T13:50:37Z</time><name>PT3035</name></trkpt>
<trkpt lat="52.048481" lon="05.733336"><ele>24.8</ele><time>2021-05-01T13:50:39Z</time><name>PT3036</name></trkpt>
<trkpt lat="52.048476" lon="05.733337"><ele>24.7</ele><time>2021-05-01T13:50:39Z</time><name>PT3037</name></trkpt>
<trkpt lat="52.048470" lon="05.733344"><ele>24.6</ele><time>2021-05-01T13:50:41Z</time><name>PT3038</name></trkpt>
<trkpt lat="52.048465" lon="05.733358"><ele>24.5</ele><time>2021-05-01T13:50:41Z</time><name>PT3039</name></trkpt>
<trkpt lat="52.048458" lon="05.733371"><ele>24.4</ele><time>2021-05-01T13:50:43Z</time><name>PT3040</name></trkpt>
<trkpt lat="52.048453" lon="05.733377"><ele>24.3</ele><time>2021-05-01T13:50:43Z</time><name>PT3041</name></trkpt>
<trkpt lat="52.048451" lon="05.733381"><ele>24.3</ele><time>2021-05-01T13:50:45Z</time><name>PT3042</name></trkpt>
<trkpt lat="52.048448" lon="05.733383"><ele>24.4</ele><time>2021-05-01T13:50:45Z</time><name>PT3043</name></trkpt>
<trkpt lat="52.048444" lon="05.733387"><ele>24.5</ele><time>2021-05-01T13:50:47Z</time><name>PT3044</name></trkpt>
<trkpt lat="52.048438" lon="05.733396"><ele>24.5</ele><time>2021-05-01T13:50:47Z</time><name>PT3045</name></trkpt>
<trkpt lat="52.048434" lon="05.733406"><ele>24.4</ele><time>2021-05-01T13:50:49Z</time><name>PT3046</name></trkpt>
<trkpt lat="52.048429" lon="05.733414"><ele>24.4</ele><time>2021-05-01T13:50:49Z</time><name>PT3047</name></trkpt>
<trkpt lat="52.048425" lon="05.733421"><ele>24.4</ele><time>2021-05-01T13:50:51Z</time><name>PT3048</name></trkpt>
<trkpt lat="52.048418" lon="05.733437"><ele>24.3</ele><time>2021-05-01T13:50:51Z</time><name>PT3049</name></trkpt>
<trkpt lat="52.048412" lon="05.733440"><ele>24.4</ele><time>2021-05-01T13:50:53Z</time><name>PT3050</name></trkpt>
<trkpt lat="52.048403" lon="05.733465"><ele>24.3</ele><time>2021-05-01T13:50:53Z</time><name>PT3051</name></trkpt>
<trkpt lat="52.048399" lon="05.733481"><ele>24.4</ele><time>2021-05-01T13:50:55Z</time><name>PT3052</name></trkpt>
<trkpt lat="52.048392" lon="05.733489"><ele>24.3</ele><time>2021-05-01T13:50:55Z</time><name>PT3053</name></trkpt>
<trkpt lat="52.048385" lon="05.733500"><ele>24.4</ele><time>2021-05-01T13:50:57Z</time><name>PT3054</name></trkpt>
<trkpt lat="52.048375" lon="05.733511"><ele>24.5</ele><time>2021-05-01T13:50:57Z</time><name>PT3055</name></trkpt>
<trkpt lat="52.048361" lon="05.733521"><ele>24.6</ele><time>2021-05-01T13:50:59Z</time><name>PT3056</name></trkpt>
<trkpt lat="52.048345" lon="05.733539"><ele>24.6</ele><time>2021-05-01T13:50:59Z</time><name>PT3057</name></trkpt>
<trkpt lat="52.048337" lon="05.733549"><ele>24.8</ele><time>2021-05-01T13:51:01Z</time><name>PT3058</name></trkpt>
<trkpt lat="52.048333" lon="05.733557"><ele>24.5</ele><time>2021-05-01T13:51:01Z</time><name>PT3059</name></trkpt>
<trkpt lat="52.048330" lon="05.733566"><ele>24.3</ele><time>2021-05-01T13:51:03Z</time><name>PT3060</name></trkpt>
<trkpt lat="52.048321" lon="05.733577"><ele>24.3</ele><time>2021-05-01T13:51:03Z</time><name>PT3061</name></trkpt>
<trkpt lat="52.048308" lon="05.733594"><ele>24.4</ele><time>2021-05-01T13:51:05Z</time><name>PT3062</name></trkpt>
<trkpt lat="52.048294" lon="05.733603"><ele>24.3</ele><time>2021-05-01T13:51:05Z</time><name>PT3063</name></trkpt>
<trkpt lat="52.048288" lon="05.733610"><ele>24.1</ele><time>2021-05-01T13:51:07Z</time><name>PT3064</name></trkpt>
<trkpt lat="52.048286" lon="05.733614"><ele>24.2</ele><time>2021-05-01T13:51:07Z</time><name>PT3065</name></trkpt>
<trkpt lat="52.048283" lon="05.733621"><ele>24.1</ele><time>2021-05-01T13:51:09Z</time><name>PT3066</name></trkpt>
<trkpt lat="52.048279" lon="05.733636"><ele>23.9</ele><time>2021-05-01T13:51:09Z</time><name>PT3067</name></trkpt>
<trkpt lat="52.048273" lon="05.733636"><ele>24.1</ele><time>2021-05-01T13:51:11Z</time><name>PT3068</name></trkpt>
<trkpt lat="52.048263" lon="05.733653"><ele>24.2</ele><time>2021-05-01T13:51:11Z</time><name>PT3069</name></trkpt>
<trkpt lat="52.048252" lon="05.733675"><ele>24.2</ele><time>2021-05-01T13:51:13Z</time><name>PT3070</name></trkpt>
<trkpt lat="52.048248" lon="05.733683"><ele>24.3</ele><time>2021-05-01T13:51:13Z</time><name>PT3071</name></trkpt>
<trkpt lat="52.048243" lon="05.733686"><ele>24.3</ele><time>2021-05-01T13:51:15Z</time><name>PT3072</name></trkpt>
<trkpt lat="52.048232" lon="05.733702"><ele>24.4</ele><time>2021-05-01T13:51:15Z</time><name>PT3073</name></trkpt>
<trkpt lat="52.048221" lon="05.733732"><ele>24.4</ele><time>2021-05-01T13:51:17Z</time><name>PT3074</name></trkpt>
<trkpt lat="52.048209" lon="05.733748"><ele>24.4</ele><time>2021-05-01T13:51:17Z</time><name>PT3075</name></trkpt>
<trkpt lat="52.048200" lon="05.733771"><ele>24.3</ele><time>2021-05-01T13:51:19Z</time><name>PT3076</name></trkpt>
<trkpt lat="52.048190" lon="05.733784"><ele>24.3</ele><time>2021-05-01T13:51:19Z</time><name>PT3077</name></trkpt>
<trkpt lat="52.048183" lon="05.733791"><ele>24.2</ele><time>2021-05-01T13:51:21Z</time><name>PT3078</name></trkpt>
<trkpt lat="52.048178" lon="05.733795"><ele>24.3</ele><time>2021-05-01T13:51:21Z</time><name>PT3079</name></trkpt>
<trkpt lat="52.048173" lon="05.733800"><ele>24.3</ele><time>2021-05-01T13:51:23Z</time><name>PT3080</name></trkpt>
<trkpt lat="52.048169" lon="05.733819"><ele>24.4</ele><time>2021-05-01T13:51:23Z</time><name>PT3081</name></trkpt>
<trkpt lat="52.048158" lon="05.733849"><ele>24.4</ele><time>2021-05-01T13:51:25Z</time><name>PT3082</name></trkpt>
<trkpt lat="52.048145" lon="05.733876"><ele>24.3</ele><time>2021-05-01T13:51:25Z</time><name>PT3083</name></trkpt>
<trkpt lat="52.048133" lon="05.733879"><ele>24.3</ele><time>2021-05-01T13:51:27Z</time><name>PT3084</name></trkpt>
<trkpt lat="52.048123" lon="05.733885"><ele>24.3</ele><time>2021-05-01T13:51:27Z</time><name>PT3085</name></trkpt>
<trkpt lat="52.048118" lon="05.733890"><ele>24.3</ele><time>2021-05-01T13:51:29Z</time><name>PT3086</name></trkpt>
<trkpt lat="52.048115" lon="05.733888"><ele>24.6</ele><time>2021-05-01T13:51:29Z</time><name>PT3087</name></trkpt>
<trkpt lat="52.048113" lon="05.733891"><ele>24.7</ele><time>2021-05-01T13:51:31Z</time><name>PT3088</name></trkpt>
<trkpt lat="52.048109" lon="05.733897"><ele>24.8</ele><time>2021-05-01T13:51:32Z</time><name>PT3089</name></trkpt>
<trkpt lat="52.048100" lon="05.733917"><ele>24.8</ele><time>2021-05-01T13:51:33Z</time><name>PT3090</name></trkpt>
<trkpt lat="52.048085" lon="05.733948"><ele>24.7</ele><time>2021-05-01T13:51:33Z</time><name>PT3091</name></trkpt>
<trkpt lat="52.048071" lon="05.733973"><ele>24.4</ele><time>2021-05-01T13:51:35Z</time><name>PT3092</name></trkpt>
<trkpt lat="52.048055" lon="05.733993"><ele>24.5</ele><time>2021-05-01T13:51:35Z</time><name>PT3093</name></trkpt>
<trkpt lat="52.048048" lon="05.734001"><ele>24.4</ele><time>2021-05-01T13:51:37Z</time><name>PT3094</name></trkpt>
<trkpt lat="52.048042" lon="05.734009"><ele>24.3</ele><time>2021-05-01T13:51:37Z</time><name>PT3095</name></trkpt>
<trkpt lat="52.048041" lon="05.734014"><ele>24.3</ele><time>2021-05-01T13:51:39Z</time><name>PT3096</name></trkpt>
<trkpt lat="52.048036" lon="05.734030"><ele>24.1</ele><time>2021-05-01T13:51:39Z</time><name>PT3097</name></trkpt>
<trkpt lat="52.048026" lon="05.734053"><ele>24</ele><time>2021-05-01T13:51:41Z</time><name>PT3098</name></trkpt>
<trkpt lat="52.048012" lon="05.734072"><ele>24</ele><time>2021-05-01T13:51:41Z</time><name>PT3099</name></trkpt>
<trkpt lat="52.047998" lon="05.734093"><ele>24.1</ele><time>2021-05-01T13:51:43Z</time><name>PT3100</name></trkpt>
<trkpt lat="52.047988" lon="05.734103"><ele>24</ele><time>2021-05-01T13:51:43Z</time><name>PT3101</name></trkpt>
<trkpt lat="52.047985" lon="05.734109"><ele>24.2</ele><time>2021-05-01T13:51:45Z</time><name>PT3102</name></trkpt>
<trkpt lat="52.047983" lon="05.734113"><ele>24.2</ele><time>2021-05-01T13:51:45Z</time><name>PT3103</name></trkpt>
<trkpt lat="52.047977" lon="05.734127"><ele>24</ele><time>2021-05-01T13:51:47Z</time><name>PT3104</name></trkpt>
<trkpt lat="52.047971" lon="05.734155"><ele>24.1</ele><time>2021-05-01T13:51:47Z</time><name>PT3105</name></trkpt>
<trkpt lat="52.047964" lon="05.734182"><ele>24.1</ele><time>2021-05-01T13:51:49Z</time><name>PT3106</name></trkpt>
<trkpt lat="52.047947" lon="05.734205"><ele>24.1</ele><time>2021-05-01T13:51:49Z</time><name>PT3107</name></trkpt>
<trkpt lat="52.047929" lon="05.734234"><ele>24</ele><time>2021-05-01T13:51:51Z</time><name>PT3108</name></trkpt>
<trkpt lat="52.047920" lon="05.734254"><ele>24.2</ele><time>2021-05-01T13:51:51Z</time><name>PT3109</name></trkpt>
<trkpt lat="52.047910" lon="05.734265"><ele>23.9</ele><time>2021-05-01T13:51:53Z</time><name>PT3110</name></trkpt>
<trkpt lat="52.047907" lon="05.734270"><ele>24</ele><time>2021-05-01T13:51:53Z</time><name>PT3111</name></trkpt>
<trkpt lat="52.047905" lon="05.734267"><ele>23.9</ele><time>2021-05-01T13:51:55Z</time><name>PT3112</name></trkpt>
<trkpt lat="52.047905" lon="05.734270"><ele>23.9</ele><time>2021-05-01T13:51:55Z</time><name>PT3113</name></trkpt>
<trkpt lat="52.047902" lon="05.734277"><ele>24</ele><time>2021-05-01T13:51:57Z</time><name>PT3114</name></trkpt>
<trkpt lat="52.047894" lon="05.734299"><ele>24.3</ele><time>2021-05-01T13:51:57Z</time><name>PT3115</name></trkpt>
<trkpt lat="52.047884" lon="05.734327"><ele>24.2</ele><time>2021-05-01T13:51:59Z</time><name>PT3116</name></trkpt>
<trkpt lat="52.047873" lon="05.734348"><ele>24.3</ele><time>2021-05-01T13:51:59Z</time><name>PT3117</name></trkpt>
<trkpt lat="52.047861" lon="05.734370"><ele>24.3</ele><time>2021-05-01T13:52:01Z</time><name>PT3118</name></trkpt>
<trkpt lat="52.047852" lon="05.734386"><ele>24.3</ele><time>2021-05-01T13:52:01Z</time><name>PT3119</name></trkpt>
<trkpt lat="52.047848" lon="05.734401"><ele>24.2</ele><time>2021-05-01T13:52:03Z</time><name>PT3120</name></trkpt>
<trkpt lat="52.047845" lon="05.734408"><ele>24.3</ele><time>2021-05-01T13:52:03Z</time><name>PT3121</name></trkpt>
<trkpt lat="52.047843" lon="05.734413"><ele>24.2</ele><time>2021-05-01T13:52:05Z</time><name>PT3122</name></trkpt>
<trkpt lat="52.047838" lon="05.734417"><ele>24.2</ele><time>2021-05-01T13:52:05Z</time><name>PT3123</name></trkpt>
<trkpt lat="52.047831" lon="05.734431"><ele>24.2</ele><time>2021-05-01T13:52:07Z</time><name>PT3124</name></trkpt>
<trkpt lat="52.047818" lon="05.734446"><ele>24.2</ele><time>2021-05-01T13:52:07Z</time><name>PT3125</name></trkpt>
<trkpt lat="52.047806" lon="05.734458"><ele>24.1</ele><time>2021-05-01T13:52:09Z</time><name>PT3126</name></trkpt>
<trkpt lat="52.047792" lon="05.734476"><ele>24.3</ele><time>2021-05-01T13:52:09Z</time><name>PT3127</name></trkpt>
<trkpt lat="52.047780" lon="05.734494"><ele>24.4</ele><time>2021-05-01T13:52:11Z</time><name>PT3128</name></trkpt>
<trkpt lat="52.047773" lon="05.734513"><ele>24.4</ele><time>2021-05-01T13:52:11Z</time><name>PT3129</name></trkpt>
<trkpt lat="52.047769" lon="05.734524"><ele>24.3</ele><time>2021-05-01T13:52:13Z</time><name>PT3130</name></trkpt>
<trkpt lat="52.047767" lon="05.734531"><ele>24.3</ele><time>2021-05-01T13:52:13Z</time><name>PT3131</name></trkpt>
<trkpt lat="52.047767" lon="05.734537"><ele>24.3</ele><time>2021-05-01T13:52:15Z</time><name>PT3132</name></trkpt>
<trkpt lat="52.047758" lon="05.734555"><ele>24.4</ele><time>2021-05-01T13:52:17Z</time><name>PT3133</name></trkpt>
<trkpt lat="52.047742" lon="05.734574"><ele>24.4</ele><time>2021-05-01T13:52:17Z</time><name>PT3134</name></trkpt>
<trkpt lat="52.047727" lon="05.734597"><ele>24.3</ele><time>2021-05-01T13:52:19Z</time><name>PT3135</name></trkpt>
<trkpt lat="52.047718" lon="05.734615"><ele>24.3</ele><time>2021-05-01T13:52:19Z</time><name>PT3136</name></trkpt>
<trkpt lat="52.047710" lon="05.734630"><ele>24.1</ele><time>2021-05-01T13:52:21Z</time><name>PT3137</name></trkpt>
<trkpt lat="52.047710" lon="05.734638"><ele>23.9</ele><time>2021-05-01T13:52:21Z</time><name>PT3138</name></trkpt>
<trkpt lat="52.047706" lon="05.734647"><ele>24</ele><time>2021-05-01T13:52:23Z</time><name>PT3139</name></trkpt>
<trkpt lat="52.047701" lon="05.734663"><ele>24.1</ele><time>2021-05-01T13:52:23Z</time><name>PT3140</name></trkpt>
<trkpt lat="52.047694" lon="05.734686"><ele>24.2</ele><time>2021-05-01T13:52:25Z</time><name>PT3141</name></trkpt>
<trkpt lat="52.047687" lon="05.734694"><ele>24.2</ele><time>2021-05-01T13:52:25Z</time><name>PT3142</name></trkpt>
<trkpt lat="52.047676" lon="05.734713"><ele>24.2</ele><time>2021-05-01T13:52:27Z</time><name>PT3143</name></trkpt>
<trkpt lat="52.047664" lon="05.734737"><ele>24.1</ele><time>2021-05-01T13:52:27Z</time><name>PT3144</name></trkpt>
<trkpt lat="52.047658" lon="05.734752"><ele>23.8</ele><time>2021-05-01T13:52:29Z</time><name>PT3145</name></trkpt>
<trkpt lat="52.047655" lon="05.734761"><ele>23.8</ele><time>2021-05-01T13:52:29Z</time><name>PT3146</name></trkpt>
<trkpt lat="52.047653" lon="05.734772"><ele>23.9</ele><time>2021-05-01T13:52:31Z</time><name>PT3147</name></trkpt>
<trkpt lat="52.047649" lon="05.734785"><ele>23.9</ele><time>2021-05-01T13:52:31Z</time><name>PT3148</name></trkpt>
<trkpt lat="52.047644" lon="05.734797"><ele>24.2</ele><time>2021-05-01T13:52:33Z</time><name>PT3149</name></trkpt>
<trkpt lat="52.047638" lon="05.734821"><ele>24.3</ele><time>2021-05-01T13:52:33Z</time><name>PT3150</name></trkpt>
<trkpt lat="52.047624" lon="05.734845"><ele>24.2</ele><time>2021-05-01T13:52:35Z</time><name>PT3151</name></trkpt>
<trkpt lat="52.047607" lon="05.734864"><ele>24.3</ele><time>2021-05-01T13:52:35Z</time><name>PT3152</name></trkpt>
<trkpt lat="52.047598" lon="05.734884"><ele>24.3</ele><time>2021-05-01T13:52:37Z</time><name>PT3153</name></trkpt>
<trkpt lat="52.047595" lon="05.734895"><ele>24.3</ele><time>2021-05-01T13:52:37Z</time><name>PT3154</name></trkpt>
<trkpt lat="52.047594" lon="05.734900"><ele>24.5</ele><time>2021-05-01T13:52:39Z</time><name>PT3155</name></trkpt>
<trkpt lat="52.047593" lon="05.734907"><ele>24.5</ele><time>2021-05-01T13:52:39Z</time><name>PT3156</name></trkpt>
<trkpt lat="52.047586" lon="05.734917"><ele>24.3</ele><time>2021-05-01T13:52:41Z</time><name>PT3157</name></trkpt>
<trkpt lat="52.047578" lon="05.734926"><ele>24.3</ele><time>2021-05-01T13:52:41Z</time><name>PT3158</name></trkpt>
<trkpt lat="52.047571" lon="05.734942"><ele>24.3</ele><time>2021-05-01T13:52:43Z</time><name>PT3159</name></trkpt>
<trkpt lat="52.047564" lon="05.734957"><ele>24.3</ele><time>2021-05-01T13:52:43Z</time><name>PT3160</name></trkpt>
<trkpt lat="52.047562" lon="05.734968"><ele>24.3</ele><time>2021-05-01T13:52:45Z</time><name>PT3161</name></trkpt>
<trkpt lat="52.047561" lon="05.734971"><ele>24.3</ele><time>2021-05-01T13:52:45Z</time><name>PT3162</name></trkpt>
<trkpt lat="52.047561" lon="05.734975"><ele>24.2</ele><time>2021-05-01T13:52:47Z</time><name>PT3163</name></trkpt>
<trkpt lat="52.047556" lon="05.734979"><ele>24.1</ele><time>2021-05-01T13:52:47Z</time><name>PT3164</name></trkpt>
<trkpt lat="52.047554" lon="05.734990"><ele>23.9</ele><time>2021-05-01T13:52:49Z</time><name>PT3165</name></trkpt>
<trkpt lat="52.047546" lon="05.735013"><ele>23.9</ele><time>2021-05-01T13:52:49Z</time><name>PT3166</name></trkpt>
<trkpt lat="52.047542" lon="05.735031"><ele>24.1</ele><time>2021-05-01T13:52:51Z</time><name>PT3167</name></trkpt>
<trkpt lat="52.047539" lon="05.735051"><ele>24.2</ele><time>2021-05-01T13:52:51Z</time><name>PT3168</name></trkpt>
<trkpt lat="52.047531" lon="05.735068"><ele>24.2</ele><time>2021-05-01T13:52:53Z</time><name>PT3169</name></trkpt>
<trkpt lat="52.047518" lon="05.735078"><ele>24.2</ele><time>2021-05-01T13:52:54Z</time><name>PT3170</name></trkpt>
<trkpt lat="52.047512" lon="05.735091"><ele>24.1</ele><time>2021-05-01T13:52:55Z</time><name>PT3171</name></trkpt>
<trkpt lat="52.047508" lon="05.735103"><ele>24.1</ele><time>2021-05-01T13:52:55Z</time><name>PT3172</name></trkpt>
<trkpt lat="52.047507" lon="05.735110"><ele>24</ele><time>2021-05-01T13:52:57Z</time><name>PT3173</name></trkpt>
<trkpt lat="52.047504" lon="05.735115"><ele>24.1</ele><time>2021-05-01T13:52:57Z</time><name>PT3174</name></trkpt>
<trkpt lat="52.047500" lon="05.735118"><ele>24</ele><time>2021-05-01T13:52:59Z</time><name>PT3175</name></trkpt>
<trkpt lat="52.047495" lon="05.735127"><ele>24</ele><time>2021-05-01T13:52:59Z</time><name>PT3176</name></trkpt>
<trkpt lat="52.047489" lon="05.735145"><ele>23.9</ele><time>2021-05-01T13:53:01Z</time><name>PT3177</name></trkpt>
<trkpt lat="52.047483" lon="05.735163"><ele>24</ele><time>2021-05-01T13:53:01Z</time><name>PT3178</name></trkpt>
<trkpt lat="52.047467" lon="05.735173"><ele>24.2</ele><time>2021-05-01T13:53:03Z</time><name>PT3179</name></trkpt>
<trkpt lat="52.047455" lon="05.735172"><ele>24.3</ele><time>2021-05-01T13:53:03Z</time><name>PT3180</name></trkpt>
<trkpt lat="52.047449" lon="05.735175"><ele>24.3</ele><time>2021-05-01T13:53:05Z</time><name>PT3181</name></trkpt>
<trkpt lat="52.047444" lon="05.735182"><ele>24.5</ele><time>2021-05-01T13:53:05Z</time><name>PT3182</name></trkpt>
<trkpt lat="52.047435" lon="05.735195"><ele>24.4</ele><time>2021-05-01T13:53:06Z</time><name>PT3183</name></trkpt>
<trkpt lat="52.047427" lon="05.735215"><ele>24.3</ele><time>2021-05-01T13:53:07Z</time><name>PT3184</name></trkpt>
<trkpt lat="52.047414" lon="05.735234"><ele>24.3</ele><time>2021-05-01T13:53:09Z</time><name>PT3185</name></trkpt>
<trkpt lat="52.047402" lon="05.735246"><ele>24.3</ele><time>2021-05-01T13:53:09Z</time><name>PT3186</name></trkpt>
<trkpt lat="52.047395" lon="05.735255"><ele>23.8</ele><time>2021-05-01T13:53:11Z</time><name>PT3187</name></trkpt>
<trkpt lat="52.047391" lon="05.735262"><ele>24</ele><time>2021-05-01T13:53:11Z</time><name>PT3188</name></trkpt>
<trkpt lat="52.047388" lon="05.735267"><ele>24</ele><time>2021-05-01T13:53:13Z</time><name>PT3189</name></trkpt>
<trkpt lat="52.047384" lon="05.735276"><ele>24.1</ele><time>2021-05-01T13:53:13Z</time><name>PT3190</name></trkpt>
<trkpt lat="52.047378" lon="05.735285"><ele>24.3</ele><time>2021-05-01T13:53:15Z</time><name>PT3191</name></trkpt>
<trkpt lat="52.047367" lon="05.735298"><ele>24.4</ele><time>2021-05-01T13:53:15Z</time><name>PT3192</name></trkpt>
<trkpt lat="52.047357" lon="05.735318"><ele>24.4</ele><time>2021-05-01T13:53:17Z</time><name>PT3193</name></trkpt>
<trkpt lat="52.047352" lon="05.735331"><ele>24.3</ele><time>2021-05-01T13:53:17Z</time><name>PT3194</name></trkpt>
<trkpt lat="52.047348" lon="05.735340"><ele>24.3</ele><time>2021-05-01T13:53:19Z</time><name>PT3195</name></trkpt>
<trkpt lat="52.047347" lon="05.735345"><ele>24.3</ele><time>2021-05-01T13:53:19Z</time><name>PT3196</name></trkpt>
<trkpt lat="52.047346" lon="05.735347"><ele>24</ele><time>2021-05-01T13:53:21Z</time><name>PT3197</name></trkpt>
<trkpt lat="52.047341" lon="05.735359"><ele>24.1</ele><time>2021-05-01T13:53:21Z</time><name>PT3198</name></trkpt>
<trkpt lat="52.047331" lon="05.735380"><ele>23.8</ele><time>2021-05-01T13:53:23Z</time><name>PT3199</name></trkpt>
<trkpt lat="52.047323" lon="05.735397"><ele>23.8</ele><time>2021-05-01T13:53:24Z</time><name>PT3200</name></trkpt>
<trkpt lat="52.047311" lon="05.735412"><ele>23.8</ele><time>2021-05-01T13:53:25Z</time><name>PT3201</name></trkpt>
<trkpt lat="52.047296" lon="05.735427"><ele>24</ele><time>2021-05-01T13:53:25Z</time><name>PT3202</name></trkpt>
<trkpt lat="52.047284" lon="05.735443"><ele>23.9</ele><time>2021-05-01T13:53:27Z</time><name>PT3203</name></trkpt>
<trkpt lat="52.047278" lon="05.735453"><ele>24</ele><time>2021-05-01T13:53:27Z</time><name>PT3204</name></trkpt>
<trkpt lat="52.047276" lon="05.735463"><ele>24.1</ele><time>2021-05-01T13:53:29Z</time><name>PT3205</name></trkpt>
<trkpt lat="52.047273" lon="05.735467"><ele>24</ele><time>2021-05-01T13:53:29Z</time><name>PT3206</name></trkpt>
<trkpt lat="52.047268" lon="05.735478"><ele>23.8</ele><time>2021-05-01T13:53:31Z</time><name>PT3207</name></trkpt>
<trkpt lat="52.047259" lon="05.735497"><ele>23.8</ele><time>2021-05-01T13:53:31Z</time><name>PT3208</name></trkpt>
<trkpt lat="52.047247" lon="05.735519"><ele>23.9</ele><time>2021-05-01T13:53:33Z</time><name>PT3209</name></trkpt>
<trkpt lat="52.047231" lon="05.735545"><ele>23.8</ele><time>2021-05-01T13:53:33Z</time><name>PT3210</name></trkpt>
<trkpt lat="52.047215" lon="05.735557"><ele>23.8</ele><time>2021-05-01T13:53:35Z</time><name>PT3211</name></trkpt>
<trkpt lat="52.047203" lon="05.735566"><ele>23.8</ele><time>2021-05-01T13:53:35Z</time><name>PT3212</name></trkpt>
<trkpt lat="52.047206" lon="05.735562"><ele>23.8</ele><time>2021-05-01T13:53:37Z</time><name>PT3213</name></trkpt>
<trkpt lat="52.047205" lon="05.735562"><ele>23.8</ele><time>2021-05-01T13:53:37Z</time><name>PT3214</name></trkpt>
<trkpt lat="52.047201" lon="05.735577"><ele>23.7</ele><time>2021-05-01T13:53:39Z</time><name>PT3215</name></trkpt>
<trkpt lat="52.047197" lon="05.735599"><ele>23.8</ele><time>2021-05-01T13:53:39Z</time><name>PT3216</name></trkpt>
<trkpt lat="52.047183" lon="05.735626"><ele>23.8</ele><time>2021-05-01T13:53:41Z</time><name>PT3217</name></trkpt>
<trkpt lat="52.047168" lon="05.735644"><ele>23.9</ele><time>2021-05-01T13:53:41Z</time><name>PT3218</name></trkpt>
<trkpt lat="52.047166" lon="05.735641"><ele>23.9</ele><time>2021-05-01T13:53:43Z</time><name>PT3219</name></trkpt>
<trkpt lat="52.047167" lon="05.735639"><ele>23.8</ele><time>2021-05-01T13:53:43Z</time><name>PT3220</name></trkpt>
<trkpt lat="52.047160" lon="05.735641"><ele>23.8</ele><time>2021-05-01T13:53:45Z</time><name>PT3221</name></trkpt>
<trkpt lat="52.047156" lon="05.735651"><ele>23.8</ele><time>2021-05-01T13:53:45Z</time><name>PT3222</name></trkpt>
<trkpt lat="52.047148" lon="05.735675"><ele>23.6</ele><time>2021-05-01T13:53:47Z</time><name>PT3223</name></trkpt>
<trkpt lat="52.047141" lon="05.735689"><ele>23.7</ele><time>2021-05-01T13:53:47Z</time><name>PT3224</name></trkpt>
<trkpt lat="52.047135" lon="05.735705"><ele>23.8</ele><time>2021-05-01T13:53:49Z</time><name>PT3225</name></trkpt>
<trkpt lat="52.047131" lon="05.735715"><ele>23.8</ele><time>2021-05-01T13:53:49Z</time><name>PT3226</name></trkpt>
<trkpt lat="52.047127" lon="05.735722"><ele>23.8</ele><time>2021-05-01T13:53:51Z</time><name>PT3227</name></trkpt>
<trkpt lat="52.047122" lon="05.735728"><ele>23.8</ele><time>2021-05-01T13:53:51Z</time><name>PT3228</name></trkpt>
<trkpt lat="52.047119" lon="05.735732"><ele>23.7</ele><time>2021-05-01T13:53:53Z</time><name>PT3229</name></trkpt>
<trkpt lat="52.047117" lon="05.735741"><ele>23.4</ele><time>2021-05-01T13:53:53Z</time><name>PT3230</name></trkpt>
<trkpt lat="52.047113" lon="05.735754"><ele>23.4</ele><time>2021-05-01T13:53:55Z</time><name>PT3231</name></trkpt>
<trkpt lat="52.047103" lon="05.735771"><ele>23.4</ele><time>2021-05-01T13:53:55Z</time><name>PT3232</name></trkpt>
<trkpt lat="52.047090" lon="05.735793"><ele>23.4</ele><time>2021-05-01T13:53:57Z</time><name>PT3233</name></trkpt>
<trkpt lat="52.047080" lon="05.735812"><ele>23.4</ele><time>2021-05-01T13:53:57Z</time><name>PT3234</name></trkpt>
<trkpt lat="52.047071" lon="05.735825"><ele>23.7</ele><time>2021-05-01T13:53:59Z</time><name>PT3235</name></trkpt>
<trkpt lat="52.047064" lon="05.735832"><ele>23.7</ele><time>2021-05-01T13:53:59Z</time><name>PT3236</name></trkpt>
<trkpt lat="52.047060" lon="05.735839"><ele>23.8</ele><time>2021-05-01T13:54:01Z</time><name>PT3237</name></trkpt>
<trkpt lat="52.047058" lon="05.735844"><ele>23.7</ele><time>2021-05-01T13:54:01Z</time><name>PT3238</name></trkpt>
<trkpt lat="52.047053" lon="05.735858"><ele>23.5</ele><time>2021-05-01T13:54:03Z</time><name>PT3239</name></trkpt>
<trkpt lat="52.047055" lon="05.735873"><ele>23.5</ele><time>2021-05-01T13:54:03Z</time><name>PT3240</name></trkpt>
<trkpt lat="52.047044" lon="05.735893"><ele>23.5</ele><time>2021-05-01T13:54:05Z</time><name>PT3241</name></trkpt>
<trkpt lat="52.047034" lon="05.735913"><ele>23.3</ele><time>2021-05-01T13:54:05Z</time><name>PT3242</name></trkpt>
<trkpt lat="52.047025" lon="05.735923"><ele>23.4</ele><time>2021-05-01T13:54:07Z</time><name>PT3243</name></trkpt>
<trkpt lat="52.047017" lon="05.735940"><ele>23.4</ele><time>2021-05-01T13:54:07Z</time><name>PT3244</name></trkpt>
<trkpt lat="52.047007" lon="05.735958"><ele>23.4</ele><time>2021-05-01T13:54:09Z</time><name>PT3245</name></trkpt>
<trkpt lat="52.046998" lon="05.735977"><ele>23.3</ele><time>2021-05-01T13:54:09Z</time><name>PT3246</name></trkpt>
<trkpt lat="52.046991" lon="05.735995"><ele>23.4</ele><time>2021-05-01T13:54:11Z</time><name>PT3247</name></trkpt>
<trkpt lat="52.046988" lon="05.736013"><ele>23.3</ele><time>2021-05-01T13:54:11Z</time><name>PT3248</name></trkpt>
<trkpt lat="52.046980" lon="05.736035"><ele>23.3</ele><time>2021-05-01T13:54:13Z</time><name>PT3249</name></trkpt>
<trkpt lat="52.046970" lon="05.736054"><ele>23.3</ele><time>2021-05-01T13:54:13Z</time><name>PT3250</name></trkpt>
<trkpt lat="52.046961" lon="05.736070"><ele>23.4</ele><time>2021-05-01T13:54:15Z</time><name>PT3251</name></trkpt>
<trkpt lat="52.046953" lon="05.736083"><ele>23.3</ele><time>2021-05-01T13:54:15Z</time><name>PT3252</name></trkpt>
<trkpt lat="52.046948" lon="05.736092"><ele>23.5</ele><time>2021-05-01T13:54:17Z</time><name>PT3253</name></trkpt>
<trkpt lat="52.046944" lon="05.736103"><ele>23.4</ele><time>2021-05-01T13:54:17Z</time><name>PT3254</name></trkpt>
<trkpt lat="52.046937" lon="05.736123"><ele>23.3</ele><time>2021-05-01T13:54:19Z</time><name>PT3255</name></trkpt>
<trkpt lat="52.046922" lon="05.736145"><ele>23.3</ele><time>2021-05-01T13:54:20Z</time><name>PT3256</name></trkpt>
<trkpt lat="52.046912" lon="05.736161"><ele>23.3</ele><time>2021-05-01T13:54:21Z</time><name>PT3257</name></trkpt>
<trkpt lat="52.046905" lon="05.736174"><ele>23.3</ele><time>2021-05-01T13:54:22Z</time><name>PT3258</name></trkpt>
<trkpt lat="52.046903" lon="05.736181"><ele>23.5</ele><time>2021-05-01T13:54:23Z</time><name>PT3259</name></trkpt>
<trkpt lat="52.046900" lon="05.736190"><ele>23.4</ele><time>2021-05-01T13:54:24Z</time><name>PT3260</name></trkpt>
<trkpt lat="52.046894" lon="05.736208"><ele>23.5</ele><time>2021-05-01T13:54:25Z</time><name>PT3261</name></trkpt>
<trkpt lat="52.046884" lon="05.736230"><ele>23.4</ele><time>2021-05-01T13:54:25Z</time><name>PT3262</name></trkpt>
<trkpt lat="52.046881" lon="05.736242"><ele>23.4</ele><time>2021-05-01T13:54:27Z</time><name>PT3263</name></trkpt>
<trkpt lat="52.046874" lon="05.736256"><ele>23.4</ele><time>2021-05-01T13:54:27Z</time><name>PT3264</name></trkpt>
<trkpt lat="52.046870" lon="05.736265"><ele>23.6</ele><time>2021-05-01T13:54:29Z</time><name>PT3265</name></trkpt>
<trkpt lat="52.046866" lon="05.736274"><ele>23.7</ele><time>2021-05-01T13:54:29Z</time><name>PT3266</name></trkpt>
<trkpt lat="52.046865" lon="05.736282"><ele>23.8</ele><time>2021-05-01T13:54:31Z</time><name>PT3267</name></trkpt>
<trkpt lat="52.046863" lon="05.736286"><ele>23.9</ele><time>2021-05-01T13:54:31Z</time><name>PT3268</name></trkpt>
<trkpt lat="52.046858" lon="05.736290"><ele>23.9</ele><time>2021-05-01T13:54:33Z</time><name>PT3269</name></trkpt>
<trkpt lat="52.046853" lon="05.736298"><ele>23.8</ele><time>2021-05-01T13:54:33Z</time><name>PT3270</name></trkpt>
<trkpt lat="52.046846" lon="05.736301"><ele>23.8</ele><time>2021-05-01T13:54:35Z</time><name>PT3271</name></trkpt>
<trkpt lat="52.046839" lon="05.736301"><ele>23.6</ele><time>2021-05-01T13:54:35Z</time><name>PT3272</name></trkpt>
<trkpt lat="52.046836" lon="05.736300"><ele>23.7</ele><time>2021-05-01T13:54:37Z</time><name>PT3273</name></trkpt>
<trkpt lat="52.046833" lon="05.736294"><ele>23.5</ele><time>2021-05-01T13:54:37Z</time><name>PT3274</name></trkpt>
<trkpt lat="52.046829" lon="05.736283"><ele>23.3</ele><time>2021-05-01T13:54:39Z</time><name>PT3275</name></trkpt>
<trkpt lat="52.046828" lon="05.736260"><ele>23.3</ele><time>2021-05-01T13:54:39Z</time><name>PT3276</name></trkpt>
<trkpt lat="52.046827" lon="05.736235"><ele>23.4</ele><time>2021-05-01T13:54:41Z</time><name>PT3277</name></trkpt>
<trkpt lat="52.046825" lon="05.736216"><ele>23.4</ele><time>2021-05-01T13:54:41Z</time><name>PT3278</name></trkpt>
<trkpt lat="52.046822" lon="05.736205"><ele>23.5</ele><time>2021-05-01T13:54:43Z</time><name>PT3279</name></trkpt>
<trkpt lat="52.046821" lon="05.736195"><ele>23.5</ele><time>2021-05-01T13:54:43Z</time><name>PT3280</name></trkpt>
<trkpt lat="52.046815" lon="05.736189"><ele>23.6</ele><time>2021-05-01T13:54:45Z</time><name>PT3281</name></trkpt>
<trkpt lat="52.046809" lon="05.736174"><ele>23.6</ele><time>2021-05-01T13:54:45Z</time><name>PT3282</name></trkpt>
<trkpt lat="52.046803" lon="05.736154"><ele>23.6</ele><time>2021-05-01T13:54:47Z</time><name>PT3283</name></trkpt>
<trkpt lat="52.046802" lon="05.736127"><ele>23.7</ele><time>2021-05-01T13:54:47Z</time><name>PT3284</name></trkpt>
<trkpt lat="52.046798" lon="05.736104"><ele>23.6</ele><time>2021-05-01T13:54:49Z</time><name>PT3285</name></trkpt>
<trkpt lat="52.046793" lon="05.736087"><ele>23.5</ele><time>2021-05-01T13:54:49Z</time><name>PT3286</name></trkpt>
<trkpt lat="52.046792" lon="05.736082"><ele>23.4</ele><time>2021-05-01T13:54:51Z</time><name>PT3287</name></trkpt>
<trkpt lat="52.046789" lon="05.736074"><ele>23.6</ele><time>2021-05-01T13:54:51Z</time><name>PT3288</name></trkpt>
<trkpt lat="52.046784" lon="05.736065"><ele>23.7</ele><time>2021-05-01T13:54:53Z</time><name>PT3289</name></trkpt>
<trkpt lat="52.046772" lon="05.736045"><ele>23.8</ele><time>2021-05-01T13:54:53Z</time><name>PT3290</name></trkpt>
<trkpt lat="52.046762" lon="05.736020"><ele>23.8</ele><time>2021-05-01T13:54:55Z</time><name>PT3291</name></trkpt>
<trkpt lat="52.046754" lon="05.736002"><ele>23.9</ele><time>2021-05-01T13:54:55Z</time><name>PT3292</name></trkpt>
<trkpt lat="52.046748" lon="05.735992"><ele>23.8</ele><time>2021-05-01T13:54:57Z</time><name>PT3293</name></trkpt>
<trkpt lat="52.046744" lon="05.735992"><ele>23.9</ele><time>2021-05-01T13:54:57Z</time><name>PT3294</name></trkpt>
<trkpt lat="52.046736" lon="05.735991"><ele>23.8</ele><time>2021-05-01T13:54:59Z</time><name>PT3295</name></trkpt>
<trkpt lat="52.046729" lon="05.735985"><ele>23.7</ele><time>2021-05-01T13:54:59Z</time><name>PT3296</name></trkpt>
<trkpt lat="52.046716" lon="05.735970"><ele>23.6</ele><time>2021-05-01T13:55:01Z</time><name>PT3297</name></trkpt>
<trkpt lat="52.046706" lon="05.735957"><ele>23.8</ele><time>2021-05-01T13:55:01Z</time><name>PT3298</name></trkpt>
<trkpt lat="52.046696" lon="05.735942"><ele>23.8</ele><time>2021-05-01T13:55:03Z</time><name>PT3299</name></trkpt>
<trkpt lat="52.046686" lon="05.735931"><ele>23.7</ele><time>2021-05-01T13:55:03Z</time><name>PT3300</name></trkpt>
<trkpt lat="52.046681" lon="05.735923"><ele>23.8</ele><time>2021-05-01T13:55:05Z</time><name>PT3301</name></trkpt>
<trkpt lat="52.046678" lon="05.735917"><ele>23.8</ele><time>2021-05-01T13:55:05Z</time><name>PT3302</name></trkpt>
<trkpt lat="52.046671" lon="05.735912"><ele>23.8</ele><time>2021-05-01T13:55:07Z</time><name>PT3303</name></trkpt>
<trkpt lat="52.046662" lon="05.735900"><ele>23.8</ele><time>2021-05-01T13:55:07Z</time><name>PT3304</name></trkpt>
<trkpt lat="52.046651" lon="05.735885"><ele>23.8</ele><time>2021-05-01T13:55:09Z</time><name>PT3305</name></trkpt>
<trkpt lat="52.046641" lon="05.735871"><ele>23.8</ele><time>2021-05-01T13:55:09Z</time><name>PT3306</name></trkpt>
<trkpt lat="52.046634" lon="05.735861"><ele>23.8</ele><time>2021-05-01T13:55:11Z</time><name>PT3307</name></trkpt>
<trkpt lat="52.046629" lon="05.735855"><ele>23.8</ele><time>2021-05-01T13:55:11Z</time><name>PT3308</name></trkpt>
<trkpt lat="52.046623" lon="05.735848"><ele>23.8</ele><time>2021-05-01T13:55:13Z</time><name>PT3309</name></trkpt>
<trkpt lat="52.046615" lon="05.735836"><ele>23.8</ele><time>2021-05-01T13:55:13Z</time><name>PT3310</name></trkpt>
<trkpt lat="52.046605" lon="05.735817"><ele>23.9</ele><time>2021-05-01T13:55:15Z</time><name>PT3311</name></trkpt>
<trkpt lat="52.046594" lon="05.735805"><ele>23.8</ele><time>2021-05-01T13:55:15Z</time><name>PT3312</name></trkpt>
<trkpt lat="52.046588" lon="05.735799"><ele>23.8</ele><time>2021-05-01T13:55:16Z</time><name>PT3313</name></trkpt>
<trkpt lat="52.046584" lon="05.735798"><ele>23.8</ele><time>2021-05-01T13:55:17Z</time><name>PT3314</name></trkpt>
<trkpt lat="52.046579" lon="05.735792"><ele>23.8</ele><time>2021-05-01T13:55:19Z</time><name>PT3315</name></trkpt>
<trkpt lat="52.046572" lon="05.735798"><ele>23.9</ele><time>2021-05-01T13:55:19Z</time><name>PT3316</name></trkpt>
<trkpt lat="52.046576" lon="05.735802"><ele>23.8</ele><time>2021-05-01T13:55:20Z</time><name>PT3317</name></trkpt>
<trkpt lat="52.046577" lon="05.735802"><ele>23.9</ele><time>2021-05-01T13:55:21Z</time><name>PT3318</name></trkpt>
<trkpt lat="52.046577" lon="05.735802"><ele>23.8</ele><time>2021-05-01T13:55:23Z</time><name>PT3319</name></trkpt>
<trkpt lat="52.046577" lon="05.735799"><ele>23.8</ele><time>2021-05-01T13:55:23Z</time><name>PT3320</name></trkpt>
<trkpt lat="52.046576" lon="05.735798"><ele>23.6</ele><time>2021-05-01T13:55:24Z</time><name>PT3321</name></trkpt>
<trkpt lat="52.046574" lon="05.735795"><ele>23.6</ele><time>2021-05-01T13:55:25Z</time><name>PT3322</name></trkpt>
<trkpt lat="52.046571" lon="05.735794"><ele>23.8</ele><time>2021-05-01T13:55:33Z</time><name>PT3323</name></trkpt>
<trkpt lat="52.046567" lon="05.735811"><ele>23.8</ele><time>2021-05-01T13:55:33Z</time><name>PT3324</name></trkpt>
<trkpt lat="52.046568" lon="05.735817"><ele>23.8</ele><time>2021-05-01T13:55:35Z</time><name>PT3325</name></trkpt>
<trkpt lat="52.046561" lon="05.735808"><ele>23.8</ele><time>2021-05-01T13:55:35Z</time><name>PT3326</name></trkpt>
<trkpt lat="52.046554" lon="05.735804"><ele>23.8</ele><time>2021-05-01T13:55:37Z</time><name>PT3327</name></trkpt>
<trkpt lat="52.046547" lon="05.735798"><ele>23.8</ele><time>2021-05-01T13:55:37Z</time><name>PT3328</name></trkpt>
<trkpt lat="52.046547" lon="05.735794"><ele>23.8</ele><time>2021-05-01T13:55:39Z</time><name>PT3329</name></trkpt>
<trkpt lat="52.046549" lon="05.735790"><ele>23.9</ele><time>2021-05-01T13:55:39Z</time><name>PT3330</name></trkpt>
<trkpt lat="52.046551" lon="05.735790"><ele>23.8</ele><time>2021-05-01T13:55:41Z</time><name>PT3331</name></trkpt>
<trkpt lat="52.046551" lon="05.735796"><ele>23.8</ele><time>2021-05-01T13:55:42Z</time><name>PT3332</name></trkpt>
<trkpt lat="52.046552" lon="05.735799"><ele>23.6</ele><time>2021-05-01T13:55:43Z</time><name>PT3333</name></trkpt>
<trkpt lat="52.046555" lon="05.735799"><ele>23.7</ele><time>2021-05-01T13:55:44Z</time><name>PT3334</name></trkpt>
<trkpt lat="52.046555" lon="05.735799"><ele>23.8</ele><time>2021-05-01T13:55:45Z</time><name>PT3335</name></trkpt>
<trkpt lat="52.046553" lon="05.735800"><ele>23.8</ele><time>2021-05-01T13:55:46Z</time><name>PT3336</name></trkpt>
<trkpt lat="52.046555" lon="05.735795"><ele>23.9</ele><time>2021-05-01T13:55:49Z</time><name>PT3337</name></trkpt>
<trkpt lat="52.046551" lon="05.735800"><ele>24</ele><time>2021-05-01T13:55:49Z</time><name>PT3338</name></trkpt>
<trkpt lat="52.046551" lon="05.735804"><ele>24</ele><time>2021-05-01T13:55:51Z</time><name>PT3339</name></trkpt>
<trkpt lat="52.046550" lon="05.735807"><ele>23.5</ele><time>2021-05-01T13:55:59Z</time><name>PT3340</name></trkpt>
<trkpt lat="52.046550" lon="05.735808"><ele>23.7</ele><time>2021-05-01T13:56:01Z</time><name>PT3341</name></trkpt>
<trkpt lat="52.046549" lon="05.735806"><ele>23.6</ele><time>2021-05-01T13:56:01Z</time><name>PT3342</name></trkpt>
<trkpt lat="52.046554" lon="05.735813"><ele>23.8</ele><time>2021-05-01T13:56:11Z</time><name>PT3343</name></trkpt>
<trkpt lat="52.046557" lon="05.735815"><ele>23.7</ele><time>2021-05-01T13:56:13Z</time><name>PT3344</name></trkpt>
<trkpt lat="52.046558" lon="05.735815"><ele>23.8</ele><time>2021-05-01T13:56:13Z</time><name>PT3345</name></trkpt>
<trkpt lat="52.046560" lon="05.735813"><ele>23.6</ele><time>2021-05-01T13:56:15Z</time><name>PT3346</name></trkpt>
<trkpt lat="52.046556" lon="05.735807"><ele>23.5</ele><time>2021-05-01T13:56:15Z</time><name>PT3347</name></trkpt>
<trkpt lat="52.046552" lon="05.735804"><ele>23.6</ele><time>2021-05-01T13:56:17Z</time><name>PT3348</name></trkpt>
<trkpt lat="52.046552" lon="05.735805"><ele>23.6</ele><time>2021-05-01T13:56:17Z</time><name>PT3349</name></trkpt>
<trkpt lat="52.046557" lon="05.735812"><ele>23.9</ele><time>2021-05-01T13:56:27Z</time><name>PT3350</name></trkpt>
<trkpt lat="52.046575" lon="05.735838"><ele>24</ele><time>2021-05-01T13:56:29Z</time><name>PT3351</name></trkpt>
<trkpt lat="52.046597" lon="05.735865"><ele>23.9</ele><time>2021-05-01T13:56:29Z</time><name>PT3352</name></trkpt>
<trkpt lat="52.046612" lon="05.735881"><ele>23.8</ele><time>2021-05-01T13:56:31Z</time><name>PT3353</name></trkpt>
<trkpt lat="52.046623" lon="05.735893"><ele>23.8</ele><time>2021-05-01T13:56:31Z</time><name>PT3354</name></trkpt>
<trkpt lat="52.046633" lon="05.735903"><ele>23.8</ele><time>2021-05-01T13:56:33Z</time><name>PT3355</name></trkpt>
<trkpt lat="52.046642" lon="05.735913"><ele>23.8</ele><time>2021-05-01T13:56:33Z</time><name>PT3356</name></trkpt>
<trkpt lat="52.046651" lon="05.735923"><ele>23.8</ele><time>2021-05-01T13:56:34Z</time><name>PT3357</name></trkpt>
<trkpt lat="52.046659" lon="05.735928"><ele>23.7</ele><time>2021-05-01T13:56:35Z</time><name>PT3358</name></trkpt>
<trkpt lat="52.046666" lon="05.735930"><ele>23.8</ele><time>2021-05-01T13:56:37Z</time><name>PT3359</name></trkpt>
<trkpt lat="52.046674" lon="05.735936"><ele>23.7</ele><time>2021-05-01T13:56:37Z</time><name>PT3360</name></trkpt>
<trkpt lat="52.046685" lon="05.735943"><ele>23.8</ele><time>2021-05-01T13:56:39Z</time><name>PT3361</name></trkpt>
<trkpt lat="52.046697" lon="05.735963"><ele>23.8</ele><time>2021-05-01T13:56:39Z</time><name>PT3362</name></trkpt>
<trkpt lat="52.046709" lon="05.735980"><ele>23.8</ele><time>2021-05-01T13:56:41Z</time><name>PT3363</name></trkpt>
<trkpt lat="52.046721" lon="05.735997"><ele>23.8</ele><time>2021-05-01T13:56:41Z</time><name>PT3364</name></trkpt>
<trkpt lat="52.046733" lon="05.736022"><ele>23.9</ele><time>2021-05-01T13:56:43Z</time><name>PT3365</name></trkpt>
<trkpt lat="52.046742" lon="05.736043"><ele>23.9</ele><time>2021-05-01T13:56:43Z</time><name>PT3366</name></trkpt>
<trkpt lat="52.046752" lon="05.736060"><ele>23.9</ele><time>2021-05-01T13:56:45Z</time><name>PT3367</name></trkpt>
<trkpt lat="52.046760" lon="05.736067"><ele>24.1</ele><time>2021-05-01T13:56:45Z</time><name>PT3368</name></trkpt>
<trkpt lat="52.046765" lon="05.736071"><ele>23.9</ele><time>2021-05-01T13:56:47Z</time><name>PT3369</name></trkpt>
<trkpt lat="52.046767" lon="05.736073"><ele>24</ele><time>2021-05-01T13:56:47Z</time><name>PT3370</name></trkpt>
<trkpt lat="52.046767" lon="05.736079"><ele>24</ele><time>2021-05-01T13:56:49Z</time><name>PT3371</name></trkpt>
<trkpt lat="52.046769" lon="05.736095"><ele>23.8</ele><time>2021-05-01T13:56:50Z</time><name>PT3372</name></trkpt>
<trkpt lat="52.046775" lon="05.736115"><ele>23.8</ele><time>2021-05-01T13:56:51Z</time><name>PT3373</name></trkpt>
<trkpt lat="52.046780" lon="05.736128"><ele>23.9</ele><time>2021-05-01T13:56:51Z</time><name>PT3374</name></trkpt>
<trkpt lat="52.046789" lon="05.736148"><ele>23.8</ele><time>2021-05-01T13:56:53Z</time><name>PT3375</name></trkpt>
<trkpt lat="52.046792" lon="05.736177"><ele>23.8</ele><time>2021-05-01T13:56:53Z</time><name>PT3376</name></trkpt>
<trkpt lat="52.046793" lon="05.736199"><ele>23.9</ele><time>2021-05-01T13:56:55Z</time><name>PT3377</name></trkpt>
<trkpt lat="52.046796" lon="05.736208"><ele>23.9</ele><time>2021-05-01T13:56:56Z</time><name>PT3378</name></trkpt>
<trkpt lat="52.046793" lon="05.736231"><ele>24</ele><time>2021-05-01T13:56:57Z</time><name>PT3379</name></trkpt>
<trkpt lat="52.046794" lon="05.736242"><ele>24.1</ele><time>2021-05-01T13:56:58Z</time><name>PT3380</name></trkpt>
<trkpt lat="52.046796" lon="05.736243"><ele>24</ele><time>2021-05-01T13:56:59Z</time><name>PT3381</name></trkpt>
<trkpt lat="52.046793" lon="05.736255"><ele>23.8</ele><time>2021-05-01T13:56:59Z</time><name>PT3382</name></trkpt>
<trkpt lat="52.046792" lon="05.736265"><ele>23.8</ele><time>2021-05-01T13:57:01Z</time><name>PT3383</name></trkpt>
<trkpt lat="52.046793" lon="05.736289"><ele>23.9</ele><time>2021-05-01T13:57:01Z</time><name>PT3384</name></trkpt>
<trkpt lat="52.046789" lon="05.736313"><ele>24</ele><time>2021-05-01T13:57:03Z</time><name>PT3385</name></trkpt>
<trkpt lat="52.046783" lon="05.736339"><ele>24</ele><time>2021-05-01T13:57:03Z</time><name>PT3386</name></trkpt>
<trkpt lat="52.046778" lon="05.736358"><ele>24.1</ele><time>2021-05-01T13:57:05Z</time><name>PT3387</name></trkpt>
<trkpt lat="52.046777" lon="05.736371"><ele>24.1</ele><time>2021-05-01T13:57:05Z</time><name>PT3388</name></trkpt>
<trkpt lat="52.046774" lon="05.736379"><ele>24</ele><time>2021-05-01T13:57:07Z</time><name>PT3389</name></trkpt>
<trkpt lat="52.046771" lon="05.736384"><ele>23.8</ele><time>2021-05-01T13:57:07Z</time><name>PT3390</name></trkpt>
<trkpt lat="52.046766" lon="05.736397"><ele>23.8</ele><time>2021-05-01T13:57:09Z</time><name>PT3391</name></trkpt>
<trkpt lat="52.046761" lon="05.736406"><ele>23.8</ele><time>2021-05-01T13:57:09Z</time><name>PT3392</name></trkpt>
<trkpt lat="52.046756" lon="05.736423"><ele>23.6</ele><time>2021-05-01T13:57:11Z</time><name>PT3393</name></trkpt>
<trkpt lat="52.046749" lon="05.736433"><ele>23.5</ele><time>2021-05-01T13:57:11Z</time><name>PT3394</name></trkpt>
<trkpt lat="52.046739" lon="05.736453"><ele>23.6</ele><time>2021-05-01T13:57:13Z</time><name>PT3395</name></trkpt>
<trkpt lat="52.046733" lon="05.736469"><ele>23.4</ele><time>2021-05-01T13:57:13Z</time><name>PT3396</name></trkpt>
<trkpt lat="52.046720" lon="05.736483"><ele>23.6</ele><time>2021-05-01T13:57:15Z</time><name>PT3397</name></trkpt>
<trkpt lat="52.046710" lon="05.736492"><ele>23.8</ele><time>2021-05-01T13:57:15Z</time><name>PT3398</name></trkpt>
<trkpt lat="52.046706" lon="05.736492"><ele>23.9</ele><time>2021-05-01T13:57:17Z</time><name>PT3399</name></trkpt>
<trkpt lat="52.046704" lon="05.736501"><ele>23.8</ele><time>2021-05-01T13:57:17Z</time><name>PT3400</name></trkpt>
<trkpt lat="52.046701" lon="05.736502"><ele>23.8</ele><time>2021-05-01T13:57:19Z</time><name>PT3401</name></trkpt>
<trkpt lat="52.046698" lon="05.736519"><ele>23.9</ele><time>2021-05-01T13:57:19Z</time><name>PT3402</name></trkpt>
<trkpt lat="52.046691" lon="05.736550"><ele>23.9</ele><time>2021-05-01T13:57:21Z</time><name>PT3403</name></trkpt>
<trkpt lat="52.046684" lon="05.736569"><ele>23.8</ele><time>2021-05-01T13:57:21Z</time><name>PT3404</name></trkpt>
<trkpt lat="52.046674" lon="05.736598"><ele>24</ele><time>2021-05-01T13:57:23Z</time><name>PT3405</name></trkpt>
<trkpt lat="52.046669" lon="05.736623"><ele>23.9</ele><time>2021-05-01T13:57:23Z</time><name>PT3406</name></trkpt>
<trkpt lat="52.046662" lon="05.736633"><ele>24</ele><time>2021-05-01T13:57:25Z</time><name>PT3407</name></trkpt>
<trkpt lat="52.046657" lon="05.736640"><ele>23.9</ele><time>2021-05-01T13:57:25Z</time><name>PT3408</name></trkpt>
<trkpt lat="52.046659" lon="05.736650"><ele>24.2</ele><time>2021-05-01T13:57:27Z</time><name>PT3409</name></trkpt>
<trkpt lat="52.046652" lon="05.736656"><ele>24.3</ele><time>2021-05-01T13:57:27Z</time><name>PT3410</name></trkpt>
<trkpt lat="52.046646" lon="05.736668"><ele>24.5</ele><time>2021-05-01T13:57:29Z</time><name>PT3411</name></trkpt>
<trkpt lat="52.046649" lon="05.736679"><ele>24.4</ele><time>2021-05-01T13:57:29Z</time><name>PT3412</name></trkpt>
<trkpt lat="52.046653" lon="05.736707"><ele>24.4</ele><time>2021-05-01T13:57:31Z</time><name>PT3413</name></trkpt>
<trkpt lat="52.046652" lon="05.736740"><ele>24.3</ele><time>2021-05-01T13:57:31Z</time><name>PT3414</name></trkpt>
<trkpt lat="52.046644" lon="05.736758"><ele>24.5</ele><time>2021-05-01T13:57:33Z</time><name>PT3415</name></trkpt>
<trkpt lat="52.046641" lon="05.736779"><ele>24.6</ele><time>2021-05-01T13:57:33Z</time><name>PT3416</name></trkpt>
<trkpt lat="52.046638" lon="05.736795"><ele>24.8</ele><time>2021-05-01T13:57:35Z</time><name>PT3417</name></trkpt>
<trkpt lat="52.046635" lon="05.736809"><ele>25</ele><time>2021-05-01T13:57:35Z</time><name>PT3418</name></trkpt>
<trkpt lat="52.046634" lon="05.736830"><ele>25.3</ele><time>2021-05-01T13:57:37Z</time><name>PT3419</name></trkpt>
<trkpt lat="52.046629" lon="05.736847"><ele>25.1</ele><time>2021-05-01T13:57:37Z</time><name>PT3420</name></trkpt>
<trkpt lat="52.046633" lon="05.736864"><ele>25</ele><time>2021-05-01T13:57:39Z</time><name>PT3421</name></trkpt>
<trkpt lat="52.046634" lon="05.736883"><ele>24.9</ele><time>2021-05-01T13:57:39Z</time><name>PT3422</name></trkpt>
<trkpt lat="52.046635" lon="05.736900"><ele>24.8</ele><time>2021-05-01T13:57:41Z</time><name>PT3423</name></trkpt>
<trkpt lat="52.046637" lon="05.736926"><ele>24.6</ele><time>2021-05-01T13:57:41Z</time><name>PT3424</name></trkpt>
<trkpt lat="52.046640" lon="05.736942"><ele>24.7</ele><time>2021-05-01T13:57:43Z</time><name>PT3425</name></trkpt>
<trkpt lat="52.046639" lon="05.736959"><ele>24.7</ele><time>2021-05-01T13:57:43Z</time><name>PT3426</name></trkpt>
<trkpt lat="52.046641" lon="05.736977"><ele>24.8</ele><time>2021-05-01T13:57:45Z</time><name>PT3427</name></trkpt>
<trkpt lat="52.046641" lon="05.736996"><ele>24.7</ele><time>2021-05-01T13:57:45Z</time><name>PT3428</name></trkpt>
<trkpt lat="52.046641" lon="05.737009"><ele>24.7</ele><time>2021-05-01T13:57:47Z</time><name>PT3429</name></trkpt>
<trkpt lat="52.046640" lon="05.737024"><ele>24.6</ele><time>2021-05-01T13:57:47Z</time><name>PT3430</name></trkpt>
<trkpt lat="52.046638" lon="05.737029"><ele>24.5</ele><time>2021-05-01T13:57:49Z</time><name>PT3431</name></trkpt>
<trkpt lat="52.046635" lon="05.737031"><ele>24.4</ele><time>2021-05-01T13:57:49Z</time><name>PT3432</name></trkpt>
<trkpt lat="52.046634" lon="05.737033"><ele>24.3</ele><time>2021-05-01T13:57:51Z</time><name>PT3433</name></trkpt>
<trkpt lat="52.046633" lon="05.737036"><ele>24.3</ele><time>2021-05-01T13:57:51Z</time><name>PT3434</name></trkpt>
<trkpt lat="52.046636" lon="05.737056"><ele>24.3</ele><time>2021-05-01T13:57:53Z</time><name>PT3435</name></trkpt>
<trkpt lat="52.046640" lon="05.737079"><ele>24.2</ele><time>2021-05-01T13:57:53Z</time><name>PT3436</name></trkpt>
<trkpt lat="52.046646" lon="05.737110"><ele>24.3</ele><time>2021-05-01T13:57:55Z</time><name>PT3437</name></trkpt>
<trkpt lat="52.046650" lon="05.737133"><ele>24.3</ele><time>2021-05-01T13:57:55Z</time><name>PT3438</name></trkpt>
<trkpt lat="52.046653" lon="05.737158"><ele>24.1</ele><time>2021-05-01T13:57:57Z</time><name>PT3439</name></trkpt>
<trkpt lat="52.046654" lon="05.737173"><ele>24.1</ele><time>2021-05-01T13:57:57Z</time><name>PT3440</name></trkpt>
<trkpt lat="52.046656" lon="05.737195"><ele>25.2</ele><time>2021-05-01T13:57:59Z</time><name>PT3441</name></trkpt>
<trkpt lat="52.046660" lon="05.737221"><ele>24.8</ele><time>2021-05-01T13:57:59Z</time><name>PT3442</name></trkpt>
<trkpt lat="52.046665" lon="05.737248"><ele>25.3</ele><time>2021-05-01T13:58:01Z</time><name>PT3443</name></trkpt>
<trkpt lat="52.046668" lon="05.737266"><ele>25.4</ele><time>2021-05-01T13:58:01Z</time><name>PT3444</name></trkpt>
<trkpt lat="52.046669" lon="05.737288"><ele>25</ele><time>2021-05-01T13:58:03Z</time><name>PT3445</name></trkpt>
<trkpt lat="52.046673" lon="05.737318"><ele>24.8</ele><time>2021-05-01T13:58:03Z</time><name>PT3446</name></trkpt>
<trkpt lat="52.046676" lon="05.737335"><ele>24.7</ele><time>2021-05-01T13:58:05Z</time><name>PT3447</name></trkpt>
<trkpt lat="52.046677" lon="05.737353"><ele>24.6</ele><time>2021-05-01T13:58:05Z</time><name>PT3448</name></trkpt>
<trkpt lat="52.046679" lon="05.737378"><ele>24.7</ele><time>2021-05-01T13:58:07Z</time><name>PT3449</name></trkpt>
<trkpt lat="52.046678" lon="05.737397"><ele>24.7</ele><time>2021-05-01T13:58:07Z</time><name>PT3450</name></trkpt>
<trkpt lat="52.046675" lon="05.737416"><ele>24.6</ele><time>2021-05-01T13:58:09Z</time><name>PT3451</name></trkpt>
<trkpt lat="52.046676" lon="05.737437"><ele>24.4</ele><time>2021-05-01T13:58:09Z</time><name>PT3452</name></trkpt>
<trkpt lat="52.046678" lon="05.737459"><ele>24.5</ele><time>2021-05-01T13:58:11Z</time><name>PT3453</name></trkpt>
<trkpt lat="52.046678" lon="05.737478"><ele>24.3</ele><time>2021-05-01T13:58:11Z</time><name>PT3454</name></trkpt>
<trkpt lat="52.046678" lon="05.737496"><ele>24.2</ele><time>2021-05-01T13:58:13Z</time><name>PT3455</name></trkpt>
<trkpt lat="52.046675" lon="05.737514"><ele>24.2</ele><time>2021-05-01T13:58:13Z</time><name>PT3456</name></trkpt>
<trkpt lat="52.046674" lon="05.737533"><ele>24.3</ele><time>2021-05-01T13:58:15Z</time><name>PT3457</name></trkpt>
<trkpt lat="52.046676" lon="05.737552"><ele>24.3</ele><time>2021-05-01T13:58:15Z</time><name>PT3458</name></trkpt>
<trkpt lat="52.046677" lon="05.737566"><ele>24.2</ele><time>2021-05-01T13:58:17Z</time><name>PT3459</name></trkpt>
<trkpt lat="52.046682" lon="05.737587"><ele>24.3</ele><time>2021-05-01T13:58:17Z</time><name>PT3460</name></trkpt>
<trkpt lat="52.046686" lon="05.737608"><ele>24.3</ele><time>2021-05-01T13:58:19Z</time><name>PT3461</name></trkpt>
<trkpt lat="52.046689" lon="05.737625"><ele>24</ele><time>2021-05-01T13:58:19Z</time><name>PT3462</name></trkpt>
<trkpt lat="52.046690" lon="05.737640"><ele>24.3</ele><time>2021-05-01T13:58:21Z</time><name>PT3463</name></trkpt>
<trkpt lat="52.046689" lon="05.737657"><ele>24.3</ele><time>2021-05-01T13:58:21Z</time><name>PT3464</name></trkpt>
<trkpt lat="52.046687" lon="05.737676"><ele>24.3</ele><time>2021-05-01T13:58:23Z</time><name>PT3465</name></trkpt>
<trkpt lat="52.046689" lon="05.737687"><ele>24.3</ele><time>2021-05-01T13:58:24Z</time><name>PT3466</name></trkpt>
<trkpt lat="52.046686" lon="05.737706"><ele>24.3</ele><time>2021-05-01T13:58:25Z</time><name>PT3467</name></trkpt>
<trkpt lat="52.046689" lon="05.737724"><ele>24.3</ele><time>2021-05-01T13:58:26Z</time><name>PT3468</name></trkpt>
<trkpt lat="52.046689" lon="05.737741"><ele>24.2</ele><time>2021-05-01T13:58:27Z</time><name>PT3469</name></trkpt>
<trkpt lat="52.046687" lon="05.737766"><ele>24.3</ele><time>2021-05-01T13:58:27Z</time><name>PT3470</name></trkpt>
<trkpt lat="52.046686" lon="05.737791"><ele>24.1</ele><time>2021-05-01T13:58:29Z</time><name>PT3471</name></trkpt>
<trkpt lat="52.046690" lon="05.737819"><ele>24.1</ele><time>2021-05-01T13:58:29Z</time><name>PT3472</name></trkpt>
<trkpt lat="52.046691" lon="05.737838"><ele>24</ele><time>2021-05-01T13:58:31Z</time><name>PT3473</name></trkpt>
<trkpt lat="52.046692" lon="05.737862"><ele>24.2</ele><time>2021-05-01T13:58:31Z</time><name>PT3474</name></trkpt>
<trkpt lat="52.046692" lon="05.737884"><ele>24.3</ele><time>2021-05-01T13:58:33Z</time><name>PT3475</name></trkpt>
<trkpt lat="52.046691" lon="05.737897"><ele>24.3</ele><time>2021-05-01T13:58:33Z</time><name>PT3476</name></trkpt>
<trkpt lat="52.046687" lon="05.737915"><ele>24.5</ele><time>2021-05-01T13:58:35Z</time><name>PT3477</name></trkpt>
<trkpt lat="52.046686" lon="05.737931"><ele>24.5</ele><time>2021-05-01T13:58:35Z</time><name>PT3478</name></trkpt>
<trkpt lat="52.046685" lon="05.737952"><ele>24.4</ele><time>2021-05-01T13:58:37Z</time><name>PT3479</name></trkpt>
<trkpt lat="52.046685" lon="05.737971"><ele>24.4</ele><time>2021-05-01T13:58:37Z</time><name>PT3480</name></trkpt>
<trkpt lat="52.046689" lon="05.737991"><ele>24.2</ele><time>2021-05-01T13:58:39Z</time><name>PT3481</name></trkpt>
<trkpt lat="52.046692" lon="05.738010"><ele>24.2</ele><time>2021-05-01T13:58:39Z</time><name>PT3482</name></trkpt>
<trkpt lat="52.046695" lon="05.738032"><ele>24.1</ele><time>2021-05-01T13:58:41Z</time><name>PT3483</name></trkpt>
<trkpt lat="52.046695" lon="05.738054"><ele>24.1</ele><time>2021-05-01T13:58:41Z</time><name>PT3484</name></trkpt>
<trkpt lat="52.046698" lon="05.738075"><ele>24.1</ele><time>2021-05-01T13:58:43Z</time><name>PT3485</name></trkpt>
<trkpt lat="52.046698" lon="05.738096"><ele>24.1</ele><time>2021-05-01T13:58:43Z</time><name>PT3486</name></trkpt>
<trkpt lat="52.046698" lon="05.738112"><ele>24</ele><time>2021-05-01T13:58:45Z</time><name>PT3487</name></trkpt>
<trkpt lat="52.046698" lon="05.738128"><ele>24</ele><time>2021-05-01T13:58:45Z</time><name>PT3488</name></trkpt>
<trkpt lat="52.046702" lon="05.738133"><ele>23.9</ele><time>2021-05-01T13:58:47Z</time><name>PT3489</name></trkpt>
<trkpt lat="52.046705" lon="05.738147"><ele>23.9</ele><time>2021-05-01T13:58:47Z</time><name>PT3490</name></trkpt>
<trkpt lat="52.046708" lon="05.738166"><ele>24</ele><time>2021-05-01T13:58:49Z</time><name>PT3491</name></trkpt>
<trkpt lat="52.046711" lon="05.738184"><ele>24</ele><time>2021-05-01T13:58:49Z</time><name>PT3492</name></trkpt>
<trkpt lat="52.046711" lon="05.738205"><ele>23.9</ele><time>2021-05-01T13:58:51Z</time><name>PT3493</name></trkpt>
<trkpt lat="52.046711" lon="05.738226"><ele>23.9</ele><time>2021-05-01T13:58:51Z</time><name>PT3494</name></trkpt>
<trkpt lat="52.046711" lon="05.738249"><ele>23.9</ele><time>2021-05-01T13:58:53Z</time><name>PT3495</name></trkpt>
<trkpt lat="52.046709" lon="05.738270"><ele>23.9</ele><time>2021-05-01T13:58:53Z</time><name>PT3496</name></trkpt>
<trkpt lat="52.046706" lon="05.738288"><ele>24</ele><time>2021-05-01T13:58:55Z</time><name>PT3497</name></trkpt>
<trkpt lat="52.046705" lon="05.738307"><ele>24.1</ele><time>2021-05-01T13:58:55Z</time><name>PT3498</name></trkpt>
<trkpt lat="52.046704" lon="05.738327"><ele>24.3</ele><time>2021-05-01T13:58:57Z</time><name>PT3499</name></trkpt>
<trkpt lat="52.046705" lon="05.738347"><ele>24.3</ele><time>2021-05-01T13:58:57Z</time><name>PT3500</name></trkpt>
<trkpt lat="52.046706" lon="05.738365"><ele>24.2</ele><time>2021-05-01T13:58:59Z</time><name>PT3501</name></trkpt>
<trkpt lat="52.046709" lon="05.738385"><ele>24.2</ele><time>2021-05-01T13:58:59Z</time><name>PT3502</name></trkpt>
<trkpt lat="52.046711" lon="05.738402"><ele>24</ele><time>2021-05-01T13:59:01Z</time><name>PT3503</name></trkpt>
<trkpt lat="52.046710" lon="05.738418"><ele>24</ele><time>2021-05-01T13:59:01Z</time><name>PT3504</name></trkpt>
<trkpt lat="52.046711" lon="05.738436"><ele>24</ele><time>2021-05-01T13:59:03Z</time><name>PT3505</name></trkpt>
<trkpt lat="52.046710" lon="05.738453"><ele>24</ele><time>2021-05-01T13:59:03Z</time><name>PT3506</name></trkpt>
<trkpt lat="52.046713" lon="05.738471"><ele>23.8</ele><time>2021-05-01T13:59:05Z</time><name>PT3507</name></trkpt>
<trkpt lat="52.046712" lon="05.738488"><ele>23.8</ele><time>2021-05-01T13:59:05Z</time><name>PT3508</name></trkpt>
<trkpt lat="52.046714" lon="05.738508"><ele>23.9</ele><time>2021-05-01T13:59:07Z</time><name>PT3509</name></trkpt>
<trkpt lat="52.046714" lon="05.738525"><ele>23.9</ele><time>2021-05-01T13:59:07Z</time><name>PT3510</name></trkpt>
<trkpt lat="52.046715" lon="05.738544"><ele>23.8</ele><time>2021-05-01T13:59:09Z</time><name>PT3511</name></trkpt>
<trkpt lat="52.046714" lon="05.738566"><ele>23.8</ele><time>2021-05-01T13:59:09Z</time><name>PT3512</name></trkpt>
<trkpt lat="52.046714" lon="05.738588"><ele>23.9</ele><time>2021-05-01T13:59:11Z</time><name>PT3513</name></trkpt>
<trkpt lat="52.046716" lon="05.738605"><ele>23.7</ele><time>2021-05-01T13:59:11Z</time><name>PT3514</name></trkpt>
<trkpt lat="52.046717" lon="05.738615"><ele>23.5</ele><time>2021-05-01T13:59:13Z</time><name>PT3515</name></trkpt>
<trkpt lat="52.046718" lon="05.738634"><ele>23.5</ele><time>2021-05-01T13:59:13Z</time><name>PT3516</name></trkpt>
<trkpt lat="52.046718" lon="05.738651"><ele>23.4</ele><time>2021-05-01T13:59:15Z</time><name>PT3517</name></trkpt>
<trkpt lat="52.046719" lon="05.738671"><ele>23.4</ele><time>2021-05-01T13:59:15Z</time><name>PT3518</name></trkpt>
<trkpt lat="52.046724" lon="05.738694"><ele>23.4</ele><time>2021-05-01T13:59:17Z</time><name>PT3519</name></trkpt>
<trkpt lat="52.046728" lon="05.738717"><ele>23.4</ele><time>2021-05-01T13:59:17Z</time><name>PT3520</name></trkpt>
<trkpt lat="52.046733" lon="05.738738"><ele>23.4</ele><time>2021-05-01T13:59:19Z</time><name>PT3521</name></trkpt>
<trkpt lat="52.046737" lon="05.738760"><ele>23.3</ele><time>2021-05-01T13:59:19Z</time><name>PT3522</name></trkpt>
<trkpt lat="52.046738" lon="05.738777"><ele>23.3</ele><time>2021-05-01T13:59:21Z</time><name>PT3523</name></trkpt>
<trkpt lat="52.046739" lon="05.738794"><ele>23.3</ele><time>2021-05-01T13:59:21Z</time><name>PT3524</name></trkpt>
<trkpt lat="52.046740" lon="05.738812"><ele>23.3</ele><time>2021-05-01T13:59:23Z</time><name>PT3525</name></trkpt>
<trkpt lat="52.046740" lon="05.738828"><ele>23.4</ele><time>2021-05-01T13:59:23Z</time><name>PT3526</name></trkpt>
<trkpt lat="52.046742" lon="05.738851"><ele>23.4</ele><time>2021-05-01T13:59:25Z</time><name>PT3527</name></trkpt>
<trkpt lat="52.046744" lon="05.738873"><ele>23.3</ele><time>2021-05-01T13:59:25Z</time><name>PT3528</name></trkpt>
<trkpt lat="52.046747" lon="05.738891"><ele>23.4</ele><time>2021-05-01T13:59:27Z</time><name>PT3529</name></trkpt>
<trkpt lat="52.046752" lon="05.738913"><ele>23.5</ele><time>2021-05-01T13:59:27Z</time><name>PT3530</name></trkpt>
<trkpt lat="52.046756" lon="05.738934"><ele>23.3</ele><time>2021-05-01T13:59:29Z</time><name>PT3531</name></trkpt>
<trkpt lat="52.046763" lon="05.738957"><ele>23.3</ele><time>2021-05-01T13:59:29Z</time><name>PT3532</name></trkpt>
<trkpt lat="52.046768" lon="05.738978"><ele>23.3</ele><time>2021-05-01T13:59:31Z</time><name>PT3533</name></trkpt>
<trkpt lat="52.046771" lon="05.738996"><ele>23.3</ele><time>2021-05-01T13:59:31Z</time><name>PT3534</name></trkpt>
<trkpt lat="52.046772" lon="05.739013"><ele>23.2</ele><time>2021-05-01T13:59:33Z</time><name>PT3535</name></trkpt>
<trkpt lat="52.046773" lon="05.739030"><ele>23.2</ele><time>2021-05-01T13:59:33Z</time><name>PT3536</name></trkpt>
<trkpt lat="52.046773" lon="05.739049"><ele>23.3</ele><time>2021-05-01T13:59:35Z</time><name>PT3537</name></trkpt>
<trkpt lat="52.046777" lon="05.739066"><ele>23.3</ele><time>2021-05-01T13:59:35Z</time><name>PT3538</name></trkpt>
<trkpt lat="52.046780" lon="05.739081"><ele>23.3</ele><time>2021-05-01T13:59:37Z</time><name>PT3539</name></trkpt>
<trkpt lat="52.046784" lon="05.739099"><ele>23.3</ele><time>2021-05-01T13:59:37Z</time><name>PT3540</name></trkpt>
<trkpt lat="52.046787" lon="05.739120"><ele>23.3</ele><time>2021-05-01T13:59:39Z</time><name>PT3541</name></trkpt>
<trkpt lat="52.046792" lon="05.739142"><ele>23.3</ele><time>2021-05-01T13:59:40Z</time><name>PT3542</name></trkpt>
<trkpt lat="52.046799" lon="05.739164"><ele>23.1</ele><time>2021-05-01T13:59:41Z</time><name>PT3543</name></trkpt>
<trkpt lat="52.046803" lon="05.739183"><ele>23.2</ele><time>2021-05-01T13:59:41Z</time><name>PT3544</name></trkpt>
<trkpt lat="52.046805" lon="05.739200"><ele>23.1</ele><time>2021-05-01T13:59:43Z</time><name>PT3545</name></trkpt>
<trkpt lat="52.046808" lon="05.739217"><ele>23.2</ele><time>2021-05-01T13:59:43Z</time><name>PT3546</name></trkpt>
<trkpt lat="52.046813" lon="05.739236"><ele>23.1</ele><time>2021-05-01T13:59:45Z</time><name>PT3547</name></trkpt>
<trkpt lat="52.046814" lon="05.739256"><ele>23.2</ele><time>2021-05-01T13:59:45Z</time><name>PT3548</name></trkpt>
<trkpt lat="52.046817" lon="05.739275"><ele>23.3</ele><time>2021-05-01T13:59:47Z</time><name>PT3549</name></trkpt>
<trkpt lat="52.046820" lon="05.739292"><ele>23.3</ele><time>2021-05-01T13:59:47Z</time><name>PT3550</name></trkpt>
<trkpt lat="52.046822" lon="05.739310"><ele>23.3</ele><time>2021-05-01T13:59:49Z</time><name>PT3551</name></trkpt>
<trkpt lat="52.046826" lon="05.739329"><ele>23.3</ele><time>2021-05-01T13:59:49Z</time><name>PT3552</name></trkpt>
<trkpt lat="52.046829" lon="05.739350"><ele>23.3</ele><time>2021-05-01T13:59:51Z</time><name>PT3553</name></trkpt>
<trkpt lat="52.046832" lon="05.739371"><ele>23.1</ele><time>2021-05-01T13:59:51Z</time><name>PT3554</name></trkpt>
<trkpt lat="52.046833" lon="05.739389"><ele>23.1</ele><time>2021-05-01T13:59:53Z</time><name>PT3555</name></trkpt>
<trkpt lat="52.046831" lon="05.739408"><ele>23.2</ele><time>2021-05-01T13:59:53Z</time><name>PT3556</name></trkpt>
<trkpt lat="52.046828" lon="05.739423"><ele>23.2</ele><time>2021-05-01T13:59:55Z</time><name>PT3557</name></trkpt>
<trkpt lat="52.046831" lon="05.739439"><ele>23.2</ele><time>2021-05-01T13:59:55Z</time><name>PT3558</name></trkpt>
<trkpt lat="52.046831" lon="05.739459"><ele>23.2</ele><time>2021-05-01T13:59:57Z</time><name>PT3559</name></trkpt>
<trkpt lat="52.046833" lon="05.739476"><ele>23.2</ele><time>2021-05-01T13:59:57Z</time><name>PT3560</name></trkpt>
<trkpt lat="52.046836" lon="05.739491"><ele>22.9</ele><time>2021-05-01T13:59:59Z</time><name>PT3561</name></trkpt>
<trkpt lat="52.046836" lon="05.739508"><ele>22.9</ele><time>2021-05-01T13:59:59Z</time><name>PT3562</name></trkpt>
<trkpt lat="52.046834" lon="05.739526"><ele>22.9</ele><time>2021-05-01T14:00:01Z</time><name>PT3563</name></trkpt>
<trkpt lat="52.046833" lon="05.739543"><ele>22.8</ele><time>2021-05-01T14:00:02Z</time><name>PT3564</name></trkpt>
<trkpt lat="52.046835" lon="05.739563"><ele>23</ele><time>2021-05-01T14:00:03Z</time><name>PT3565</name></trkpt>
<trkpt lat="52.046835" lon="05.739579"><ele>23.1</ele><time>2021-05-01T14:00:03Z</time><name>PT3566</name></trkpt>
<trkpt lat="52.046835" lon="05.739597"><ele>23</ele><time>2021-05-01T14:00:05Z</time><name>PT3567</name></trkpt>
<trkpt lat="52.046834" lon="05.739613"><ele>22.9</ele><time>2021-05-01T14:00:05Z</time><name>PT3568</name></trkpt>
<trkpt lat="52.046835" lon="05.739634"><ele>22.9</ele><time>2021-05-01T14:00:07Z</time><name>PT3569</name></trkpt>
<trkpt lat="52.046836" lon="05.739654"><ele>22.9</ele><time>2021-05-01T14:00:07Z</time><name>PT3570</name></trkpt>
<trkpt lat="52.046838" lon="05.739673"><ele>22.9</ele><time>2021-05-01T14:00:09Z</time><name>PT3571</name></trkpt>
<trkpt lat="52.046840" lon="05.739695"><ele>22.8</ele><time>2021-05-01T14:00:09Z</time><name>PT3572</name></trkpt>
<trkpt lat="52.046840" lon="05.739717"><ele>23</ele><time>2021-05-01T14:00:11Z</time><name>PT3573</name></trkpt>
<trkpt lat="52.046842" lon="05.739735"><ele>23</ele><time>2021-05-01T14:00:11Z</time><name>PT3574</name></trkpt>
<trkpt lat="52.046840" lon="05.739754"><ele>23</ele><time>2021-05-01T14:00:13Z</time><name>PT3575</name></trkpt>
<trkpt lat="52.046839" lon="05.739768"><ele>23</ele><time>2021-05-01T14:00:13Z</time><name>PT3576</name></trkpt>
<trkpt lat="52.046839" lon="05.739785"><ele>22.9</ele><time>2021-05-01T14:00:15Z</time><name>PT3577</name></trkpt>
<trkpt lat="52.046839" lon="05.739803"><ele>22.8</ele><time>2021-05-01T14:00:15Z</time><name>PT3578</name></trkpt>
<trkpt lat="52.046840" lon="05.739823"><ele>22.8</ele><time>2021-05-01T14:00:17Z</time><name>PT3579</name></trkpt>
<trkpt lat="52.046843" lon="05.739841"><ele>22.8</ele><time>2021-05-01T14:00:17Z</time><name>PT3580</name></trkpt>
<trkpt lat="52.046846" lon="05.739860"><ele>22.8</ele><time>2021-05-01T14:00:19Z</time><name>PT3581</name></trkpt>
<trkpt lat="52.046849" lon="05.739878"><ele>22.8</ele><time>2021-05-01T14:00:19Z</time><name>PT3582</name></trkpt>
<trkpt lat="52.046853" lon="05.739896"><ele>22.8</ele><time>2021-05-01T14:00:21Z</time><name>PT3583</name></trkpt>
<trkpt lat="52.046854" lon="05.739914"><ele>22.8</ele><time>2021-05-01T14:00:21Z</time><name>PT3584</name></trkpt>
<trkpt lat="52.046855" lon="05.739933"><ele>23</ele><time>2021-05-01T14:00:23Z</time><name>PT3585</name></trkpt>
<trkpt lat="52.046856" lon="05.739951"><ele>23.1</ele><time>2021-05-01T14:00:23Z</time><name>PT3586</name></trkpt>
<trkpt lat="52.046855" lon="05.739971"><ele>23.1</ele><time>2021-05-01T14:00:25Z</time><name>PT3587</name></trkpt>
<trkpt lat="52.046854" lon="05.739990"><ele>23.1</ele><time>2021-05-01T14:00:25Z</time><name>PT3588</name></trkpt>
<trkpt lat="52.046856" lon="05.740007"><ele>23</ele><time>2021-05-01T14:00:27Z</time><name>PT3589</name></trkpt>
<trkpt lat="52.046856" lon="05.740026"><ele>23</ele><time>2021-05-01T14:00:27Z</time><name>PT3590</name></trkpt>
<trkpt lat="52.046859" lon="05.740043"><ele>22.9</ele><time>2021-05-01T14:00:29Z</time><name>PT3591</name></trkpt>
<trkpt lat="52.046861" lon="05.740061"><ele>23</ele><time>2021-05-01T14:00:29Z</time><name>PT3592</name></trkpt>
<trkpt lat="52.046863" lon="05.740079"><ele>23</ele><time>2021-05-01T14:00:31Z</time><name>PT3593</name></trkpt>
<trkpt lat="52.046865" lon="05.740103"><ele>23</ele><time>2021-05-01T14:00:31Z</time><name>PT3594</name></trkpt>
<trkpt lat="52.046868" lon="05.740126"><ele>23.1</ele><time>2021-05-01T14:00:33Z</time><name>PT3595</name></trkpt>
<trkpt lat="52.046870" lon="05.740145"><ele>23.1</ele><time>2021-05-01T14:00:33Z</time><name>PT3596</name></trkpt>
<trkpt lat="52.046870" lon="05.740159"><ele>22.9</ele><time>2021-05-01T14:00:35Z</time><name>PT3597</name></trkpt>
<trkpt lat="52.046873" lon="05.740172"><ele>22.9</ele><time>2021-05-01T14:00:35Z</time><name>PT3598</name></trkpt>
<trkpt lat="52.046873" lon="05.740189"><ele>23</ele><time>2021-05-01T14:00:37Z</time><name>PT3599</name></trkpt>
<trkpt lat="52.046874" lon="05.740209"><ele>22.9</ele><time>2021-05-01T14:00:37Z</time><name>PT3600</name></trkpt>
<trkpt lat="52.046877" lon="05.740224"><ele>23</ele><time>2021-05-01T14:00:39Z</time><name>PT3601</name></trkpt>
<trkpt lat="52.046876" lon="05.740241"><ele>23.1</ele><time>2021-05-01T14:00:39Z</time><name>PT3602</name></trkpt>
<trkpt lat="52.046878" lon="05.740254"><ele>22.9</ele><time>2021-05-01T14:00:41Z</time><name>PT3603</name></trkpt>
<trkpt lat="52.046878" lon="05.740270"><ele>23</ele><time>2021-05-01T14:00:41Z</time><name>PT3604</name></trkpt>
<trkpt lat="52.046876" lon="05.740283"><ele>23.1</ele><time>2021-05-01T14:00:43Z</time><name>PT3605</name></trkpt>
<trkpt lat="52.046871" lon="05.740297"><ele>23.2</ele><time>2021-05-01T14:00:43Z</time><name>PT3606</name></trkpt>
<trkpt lat="52.046868" lon="05.740310"><ele>23.1</ele><time>2021-05-01T14:00:45Z</time><name>PT3607</name></trkpt>
<trkpt lat="52.046864" lon="05.740324"><ele>23.1</ele><time>2021-05-01T14:00:45Z</time><name>PT3608</name></trkpt>
<trkpt lat="52.046858" lon="05.740342"><ele>23.1</ele><time>2021-05-01T14:00:47Z</time><name>PT3609</name></trkpt>
<trkpt lat="52.046854" lon="05.740354"><ele>23.1</ele><time>2021-05-01T14:00:47Z</time><name>PT3610</name></trkpt>
<trkpt lat="52.046848" lon="05.740363"><ele>23.1</ele><time>2021-05-01T14:00:49Z</time><name>PT3611</name></trkpt>
<trkpt lat="52.046842" lon="05.740374"><ele>23.2</ele><time>2021-05-01T14:00:49Z</time><name>PT3612</name></trkpt>
<trkpt lat="52.046835" lon="05.740385"><ele>23.2</ele><time>2021-05-01T14:00:51Z</time><name>PT3613</name></trkpt>
<trkpt lat="52.046827" lon="05.740392"><ele>23.3</ele><time>2021-05-01T14:00:51Z</time><name>PT3614</name></trkpt>
<trkpt lat="52.046819" lon="05.740401"><ele>23.1</ele><time>2021-05-01T14:00:53Z</time><name>PT3615</name></trkpt>
<trkpt lat="52.046811" lon="05.740412"><ele>23</ele><time>2021-05-01T14:00:53Z</time><name>PT3616</name></trkpt>
<trkpt lat="52.046801" lon="05.740423"><ele>22.9</ele><time>2021-05-01T14:00:55Z</time><name>PT3617</name></trkpt>
<trkpt lat="52.046793" lon="05.740427"><ele>22.8</ele><time>2021-05-01T14:00:55Z</time><name>PT3618</name></trkpt>
<trkpt lat="52.046786" lon="05.740431"><ele>22.7</ele><time>2021-05-01T14:00:57Z</time><name>PT3619</name></trkpt>
<trkpt lat="52.046778" lon="05.740438"><ele>22.7</ele><time>2021-05-01T14:00:57Z</time><name>PT3620</name></trkpt>
<trkpt lat="52.046770" lon="05.740448"><ele>22.7</ele><time>2021-05-01T14:00:59Z</time><name>PT3621</name></trkpt>
<trkpt lat="52.046762" lon="05.740457"><ele>22.7</ele><time>2021-05-01T14:00:59Z</time><name>PT3622</name></trkpt>
<trkpt lat="52.046752" lon="05.740467"><ele>22.8</ele><time>2021-05-01T14:01:00Z</time><name>PT3623</name></trkpt>
<trkpt lat="52.046744" lon="05.740477"><ele>22.8</ele><time>2021-05-01T14:01:01Z</time><name>PT3624</name></trkpt>
<trkpt lat="52.046735" lon="05.740487"><ele>22.9</ele><time>2021-05-01T14:01:03Z</time><name>PT3625</name></trkpt>
<trkpt lat="52.046725" lon="05.740494"><ele>23</ele><time>2021-05-01T14:01:03Z</time><name>PT3626</name></trkpt>
<trkpt lat="52.046715" lon="05.740498"><ele>23</ele><time>2021-05-01T14:01:05Z</time><name>PT3627</name></trkpt>
<trkpt lat="52.046706" lon="05.740502"><ele>22.8</ele><time>2021-05-01T14:01:05Z</time><name>PT3628</name></trkpt>
<trkpt lat="52.046697" lon="05.740510"><ele>22.9</ele><time>2021-05-01T14:01:07Z</time><name>PT3629</name></trkpt>
<trkpt lat="52.046687" lon="05.740514"><ele>22.8</ele><time>2021-05-01T14:01:07Z</time><name>PT3630</name></trkpt>
<trkpt lat="52.046678" lon="05.740521"><ele>22.8</ele><time>2021-05-01T14:01:09Z</time><name>PT3631</name></trkpt>
<trkpt lat="52.046667" lon="05.740529"><ele>22.9</ele><time>2021-05-01T14:01:09Z</time><name>PT3632</name></trkpt>
<trkpt lat="52.046658" lon="05.740537"><ele>22.9</ele><time>2021-05-01T14:01:11Z</time><name>PT3633</name></trkpt>
<trkpt lat="52.046648" lon="05.740545"><ele>22.8</ele><time>2021-05-01T14:01:11Z</time><name>PT3634</name></trkpt>
<trkpt lat="52.046637" lon="05.740556"><ele>22.8</ele><time>2021-05-01T14:01:13Z</time><name>PT3635</name></trkpt>
<trkpt lat="52.046627" lon="05.740565"><ele>22.8</ele><time>2021-05-01T14:01:13Z</time><name>PT3636</name></trkpt>
<trkpt lat="52.046616" lon="05.740571"><ele>22.8</ele><time>2021-05-01T14:01:15Z</time><name>PT3637</name></trkpt>
<trkpt lat="52.046603" lon="05.740579"><ele>22.8</ele><time>2021-05-01T14:01:15Z</time><name>PT3638</name></trkpt>
<trkpt lat="52.046592" lon="05.740583"><ele>22.8</ele><time>2021-05-01T14:01:17Z</time><name>PT3639</name></trkpt>
<trkpt lat="52.046581" lon="05.740589"><ele>22.8</ele><time>2021-05-01T14:01:17Z</time><name>PT3640</name></trkpt>
<trkpt lat="52.046570" lon="05.740594"><ele>22.9</ele><time>2021-05-01T14:01:19Z</time><name>PT3641</name></trkpt>
<trkpt lat="52.046560" lon="05.740598"><ele>22.9</ele><time>2021-05-01T14:01:20Z</time><name>PT3642</name></trkpt>
<trkpt lat="52.046551" lon="05.740606"><ele>22.9</ele><time>2021-05-01T14:01:21Z</time><name>PT3643</name></trkpt>
<trkpt lat="52.046541" lon="05.740618"><ele>22.9</ele><time>2021-05-01T14:01:21Z</time><name>PT3644</name></trkpt>
<trkpt lat="52.046531" lon="05.740629"><ele>22.8</ele><time>2021-05-01T14:01:23Z</time><name>PT3645</name></trkpt>
<trkpt lat="52.046521" lon="05.740642"><ele>22.8</ele><time>2021-05-01T14:01:23Z</time><name>PT3646</name></trkpt>
<trkpt lat="52.046512" lon="05.740654"><ele>22.8</ele><time>2021-05-01T14:01:25Z</time><name>PT3647</name></trkpt>
<trkpt lat="52.046506" lon="05.740667"><ele>22.8</ele><time>2021-05-01T14:01:25Z</time><name>PT3648</name></trkpt>
<trkpt lat="52.046502" lon="05.740675"><ele>22.6</ele><time>2021-05-01T14:01:27Z</time><name>PT3649</name></trkpt>
<trkpt lat="52.046502" lon="05.740677"><ele>22.6</ele><time>2021-05-01T14:01:27Z</time><name>PT3650</name></trkpt>
<trkpt lat="52.046502" lon="05.740676"><ele>22.8</ele><time>2021-05-01T14:01:29Z</time><name>PT3651</name></trkpt>
<trkpt lat="52.046500" lon="05.740674"><ele>23</ele><time>2021-05-01T14:01:39Z</time><name>PT3652</name></trkpt>
<trkpt lat="52.046491" lon="05.740677"><ele>22.9</ele><time>2021-05-01T14:01:41Z</time><name>PT3653</name></trkpt>
<trkpt lat="52.046482" lon="05.740679"><ele>22.9</ele><time>2021-05-01T14:01:41Z</time><name>PT3654</name></trkpt>
<trkpt lat="52.046472" lon="05.740678"><ele>22.8</ele><time>2021-05-01T14:01:43Z</time><name>PT3655</name></trkpt>
<trkpt lat="52.046461" lon="05.740680"><ele>22.9</ele><time>2021-05-01T14:01:43Z</time><name>PT3656</name></trkpt>
<trkpt lat="52.046452" lon="05.740680"><ele>22.9</ele><time>2021-05-01T14:01:45Z</time><name>PT3657</name></trkpt>
<trkpt lat="52.046434" lon="05.740685"><ele>22.9</ele><time>2021-05-01T14:01:45Z</time><name>PT3658</name></trkpt>
<trkpt lat="52.046419" lon="05.740696"><ele>22.9</ele><time>2021-05-01T14:01:47Z</time><name>PT3659</name></trkpt>
<trkpt lat="52.046401" lon="05.740706"><ele>22.9</ele><time>2021-05-01T14:01:47Z</time><name>PT3660</name></trkpt>
<trkpt lat="52.046383" lon="05.740711"><ele>23</ele><time>2021-05-01T14:01:49Z</time><name>PT3661</name></trkpt>
<trkpt lat="52.046370" lon="05.740715"><ele>23.1</ele><time>2021-05-01T14:01:49Z</time><name>PT3662</name></trkpt>
<trkpt lat="52.046367" lon="05.740723"><ele>22.9</ele><time>2021-05-01T14:01:51Z</time><name>PT3663</name></trkpt>
<trkpt lat="52.046367" lon="05.740718"><ele>22.8</ele><time>2021-05-01T14:01:51Z</time><name>PT3664</name></trkpt>
<trkpt lat="52.046364" lon="05.740714"><ele>22.8</ele><time>2021-05-01T14:01:53Z</time><name>PT3665</name></trkpt>
<trkpt lat="52.046359" lon="05.740724"><ele>22.7</ele><time>2021-05-01T14:01:53Z</time><name>PT3666</name></trkpt>
<trkpt lat="52.046350" lon="05.740741"><ele>22.6</ele><time>2021-05-01T14:01:55Z</time><name>PT3667</name></trkpt>
<trkpt lat="52.046330" lon="05.740758"><ele>22.7</ele><time>2021-05-01T14:01:55Z</time><name>PT3668</name></trkpt>
<trkpt lat="52.046310" lon="05.740773"><ele>22.8</ele><time>2021-05-01T14:01:57Z</time><name>PT3669</name></trkpt>
<trkpt lat="52.046297" lon="05.740783"><ele>22.9</ele><time>2021-05-01T14:01:57Z</time><name>PT3670</name></trkpt>
<trkpt lat="52.046291" lon="05.740790"><ele>23</ele><time>2021-05-01T14:01:59Z</time><name>PT3671</name></trkpt>
<trkpt lat="52.046290" lon="05.740793"><ele>23</ele><time>2021-05-01T14:01:59Z</time><name>PT3672</name></trkpt>
<trkpt lat="52.046287" lon="05.740794"><ele>23.1</ele><time>2021-05-01T14:02:01Z</time><name>PT3673</name></trkpt>
<trkpt lat="52.046280" lon="05.740808"><ele>23.2</ele><time>2021-05-01T14:02:01Z</time><name>PT3674</name></trkpt>
<trkpt lat="52.046266" lon="05.740816"><ele>23.1</ele><time>2021-05-01T14:02:03Z</time><name>PT3675</name></trkpt>
<trkpt lat="52.046253" lon="05.740825"><ele>23</ele><time>2021-05-01T14:02:03Z</time><name>PT3676</name></trkpt>
<trkpt lat="52.046235" lon="05.740836"><ele>22.9</ele><time>2021-05-01T14:02:05Z</time><name>PT3677</name></trkpt>
<trkpt lat="52.046216" lon="05.740855"><ele>22.8</ele><time>2021-05-01T14:02:05Z</time><name>PT3678</name></trkpt>
<trkpt lat="52.046201" lon="05.740863"><ele>22.7</ele><time>2021-05-01T14:02:07Z</time><name>PT3679</name></trkpt>
<trkpt lat="52.046189" lon="05.740875"><ele>22.7</ele><time>2021-05-01T14:02:07Z</time><name>PT3680</name></trkpt>
<trkpt lat="52.046183" lon="05.740880"><ele>22.6</ele><time>2021-05-01T14:02:09Z</time><name>PT3681</name></trkpt>
<trkpt lat="52.046183" lon="05.740881"><ele>22.7</ele><time>2021-05-01T14:02:09Z</time><name>PT3682</name></trkpt>
<trkpt lat="52.046182" lon="05.740882"><ele>22.7</ele><time>2021-05-01T14:02:11Z</time><name>PT3683</name></trkpt>
<trkpt lat="52.046178" lon="05.740884"><ele>22.7</ele><time>2021-05-01T14:02:11Z</time><name>PT3684</name></trkpt>
<trkpt lat="52.046168" lon="05.740895"><ele>22.7</ele><time>2021-05-01T14:02:13Z</time><name>PT3685</name></trkpt>
<trkpt lat="52.046148" lon="05.740913"><ele>22.8</ele><time>2021-05-01T14:02:13Z</time><name>PT3686</name></trkpt>
<trkpt lat="52.046129" lon="05.740927"><ele>22.8</ele><time>2021-05-01T14:02:15Z</time><name>PT3687</name></trkpt>
<trkpt lat="52.046110" lon="05.740942"><ele>22.8</ele><time>2021-05-01T14:02:15Z</time><name>PT3688</name></trkpt>
<trkpt lat="52.046091" lon="05.740954"><ele>22.9</ele><time>2021-05-01T14:02:16Z</time><name>PT3689</name></trkpt>
<trkpt lat="52.046085" lon="05.740961"><ele>23</ele><time>2021-05-01T14:02:17Z</time><name>PT3690</name></trkpt>
<trkpt lat="52.046087" lon="05.740960"><ele>22.8</ele><time>2021-05-01T14:02:19Z</time><name>PT3691</name></trkpt>
<trkpt lat="52.046087" lon="05.740966"><ele>22.8</ele><time>2021-05-01T14:02:19Z</time><name>PT3692</name></trkpt>
<trkpt lat="52.046082" lon="05.740970"><ele>22.8</ele><time>2021-05-01T14:02:21Z</time><name>PT3693</name></trkpt>
<trkpt lat="52.046072" lon="05.740977"><ele>22.8</ele><time>2021-05-01T14:02:22Z</time><name>PT3694</name></trkpt>
<trkpt lat="52.046057" lon="05.740982"><ele>22.8</ele><time>2021-05-01T14:02:23Z</time><name>PT3695</name></trkpt>
<trkpt lat="52.046036" lon="05.741000"><ele>22.8</ele><time>2021-05-01T14:02:23Z</time><name>PT3696</name></trkpt>
<trkpt lat="52.046025" lon="05.741012"><ele>22.9</ele><time>2021-05-01T14:02:25Z</time><name>PT3697</name></trkpt>
<trkpt lat="52.046018" lon="05.741019"><ele>23</ele><time>2021-05-01T14:02:25Z</time><name>PT3698</name></trkpt>
<trkpt lat="52.046009" lon="05.741025"><ele>23.1</ele><time>2021-05-01T14:02:27Z</time><name>PT3699</name></trkpt>
<trkpt lat="52.045998" lon="05.741034"><ele>23.1</ele><time>2021-05-01T14:02:27Z</time><name>PT3700</name></trkpt>
<trkpt lat="52.045988" lon="05.741040"><ele>23.3</ele><time>2021-05-01T14:02:29Z</time><name>PT3701</name></trkpt>
<trkpt lat="52.045978" lon="05.741048"><ele>23.3</ele><time>2021-05-01T14:02:29Z</time><name>PT3702</name></trkpt>
<trkpt lat="52.045967" lon="05.741053"><ele>23.2</ele><time>2021-05-01T14:02:31Z</time><name>PT3703</name></trkpt>
<trkpt lat="52.045960" lon="05.741058"><ele>23.2</ele><time>2021-05-01T14:02:31Z</time><name>PT3704</name></trkpt>
<trkpt lat="52.045956" lon="05.741059"><ele>23</ele><time>2021-05-01T14:02:33Z</time><name>PT3705</name></trkpt>
<trkpt lat="52.045952" lon="05.741064"><ele>22.8</ele><time>2021-05-01T14:02:33Z</time><name>PT3706</name></trkpt>
<trkpt lat="52.045941" lon="05.741073"><ele>22.6</ele><time>2021-05-01T14:02:35Z</time><name>PT3707</name></trkpt>
<trkpt lat="52.045924" lon="05.741085"><ele>22.8</ele><time>2021-05-01T14:02:35Z</time><name>PT3708</name></trkpt>
<trkpt lat="52.045899" lon="05.741089"><ele>22.9</ele><time>2021-05-01T14:02:37Z</time><name>PT3709</name></trkpt>
<trkpt lat="52.045885" lon="05.741096"><ele>23.1</ele><time>2021-05-01T14:02:37Z</time><name>PT3710</name></trkpt>
<trkpt lat="52.045874" lon="05.741104"><ele>23.3</ele><time>2021-05-01T14:02:39Z</time><name>PT3711</name></trkpt>
<trkpt lat="52.045863" lon="05.741108"><ele>23.5</ele><time>2021-05-01T14:02:39Z</time><name>PT3712</name></trkpt>
<trkpt lat="52.045852" lon="05.741115"><ele>23.3</ele><time>2021-05-01T14:02:41Z</time><name>PT3713</name></trkpt>
<trkpt lat="52.045841" lon="05.741120"><ele>23.3</ele><time>2021-05-01T14:02:41Z</time><name>PT3714</name></trkpt>
<trkpt lat="52.045833" lon="05.741121"><ele>23.3</ele><time>2021-05-01T14:02:43Z</time><name>PT3715</name></trkpt>
<trkpt lat="52.045826" lon="05.741128"><ele>23.3</ele><time>2021-05-01T14:02:43Z</time><name>PT3716</name></trkpt>
<trkpt lat="52.045809" lon="05.741129"><ele>23.2</ele><time>2021-05-01T14:02:45Z</time><name>PT3717</name></trkpt>
<trkpt lat="52.045793" lon="05.741138"><ele>23.1</ele><time>2021-05-01T14:02:45Z</time><name>PT3718</name></trkpt>
<trkpt lat="52.045768" lon="05.741126"><ele>23.1</ele><time>2021-05-01T14:02:47Z</time><name>PT3719</name></trkpt>
<trkpt lat="52.045747" lon="05.741126"><ele>23</ele><time>2021-05-01T14:02:47Z</time><name>PT3720</name></trkpt>
<trkpt lat="52.045735" lon="05.741131"><ele>22.8</ele><time>2021-05-01T14:02:49Z</time><name>PT3721</name></trkpt>
<trkpt lat="52.045728" lon="05.741136"><ele>22.8</ele><time>2021-05-01T14:02:49Z</time><name>PT3722</name></trkpt>
<trkpt lat="52.045724" lon="05.741142"><ele>22.8</ele><time>2021-05-01T14:02:51Z</time><name>PT3723</name></trkpt>
<trkpt lat="52.045721" lon="05.741147"><ele>22.8</ele><time>2021-05-01T14:02:51Z</time><name>PT3724</name></trkpt>
<trkpt lat="52.045719" lon="05.741151"><ele>22.8</ele><time>2021-05-01T14:02:53Z</time><name>PT3725</name></trkpt>
<trkpt lat="52.045709" lon="05.741166"><ele>22.8</ele><time>2021-05-01T14:02:53Z</time><name>PT3726</name></trkpt>
<trkpt lat="52.045689" lon="05.741182"><ele>22.8</ele><time>2021-05-01T14:02:55Z</time><name>PT3727</name></trkpt>
<trkpt lat="52.045665" lon="05.741199"><ele>22.8</ele><time>2021-05-01T14:02:55Z</time><name>PT3728</name></trkpt>
<trkpt lat="52.045651" lon="05.741216"><ele>22.8</ele><time>2021-05-01T14:02:57Z</time><name>PT3729</name></trkpt>
<trkpt lat="52.045641" lon="05.741226"><ele>22.8</ele><time>2021-05-01T14:02:57Z</time><name>PT3730</name></trkpt>
<trkpt lat="52.045638" lon="05.741230"><ele>23</ele><time>2021-05-01T14:02:59Z</time><name>PT3731</name></trkpt>
<trkpt lat="52.045636" lon="05.741236"><ele>22.8</ele><time>2021-05-01T14:02:59Z</time><name>PT3732</name></trkpt>
<trkpt lat="52.045632" lon="05.741245"><ele>22.8</ele><time>2021-05-01T14:03:01Z</time><name>PT3733</name></trkpt>
<trkpt lat="52.045623" lon="05.741257"><ele>22.7</ele><time>2021-05-01T14:03:01Z</time><name>PT3734</name></trkpt>
<trkpt lat="52.045609" lon="05.741278"><ele>22.7</ele><time>2021-05-01T14:03:03Z</time><name>PT3735</name></trkpt>
<trkpt lat="52.045596" lon="05.741292"><ele>22.8</ele><time>2021-05-01T14:03:03Z</time><name>PT3736</name></trkpt>
<trkpt lat="52.045583" lon="05.741300"><ele>22.8</ele><time>2021-05-01T14:03:05Z</time><name>PT3737</name></trkpt>
<trkpt lat="52.045571" lon="05.741309"><ele>23</ele><time>2021-05-01T14:03:05Z</time><name>PT3738</name></trkpt>
<trkpt lat="52.045562" lon="05.741320"><ele>23</ele><time>2021-05-01T14:03:07Z</time><name>PT3739</name></trkpt>
<trkpt lat="52.045558" lon="05.741337"><ele>22.9</ele><time>2021-05-01T14:03:07Z</time><name>PT3740</name></trkpt>
<trkpt lat="52.045553" lon="05.741350"><ele>22.8</ele><time>2021-05-01T14:03:09Z</time><name>PT3741</name></trkpt>
<trkpt lat="52.045547" lon="05.741362"><ele>22.9</ele><time>2021-05-01T14:03:09Z</time><name>PT3742</name></trkpt>
<trkpt lat="52.045539" lon="05.741368"><ele>22.9</ele><time>2021-05-01T14:03:11Z</time><name>PT3743</name></trkpt>
<trkpt lat="52.045530" lon="05.741372"><ele>22.9</ele><time>2021-05-01T14:03:11Z</time><name>PT3744</name></trkpt>
<trkpt lat="52.045516" lon="05.741390"><ele>23</ele><time>2021-05-01T14:03:13Z</time><name>PT3745</name></trkpt>
<trkpt lat="52.045498" lon="05.741406"><ele>23</ele><time>2021-05-01T14:03:13Z</time><name>PT3746</name></trkpt>
<trkpt lat="52.045481" lon="05.741416"><ele>23.2</ele><time>2021-05-01T14:03:15Z</time><name>PT3747</name></trkpt>
<trkpt lat="52.045471" lon="05.741423"><ele>23.1</ele><time>2021-05-01T14:03:15Z</time><name>PT3748</name></trkpt>
<trkpt lat="52.045462" lon="05.741424"><ele>23.2</ele><time>2021-05-01T14:03:17Z</time><name>PT3749</name></trkpt>
<trkpt lat="52.045451" lon="05.741431"><ele>23.3</ele><time>2021-05-01T14:03:17Z</time><name>PT3750</name></trkpt>
<trkpt lat="52.045445" lon="05.741429"><ele>23.2</ele><time>2021-05-01T14:03:19Z</time><name>PT3751</name></trkpt>
<trkpt lat="52.045441" lon="05.741437"><ele>23.2</ele><time>2021-05-01T14:03:19Z</time><name>PT3752</name></trkpt>
<trkpt lat="52.045438" lon="05.741449"><ele>23.3</ele><time>2021-05-01T14:03:21Z</time><name>PT3753</name></trkpt>
<trkpt lat="52.045434" lon="05.741451"><ele>23.2</ele><time>2021-05-01T14:03:21Z</time><name>PT3754</name></trkpt>
<trkpt lat="52.045423" lon="05.741462"><ele>23.1</ele><time>2021-05-01T14:03:23Z</time><name>PT3755</name></trkpt>
<trkpt lat="52.045405" lon="05.741475"><ele>23.2</ele><time>2021-05-01T14:03:23Z</time><name>PT3756</name></trkpt>
<trkpt lat="52.045389" lon="05.741481"><ele>22.8</ele><time>2021-05-01T14:03:25Z</time><name>PT3757</name></trkpt>
<trkpt lat="52.045376" lon="05.741487"><ele>22.7</ele><time>2021-05-01T14:03:25Z</time><name>PT3758</name></trkpt>
<trkpt lat="52.045368" lon="05.741494"><ele>22.7</ele><time>2021-05-01T14:03:27Z</time><name>PT3759</name></trkpt>
<trkpt lat="52.045366" lon="05.741499"><ele>22.6</ele><time>2021-05-01T14:03:27Z</time><name>PT3760</name></trkpt>
<trkpt lat="52.045364" lon="05.741502"><ele>22.7</ele><time>2021-05-01T14:03:29Z</time><name>PT3761</name></trkpt>
<trkpt lat="52.045360" lon="05.741507"><ele>22.8</ele><time>2021-05-01T14:03:29Z</time><name>PT3762</name></trkpt>
<trkpt lat="52.045352" lon="05.741514"><ele>23</ele><time>2021-05-01T14:03:31Z</time><name>PT3763</name></trkpt>
<trkpt lat="52.045336" lon="05.741528"><ele>22.9</ele><time>2021-05-01T14:03:31Z</time><name>PT3764</name></trkpt>
<trkpt lat="52.045318" lon="05.741537"><ele>22.8</ele><time>2021-05-01T14:03:33Z</time><name>PT3765</name></trkpt>
<trkpt lat="52.045304" lon="05.741549"><ele>22.9</ele><time>2021-05-01T14:03:33Z</time><name>PT3766</name></trkpt>
<trkpt lat="52.045300" lon="05.741560"><ele>22.8</ele><time>2021-05-01T14:03:35Z</time><name>PT3767</name></trkpt>
<trkpt lat="52.045297" lon="05.741564"><ele>22.8</ele><time>2021-05-01T14:03:35Z</time><name>PT3768</name></trkpt>
<trkpt lat="52.045296" lon="05.741568"><ele>22.9</ele><time>2021-05-01T14:03:37Z</time><name>PT3769</name></trkpt>
<trkpt lat="52.045286" lon="05.741581"><ele>22.9</ele><time>2021-05-01T14:03:37Z</time><name>PT3770</name></trkpt>
<trkpt lat="52.045271" lon="05.741596"><ele>22.8</ele><time>2021-05-01T14:03:39Z</time><name>PT3771</name></trkpt>
<trkpt lat="52.045251" lon="05.741607"><ele>22.8</ele><time>2021-05-01T14:03:39Z</time><name>PT3772</name></trkpt>
<trkpt lat="52.045233" lon="05.741616"><ele>22.8</ele><time>2021-05-01T14:03:41Z</time><name>PT3773</name></trkpt>
<trkpt lat="52.045224" lon="05.741622"><ele>22.8</ele><time>2021-05-01T14:03:41Z</time><name>PT3774</name></trkpt>
<trkpt lat="52.045222" lon="05.741626"><ele>22.8</ele><time>2021-05-01T14:03:42Z</time><name>PT3775</name></trkpt>
<trkpt lat="52.045221" lon="05.741627"><ele>22.9</ele><time>2021-05-01T14:03:43Z</time><name>PT3776</name></trkpt>
<trkpt lat="52.045214" lon="05.741635"><ele>22.8</ele><time>2021-05-01T14:03:44Z</time><name>PT3777</name></trkpt>
<trkpt lat="52.045209" lon="05.741650"><ele>23</ele><time>2021-05-01T14:03:45Z</time><name>PT3778</name></trkpt>
<trkpt lat="52.045203" lon="05.741665"><ele>22.9</ele><time>2021-05-01T14:03:47Z</time><name>PT3779</name></trkpt>
<trkpt lat="52.045196" lon="05.741676"><ele>22.9</ele><time>2021-05-01T14:03:47Z</time><name>PT3780</name></trkpt>
<trkpt lat="52.045181" lon="05.741689"><ele>22.9</ele><time>2021-05-01T14:03:49Z</time><name>PT3781</name></trkpt>
<trkpt lat="52.045164" lon="05.741705"><ele>22.9</ele><time>2021-05-01T14:03:49Z</time><name>PT3782</name></trkpt>
<trkpt lat="52.045149" lon="05.741717"><ele>22.8</ele><time>2021-05-01T14:03:51Z</time><name>PT3783</name></trkpt>
<trkpt lat="52.045140" lon="05.741726"><ele>22.8</ele><time>2021-05-01T14:03:51Z</time><name>PT3784</name></trkpt>
<trkpt lat="52.045133" lon="05.741736"><ele>22.7</ele><time>2021-05-01T14:03:53Z</time><name>PT3785</name></trkpt>
<trkpt lat="52.045128" lon="05.741748"><ele>22.8</ele><time>2021-05-01T14:03:53Z</time><name>PT3786</name></trkpt>
<trkpt lat="52.045121" lon="05.741756"><ele>22.8</ele><time>2021-05-01T14:03:55Z</time><name>PT3787</name></trkpt>
<trkpt lat="52.045114" lon="05.741769"><ele>22.9</ele><time>2021-05-01T14:03:55Z</time><name>PT3788</name></trkpt>
<trkpt lat="52.045109" lon="05.741782"><ele>23</ele><time>2021-05-01T14:03:57Z</time><name>PT3789</name></trkpt>
<trkpt lat="52.045103" lon="05.741794"><ele>23</ele><time>2021-05-01T14:03:57Z</time><name>PT3790</name></trkpt>
<trkpt lat="52.045097" lon="05.741805"><ele>23.1</ele><time>2021-05-01T14:03:58Z</time><name>PT3791</name></trkpt>
<trkpt lat="52.045089" lon="05.741815"><ele>23.1</ele><time>2021-05-01T14:03:59Z</time><name>PT3792</name></trkpt>
<trkpt lat="52.045081" lon="05.741823"><ele>23.3</ele><time>2021-05-01T14:04:00Z</time><name>PT3793</name></trkpt>
<trkpt lat="52.045075" lon="05.741832"><ele>23.3</ele><time>2021-05-01T14:04:01Z</time><name>PT3794</name></trkpt>
<trkpt lat="52.045069" lon="05.741845"><ele>23.3</ele><time>2021-05-01T14:04:03Z</time><name>PT3795</name></trkpt>
<trkpt lat="52.045065" lon="05.741859"><ele>23.4</ele><time>2021-05-01T14:04:03Z</time><name>PT3796</name></trkpt>
<trkpt lat="52.045060" lon="05.741871"><ele>23.4</ele><time>2021-05-01T14:04:04Z</time><name>PT3797</name></trkpt>
<trkpt lat="52.045057" lon="05.741885"><ele>23.3</ele><time>2021-05-01T14:04:05Z</time><name>PT3798</name></trkpt>
<trkpt lat="52.045054" lon="05.741902"><ele>23.2</ele><time>2021-05-01T14:04:07Z</time><name>PT3799</name></trkpt>
<trkpt lat="52.045051" lon="05.741918"><ele>23.3</ele><time>2021-05-01T14:04:07Z</time><name>PT3800</name></trkpt>
<trkpt lat="52.045048" lon="05.741933"><ele>23.1</ele><time>2021-05-01T14:04:09Z</time><name>PT3801</name></trkpt>
<trkpt lat="52.045045" lon="05.741948"><ele>22.9</ele><time>2021-05-01T14:04:09Z</time><name>PT3802</name></trkpt>
<trkpt lat="52.045039" lon="05.741963"><ele>22.8</ele><time>2021-05-01T14:04:11Z</time><name>PT3803</name></trkpt>
<trkpt lat="52.045037" lon="05.741979"><ele>22.8</ele><time>2021-05-01T14:04:11Z</time><name>PT3804</name></trkpt>
<trkpt lat="52.045035" lon="05.741986"><ele>22.5</ele><time>2021-05-01T14:04:13Z</time><name>PT3805</name></trkpt>
<trkpt lat="52.045034" lon="05.741998"><ele>22.7</ele><time>2021-05-01T14:04:13Z</time><name>PT3806</name></trkpt>
<trkpt lat="52.045032" lon="05.742017"><ele>22.5</ele><time>2021-05-01T14:04:15Z</time><name>PT3807</name></trkpt>
<trkpt lat="52.045030" lon="05.742042"><ele>22.4</ele><time>2021-05-01T14:04:15Z</time><name>PT3808</name></trkpt>
<trkpt lat="52.045026" lon="05.742069"><ele>22.5</ele><time>2021-05-01T14:04:17Z</time><name>PT3809</name></trkpt>
<trkpt lat="52.045024" lon="05.742089"><ele>22.7</ele><time>2021-05-01T14:04:17Z</time><name>PT3810</name></trkpt>
<trkpt lat="52.045022" lon="05.742103"><ele>22.8</ele><time>2021-05-01T14:04:19Z</time><name>PT3811</name></trkpt>
<trkpt lat="52.045018" lon="05.742116"><ele>22.9</ele><time>2021-05-01T14:04:19Z</time><name>PT3812</name></trkpt>
<trkpt lat="52.045013" lon="05.742127"><ele>23.1</ele><time>2021-05-01T14:04:21Z</time><name>PT3813</name></trkpt>
<trkpt lat="52.045009" lon="05.742131"><ele>23.2</ele><time>2021-05-01T14:04:22Z</time><name>PT3814</name></trkpt>
<trkpt lat="52.045003" lon="05.742141"><ele>23</ele><time>2021-05-01T14:04:23Z</time><name>PT3815</name></trkpt>
<trkpt lat="52.044997" lon="05.742149"><ele>23</ele><time>2021-05-01T14:04:24Z</time><name>PT3816</name></trkpt>
<trkpt lat="52.044989" lon="05.742155"><ele>22.8</ele><time>2021-05-01T14:04:25Z</time><name>PT3817</name></trkpt>
<trkpt lat="52.044976" lon="05.742163"><ele>22.8</ele><time>2021-05-01T14:04:25Z</time><name>PT3818</name></trkpt>
<trkpt lat="52.044959" lon="05.742166"><ele>22.6</ele><time>2021-05-01T14:04:27Z</time><name>PT3819</name></trkpt>
<trkpt lat="52.044949" lon="05.742168"><ele>22.6</ele><time>2021-05-01T14:04:27Z</time><name>PT3820</name></trkpt>
<trkpt lat="52.044944" lon="05.742168"><ele>22.5</ele><time>2021-05-01T14:04:29Z</time><name>PT3821</name></trkpt>
<trkpt lat="52.044941" lon="05.742166"><ele>22.5</ele><time>2021-05-01T14:04:29Z</time><name>PT3822</name></trkpt>
<trkpt lat="52.044932" lon="05.742161"><ele>22.4</ele><time>2021-05-01T14:04:31Z</time><name>PT3823</name></trkpt>
<trkpt lat="52.044924" lon="05.742157"><ele>22.5</ele><time>2021-05-01T14:04:31Z</time><name>PT3824</name></trkpt>
<trkpt lat="52.044916" lon="05.742155"><ele>22.8</ele><time>2021-05-01T14:04:33Z</time><name>PT3825</name></trkpt>
<trkpt lat="52.044904" lon="05.742153"><ele>22.7</ele><time>2021-05-01T14:04:33Z</time><name>PT3826</name></trkpt>
<trkpt lat="52.044889" lon="05.742144"><ele>22.7</ele><time>2021-05-01T14:04:35Z</time><name>PT3827</name></trkpt>
<trkpt lat="52.044878" lon="05.742134"><ele>22.8</ele><time>2021-05-01T14:04:35Z</time><name>PT3828</name></trkpt>
<trkpt lat="52.044872" lon="05.742131"><ele>22.7</ele><time>2021-05-01T14:04:37Z</time><name>PT3829</name></trkpt>
<trkpt lat="52.044869" lon="05.742130"><ele>22.7</ele><time>2021-05-01T14:04:37Z</time><name>PT3830</name></trkpt>
<trkpt lat="52.044867" lon="05.742135"><ele>22.8</ele><time>2021-05-01T14:04:39Z</time><name>PT3831</name></trkpt>
<trkpt lat="52.044859" lon="05.742141"><ele>22.8</ele><time>2021-05-01T14:04:39Z</time><name>PT3832</name></trkpt>
<trkpt lat="52.044841" lon="05.742144"><ele>22.8</ele><time>2021-05-01T14:04:41Z</time><name>PT3833</name></trkpt>
<trkpt lat="52.044821" lon="05.742139"><ele>22.8</ele><time>2021-05-01T14:04:41Z</time><name>PT3834</name></trkpt>
<trkpt lat="52.044806" lon="05.742133"><ele>22.6</ele><time>2021-05-01T14:04:43Z</time><name>PT3835</name></trkpt>
<trkpt lat="52.044793" lon="05.742130"><ele>22.6</ele><time>2021-05-01T14:04:43Z</time><name>PT3836</name></trkpt>
<trkpt lat="52.044789" lon="05.742132"><ele>22.8</ele><time>2021-05-01T14:04:45Z</time><name>PT3837</name></trkpt>
<trkpt lat="52.044787" lon="05.742135"><ele>22.8</ele><time>2021-05-01T14:04:45Z</time><name>PT3838</name></trkpt>
<trkpt lat="52.044783" lon="05.742137"><ele>22.8</ele><time>2021-05-01T14:04:47Z</time><name>PT3839</name></trkpt>
<trkpt lat="52.044775" lon="05.742137"><ele>22.8</ele><time>2021-05-01T14:04:47Z</time><name>PT3840</name></trkpt>
<trkpt lat="52.044760" lon="05.742146"><ele>23</ele><time>2021-05-01T14:04:49Z</time><name>PT3841</name></trkpt>
<trkpt lat="52.044744" lon="05.742157"><ele>22.9</ele><time>2021-05-01T14:04:49Z</time><name>PT3842</name></trkpt>
<trkpt lat="52.044729" lon="05.742166"><ele>22.9</ele><time>2021-05-01T14:04:51Z</time><name>PT3843</name></trkpt>
<trkpt lat="52.044717" lon="05.742175"><ele>23</ele><time>2021-05-01T14:04:51Z</time><name>PT3844</name></trkpt>
<trkpt lat="52.044710" lon="05.742175"><ele>23.1</ele><time>2021-05-01T14:04:53Z</time><name>PT3845</name></trkpt>
<trkpt lat="52.044701" lon="05.742178"><ele>23.2</ele><time>2021-05-01T14:04:53Z</time><name>PT3846</name></trkpt>
<trkpt lat="52.044693" lon="05.742181"><ele>23.5</ele><time>2021-05-01T14:04:55Z</time><name>PT3847</name></trkpt>
<trkpt lat="52.044682" lon="05.742185"><ele>23.6</ele><time>2021-05-01T14:04:55Z</time><name>PT3848</name></trkpt>
<trkpt lat="52.044672" lon="05.742194"><ele>23.6</ele><time>2021-05-01T14:04:57Z</time><name>PT3849</name></trkpt>
<trkpt lat="52.044663" lon="05.742200"><ele>23.6</ele><time>2021-05-01T14:04:57Z</time><name>PT3850</name></trkpt>
<trkpt lat="52.044648" lon="05.742213"><ele>23.5</ele><time>2021-05-01T14:04:59Z</time><name>PT3851</name></trkpt>
<trkpt lat="52.044633" lon="05.742222"><ele>23.3</ele><time>2021-05-01T14:04:59Z</time><name>PT3852</name></trkpt>
<trkpt lat="52.044625" lon="05.742232"><ele>23.3</ele><time>2021-05-01T14:05:01Z</time><name>PT3853</name></trkpt>
<trkpt lat="52.044623" lon="05.742234"><ele>23.1</ele><time>2021-05-01T14:05:01Z</time><name>PT3854</name></trkpt>
<trkpt lat="52.044623" lon="05.742235"><ele>22.9</ele><time>2021-05-01T14:05:03Z</time><name>PT3855</name></trkpt>
<trkpt lat="52.044618" lon="05.742246"><ele>22.9</ele><time>2021-05-01T14:05:03Z</time><name>PT3856</name></trkpt>
<trkpt lat="52.044608" lon="05.742256"><ele>22.9</ele><time>2021-05-01T14:05:05Z</time><name>PT3857</name></trkpt>
<trkpt lat="52.044587" lon="05.742265"><ele>22.9</ele><time>2021-05-01T14:05:05Z</time><name>PT3858</name></trkpt>
<trkpt lat="52.044567" lon="05.742272"><ele>23.2</ele><time>2021-05-01T14:05:07Z</time><name>PT3859</name></trkpt>
<trkpt lat="52.044555" lon="05.742279"><ele>23.2</ele><time>2021-05-01T14:05:07Z</time><name>PT3860</name></trkpt>
<trkpt lat="52.044546" lon="05.742282"><ele>23.3</ele><time>2021-05-01T14:05:09Z</time><name>PT3861</name></trkpt>
<trkpt lat="52.044544" lon="05.742288"><ele>23.3</ele><time>2021-05-01T14:05:09Z</time><name>PT3862</name></trkpt>
<trkpt lat="52.044540" lon="05.742289"><ele>23.3</ele><time>2021-05-01T14:05:11Z</time><name>PT3863</name></trkpt>
<trkpt lat="52.044534" lon="05.742291"><ele>23.3</ele><time>2021-05-01T14:05:11Z</time><name>PT3864</name></trkpt>
<trkpt lat="52.044524" lon="05.742304"><ele>23.3</ele><time>2021-05-01T14:05:13Z</time><name>PT3865</name></trkpt>
<trkpt lat="52.044509" lon="05.742327"><ele>23.3</ele><time>2021-05-01T14:05:13Z</time><name>PT3866</name></trkpt>
<trkpt lat="52.044489" lon="05.742342"><ele>23.2</ele><time>2021-05-01T14:05:15Z</time><name>PT3867</name></trkpt>
<trkpt lat="52.044474" lon="05.742352"><ele>23.3</ele><time>2021-05-01T14:05:15Z</time><name>PT3868</name></trkpt>
<trkpt lat="52.044463" lon="05.742357"><ele>23.1</ele><time>2021-05-01T14:05:17Z</time><name>PT3869</name></trkpt>
<trkpt lat="52.044459" lon="05.742363"><ele>23.2</ele><time>2021-05-01T14:05:17Z</time><name>PT3870</name></trkpt>
<trkpt lat="52.044457" lon="05.742363"><ele>23.2</ele><time>2021-05-01T14:05:18Z</time><name>PT3871</name></trkpt>
<trkpt lat="52.044452" lon="05.742370"><ele>23.3</ele><time>2021-05-01T14:05:19Z</time><name>PT3872</name></trkpt>
<trkpt lat="52.044442" lon="05.742375"><ele>23.1</ele><time>2021-05-01T14:05:20Z</time><name>PT3873</name></trkpt>
<trkpt lat="52.044427" lon="05.742379"><ele>23.3</ele><time>2021-05-01T14:05:21Z</time><name>PT3874</name></trkpt>
<trkpt lat="52.044408" lon="05.742380"><ele>23.3</ele><time>2021-05-01T14:05:23Z</time><name>PT3875</name></trkpt>
<trkpt lat="52.044393" lon="05.742384"><ele>23.3</ele><time>2021-05-01T14:05:23Z</time><name>PT3876</name></trkpt>
<trkpt lat="52.044386" lon="05.742385"><ele>23.3</ele><time>2021-05-01T14:05:24Z</time><name>PT3877</name></trkpt>
<trkpt lat="52.044382" lon="05.742387"><ele>23.3</ele><time>2021-05-01T14:05:25Z</time><name>PT3878</name></trkpt>
<trkpt lat="52.044373" lon="05.742395"><ele>23.3</ele><time>2021-05-01T14:05:27Z</time><name>PT3879</name></trkpt>
<trkpt lat="52.044364" lon="05.742401"><ele>23.3</ele><time>2021-05-01T14:05:27Z</time><name>PT3880</name></trkpt>
<trkpt lat="52.044362" lon="05.742408"><ele>23.2</ele><time>2021-05-01T14:05:28Z</time><name>PT3881</name></trkpt>
<trkpt lat="52.044365" lon="05.742419"><ele>23.3</ele><time>2021-05-01T14:05:29Z</time><name>PT3882</name></trkpt>
<trkpt lat="52.044364" lon="05.742417"><ele>23.4</ele><time>2021-05-01T14:05:31Z</time><name>PT3883</name></trkpt>
<trkpt lat="52.044362" lon="05.742416"><ele>23.5</ele><time>2021-05-01T14:05:31Z</time><name>PT3884</name></trkpt>
<trkpt lat="52.044353" lon="05.742414"><ele>23.5</ele><time>2021-05-01T14:05:32Z</time><name>PT3885</name></trkpt>
<trkpt lat="52.044347" lon="05.742419"><ele>23.6</ele><time>2021-05-01T14:05:33Z</time><name>PT3886</name></trkpt>
<trkpt lat="52.044344" lon="05.742425"><ele>23.7</ele><time>2021-05-01T14:05:35Z</time><name>PT3887</name></trkpt>
<trkpt lat="52.044338" lon="05.742427"><ele>23.7</ele><time>2021-05-01T14:05:35Z</time><name>PT3888</name></trkpt>
<trkpt lat="52.044333" lon="05.742438"><ele>23.8</ele><time>2021-05-01T14:05:36Z</time><name>PT3889</name></trkpt>
<trkpt lat="52.044327" lon="05.742444"><ele>23.8</ele><time>2021-05-01T14:05:37Z</time><name>PT3890</name></trkpt>
<trkpt lat="52.044322" lon="05.742452"><ele>23.8</ele><time>2021-05-01T14:05:39Z</time><name>PT3891</name></trkpt>
<trkpt lat="52.044313" lon="05.742457"><ele>23.8</ele><time>2021-05-01T14:05:39Z</time><name>PT3892</name></trkpt>
<trkpt lat="52.044307" lon="05.742462"><ele>23.8</ele><time>2021-05-01T14:05:41Z</time><name>PT3893</name></trkpt>
<trkpt lat="52.044303" lon="05.742464"><ele>23.8</ele><time>2021-05-01T14:05:41Z</time><name>PT3894</name></trkpt>
<trkpt lat="52.044300" lon="05.742466"><ele>23.7</ele><time>2021-05-01T14:05:42Z</time><name>PT3895</name></trkpt>
<trkpt lat="52.044290" lon="05.742471"><ele>23.5</ele><time>2021-05-01T14:05:43Z</time><name>PT3896</name></trkpt>
<trkpt lat="52.044276" lon="05.742478"><ele>23.3</ele><time>2021-05-01T14:05:45Z</time><name>PT3897</name></trkpt>
<trkpt lat="52.044268" lon="05.742483"><ele>23.1</ele><time>2021-05-01T14:05:45Z</time><name>PT3898</name></trkpt>
<trkpt lat="52.044263" lon="05.742486"><ele>23.2</ele><time>2021-05-01T14:05:47Z</time><name>PT3899</name></trkpt>
<trkpt lat="52.044252" lon="05.742489"><ele>23.2</ele><time>2021-05-01T14:05:47Z</time><name>PT3900</name></trkpt>
<trkpt lat="52.044232" lon="05.742496"><ele>23.2</ele><time>2021-05-01T14:05:49Z</time><name>PT3901</name></trkpt>
<trkpt lat="52.044219" lon="05.742512"><ele>23.3</ele><time>2021-05-01T14:05:49Z</time><name>PT3902</name></trkpt>
<trkpt lat="52.044207" lon="05.742514"><ele>23.1</ele><time>2021-05-01T14:05:51Z</time><name>PT3903</name></trkpt>
<trkpt lat="52.044197" lon="05.742519"><ele>23.1</ele><time>2021-05-01T14:05:51Z</time><name>PT3904</name></trkpt>
<trkpt lat="52.044195" lon="05.742522"><ele>23</ele><time>2021-05-01T14:05:53Z</time><name>PT3905</name></trkpt>
<trkpt lat="52.044194" lon="05.742524"><ele>23.1</ele><time>2021-05-01T14:05:53Z</time><name>PT3906</name></trkpt>
<trkpt lat="52.044187" lon="05.742533"><ele>23.2</ele><time>2021-05-01T14:05:55Z</time><name>PT3907</name></trkpt>
<trkpt lat="52.044170" lon="05.742541"><ele>23.3</ele><time>2021-05-01T14:05:55Z</time><name>PT3908</name></trkpt>
<trkpt lat="52.044147" lon="05.742543"><ele>23.3</ele><time>2021-05-01T14:05:57Z</time><name>PT3909</name></trkpt>
<trkpt lat="52.044136" lon="05.742546"><ele>23.3</ele><time>2021-05-01T14:05:57Z</time><name>PT3910</name></trkpt>
<trkpt lat="52.044132" lon="05.742551"><ele>23.4</ele><time>2021-05-01T14:05:59Z</time><name>PT3911</name></trkpt>
<trkpt lat="52.044130" lon="05.742560"><ele>23.3</ele><time>2021-05-01T14:05:59Z</time><name>PT3912</name></trkpt>
<trkpt lat="52.044124" lon="05.742568"><ele>23.3</ele><time>2021-05-01T14:06:01Z</time><name>PT3913</name></trkpt>
<trkpt lat="52.044110" lon="05.742578"><ele>23.3</ele><time>2021-05-01T14:06:01Z</time><name>PT3914</name></trkpt>
<trkpt lat="52.044097" lon="05.742588"><ele>23.7</ele><time>2021-05-01T14:06:03Z</time><name>PT3915</name></trkpt>
<trkpt lat="52.044085" lon="05.742590"><ele>23.6</ele><time>2021-05-01T14:06:03Z</time><name>PT3916</name></trkpt>
<trkpt lat="52.044077" lon="05.742592"><ele>23.7</ele><time>2021-05-01T14:06:05Z</time><name>PT3917</name></trkpt>
<trkpt lat="52.044075" lon="05.742595"><ele>23.7</ele><time>2021-05-01T14:06:05Z</time><name>PT3918</name></trkpt>
<trkpt lat="52.044073" lon="05.742610"><ele>23.6</ele><time>2021-05-01T14:06:07Z</time><name>PT3919</name></trkpt>
<trkpt lat="52.044060" lon="05.742622"><ele>23.3</ele><time>2021-05-01T14:06:07Z</time><name>PT3920</name></trkpt>
<trkpt lat="52.044048" lon="05.742632"><ele>23.4</ele><time>2021-05-01T14:06:09Z</time><name>PT3921</name></trkpt>
<trkpt lat="52.044034" lon="05.742642"><ele>23.3</ele><time>2021-05-01T14:06:09Z</time><name>PT3922</name></trkpt>
<trkpt lat="52.044025" lon="05.742648"><ele>23.3</ele><time>2021-05-01T14:06:11Z</time><name>PT3923</name></trkpt>
<trkpt lat="52.044023" lon="05.742648"><ele>23.3</ele><time>2021-05-01T14:06:11Z</time><name>PT3924</name></trkpt>
<trkpt lat="52.044018" lon="05.742651"><ele>23.3</ele><time>2021-05-01T14:06:13Z</time><name>PT3925</name></trkpt>
<trkpt lat="52.044017" lon="05.742654"><ele>23.3</ele><time>2021-05-01T14:06:13Z</time><name>PT3926</name></trkpt>
<trkpt lat="52.044005" lon="05.742661"><ele>23.5</ele><time>2021-05-01T14:06:15Z</time><name>PT3927</name></trkpt>
<trkpt lat="52.043988" lon="05.742663"><ele>23.4</ele><time>2021-05-01T14:06:15Z</time><name>PT3928</name></trkpt>
<trkpt lat="52.043973" lon="05.742672"><ele>23.5</ele><time>2021-05-01T14:06:17Z</time><name>PT3929</name></trkpt>
<trkpt lat="52.043963" lon="05.742686"><ele>23.6</ele><time>2021-05-01T14:06:17Z</time><name>PT3930</name></trkpt>
<trkpt lat="52.043960" lon="05.742694"><ele>23.6</ele><time>2021-05-01T14:06:19Z</time><name>PT3931</name></trkpt>
<trkpt lat="52.043960" lon="05.742697"><ele>23.8</ele><time>2021-05-01T14:06:19Z</time><name>PT3932</name></trkpt>
<trkpt lat="52.043950" lon="05.742701"><ele>23.8</ele><time>2021-05-01T14:06:21Z</time><name>PT3933</name></trkpt>
<trkpt lat="52.043935" lon="05.742710"><ele>23.8</ele><time>2021-05-01T14:06:21Z</time><name>PT3934</name></trkpt>
<trkpt lat="52.043916" lon="05.742716"><ele>23.8</ele><time>2021-05-01T14:06:23Z</time><name>PT3935</name></trkpt>
<trkpt lat="52.043898" lon="05.742725"><ele>23.8</ele><time>2021-05-01T14:06:23Z</time><name>PT3936</name></trkpt>
<trkpt lat="52.043888" lon="05.742730"><ele>23.8</ele><time>2021-05-01T14:06:25Z</time><name>PT3937</name></trkpt>
<trkpt lat="52.043885" lon="05.742735"><ele>23.8</ele><time>2021-05-01T14:06:25Z</time><name>PT3938</name></trkpt>
<trkpt lat="52.043884" lon="05.742738"><ele>23.8</ele><time>2021-05-01T14:06:27Z</time><name>PT3939</name></trkpt>
<trkpt lat="52.043872" lon="05.742749"><ele>23.8</ele><time>2021-05-01T14:06:27Z</time><name>PT3940</name></trkpt>
<trkpt lat="52.043857" lon="05.742763"><ele>23.8</ele><time>2021-05-01T14:06:29Z</time><name>PT3941</name></trkpt>
<trkpt lat="52.043841" lon="05.742774"><ele>23.7</ele><time>2021-05-01T14:06:29Z</time><name>PT3942</name></trkpt>
<trkpt lat="52.043826" lon="05.742774"><ele>23.7</ele><time>2021-05-01T14:06:31Z</time><name>PT3943</name></trkpt>
<trkpt lat="52.043816" lon="05.742780"><ele>23.6</ele><time>2021-05-01T14:06:31Z</time><name>PT3944</name></trkpt>
<trkpt lat="52.043809" lon="05.742800"><ele>23.6</ele><time>2021-05-01T14:06:33Z</time><name>PT3945</name></trkpt>
<trkpt lat="52.043805" lon="05.742822"><ele>23.7</ele><time>2021-05-01T14:06:33Z</time><name>PT3946</name></trkpt>
<trkpt lat="52.043796" lon="05.742827"><ele>23.8</ele><time>2021-05-01T14:06:35Z</time><name>PT3947</name></trkpt>
<trkpt lat="52.043791" lon="05.742845"><ele>23.8</ele><time>2021-05-01T14:06:35Z</time><name>PT3948</name></trkpt>
<trkpt lat="52.043784" lon="05.742859"><ele>23.8</ele><time>2021-05-01T14:06:37Z</time><name>PT3949</name></trkpt>
<trkpt lat="52.043778" lon="05.742871"><ele>23.8</ele><time>2021-05-01T14:06:37Z</time><name>PT3950</name></trkpt>
<trkpt lat="52.043771" lon="05.742883"><ele>23.8</ele><time>2021-05-01T14:06:39Z</time><name>PT3951</name></trkpt>
<trkpt lat="52.043763" lon="05.742894"><ele>23.7</ele><time>2021-05-01T14:06:39Z</time><name>PT3952</name></trkpt>
<trkpt lat="52.043758" lon="05.742909"><ele>23.6</ele><time>2021-05-01T14:06:41Z</time><name>PT3953</name></trkpt>
<trkpt lat="52.043758" lon="05.742926"><ele>23.4</ele><time>2021-05-01T14:06:41Z</time><name>PT3954</name></trkpt>
<trkpt lat="52.043759" lon="05.742950"><ele>23.4</ele><time>2021-05-01T14:06:43Z</time><name>PT3955</name></trkpt>
<trkpt lat="52.043760" lon="05.742968"><ele>23.3</ele><time>2021-05-01T14:06:43Z</time><name>PT3956</name></trkpt>
<trkpt lat="52.043758" lon="05.743001"><ele>23.3</ele><time>2021-05-01T14:06:44Z</time><name>PT3957</name></trkpt>
<trkpt lat="52.043754" lon="05.743035"><ele>23.3</ele><time>2021-05-01T14:06:45Z</time><name>PT3958</name></trkpt>
<trkpt lat="52.043746" lon="05.743054"><ele>23.4</ele><time>2021-05-01T14:06:46Z</time><name>PT3959</name></trkpt>
<trkpt lat="52.043745" lon="05.743065"><ele>23.2</ele><time>2021-05-01T14:06:47Z</time><name>PT3960</name></trkpt>
<trkpt lat="52.043745" lon="05.743070"><ele>23.3</ele><time>2021-05-01T14:06:48Z</time><name>PT3961</name></trkpt>
<trkpt lat="52.043750" lon="05.743077"><ele>23.3</ele><time>2021-05-01T14:06:49Z</time><name>PT3962</name></trkpt>
<trkpt lat="52.043756" lon="05.743080"><ele>23.3</ele><time>2021-05-01T14:06:50Z</time><name>PT3963</name></trkpt>
<trkpt lat="52.043759" lon="05.743093"><ele>23.3</ele><time>2021-05-01T14:06:51Z</time><name>PT3964</name></trkpt>
<trkpt lat="52.043762" lon="05.743109"><ele>23.4</ele><time>2021-05-01T14:06:52Z</time><name>PT3965</name></trkpt>
<trkpt lat="52.043767" lon="05.743119"><ele>23.4</ele><time>2021-05-01T14:06:53Z</time><name>PT3966</name></trkpt>
<trkpt lat="52.043769" lon="05.743146"><ele>23.3</ele><time>2021-05-01T14:06:55Z</time><name>PT3967</name></trkpt>
<trkpt lat="52.043770" lon="05.743167"><ele>23.2</ele><time>2021-05-01T14:06:55Z</time><name>PT3968</name></trkpt>
<trkpt lat="52.043771" lon="05.743185"><ele>23.1</ele><time>2021-05-01T14:06:56Z</time><name>PT3969</name></trkpt>
<trkpt lat="52.043770" lon="05.743193"><ele>23</ele><time>2021-05-01T14:06:57Z</time><name>PT3970</name></trkpt>
<trkpt lat="52.043772" lon="05.743205"><ele>23.1</ele><time>2021-05-01T14:06:59Z</time><name>PT3971</name></trkpt>
<trkpt lat="52.043776" lon="05.743231"><ele>23</ele><time>2021-05-01T14:06:59Z</time><name>PT3972</name></trkpt>
<trkpt lat="52.043786" lon="05.743256"><ele>23.1</ele><time>2021-05-01T14:07:00Z</time><name>PT3973</name></trkpt>
<trkpt lat="52.043793" lon="05.743279"><ele>23.3</ele><time>2021-05-01T14:07:01Z</time><name>PT3974</name></trkpt>
<trkpt lat="52.043794" lon="05.743293"><ele>23.4</ele><time>2021-05-01T14:07:02Z</time><name>PT3975</name></trkpt>
<trkpt lat="52.043794" lon="05.743311"><ele>23.6</ele><time>2021-05-01T14:07:03Z</time><name>PT3976</name></trkpt>
<trkpt lat="52.043797" lon="05.743334"><ele>23.8</ele><time>2021-05-01T14:07:04Z</time><name>PT3977</name></trkpt>
<trkpt lat="52.043801" lon="05.743350"><ele>23.9</ele><time>2021-05-01T14:07:05Z</time><name>PT3978</name></trkpt>
<trkpt lat="52.043803" lon="05.743365"><ele>23.8</ele><time>2021-05-01T14:07:07Z</time><name>PT3979</name></trkpt>
<trkpt lat="52.043806" lon="05.743375"><ele>23.7</ele><time>2021-05-01T14:07:07Z</time><name>PT3980</name></trkpt>
<trkpt lat="52.043807" lon="05.743385"><ele>23.6</ele><time>2021-05-01T14:07:09Z</time><name>PT3981</name></trkpt>
<trkpt lat="52.043810" lon="05.743397"><ele>23.7</ele><time>2021-05-01T14:07:09Z</time><name>PT3982</name></trkpt>
<trkpt lat="52.043813" lon="05.743410"><ele>23.7</ele><time>2021-05-01T14:07:11Z</time><name>PT3983</name></trkpt>
<trkpt lat="52.043816" lon="05.743424"><ele>23.6</ele><time>2021-05-01T14:07:11Z</time><name>PT3984</name></trkpt>
<trkpt lat="52.043819" lon="05.743440"><ele>23.7</ele><time>2021-05-01T14:07:13Z</time><name>PT3985</name></trkpt>
<trkpt lat="52.043822" lon="05.743454"><ele>23.6</ele><time>2021-05-01T14:07:13Z</time><name>PT3986</name></trkpt>
<trkpt lat="52.043825" lon="05.743469"><ele>23.5</ele><time>2021-05-01T14:07:15Z</time><name>PT3987</name></trkpt>
<trkpt lat="52.043824" lon="05.743489"><ele>23.5</ele><time>2021-05-01T14:07:15Z</time><name>PT3988</name></trkpt>
<trkpt lat="52.043824" lon="05.743512"><ele>23.6</ele><time>2021-05-01T14:07:17Z</time><name>PT3989</name></trkpt>
<trkpt lat="52.043827" lon="05.743530"><ele>23.6</ele><time>2021-05-01T14:07:17Z</time><name>PT3990</name></trkpt>
<trkpt lat="52.043829" lon="05.743543"><ele>23.6</ele><time>2021-05-01T14:07:19Z</time><name>PT3991</name></trkpt>
<trkpt lat="52.043832" lon="05.743555"><ele>23.8</ele><time>2021-05-01T14:07:19Z</time><name>PT3992</name></trkpt>
<trkpt lat="52.043836" lon="05.743569"><ele>23.8</ele><time>2021-05-01T14:07:21Z</time><name>PT3993</name></trkpt>
<trkpt lat="52.043841" lon="05.743589"><ele>23.7</ele><time>2021-05-01T14:07:21Z</time><name>PT3994</name></trkpt>
<trkpt lat="52.043840" lon="05.743607"><ele>23.8</ele><time>2021-05-01T14:07:23Z</time><name>PT3995</name></trkpt>
<trkpt lat="52.043843" lon="05.743618"><ele>23.8</ele><time>2021-05-01T14:07:23Z</time><name>PT3996</name></trkpt>
<trkpt lat="52.043843" lon="05.743622"><ele>23.5</ele><time>2021-05-01T14:07:25Z</time><name>PT3997</name></trkpt>
<trkpt lat="52.043844" lon="05.743633"><ele>23.3</ele><time>2021-05-01T14:07:25Z</time><name>PT3998</name></trkpt>
<trkpt lat="52.043847" lon="05.743650"><ele>23.3</ele><time>2021-05-01T14:07:27Z</time><name>PT3999</name></trkpt>
<trkpt lat="52.043848" lon="05.743675"><ele>23.2</ele><time>2021-05-01T14:07:27Z</time><name>PT4000</name></trkpt>
<trkpt lat="52.043844" lon="05.743710"><ele>23.1</ele><time>2021-05-01T14:07:29Z</time><name>PT4001</name></trkpt>
<trkpt lat="52.043844" lon="05.743737"><ele>23.2</ele><time>2021-05-01T14:07:29Z</time><name>PT4002</name></trkpt>
<trkpt lat="52.043848" lon="05.743759"><ele>23.3</ele><time>2021-05-01T14:07:31Z</time><name>PT4003</name></trkpt>
<trkpt lat="52.043845" lon="05.743772"><ele>23.2</ele><time>2021-05-01T14:07:31Z</time><name>PT4004</name></trkpt>
<trkpt lat="52.043844" lon="05.743782"><ele>23.3</ele><time>2021-05-01T14:07:33Z</time><name>PT4005</name></trkpt>
<trkpt lat="52.043840" lon="05.743789"><ele>23.3</ele><time>2021-05-01T14:07:33Z</time><name>PT4006</name></trkpt>
<trkpt lat="52.043842" lon="05.743799"><ele>23.3</ele><time>2021-05-01T14:07:35Z</time><name>PT4007</name></trkpt>
<trkpt lat="52.043842" lon="05.743823"><ele>23.3</ele><time>2021-05-01T14:07:35Z</time><name>PT4008</name></trkpt>
<trkpt lat="52.043842" lon="05.743851"><ele>23.4</ele><time>2021-05-01T14:07:37Z</time><name>PT4009</name></trkpt>
<trkpt lat="52.043838" lon="05.743870"><ele>23.3</ele><time>2021-05-01T14:07:37Z</time><name>PT4010</name></trkpt>
<trkpt lat="52.043839" lon="05.743889"><ele>23.3</ele><time>2021-05-01T14:07:39Z</time><name>PT4011</name></trkpt>
<trkpt lat="52.043843" lon="05.743905"><ele>23.2</ele><time>2021-05-01T14:07:39Z</time><name>PT4012</name></trkpt>
<trkpt lat="52.043847" lon="05.743912"><ele>23</ele><time>2021-05-01T14:07:40Z</time><name>PT4013</name></trkpt>
<trkpt lat="52.043851" lon="05.743911"><ele>23</ele><time>2021-05-01T14:07:41Z</time><name>PT4014</name></trkpt>
<trkpt lat="52.043856" lon="05.743929"><ele>23</ele><time>2021-05-01T14:07:42Z</time><name>PT4015</name></trkpt>
<trkpt lat="52.043856" lon="05.743967"><ele>23.1</ele><time>2021-05-01T14:07:43Z</time><name>PT4016</name></trkpt>
<trkpt lat="52.043862" lon="05.744008"><ele>23.3</ele><time>2021-05-01T14:07:44Z</time><name>PT4017</name></trkpt>
<trkpt lat="52.043869" lon="05.744037"><ele>23.4</ele><time>2021-05-01T14:07:45Z</time><name>PT4018</name></trkpt>
<trkpt lat="52.043871" lon="05.744048"><ele>23.4</ele><time>2021-05-01T14:07:47Z</time><name>PT4019</name></trkpt>
<trkpt lat="52.043872" lon="05.744051"><ele>23.3</ele><time>2021-05-01T14:07:47Z</time><name>PT4020</name></trkpt>
<trkpt lat="52.043875" lon="05.744063"><ele>23.3</ele><time>2021-05-01T14:07:49Z</time><name>PT4021</name></trkpt>
<trkpt lat="52.043879" lon="05.744085"><ele>23.3</ele><time>2021-05-01T14:07:49Z</time><name>PT4022</name></trkpt>
<trkpt lat="52.043886" lon="05.744106"><ele>23.3</ele><time>2021-05-01T14:07:51Z</time><name>PT4023</name></trkpt>
<trkpt lat="52.043892" lon="05.744133"><ele>23.3</ele><time>2021-05-01T14:07:51Z</time><name>PT4024</name></trkpt>
<trkpt lat="52.043897" lon="05.744163"><ele>23.2</ele><time>2021-05-01T14:07:53Z</time><name>PT4025</name></trkpt>
<trkpt lat="52.043900" lon="05.744186"><ele>23.2</ele><time>2021-05-01T14:07:53Z</time><name>PT4026</name></trkpt>
<trkpt lat="52.043904" lon="05.744201"><ele>23.3</ele><time>2021-05-01T14:07:54Z</time><name>PT4027</name></trkpt>
<trkpt lat="52.043905" lon="05.744208"><ele>23.3</ele><time>2021-05-01T14:07:55Z</time><name>PT4028</name></trkpt>
<trkpt lat="52.043909" lon="05.744222"><ele>23.5</ele><time>2021-05-01T14:07:57Z</time><name>PT4029</name></trkpt>
<trkpt lat="52.043911" lon="05.744235"><ele>23.6</ele><time>2021-05-01T14:07:57Z</time><name>PT4030</name></trkpt>
<trkpt lat="52.043917" lon="05.744261"><ele>23.5</ele><time>2021-05-01T14:07:58Z</time><name>PT4031</name></trkpt>
<trkpt lat="52.043920" lon="05.744292"><ele>23.4</ele><time>2021-05-01T14:07:59Z</time><name>PT4032</name></trkpt>
<trkpt lat="52.043924" lon="05.744324"><ele>23.3</ele><time>2021-05-01T14:08:00Z</time><name>PT4033</name></trkpt>
<trkpt lat="52.043928" lon="05.744348"><ele>23.2</ele><time>2021-05-01T14:08:01Z</time><name>PT4034</name></trkpt>
<trkpt lat="52.043929" lon="05.744354"><ele>23</ele><time>2021-05-01T14:08:02Z</time><name>PT4035</name></trkpt>
<trkpt lat="52.043930" lon="05.744358"><ele>22.9</ele><time>2021-05-01T14:08:03Z</time><name>PT4036</name></trkpt>
<trkpt lat="52.043937" lon="05.744371"><ele>23.1</ele><time>2021-05-01T14:08:05Z</time><name>PT4037</name></trkpt>
<trkpt lat="52.043944" lon="05.744386"><ele>23.2</ele><time>2021-05-01T14:08:05Z</time><name>PT4038</name></trkpt>
<trkpt lat="52.043953" lon="05.744399"><ele>23.4</ele><time>2021-05-01T14:08:06Z</time><name>PT4039</name></trkpt>
<trkpt lat="52.043955" lon="05.744409"><ele>23.6</ele><time>2021-05-01T14:08:07Z</time><name>PT4040</name></trkpt>
<trkpt lat="52.043960" lon="05.744424"><ele>23.5</ele><time>2021-05-01T14:08:09Z</time><name>PT4041</name></trkpt>
<trkpt lat="52.043964" lon="05.744440"><ele>23.6</ele><time>2021-05-01T14:08:09Z</time><name>PT4042</name></trkpt>
<trkpt lat="52.043964" lon="05.744458"><ele>23.8</ele><time>2021-05-01T14:08:11Z</time><name>PT4043</name></trkpt>
<trkpt lat="52.043963" lon="05.744473"><ele>23.9</ele><time>2021-05-01T14:08:11Z</time><name>PT4044</name></trkpt>
<trkpt lat="52.043964" lon="05.744489"><ele>24.1</ele><time>2021-05-01T14:08:13Z</time><name>PT4045</name></trkpt>
<trkpt lat="52.043965" lon="05.744505"><ele>24.2</ele><time>2021-05-01T14:08:13Z</time><name>PT4046</name></trkpt>
<trkpt lat="52.043968" lon="05.744524"><ele>24.1</ele><time>2021-05-01T14:08:15Z</time><name>PT4047</name></trkpt>
<trkpt lat="52.043972" lon="05.744541"><ele>24.1</ele><time>2021-05-01T14:08:15Z</time><name>PT4048</name></trkpt>
<trkpt lat="52.043976" lon="05.744561"><ele>23.9</ele><time>2021-05-01T14:08:17Z</time><name>PT4049</name></trkpt>
<trkpt lat="52.043980" lon="05.744576"><ele>23.8</ele><time>2021-05-01T14:08:17Z</time><name>PT4050</name></trkpt>
<trkpt lat="52.043982" lon="05.744589"><ele>23.8</ele><time>2021-05-01T14:08:19Z</time><name>PT4051</name></trkpt>
<trkpt lat="52.043985" lon="05.744605"><ele>23.8</ele><time>2021-05-01T14:08:19Z</time><name>PT4052</name></trkpt>
<trkpt lat="52.043985" lon="05.744621"><ele>23.7</ele><time>2021-05-01T14:08:20Z</time><name>PT4053</name></trkpt>
<trkpt lat="52.043987" lon="05.744632"><ele>23.5</ele><time>2021-05-01T14:08:21Z</time><name>PT4054</name></trkpt>
<trkpt lat="52.043990" lon="05.744643"><ele>23.6</ele><time>2021-05-01T14:08:23Z</time><name>PT4055</name></trkpt>
<trkpt lat="52.043991" lon="05.744651"><ele>23.6</ele><time>2021-05-01T14:08:23Z</time><name>PT4056</name></trkpt>
<trkpt lat="52.043993" lon="05.744658"><ele>23.4</ele><time>2021-05-01T14:08:25Z</time><name>PT4057</name></trkpt>
<trkpt lat="52.043995" lon="05.744677"><ele>23.4</ele><time>2021-05-01T14:08:25Z</time><name>PT4058</name></trkpt>
<trkpt lat="52.043996" lon="05.744695"><ele>23.4</ele><time>2021-05-01T14:08:26Z</time><name>PT4059</name></trkpt>
<trkpt lat="52.043996" lon="05.744715"><ele>23.4</ele><time>2021-05-01T14:08:27Z</time><name>PT4060</name></trkpt>
<trkpt lat="52.043996" lon="05.744742"><ele>23.3</ele><time>2021-05-01T14:08:28Z</time><name>PT4061</name></trkpt>
<trkpt lat="52.044000" lon="05.744769"><ele>23.3</ele><time>2021-05-01T14:08:29Z</time><name>PT4062</name></trkpt>
<trkpt lat="52.044002" lon="05.744784"><ele>23.3</ele><time>2021-05-01T14:08:30Z</time><name>PT4063</name></trkpt>
<trkpt lat="52.044005" lon="05.744793"><ele>23.4</ele><time>2021-05-01T14:08:31Z</time><name>PT4064</name></trkpt>
<trkpt lat="52.044007" lon="05.744805"><ele>23.4</ele><time>2021-05-01T14:08:33Z</time><name>PT4065</name></trkpt>
<trkpt lat="52.044008" lon="05.744808"><ele>23.5</ele><time>2021-05-01T14:08:33Z</time><name>PT4066</name></trkpt>
<trkpt lat="52.044011" lon="05.744820"><ele>23.6</ele><time>2021-05-01T14:08:34Z</time><name>PT4067</name></trkpt>
<trkpt lat="52.044015" lon="05.744839"><ele>23.4</ele><time>2021-05-01T14:08:35Z</time><name>PT4068</name></trkpt>
<trkpt lat="52.044016" lon="05.744863"><ele>23.6</ele><time>2021-05-01T14:08:36Z</time><name>PT4069</name></trkpt>
<trkpt lat="52.044017" lon="05.744898"><ele>23.4</ele><time>2021-05-01T14:08:37Z</time><name>PT4070</name></trkpt>
<trkpt lat="52.044019" lon="05.744921"><ele>23.4</ele><time>2021-05-01T14:08:39Z</time><name>PT4071</name></trkpt>
<trkpt lat="52.044023" lon="05.744936"><ele>23.3</ele><time>2021-05-01T14:08:39Z</time><name>PT4072</name></trkpt>
<trkpt lat="52.044023" lon="05.744944"><ele>23.3</ele><time>2021-05-01T14:08:40Z</time><name>PT4073</name></trkpt>
<trkpt lat="52.044025" lon="05.744951"><ele>23.3</ele><time>2021-05-01T14:08:41Z</time><name>PT4074</name></trkpt>
<trkpt lat="52.044027" lon="05.744976"><ele>23.5</ele><time>2021-05-01T14:08:42Z</time><name>PT4075</name></trkpt>
<trkpt lat="52.044030" lon="05.745003"><ele>23.6</ele><time>2021-05-01T14:08:43Z</time><name>PT4076</name></trkpt>
<trkpt lat="52.044028" lon="05.745030"><ele>23.7</ele><time>2021-05-01T14:08:45Z</time><name>PT4077</name></trkpt>
<trkpt lat="52.044026" lon="05.745061"><ele>23.6</ele><time>2021-05-01T14:08:45Z</time><name>PT4078</name></trkpt>
<trkpt lat="52.044029" lon="05.745084"><ele>23.5</ele><time>2021-05-01T14:08:47Z</time><name>PT4079</name></trkpt>
<trkpt lat="52.044032" lon="05.745101"><ele>23.3</ele><time>2021-05-01T14:08:47Z</time><name>PT4080</name></trkpt>
<trkpt lat="52.044033" lon="05.745108"><ele>23.3</ele><time>2021-05-01T14:08:49Z</time><name>PT4081</name></trkpt>
<trkpt lat="52.044036" lon="05.745116"><ele>23.3</ele><time>2021-05-01T14:08:49Z</time><name>PT4082</name></trkpt>
<trkpt lat="52.044039" lon="05.745129"><ele>23.4</ele><time>2021-05-01T14:08:51Z</time><name>PT4083</name></trkpt>
<trkpt lat="52.044044" lon="05.745154"><ele>23.5</ele><time>2021-05-01T14:08:51Z</time><name>PT4084</name></trkpt>
<trkpt lat="52.044045" lon="05.745182"><ele>23.7</ele><time>2021-05-01T14:08:52Z</time><name>PT4085</name></trkpt>
<trkpt lat="52.044046" lon="05.745217"><ele>23.6</ele><time>2021-05-01T14:08:53Z</time><name>PT4086</name></trkpt>
<trkpt lat="52.044048" lon="05.745238"><ele>23.7</ele><time>2021-05-01T14:08:55Z</time><name>PT4087</name></trkpt>
<trkpt lat="52.044053" lon="05.745255"><ele>23.5</ele><time>2021-05-01T14:08:55Z</time><name>PT4088</name></trkpt>
<trkpt lat="52.044052" lon="05.745263"><ele>23.5</ele><time>2021-05-01T14:08:56Z</time><name>PT4089</name></trkpt>
<trkpt lat="52.044052" lon="05.745267"><ele>23.4</ele><time>2021-05-01T14:08:57Z</time><name>PT4090</name></trkpt>
<trkpt lat="52.044050" lon="05.745268"><ele>23.4</ele><time>2021-05-01T14:08:58Z</time><name>PT4091</name></trkpt>
<trkpt lat="52.044051" lon="05.745278"><ele>23.3</ele><time>2021-05-01T14:08:59Z</time><name>PT4092</name></trkpt>
<trkpt lat="52.044051" lon="05.745297"><ele>23.3</ele><time>2021-05-01T14:09:01Z</time><name>PT4093</name></trkpt>
<trkpt lat="52.044051" lon="05.745321"><ele>23.3</ele><time>2021-05-01T14:09:01Z</time><name>PT4094</name></trkpt>
<trkpt lat="52.044045" lon="05.745352"><ele>23.4</ele><time>2021-05-01T14:09:02Z</time><name>PT4095</name></trkpt>
<trkpt lat="52.044043" lon="05.745387"><ele>23.5</ele><time>2021-05-01T14:09:03Z</time><name>PT4096</name></trkpt>
<trkpt lat="52.044043" lon="05.745411"><ele>23.4</ele><time>2021-05-01T14:09:05Z</time><name>PT4097</name></trkpt>
<trkpt lat="52.044046" lon="05.745428"><ele>23.6</ele><time>2021-05-01T14:09:05Z</time><name>PT4098</name></trkpt>
<trkpt lat="52.044050" lon="05.745439"><ele>23.6</ele><time>2021-05-01T14:09:06Z</time><name>PT4099</name></trkpt>
<trkpt lat="52.044054" lon="05.745450"><ele>23.7</ele><time>2021-05-01T14:09:07Z</time><name>PT4100</name></trkpt>
<trkpt lat="52.044056" lon="05.745457"><ele>23.6</ele><time>2021-05-01T14:09:08Z</time><name>PT4101</name></trkpt>
<trkpt lat="52.044057" lon="05.745467"><ele>23.6</ele><time>2021-05-01T14:09:09Z</time><name>PT4102</name></trkpt>
<trkpt lat="52.044058" lon="05.745489"><ele>23.5</ele><time>2021-05-01T14:09:11Z</time><name>PT4103</name></trkpt>
<trkpt lat="52.044058" lon="05.745518"><ele>23.6</ele><time>2021-05-01T14:09:11Z</time><name>PT4104</name></trkpt>
<trkpt lat="52.044060" lon="05.745547"><ele>23.5</ele><time>2021-05-01T14:09:12Z</time><name>PT4105</name></trkpt>
<trkpt lat="52.044060" lon="05.745584"><ele>23.6</ele><time>2021-05-01T14:09:13Z</time><name>PT4106</name></trkpt>
<trkpt lat="52.044062" lon="05.745609"><ele>23.7</ele><time>2021-05-01T14:09:15Z</time><name>PT4107</name></trkpt>
<trkpt lat="52.044066" lon="05.745622"><ele>23.5</ele><time>2021-05-01T14:09:15Z</time><name>PT4108</name></trkpt>
<trkpt lat="52.044066" lon="05.745629"><ele>23.5</ele><time>2021-05-01T14:09:17Z</time><name>PT4109</name></trkpt>
<trkpt lat="52.044071" lon="05.745639"><ele>23.7</ele><time>2021-05-01T14:09:17Z</time><name>PT4110</name></trkpt>
<trkpt lat="52.044076" lon="05.745652"><ele>23.7</ele><time>2021-05-01T14:09:19Z</time><name>PT4111</name></trkpt>
<trkpt lat="52.044080" lon="05.745681"><ele>23.7</ele><time>2021-05-01T14:09:19Z</time><name>PT4112</name></trkpt>
<trkpt lat="52.044078" lon="05.745715"><ele>23.7</ele><time>2021-05-01T14:09:20Z</time><name>PT4113</name></trkpt>
<trkpt lat="52.044078" lon="05.745744"><ele>23.8</ele><time>2021-05-01T14:09:21Z</time><name>PT4114</name></trkpt>
<trkpt lat="52.044079" lon="05.745752"><ele>23.8</ele><time>2021-05-01T14:09:22Z</time><name>PT4115</name></trkpt>
<trkpt lat="52.044080" lon="05.745755"><ele>23.8</ele><time>2021-05-01T14:09:23Z</time><name>PT4116</name></trkpt>
<trkpt lat="52.044083" lon="05.745764"><ele>23.9</ele><time>2021-05-01T14:09:25Z</time><name>PT4117</name></trkpt>
<trkpt lat="52.044084" lon="05.745779"><ele>23.9</ele><time>2021-05-01T14:09:25Z</time><name>PT4118</name></trkpt>
<trkpt lat="52.044086" lon="05.745787"><ele>23.8</ele><time>2021-05-01T14:09:26Z</time><name>PT4119</name></trkpt>
<trkpt lat="52.044088" lon="05.745792"><ele>23.7</ele><time>2021-05-01T14:09:27Z</time><name>PT4120</name></trkpt>
<trkpt lat="52.044089" lon="05.745806"><ele>23.7</ele><time>2021-05-01T14:09:28Z</time><name>PT4121</name></trkpt>
<trkpt lat="52.044091" lon="05.745811"><ele>23.6</ele><time>2021-05-01T14:09:29Z</time><name>PT4122</name></trkpt>
<trkpt lat="52.044090" lon="05.745813"><ele>23.5</ele><time>2021-05-01T14:09:31Z</time><name>PT4123</name></trkpt>
<trkpt lat="52.044092" lon="05.745834"><ele>23.5</ele><time>2021-05-01T14:09:31Z</time><name>PT4124</name></trkpt>
<trkpt lat="52.044096" lon="05.745852"><ele>23.5</ele><time>2021-05-01T14:09:32Z</time><name>PT4125</name></trkpt>
<trkpt lat="52.044101" lon="05.745864"><ele>23.3</ele><time>2021-05-01T14:09:33Z</time><name>PT4126</name></trkpt>
<trkpt lat="52.044103" lon="05.745870"><ele>23.4</ele><time>2021-05-01T14:09:34Z</time><name>PT4127</name></trkpt>
<trkpt lat="52.044108" lon="05.745883"><ele>23.5</ele><time>2021-05-01T14:09:35Z</time><name>PT4128</name></trkpt>
<trkpt lat="52.044112" lon="05.745901"><ele>23.5</ele><time>2021-05-01T14:09:37Z</time><name>PT4129</name></trkpt>
<trkpt lat="52.044113" lon="05.745926"><ele>23.5</ele><time>2021-05-01T14:09:37Z</time><name>PT4130</name></trkpt>
<trkpt lat="52.044113" lon="05.745945"><ele>23.5</ele><time>2021-05-01T14:09:39Z</time><name>PT4131</name></trkpt>
<trkpt lat="52.044115" lon="05.745954"><ele>23.4</ele><time>2021-05-01T14:09:39Z</time><name>PT4132</name></trkpt>
<trkpt lat="52.044116" lon="05.745957"><ele>23.6</ele><time>2021-05-01T14:09:40Z</time><name>PT4133</name></trkpt>
<trkpt lat="52.044120" lon="05.745977"><ele>23.6</ele><time>2021-05-01T14:09:41Z</time><name>PT4134</name></trkpt>
<trkpt lat="52.044127" lon="05.746009"><ele>23.6</ele><time>2021-05-01T14:09:43Z</time><name>PT4135</name></trkpt>
<trkpt lat="52.044127" lon="05.746036"><ele>23.8</ele><time>2021-05-01T14:09:43Z</time><name>PT4136</name></trkpt>
<trkpt lat="52.044135" lon="05.746057"><ele>23.9</ele><time>2021-05-01T14:09:45Z</time><name>PT4137</name></trkpt>
<trkpt lat="52.044142" lon="05.746075"><ele>23.8</ele><time>2021-05-01T14:09:45Z</time><name>PT4138</name></trkpt>
<trkpt lat="52.044148" lon="05.746089"><ele>23.9</ele><time>2021-05-01T14:09:46Z</time><name>PT4139</name></trkpt>
<trkpt lat="52.044153" lon="05.746100"><ele>23.9</ele><time>2021-05-01T14:09:47Z</time><name>PT4140</name></trkpt>
<trkpt lat="52.044157" lon="05.746115"><ele>24</ele><time>2021-05-01T14:09:49Z</time><name>PT4141</name></trkpt>
<trkpt lat="52.044160" lon="05.746138"><ele>24</ele><time>2021-05-01T14:09:49Z</time><name>PT4142</name></trkpt>
<trkpt lat="52.044159" lon="05.746155"><ele>23.9</ele><time>2021-05-01T14:09:51Z</time><name>PT4143</name></trkpt>
<trkpt lat="52.044159" lon="05.746157"><ele>23.8</ele><time>2021-05-01T14:09:51Z</time><name>PT4144</name></trkpt>
<trkpt lat="52.044160" lon="05.746166"><ele>23.6</ele><time>2021-05-01T14:09:52Z</time><name>PT4145</name></trkpt>
<trkpt lat="52.044163" lon="05.746187"><ele>23.6</ele><time>2021-05-01T14:09:53Z</time><name>PT4146</name></trkpt>
<trkpt lat="52.044166" lon="05.746212"><ele>23.6</ele><time>2021-05-01T14:09:54Z</time><name>PT4147</name></trkpt>
<trkpt lat="52.044167" lon="05.746236"><ele>23.6</ele><time>2021-05-01T14:09:55Z</time><name>PT4148</name></trkpt>
<trkpt lat="52.044167" lon="05.746247"><ele>23.8</ele><time>2021-05-01T14:09:57Z</time><name>PT4149</name></trkpt>
<trkpt lat="52.044168" lon="05.746254"><ele>23.6</ele><time>2021-05-01T14:09:57Z</time><name>PT4150</name></trkpt>
<trkpt lat="52.044168" lon="05.746259"><ele>23.4</ele><time>2021-05-01T14:09:58Z</time><name>PT4151</name></trkpt>
<trkpt lat="52.044173" lon="05.746276"><ele>23.3</ele><time>2021-05-01T14:09:59Z</time><name>PT4152</name></trkpt>
<trkpt lat="52.044181" lon="05.746304"><ele>23.5</ele><time>2021-05-01T14:10:00Z</time><name>PT4153</name></trkpt>
<trkpt lat="52.044183" lon="05.746334"><ele>23.4</ele><time>2021-05-01T14:10:01Z</time><name>PT4154</name></trkpt>
<trkpt lat="52.044185" lon="05.746356"><ele>23.5</ele><time>2021-05-01T14:10:02Z</time><name>PT4155</name></trkpt>
<trkpt lat="52.044186" lon="05.746372"><ele>23.5</ele><time>2021-05-01T14:10:03Z</time><name>PT4156</name></trkpt>
<trkpt lat="52.044187" lon="05.746375"><ele>23.6</ele><time>2021-05-01T14:10:04Z</time><name>PT4157</name></trkpt>
<trkpt lat="52.044189" lon="05.746380"><ele>23.6</ele><time>2021-05-01T14:10:05Z</time><name>PT4158</name></trkpt>
<trkpt lat="52.044192" lon="05.746388"><ele>23.6</ele><time>2021-05-01T14:10:06Z</time><name>PT4159</name></trkpt>
<trkpt lat="52.044194" lon="05.746415"><ele>23.6</ele><time>2021-05-01T14:10:07Z</time><name>PT4160</name></trkpt>
<trkpt lat="52.044193" lon="05.746444"><ele>23.5</ele><time>2021-05-01T14:10:08Z</time><name>PT4161</name></trkpt>
<trkpt lat="52.044197" lon="05.746466"><ele>23.5</ele><time>2021-05-01T14:10:09Z</time><name>PT4162</name></trkpt>
<trkpt lat="52.044202" lon="05.746475"><ele>23.3</ele><time>2021-05-01T14:10:11Z</time><name>PT4163</name></trkpt>
<trkpt lat="52.044207" lon="05.746478"><ele>23.3</ele><time>2021-05-01T14:10:11Z</time><name>PT4164</name></trkpt>
<trkpt lat="52.044208" lon="05.746484"><ele>23.3</ele><time>2021-05-01T14:10:13Z</time><name>PT4165</name></trkpt>
<trkpt lat="52.044212" lon="05.746499"><ele>23.3</ele><time>2021-05-01T14:10:13Z</time><name>PT4166</name></trkpt>
<trkpt lat="52.044214" lon="05.746525"><ele>23.3</ele><time>2021-05-01T14:10:14Z</time><name>PT4167</name></trkpt>
<trkpt lat="52.044217" lon="05.746555"><ele>23.3</ele><time>2021-05-01T14:10:15Z</time><name>PT4168</name></trkpt>
<trkpt lat="52.044220" lon="05.746574"><ele>23.3</ele><time>2021-05-01T14:10:17Z</time><name>PT4169</name></trkpt>
<trkpt lat="52.044223" lon="05.746587"><ele>23.2</ele><time>2021-05-01T14:10:17Z</time><name>PT4170</name></trkpt>
<trkpt lat="52.044224" lon="05.746594"><ele>23.3</ele><time>2021-05-01T14:10:18Z</time><name>PT4171</name></trkpt>
<trkpt lat="52.044228" lon="05.746608"><ele>23.4</ele><time>2021-05-01T14:10:19Z</time><name>PT4172</name></trkpt>
<trkpt lat="52.044231" lon="05.746619"><ele>23.6</ele><time>2021-05-01T14:10:21Z</time><name>PT4173</name></trkpt>
<trkpt lat="52.044235" lon="05.746643"><ele>23.7</ele><time>2021-05-01T14:10:21Z</time><name>PT4174</name></trkpt>
<trkpt lat="52.044241" lon="05.746662"><ele>23.7</ele><time>2021-05-01T14:10:23Z</time><name>PT4175</name></trkpt>
<trkpt lat="52.044245" lon="05.746686"><ele>23.6</ele><time>2021-05-01T14:10:23Z</time><name>PT4176</name></trkpt>
<trkpt lat="52.044247" lon="05.746707"><ele>23.5</ele><time>2021-05-01T14:10:25Z</time><name>PT4177</name></trkpt>
<trkpt lat="52.044248" lon="05.746715"><ele>23.4</ele><time>2021-05-01T14:10:25Z</time><name>PT4178</name></trkpt>
<trkpt lat="52.044251" lon="05.746723"><ele>23.5</ele><time>2021-05-01T14:10:27Z</time><name>PT4179</name></trkpt>
<trkpt lat="52.044253" lon="05.746734"><ele>23.4</ele><time>2021-05-01T14:10:27Z</time><name>PT4180</name></trkpt>
<trkpt lat="52.044256" lon="05.746748"><ele>23.4</ele><time>2021-05-01T14:10:28Z</time><name>PT4181</name></trkpt>
<trkpt lat="52.044258" lon="05.746772"><ele>23.4</ele><time>2021-05-01T14:10:29Z</time><name>PT4182</name></trkpt>
<trkpt lat="52.044259" lon="05.746804"><ele>23.5</ele><time>2021-05-01T14:10:30Z</time><name>PT4183</name></trkpt>
<trkpt lat="52.044262" lon="05.746821"><ele>23.3</ele><time>2021-05-01T14:10:32Z</time><name>PT4184</name></trkpt>
<trkpt lat="52.044265" lon="05.746829"><ele>23.4</ele><time>2021-05-01T14:10:32Z</time><name>PT4185</name></trkpt>
<trkpt lat="52.044270" lon="05.746836"><ele>23.3</ele><time>2021-05-01T14:10:33Z</time><name>PT4186</name></trkpt>
<trkpt lat="52.044273" lon="05.746836"><ele>23.3</ele><time>2021-05-01T14:10:34Z</time><name>PT4187</name></trkpt>
<trkpt lat="52.044276" lon="05.746836"><ele>23.3</ele><time>2021-05-01T14:10:35Z</time><name>PT4188</name></trkpt>
<trkpt lat="52.044280" lon="05.746834"><ele>23.3</ele><time>2021-05-01T14:10:37Z</time><name>PT4189</name></trkpt>
<trkpt lat="52.044283" lon="05.746829"><ele>23.3</ele><time>2021-05-01T14:10:44Z</time><name>PT4190</name></trkpt>
<trkpt lat="52.044284" lon="05.746839"><ele>23.3</ele><time>2021-05-01T14:10:45Z</time><name>PT4191</name></trkpt>
<trkpt lat="52.044283" lon="05.746851"><ele>23.6</ele><time>2021-05-01T14:10:47Z</time><name>PT4192</name></trkpt>
<trkpt lat="52.044282" lon="05.746859"><ele>23.4</ele><time>2021-05-01T14:10:47Z</time><name>PT4193</name></trkpt>
<trkpt lat="52.044282" lon="05.746861"><ele>23.5</ele><time>2021-05-01T14:10:49Z</time><name>PT4194</name></trkpt>
<trkpt lat="52.044287" lon="05.746859"><ele>23.6</ele><time>2021-05-01T14:10:49Z</time><name>PT4195</name></trkpt>
<trkpt lat="52.044290" lon="05.746858"><ele>23.7</ele><time>2021-05-01T14:10:50Z</time><name>PT4196</name></trkpt>
<trkpt lat="52.044297" lon="05.746861"><ele>23.7</ele><time>2021-05-01T14:10:51Z</time><name>PT4197</name></trkpt>
<trkpt lat="52.044298" lon="05.746859"><ele>23.8</ele><time>2021-05-01T14:10:52Z</time><name>PT4198</name></trkpt>
<trkpt lat="52.044298" lon="05.746856"><ele>23.8</ele><time>2021-05-01T14:10:53Z</time><name>PT4199</name></trkpt>
<trkpt lat="52.044298" lon="05.746853"><ele>23.8</ele><time>2021-05-01T14:10:55Z</time><name>PT4200</name></trkpt>
<trkpt lat="52.044300" lon="05.746854"><ele>23.7</ele><time>2021-05-01T14:10:55Z</time><name>PT4201</name></trkpt>
<trkpt lat="52.044301" lon="05.746856"><ele>23.7</ele><time>2021-05-01T14:10:57Z</time><name>PT4202</name></trkpt>
<trkpt lat="52.044303" lon="05.746864"><ele>23.6</ele><time>2021-05-01T14:10:57Z</time><name>PT4203</name></trkpt>
<trkpt lat="52.044305" lon="05.746866"><ele>23.5</ele><time>2021-05-01T14:10:59Z</time><name>PT4204</name></trkpt>
<trkpt lat="52.044307" lon="05.746865"><ele>23.6</ele><time>2021-05-01T14:10:59Z</time><name>PT4205</name></trkpt>
<trkpt lat="52.044309" lon="05.746864"><ele>23.8</ele><time>2021-05-01T14:11:00Z</time><name>PT4206</name></trkpt>
<trkpt lat="52.044310" lon="05.746864"><ele>23.7</ele><time>2021-05-01T14:11:01Z</time><name>PT4207</name></trkpt>
<trkpt lat="52.044311" lon="05.746863"><ele>23.5</ele><time>2021-05-01T14:11:03Z</time><name>PT4208</name></trkpt>
<trkpt lat="52.044316" lon="05.746876"><ele>23.6</ele><time>2021-05-01T14:11:04Z</time><name>PT4209</name></trkpt>
<trkpt lat="52.044318" lon="05.746893"><ele>23.4</ele><time>2021-05-01T14:11:05Z</time><name>PT4210</name></trkpt>
<trkpt lat="52.044317" lon="05.746908"><ele>23.5</ele><time>2021-05-01T14:11:07Z</time><name>PT4211</name></trkpt>
<trkpt lat="52.044318" lon="05.746924"><ele>23.5</ele><time>2021-05-01T14:11:07Z</time><name>PT4212</name></trkpt>
<trkpt lat="52.044320" lon="05.746940"><ele>23.4</ele><time>2021-05-01T14:11:08Z</time><name>PT4213</name></trkpt>
<trkpt lat="52.044324" lon="05.746955"><ele>23.3</ele><time>2021-05-01T14:11:09Z</time><name>PT4214</name></trkpt>
<trkpt lat="52.044327" lon="05.746971"><ele>23.5</ele><time>2021-05-01T14:11:10Z</time><name>PT4215</name></trkpt>
<trkpt lat="52.044330" lon="05.746988"><ele>23.8</ele><time>2021-05-01T14:11:11Z</time><name>PT4216</name></trkpt>
<trkpt lat="52.044330" lon="05.747001"><ele>23.5</ele><time>2021-05-01T14:11:12Z</time><name>PT4217</name></trkpt>
<trkpt lat="52.044329" lon="05.747010"><ele>23.6</ele><time>2021-05-01T14:11:13Z</time><name>PT4218</name></trkpt>
<trkpt lat="52.044329" lon="05.747015"><ele>23.8</ele><time>2021-05-01T14:11:14Z</time><name>PT4219</name></trkpt>
<trkpt lat="52.044331" lon="05.747026"><ele>23.4</ele><time>2021-05-01T14:11:15Z</time><name>PT4220</name></trkpt>
<trkpt lat="52.044331" lon="05.747047"><ele>23.3</ele><time>2021-05-01T14:11:16Z</time><name>PT4221</name></trkpt>
<trkpt lat="52.044332" lon="05.747077"><ele>23.3</ele><time>2021-05-01T14:11:17Z</time><name>PT4222</name></trkpt>
<trkpt lat="52.044335" lon="05.747104"><ele>23.3</ele><time>2021-05-01T14:11:18Z</time><name>PT4223</name></trkpt>
<trkpt lat="52.044340" lon="05.747124"><ele>23.2</ele><time>2021-05-01T14:11:19Z</time><name>PT4224</name></trkpt>
<trkpt lat="52.044341" lon="05.747134"><ele>23.3</ele><time>2021-05-01T14:11:21Z</time><name>PT4225</name></trkpt>
<trkpt lat="52.044342" lon="05.747140"><ele>23.3</ele><time>2021-05-01T14:11:21Z</time><name>PT4226</name></trkpt>
<trkpt lat="52.044341" lon="05.747154"><ele>23.5</ele><time>2021-05-01T14:11:22Z</time><name>PT4227</name></trkpt>
<trkpt lat="52.044348" lon="05.747174"><ele>23.7</ele><time>2021-05-01T14:11:23Z</time><name>PT4228</name></trkpt>
<trkpt lat="52.044353" lon="05.747208"><ele>23.6</ele><time>2021-05-01T14:11:24Z</time><name>PT4229</name></trkpt>
<trkpt lat="52.044356" lon="05.747243"><ele>23.7</ele><time>2021-05-01T14:11:25Z</time><name>PT4230</name></trkpt>
<trkpt lat="52.044357" lon="05.747268"><ele>23.8</ele><time>2021-05-01T14:11:26Z</time><name>PT4231</name></trkpt>
<trkpt lat="52.044356" lon="05.747275"><ele>23.5</ele><time>2021-05-01T14:11:27Z</time><name>PT4232</name></trkpt>
<trkpt lat="52.044361" lon="05.747272"><ele>23.5</ele><time>2021-05-01T14:11:28Z</time><name>PT4233</name></trkpt>
<trkpt lat="52.044361" lon="05.747270"><ele>23.6</ele><time>2021-05-01T14:11:29Z</time><name>PT4234</name></trkpt>
<trkpt lat="52.044360" lon="05.747285"><ele>23.7</ele><time>2021-05-01T14:11:30Z</time><name>PT4235</name></trkpt>
<trkpt lat="52.044361" lon="05.747303"><ele>23.5</ele><time>2021-05-01T14:11:31Z</time><name>PT4236</name></trkpt>
<trkpt lat="52.044362" lon="05.747316"><ele>23.6</ele><time>2021-05-01T14:11:32Z</time><name>PT4237</name></trkpt>
<trkpt lat="52.044363" lon="05.747321"><ele>23.5</ele><time>2021-05-01T14:11:33Z</time><name>PT4238</name></trkpt>
<trkpt lat="52.044366" lon="05.747332"><ele>23.4</ele><time>2021-05-01T14:11:35Z</time><name>PT4239</name></trkpt>
<trkpt lat="52.044370" lon="05.747358"><ele>23.4</ele><time>2021-05-01T14:11:35Z</time><name>PT4240</name></trkpt>
<trkpt lat="52.044377" lon="05.747380"><ele>23.7</ele><time>2021-05-01T14:11:36Z</time><name>PT4241</name></trkpt>
<trkpt lat="52.044382" lon="05.747402"><ele>23.3</ele><time>2021-05-01T14:11:37Z</time><name>PT4242</name></trkpt>
<trkpt lat="52.044384" lon="05.747421"><ele>23.8</ele><time>2021-05-01T14:11:39Z</time><name>PT4243</name></trkpt>
<trkpt lat="52.044384" lon="05.747438"><ele>23.8</ele><time>2021-05-01T14:11:39Z</time><name>PT4244</name></trkpt>
<trkpt lat="52.044382" lon="05.747454"><ele>23.8</ele><time>2021-05-01T14:11:41Z</time><name>PT4245</name></trkpt>
<trkpt lat="52.044384" lon="05.747473"><ele>23.7</ele><time>2021-05-01T14:11:41Z</time><name>PT4246</name></trkpt>
<trkpt lat="52.044386" lon="05.747490"><ele>23.9</ele><time>2021-05-01T14:11:43Z</time><name>PT4247</name></trkpt>
<trkpt lat="52.044385" lon="05.747503"><ele>24</ele><time>2021-05-01T14:11:43Z</time><name>PT4248</name></trkpt>
<trkpt lat="52.044384" lon="05.747515"><ele>24.2</ele><time>2021-05-01T14:11:44Z</time><name>PT4249</name></trkpt>
<trkpt lat="52.044388" lon="05.747529"><ele>24.3</ele><time>2021-05-01T14:11:45Z</time><name>PT4250</name></trkpt>
<trkpt lat="52.044397" lon="05.747555"><ele>24.1</ele><time>2021-05-01T14:11:46Z</time><name>PT4251</name></trkpt>
<trkpt lat="52.044403" lon="05.747583"><ele>23.8</ele><time>2021-05-01T14:11:47Z</time><name>PT4252</name></trkpt>
<trkpt lat="52.044406" lon="05.747602"><ele>23.7</ele><time>2021-05-01T14:11:49Z</time><name>PT4253</name></trkpt>
<trkpt lat="52.044406" lon="05.747614"><ele>23.7</ele><time>2021-05-01T14:11:49Z</time><name>PT4254</name></trkpt>
<trkpt lat="52.044405" lon="05.747619"><ele>23.6</ele><time>2021-05-01T14:11:50Z</time><name>PT4255</name></trkpt>
<trkpt lat="52.044406" lon="05.747630"><ele>23.8</ele><time>2021-05-01T14:11:51Z</time><name>PT4256</name></trkpt>
<trkpt lat="52.044408" lon="05.747648"><ele>23.7</ele><time>2021-05-01T14:11:52Z</time><name>PT4257</name></trkpt>
<trkpt lat="52.044411" lon="05.747664"><ele>23.7</ele><time>2021-05-01T14:11:53Z</time><name>PT4258</name></trkpt>
<trkpt lat="52.044413" lon="05.747697"><ele>23.6</ele><time>2021-05-01T14:11:54Z</time><name>PT4259</name></trkpt>
<trkpt lat="52.044412" lon="05.747728"><ele>23.6</ele><time>2021-05-01T14:11:55Z</time><name>PT4260</name></trkpt>
<trkpt lat="52.044412" lon="05.747747"><ele>23.7</ele><time>2021-05-01T14:11:56Z</time><name>PT4261</name></trkpt>
<trkpt lat="52.044412" lon="05.747755"><ele>23.8</ele><time>2021-05-01T14:11:57Z</time><name>PT4262</name></trkpt>
<trkpt lat="52.044409" lon="05.747763"><ele>23.9</ele><time>2021-05-01T14:11:58Z</time><name>PT4263</name></trkpt>
<trkpt lat="52.044412" lon="05.747769"><ele>23.9</ele><time>2021-05-01T14:11:59Z</time><name>PT4264</name></trkpt>
<trkpt lat="52.044413" lon="05.747785"><ele>23.8</ele><time>2021-05-01T14:12:00Z</time><name>PT4265</name></trkpt>
<trkpt lat="52.044417" lon="05.747814"><ele>23.8</ele><time>2021-05-01T14:12:01Z</time><name>PT4266</name></trkpt>
<trkpt lat="52.044421" lon="05.747848"><ele>23.7</ele><time>2021-05-01T14:12:03Z</time><name>PT4267</name></trkpt>
<trkpt lat="52.044424" lon="05.747876"><ele>23.8</ele><time>2021-05-01T14:12:03Z</time><name>PT4268</name></trkpt>
<trkpt lat="52.044425" lon="05.747894"><ele>23.8</ele><time>2021-05-01T14:12:04Z</time><name>PT4269</name></trkpt>
<trkpt lat="52.044426" lon="05.747898"><ele>23.9</ele><time>2021-05-01T14:12:05Z</time><name>PT4270</name></trkpt>
<trkpt lat="52.044422" lon="05.747903"><ele>24</ele><time>2021-05-01T14:12:07Z</time><name>PT4271</name></trkpt>
<trkpt lat="52.044425" lon="05.747913"><ele>23.9</ele><time>2021-05-01T14:12:07Z</time><name>PT4272</name></trkpt>
<trkpt lat="52.044430" lon="05.747933"><ele>23.8</ele><time>2021-05-01T14:12:08Z</time><name>PT4273</name></trkpt>
<trkpt lat="52.044435" lon="05.747963"><ele>23.8</ele><time>2021-05-01T14:12:09Z</time><name>PT4274</name></trkpt>
<trkpt lat="52.044439" lon="05.747987"><ele>23.7</ele><time>2021-05-01T14:12:10Z</time><name>PT4275</name></trkpt>
<trkpt lat="52.044442" lon="05.748003"><ele>23.8</ele><time>2021-05-01T14:12:11Z</time><name>PT4276</name></trkpt>
<trkpt lat="52.044443" lon="05.748016"><ele>23.8</ele><time>2021-05-01T14:12:12Z</time><name>PT4277</name></trkpt>
<trkpt lat="52.044445" lon="05.748022"><ele>23.8</ele><time>2021-05-01T14:12:13Z</time><name>PT4278</name></trkpt>
<trkpt lat="52.044447" lon="05.748036"><ele>23.8</ele><time>2021-05-01T14:12:15Z</time><name>PT4279</name></trkpt>
<trkpt lat="52.044448" lon="05.748061"><ele>23.9</ele><time>2021-05-01T14:12:15Z</time><name>PT4280</name></trkpt>
<trkpt lat="52.044448" lon="05.748088"><ele>23.9</ele><time>2021-05-01T14:12:17Z</time><name>PT4281</name></trkpt>
<trkpt lat="52.044451" lon="05.748110"><ele>23.9</ele><time>2021-05-01T14:12:17Z</time><name>PT4282</name></trkpt>
<trkpt lat="52.044455" lon="05.748125"><ele>23.8</ele><time>2021-05-01T14:12:18Z</time><name>PT4283</name></trkpt>
<trkpt lat="52.044457" lon="05.748132"><ele>23.8</ele><time>2021-05-01T14:12:19Z</time><name>PT4284</name></trkpt>
<trkpt lat="52.044459" lon="05.748140"><ele>23.7</ele><time>2021-05-01T14:12:20Z</time><name>PT4285</name></trkpt>
<trkpt lat="52.044465" lon="05.748153"><ele>23.7</ele><time>2021-05-01T14:12:21Z</time><name>PT4286</name></trkpt>
<trkpt lat="52.044469" lon="05.748175"><ele>23.8</ele><time>2021-05-01T14:12:22Z</time><name>PT4287</name></trkpt>
<trkpt lat="52.044474" lon="05.748199"><ele>24</ele><time>2021-05-01T14:12:23Z</time><name>PT4288</name></trkpt>
<trkpt lat="52.044477" lon="05.748221"><ele>24</ele><time>2021-05-01T14:12:24Z</time><name>PT4289</name></trkpt>
<trkpt lat="52.044481" lon="05.748246"><ele>24.2</ele><time>2021-05-01T14:12:25Z</time><name>PT4290</name></trkpt>
<trkpt lat="52.044484" lon="05.748262"><ele>24.2</ele><time>2021-05-01T14:12:26Z</time><name>PT4291</name></trkpt>
<trkpt lat="52.044487" lon="05.748270"><ele>24.3</ele><time>2021-05-01T14:12:27Z</time><name>PT4292</name></trkpt>
<trkpt lat="52.044491" lon="05.748279"><ele>24.3</ele><time>2021-05-01T14:12:28Z</time><name>PT4293</name></trkpt>
<trkpt lat="52.044493" lon="05.748288"><ele>24.3</ele><time>2021-05-01T14:12:29Z</time><name>PT4294</name></trkpt>
<trkpt lat="52.044497" lon="05.748311"><ele>24.2</ele><time>2021-05-01T14:12:31Z</time><name>PT4295</name></trkpt>
<trkpt lat="52.044503" lon="05.748349"><ele>24.3</ele><time>2021-05-01T14:12:31Z</time><name>PT4296</name></trkpt>
<trkpt lat="52.044509" lon="05.748379"><ele>24.2</ele><time>2021-05-01T14:12:32Z</time><name>PT4297</name></trkpt>
<trkpt lat="52.044514" lon="05.748405"><ele>24.2</ele><time>2021-05-01T14:12:33Z</time><name>PT4298</name></trkpt>
<trkpt lat="52.044518" lon="05.748416"><ele>24.2</ele><time>2021-05-01T14:12:34Z</time><name>PT4299</name></trkpt>
<trkpt lat="52.044518" lon="05.748423"><ele>24.3</ele><time>2021-05-01T14:12:35Z</time><name>PT4300</name></trkpt>
<trkpt lat="52.044518" lon="05.748431"><ele>24.3</ele><time>2021-05-01T14:12:36Z</time><name>PT4301</name></trkpt>
<trkpt lat="52.044521" lon="05.748449"><ele>24.3</ele><time>2021-05-01T14:12:37Z</time><name>PT4302</name></trkpt>
<trkpt lat="52.044528" lon="05.748473"><ele>24.3</ele><time>2021-05-01T14:12:39Z</time><name>PT4303</name></trkpt>
<trkpt lat="52.044537" lon="05.748503"><ele>24.3</ele><time>2021-05-01T14:12:39Z</time><name>PT4304</name></trkpt>
<trkpt lat="52.044542" lon="05.748539"><ele>24.3</ele><time>2021-05-01T14:12:41Z</time><name>PT4305</name></trkpt>
<trkpt lat="52.044552" lon="05.748575"><ele>24.3</ele><time>2021-05-01T14:12:41Z</time><name>PT4306</name></trkpt>
<trkpt lat="52.044557" lon="05.748598"><ele>24.3</ele><time>2021-05-01T14:12:42Z</time><name>PT4307</name></trkpt>
<trkpt lat="52.044561" lon="05.748614"><ele>24.2</ele><time>2021-05-01T14:12:43Z</time><name>PT4308</name></trkpt>
<trkpt lat="52.044563" lon="05.748624"><ele>24.3</ele><time>2021-05-01T14:12:45Z</time><name>PT4309</name></trkpt>
<trkpt lat="52.044564" lon="05.748631"><ele>24.3</ele><time>2021-05-01T14:12:45Z</time><name>PT4310</name></trkpt>
<trkpt lat="52.044564" lon="05.748632"><ele>24.3</ele><time>2021-05-01T14:12:46Z</time><name>PT4311</name></trkpt>
<trkpt lat="52.044562" lon="05.748638"><ele>24.4</ele><time>2021-05-01T14:12:47Z</time><name>PT4312</name></trkpt>
<trkpt lat="52.044566" lon="05.748656"><ele>24.3</ele><time>2021-05-01T14:12:48Z</time><name>PT4313</name></trkpt>
<trkpt lat="52.044567" lon="05.748684"><ele>24.3</ele><time>2021-05-01T14:12:49Z</time><name>PT4314</name></trkpt>
<trkpt lat="52.044567" lon="05.748705"><ele>24.3</ele><time>2021-05-01T14:12:50Z</time><name>PT4315</name></trkpt>
<trkpt lat="52.044568" lon="05.748714"><ele>24.3</ele><time>2021-05-01T14:12:51Z</time><name>PT4316</name></trkpt>
<trkpt lat="52.044566" lon="05.748715"><ele>24.4</ele><time>2021-05-01T14:12:52Z</time><name>PT4317</name></trkpt>
<trkpt lat="52.044565" lon="05.748720"><ele>24.4</ele><time>2021-05-01T14:12:53Z</time><name>PT4318</name></trkpt>
<trkpt lat="52.044566" lon="05.748730"><ele>24.4</ele><time>2021-05-01T14:12:54Z</time><name>PT4319</name></trkpt>
<trkpt lat="52.044566" lon="05.748743"><ele>24.3</ele><time>2021-05-01T14:12:55Z</time><name>PT4320</name></trkpt>
<trkpt lat="52.044566" lon="05.748769"><ele>24.3</ele><time>2021-05-01T14:12:56Z</time><name>PT4321</name></trkpt>
<trkpt lat="52.044562" lon="05.748798"><ele>24.3</ele><time>2021-05-01T14:12:57Z</time><name>PT4322</name></trkpt>
<trkpt lat="52.044563" lon="05.748815"><ele>24.3</ele><time>2021-05-01T14:12:59Z</time><name>PT4323</name></trkpt>
<trkpt lat="52.044564" lon="05.748824"><ele>24.4</ele><time>2021-05-01T14:12:59Z</time><name>PT4324</name></trkpt>
<trkpt lat="52.044564" lon="05.748827"><ele>24.4</ele><time>2021-05-01T14:13:00Z</time><name>PT4325</name></trkpt>
<trkpt lat="52.044562" lon="05.748829"><ele>24.5</ele><time>2021-05-01T14:13:01Z</time><name>PT4326</name></trkpt>
<trkpt lat="52.044564" lon="05.748836"><ele>24.5</ele><time>2021-05-01T14:13:02Z</time><name>PT4327</name></trkpt>
<trkpt lat="52.044567" lon="05.748853"><ele>24.7</ele><time>2021-05-01T14:13:03Z</time><name>PT4328</name></trkpt>
<trkpt lat="52.044568" lon="05.748875"><ele>24.7</ele><time>2021-05-01T14:13:04Z</time><name>PT4329</name></trkpt>
<trkpt lat="52.044562" lon="05.748898"><ele>24.4</ele><time>2021-05-01T14:13:05Z</time><name>PT4330</name></trkpt>
<trkpt lat="52.044555" lon="05.748923"><ele>24.3</ele><time>2021-05-01T14:13:06Z</time><name>PT4331</name></trkpt>
<trkpt lat="52.044551" lon="05.748941"><ele>24.3</ele><time>2021-05-01T14:13:07Z</time><name>PT4332</name></trkpt>
<trkpt lat="52.044552" lon="05.748949"><ele>24.2</ele><time>2021-05-01T14:13:08Z</time><name>PT4333</name></trkpt>
<trkpt lat="52.044551" lon="05.748951"><ele>24.3</ele><time>2021-05-01T14:13:09Z</time><name>PT4334</name></trkpt>
<trkpt lat="52.044549" lon="05.748957"><ele>24.7</ele><time>2021-05-01T14:13:10Z</time><name>PT4335</name></trkpt>
<trkpt lat="52.044551" lon="05.748971"><ele>24.7</ele><time>2021-05-01T14:13:11Z</time><name>PT4336</name></trkpt>
<trkpt lat="52.044550" lon="05.749000"><ele>24.9</ele><time>2021-05-01T14:13:13Z</time><name>PT4337</name></trkpt>
<trkpt lat="52.044554" lon="05.749024"><ele>25</ele><time>2021-05-01T14:13:13Z</time><name>PT4338</name></trkpt>
<trkpt lat="52.044560" lon="05.749043"><ele>25</ele><time>2021-05-01T14:13:14Z</time><name>PT4339</name></trkpt>
<trkpt lat="52.044564" lon="05.749062"><ele>25</ele><time>2021-05-01T14:13:15Z</time><name>PT4340</name></trkpt>
<trkpt lat="52.044569" lon="05.749081"><ele>25.3</ele><time>2021-05-01T14:13:16Z</time><name>PT4341</name></trkpt>
<trkpt lat="52.044571" lon="05.749095"><ele>25.3</ele><time>2021-05-01T14:13:17Z</time><name>PT4342</name></trkpt>
<trkpt lat="52.044572" lon="05.749110"><ele>25.3</ele><time>2021-05-01T14:13:18Z</time><name>PT4343</name></trkpt>
<trkpt lat="52.044576" lon="05.749124"><ele>25.3</ele><time>2021-05-01T14:13:19Z</time><name>PT4344</name></trkpt>
<trkpt lat="52.044578" lon="05.749143"><ele>25.4</ele><time>2021-05-01T14:13:20Z</time><name>PT4345</name></trkpt>
<trkpt lat="52.044581" lon="05.749166"><ele>25.3</ele><time>2021-05-01T14:13:21Z</time><name>PT4346</name></trkpt>
<trkpt lat="52.044584" lon="05.749193"><ele>25.1</ele><time>2021-05-01T14:13:23Z</time><name>PT4347</name></trkpt>
<trkpt lat="52.044586" lon="05.749223"><ele>25.2</ele><time>2021-05-01T14:13:23Z</time><name>PT4348</name></trkpt>
<trkpt lat="52.044591" lon="05.749250"><ele>25.1</ele><time>2021-05-01T14:13:24Z</time><name>PT4349</name></trkpt>
<trkpt lat="52.044597" lon="05.749280"><ele>25.2</ele><time>2021-05-01T14:13:25Z</time><name>PT4350</name></trkpt>
<trkpt lat="52.044600" lon="05.749302"><ele>25.2</ele><time>2021-05-01T14:13:27Z</time><name>PT4351</name></trkpt>
<trkpt lat="52.044607" lon="05.749318"><ele>25.2</ele><time>2021-05-01T14:13:27Z</time><name>PT4352</name></trkpt>
<trkpt lat="52.044612" lon="05.749335"><ele>25</ele><time>2021-05-01T14:13:28Z</time><name>PT4353</name></trkpt>
<trkpt lat="52.044615" lon="05.749342"><ele>24.9</ele><time>2021-05-01T14:13:29Z</time><name>PT4354</name></trkpt>
<trkpt lat="52.044617" lon="05.749340"><ele>24.8</ele><time>2021-05-01T14:13:30Z</time><name>PT4355</name></trkpt>
<trkpt lat="52.044618" lon="05.749340"><ele>24.6</ele><time>2021-05-01T14:13:31Z</time><name>PT4356</name></trkpt>
<trkpt lat="52.044617" lon="05.749359"><ele>24.7</ele><time>2021-05-01T14:13:32Z</time><name>PT4357</name></trkpt>
<trkpt lat="52.044619" lon="05.749384"><ele>24.8</ele><time>2021-05-01T14:13:33Z</time><name>PT4358</name></trkpt>
<trkpt lat="52.044620" lon="05.749418"><ele>24.8</ele><time>2021-05-01T14:13:34Z</time><name>PT4359</name></trkpt>
<trkpt lat="52.044615" lon="05.749450"><ele>24.8</ele><time>2021-05-01T14:13:35Z</time><name>PT4360</name></trkpt>
<trkpt lat="52.044615" lon="05.749475"><ele>24.8</ele><time>2021-05-01T14:13:36Z</time><name>PT4361</name></trkpt>
<trkpt lat="52.044619" lon="05.749494"><ele>24.7</ele><time>2021-05-01T14:13:37Z</time><name>PT4362</name></trkpt>
<trkpt lat="52.044622" lon="05.749504"><ele>24.5</ele><time>2021-05-01T14:13:38Z</time><name>PT4363</name></trkpt>
<trkpt lat="52.044623" lon="05.749506"><ele>24.7</ele><time>2021-05-01T14:13:39Z</time><name>PT4364</name></trkpt>
<trkpt lat="52.044625" lon="05.749506"><ele>24.8</ele><time>2021-05-01T14:13:41Z</time><name>PT4365</name></trkpt>
<trkpt lat="52.044628" lon="05.749523"><ele>24.9</ele><time>2021-05-01T14:13:42Z</time><name>PT4366</name></trkpt>
<trkpt lat="52.044636" lon="05.749564"><ele>24.9</ele><time>2021-05-01T14:13:43Z</time><name>PT4367</name></trkpt>
<trkpt lat="52.044638" lon="05.749592"><ele>24.8</ele><time>2021-05-01T14:13:44Z</time><name>PT4368</name></trkpt>
<trkpt lat="52.044644" lon="05.749613"><ele>24.8</ele><time>2021-05-01T14:13:45Z</time><name>PT4369</name></trkpt>
<trkpt lat="52.044648" lon="05.749631"><ele>24.8</ele><time>2021-05-01T14:13:46Z</time><name>PT4370</name></trkpt>
<trkpt lat="52.044645" lon="05.749641"><ele>24.8</ele><time>2021-05-01T14:13:47Z</time><name>PT4371</name></trkpt>
<trkpt lat="52.044643" lon="05.749649"><ele>24.8</ele><time>2021-05-01T14:13:48Z</time><name>PT4372</name></trkpt>
<trkpt lat="52.044649" lon="05.749665"><ele>24.7</ele><time>2021-05-01T14:13:49Z</time><name>PT4373</name></trkpt>
<trkpt lat="52.044653" lon="05.749676"><ele>24.8</ele><time>2021-05-01T14:13:50Z</time><name>PT4374</name></trkpt>
<trkpt lat="52.044657" lon="05.749699"><ele>24.7</ele><time>2021-05-01T14:13:51Z</time><name>PT4375</name></trkpt>
<trkpt lat="52.044657" lon="05.749719"><ele>24.6</ele><time>2021-05-01T14:13:52Z</time><name>PT4376</name></trkpt>
<trkpt lat="52.044658" lon="05.749733"><ele>24.8</ele><time>2021-05-01T14:13:53Z</time><name>PT4377</name></trkpt>
<trkpt lat="52.044662" lon="05.749736"><ele>24.7</ele><time>2021-05-01T14:13:55Z</time><name>PT4378</name></trkpt>
<trkpt lat="52.044665" lon="05.749744"><ele>24.8</ele><time>2021-05-01T14:13:55Z</time><name>PT4379</name></trkpt>
<trkpt lat="52.044669" lon="05.749758"><ele>24.8</ele><time>2021-05-01T14:13:56Z</time><name>PT4380</name></trkpt>
<trkpt lat="52.044669" lon="05.749780"><ele>24.8</ele><time>2021-05-01T14:13:57Z</time><name>PT4381</name></trkpt>
<trkpt lat="52.044670" lon="05.749810"><ele>24.8</ele><time>2021-05-01T14:13:58Z</time><name>PT4382</name></trkpt>
<trkpt lat="52.044673" lon="05.749845"><ele>25</ele><time>2021-05-01T14:13:59Z</time><name>PT4383</name></trkpt>
<trkpt lat="52.044679" lon="05.749869"><ele>25.1</ele><time>2021-05-01T14:14:00Z</time><name>PT4384</name></trkpt>
<trkpt lat="52.044685" lon="05.749886"><ele>25.2</ele><time>2021-05-01T14:14:01Z</time><name>PT4385</name></trkpt>
<trkpt lat="52.044687" lon="05.749894"><ele>25.1</ele><time>2021-05-01T14:14:02Z</time><name>PT4386</name></trkpt>
<trkpt lat="52.044690" lon="05.749900"><ele>25.1</ele><time>2021-05-01T14:14:03Z</time><name>PT4387</name></trkpt>
<trkpt lat="52.044691" lon="05.749914"><ele>25.1</ele><time>2021-05-01T14:14:04Z</time><name>PT4388</name></trkpt>
<trkpt lat="52.044692" lon="05.749937"><ele>25.1</ele><time>2021-05-01T14:14:05Z</time><name>PT4389</name></trkpt>
<trkpt lat="52.044694" lon="05.749967"><ele>25.2</ele><time>2021-05-01T14:14:06Z</time><name>PT4390</name></trkpt>
<trkpt lat="52.044696" lon="05.749997"><ele>25.3</ele><time>2021-05-01T14:14:07Z</time><name>PT4391</name></trkpt>
<trkpt lat="52.044698" lon="05.750016"><ele>25.3</ele><time>2021-05-01T14:14:08Z</time><name>PT4392</name></trkpt>
<trkpt lat="52.044700" lon="05.750028"><ele>25.4</ele><time>2021-05-01T14:14:09Z</time><name>PT4393</name></trkpt>
<trkpt lat="52.044702" lon="05.750033"><ele>25.3</ele><time>2021-05-01T14:14:10Z</time><name>PT4394</name></trkpt>
<trkpt lat="52.044708" lon="05.750047"><ele>25.3</ele><time>2021-05-01T14:14:11Z</time><name>PT4395</name></trkpt>
<trkpt lat="52.044718" lon="05.750060"><ele>25.3</ele><time>2021-05-01T14:14:12Z</time><name>PT4396</name></trkpt>
<trkpt lat="52.044726" lon="05.750072"><ele>25.4</ele><time>2021-05-01T14:14:13Z</time><name>PT4397</name></trkpt>
<trkpt lat="52.044731" lon="05.750082"><ele>25.4</ele><time>2021-05-01T14:14:14Z</time><name>PT4398</name></trkpt>
<trkpt lat="52.044732" lon="05.750089"><ele>25.4</ele><time>2021-05-01T14:14:15Z</time><name>PT4399</name></trkpt>
<trkpt lat="52.044735" lon="05.750094"><ele>25.5</ele><time>2021-05-01T14:14:16Z</time><name>PT4400</name></trkpt>
<trkpt lat="52.044736" lon="05.750088"><ele>25.6</ele><time>2021-05-01T14:14:17Z</time><name>PT4401</name></trkpt>
<trkpt lat="52.044734" lon="05.750082"><ele>25.7</ele><time>2021-05-01T14:14:19Z</time><name>PT4402</name></trkpt>
<trkpt lat="52.044734" lon="05.750082"><ele>25.7</ele><time>2021-05-01T14:14:19Z</time><name>PT4403</name></trkpt>
<trkpt lat="52.044737" lon="05.750093"><ele>25.6</ele><time>2021-05-01T14:14:20Z</time><name>PT4404</name></trkpt>
<trkpt lat="52.044741" lon="05.750106"><ele>25.4</ele><time>2021-05-01T14:14:21Z</time><name>PT4405</name></trkpt>
<trkpt lat="52.044748" lon="05.750118"><ele>25.4</ele><time>2021-05-01T14:14:22Z</time><name>PT4406</name></trkpt>
<trkpt lat="52.044753" lon="05.750132"><ele>25.3</ele><time>2021-05-01T14:14:23Z</time><name>PT4407</name></trkpt>
<trkpt lat="52.044758" lon="05.750147"><ele>25.2</ele><time>2021-05-01T14:14:24Z</time><name>PT4408</name></trkpt>
<trkpt lat="52.044763" lon="05.750163"><ele>25.3</ele><time>2021-05-01T14:14:25Z</time><name>PT4409</name></trkpt>
<trkpt lat="52.044767" lon="05.750186"><ele>25.3</ele><time>2021-05-01T14:14:26Z</time><name>PT4410</name></trkpt>
<trkpt lat="52.044773" lon="05.750200"><ele>25.3</ele><time>2021-05-01T14:14:27Z</time><name>PT4411</name></trkpt>
<trkpt lat="52.044774" lon="05.750208"><ele>25.3</ele><time>2021-05-01T14:14:28Z</time><name>PT4412</name></trkpt>
<trkpt lat="52.044773" lon="05.750215"><ele>25.3</ele><time>2021-05-01T14:14:29Z</time><name>PT4413</name></trkpt>
<trkpt lat="52.044776" lon="05.750224"><ele>25.3</ele><time>2021-05-01T14:14:30Z</time><name>PT4414</name></trkpt>
<trkpt lat="52.044780" lon="05.750241"><ele>25.3</ele><time>2021-05-01T14:14:31Z</time><name>PT4415</name></trkpt>
<trkpt lat="52.044784" lon="05.750263"><ele>25.3</ele><time>2021-05-01T14:14:32Z</time><name>PT4416</name></trkpt>
<trkpt lat="52.044794" lon="05.750294"><ele>25.4</ele><time>2021-05-01T14:14:33Z</time><name>PT4417</name></trkpt>
<trkpt lat="52.044798" lon="05.750326"><ele>25.3</ele><time>2021-05-01T14:14:34Z</time><name>PT4418</name></trkpt>
<trkpt lat="52.044798" lon="05.750351"><ele>25.4</ele><time>2021-05-01T14:14:35Z</time><name>PT4419</name></trkpt>
<trkpt lat="52.044799" lon="05.750372"><ele>25.8</ele><time>2021-05-01T14:14:37Z</time><name>PT4420</name></trkpt>
<trkpt lat="52.044801" lon="05.750388"><ele>25.8</ele><time>2021-05-01T14:14:37Z</time><name>PT4421</name></trkpt>
<trkpt lat="52.044807" lon="05.750413"><ele>26</ele><time>2021-05-01T14:14:38Z</time><name>PT4422</name></trkpt>
<trkpt lat="52.044806" lon="05.750431"><ele>26</ele><time>2021-05-01T14:14:39Z</time><name>PT4423</name></trkpt>
<trkpt lat="52.044808" lon="05.750440"><ele>26.1</ele><time>2021-05-01T14:14:40Z</time><name>PT4424</name></trkpt>
<trkpt lat="52.044810" lon="05.750449"><ele>26.1</ele><time>2021-05-01T14:14:41Z</time><name>PT4425</name></trkpt>
<trkpt lat="52.044811" lon="05.750463"><ele>26</ele><time>2021-05-01T14:14:42Z</time><name>PT4426</name></trkpt>
<trkpt lat="52.044818" lon="05.750488"><ele>26.2</ele><time>2021-05-01T14:14:43Z</time><name>PT4427</name></trkpt>
<trkpt lat="52.044826" lon="05.750513"><ele>26.3</ele><time>2021-05-01T14:14:44Z</time><name>PT4428</name></trkpt>
<trkpt lat="52.044829" lon="05.750532"><ele>26.3</ele><time>2021-05-01T14:14:45Z</time><name>PT4429</name></trkpt>
<trkpt lat="52.044831" lon="05.750549"><ele>26.3</ele><time>2021-05-01T14:14:46Z</time><name>PT4430</name></trkpt>
<trkpt lat="52.044833" lon="05.750565"><ele>26.3</ele><time>2021-05-01T14:14:47Z</time><name>PT4431</name></trkpt>
<trkpt lat="52.044834" lon="05.750575"><ele>26.1</ele><time>2021-05-01T14:14:48Z</time><name>PT4432</name></trkpt>
<trkpt lat="52.044837" lon="05.750589"><ele>25.9</ele><time>2021-05-01T14:14:49Z</time><name>PT4433</name></trkpt>
<trkpt lat="52.044837" lon="05.750605"><ele>26</ele><time>2021-05-01T14:14:51Z</time><name>PT4434</name></trkpt>
<trkpt lat="52.044838" lon="05.750618"><ele>26</ele><time>2021-05-01T14:14:51Z</time><name>PT4435</name></trkpt>
<trkpt lat="52.044841" lon="05.750630"><ele>26</ele><time>2021-05-01T14:14:52Z</time><name>PT4436</name></trkpt>
<trkpt lat="52.044845" lon="05.750645"><ele>26.3</ele><time>2021-05-01T14:14:53Z</time><name>PT4437</name></trkpt>
<trkpt lat="52.044848" lon="05.750660"><ele>26.3</ele><time>2021-05-01T14:14:54Z</time><name>PT4438</name></trkpt>
<trkpt lat="52.044850" lon="05.750671"><ele>26.3</ele><time>2021-05-01T14:14:55Z</time><name>PT4439</name></trkpt>
<trkpt lat="52.044852" lon="05.750683"><ele>26.5</ele><time>2021-05-01T14:14:56Z</time><name>PT4440</name></trkpt>
<trkpt lat="52.044855" lon="05.750693"><ele>26.4</ele><time>2021-05-01T14:14:57Z</time><name>PT4441</name></trkpt>
<trkpt lat="52.044856" lon="05.750702"><ele>26.4</ele><time>2021-05-01T14:14:58Z</time><name>PT4442</name></trkpt>
<trkpt lat="52.044858" lon="05.750716"><ele>26.4</ele><time>2021-05-01T14:14:59Z</time><name>PT4443</name></trkpt>
<trkpt lat="52.044861" lon="05.750734"><ele>26.3</ele><time>2021-05-01T14:15:00Z</time><name>PT4444</name></trkpt>
<trkpt lat="52.044865" lon="05.750749"><ele>26.5</ele><time>2021-05-01T14:15:01Z</time><name>PT4445</name></trkpt>
<trkpt lat="52.044868" lon="05.750763"><ele>26.3</ele><time>2021-05-01T14:15:02Z</time><name>PT4446</name></trkpt>
<trkpt lat="52.044868" lon="05.750779"><ele>26.2</ele><time>2021-05-01T14:15:03Z</time><name>PT4447</name></trkpt>
<trkpt lat="52.044869" lon="05.750786"><ele>26.2</ele><time>2021-05-01T14:15:05Z</time><name>PT4448</name></trkpt>
<trkpt lat="52.044869" lon="05.750792"><ele>26.2</ele><time>2021-05-01T14:15:05Z</time><name>PT4449</name></trkpt>
<trkpt lat="52.044871" lon="05.750793"><ele>26</ele><time>2021-05-01T14:15:06Z</time><name>PT4450</name></trkpt>
<trkpt lat="52.044877" lon="05.750803"><ele>25.9</ele><time>2021-05-01T14:15:07Z</time><name>PT4451</name></trkpt>
<trkpt lat="52.044880" lon="05.750814"><ele>26.1</ele><time>2021-05-01T14:15:08Z</time><name>PT4452</name></trkpt>
<trkpt lat="52.044882" lon="05.750831"><ele>26.2</ele><time>2021-05-01T14:15:09Z</time><name>PT4453</name></trkpt>
<trkpt lat="52.044885" lon="05.750845"><ele>26.3</ele><time>2021-05-01T14:15:10Z</time><name>PT4454</name></trkpt>
<trkpt lat="52.044888" lon="05.750862"><ele>26.3</ele><time>2021-05-01T14:15:11Z</time><name>PT4455</name></trkpt>
<trkpt lat="52.044889" lon="05.750876"><ele>26.4</ele><time>2021-05-01T14:15:13Z</time><name>PT4456</name></trkpt>
<trkpt lat="52.044888" lon="05.750882"><ele>26.4</ele><time>2021-05-01T14:15:13Z</time><name>PT4457</name></trkpt>
<trkpt lat="52.044890" lon="05.750881"><ele>26.2</ele><time>2021-05-01T14:15:15Z</time><name>PT4458</name></trkpt>
<trkpt lat="52.044894" lon="05.750894"><ele>26.1</ele><time>2021-05-01T14:15:15Z</time><name>PT4459</name></trkpt>
<trkpt lat="52.044899" lon="05.750925"><ele>26</ele><time>2021-05-01T14:15:16Z</time><name>PT4460</name></trkpt>
<trkpt lat="52.044901" lon="05.750955"><ele>25.9</ele><time>2021-05-01T14:15:17Z</time><name>PT4461</name></trkpt>
<trkpt lat="52.044903" lon="05.750981"><ele>25.8</ele><time>2021-05-01T14:15:19Z</time><name>PT4462</name></trkpt>
<trkpt lat="52.044905" lon="05.751000"><ele>25.8</ele><time>2021-05-01T14:15:20Z</time><name>PT4463</name></trkpt>
<trkpt lat="52.044908" lon="05.751013"><ele>25.9</ele><time>2021-05-01T14:15:20Z</time><name>PT4464</name></trkpt>
<trkpt lat="52.044909" lon="05.751016"><ele>26</ele><time>2021-05-01T14:15:21Z</time><name>PT4465</name></trkpt>
<trkpt lat="52.044911" lon="05.751016"><ele>26.1</ele><time>2021-05-01T14:15:23Z</time><name>PT4466</name></trkpt>
<trkpt lat="52.044917" lon="05.751031"><ele>26</ele><time>2021-05-01T14:15:23Z</time><name>PT4467</name></trkpt>
<trkpt lat="52.044921" lon="05.751061"><ele>26</ele><time>2021-05-01T14:15:25Z</time><name>PT4468</name></trkpt>
<trkpt lat="52.044927" lon="05.751094"><ele>26</ele><time>2021-05-01T14:15:25Z</time><name>PT4469</name></trkpt>
<trkpt lat="52.044932" lon="05.751122"><ele>26.1</ele><time>2021-05-01T14:15:26Z</time><name>PT4470</name></trkpt>
<trkpt lat="52.044932" lon="05.751137"><ele>26.1</ele><time>2021-05-01T14:15:27Z</time><name>PT4471</name></trkpt>
<trkpt lat="52.044929" lon="05.751143"><ele>26.2</ele><time>2021-05-01T14:15:28Z</time><name>PT4472</name></trkpt>
<trkpt lat="52.044928" lon="05.751154"><ele>26.3</ele><time>2021-05-01T14:15:29Z</time><name>PT4473</name></trkpt>
<trkpt lat="52.044931" lon="05.751179"><ele>26.2</ele><time>2021-05-01T14:15:31Z</time><name>PT4474</name></trkpt>
<trkpt lat="52.044929" lon="05.751208"><ele>26.2</ele><time>2021-05-01T14:15:31Z</time><name>PT4475</name></trkpt>
<trkpt lat="52.044930" lon="05.751223"><ele>26.3</ele><time>2021-05-01T14:15:33Z</time><name>PT4476</name></trkpt>
<trkpt lat="52.044937" lon="05.751232"><ele>26.3</ele><time>2021-05-01T14:15:34Z</time><name>PT4477</name></trkpt>
<trkpt lat="52.044939" lon="05.751253"><ele>26.3</ele><time>2021-05-01T14:15:34Z</time><name>PT4478</name></trkpt>
<trkpt lat="52.044943" lon="05.751268"><ele>25.8</ele><time>2021-05-01T14:15:35Z</time><name>PT4479</name></trkpt>
<trkpt lat="52.044948" lon="05.751270"><ele>25.8</ele><time>2021-05-01T14:15:37Z</time><name>PT4480</name></trkpt>
<trkpt lat="52.044952" lon="05.751270"><ele>26.2</ele><time>2021-05-01T14:15:37Z</time><name>PT4481</name></trkpt>
<trkpt lat="52.044953" lon="05.751270"><ele>26.4</ele><time>2021-05-01T14:15:38Z</time><name>PT4482</name></trkpt>
<trkpt lat="52.044953" lon="05.751279"><ele>26.6</ele><time>2021-05-01T14:15:39Z</time><name>PT4483</name></trkpt>
<trkpt lat="52.044956" lon="05.751294"><ele>27.3</ele><time>2021-05-01T14:15:40Z</time><name>PT4484</name></trkpt>
<trkpt lat="52.044959" lon="05.751314"><ele>27.7</ele><time>2021-05-01T14:15:41Z</time><name>PT4485</name></trkpt>
<trkpt lat="52.044963" lon="05.751328"><ele>27.1</ele><time>2021-05-01T14:15:42Z</time><name>PT4486</name></trkpt>
<trkpt lat="52.044963" lon="05.751341"><ele>27.2</ele><time>2021-05-01T14:15:43Z</time><name>PT4487</name></trkpt>
<trkpt lat="52.044965" lon="05.751355"><ele>27.3</ele><time>2021-05-01T14:15:44Z</time><name>PT4488</name></trkpt>
<trkpt lat="52.044966" lon="05.751368"><ele>27</ele><time>2021-05-01T14:15:45Z</time><name>PT4489</name></trkpt>
<trkpt lat="52.044968" lon="05.751383"><ele>26.8</ele><time>2021-05-01T14:15:46Z</time><name>PT4490</name></trkpt>
<trkpt lat="52.044970" lon="05.751393"><ele>26.7</ele><time>2021-05-01T14:15:47Z</time><name>PT4491</name></trkpt>
<trkpt lat="52.044970" lon="05.751419"><ele>26.3</ele><time>2021-05-01T14:15:48Z</time><name>PT4492</name></trkpt>
<trkpt lat="52.044974" lon="05.751448"><ele>26.3</ele><time>2021-05-01T14:15:49Z</time><name>PT4493</name></trkpt>
<trkpt lat="52.044976" lon="05.751485"><ele>26.3</ele><time>2021-05-01T14:15:50Z</time><name>PT4494</name></trkpt>
<trkpt lat="52.044979" lon="05.751517"><ele>26.4</ele><time>2021-05-01T14:15:51Z</time><name>PT4495</name></trkpt>
<trkpt lat="52.044980" lon="05.751547"><ele>26.5</ele><time>2021-05-01T14:15:52Z</time><name>PT4496</name></trkpt>
<trkpt lat="52.044983" lon="05.751565"><ele>26.5</ele><time>2021-05-01T14:15:53Z</time><name>PT4497</name></trkpt>
<trkpt lat="52.044985" lon="05.751571"><ele>26.7</ele><time>2021-05-01T14:15:54Z</time><name>PT4498</name></trkpt>
<trkpt lat="52.044985" lon="05.751571"><ele>26.7</ele><time>2021-05-01T14:15:55Z</time><name>PT4499</name></trkpt>
<trkpt lat="52.044986" lon="05.751576"><ele>26.6</ele><time>2021-05-01T14:15:56Z</time><name>PT4500</name></trkpt>
<trkpt lat="52.044987" lon="05.751591"><ele>26.7</ele><time>2021-05-01T14:15:57Z</time><name>PT4501</name></trkpt>
<trkpt lat="52.044988" lon="05.751624"><ele>26.9</ele><time>2021-05-01T14:15:58Z</time><name>PT4502</name></trkpt>
<trkpt lat="52.044994" lon="05.751653"><ele>26.9</ele><time>2021-05-01T14:15:59Z</time><name>PT4503</name></trkpt>
<trkpt lat="52.044998" lon="05.751683"><ele>26.9</ele><time>2021-05-01T14:16:00Z</time><name>PT4504</name></trkpt>
<trkpt lat="52.045007" lon="05.751703"><ele>26.9</ele><time>2021-05-01T14:16:01Z</time><name>PT4505</name></trkpt>
<trkpt lat="52.045015" lon="05.751713"><ele>27</ele><time>2021-05-01T14:16:02Z</time><name>PT4506</name></trkpt>
<trkpt lat="52.045017" lon="05.751711"><ele>26.9</ele><time>2021-05-01T14:16:04Z</time><name>PT4507</name></trkpt>
<trkpt lat="52.045021" lon="05.751706"><ele>26.8</ele><time>2021-05-01T14:16:04Z</time><name>PT4508</name></trkpt>
<trkpt lat="52.045027" lon="05.751714"><ele>26.9</ele><time>2021-05-01T14:16:05Z</time><name>PT4509</name></trkpt>
<trkpt lat="52.045031" lon="05.751731"><ele>26.8</ele><time>2021-05-01T14:16:06Z</time><name>PT4510</name></trkpt>
<trkpt lat="52.045033" lon="05.751764"><ele>26.7</ele><time>2021-05-01T14:16:07Z</time><name>PT4511</name></trkpt>
<trkpt lat="52.045036" lon="05.751790"><ele>26.5</ele><time>2021-05-01T14:16:09Z</time><name>PT4512</name></trkpt>
<trkpt lat="52.045036" lon="05.751818"><ele>26.7</ele><time>2021-05-01T14:16:09Z</time><name>PT4513</name></trkpt>
<trkpt lat="52.045037" lon="05.751836"><ele>26.5</ele><time>2021-05-01T14:16:10Z</time><name>PT4514</name></trkpt>
<trkpt lat="52.045034" lon="05.751849"><ele>26.7</ele><time>2021-05-01T14:16:11Z</time><name>PT4515</name></trkpt>
<trkpt lat="52.045034" lon="05.751860"><ele>26.9</ele><time>2021-05-01T14:16:12Z</time><name>PT4516</name></trkpt>
<trkpt lat="52.045032" lon="05.751881"><ele>27</ele><time>2021-05-01T14:16:13Z</time><name>PT4517</name></trkpt>
<trkpt lat="52.045035" lon="05.751915"><ele>27.2</ele><time>2021-05-01T14:16:14Z</time><name>PT4518</name></trkpt>
<trkpt lat="52.045039" lon="05.751950"><ele>27.1</ele><time>2021-05-01T14:16:15Z</time><name>PT4519</name></trkpt>
<trkpt lat="52.045038" lon="05.751976"><ele>27.1</ele><time>2021-05-01T14:16:16Z</time><name>PT4520</name></trkpt>
<trkpt lat="52.045038" lon="05.752003"><ele>27.2</ele><time>2021-05-01T14:16:17Z</time><name>PT4521</name></trkpt>
<trkpt lat="52.045041" lon="05.752010"><ele>27.4</ele><time>2021-05-01T14:16:18Z</time><name>PT4522</name></trkpt>
<trkpt lat="52.045042" lon="05.752023"><ele>27.4</ele><time>2021-05-01T14:16:19Z</time><name>PT4523</name></trkpt>
<trkpt lat="52.045045" lon="05.752028"><ele>27.6</ele><time>2021-05-01T14:16:20Z</time><name>PT4524</name></trkpt>
<trkpt lat="52.045048" lon="05.752033"><ele>27.6</ele><time>2021-05-01T14:16:22Z</time><name>PT4525</name></trkpt>
<trkpt lat="52.045049" lon="05.752043"><ele>27.4</ele><time>2021-05-01T14:16:22Z</time><name>PT4526</name></trkpt>
<trkpt lat="52.045051" lon="05.752048"><ele>27.3</ele><time>2021-05-01T14:16:23Z</time><name>PT4527</name></trkpt>
<trkpt lat="52.045052" lon="05.752048"><ele>27.6</ele><time>2021-05-01T14:16:27Z</time><name>PT4528</name></trkpt>
<trkpt lat="52.045058" lon="05.752058"><ele>27.6</ele><time>2021-05-01T14:16:28Z</time><name>PT4529</name></trkpt>
<trkpt lat="52.045062" lon="05.752078"><ele>27.5</ele><time>2021-05-01T14:16:29Z</time><name>PT4530</name></trkpt>
<trkpt lat="52.045069" lon="05.752091"><ele>27.3</ele><time>2021-05-01T14:16:30Z</time><name>PT4531</name></trkpt>
<trkpt lat="52.045072" lon="05.752126"><ele>27.2</ele><time>2021-05-01T14:16:31Z</time><name>PT4532</name></trkpt>
<trkpt lat="52.045071" lon="05.752157"><ele>27.1</ele><time>2021-05-01T14:16:32Z</time><name>PT4533</name></trkpt>
<trkpt lat="52.045074" lon="05.752188"><ele>27.2</ele><time>2021-05-01T14:16:33Z</time><name>PT4534</name></trkpt>
<trkpt lat="52.045077" lon="05.752201"><ele>27.2</ele><time>2021-05-01T14:16:34Z</time><name>PT4535</name></trkpt>
<trkpt lat="52.045078" lon="05.752207"><ele>27.2</ele><time>2021-05-01T14:16:35Z</time><name>PT4536</name></trkpt>
<trkpt lat="52.045079" lon="05.752218"><ele>27.2</ele><time>2021-05-01T14:16:36Z</time><name>PT4537</name></trkpt>
<trkpt lat="52.045082" lon="05.752228"><ele>27.2</ele><time>2021-05-01T14:16:37Z</time><name>PT4538</name></trkpt>
<trkpt lat="52.045086" lon="05.752249"><ele>27.3</ele><time>2021-05-01T14:16:38Z</time><name>PT4539</name></trkpt>
<trkpt lat="52.045089" lon="05.752284"><ele>27.4</ele><time>2021-05-01T14:16:39Z</time><name>PT4540</name></trkpt>
<trkpt lat="52.045093" lon="05.752314"><ele>27.3</ele><time>2021-05-01T14:16:40Z</time><name>PT4541</name></trkpt>
<trkpt lat="52.045094" lon="05.752340"><ele>27.4</ele><time>2021-05-01T14:16:41Z</time><name>PT4542</name></trkpt>
<trkpt lat="52.045097" lon="05.752357"><ele>27.4</ele><time>2021-05-01T14:16:42Z</time><name>PT4543</name></trkpt>
<trkpt lat="52.045099" lon="05.752365"><ele>27.3</ele><time>2021-05-01T14:16:43Z</time><name>PT4544</name></trkpt>
<trkpt lat="52.045100" lon="05.752372"><ele>27.2</ele><time>2021-05-01T14:16:44Z</time><name>PT4545</name></trkpt>
<trkpt lat="52.045102" lon="05.752382"><ele>27.2</ele><time>2021-05-01T14:16:45Z</time><name>PT4546</name></trkpt>
<trkpt lat="52.045103" lon="05.752414"><ele>27</ele><time>2021-05-01T14:16:46Z</time><name>PT4547</name></trkpt>
<trkpt lat="52.045102" lon="05.752453"><ele>27</ele><time>2021-05-01T14:16:47Z</time><name>PT4548</name></trkpt>
<trkpt lat="52.045108" lon="05.752485"><ele>27</ele><time>2021-05-01T14:16:48Z</time><name>PT4549</name></trkpt>
<trkpt lat="52.045110" lon="05.752506"><ele>27.2</ele><time>2021-05-01T14:16:49Z</time><name>PT4550</name></trkpt>
<trkpt lat="52.045113" lon="05.752515"><ele>27.2</ele><time>2021-05-01T14:16:50Z</time><name>PT4551</name></trkpt>
<trkpt lat="52.045114" lon="05.752517"><ele>27.4</ele><time>2021-05-01T14:16:51Z</time><name>PT4552</name></trkpt>
<trkpt lat="52.045115" lon="05.752517"><ele>27.5</ele><time>2021-05-01T14:16:52Z</time><name>PT4553</name></trkpt>
<trkpt lat="52.045115" lon="05.752531"><ele>27.6</ele><time>2021-05-01T14:16:53Z</time><name>PT4554</name></trkpt>
<trkpt lat="52.045119" lon="05.752548"><ele>27.4</ele><time>2021-05-01T14:16:54Z</time><name>PT4555</name></trkpt>
<trkpt lat="52.045123" lon="05.752551"><ele>27.7</ele><time>2021-05-01T14:16:55Z</time><name>PT4556</name></trkpt>
<trkpt lat="52.045119" lon="05.752550"><ele>27.6</ele><time>2021-05-01T14:16:56Z</time><name>PT4557</name></trkpt>
<trkpt lat="52.045116" lon="05.752546"><ele>27.7</ele><time>2021-05-01T14:16:57Z</time><name>PT4558</name></trkpt>
<trkpt lat="52.045116" lon="05.752545"><ele>27.8</ele><time>2021-05-01T14:16:58Z</time><name>PT4559</name></trkpt>
<trkpt lat="52.045123" lon="05.752547"><ele>27.7</ele><time>2021-05-01T14:17:00Z</time><name>PT4560</name></trkpt>
<trkpt lat="52.045126" lon="05.752571"><ele>27.7</ele><time>2021-05-01T14:17:01Z</time><name>PT4561</name></trkpt>
<trkpt lat="52.045132" lon="05.752602"><ele>27.6</ele><time>2021-05-01T14:17:02Z</time><name>PT4562</name></trkpt>
<trkpt lat="52.045137" lon="05.752622"><ele>27.5</ele><time>2021-05-01T14:17:03Z</time><name>PT4563</name></trkpt>
<trkpt lat="52.045140" lon="05.752635"><ele>27.4</ele><time>2021-05-01T14:17:04Z</time><name>PT4564</name></trkpt>
<trkpt lat="52.045139" lon="05.752641"><ele>27.5</ele><time>2021-05-01T14:17:05Z</time><name>PT4565</name></trkpt>
<trkpt lat="52.045142" lon="05.752644"><ele>27.5</ele><time>2021-05-01T14:17:06Z</time><name>PT4566</name></trkpt>
<trkpt lat="52.045146" lon="05.752664"><ele>27.6</ele><time>2021-05-01T14:17:07Z</time><name>PT4567</name></trkpt>
<trkpt lat="52.045152" lon="05.752688"><ele>27.7</ele><time>2021-05-01T14:17:08Z</time><name>PT4568</name></trkpt>
<trkpt lat="52.045153" lon="05.752721"><ele>27.8</ele><time>2021-05-01T14:17:09Z</time><name>PT4569</name></trkpt>
<trkpt lat="52.045153" lon="05.752744"><ele>27.7</ele><time>2021-05-01T14:17:10Z</time><name>PT4570</name></trkpt>
<trkpt lat="52.045153" lon="05.752752"><ele>27.7</ele><time>2021-05-01T14:17:11Z</time><name>PT4571</name></trkpt>
<trkpt lat="52.045156" lon="05.752753"><ele>27.7</ele><time>2021-05-01T14:17:12Z</time><name>PT4572</name></trkpt>
<trkpt lat="52.045157" lon="05.752750"><ele>27.7</ele><time>2021-05-01T14:17:13Z</time><name>PT4573</name></trkpt>
<trkpt lat="52.045162" lon="05.752787"><ele>27.8</ele><time>2021-05-01T14:17:14Z</time><name>PT4574</name></trkpt>
<trkpt lat="52.045167" lon="05.752807"><ele>28</ele><time>2021-05-01T14:17:15Z</time><name>PT4575</name></trkpt>
<trkpt lat="52.045170" lon="05.752825"><ele>28.2</ele><time>2021-05-01T14:17:16Z</time><name>PT4576</name></trkpt>
<trkpt lat="52.045169" lon="05.752840"><ele>28.1</ele><time>2021-05-01T14:17:17Z</time><name>PT4577</name></trkpt>
<trkpt lat="52.045170" lon="05.752847"><ele>28.1</ele><time>2021-05-01T14:17:18Z</time><name>PT4578</name></trkpt>
<trkpt lat="52.045173" lon="05.752851"><ele>28.1</ele><time>2021-05-01T14:17:19Z</time><name>PT4579</name></trkpt>
<trkpt lat="52.045175" lon="05.752863"><ele>28</ele><time>2021-05-01T14:17:20Z</time><name>PT4580</name></trkpt>
<trkpt lat="52.045178" lon="05.752890"><ele>27.8</ele><time>2021-05-01T14:17:21Z</time><name>PT4581</name></trkpt>
<trkpt lat="52.045184" lon="05.752920"><ele>27.8</ele><time>2021-05-01T14:17:22Z</time><name>PT4582</name></trkpt>
<trkpt lat="52.045187" lon="05.752951"><ele>27.8</ele><time>2021-05-01T14:17:23Z</time><name>PT4583</name></trkpt>
<trkpt lat="52.045187" lon="05.752971"><ele>27.9</ele><time>2021-05-01T14:17:24Z</time><name>PT4584</name></trkpt>
<trkpt lat="52.045188" lon="05.752978"><ele>27.7</ele><time>2021-05-01T14:17:25Z</time><name>PT4585</name></trkpt>
<trkpt lat="52.045191" lon="05.752983"><ele>27.6</ele><time>2021-05-01T14:17:26Z</time><name>PT4586</name></trkpt>
<trkpt lat="52.045192" lon="05.752988"><ele>27.7</ele><time>2021-05-01T14:17:27Z</time><name>PT4587</name></trkpt>
<trkpt lat="52.045197" lon="05.753008"><ele>27.6</ele><time>2021-05-01T14:17:29Z</time><name>PT4588</name></trkpt>
<trkpt lat="52.045199" lon="05.753039"><ele>27.7</ele><time>2021-05-01T14:17:30Z</time><name>PT4589</name></trkpt>
<trkpt lat="52.045195" lon="05.753060"><ele>27.7</ele><time>2021-05-01T14:17:31Z</time><name>PT4590</name></trkpt>
<trkpt lat="52.045194" lon="05.753076"><ele>27.7</ele><time>2021-05-01T14:17:32Z</time><name>PT4591</name></trkpt>
<trkpt lat="52.045196" lon="05.753089"><ele>27.7</ele><time>2021-05-01T14:17:33Z</time><name>PT4592</name></trkpt>
<trkpt lat="52.045204" lon="05.753115"><ele>27.8</ele><time>2021-05-01T14:17:34Z</time><name>PT4593</name></trkpt>
<trkpt lat="52.045214" lon="05.753141"><ele>27.8</ele><time>2021-05-01T14:17:35Z</time><name>PT4594</name></trkpt>
<trkpt lat="52.045219" lon="05.753150"><ele>27.9</ele><time>2021-05-01T14:17:36Z</time><name>PT4595</name></trkpt>
<trkpt lat="52.045222" lon="05.753159"><ele>27.8</ele><time>2021-05-01T14:17:37Z</time><name>PT4596</name></trkpt>
<trkpt lat="52.045225" lon="05.753184"><ele>27.7</ele><time>2021-05-01T14:17:38Z</time><name>PT4597</name></trkpt>
<trkpt lat="52.045231" lon="05.753216"><ele>27.7</ele><time>2021-05-01T14:17:39Z</time><name>PT4598</name></trkpt>
<trkpt lat="52.045236" lon="05.753251"><ele>27.7</ele><time>2021-05-01T14:17:41Z</time><name>PT4599</name></trkpt>
<trkpt lat="52.045237" lon="05.753279"><ele>27.7</ele><time>2021-05-01T14:17:41Z</time><name>PT4600</name></trkpt>
<trkpt lat="52.045241" lon="05.753297"><ele>27.9</ele><time>2021-05-01T14:17:42Z</time><name>PT4601</name></trkpt>
<trkpt lat="52.045247" lon="05.753311"><ele>28</ele><time>2021-05-01T14:17:43Z</time><name>PT4602</name></trkpt>
<trkpt lat="52.045247" lon="05.753319"><ele>28</ele><time>2021-05-01T14:17:44Z</time><name>PT4603</name></trkpt>
<trkpt lat="52.045248" lon="05.753328"><ele>28.1</ele><time>2021-05-01T14:17:45Z</time><name>PT4604</name></trkpt>
<trkpt lat="52.045251" lon="05.753343"><ele>28.1</ele><time>2021-05-01T14:17:46Z</time><name>PT4605</name></trkpt>
<trkpt lat="52.045257" lon="05.753369"><ele>28</ele><time>2021-05-01T14:17:48Z</time><name>PT4606</name></trkpt>
<trkpt lat="52.045263" lon="05.753398"><ele>28</ele><time>2021-05-01T14:17:49Z</time><name>PT4607</name></trkpt>
<trkpt lat="52.045268" lon="05.753421"><ele>28.1</ele><time>2021-05-01T14:17:49Z</time><name>PT4608</name></trkpt>
<trkpt lat="52.045273" lon="05.753439"><ele>28</ele><time>2021-05-01T14:17:50Z</time><name>PT4609</name></trkpt>
<trkpt lat="52.045276" lon="05.753448"><ele>28.1</ele><time>2021-05-01T14:17:51Z</time><name>PT4610</name></trkpt>
<trkpt lat="52.045280" lon="05.753462"><ele>28.2</ele><time>2021-05-01T14:17:52Z</time><name>PT4611</name></trkpt>
<trkpt lat="52.045284" lon="05.753472"><ele>28.1</ele><time>2021-05-01T14:17:53Z</time><name>PT4612</name></trkpt>
<trkpt lat="52.045285" lon="05.753489"><ele>28.2</ele><time>2021-05-01T14:17:55Z</time><name>PT4613</name></trkpt>
<trkpt lat="52.045287" lon="05.753503"><ele>28.2</ele><time>2021-05-01T14:17:55Z</time><name>PT4614</name></trkpt>
<trkpt lat="52.045289" lon="05.753517"><ele>28.1</ele><time>2021-05-01T14:17:57Z</time><name>PT4615</name></trkpt>
<trkpt lat="52.045290" lon="05.753534"><ele>28</ele><time>2021-05-01T14:17:57Z</time><name>PT4616</name></trkpt>
<trkpt lat="52.045289" lon="05.753547"><ele>28.2</ele><time>2021-05-01T14:17:58Z</time><name>PT4617</name></trkpt>
<trkpt lat="52.045288" lon="05.753560"><ele>28.2</ele><time>2021-05-01T14:17:59Z</time><name>PT4618</name></trkpt>
<trkpt lat="52.045289" lon="05.753573"><ele>28.3</ele><time>2021-05-01T14:18:00Z</time><name>PT4619</name></trkpt>
<trkpt lat="52.045289" lon="05.753587"><ele>28.4</ele><time>2021-05-01T14:18:01Z</time><name>PT4620</name></trkpt>
<trkpt lat="52.045292" lon="05.753601"><ele>28.5</ele><time>2021-05-01T14:18:02Z</time><name>PT4621</name></trkpt>
<trkpt lat="52.045298" lon="05.753616"><ele>28.3</ele><time>2021-05-01T14:18:03Z</time><name>PT4622</name></trkpt>
<trkpt lat="52.045303" lon="05.753630"><ele>28.2</ele><time>2021-05-01T14:18:04Z</time><name>PT4623</name></trkpt>
<trkpt lat="52.045306" lon="05.753646"><ele>28.2</ele><time>2021-05-01T14:18:05Z</time><name>PT4624</name></trkpt>
<trkpt lat="52.045308" lon="05.753665"><ele>28.2</ele><time>2021-05-01T14:18:06Z</time><name>PT4625</name></trkpt>
<trkpt lat="52.045314" lon="05.753684"><ele>28.1</ele><time>2021-05-01T14:18:07Z</time><name>PT4626</name></trkpt>
<trkpt lat="52.045318" lon="05.753702"><ele>28</ele><time>2021-05-01T14:18:08Z</time><name>PT4627</name></trkpt>
<trkpt lat="52.045319" lon="05.753720"><ele>28</ele><time>2021-05-01T14:18:09Z</time><name>PT4628</name></trkpt>
<trkpt lat="52.045321" lon="05.753736"><ele>28</ele><time>2021-05-01T14:18:10Z</time><name>PT4629</name></trkpt>
<trkpt lat="52.045323" lon="05.753750"><ele>28.1</ele><time>2021-05-01T14:18:11Z</time><name>PT4630</name></trkpt>
<trkpt lat="52.045324" lon="05.753766"><ele>28.2</ele><time>2021-05-01T14:18:12Z</time><name>PT4631</name></trkpt>
<trkpt lat="52.045326" lon="05.753784"><ele>28.4</ele><time>2021-05-01T14:18:13Z</time><name>PT4632</name></trkpt>
<trkpt lat="52.045329" lon="05.753809"><ele>28.4</ele><time>2021-05-01T14:18:14Z</time><name>PT4633</name></trkpt>
<trkpt lat="52.045334" lon="05.753832"><ele>28.2</ele><time>2021-05-01T14:18:15Z</time><name>PT4634</name></trkpt>
<trkpt lat="52.045338" lon="05.753860"><ele>28.2</ele><time>2021-05-01T14:18:16Z</time><name>PT4635</name></trkpt>
<trkpt lat="52.045338" lon="05.753884"><ele>28.2</ele><time>2021-05-01T14:18:17Z</time><name>PT4636</name></trkpt>
<trkpt lat="52.045339" lon="05.753893"><ele>28.1</ele><time>2021-05-01T14:18:19Z</time><name>PT4637</name></trkpt>
<trkpt lat="52.045339" lon="05.753893"><ele>28.1</ele><time>2021-05-01T14:18:19Z</time><name>PT4638</name></trkpt>
<trkpt lat="52.045342" lon="05.753905"><ele>28.2</ele><time>2021-05-01T14:18:20Z</time><name>PT4639</name></trkpt>
<trkpt lat="52.045346" lon="05.753919"><ele>28.4</ele><time>2021-05-01T14:18:21Z</time><name>PT4640</name></trkpt>
<trkpt lat="52.045348" lon="05.753932"><ele>28.3</ele><time>2021-05-01T14:18:22Z</time><name>PT4641</name></trkpt>
<trkpt lat="52.045351" lon="05.753948"><ele>28.5</ele><time>2021-05-01T14:18:23Z</time><name>PT4642</name></trkpt>
<trkpt lat="52.045355" lon="05.753972"><ele>28.5</ele><time>2021-05-01T14:18:24Z</time><name>PT4643</name></trkpt>
<trkpt lat="52.045355" lon="05.754002"><ele>28.5</ele><time>2021-05-01T14:18:25Z</time><name>PT4644</name></trkpt>
<trkpt lat="52.045352" lon="05.754035"><ele>28.2</ele><time>2021-05-01T14:18:26Z</time><name>PT4645</name></trkpt>
<trkpt lat="52.045353" lon="05.754065"><ele>28.1</ele><time>2021-05-01T14:18:27Z</time><name>PT4646</name></trkpt>
<trkpt lat="52.045355" lon="05.754075"><ele>27.9</ele><time>2021-05-01T14:18:29Z</time><name>PT4647</name></trkpt>
<trkpt lat="52.045361" lon="05.754082"><ele>27.9</ele><time>2021-05-01T14:18:29Z</time><name>PT4648</name></trkpt>
<trkpt lat="52.045364" lon="05.754083"><ele>28</ele><time>2021-05-01T14:18:30Z</time><name>PT4649</name></trkpt>
<trkpt lat="52.045364" lon="05.754098"><ele>28.1</ele><time>2021-05-01T14:18:31Z</time><name>PT4650</name></trkpt>
<trkpt lat="52.045368" lon="05.754128"><ele>28.2</ele><time>2021-05-01T14:18:33Z</time><name>PT4651</name></trkpt>
<trkpt lat="52.045372" lon="05.754157"><ele>28.1</ele><time>2021-05-01T14:18:33Z</time><name>PT4652</name></trkpt>
<trkpt lat="52.045374" lon="05.754186"><ele>28.3</ele><time>2021-05-01T14:18:34Z</time><name>PT4653</name></trkpt>
<trkpt lat="52.045376" lon="05.754208"><ele>28.2</ele><time>2021-05-01T14:18:35Z</time><name>PT4654</name></trkpt>
<trkpt lat="52.045378" lon="05.754222"><ele>28.2</ele><time>2021-05-01T14:18:36Z</time><name>PT4655</name></trkpt>
<trkpt lat="52.045376" lon="05.754217"><ele>28</ele><time>2021-05-01T14:18:37Z</time><name>PT4656</name></trkpt>
<trkpt lat="52.045370" lon="05.754220"><ele>27.9</ele><time>2021-05-01T14:18:38Z</time><name>PT4657</name></trkpt>
<trkpt lat="52.045369" lon="05.754217"><ele>27.9</ele><time>2021-05-01T14:18:39Z</time><name>PT4658</name></trkpt>
<trkpt lat="52.045375" lon="05.754236"><ele>28</ele><time>2021-05-01T14:18:40Z</time><name>PT4659</name></trkpt>
<trkpt lat="52.045380" lon="05.754271"><ele>28.2</ele><time>2021-05-01T14:18:41Z</time><name>PT4660</name></trkpt>
<trkpt lat="52.045383" lon="05.754310"><ele>28.2</ele><time>2021-05-01T14:18:42Z</time><name>PT4661</name></trkpt>
<trkpt lat="52.045384" lon="05.754335"><ele>28.1</ele><time>2021-05-01T14:18:43Z</time><name>PT4662</name></trkpt>
<trkpt lat="52.045386" lon="05.754352"><ele>28.2</ele><time>2021-05-01T14:18:44Z</time><name>PT4663</name></trkpt>
<trkpt lat="52.045386" lon="05.754363"><ele>28</ele><time>2021-05-01T14:18:45Z</time><name>PT4664</name></trkpt>
<trkpt lat="52.045386" lon="05.754375"><ele>28</ele><time>2021-05-01T14:18:46Z</time><name>PT4665</name></trkpt>
<trkpt lat="52.045389" lon="05.754387"><ele>28.1</ele><time>2021-05-01T14:18:47Z</time><name>PT4666</name></trkpt>
<trkpt lat="52.045392" lon="05.754410"><ele>28.2</ele><time>2021-05-01T14:18:48Z</time><name>PT4667</name></trkpt>
<trkpt lat="52.045398" lon="05.754442"><ele>28.2</ele><time>2021-05-01T14:18:49Z</time><name>PT4668</name></trkpt>
<trkpt lat="52.045402" lon="05.754465"><ele>28.3</ele><time>2021-05-01T14:18:50Z</time><name>PT4669</name></trkpt>
<trkpt lat="52.045406" lon="05.754493"><ele>28.3</ele><time>2021-05-01T14:18:51Z</time><name>PT4670</name></trkpt>
<trkpt lat="52.045412" lon="05.754512"><ele>28.4</ele><time>2021-05-01T14:18:52Z</time><name>PT4671</name></trkpt>
<trkpt lat="52.045417" lon="05.754516"><ele>28.4</ele><time>2021-05-01T14:18:53Z</time><name>PT4672</name></trkpt>
<trkpt lat="52.045415" lon="05.754516"><ele>28.4</ele><time>2021-05-01T14:18:54Z</time><name>PT4673</name></trkpt>
<trkpt lat="52.045415" lon="05.754526"><ele>28.4</ele><time>2021-05-01T14:18:55Z</time><name>PT4674</name></trkpt>
<trkpt lat="52.045419" lon="05.754543"><ele>28.4</ele><time>2021-05-01T14:18:56Z</time><name>PT4675</name></trkpt>
<trkpt lat="52.045420" lon="05.754569"><ele>28.2</ele><time>2021-05-01T14:18:57Z</time><name>PT4676</name></trkpt>
<trkpt lat="52.045419" lon="05.754614"><ele>28.4</ele><time>2021-05-01T14:18:58Z</time><name>PT4677</name></trkpt>
<trkpt lat="52.045424" lon="05.754641"><ele>28.4</ele><time>2021-05-01T14:18:59Z</time><name>PT4678</name></trkpt>
<trkpt lat="52.045426" lon="05.754666"><ele>28.5</ele><time>2021-05-01T14:19:00Z</time><name>PT4679</name></trkpt>
<trkpt lat="52.045428" lon="05.754674"><ele>28.4</ele><time>2021-05-01T14:19:01Z</time><name>PT4680</name></trkpt>
<trkpt lat="52.045427" lon="05.754692"><ele>28.4</ele><time>2021-05-01T14:19:02Z</time><name>PT4681</name></trkpt>
<trkpt lat="52.045434" lon="05.754705"><ele>28.4</ele><time>2021-05-01T14:19:03Z</time><name>PT4682</name></trkpt>
<trkpt lat="52.045439" lon="05.754722"><ele>28.5</ele><time>2021-05-01T14:19:04Z</time><name>PT4683</name></trkpt>
<trkpt lat="52.045443" lon="05.754727"><ele>28.6</ele><time>2021-05-01T14:19:05Z</time><name>PT4684</name></trkpt>
<trkpt lat="52.045447" lon="05.754739"><ele>28.5</ele><time>2021-05-01T14:19:06Z</time><name>PT4685</name></trkpt>
<trkpt lat="52.045449" lon="05.754756"><ele>28.6</ele><time>2021-05-01T14:19:07Z</time><name>PT4686</name></trkpt>
<trkpt lat="52.045451" lon="05.754772"><ele>28.7</ele><time>2021-05-01T14:19:08Z</time><name>PT4687</name></trkpt>
<trkpt lat="52.045453" lon="05.754784"><ele>28.7</ele><time>2021-05-01T14:19:09Z</time><name>PT4688</name></trkpt>
<trkpt lat="52.045454" lon="05.754799"><ele>28.8</ele><time>2021-05-01T14:19:10Z</time><name>PT4689</name></trkpt>
<trkpt lat="52.045456" lon="05.754815"><ele>28.7</ele><time>2021-05-01T14:19:11Z</time><name>PT4690</name></trkpt>
<trkpt lat="52.045456" lon="05.754824"><ele>28.7</ele><time>2021-05-01T14:19:12Z</time><name>PT4691</name></trkpt>
<trkpt lat="52.045458" lon="05.754845"><ele>28.4</ele><time>2021-05-01T14:19:13Z</time><name>PT4692</name></trkpt>
<trkpt lat="52.045462" lon="05.754876"><ele>28.3</ele><time>2021-05-01T14:19:14Z</time><name>PT4693</name></trkpt>
<trkpt lat="52.045466" lon="05.754898"><ele>28.3</ele><time>2021-05-01T14:19:15Z</time><name>PT4694</name></trkpt>
<trkpt lat="52.045468" lon="05.754911"><ele>28.3</ele><time>2021-05-01T14:19:16Z</time><name>PT4695</name></trkpt>
<trkpt lat="52.045470" lon="05.754909"><ele>28.2</ele><time>2021-05-01T14:19:17Z</time><name>PT4696</name></trkpt>
<trkpt lat="52.045476" lon="05.754910"><ele>28.2</ele><time>2021-05-01T14:19:18Z</time><name>PT4697</name></trkpt>
<trkpt lat="52.045483" lon="05.754918"><ele>28.1</ele><time>2021-05-01T14:19:19Z</time><name>PT4698</name></trkpt>
<trkpt lat="52.045485" lon="05.754954"><ele>28.2</ele><time>2021-05-01T14:19:20Z</time><name>PT4699</name></trkpt>
<trkpt lat="52.045482" lon="05.754980"><ele>28</ele><time>2021-05-01T14:19:21Z</time><name>PT4700</name></trkpt>
<trkpt lat="52.045492" lon="05.754977"><ele>28</ele><time>2021-05-01T14:19:22Z</time><name>PT4701</name></trkpt>
<trkpt lat="52.045498" lon="05.754980"><ele>28.1</ele><time>2021-05-01T14:19:23Z</time><name>PT4702</name></trkpt>
<trkpt lat="52.045499" lon="05.754983"><ele>28.2</ele><time>2021-05-01T14:19:24Z</time><name>PT4703</name></trkpt>
<trkpt lat="52.045503" lon="05.754987"><ele>28.2</ele><time>2021-05-01T14:19:25Z</time><name>PT4704</name></trkpt>
<trkpt lat="52.045495" lon="05.755008"><ele>28.5</ele><time>2021-05-01T14:19:26Z</time><name>PT4705</name></trkpt>
<trkpt lat="52.045491" lon="05.755039"><ele>28.5</ele><time>2021-05-01T14:19:27Z</time><name>PT4706</name></trkpt>
<trkpt lat="52.045492" lon="05.755057"><ele>28.2</ele><time>2021-05-01T14:19:28Z</time><name>PT4707</name></trkpt>
<trkpt lat="52.045493" lon="05.755070"><ele>28.2</ele><time>2021-05-01T14:19:29Z</time><name>PT4708</name></trkpt>
<trkpt lat="52.045493" lon="05.755078"><ele>28.1</ele><time>2021-05-01T14:19:30Z</time><name>PT4709</name></trkpt>
<trkpt lat="52.045494" lon="05.755079"><ele>28</ele><time>2021-05-01T14:19:31Z</time><name>PT4710</name></trkpt>
<trkpt lat="52.045492" lon="05.755079"><ele>28.2</ele><time>2021-05-01T14:19:32Z</time><name>PT4711</name></trkpt>
<trkpt lat="52.045490" lon="05.755080"><ele>28.2</ele><time>2021-05-01T14:19:34Z</time><name>PT4712</name></trkpt>
<trkpt lat="52.045490" lon="05.755082"><ele>28.2</ele><time>2021-05-01T14:19:34Z</time><name>PT4713</name></trkpt>
<trkpt lat="52.045489" lon="05.755087"><ele>28.2</ele><time>2021-05-01T14:19:35Z</time><name>PT4714</name></trkpt>
<trkpt lat="52.045491" lon="05.755085"><ele>28.2</ele><time>2021-05-01T14:19:39Z</time><name>PT4715</name></trkpt>
<trkpt lat="52.045498" lon="05.755095"><ele>28.2</ele><time>2021-05-01T14:19:40Z</time><name>PT4716</name></trkpt>
<trkpt lat="52.045498" lon="05.755100"><ele>28.1</ele><time>2021-05-01T14:19:41Z</time><name>PT4717</name></trkpt>
<trkpt lat="52.045505" lon="05.755106"><ele>28.1</ele><time>2021-05-01T14:19:42Z</time><name>PT4718</name></trkpt>
<trkpt lat="52.045506" lon="05.755123"><ele>28.1</ele><time>2021-05-01T14:19:43Z</time><name>PT4719</name></trkpt>
<trkpt lat="52.045507" lon="05.755133"><ele>28.2</ele><time>2021-05-01T14:19:44Z</time><name>PT4720</name></trkpt>
<trkpt lat="52.045509" lon="05.755128"><ele>28.1</ele><time>2021-05-01T14:19:45Z</time><name>PT4721</name></trkpt>
<trkpt lat="52.045510" lon="05.755142"><ele>28.2</ele><time>2021-05-01T14:19:46Z</time><name>PT4722</name></trkpt>
<trkpt lat="52.045508" lon="05.755159"><ele>28.2</ele><time>2021-05-01T14:19:48Z</time><name>PT4723</name></trkpt>
<trkpt lat="52.045511" lon="05.755168"><ele>28.2</ele><time>2021-05-01T14:19:48Z</time><name>PT4724</name></trkpt>
<trkpt lat="52.045515" lon="05.755185"><ele>28.3</ele><time>2021-05-01T14:19:49Z</time><name>PT4725</name></trkpt>
<trkpt lat="52.045515" lon="05.755214"><ele>28.4</ele><time>2021-05-01T14:19:50Z</time><name>PT4726</name></trkpt>
<trkpt lat="52.045515" lon="05.755233"><ele>28.2</ele><time>2021-05-01T14:19:52Z</time><name>PT4727</name></trkpt>
<trkpt lat="52.045517" lon="05.755241"><ele>28.2</ele><time>2021-05-01T14:19:53Z</time><name>PT4728</name></trkpt>
<trkpt lat="52.045521" lon="05.755252"><ele>28.2</ele><time>2021-05-01T14:19:54Z</time><name>PT4729</name></trkpt>
<trkpt lat="52.045522" lon="05.755267"><ele>28.2</ele><time>2021-05-01T14:19:54Z</time><name>PT4730</name></trkpt>
<trkpt lat="52.045523" lon="05.755278"><ele>28.2</ele><time>2021-05-01T14:19:55Z</time><name>PT4731</name></trkpt>
<trkpt lat="52.045526" lon="05.755291"><ele>28</ele><time>2021-05-01T14:19:56Z</time><name>PT4732</name></trkpt>
<trkpt lat="52.045527" lon="05.755305"><ele>28.1</ele><time>2021-05-01T14:19:57Z</time><name>PT4733</name></trkpt>
<trkpt lat="52.045527" lon="05.755317"><ele>28.1</ele><time>2021-05-01T14:19:58Z</time><name>PT4734</name></trkpt>
<trkpt lat="52.045531" lon="05.755319"><ele>28</ele><time>2021-05-01T14:19:59Z</time><name>PT4735</name></trkpt>
<trkpt lat="52.045537" lon="05.755336"><ele>28.1</ele><time>2021-05-01T14:20:00Z</time><name>PT4736</name></trkpt>
<trkpt lat="52.045538" lon="05.755356"><ele>28.2</ele><time>2021-05-01T14:20:01Z</time><name>PT4737</name></trkpt>
<trkpt lat="52.045538" lon="05.755372"><ele>28.3</ele><time>2021-05-01T14:20:02Z</time><name>PT4738</name></trkpt>
<trkpt lat="52.045539" lon="05.755378"><ele>28.3</ele><time>2021-05-01T14:20:03Z</time><name>PT4739</name></trkpt>
<trkpt lat="52.045540" lon="05.755386"><ele>28.4</ele><time>2021-05-01T14:20:04Z</time><name>PT4740</name></trkpt>
<trkpt lat="52.045541" lon="05.755396"><ele>28.2</ele><time>2021-05-01T14:20:05Z</time><name>PT4741</name></trkpt>
<trkpt lat="52.045543" lon="05.755410"><ele>28.3</ele><time>2021-05-01T14:20:06Z</time><name>PT4742</name></trkpt>
<trkpt lat="52.045544" lon="05.755420"><ele>28.2</ele><time>2021-05-01T14:20:07Z</time><name>PT4743</name></trkpt>
<trkpt lat="52.045546" lon="05.755423"><ele>28.2</ele><time>2021-05-01T14:20:08Z</time><name>PT4744</name></trkpt>
<trkpt lat="52.045549" lon="05.755422"><ele>28.3</ele><time>2021-05-01T14:20:09Z</time><name>PT4745</name></trkpt>
<trkpt lat="52.045551" lon="05.755437"><ele>28.3</ele><time>2021-05-01T14:20:10Z</time><name>PT4746</name></trkpt>
<trkpt lat="52.045551" lon="05.755451"><ele>28.2</ele><time>2021-05-01T14:20:11Z</time><name>PT4747</name></trkpt>
<trkpt lat="52.045555" lon="05.755465"><ele>28.2</ele><time>2021-05-01T14:20:12Z</time><name>PT4748</name></trkpt>
<trkpt lat="52.045560" lon="05.755474"><ele>28.2</ele><time>2021-05-01T14:20:13Z</time><name>PT4749</name></trkpt>
<trkpt lat="52.045562" lon="05.755480"><ele>28.2</ele><time>2021-05-01T14:20:14Z</time><name>PT4750</name></trkpt>
<trkpt lat="52.045564" lon="05.755491"><ele>28.2</ele><time>2021-05-01T14:20:15Z</time><name>PT4751</name></trkpt>
<trkpt lat="52.045565" lon="05.755499"><ele>28.2</ele><time>2021-05-01T14:20:16Z</time><name>PT4752</name></trkpt>
<trkpt lat="52.045567" lon="05.755510"><ele>28.4</ele><time>2021-05-01T14:20:17Z</time><name>PT4753</name></trkpt>
<trkpt lat="52.045569" lon="05.755518"><ele>28.5</ele><time>2021-05-01T14:20:18Z</time><name>PT4754</name></trkpt>
<trkpt lat="52.045572" lon="05.755524"><ele>28.6</ele><time>2021-05-01T14:20:19Z</time><name>PT4755</name></trkpt>
<trkpt lat="52.045576" lon="05.755532"><ele>28.4</ele><time>2021-05-01T14:20:26Z</time><name>PT4756</name></trkpt>
<trkpt lat="52.045578" lon="05.755539"><ele>28.6</ele><time>2021-05-01T14:20:27Z</time><name>PT4757</name></trkpt>
<trkpt lat="52.045590" lon="05.755594"><ele>27.3</ele><time>2021-05-01T14:32:20Z</time><name>PT4758</name></trkpt>
<trkpt lat="52.045591" lon="05.755599"><ele>27.2</ele><time>2021-05-01T14:32:30Z</time><name>PT4759</name></trkpt>
<trkpt lat="52.045590" lon="05.755617"><ele>27.2</ele><time>2021-05-01T14:32:31Z</time><name>PT4760</name></trkpt>
<trkpt lat="52.045592" lon="05.755630"><ele>27.1</ele><time>2021-05-01T14:32:32Z</time><name>PT4761</name></trkpt>
<trkpt lat="52.045593" lon="05.755645"><ele>27</ele><time>2021-05-01T14:32:33Z</time><name>PT4762</name></trkpt>
<trkpt lat="52.045595" lon="05.755669"><ele>26.9</ele><time>2021-05-01T14:32:34Z</time><name>PT4763</name></trkpt>
<trkpt lat="52.045596" lon="05.755691"><ele>27</ele><time>2021-05-01T14:32:35Z</time><name>PT4764</name></trkpt>
<trkpt lat="52.045599" lon="05.755706"><ele>27.1</ele><time>2021-05-01T14:32:36Z</time><name>PT4765</name></trkpt>
<trkpt lat="52.045600" lon="05.755715"><ele>27.2</ele><time>2021-05-01T14:32:37Z</time><name>PT4766</name></trkpt>
<trkpt lat="52.045604" lon="05.755729"><ele>27.2</ele><time>2021-05-01T14:32:38Z</time><name>PT4767</name></trkpt>
<trkpt lat="52.045606" lon="05.755741"><ele>27</ele><time>2021-05-01T14:32:39Z</time><name>PT4768</name></trkpt>
<trkpt lat="52.045607" lon="05.755755"><ele>27.2</ele><time>2021-05-01T14:32:40Z</time><name>PT4769</name></trkpt>
<trkpt lat="52.045609" lon="05.755780"><ele>27.2</ele><time>2021-05-01T14:32:41Z</time><name>PT4770</name></trkpt>
<trkpt lat="52.045612" lon="05.755799"><ele>27.5</ele><time>2021-05-01T14:32:42Z</time><name>PT4771</name></trkpt>
<trkpt lat="52.045616" lon="05.755814"><ele>27.5</ele><time>2021-05-01T14:32:43Z</time><name>PT4772</name></trkpt>
<trkpt lat="52.045618" lon="05.755826"><ele>27.7</ele><time>2021-05-01T14:32:44Z</time><name>PT4773</name></trkpt>
<trkpt lat="52.045625" lon="05.755834"><ele>27.3</ele><time>2021-05-01T14:32:46Z</time><name>PT4774</name></trkpt>
<trkpt lat="52.045631" lon="05.755842"><ele>27.4</ele><time>2021-05-01T14:32:46Z</time><name>PT4775</name></trkpt>
<trkpt lat="52.045629" lon="05.755856"><ele>27.3</ele><time>2021-05-01T14:32:47Z</time><name>PT4776</name></trkpt>
<trkpt lat="52.045628" lon="05.755865"><ele>27.2</ele><time>2021-05-01T14:32:48Z</time><name>PT4777</name></trkpt>
<trkpt lat="52.045633" lon="05.755876"><ele>27.2</ele><time>2021-05-01T14:32:50Z</time><name>PT4778</name></trkpt>
<trkpt lat="52.045633" lon="05.755885"><ele>27.2</ele><time>2021-05-01T14:32:50Z</time><name>PT4779</name></trkpt>
<trkpt lat="52.045634" lon="05.755897"><ele>27.2</ele><time>2021-05-01T14:32:52Z</time><name>PT4780</name></trkpt>
<trkpt lat="52.045631" lon="05.755913"><ele>27.2</ele><time>2021-05-01T14:32:52Z</time><name>PT4781</name></trkpt>
<trkpt lat="52.045632" lon="05.755928"><ele>27.4</ele><time>2021-05-01T14:32:53Z</time><name>PT4782</name></trkpt>
<trkpt lat="52.045634" lon="05.755942"><ele>27.4</ele><time>2021-05-01T14:32:54Z</time><name>PT4783</name></trkpt>
<trkpt lat="52.045635" lon="05.755961"><ele>27.6</ele><time>2021-05-01T14:32:55Z</time><name>PT4784</name></trkpt>
<trkpt lat="52.045638" lon="05.755974"><ele>27.5</ele><time>2021-05-01T14:32:56Z</time><name>PT4785</name></trkpt>
<trkpt lat="52.045638" lon="05.755978"><ele>27.4</ele><time>2021-05-01T14:32:57Z</time><name>PT4786</name></trkpt>
<trkpt lat="52.045636" lon="05.755988"><ele>27.3</ele><time>2021-05-01T14:32:58Z</time><name>PT4787</name></trkpt>
<trkpt lat="52.045635" lon="05.755996"><ele>27.2</ele><time>2021-05-01T14:32:59Z</time><name>PT4788</name></trkpt>
<trkpt lat="52.045633" lon="05.756005"><ele>27.2</ele><time>2021-05-01T14:33:00Z</time><name>PT4789</name></trkpt>
<trkpt lat="52.045639" lon="05.756020"><ele>27.3</ele><time>2021-05-01T14:33:01Z</time><name>PT4790</name></trkpt>
<trkpt lat="52.045640" lon="05.756037"><ele>27.3</ele><time>2021-05-01T14:33:02Z</time><name>PT4791</name></trkpt>
<trkpt lat="52.045636" lon="05.756056"><ele>27.2</ele><time>2021-05-01T14:33:03Z</time><name>PT4792</name></trkpt>
<trkpt lat="52.045633" lon="05.756072"><ele>27.1</ele><time>2021-05-01T14:33:04Z</time><name>PT4793</name></trkpt>
<trkpt lat="52.045628" lon="05.756088"><ele>26.9</ele><time>2021-05-01T14:33:05Z</time><name>PT4794</name></trkpt>
<trkpt lat="52.045627" lon="05.756103"><ele>26.9</ele><time>2021-05-01T14:33:06Z</time><name>PT4795</name></trkpt>
<trkpt lat="52.045624" lon="05.756119"><ele>26.8</ele><time>2021-05-01T14:33:07Z</time><name>PT4796</name></trkpt>
<trkpt lat="52.045621" lon="05.756132"><ele>26.9</ele><time>2021-05-01T14:33:08Z</time><name>PT4797</name></trkpt>
<trkpt lat="52.045618" lon="05.756143"><ele>27.2</ele><time>2021-05-01T14:33:09Z</time><name>PT4798</name></trkpt>
<trkpt lat="52.045613" lon="05.756155"><ele>27.2</ele><time>2021-05-01T14:33:10Z</time><name>PT4799</name></trkpt>
<trkpt lat="52.045606" lon="05.756170"><ele>27.2</ele><time>2021-05-01T14:33:11Z</time><name>PT4800</name></trkpt>
<trkpt lat="52.045600" lon="05.756184"><ele>27.2</ele><time>2021-05-01T14:33:12Z</time><name>PT4801</name></trkpt>
<trkpt lat="52.045592" lon="05.756196"><ele>27.1</ele><time>2021-05-01T14:33:13Z</time><name>PT4802</name></trkpt>
<trkpt lat="52.045584" lon="05.756211"><ele>27.1</ele><time>2021-05-01T14:33:14Z</time><name>PT4803</name></trkpt>
<trkpt lat="52.045577" lon="05.756222"><ele>27.1</ele><time>2021-05-01T14:33:15Z</time><name>PT4804</name></trkpt>
<trkpt lat="52.045568" lon="05.756232"><ele>27</ele><time>2021-05-01T14:33:16Z</time><name>PT4805</name></trkpt>
<trkpt lat="52.045560" lon="05.756242"><ele>27</ele><time>2021-05-01T14:33:17Z</time><name>PT4806</name></trkpt>
<trkpt lat="52.045552" lon="05.756253"><ele>27.1</ele><time>2021-05-01T14:33:18Z</time><name>PT4807</name></trkpt>
<trkpt lat="52.045544" lon="05.756266"><ele>27.1</ele><time>2021-05-01T14:33:19Z</time><name>PT4808</name></trkpt>
<trkpt lat="52.045539" lon="05.756280"><ele>27.2</ele><time>2021-05-01T14:33:20Z</time><name>PT4809</name></trkpt>
<trkpt lat="52.045533" lon="05.756294"><ele>27.5</ele><time>2021-05-01T14:33:21Z</time><name>PT4810</name></trkpt>
<trkpt lat="52.045526" lon="05.756299"><ele>27.5</ele><time>2021-05-01T14:33:22Z</time><name>PT4811</name></trkpt>
<trkpt lat="52.045517" lon="05.756297"><ele>27.6</ele><time>2021-05-01T14:33:23Z</time><name>PT4812</name></trkpt>
<trkpt lat="52.045512" lon="05.756305"><ele>27.5</ele><time>2021-05-01T14:33:24Z</time><name>PT4813</name></trkpt>
<trkpt lat="52.045503" lon="05.756308"><ele>27.4</ele><time>2021-05-01T14:33:25Z</time><name>PT4814</name></trkpt>
<trkpt lat="52.045494" lon="05.756322"><ele>27.4</ele><time>2021-05-01T14:33:26Z</time><name>PT4815</name></trkpt>
<trkpt lat="52.045486" lon="05.756342"><ele>27.4</ele><time>2021-05-01T14:33:27Z</time><name>PT4816</name></trkpt>
<trkpt lat="52.045478" lon="05.756358"><ele>27.3</ele><time>2021-05-01T14:33:28Z</time><name>PT4817</name></trkpt>
<trkpt lat="52.045470" lon="05.756375"><ele>27.2</ele><time>2021-05-01T14:33:29Z</time><name>PT4818</name></trkpt>
<trkpt lat="52.045459" lon="05.756386"><ele>27.3</ele><time>2021-05-01T14:33:30Z</time><name>PT4819</name></trkpt>
<trkpt lat="52.045452" lon="05.756398"><ele>27.3</ele><time>2021-05-01T14:33:31Z</time><name>PT4820</name></trkpt>
<trkpt lat="52.045447" lon="05.756408"><ele>27.3</ele><time>2021-05-01T14:33:32Z</time><name>PT4821</name></trkpt>
<trkpt lat="52.045440" lon="05.756419"><ele>27.4</ele><time>2021-05-01T14:33:33Z</time><name>PT4822</name></trkpt>
<trkpt lat="52.045431" lon="05.756431"><ele>27.5</ele><time>2021-05-01T14:33:34Z</time><name>PT4823</name></trkpt>
<trkpt lat="52.045421" lon="05.756440"><ele>27.2</ele><time>2021-05-01T14:33:35Z</time><name>PT4824</name></trkpt>
<trkpt lat="52.045416" lon="05.756451"><ele>27.2</ele><time>2021-05-01T14:33:36Z</time><name>PT4825</name></trkpt>
<trkpt lat="52.045415" lon="05.756462"><ele>27.2</ele><time>2021-05-01T14:33:37Z</time><name>PT4826</name></trkpt>
<trkpt lat="52.045414" lon="05.756467"><ele>27.2</ele><time>2021-05-01T14:33:38Z</time><name>PT4827</name></trkpt>
<trkpt lat="52.045414" lon="05.756472"><ele>27.2</ele><time>2021-05-01T14:33:39Z</time><name>PT4828</name></trkpt>
<trkpt lat="52.045394" lon="05.756484"><ele>27.3</ele><time>2021-05-01T14:33:40Z</time><name>PT4829</name></trkpt>
<trkpt lat="52.045371" lon="05.756495"><ele>27.4</ele><time>2021-05-01T14:33:41Z</time><name>PT4830</name></trkpt>
<trkpt lat="52.045352" lon="05.756506"><ele>27.3</ele><time>2021-05-01T14:33:42Z</time><name>PT4831</name></trkpt>
<trkpt lat="52.045338" lon="05.756512"><ele>27.2</ele><time>2021-05-01T14:33:43Z</time><name>PT4832</name></trkpt>
<trkpt lat="52.045333" lon="05.756511"><ele>27.2</ele><time>2021-05-01T14:33:44Z</time><name>PT4833</name></trkpt>
<trkpt lat="52.045331" lon="05.756516"><ele>26.9</ele><time>2021-05-01T14:33:45Z</time><name>PT4834</name></trkpt>
<trkpt lat="52.045328" lon="05.756525"><ele>27</ele><time>2021-05-01T14:33:46Z</time><name>PT4835</name></trkpt>
<trkpt lat="52.045313" lon="05.756538"><ele>27</ele><time>2021-05-01T14:33:47Z</time><name>PT4836</name></trkpt>
<trkpt lat="52.045289" lon="05.756548"><ele>27</ele><time>2021-05-01T14:33:48Z</time><name>PT4837</name></trkpt>
<trkpt lat="52.045271" lon="05.756557"><ele>27.2</ele><time>2021-05-01T14:33:49Z</time><name>PT4838</name></trkpt>
<trkpt lat="52.045269" lon="05.756564"><ele>27.1</ele><time>2021-05-01T14:33:50Z</time><name>PT4839</name></trkpt>
<trkpt lat="52.045273" lon="05.756564"><ele>27</ele><time>2021-05-01T14:33:51Z</time><name>PT4840</name></trkpt>
<trkpt lat="52.045275" lon="05.756567"><ele>27</ele><time>2021-05-01T14:33:52Z</time><name>PT4841</name></trkpt>
<trkpt lat="52.045266" lon="05.756574"><ele>27</ele><time>2021-05-01T14:33:53Z</time><name>PT4842</name></trkpt>
<trkpt lat="52.045253" lon="05.756585"><ele>26.9</ele><time>2021-05-01T14:33:54Z</time><name>PT4843</name></trkpt>
<trkpt lat="52.045230" lon="05.756598"><ele>26.9</ele><time>2021-05-01T14:33:55Z</time><name>PT4844</name></trkpt>
<trkpt lat="52.045214" lon="05.756606"><ele>26.8</ele><time>2021-05-01T14:33:56Z</time><name>PT4845</name></trkpt>
<trkpt lat="52.045199" lon="05.756613"><ele>26.7</ele><time>2021-05-01T14:33:57Z</time><name>PT4846</name></trkpt>
<trkpt lat="52.045190" lon="05.756618"><ele>26.5</ele><time>2021-05-01T14:33:58Z</time><name>PT4847</name></trkpt>
<trkpt lat="52.045187" lon="05.756620"><ele>26.5</ele><time>2021-05-01T14:33:59Z</time><name>PT4848</name></trkpt>
<trkpt lat="52.045186" lon="05.756627"><ele>26.5</ele><time>2021-05-01T14:34:00Z</time><name>PT4849</name></trkpt>
<trkpt lat="52.045177" lon="05.756638"><ele>26.5</ele><time>2021-05-01T14:34:01Z</time><name>PT4850</name></trkpt>
<trkpt lat="52.045165" lon="05.756649"><ele>26.4</ele><time>2021-05-01T14:34:02Z</time><name>PT4851</name></trkpt>
<trkpt lat="52.045151" lon="05.756660"><ele>26.4</ele><time>2021-05-01T14:34:03Z</time><name>PT4852</name></trkpt>
<trkpt lat="52.045131" lon="05.756671"><ele>26.3</ele><time>2021-05-01T14:34:04Z</time><name>PT4853</name></trkpt>
<trkpt lat="52.045116" lon="05.756684"><ele>26.3</ele><time>2021-05-01T14:34:05Z</time><name>PT4854</name></trkpt>
<trkpt lat="52.045105" lon="05.756693"><ele>26.3</ele><time>2021-05-01T14:34:06Z</time><name>PT4855</name></trkpt>
<trkpt lat="52.045096" lon="05.756692"><ele>26.3</ele><time>2021-05-01T14:34:07Z</time><name>PT4856</name></trkpt>
<trkpt lat="52.045095" lon="05.756696"><ele>26.4</ele><time>2021-05-01T14:34:08Z</time><name>PT4857</name></trkpt>
<trkpt lat="52.045093" lon="05.756700"><ele>26.6</ele><time>2021-05-01T14:34:09Z</time><name>PT4858</name></trkpt>
<trkpt lat="52.045088" lon="05.756709"><ele>26.5</ele><time>2021-05-01T14:34:10Z</time><name>PT4859</name></trkpt>
<trkpt lat="52.045077" lon="05.756717"><ele>26.7</ele><time>2021-05-01T14:34:11Z</time><name>PT4860</name></trkpt>
<trkpt lat="52.045068" lon="05.756725"><ele>26.8</ele><time>2021-05-01T14:34:12Z</time><name>PT4861</name></trkpt>
<trkpt lat="52.045050" lon="05.756740"><ele>26.8</ele><time>2021-05-01T14:34:13Z</time><name>PT4862</name></trkpt>
<trkpt lat="52.045033" lon="05.756753"><ele>26.6</ele><time>2021-05-01T14:34:14Z</time><name>PT4863</name></trkpt>
<trkpt lat="52.045025" lon="05.756763"><ele>26.7</ele><time>2021-05-01T14:34:15Z</time><name>PT4864</name></trkpt>
<trkpt lat="52.045024" lon="05.756771"><ele>26.8</ele><time>2021-05-01T14:34:16Z</time><name>PT4865</name></trkpt>
<trkpt lat="52.045024" lon="05.756775"><ele>26.8</ele><time>2021-05-01T14:34:17Z</time><name>PT4866</name></trkpt>
<trkpt lat="52.045021" lon="05.756774"><ele>26.9</ele><time>2021-05-01T14:34:18Z</time><name>PT4867</name></trkpt>
<trkpt lat="52.045015" lon="05.756782"><ele>26.9</ele><time>2021-05-01T14:34:19Z</time><name>PT4868</name></trkpt>
<trkpt lat="52.045005" lon="05.756795"><ele>26.8</ele><time>2021-05-01T14:34:20Z</time><name>PT4869</name></trkpt>
<trkpt lat="52.044990" lon="05.756794"><ele>26.8</ele><time>2021-05-01T14:34:21Z</time><name>PT4870</name></trkpt>
<trkpt lat="52.044972" lon="05.756796"><ele>26.8</ele><time>2021-05-01T14:34:22Z</time><name>PT4871</name></trkpt>
<trkpt lat="52.044956" lon="05.756797"><ele>26.6</ele><time>2021-05-01T14:34:23Z</time><name>PT4872</name></trkpt>
<trkpt lat="52.044951" lon="05.756801"><ele>26.8</ele><time>2021-05-01T14:34:24Z</time><name>PT4873</name></trkpt>
<trkpt lat="52.044951" lon="05.756807"><ele>26.7</ele><time>2021-05-01T14:34:25Z</time><name>PT4874</name></trkpt>
<trkpt lat="52.044952" lon="05.756810"><ele>26.6</ele><time>2021-05-01T14:34:26Z</time><name>PT4875</name></trkpt>
<trkpt lat="52.044944" lon="05.756814"><ele>26.6</ele><time>2021-05-01T14:34:27Z</time><name>PT4876</name></trkpt>
<trkpt lat="52.044926" lon="05.756813"><ele>26.6</ele><time>2021-05-01T14:34:28Z</time><name>PT4877</name></trkpt>
<trkpt lat="52.044908" lon="05.756820"><ele>26.5</ele><time>2021-05-01T14:34:29Z</time><name>PT4878</name></trkpt>
<trkpt lat="52.044882" lon="05.756832"><ele>26.6</ele><time>2021-05-01T14:34:30Z</time><name>PT4879</name></trkpt>
<trkpt lat="52.044866" lon="05.756840"><ele>26.7</ele><time>2021-05-01T14:34:31Z</time><name>PT4880</name></trkpt>
<trkpt lat="52.044858" lon="05.756842"><ele>26.6</ele><time>2021-05-01T14:34:32Z</time><name>PT4881</name></trkpt>
<trkpt lat="52.044855" lon="05.756849"><ele>26.5</ele><time>2021-05-01T14:34:33Z</time><name>PT4882</name></trkpt>
<trkpt lat="52.044853" lon="05.756856"><ele>26.4</ele><time>2021-05-01T14:34:34Z</time><name>PT4883</name></trkpt>
<trkpt lat="52.044851" lon="05.756864"><ele>26.4</ele><time>2021-05-01T14:34:35Z</time><name>PT4884</name></trkpt>
<trkpt lat="52.044846" lon="05.756874"><ele>26.5</ele><time>2021-05-01T14:34:36Z</time><name>PT4885</name></trkpt>
<trkpt lat="52.044840" lon="05.756881"><ele>26.5</ele><time>2021-05-01T14:34:37Z</time><name>PT4886</name></trkpt>
<trkpt lat="52.044826" lon="05.756887"><ele>26.6</ele><time>2021-05-01T14:34:38Z</time><name>PT4887</name></trkpt>
<trkpt lat="52.044814" lon="05.756888"><ele>26.6</ele><time>2021-05-01T14:34:39Z</time><name>PT4888</name></trkpt>
<trkpt lat="52.044804" lon="05.756893"><ele>26.6</ele><time>2021-05-01T14:34:40Z</time><name>PT4889</name></trkpt>
<trkpt lat="52.044783" lon="05.756910"><ele>26.4</ele><time>2021-05-01T14:34:41Z</time><name>PT4890</name></trkpt>
<trkpt lat="52.044771" lon="05.756921"><ele>26.5</ele><time>2021-05-01T14:34:42Z</time><name>PT4891</name></trkpt>
<trkpt lat="52.044765" lon="05.756935"><ele>26.6</ele><time>2021-05-01T14:34:43Z</time><name>PT4892</name></trkpt>
<trkpt lat="52.044747" lon="05.756934"><ele>26.6</ele><time>2021-05-01T14:34:44Z</time><name>PT4893</name></trkpt>
<trkpt lat="52.044729" lon="05.756939"><ele>26.8</ele><time>2021-05-01T14:34:45Z</time><name>PT4894</name></trkpt>
<trkpt lat="52.044714" lon="05.756939"><ele>26.8</ele><time>2021-05-01T14:34:46Z</time><name>PT4895</name></trkpt>
<trkpt lat="52.044701" lon="05.756936"><ele>26.8</ele><time>2021-05-01T14:34:47Z</time><name>PT4896</name></trkpt>
<trkpt lat="52.044691" lon="05.756936"><ele>26.8</ele><time>2021-05-01T14:34:48Z</time><name>PT4897</name></trkpt>
<trkpt lat="52.044691" lon="05.756938"><ele>26.8</ele><time>2021-05-01T14:34:49Z</time><name>PT4898</name></trkpt>
<trkpt lat="52.044691" lon="05.756939"><ele>26.8</ele><time>2021-05-01T14:34:50Z</time><name>PT4899</name></trkpt>
<trkpt lat="52.044686" lon="05.756943"><ele>26.6</ele><time>2021-05-01T14:34:51Z</time><name>PT4900</name></trkpt>
<trkpt lat="52.044676" lon="05.756950"><ele>26.5</ele><time>2021-05-01T14:34:52Z</time><name>PT4901</name></trkpt>
<trkpt lat="52.044661" lon="05.756950"><ele>26.4</ele><time>2021-05-01T14:34:53Z</time><name>PT4902</name></trkpt>
<trkpt lat="52.044645" lon="05.756946"><ele>26.4</ele><time>2021-05-01T14:34:54Z</time><name>PT4903</name></trkpt>
<trkpt lat="52.044630" lon="05.756941"><ele>26.3</ele><time>2021-05-01T14:34:55Z</time><name>PT4904</name></trkpt>
<trkpt lat="52.044622" lon="05.756940"><ele>26.3</ele><time>2021-05-01T14:34:56Z</time><name>PT4905</name></trkpt>
<trkpt lat="52.044622" lon="05.756941"><ele>26.5</ele><time>2021-05-01T14:34:57Z</time><name>PT4906</name></trkpt>
<trkpt lat="52.044616" lon="05.756943"><ele>26.4</ele><time>2021-05-01T14:34:58Z</time><name>PT4907</name></trkpt>
<trkpt lat="52.044603" lon="05.756951"><ele>26.5</ele><time>2021-05-01T14:34:59Z</time><name>PT4908</name></trkpt>
<trkpt lat="52.044592" lon="05.756955"><ele>26.6</ele><time>2021-05-01T14:35:00Z</time><name>PT4909</name></trkpt>
<trkpt lat="52.044577" lon="05.756964"><ele>26.8</ele><time>2021-05-01T14:35:01Z</time><name>PT4910</name></trkpt>
<trkpt lat="52.044556" lon="05.756973"><ele>26.6</ele><time>2021-05-01T14:35:02Z</time><name>PT4911</name></trkpt>
<trkpt lat="52.044540" lon="05.756977"><ele>26.4</ele><time>2021-05-01T14:35:03Z</time><name>PT4912</name></trkpt>
<trkpt lat="52.044532" lon="05.756983"><ele>26.5</ele><time>2021-05-01T14:35:04Z</time><name>PT4913</name></trkpt>
<trkpt lat="52.044530" lon="05.756986"><ele>26.2</ele><time>2021-05-01T14:35:05Z</time><name>PT4914</name></trkpt>
<trkpt lat="52.044526" lon="05.757000"><ele>26.3</ele><time>2021-05-01T14:35:06Z</time><name>PT4915</name></trkpt>
<trkpt lat="52.044516" lon="05.757008"><ele>26.3</ele><time>2021-05-01T14:35:07Z</time><name>PT4916</name></trkpt>
<trkpt lat="52.044501" lon="05.757017"><ele>26.4</ele><time>2021-05-01T14:35:08Z</time><name>PT4917</name></trkpt>
<trkpt lat="52.044481" lon="05.757025"><ele>26.3</ele><time>2021-05-01T14:35:09Z</time><name>PT4918</name></trkpt>
<trkpt lat="52.044473" lon="05.757036"><ele>26.5</ele><time>2021-05-01T14:35:10Z</time><name>PT4919</name></trkpt>
<trkpt lat="52.044473" lon="05.757050"><ele>26.6</ele><time>2021-05-01T14:35:11Z</time><name>PT4920</name></trkpt>
<trkpt lat="52.044477" lon="05.757062"><ele>26.5</ele><time>2021-05-01T14:35:12Z</time><name>PT4921</name></trkpt>
<trkpt lat="52.044476" lon="05.757071"><ele>26.7</ele><time>2021-05-01T14:35:13Z</time><name>PT4922</name></trkpt>
<trkpt lat="52.044465" lon="05.757087"><ele>26.8</ele><time>2021-05-01T14:35:14Z</time><name>PT4923</name></trkpt>
<trkpt lat="52.044442" lon="05.757086"><ele>26.8</ele><time>2021-05-01T14:35:15Z</time><name>PT4924</name></trkpt>
<trkpt lat="52.044421" lon="05.757087"><ele>26.8</ele><time>2021-05-01T14:35:16Z</time><name>PT4925</name></trkpt>
<trkpt lat="52.044404" lon="05.757098"><ele>26.8</ele><time>2021-05-01T14:35:17Z</time><name>PT4926</name></trkpt>
<trkpt lat="52.044394" lon="05.757104"><ele>26.8</ele><time>2021-05-01T14:35:18Z</time><name>PT4927</name></trkpt>
<trkpt lat="52.044386" lon="05.757111"><ele>26.8</ele><time>2021-05-01T14:35:19Z</time><name>PT4928</name></trkpt>
<trkpt lat="52.044382" lon="05.757113"><ele>26.7</ele><time>2021-05-01T14:35:20Z</time><name>PT4929</name></trkpt>
<trkpt lat="52.044372" lon="05.757114"><ele>26.8</ele><time>2021-05-01T14:35:21Z</time><name>PT4930</name></trkpt>
<trkpt lat="52.044361" lon="05.757118"><ele>26.8</ele><time>2021-05-01T14:35:22Z</time><name>PT4931</name></trkpt>
<trkpt lat="52.044345" lon="05.757133"><ele>26.6</ele><time>2021-05-01T14:35:23Z</time><name>PT4932</name></trkpt>
<trkpt lat="52.044328" lon="05.757144"><ele>26.7</ele><time>2021-05-01T14:35:24Z</time><name>PT4933</name></trkpt>
<trkpt lat="52.044313" lon="05.757141"><ele>26.8</ele><time>2021-05-01T14:35:25Z</time><name>PT4934</name></trkpt>
<trkpt lat="52.044306" lon="05.757145"><ele>26.6</ele><time>2021-05-01T14:35:26Z</time><name>PT4935</name></trkpt>
<trkpt lat="52.044304" lon="05.757154"><ele>26.5</ele><time>2021-05-01T14:35:27Z</time><name>PT4936</name></trkpt>
<trkpt lat="52.044293" lon="05.757158"><ele>26.6</ele><time>2021-05-01T14:35:28Z</time><name>PT4937</name></trkpt>
<trkpt lat="52.044281" lon="05.757166"><ele>26.4</ele><time>2021-05-01T14:35:29Z</time><name>PT4938</name></trkpt>
<trkpt lat="52.044262" lon="05.757179"><ele>26.3</ele><time>2021-05-01T14:35:30Z</time><name>PT4939</name></trkpt>
<trkpt lat="52.044240" lon="05.757193"><ele>26.5</ele><time>2021-05-01T14:35:31Z</time><name>PT4940</name></trkpt>
<trkpt lat="52.044225" lon="05.757200"><ele>26.5</ele><time>2021-05-01T14:35:33Z</time><name>PT4941</name></trkpt>
<trkpt lat="52.044215" lon="05.757209"><ele>26.6</ele><time>2021-05-01T14:35:33Z</time><name>PT4942</name></trkpt>
<trkpt lat="52.044212" lon="05.757213"><ele>26.8</ele><time>2021-05-01T14:35:34Z</time><name>PT4943</name></trkpt>
<trkpt lat="52.044209" lon="05.757213"><ele>26.9</ele><time>2021-05-01T14:35:35Z</time><name>PT4944</name></trkpt>
<trkpt lat="52.044203" lon="05.757212"><ele>26.8</ele><time>2021-05-01T14:35:36Z</time><name>PT4945</name></trkpt>
<trkpt lat="52.044191" lon="05.757210"><ele>26.8</ele><time>2021-05-01T14:35:38Z</time><name>PT4946</name></trkpt>
<trkpt lat="52.044172" lon="05.757213"><ele>26.7</ele><time>2021-05-01T14:35:38Z</time><name>PT4947</name></trkpt>
<trkpt lat="52.044152" lon="05.757214"><ele>26.6</ele><time>2021-05-01T14:35:39Z</time><name>PT4948</name></trkpt>
<trkpt lat="52.044143" lon="05.757214"><ele>26.6</ele><time>2021-05-01T14:35:40Z</time><name>PT4949</name></trkpt>
<trkpt lat="52.044136" lon="05.757212"><ele>26.6</ele><time>2021-05-01T14:35:41Z</time><name>PT4950</name></trkpt>
<trkpt lat="52.044129" lon="05.757213"><ele>26.6</ele><time>2021-05-01T14:35:42Z</time><name>PT4951</name></trkpt>
<trkpt lat="52.044121" lon="05.757218"><ele>26.6</ele><time>2021-05-01T14:35:43Z</time><name>PT4952</name></trkpt>
<trkpt lat="52.044096" lon="05.757224"><ele>26.7</ele><time>2021-05-01T14:35:44Z</time><name>PT4953</name></trkpt>
<trkpt lat="52.044080" lon="05.757215"><ele>26.7</ele><time>2021-05-01T14:35:45Z</time><name>PT4954</name></trkpt>
<trkpt lat="52.044070" lon="05.757215"><ele>26.5</ele><time>2021-05-01T14:35:46Z</time><name>PT4955</name></trkpt>
<trkpt lat="52.044065" lon="05.757219"><ele>26.5</ele><time>2021-05-01T14:35:48Z</time><name>PT4956</name></trkpt>
<trkpt lat="52.044063" lon="05.757220"><ele>26.5</ele><time>2021-05-01T14:35:48Z</time><name>PT4957</name></trkpt>
<trkpt lat="52.044061" lon="05.757224"><ele>26.5</ele><time>2021-05-01T14:35:49Z</time><name>PT4958</name></trkpt>
<trkpt lat="52.044049" lon="05.757231"><ele>26.5</ele><time>2021-05-01T14:35:50Z</time><name>PT4959</name></trkpt>
<trkpt lat="52.044032" lon="05.757248"><ele>26.4</ele><time>2021-05-01T14:35:51Z</time><name>PT4960</name></trkpt>
<trkpt lat="52.044020" lon="05.757255"><ele>26.4</ele><time>2021-05-01T14:35:52Z</time><name>PT4961</name></trkpt>
<trkpt lat="52.044010" lon="05.757252"><ele>26.3</ele><time>2021-05-01T14:35:53Z</time><name>PT4962</name></trkpt>
<trkpt lat="52.044007" lon="05.757250"><ele>26.2</ele><time>2021-05-01T14:35:54Z</time><name>PT4963</name></trkpt>
<trkpt lat="52.043994" lon="05.757272"><ele>26.2</ele><time>2021-05-01T14:35:55Z</time><name>PT4964</name></trkpt>
<trkpt lat="52.043982" lon="05.757284"><ele>26.4</ele><time>2021-05-01T14:35:56Z</time><name>PT4965</name></trkpt>
<trkpt lat="52.043976" lon="05.757304"><ele>26.6</ele><time>2021-05-01T14:35:58Z</time><name>PT4966</name></trkpt>
<trkpt lat="52.043960" lon="05.757303"><ele>26.7</ele><time>2021-05-01T14:35:58Z</time><name>PT4967</name></trkpt>
<trkpt lat="52.043953" lon="05.757317"><ele>26.7</ele><time>2021-05-01T14:35:59Z</time><name>PT4968</name></trkpt>
<trkpt lat="52.043945" lon="05.757323"><ele>26.6</ele><time>2021-05-01T14:36:00Z</time><name>PT4969</name></trkpt>
<trkpt lat="52.043940" lon="05.757329"><ele>26.7</ele><time>2021-05-01T14:36:02Z</time><name>PT4970</name></trkpt>
<trkpt lat="52.043935" lon="05.757338"><ele>26.8</ele><time>2021-05-01T14:36:02Z</time><name>PT4971</name></trkpt>
<trkpt lat="52.043928" lon="05.757344"><ele>26.8</ele><time>2021-05-01T14:36:03Z</time><name>PT4972</name></trkpt>
<trkpt lat="52.043921" lon="05.757346"><ele>26.8</ele><time>2021-05-01T14:36:04Z</time><name>PT4973</name></trkpt>
<trkpt lat="52.043915" lon="05.757347"><ele>26.9</ele><time>2021-05-01T14:36:05Z</time><name>PT4974</name></trkpt>
<trkpt lat="52.043910" lon="05.757350"><ele>26.9</ele><time>2021-05-01T14:36:06Z</time><name>PT4975</name></trkpt>
<trkpt lat="52.043906" lon="05.757351"><ele>26.9</ele><time>2021-05-01T14:36:07Z</time><name>PT4976</name></trkpt>
<trkpt lat="52.043904" lon="05.757356"><ele>27.1</ele><time>2021-05-01T14:36:08Z</time><name>PT4977</name></trkpt>
<trkpt lat="52.043903" lon="05.757354"><ele>27.2</ele><time>2021-05-01T14:36:09Z</time><name>PT4978</name></trkpt>
<trkpt lat="52.043902" lon="05.757353"><ele>27.1</ele><time>2021-05-01T14:36:10Z</time><name>PT4979</name></trkpt>
<trkpt lat="52.043901" lon="05.757361"><ele>27</ele><time>2021-05-01T14:36:11Z</time><name>PT4980</name></trkpt>
<trkpt lat="52.043897" lon="05.757369"><ele>26.9</ele><time>2021-05-01T14:36:12Z</time><name>PT4981</name></trkpt>
<trkpt lat="52.043893" lon="05.757381"><ele>26.8</ele><time>2021-05-01T14:36:13Z</time><name>PT4982</name></trkpt>
<trkpt lat="52.043892" lon="05.757391"><ele>26.8</ele><time>2021-05-01T14:36:14Z</time><name>PT4983</name></trkpt>
<trkpt lat="52.043895" lon="05.757394"><ele>26.8</ele><time>2021-05-01T14:36:15Z</time><name>PT4984</name></trkpt>
<trkpt lat="52.043899" lon="05.757397"><ele>26.8</ele><time>2021-05-01T14:36:16Z</time><name>PT4985</name></trkpt>
<trkpt lat="52.043903" lon="05.757414"><ele>26.6</ele><time>2021-05-01T14:36:17Z</time><name>PT4986</name></trkpt>
<trkpt lat="52.043908" lon="05.757430"><ele>26.5</ele><time>2021-05-01T14:36:18Z</time><name>PT4987</name></trkpt>
<trkpt lat="52.043914" lon="05.757437"><ele>26.4</ele><time>2021-05-01T14:36:19Z</time><name>PT4988</name></trkpt>
<trkpt lat="52.043918" lon="05.757448"><ele>26.5</ele><time>2021-05-01T14:36:20Z</time><name>PT4989</name></trkpt>
<trkpt lat="52.043920" lon="05.757465"><ele>26.7</ele><time>2021-05-01T14:36:21Z</time><name>PT4990</name></trkpt>
<trkpt lat="52.043921" lon="05.757480"><ele>26.7</ele><time>2021-05-01T14:36:22Z</time><name>PT4991</name></trkpt>
<trkpt lat="52.043923" lon="05.757493"><ele>26.8</ele><time>2021-05-01T14:36:23Z</time><name>PT4992</name></trkpt>
<trkpt lat="52.043925" lon="05.757513"><ele>27</ele><time>2021-05-01T14:36:24Z</time><name>PT4993</name></trkpt>
<trkpt lat="52.043929" lon="05.757528"><ele>27.1</ele><time>2021-05-01T14:36:25Z</time><name>PT4994</name></trkpt>
<trkpt lat="52.043932" lon="05.757545"><ele>27.1</ele><time>2021-05-01T14:36:26Z</time><name>PT4995</name></trkpt>
<trkpt lat="52.043934" lon="05.757556"><ele>27.1</ele><time>2021-05-01T14:36:27Z</time><name>PT4996</name></trkpt>
<trkpt lat="52.043936" lon="05.757571"><ele>27.1</ele><time>2021-05-01T14:36:28Z</time><name>PT4997</name></trkpt>
<trkpt lat="52.043938" lon="05.757587"><ele>26.9</ele><time>2021-05-01T14:36:29Z</time><name>PT4998</name></trkpt>
<trkpt lat="52.043941" lon="05.757601"><ele>26.9</ele><time>2021-05-01T14:36:30Z</time><name>PT4999</name></trkpt>
<trkpt lat="52.043944" lon="05.757616"><ele>27.1</ele><time>2021-05-01T14:36:31Z</time><name>PT5000</name></trkpt>
<trkpt lat="52.043945" lon="05.757629"><ele>27.2</ele><time>2021-05-01T14:36:32Z</time><name>PT5001</name></trkpt>
<trkpt lat="52.043947" lon="05.757641"><ele>27.2</ele><time>2021-05-01T14:36:33Z</time><name>PT5002</name></trkpt>
<trkpt lat="52.043947" lon="05.757659"><ele>27.2</ele><time>2021-05-01T14:36:34Z</time><name>PT5003</name></trkpt>
<trkpt lat="52.043944" lon="05.757676"><ele>27.2</ele><time>2021-05-01T14:36:35Z</time><name>PT5004</name></trkpt>
<trkpt lat="52.043939" lon="05.757694"><ele>27</ele><time>2021-05-01T14:36:36Z</time><name>PT5005</name></trkpt>
<trkpt lat="52.043938" lon="05.757700"><ele>26.9</ele><time>2021-05-01T14:36:37Z</time><name>PT5006</name></trkpt>
<trkpt lat="52.043937" lon="05.757705"><ele>26.8</ele><time>2021-05-01T14:36:38Z</time><name>PT5007</name></trkpt>
<trkpt lat="52.043928" lon="05.757719"><ele>26.7</ele><time>2021-05-01T14:36:39Z</time><name>PT5008</name></trkpt>
<trkpt lat="52.043914" lon="05.757734"><ele>26.8</ele><time>2021-05-01T14:36:40Z</time><name>PT5009</name></trkpt>
<trkpt lat="52.043903" lon="05.757748"><ele>26.8</ele><time>2021-05-01T14:36:41Z</time><name>PT5010</name></trkpt>
<trkpt lat="52.043899" lon="05.757756"><ele>26.8</ele><time>2021-05-01T14:36:42Z</time><name>PT5011</name></trkpt>
<trkpt lat="52.043897" lon="05.757761"><ele>26.8</ele><time>2021-05-01T14:36:43Z</time><name>PT5012</name></trkpt>
<trkpt lat="52.043894" lon="05.757770"><ele>26.6</ele><time>2021-05-01T14:36:44Z</time><name>PT5013</name></trkpt>
<trkpt lat="52.043890" lon="05.757779"><ele>26.6</ele><time>2021-05-01T14:36:45Z</time><name>PT5014</name></trkpt>
<trkpt lat="52.043875" lon="05.757776"><ele>26.5</ele><time>2021-05-01T14:36:46Z</time><name>PT5015</name></trkpt>
<trkpt lat="52.043866" lon="05.757782"><ele>26.3</ele><time>2021-05-01T14:36:47Z</time><name>PT5016</name></trkpt>
<trkpt lat="52.043854" lon="05.757790"><ele>26.6</ele><time>2021-05-01T14:36:49Z</time><name>PT5017</name></trkpt>
<trkpt lat="52.043844" lon="05.757798"><ele>26.5</ele><time>2021-05-01T14:36:49Z</time><name>PT5018</name></trkpt>
<trkpt lat="52.043843" lon="05.757806"><ele>26.3</ele><time>2021-05-01T14:36:50Z</time><name>PT5019</name></trkpt>
<trkpt lat="52.043842" lon="05.757810"><ele>26.3</ele><time>2021-05-01T14:36:51Z</time><name>PT5020</name></trkpt>
<trkpt lat="52.043838" lon="05.757834"><ele>26.4</ele><time>2021-05-01T14:36:52Z</time><name>PT5021</name></trkpt>
<trkpt lat="52.043836" lon="05.757857"><ele>26.4</ele><time>2021-05-01T14:36:53Z</time><name>PT5022</name></trkpt>
<trkpt lat="52.043825" lon="05.757864"><ele>26.5</ele><time>2021-05-01T14:36:54Z</time><name>PT5023</name></trkpt>
<trkpt lat="52.043818" lon="05.757876"><ele>26.6</ele><time>2021-05-01T14:36:55Z</time><name>PT5024</name></trkpt>
<trkpt lat="52.043808" lon="05.757885"><ele>26.6</ele><time>2021-05-01T14:36:56Z</time><name>PT5025</name></trkpt>
<trkpt lat="52.043801" lon="05.757892"><ele>26.5</ele><time>2021-05-01T14:36:57Z</time><name>PT5026</name></trkpt>
<trkpt lat="52.043789" lon="05.757892"><ele>26.3</ele><time>2021-05-01T14:36:58Z</time><name>PT5027</name></trkpt>
<trkpt lat="52.043781" lon="05.757897"><ele>26.3</ele><time>2021-05-01T14:36:59Z</time><name>PT5028</name></trkpt>
<trkpt lat="52.043778" lon="05.757899"><ele>26.3</ele><time>2021-05-01T14:37:00Z</time><name>PT5029</name></trkpt>
<trkpt lat="52.043774" lon="05.757914"><ele>26.2</ele><time>2021-05-01T14:37:01Z</time><name>PT5030</name></trkpt>
<trkpt lat="52.043756" lon="05.757932"><ele>26.1</ele><time>2021-05-01T14:37:02Z</time><name>PT5031</name></trkpt>
<trkpt lat="52.043740" lon="05.757942"><ele>26.2</ele><time>2021-05-01T14:37:03Z</time><name>PT5032</name></trkpt>
<trkpt lat="52.043725" lon="05.757953"><ele>26.1</ele><time>2021-05-01T14:37:04Z</time><name>PT5033</name></trkpt>
<trkpt lat="52.043719" lon="05.757964"><ele>26.1</ele><time>2021-05-01T14:37:05Z</time><name>PT5034</name></trkpt>
<trkpt lat="52.043714" lon="05.757979"><ele>26</ele><time>2021-05-01T14:37:06Z</time><name>PT5035</name></trkpt>
<trkpt lat="52.043710" lon="05.757984"><ele>26</ele><time>2021-05-01T14:37:07Z</time><name>PT5036</name></trkpt>
<trkpt lat="52.043698" lon="05.757987"><ele>25.9</ele><time>2021-05-01T14:37:08Z</time><name>PT5037</name></trkpt>
<trkpt lat="52.043681" lon="05.757995"><ele>26</ele><time>2021-05-01T14:37:09Z</time><name>PT5038</name></trkpt>
<trkpt lat="52.043669" lon="05.758008"><ele>26</ele><time>2021-05-01T14:37:10Z</time><name>PT5039</name></trkpt>
<trkpt lat="52.043659" lon="05.758014"><ele>25.8</ele><time>2021-05-01T14:37:11Z</time><name>PT5040</name></trkpt>
<trkpt lat="52.043653" lon="05.758022"><ele>26</ele><time>2021-05-01T14:37:12Z</time><name>PT5041</name></trkpt>
<trkpt lat="52.043648" lon="05.758031"><ele>26.2</ele><time>2021-05-01T14:37:13Z</time><name>PT5042</name></trkpt>
<trkpt lat="52.043649" lon="05.758049"><ele>26.2</ele><time>2021-05-01T14:37:14Z</time><name>PT5043</name></trkpt>
<trkpt lat="52.043646" lon="05.758060"><ele>26.3</ele><time>2021-05-01T14:37:15Z</time><name>PT5044</name></trkpt>
<trkpt lat="52.043637" lon="05.758100"><ele>26.1</ele><time>2021-05-01T14:37:18Z</time><name>PT5045</name></trkpt>
<trkpt lat="52.043621" lon="05.758113"><ele>26.3</ele><time>2021-05-01T14:37:19Z</time><name>PT5046</name></trkpt>
<trkpt lat="52.043614" lon="05.758111"><ele>26.3</ele><time>2021-05-01T14:37:20Z</time><name>PT5047</name></trkpt>
<trkpt lat="52.043610" lon="05.758116"><ele>26.6</ele><time>2021-05-01T14:37:21Z</time><name>PT5048</name></trkpt>
<trkpt lat="52.043603" lon="05.758117"><ele>26.8</ele><time>2021-05-01T14:37:22Z</time><name>PT5049</name></trkpt>
<trkpt lat="52.043594" lon="05.758144"><ele>26.7</ele><time>2021-05-01T14:37:23Z</time><name>PT5050</name></trkpt>
<trkpt lat="52.043587" lon="05.758148"><ele>26.5</ele><time>2021-05-01T14:37:24Z</time><name>PT5051</name></trkpt>
<trkpt lat="52.043586" lon="05.758153"><ele>26.6</ele><time>2021-05-01T14:37:25Z</time><name>PT5052</name></trkpt>
<trkpt lat="52.043580" lon="05.758165"><ele>26.4</ele><time>2021-05-01T14:37:26Z</time><name>PT5053</name></trkpt>
<trkpt lat="52.043570" lon="05.758178"><ele>26.3</ele><time>2021-05-01T14:37:27Z</time><name>PT5054</name></trkpt>
<trkpt lat="52.043565" lon="05.758186"><ele>26.3</ele><time>2021-05-01T14:37:28Z</time><name>PT5055</name></trkpt>
<trkpt lat="52.043559" lon="05.758192"><ele>26.3</ele><time>2021-05-01T14:37:29Z</time><name>PT5056</name></trkpt>
<trkpt lat="52.043556" lon="05.758206"><ele>26.2</ele><time>2021-05-01T14:37:30Z</time><name>PT5057</name></trkpt>
<trkpt lat="52.043545" lon="05.758226"><ele>26.2</ele><time>2021-05-01T14:37:31Z</time><name>PT5058</name></trkpt>
<trkpt lat="52.043538" lon="05.758239"><ele>26</ele><time>2021-05-01T14:37:32Z</time><name>PT5059</name></trkpt>
<trkpt lat="52.043534" lon="05.758243"><ele>26</ele><time>2021-05-01T14:37:33Z</time><name>PT5060</name></trkpt>
<trkpt lat="52.043531" lon="05.758246"><ele>25.9</ele><time>2021-05-01T14:37:34Z</time><name>PT5061</name></trkpt>
<trkpt lat="52.043523" lon="05.758260"><ele>25.8</ele><time>2021-05-01T14:37:35Z</time><name>PT5062</name></trkpt>
<trkpt lat="52.043508" lon="05.758275"><ele>25.8</ele><time>2021-05-01T14:37:36Z</time><name>PT5063</name></trkpt>
<trkpt lat="52.043492" lon="05.758283"><ele>25.8</ele><time>2021-05-01T14:37:37Z</time><name>PT5064</name></trkpt>
<trkpt lat="52.043485" lon="05.758293"><ele>25.8</ele><time>2021-05-01T14:37:38Z</time><name>PT5065</name></trkpt>
<trkpt lat="52.043486" lon="05.758296"><ele>25.8</ele><time>2021-05-01T14:37:39Z</time><name>PT5066</name></trkpt>
<trkpt lat="52.043483" lon="05.758301"><ele>25.8</ele><time>2021-05-01T14:37:40Z</time><name>PT5067</name></trkpt>
<trkpt lat="52.043473" lon="05.758311"><ele>25.8</ele><time>2021-05-01T14:37:41Z</time><name>PT5068</name></trkpt>
<trkpt lat="52.043465" lon="05.758317"><ele>25.9</ele><time>2021-05-01T14:37:42Z</time><name>PT5069</name></trkpt>
<trkpt lat="52.043462" lon="05.758317"><ele>25.9</ele><time>2021-05-01T14:37:43Z</time><name>PT5070</name></trkpt>
<trkpt lat="52.043458" lon="05.758325"><ele>25.9</ele><time>2021-05-01T14:37:44Z</time><name>PT5071</name></trkpt>
<trkpt lat="52.043447" lon="05.758329"><ele>26</ele><time>2021-05-01T14:37:45Z</time><name>PT5072</name></trkpt>
<trkpt lat="52.043432" lon="05.758338"><ele>26.1</ele><time>2021-05-01T14:37:46Z</time><name>PT5073</name></trkpt>
<trkpt lat="52.043421" lon="05.758342"><ele>26.2</ele><time>2021-05-01T14:37:47Z</time><name>PT5074</name></trkpt>
<trkpt lat="52.043414" lon="05.758345"><ele>26.1</ele><time>2021-05-01T14:37:48Z</time><name>PT5075</name></trkpt>
<trkpt lat="52.043410" lon="05.758342"><ele>26.3</ele><time>2021-05-01T14:37:49Z</time><name>PT5076</name></trkpt>
<trkpt lat="52.043397" lon="05.758351"><ele>26.2</ele><time>2021-05-01T14:37:50Z</time><name>PT5077</name></trkpt>
<trkpt lat="52.043385" lon="05.758371"><ele>26.1</ele><time>2021-05-01T14:37:51Z</time><name>PT5078</name></trkpt>
<trkpt lat="52.043370" lon="05.758391"><ele>26.1</ele><time>2021-05-01T14:37:52Z</time><name>PT5079</name></trkpt>
<trkpt lat="52.043359" lon="05.758404"><ele>26</ele><time>2021-05-01T14:37:53Z</time><name>PT5080</name></trkpt>
<trkpt lat="52.043352" lon="05.758403"><ele>26</ele><time>2021-05-01T14:37:54Z</time><name>PT5081</name></trkpt>
<trkpt lat="52.043351" lon="05.758402"><ele>26</ele><time>2021-05-01T14:37:55Z</time><name>PT5082</name></trkpt>
<trkpt lat="52.043352" lon="05.758402"><ele>26.1</ele><time>2021-05-01T14:37:56Z</time><name>PT5083</name></trkpt>
<trkpt lat="52.043348" lon="05.758406"><ele>26.2</ele><time>2021-05-01T14:37:57Z</time><name>PT5084</name></trkpt>
<trkpt lat="52.043340" lon="05.758407"><ele>26.3</ele><time>2021-05-01T14:37:58Z</time><name>PT5085</name></trkpt>
<trkpt lat="52.043333" lon="05.758415"><ele>26.2</ele><time>2021-05-01T14:37:59Z</time><name>PT5086</name></trkpt>
<trkpt lat="52.043326" lon="05.758414"><ele>26.2</ele><time>2021-05-01T14:38:00Z</time><name>PT5087</name></trkpt>
<trkpt lat="52.043317" lon="05.758416"><ele>26.1</ele><time>2021-05-01T14:38:01Z</time><name>PT5088</name></trkpt>
<trkpt lat="52.043305" lon="05.758430"><ele>26</ele><time>2021-05-01T14:38:02Z</time><name>PT5089</name></trkpt>
<trkpt lat="52.043290" lon="05.758446"><ele>26.1</ele><time>2021-05-01T14:38:03Z</time><name>PT5090</name></trkpt>
<trkpt lat="52.043276" lon="05.758465"><ele>26</ele><time>2021-05-01T14:38:04Z</time><name>PT5091</name></trkpt>
<trkpt lat="52.043260" lon="05.758476"><ele>26.2</ele><time>2021-05-01T14:38:05Z</time><name>PT5092</name></trkpt>
<trkpt lat="52.043251" lon="05.758488"><ele>26.2</ele><time>2021-05-01T14:38:06Z</time><name>PT5093</name></trkpt>
<trkpt lat="52.043246" lon="05.758498"><ele>26.2</ele><time>2021-05-01T14:38:07Z</time><name>PT5094</name></trkpt>
<trkpt lat="52.043243" lon="05.758503"><ele>26.1</ele><time>2021-05-01T14:38:08Z</time><name>PT5095</name></trkpt>
<trkpt lat="52.043237" lon="05.758518"><ele>26.2</ele><time>2021-05-01T14:38:09Z</time><name>PT5096</name></trkpt>
<trkpt lat="52.043229" lon="05.758536"><ele>26</ele><time>2021-05-01T14:38:10Z</time><name>PT5097</name></trkpt>
<trkpt lat="52.043212" lon="05.758546"><ele>25.9</ele><time>2021-05-01T14:38:11Z</time><name>PT5098</name></trkpt>
<trkpt lat="52.043196" lon="05.758550"><ele>25.9</ele><time>2021-05-01T14:38:12Z</time><name>PT5099</name></trkpt>
<trkpt lat="52.043185" lon="05.758551"><ele>25.8</ele><time>2021-05-01T14:38:13Z</time><name>PT5100</name></trkpt>
<trkpt lat="52.043186" lon="05.758551"><ele>25.9</ele><time>2021-05-01T14:38:14Z</time><name>PT5101</name></trkpt>
<trkpt lat="52.043185" lon="05.758557"><ele>25.9</ele><time>2021-05-01T14:38:15Z</time><name>PT5102</name></trkpt>
<trkpt lat="52.043182" lon="05.758568"><ele>25.8</ele><time>2021-05-01T14:38:16Z</time><name>PT5103</name></trkpt>
<trkpt lat="52.043174" lon="05.758578"><ele>26</ele><time>2021-05-01T14:38:17Z</time><name>PT5104</name></trkpt>
<trkpt lat="52.043158" lon="05.758590"><ele>25.8</ele><time>2021-05-01T14:38:18Z</time><name>PT5105</name></trkpt>
<trkpt lat="52.043141" lon="05.758598"><ele>25.7</ele><time>2021-05-01T14:38:19Z</time><name>PT5106</name></trkpt>
<trkpt lat="52.043127" lon="05.758607"><ele>25.6</ele><time>2021-05-01T14:38:20Z</time><name>PT5107</name></trkpt>
<trkpt lat="52.043127" lon="05.758617"><ele>25.7</ele><time>2021-05-01T14:38:21Z</time><name>PT5108</name></trkpt>
<trkpt lat="52.043128" lon="05.758617"><ele>25.6</ele><time>2021-05-01T14:38:22Z</time><name>PT5109</name></trkpt>
<trkpt lat="52.043122" lon="05.758620"><ele>25.8</ele><time>2021-05-01T14:38:23Z</time><name>PT5110</name></trkpt>
<trkpt lat="52.043105" lon="05.758627"><ele>25.8</ele><time>2021-05-01T14:38:24Z</time><name>PT5111</name></trkpt>
<trkpt lat="52.043089" lon="05.758644"><ele>25.6</ele><time>2021-05-01T14:38:25Z</time><name>PT5112</name></trkpt>
<trkpt lat="52.043070" lon="05.758659"><ele>25.5</ele><time>2021-05-01T14:38:26Z</time><name>PT5113</name></trkpt>
<trkpt lat="52.043058" lon="05.758666"><ele>25.3</ele><time>2021-05-01T14:38:27Z</time><name>PT5114</name></trkpt>
<trkpt lat="52.043049" lon="05.758675"><ele>25.3</ele><time>2021-05-01T14:38:28Z</time><name>PT5115</name></trkpt>
<trkpt lat="52.043047" lon="05.758683"><ele>25.3</ele><time>2021-05-01T14:38:29Z</time><name>PT5116</name></trkpt>
<trkpt lat="52.043046" lon="05.758687"><ele>25.3</ele><time>2021-05-01T14:38:30Z</time><name>PT5117</name></trkpt>
<trkpt lat="52.043044" lon="05.758690"><ele>25.3</ele><time>2021-05-01T14:38:31Z</time><name>PT5118</name></trkpt>
<trkpt lat="52.043039" lon="05.758698"><ele>25.3</ele><time>2021-05-01T14:38:32Z</time><name>PT5119</name></trkpt>
<trkpt lat="52.043019" lon="05.758702"><ele>25.4</ele><time>2021-05-01T14:38:34Z</time><name>PT5120</name></trkpt>
<trkpt lat="52.043003" lon="05.758713"><ele>25.3</ele><time>2021-05-01T14:38:34Z</time><name>PT5121</name></trkpt>
<trkpt lat="52.042986" lon="05.758731"><ele>25.4</ele><time>2021-05-01T14:38:35Z</time><name>PT5122</name></trkpt>
<trkpt lat="52.042974" lon="05.758746"><ele>25.4</ele><time>2021-05-01T14:38:36Z</time><name>PT5123</name></trkpt>
<trkpt lat="52.042971" lon="05.758757"><ele>25.3</ele><time>2021-05-01T14:38:37Z</time><name>PT5124</name></trkpt>
<trkpt lat="52.042966" lon="05.758763"><ele>25.3</ele><time>2021-05-01T14:38:38Z</time><name>PT5125</name></trkpt>
<trkpt lat="52.042960" lon="05.758769"><ele>25.1</ele><time>2021-05-01T14:38:39Z</time><name>PT5126</name></trkpt>
<trkpt lat="52.042959" lon="05.758777"><ele>25.2</ele><time>2021-05-01T14:38:40Z</time><name>PT5127</name></trkpt>
<trkpt lat="52.042953" lon="05.758797"><ele>25.2</ele><time>2021-05-01T14:38:41Z</time><name>PT5128</name></trkpt>
<trkpt lat="52.042941" lon="05.758821"><ele>25.1</ele><time>2021-05-01T14:38:42Z</time><name>PT5129</name></trkpt>
<trkpt lat="52.042926" lon="05.758846"><ele>25.2</ele><time>2021-05-01T14:38:43Z</time><name>PT5130</name></trkpt>
<trkpt lat="52.042910" lon="05.758856"><ele>25.2</ele><time>2021-05-01T14:38:44Z</time><name>PT5131</name></trkpt>
<trkpt lat="52.042904" lon="05.758861"><ele>25.2</ele><time>2021-05-01T14:38:45Z</time><name>PT5132</name></trkpt>
<trkpt lat="52.042896" lon="05.758869"><ele>25.2</ele><time>2021-05-01T14:38:46Z</time><name>PT5133</name></trkpt>
<trkpt lat="52.042892" lon="05.758876"><ele>25.3</ele><time>2021-05-01T14:38:47Z</time><name>PT5134</name></trkpt>
<trkpt lat="52.042886" lon="05.758896"><ele>25.3</ele><time>2021-05-01T14:38:48Z</time><name>PT5135</name></trkpt>
<trkpt lat="52.042874" lon="05.758917"><ele>25.2</ele><time>2021-05-01T14:38:49Z</time><name>PT5136</name></trkpt>
<trkpt lat="52.042864" lon="05.758928"><ele>25</ele><time>2021-05-01T14:38:50Z</time><name>PT5137</name></trkpt>
<trkpt lat="52.042859" lon="05.758938"><ele>24.9</ele><time>2021-05-01T14:38:51Z</time><name>PT5138</name></trkpt>
<trkpt lat="52.042851" lon="05.758940"><ele>25</ele><time>2021-05-01T14:38:52Z</time><name>PT5139</name></trkpt>
<trkpt lat="52.042848" lon="05.758944"><ele>25</ele><time>2021-05-01T14:38:53Z</time><name>PT5140</name></trkpt>
<trkpt lat="52.042841" lon="05.758952"><ele>25.1</ele><time>2021-05-01T14:38:54Z</time><name>PT5141</name></trkpt>
<trkpt lat="52.042830" lon="05.758965"><ele>34.9</ele><time>2021-05-01T14:38:55Z</time><name>PT5142</name></trkpt>
<trkpt lat="52.042817" lon="05.758978"><ele>35</ele><time>2021-05-01T14:38:56Z</time><name>PT5143</name></trkpt>
<trkpt lat="52.042806" lon="05.758992"><ele>35.1</ele><time>2021-05-01T14:38:57Z</time><name>PT5144</name></trkpt>
<trkpt lat="52.042796" lon="05.758999"><ele>35.1</ele><time>2021-05-01T14:38:58Z</time><name>PT5145</name></trkpt>
<trkpt lat="52.042791" lon="05.759004"><ele>35.1</ele><time>2021-05-01T14:38:59Z</time><name>PT5146</name></trkpt>
<trkpt lat="52.042789" lon="05.759005"><ele>35</ele><time>2021-05-01T14:39:00Z</time><name>PT5147</name></trkpt>
<trkpt lat="52.042778" lon="05.759015"><ele>34.9</ele><time>2021-05-01T14:39:01Z</time><name>PT5148</name></trkpt>
<trkpt lat="52.042756" lon="05.759034"><ele>34.8</ele><time>2021-05-01T14:39:02Z</time><name>PT5149</name></trkpt>
<trkpt lat="52.042735" lon="05.759055"><ele>34.8</ele><time>2021-05-01T14:39:03Z</time><name>PT5150</name></trkpt>
<trkpt lat="52.042723" lon="05.759068"><ele>34.7</ele><time>2021-05-01T14:39:04Z</time><name>PT5151</name></trkpt>
<trkpt lat="52.042710" lon="05.759075"><ele>35</ele><time>2021-05-01T14:39:05Z</time><name>PT5152</name></trkpt>
<trkpt lat="52.042705" lon="05.759079"><ele>35</ele><time>2021-05-01T14:39:06Z</time><name>PT5153</name></trkpt>
<trkpt lat="52.042694" lon="05.759090"><ele>35</ele><time>2021-05-01T14:39:07Z</time><name>PT5154</name></trkpt>
<trkpt lat="52.042685" lon="05.759104"><ele>35</ele><time>2021-05-01T14:39:08Z</time><name>PT5155</name></trkpt>
<trkpt lat="52.042670" lon="05.759112"><ele>34.8</ele><time>2021-05-01T14:39:09Z</time><name>PT5156</name></trkpt>
<trkpt lat="52.042656" lon="05.759119"><ele>34.7</ele><time>2021-05-01T14:39:10Z</time><name>PT5157</name></trkpt>
<trkpt lat="52.042650" lon="05.759122"><ele>34.8</ele><time>2021-05-01T14:39:11Z</time><name>PT5158</name></trkpt>
<trkpt lat="52.042651" lon="05.759126"><ele>34.7</ele><time>2021-05-01T14:39:12Z</time><name>PT5159</name></trkpt>
<trkpt lat="52.042649" lon="05.759133"><ele>34.6</ele><time>2021-05-01T14:39:13Z</time><name>PT5160</name></trkpt>
<trkpt lat="52.042644" lon="05.759148"><ele>34.7</ele><time>2021-05-01T14:39:14Z</time><name>PT5161</name></trkpt>
<trkpt lat="52.042629" lon="05.759162"><ele>34.7</ele><time>2021-05-01T14:39:15Z</time><name>PT5162</name></trkpt>
<trkpt lat="52.042614" lon="05.759172"><ele>34.6</ele><time>2021-05-01T14:39:16Z</time><name>PT5163</name></trkpt>
<trkpt lat="52.042608" lon="05.759175"><ele>34.7</ele><time>2021-05-01T14:39:17Z</time><name>PT5164</name></trkpt>
<trkpt lat="52.042605" lon="05.759174"><ele>34.9</ele><time>2021-05-01T14:39:18Z</time><name>PT5165</name></trkpt>
<trkpt lat="52.042596" lon="05.759188"><ele>35</ele><time>2021-05-01T14:39:19Z</time><name>PT5166</name></trkpt>
<trkpt lat="52.042582" lon="05.759200"><ele>35.1</ele><time>2021-05-01T14:39:20Z</time><name>PT5167</name></trkpt>
<trkpt lat="52.042564" lon="05.759211"><ele>35.1</ele><time>2021-05-01T14:39:21Z</time><name>PT5168</name></trkpt>
<trkpt lat="52.042550" lon="05.759219"><ele>35.2</ele><time>2021-05-01T14:39:22Z</time><name>PT5169</name></trkpt>
<trkpt lat="52.042541" lon="05.759219"><ele>35.3</ele><time>2021-05-01T14:39:23Z</time><name>PT5170</name></trkpt>
<trkpt lat="52.042538" lon="05.759223"><ele>35.4</ele><time>2021-05-01T14:39:24Z</time><name>PT5171</name></trkpt>
<trkpt lat="52.042533" lon="05.759228"><ele>35.1</ele><time>2021-05-01T14:39:25Z</time><name>PT5172</name></trkpt>
<trkpt lat="52.042527" lon="05.759225"><ele>35.1</ele><time>2021-05-01T14:39:26Z</time><name>PT5173</name></trkpt>
<trkpt lat="52.042517" lon="05.759231"><ele>34.9</ele><time>2021-05-01T14:39:27Z</time><name>PT5174</name></trkpt>
<trkpt lat="52.042507" lon="05.759237"><ele>34.9</ele><time>2021-05-01T14:39:28Z</time><name>PT5175</name></trkpt>
<trkpt lat="52.042497" lon="05.759243"><ele>34.8</ele><time>2021-05-01T14:39:29Z</time><name>PT5176</name></trkpt>
<trkpt lat="52.042487" lon="05.759245"><ele>35.1</ele><time>2021-05-01T14:39:30Z</time><name>PT5177</name></trkpt>
<trkpt lat="52.042475" lon="05.759246"><ele>35.2</ele><time>2021-05-01T14:39:31Z</time><name>PT5178</name></trkpt>
<trkpt lat="52.042469" lon="05.759244"><ele>35.3</ele><time>2021-05-01T14:39:32Z</time><name>PT5179</name></trkpt>
<trkpt lat="52.042461" lon="05.759256"><ele>35.3</ele><time>2021-05-01T14:39:33Z</time><name>PT5180</name></trkpt>
<trkpt lat="52.042450" lon="05.759281"><ele>35.3</ele><time>2021-05-01T14:39:34Z</time><name>PT5181</name></trkpt>
<trkpt lat="52.042438" lon="05.759288"><ele>35.3</ele><time>2021-05-01T14:39:35Z</time><name>PT5182</name></trkpt>
<trkpt lat="52.042427" lon="05.759284"><ele>35.4</ele><time>2021-05-01T14:39:36Z</time><name>PT5183</name></trkpt>
<trkpt lat="52.042416" lon="05.759289"><ele>35.5</ele><time>2021-05-01T14:39:37Z</time><name>PT5184</name></trkpt>
<trkpt lat="52.042409" lon="05.759290"><ele>35.5</ele><time>2021-05-01T14:39:38Z</time><name>PT5185</name></trkpt>
<trkpt lat="52.042407" lon="05.759294"><ele>35.5</ele><time>2021-05-01T14:39:39Z</time><name>PT5186</name></trkpt>
<trkpt lat="52.042400" lon="05.759307"><ele>35.4</ele><time>2021-05-01T14:39:40Z</time><name>PT5187</name></trkpt>
<trkpt lat="52.042379" lon="05.759315"><ele>35.1</ele><time>2021-05-01T14:39:41Z</time><name>PT5188</name></trkpt>
<trkpt lat="52.042354" lon="05.759319"><ele>35.1</ele><time>2021-05-01T14:39:42Z</time><name>PT5189</name></trkpt>
<trkpt lat="52.042332" lon="05.759331"><ele>34.7</ele><time>2021-05-01T14:39:43Z</time><name>PT5190</name></trkpt>
<trkpt lat="52.042324" lon="05.759339"><ele>34.6</ele><time>2021-05-01T14:39:44Z</time><name>PT5191</name></trkpt>
<trkpt lat="52.042326" lon="05.759351"><ele>34.6</ele><time>2021-05-01T14:39:45Z</time><name>PT5192</name></trkpt>
<trkpt lat="52.042327" lon="05.759358"><ele>34.5</ele><time>2021-05-01T14:39:46Z</time><name>PT5193</name></trkpt>
<trkpt lat="52.042325" lon="05.759360"><ele>34.4</ele><time>2021-05-01T14:39:47Z</time><name>PT5194</name></trkpt>
<trkpt lat="52.042324" lon="05.759381"><ele>34.6</ele><time>2021-05-01T14:39:48Z</time><name>PT5195</name></trkpt>
<trkpt lat="52.042311" lon="05.759407"><ele>34.6</ele><time>2021-05-01T14:39:49Z</time><name>PT5196</name></trkpt>
<trkpt lat="52.042304" lon="05.759444"><ele>34.6</ele><time>2021-05-01T14:39:50Z</time><name>PT5197</name></trkpt>
<trkpt lat="52.042293" lon="05.759466"><ele>34.6</ele><time>2021-05-01T14:39:51Z</time><name>PT5198</name></trkpt>
<trkpt lat="52.042276" lon="05.759460"><ele>34.7</ele><time>2021-05-01T14:39:52Z</time><name>PT5199</name></trkpt>
<trkpt lat="52.042267" lon="05.759459"><ele>34.6</ele><time>2021-05-01T14:39:53Z</time><name>PT5200</name></trkpt>
<trkpt lat="52.042261" lon="05.759461"><ele>34.6</ele><time>2021-05-01T14:39:54Z</time><name>PT5201</name></trkpt>
<trkpt lat="52.042250" lon="05.759467"><ele>34.6</ele><time>2021-05-01T14:39:55Z</time><name>PT5202</name></trkpt>
<trkpt lat="52.042237" lon="05.759478"><ele>34.4</ele><time>2021-05-01T14:39:56Z</time><name>PT5203</name></trkpt>
<trkpt lat="52.042227" lon="05.759487"><ele>34.4</ele><time>2021-05-01T14:39:57Z</time><name>PT5204</name></trkpt>
<trkpt lat="52.042220" lon="05.759503"><ele>34.3</ele><time>2021-05-01T14:39:58Z</time><name>PT5205</name></trkpt>
<trkpt lat="52.042225" lon="05.759522"><ele>34.3</ele><time>2021-05-01T14:39:59Z</time><name>PT5206</name></trkpt>
<trkpt lat="52.042221" lon="05.759533"><ele>34.4</ele><time>2021-05-01T14:40:00Z</time><name>PT5207</name></trkpt>
<trkpt lat="52.042221" lon="05.759541"><ele>34.6</ele><time>2021-05-01T14:40:01Z</time><name>PT5208</name></trkpt>
<trkpt lat="52.042219" lon="05.759545"><ele>34.4</ele><time>2021-05-01T14:40:02Z</time><name>PT5209</name></trkpt>
<trkpt lat="52.042215" lon="05.759548"><ele>34.7</ele><time>2021-05-01T14:40:03Z</time><name>PT5210</name></trkpt>
<trkpt lat="52.042210" lon="05.759555"><ele>34.8</ele><time>2021-05-01T14:40:04Z</time><name>PT5211</name></trkpt>
<trkpt lat="52.042204" lon="05.759566"><ele>34.6</ele><time>2021-05-01T14:40:05Z</time><name>PT5212</name></trkpt>
<trkpt lat="52.042198" lon="05.759581"><ele>34.6</ele><time>2021-05-01T14:40:06Z</time><name>PT5213</name></trkpt>
<trkpt lat="52.042188" lon="05.759594"><ele>34.6</ele><time>2021-05-01T14:40:07Z</time><name>PT5214</name></trkpt>
<trkpt lat="52.042183" lon="05.759599"><ele>34.4</ele><time>2021-05-01T14:40:08Z</time><name>PT5215</name></trkpt>
<trkpt lat="52.042179" lon="05.759601"><ele>34.3</ele><time>2021-05-01T14:40:09Z</time><name>PT5216</name></trkpt>
<trkpt lat="52.042176" lon="05.759601"><ele>34.3</ele><time>2021-05-01T14:40:10Z</time><name>PT5217</name></trkpt>
<trkpt lat="52.042171" lon="05.759598"><ele>34.1</ele><time>2021-05-01T14:40:12Z</time><name>PT5218</name></trkpt>
<trkpt lat="52.042164" lon="05.759605"><ele>34</ele><time>2021-05-01T14:40:13Z</time><name>PT5219</name></trkpt>
<trkpt lat="52.042153" lon="05.759609"><ele>34</ele><time>2021-05-01T14:40:14Z</time><name>PT5220</name></trkpt>
<trkpt lat="52.042148" lon="05.759618"><ele>33.9</ele><time>2021-05-01T14:40:15Z</time><name>PT5221</name></trkpt>
<trkpt lat="52.042140" lon="05.759626"><ele>34</ele><time>2021-05-01T14:40:16Z</time><name>PT5222</name></trkpt>
<trkpt lat="52.042131" lon="05.759627"><ele>34</ele><time>2021-05-01T14:40:17Z</time><name>PT5223</name></trkpt>
<trkpt lat="52.042114" lon="05.759636"><ele>34</ele><time>2021-05-01T14:40:18Z</time><name>PT5224</name></trkpt>
<trkpt lat="52.042102" lon="05.759643"><ele>34.1</ele><time>2021-05-01T14:40:19Z</time><name>PT5225</name></trkpt>
<trkpt lat="52.042095" lon="05.759659"><ele>34.1</ele><time>2021-05-01T14:40:20Z</time><name>PT5226</name></trkpt>
<trkpt lat="52.042085" lon="05.759662"><ele>34.1</ele><time>2021-05-01T14:40:21Z</time><name>PT5227</name></trkpt>
<trkpt lat="52.042074" lon="05.759663"><ele>34.1</ele><time>2021-05-01T14:40:22Z</time><name>PT5228</name></trkpt>
<trkpt lat="52.042074" lon="05.759669"><ele>34.1</ele><time>2021-05-01T14:40:23Z</time><name>PT5229</name></trkpt>
<trkpt lat="52.042073" lon="05.759672"><ele>34.1</ele><time>2021-05-01T14:40:24Z</time><name>PT5230</name></trkpt>
<trkpt lat="52.042072" lon="05.759676"><ele>33.9</ele><time>2021-05-01T14:40:25Z</time><name>PT5231</name></trkpt>
<trkpt lat="52.042055" lon="05.759674"><ele>33.9</ele><time>2021-05-01T14:40:26Z</time><name>PT5232</name></trkpt>
<trkpt lat="52.042032" lon="05.759677"><ele>34</ele><time>2021-05-01T14:40:27Z</time><name>PT5233</name></trkpt>
<trkpt lat="52.042018" lon="05.759678"><ele>33.7</ele><time>2021-05-01T14:40:28Z</time><name>PT5234</name></trkpt>
<trkpt lat="52.042014" lon="05.759680"><ele>33.7</ele><time>2021-05-01T14:40:29Z</time><name>PT5235</name></trkpt>
<trkpt lat="52.042007" lon="05.759677"><ele>33.9</ele><time>2021-05-01T14:40:30Z</time><name>PT5236</name></trkpt>
<trkpt lat="52.042006" lon="05.759686"><ele>34.1</ele><time>2021-05-01T14:40:31Z</time><name>PT5237</name></trkpt>
<trkpt lat="52.042003" lon="05.759687"><ele>34.1</ele><time>2021-05-01T14:40:32Z</time><name>PT5238</name></trkpt>
<trkpt lat="52.041981" lon="05.759696"><ele>33.9</ele><time>2021-05-01T14:40:33Z</time><name>PT5239</name></trkpt>
<trkpt lat="52.041965" lon="05.759694"><ele>33.9</ele><time>2021-05-01T14:40:34Z</time><name>PT5240</name></trkpt>
<trkpt lat="52.041956" lon="05.759688"><ele>33.8</ele><time>2021-05-01T14:40:35Z</time><name>PT5241</name></trkpt>
<trkpt lat="52.041950" lon="05.759688"><ele>33.7</ele><time>2021-05-01T14:40:36Z</time><name>PT5242</name></trkpt>
<trkpt lat="52.041945" lon="05.759694"><ele>33.7</ele><time>2021-05-01T14:40:37Z</time><name>PT5243</name></trkpt>
<trkpt lat="52.041934" lon="05.759705"><ele>33.9</ele><time>2021-05-01T14:40:38Z</time><name>PT5244</name></trkpt>
<trkpt lat="52.041923" lon="05.759714"><ele>33.6</ele><time>2021-05-01T14:40:39Z</time><name>PT5245</name></trkpt>
<trkpt lat="52.041907" lon="05.759720"><ele>33.6</ele><time>2021-05-01T14:40:40Z</time><name>PT5246</name></trkpt>
<trkpt lat="52.041902" lon="05.759728"><ele>33.8</ele><time>2021-05-01T14:40:42Z</time><name>PT5247</name></trkpt>
<trkpt lat="52.041900" lon="05.759734"><ele>33.7</ele><time>2021-05-01T14:40:42Z</time><name>PT5248</name></trkpt>
<trkpt lat="52.041901" lon="05.759735"><ele>33.8</ele><time>2021-05-01T14:40:43Z</time><name>PT5249</name></trkpt>
<trkpt lat="52.041902" lon="05.759735"><ele>33.9</ele><time>2021-05-01T14:40:44Z</time><name>PT5250</name></trkpt>
<trkpt lat="52.041895" lon="05.759730"><ele>33.9</ele><time>2021-05-01T14:40:45Z</time><name>PT5251</name></trkpt>
<trkpt lat="52.041882" lon="05.759726"><ele>34</ele><time>2021-05-01T14:40:46Z</time><name>PT5252</name></trkpt>
<trkpt lat="52.041861" lon="05.759719"><ele>34.1</ele><time>2021-05-01T14:40:47Z</time><name>PT5253</name></trkpt>
<trkpt lat="52.041835" lon="05.759718"><ele>34.1</ele><time>2021-05-01T14:40:48Z</time><name>PT5254</name></trkpt>
<trkpt lat="52.041822" lon="05.759715"><ele>34</ele><time>2021-05-01T14:40:49Z</time><name>PT5255</name></trkpt>
<trkpt lat="52.041817" lon="05.759717"><ele>33.9</ele><time>2021-05-01T14:40:50Z</time><name>PT5256</name></trkpt>
<trkpt lat="52.041818" lon="05.759725"><ele>34</ele><time>2021-05-01T14:40:51Z</time><name>PT5257</name></trkpt>
<trkpt lat="52.041815" lon="05.759720"><ele>33.9</ele><time>2021-05-01T14:40:52Z</time><name>PT5258</name></trkpt>
<trkpt lat="52.041806" lon="05.759721"><ele>34.1</ele><time>2021-05-01T14:40:53Z</time><name>PT5259</name></trkpt>
<trkpt lat="52.041790" lon="05.759719"><ele>34.1</ele><time>2021-05-01T14:40:54Z</time><name>PT5260</name></trkpt>
<trkpt lat="52.041775" lon="05.759711"><ele>34</ele><time>2021-05-01T14:40:55Z</time><name>PT5261</name></trkpt>
<trkpt lat="52.041763" lon="05.759702"><ele>34</ele><time>2021-05-01T14:40:56Z</time><name>PT5262</name></trkpt>
<trkpt lat="52.041755" lon="05.759692"><ele>34</ele><time>2021-05-01T14:40:57Z</time><name>PT5263</name></trkpt>
<trkpt lat="52.041753" lon="05.759690"><ele>34</ele><time>2021-05-01T14:40:58Z</time><name>PT5264</name></trkpt>
<trkpt lat="52.041750" lon="05.759684"><ele>34.1</ele><time>2021-05-01T14:40:59Z</time><name>PT5265</name></trkpt>
<trkpt lat="52.041731" lon="05.759683"><ele>34.1</ele><time>2021-05-01T14:41:00Z</time><name>PT5266</name></trkpt>
<trkpt lat="52.041707" lon="05.759681"><ele>34.1</ele><time>2021-05-01T14:41:01Z</time><name>PT5267</name></trkpt>
<trkpt lat="52.041694" lon="05.759678"><ele>34.1</ele><time>2021-05-01T14:41:02Z</time><name>PT5268</name></trkpt>
<trkpt lat="52.041687" lon="05.759681"><ele>34.1</ele><time>2021-05-01T14:41:03Z</time><name>PT5269</name></trkpt>
<trkpt lat="52.041687" lon="05.759678"><ele>33.9</ele><time>2021-05-01T14:41:04Z</time><name>PT5270</name></trkpt>
<trkpt lat="52.041681" lon="05.759679"><ele>33.9</ele><time>2021-05-01T14:41:05Z</time><name>PT5271</name></trkpt>
<trkpt lat="52.041660" lon="05.759684"><ele>34</ele><time>2021-05-01T14:41:06Z</time><name>PT5272</name></trkpt>
<trkpt lat="52.041648" lon="05.759675"><ele>34.1</ele><time>2021-05-01T14:41:07Z</time><name>PT5273</name></trkpt>
<trkpt lat="52.041632" lon="05.759660"><ele>34</ele><time>2021-05-01T14:41:08Z</time><name>PT5274</name></trkpt>
<trkpt lat="52.041619" lon="05.759650"><ele>34.1</ele><time>2021-05-01T14:41:09Z</time><name>PT5275</name></trkpt>
<trkpt lat="52.041605" lon="05.759645"><ele>34</ele><time>2021-05-01T14:41:10Z</time><name>PT5276</name></trkpt>
<trkpt lat="52.041596" lon="05.759645"><ele>34.1</ele><time>2021-05-01T14:41:11Z</time><name>PT5277</name></trkpt>
<trkpt lat="52.041587" lon="05.759640"><ele>34</ele><time>2021-05-01T14:41:12Z</time><name>PT5278</name></trkpt>
<trkpt lat="52.041579" lon="05.759637"><ele>33.9</ele><time>2021-05-01T14:41:13Z</time><name>PT5279</name></trkpt>
<trkpt lat="52.041563" lon="05.759626"><ele>33.9</ele><time>2021-05-01T14:41:14Z</time><name>PT5280</name></trkpt>
<trkpt lat="52.041558" lon="05.759614"><ele>34</ele><time>2021-05-01T14:41:15Z</time><name>PT5281</name></trkpt>
<trkpt lat="52.041555" lon="05.759602"><ele>33.9</ele><time>2021-05-01T14:41:16Z</time><name>PT5282</name></trkpt>
<trkpt lat="52.041549" lon="05.759602"><ele>33.8</ele><time>2021-05-01T14:41:17Z</time><name>PT5283</name></trkpt>
<trkpt lat="52.041547" lon="05.759603"><ele>34</ele><time>2021-05-01T14:41:18Z</time><name>PT5284</name></trkpt>
<trkpt lat="52.041531" lon="05.759607"><ele>33.9</ele><time>2021-05-01T14:41:19Z</time><name>PT5285</name></trkpt>
<trkpt lat="52.041519" lon="05.759597"><ele>33.8</ele><time>2021-05-01T14:41:20Z</time><name>PT5286</name></trkpt>
<trkpt lat="52.041501" lon="05.759577"><ele>33.8</ele><time>2021-05-01T14:41:21Z</time><name>PT5287</name></trkpt>
<trkpt lat="52.041492" lon="05.759571"><ele>34</ele><time>2021-05-01T14:41:22Z</time><name>PT5288</name></trkpt>
<trkpt lat="52.041485" lon="05.759571"><ele>33.7</ele><time>2021-05-01T14:41:23Z</time><name>PT5289</name></trkpt>
<trkpt lat="52.041475" lon="05.759567"><ele>33.7</ele><time>2021-05-01T14:41:24Z</time><name>PT5290</name></trkpt>
<trkpt lat="52.041457" lon="05.759556"><ele>33.8</ele><time>2021-05-01T14:41:25Z</time><name>PT5291</name></trkpt>
<trkpt lat="52.041443" lon="05.759540"><ele>33.8</ele><time>2021-05-01T14:41:26Z</time><name>PT5292</name></trkpt>
<trkpt lat="52.041424" lon="05.759518"><ele>33.7</ele><time>2021-05-01T14:41:27Z</time><name>PT5293</name></trkpt>
<trkpt lat="52.041417" lon="05.759509"><ele>33.8</ele><time>2021-05-01T14:41:28Z</time><name>PT5294</name></trkpt>
<trkpt lat="52.041412" lon="05.759502"><ele>33.6</ele><time>2021-05-01T14:41:29Z</time><name>PT5295</name></trkpt>
<trkpt lat="52.041408" lon="05.759499"><ele>33.5</ele><time>2021-05-01T14:41:30Z</time><name>PT5296</name></trkpt>
<trkpt lat="52.041394" lon="05.759486"><ele>33.6</ele><time>2021-05-01T14:41:31Z</time><name>PT5297</name></trkpt>
<trkpt lat="52.041379" lon="05.759460"><ele>33.6</ele><time>2021-05-01T14:41:32Z</time><name>PT5298</name></trkpt>
<trkpt lat="52.041361" lon="05.759435"><ele>33.9</ele><time>2021-05-01T14:41:33Z</time><name>PT5299</name></trkpt>
<trkpt lat="52.041352" lon="05.759426"><ele>33.9</ele><time>2021-05-01T14:41:34Z</time><name>PT5300</name></trkpt>
<trkpt lat="52.041347" lon="05.759427"><ele>33.9</ele><time>2021-05-01T14:41:35Z</time><name>PT5301</name></trkpt>
<trkpt lat="52.041342" lon="05.759428"><ele>33.7</ele><time>2021-05-01T14:41:36Z</time><name>PT5302</name></trkpt>
<trkpt lat="52.041323" lon="05.759431"><ele>33.6</ele><time>2021-05-01T14:41:37Z</time><name>PT5303</name></trkpt>
<trkpt lat="52.041308" lon="05.759425"><ele>33.6</ele><time>2021-05-01T14:41:38Z</time><name>PT5304</name></trkpt>
<trkpt lat="52.041294" lon="05.759408"><ele>33.5</ele><time>2021-05-01T14:41:39Z</time><name>PT5305</name></trkpt>
<trkpt lat="52.041287" lon="05.759395"><ele>33.6</ele><time>2021-05-01T14:41:40Z</time><name>PT5306</name></trkpt>
<trkpt lat="52.041281" lon="05.759383"><ele>33.6</ele><time>2021-05-01T14:41:41Z</time><name>PT5307</name></trkpt>
<trkpt lat="52.041277" lon="05.759373"><ele>33.7</ele><time>2021-05-01T14:41:42Z</time><name>PT5308</name></trkpt>
<trkpt lat="52.041270" lon="05.759357"><ele>33.8</ele><time>2021-05-01T14:41:43Z</time><name>PT5309</name></trkpt>
<trkpt lat="52.041257" lon="05.759340"><ele>33.8</ele><time>2021-05-01T14:41:44Z</time><name>PT5310</name></trkpt>
<trkpt lat="52.041243" lon="05.759314"><ele>33.7</ele><time>2021-05-01T14:41:45Z</time><name>PT5311</name></trkpt>
<trkpt lat="52.041236" lon="05.759300"><ele>33.7</ele><time>2021-05-01T14:41:46Z</time><name>PT5312</name></trkpt>
<trkpt lat="52.041238" lon="05.759304"><ele>33.6</ele><time>2021-05-01T14:41:47Z</time><name>PT5313</name></trkpt>
<trkpt lat="52.041235" lon="05.759309"><ele>33.6</ele><time>2021-05-01T14:41:48Z</time><name>PT5314</name></trkpt>
<trkpt lat="52.041228" lon="05.759298"><ele>33.5</ele><time>2021-05-01T14:41:49Z</time><name>PT5315</name></trkpt>
<trkpt lat="52.041217" lon="05.759281"><ele>33.6</ele><time>2021-05-01T14:41:50Z</time><name>PT5316</name></trkpt>
<trkpt lat="52.041204" lon="05.759267"><ele>33.5</ele><time>2021-05-01T14:41:51Z</time><name>PT5317</name></trkpt>
<trkpt lat="52.041191" lon="05.759254"><ele>33.6</ele><time>2021-05-01T14:41:52Z</time><name>PT5318</name></trkpt>
<trkpt lat="52.041186" lon="05.759256"><ele>33.6</ele><time>2021-05-01T14:41:53Z</time><name>PT5319</name></trkpt>
<trkpt lat="52.041186" lon="05.759259"><ele>33.6</ele><time>2021-05-01T14:41:54Z</time><name>PT5320</name></trkpt>
<trkpt lat="52.041183" lon="05.759252"><ele>33.6</ele><time>2021-05-01T14:41:55Z</time><name>PT5321</name></trkpt>
<trkpt lat="52.041176" lon="05.759240"><ele>33.7</ele><time>2021-05-01T14:41:56Z</time><name>PT5322</name></trkpt>
<trkpt lat="52.041167" lon="05.759220"><ele>33.8</ele><time>2021-05-01T14:41:57Z</time><name>PT5323</name></trkpt>
<trkpt lat="52.041161" lon="05.759205"><ele>33.8</ele><time>2021-05-01T14:41:58Z</time><name>PT5324</name></trkpt>
<trkpt lat="52.041154" lon="05.759198"><ele>33.8</ele><time>2021-05-01T14:41:59Z</time><name>PT5325</name></trkpt>
<trkpt lat="52.041153" lon="05.759195"><ele>33.8</ele><time>2021-05-01T14:42:00Z</time><name>PT5326</name></trkpt>
<trkpt lat="52.041153" lon="05.759192"><ele>33.6</ele><time>2021-05-01T14:42:01Z</time><name>PT5327</name></trkpt>
<trkpt lat="52.041144" lon="05.759184"><ele>33.6</ele><time>2021-05-01T14:42:02Z</time><name>PT5328</name></trkpt>
<trkpt lat="52.041129" lon="05.759164"><ele>33.6</ele><time>2021-05-01T14:42:03Z</time><name>PT5329</name></trkpt>
<trkpt lat="52.041115" lon="05.759148"><ele>33.5</ele><time>2021-05-01T14:42:04Z</time><name>PT5330</name></trkpt>
<trkpt lat="52.041103" lon="05.759133"><ele>33.7</ele><time>2021-05-01T14:42:05Z</time><name>PT5331</name></trkpt>
<trkpt lat="52.041090" lon="05.759124"><ele>33.7</ele><time>2021-05-01T14:42:06Z</time><name>PT5332</name></trkpt>
<trkpt lat="52.041084" lon="05.759125"><ele>33.7</ele><time>2021-05-01T14:42:07Z</time><name>PT5333</name></trkpt>
<trkpt lat="52.041084" lon="05.759129"><ele>33.7</ele><time>2021-05-01T14:42:08Z</time><name>PT5334</name></trkpt>
<trkpt lat="52.041079" lon="05.759117"><ele>33.7</ele><time>2021-05-01T14:42:09Z</time><name>PT5335</name></trkpt>
<trkpt lat="52.041061" lon="05.759097"><ele>33.6</ele><time>2021-05-01T14:42:10Z</time><name>PT5336</name></trkpt>
<trkpt lat="52.041049" lon="05.759073"><ele>33.6</ele><time>2021-05-01T14:42:11Z</time><name>PT5337</name></trkpt>
<trkpt lat="52.041042" lon="05.759055"><ele>33.6</ele><time>2021-05-01T14:42:12Z</time><name>PT5338</name></trkpt>
<trkpt lat="52.041037" lon="05.759051"><ele>33.5</ele><time>2021-05-01T14:42:13Z</time><name>PT5339</name></trkpt>
<trkpt lat="52.041033" lon="05.759050"><ele>33.6</ele><time>2021-05-01T14:42:14Z</time><name>PT5340</name></trkpt>
<trkpt lat="52.041024" lon="05.759041"><ele>33.6</ele><time>2021-05-01T14:42:15Z</time><name>PT5341</name></trkpt>
<trkpt lat="52.041013" lon="05.759025"><ele>33.6</ele><time>2021-05-01T14:42:16Z</time><name>PT5342</name></trkpt>
<trkpt lat="52.041001" lon="05.759007"><ele>33.6</ele><time>2021-05-01T14:42:17Z</time><name>PT5343</name></trkpt>
<trkpt lat="52.040993" lon="05.758994"><ele>33.6</ele><time>2021-05-01T14:42:18Z</time><name>PT5344</name></trkpt>
<trkpt lat="52.040990" lon="05.758988"><ele>33.6</ele><time>2021-05-01T14:42:19Z</time><name>PT5345</name></trkpt>
<trkpt lat="52.040990" lon="05.758987"><ele>33.5</ele><time>2021-05-01T14:42:20Z</time><name>PT5346</name></trkpt>
<trkpt lat="52.040983" lon="05.758979"><ele>33.4</ele><time>2021-05-01T14:42:21Z</time><name>PT5347</name></trkpt>
<trkpt lat="52.040974" lon="05.758968"><ele>33.4</ele><time>2021-05-01T14:42:22Z</time><name>PT5348</name></trkpt>
<trkpt lat="52.040964" lon="05.758952"><ele>33.2</ele><time>2021-05-01T14:42:23Z</time><name>PT5349</name></trkpt>
<trkpt lat="52.040949" lon="05.758928"><ele>33.2</ele><time>2021-05-01T14:42:24Z</time><name>PT5350</name></trkpt>
<trkpt lat="52.040944" lon="05.758921"><ele>33.5</ele><time>2021-05-01T14:42:25Z</time><name>PT5351</name></trkpt>
<trkpt lat="52.040939" lon="05.758921"><ele>33.2</ele><time>2021-05-01T14:42:26Z</time><name>PT5352</name></trkpt>
<trkpt lat="52.040936" lon="05.758923"><ele>33.1</ele><time>2021-05-01T14:42:27Z</time><name>PT5353</name></trkpt>
<trkpt lat="52.040928" lon="05.758906"><ele>33.2</ele><time>2021-05-01T14:42:28Z</time><name>PT5354</name></trkpt>
<trkpt lat="52.040915" lon="05.758882"><ele>33.1</ele><time>2021-05-01T14:42:29Z</time><name>PT5355</name></trkpt>
<trkpt lat="52.040904" lon="05.758856"><ele>33.1</ele><time>2021-05-01T14:42:30Z</time><name>PT5356</name></trkpt>
<trkpt lat="52.040896" lon="05.758842"><ele>33.1</ele><time>2021-05-01T14:42:31Z</time><name>PT5357</name></trkpt>
<trkpt lat="52.040889" lon="05.758836"><ele>33.2</ele><time>2021-05-01T14:42:32Z</time><name>PT5358</name></trkpt>
<trkpt lat="52.040888" lon="05.758831"><ele>33.2</ele><time>2021-05-01T14:42:33Z</time><name>PT5359</name></trkpt>
<trkpt lat="52.040885" lon="05.758826"><ele>33.1</ele><time>2021-05-01T14:42:34Z</time><name>PT5360</name></trkpt>
<trkpt lat="52.040879" lon="05.758807"><ele>33.2</ele><time>2021-05-01T14:42:35Z</time><name>PT5361</name></trkpt>
<trkpt lat="52.040876" lon="05.758785"><ele>33.3</ele><time>2021-05-01T14:42:36Z</time><name>PT5362</name></trkpt>
<trkpt lat="52.040872" lon="05.758765"><ele>33.3</ele><time>2021-05-01T14:42:37Z</time><name>PT5363</name></trkpt>
<trkpt lat="52.040868" lon="05.758754"><ele>33.3</ele><time>2021-05-01T14:42:38Z</time><name>PT5364</name></trkpt>
<trkpt lat="52.040865" lon="05.758757"><ele>33.3</ele><time>2021-05-01T14:42:39Z</time><name>PT5365</name></trkpt>
<trkpt lat="52.040863" lon="05.758748"><ele>33.4</ele><time>2021-05-01T14:42:40Z</time><name>PT5366</name></trkpt>
<trkpt lat="52.040853" lon="05.758740"><ele>33.4</ele><time>2021-05-01T14:42:41Z</time><name>PT5367</name></trkpt>
<trkpt lat="52.040848" lon="05.758728"><ele>33.3</ele><time>2021-05-01T14:42:42Z</time><name>PT5368</name></trkpt>
<trkpt lat="52.040842" lon="05.758711"><ele>33.3</ele><time>2021-05-01T14:42:43Z</time><name>PT5369</name></trkpt>
<trkpt lat="52.040832" lon="05.758702"><ele>33.3</ele><time>2021-05-01T14:42:44Z</time><name>PT5370</name></trkpt>
<trkpt lat="52.040824" lon="05.758695"><ele>33.2</ele><time>2021-05-01T14:42:45Z</time><name>PT5371</name></trkpt>
<trkpt lat="52.040820" lon="05.758689"><ele>33.3</ele><time>2021-05-01T14:42:46Z</time><name>PT5372</name></trkpt>
<trkpt lat="52.040810" lon="05.758672"><ele>33.5</ele><time>2021-05-01T14:42:47Z</time><name>PT5373</name></trkpt>
<trkpt lat="52.040795" lon="05.758636"><ele>33.4</ele><time>2021-05-01T14:42:48Z</time><name>PT5374</name></trkpt>
<trkpt lat="52.040786" lon="05.758618"><ele>33.5</ele><time>2021-05-01T14:42:49Z</time><name>PT5375</name></trkpt>
<trkpt lat="52.040782" lon="05.758607"><ele>33.6</ele><time>2021-05-01T14:42:50Z</time><name>PT5376</name></trkpt>
<trkpt lat="52.040775" lon="05.758600"><ele>33.5</ele><time>2021-05-01T14:42:51Z</time><name>PT5377</name></trkpt>
<trkpt lat="52.040773" lon="05.758592"><ele>33.5</ele><time>2021-05-01T14:42:52Z</time><name>PT5378</name></trkpt>
<trkpt lat="52.040766" lon="05.758581"><ele>33.3</ele><time>2021-05-01T14:42:53Z</time><name>PT5379</name></trkpt>
<trkpt lat="52.040752" lon="05.758567"><ele>33.2</ele><time>2021-05-01T14:42:54Z</time><name>PT5380</name></trkpt>
<trkpt lat="52.040733" lon="05.758545"><ele>33.3</ele><time>2021-05-01T14:42:55Z</time><name>PT5381</name></trkpt>
<trkpt lat="52.040728" lon="05.758534"><ele>33.2</ele><time>2021-05-01T14:42:56Z</time><name>PT5382</name></trkpt>
<trkpt lat="52.040725" lon="05.758527"><ele>33.2</ele><time>2021-05-01T14:42:57Z</time><name>PT5383</name></trkpt>
<trkpt lat="52.040721" lon="05.758521"><ele>33.3</ele><time>2021-05-01T14:42:58Z</time><name>PT5384</name></trkpt>
<trkpt lat="52.040712" lon="05.758503"><ele>33.3</ele><time>2021-05-01T14:42:59Z</time><name>PT5385</name></trkpt>
<trkpt lat="52.040703" lon="05.758482"><ele>33.2</ele><time>2021-05-01T14:43:00Z</time><name>PT5386</name></trkpt>
<trkpt lat="52.040696" lon="05.758480"><ele>33.3</ele><time>2021-05-01T14:43:01Z</time><name>PT5387</name></trkpt>
<trkpt lat="52.040691" lon="05.758482"><ele>33.3</ele><time>2021-05-01T14:43:02Z</time><name>PT5388</name></trkpt>
<trkpt lat="52.040694" lon="05.758482"><ele>33.2</ele><time>2021-05-01T14:43:03Z</time><name>PT5389</name></trkpt>
<trkpt lat="52.040685" lon="05.758463"><ele>33.1</ele><time>2021-05-01T14:43:04Z</time><name>PT5390</name></trkpt>
<trkpt lat="52.040680" lon="05.758450"><ele>33.2</ele><time>2021-05-01T14:43:05Z</time><name>PT5391</name></trkpt>
<trkpt lat="52.040677" lon="05.758439"><ele>33.1</ele><time>2021-05-01T14:43:06Z</time><name>PT5392</name></trkpt>
<trkpt lat="52.040676" lon="05.758429"><ele>33.1</ele><time>2021-05-01T14:43:07Z</time><name>PT5393</name></trkpt>
<trkpt lat="52.040672" lon="05.758416"><ele>33.3</ele><time>2021-05-01T14:43:08Z</time><name>PT5394</name></trkpt>
<trkpt lat="52.040665" lon="05.758395"><ele>33.6</ele><time>2021-05-01T14:43:09Z</time><name>PT5395</name></trkpt>
<trkpt lat="52.040658" lon="05.758381"><ele>33.7</ele><time>2021-05-01T14:43:10Z</time><name>PT5396</name></trkpt>
<trkpt lat="52.040652" lon="05.758377"><ele>33.7</ele><time>2021-05-01T14:43:11Z</time><name>PT5397</name></trkpt>
<trkpt lat="52.040650" lon="05.758366"><ele>33.7</ele><time>2021-05-01T14:43:12Z</time><name>PT5398</name></trkpt>
<trkpt lat="52.040645" lon="05.758358"><ele>33.5</ele><time>2021-05-01T14:43:13Z</time><name>PT5399</name></trkpt>
<trkpt lat="52.040642" lon="05.758343"><ele>33.3</ele><time>2021-05-01T14:43:14Z</time><name>PT5400</name></trkpt>
<trkpt lat="52.040641" lon="05.758318"><ele>33.1</ele><time>2021-05-01T14:43:15Z</time><name>PT5401</name></trkpt>
<trkpt lat="52.040635" lon="05.758305"><ele>33.1</ele><time>2021-05-01T14:43:16Z</time><name>PT5402</name></trkpt>
<trkpt lat="52.040631" lon="05.758297"><ele>33.1</ele><time>2021-05-01T14:43:17Z</time><name>PT5403</name></trkpt>
<trkpt lat="52.040629" lon="05.758292"><ele>33.2</ele><time>2021-05-01T14:43:18Z</time><name>PT5404</name></trkpt>
<trkpt lat="52.040621" lon="05.758273"><ele>33.3</ele><time>2021-05-01T14:43:19Z</time><name>PT5405</name></trkpt>
<trkpt lat="52.040616" lon="05.758254"><ele>33.1</ele><time>2021-05-01T14:43:20Z</time><name>PT5406</name></trkpt>
<trkpt lat="52.040611" lon="05.758240"><ele>33</ele><time>2021-05-01T14:43:21Z</time><name>PT5407</name></trkpt>
<trkpt lat="52.040611" lon="05.758222"><ele>33.1</ele><time>2021-05-01T14:43:22Z</time><name>PT5408</name></trkpt>
<trkpt lat="52.040614" lon="05.758204"><ele>33</ele><time>2021-05-01T14:43:23Z</time><name>PT5409</name></trkpt>
<trkpt lat="52.040613" lon="05.758186"><ele>33</ele><time>2021-05-01T14:43:24Z</time><name>PT5410</name></trkpt>
<trkpt lat="52.040602" lon="05.758164"><ele>33.4</ele><time>2021-05-01T14:43:25Z</time><name>PT5411</name></trkpt>
<trkpt lat="52.040596" lon="05.758151"><ele>33.4</ele><time>2021-05-01T14:43:26Z</time><name>PT5412</name></trkpt>
<trkpt lat="52.040590" lon="05.758131"><ele>33.5</ele><time>2021-05-01T14:43:27Z</time><name>PT5413</name></trkpt>
<trkpt lat="52.040583" lon="05.758118"><ele>33.4</ele><time>2021-05-01T14:43:28Z</time><name>PT5414</name></trkpt>
<trkpt lat="52.040580" lon="05.758106"><ele>33.5</ele><time>2021-05-01T14:43:29Z</time><name>PT5415</name></trkpt>
<trkpt lat="52.040577" lon="05.758088"><ele>33.4</ele><time>2021-05-01T14:43:30Z</time><name>PT5416</name></trkpt>
<trkpt lat="52.040575" lon="05.758071"><ele>33.3</ele><time>2021-05-01T14:43:31Z</time><name>PT5417</name></trkpt>
<trkpt lat="52.040572" lon="05.758056"><ele>33.4</ele><time>2021-05-01T14:43:32Z</time><name>PT5418</name></trkpt>
<trkpt lat="52.040569" lon="05.758038"><ele>33.3</ele><time>2021-05-01T14:43:33Z</time><name>PT5419</name></trkpt>
<trkpt lat="52.040564" lon="05.758031"><ele>33.3</ele><time>2021-05-01T14:43:34Z</time><name>PT5420</name></trkpt>
<trkpt lat="52.040561" lon="05.758025"><ele>33.4</ele><time>2021-05-01T14:43:35Z</time><name>PT5421</name></trkpt>
<trkpt lat="52.040558" lon="05.758006"><ele>33.4</ele><time>2021-05-01T14:43:36Z</time><name>PT5422</name></trkpt>
<trkpt lat="52.040551" lon="05.757983"><ele>33.3</ele><time>2021-05-01T14:43:37Z</time><name>PT5423</name></trkpt>
<trkpt lat="52.040544" lon="05.757963"><ele>33.6</ele><time>2021-05-01T14:43:38Z</time><name>PT5424</name></trkpt>
<trkpt lat="52.040541" lon="05.757944"><ele>33.6</ele><time>2021-05-01T14:43:39Z</time><name>PT5425</name></trkpt>
<trkpt lat="52.040532" lon="05.757927"><ele>33.6</ele><time>2021-05-01T14:43:40Z</time><name>PT5426</name></trkpt>
<trkpt lat="52.040526" lon="05.757920"><ele>33.6</ele><time>2021-05-01T14:43:41Z</time><name>PT5427</name></trkpt>
<trkpt lat="52.040519" lon="05.757908"><ele>33.5</ele><time>2021-05-01T14:43:42Z</time><name>PT5428</name></trkpt>
<trkpt lat="52.040513" lon="05.757890"><ele>33.5</ele><time>2021-05-01T14:43:43Z</time><name>PT5429</name></trkpt>
<trkpt lat="52.040509" lon="05.757876"><ele>33.3</ele><time>2021-05-01T14:43:44Z</time><name>PT5430</name></trkpt>
<trkpt lat="52.040508" lon="05.757868"><ele>33.3</ele><time>2021-05-01T14:43:45Z</time><name>PT5431</name></trkpt>
<trkpt lat="52.040501" lon="05.757860"><ele>33.4</ele><time>2021-05-01T14:43:46Z</time><name>PT5432</name></trkpt>
<trkpt lat="52.040497" lon="05.757839"><ele>33.5</ele><time>2021-05-01T14:43:47Z</time><name>PT5433</name></trkpt>
<trkpt lat="52.040491" lon="05.757820"><ele>33.3</ele><time>2021-05-01T14:43:48Z</time><name>PT5434</name></trkpt>
<trkpt lat="52.040487" lon="05.757809"><ele>33.3</ele><time>2021-05-01T14:43:49Z</time><name>PT5435</name></trkpt>
<trkpt lat="52.040482" lon="05.757799"><ele>33.3</ele><time>2021-05-01T14:43:50Z</time><name>PT5436</name></trkpt>
<trkpt lat="52.040478" lon="05.757788"><ele>33.3</ele><time>2021-05-01T14:43:51Z</time><name>PT5437</name></trkpt>
<trkpt lat="52.040467" lon="05.757767"><ele>33.4</ele><time>2021-05-01T14:43:52Z</time><name>PT5438</name></trkpt>
<trkpt lat="52.040456" lon="05.757747"><ele>33.2</ele><time>2021-05-01T14:43:53Z</time><name>PT5439</name></trkpt>
<trkpt lat="52.040450" lon="05.757724"><ele>33.2</ele><time>2021-05-01T14:43:54Z</time><name>PT5440</name></trkpt>
<trkpt lat="52.040444" lon="05.757716"><ele>33.2</ele><time>2021-05-01T14:43:55Z</time><name>PT5441</name></trkpt>
<trkpt lat="52.040441" lon="05.757713"><ele>33.2</ele><time>2021-05-01T14:43:56Z</time><name>PT5442</name></trkpt>
<trkpt lat="52.040434" lon="05.757702"><ele>33.3</ele><time>2021-05-01T14:43:57Z</time><name>PT5443</name></trkpt>
<trkpt lat="52.040423" lon="05.757682"><ele>33.5</ele><time>2021-05-01T14:43:58Z</time><name>PT5444</name></trkpt>
<trkpt lat="52.040412" lon="05.757668"><ele>33.5</ele><time>2021-05-01T14:43:59Z</time><name>PT5445</name></trkpt>
<trkpt lat="52.040401" lon="05.757648"><ele>33.6</ele><time>2021-05-01T14:44:00Z</time><name>PT5446</name></trkpt>
<trkpt lat="52.040396" lon="05.757636"><ele>33.6</ele><time>2021-05-01T14:44:01Z</time><name>PT5447</name></trkpt>
<trkpt lat="52.040392" lon="05.757622"><ele>33.4</ele><time>2021-05-01T14:44:02Z</time><name>PT5448</name></trkpt>
<trkpt lat="52.040383" lon="05.757607"><ele>33.4</ele><time>2021-05-01T14:44:03Z</time><name>PT5449</name></trkpt>
<trkpt lat="52.040370" lon="05.757583"><ele>33.3</ele><time>2021-05-01T14:44:04Z</time><name>PT5450</name></trkpt>
<trkpt lat="52.040355" lon="05.757557"><ele>33.2</ele><time>2021-05-01T14:44:05Z</time><name>PT5451</name></trkpt>
<trkpt lat="52.040348" lon="05.757542"><ele>33.2</ele><time>2021-05-01T14:44:06Z</time><name>PT5452</name></trkpt>
<trkpt lat="52.040343" lon="05.757530"><ele>33.3</ele><time>2021-05-01T14:44:07Z</time><name>PT5453</name></trkpt>
<trkpt lat="52.040336" lon="05.757520"><ele>33.2</ele><time>2021-05-01T14:44:08Z</time><name>PT5454</name></trkpt>
<trkpt lat="52.040327" lon="05.757510"><ele>33.3</ele><time>2021-05-01T14:44:09Z</time><name>PT5455</name></trkpt>
<trkpt lat="52.040313" lon="05.757491"><ele>33.2</ele><time>2021-05-01T14:44:10Z</time><name>PT5456</name></trkpt>
<trkpt lat="52.040300" lon="05.757474"><ele>33.2</ele><time>2021-05-01T14:44:11Z</time><name>PT5457</name></trkpt>
<trkpt lat="52.040290" lon="05.757469"><ele>33.2</ele><time>2021-05-01T14:44:12Z</time><name>PT5458</name></trkpt>
<trkpt lat="52.040287" lon="05.757465"><ele>33.5</ele><time>2021-05-01T14:44:13Z</time><name>PT5459</name></trkpt>
<trkpt lat="52.040286" lon="05.757459"><ele>33.3</ele><time>2021-05-01T14:44:14Z</time><name>PT5460</name></trkpt>
<trkpt lat="52.040283" lon="05.757434"><ele>33.4</ele><time>2021-05-01T14:44:15Z</time><name>PT5461</name></trkpt>
<trkpt lat="52.040275" lon="05.757415"><ele>33.5</ele><time>2021-05-01T14:44:16Z</time><name>PT5462</name></trkpt>
<trkpt lat="52.040266" lon="05.757400"><ele>33.3</ele><time>2021-05-01T14:44:17Z</time><name>PT5463</name></trkpt>
<trkpt lat="52.040265" lon="05.757396"><ele>33.3</ele><time>2021-05-01T14:44:18Z</time><name>PT5464</name></trkpt>
<trkpt lat="52.040262" lon="05.757394"><ele>33.5</ele><time>2021-05-01T14:44:19Z</time><name>PT5465</name></trkpt>
<trkpt lat="52.040251" lon="05.757390"><ele>33.3</ele><time>2021-05-01T14:44:21Z</time><name>PT5466</name></trkpt>
<trkpt lat="52.040243" lon="05.757385"><ele>33.2</ele><time>2021-05-01T14:44:21Z</time><name>PT5467</name></trkpt>
<trkpt lat="52.040229" lon="05.757369"><ele>33.2</ele><time>2021-05-01T14:44:22Z</time><name>PT5468</name></trkpt>
<trkpt lat="52.040214" lon="05.757356"><ele>33.2</ele><time>2021-05-01T14:44:23Z</time><name>PT5469</name></trkpt>
<trkpt lat="52.040206" lon="05.757349"><ele>33.4</ele><time>2021-05-01T14:44:24Z</time><name>PT5470</name></trkpt>
<trkpt lat="52.040200" lon="05.757346"><ele>33.4</ele><time>2021-05-01T14:44:25Z</time><name>PT5471</name></trkpt>
<trkpt lat="52.040197" lon="05.757348"><ele>33.6</ele><time>2021-05-01T14:44:26Z</time><name>PT5472</name></trkpt>
<trkpt lat="52.040188" lon="05.757348"><ele>33.6</ele><time>2021-05-01T14:44:27Z</time><name>PT5473</name></trkpt>
<trkpt lat="52.040180" lon="05.757351"><ele>33.6</ele><time>2021-05-01T14:44:28Z</time><name>PT5474</name></trkpt>
<trkpt lat="52.040175" lon="05.757346"><ele>33.5</ele><time>2021-05-01T14:44:29Z</time><name>PT5475</name></trkpt>
<trkpt lat="52.040166" lon="05.757340"><ele>33.5</ele><time>2021-05-01T14:44:30Z</time><name>PT5476</name></trkpt>
<trkpt lat="52.040160" lon="05.757339"><ele>33.6</ele><time>2021-05-01T14:44:31Z</time><name>PT5477</name></trkpt>
<trkpt lat="52.040154" lon="05.757342"><ele>33.6</ele><time>2021-05-01T14:44:32Z</time><name>PT5478</name></trkpt>
<trkpt lat="52.040146" lon="05.757341"><ele>33.6</ele><time>2021-05-01T14:44:33Z</time><name>PT5479</name></trkpt>
<trkpt lat="52.040129" lon="05.757334"><ele>33.7</ele><time>2021-05-01T14:44:35Z</time><name>PT5480</name></trkpt>
<trkpt lat="52.040111" lon="05.757324"><ele>33.6</ele><time>2021-05-01T14:44:35Z</time><name>PT5481</name></trkpt>
<trkpt lat="52.040097" lon="05.757319"><ele>33.6</ele><time>2021-05-01T14:44:36Z</time><name>PT5482</name></trkpt>
<trkpt lat="52.040092" lon="05.757317"><ele>33.5</ele><time>2021-05-01T14:44:37Z</time><name>PT5483</name></trkpt>
<trkpt lat="52.040085" lon="05.757317"><ele>33.4</ele><time>2021-05-01T14:44:38Z</time><name>PT5484</name></trkpt>
<trkpt lat="52.040074" lon="05.757312"><ele>33.4</ele><time>2021-05-01T14:44:39Z</time><name>PT5485</name></trkpt>
<trkpt lat="52.040054" lon="05.757306"><ele>33.2</ele><time>2021-05-01T14:44:40Z</time><name>PT5486</name></trkpt>
<trkpt lat="52.040038" lon="05.757292"><ele>33.1</ele><time>2021-05-01T14:44:41Z</time><name>PT5487</name></trkpt>
<trkpt lat="52.040020" lon="05.757277"><ele>33.2</ele><time>2021-05-01T14:44:42Z</time><name>PT5488</name></trkpt>
<trkpt lat="52.040009" lon="05.757271"><ele>33.2</ele><time>2021-05-01T14:44:43Z</time><name>PT5489</name></trkpt>
<trkpt lat="52.040001" lon="05.757271"><ele>33.4</ele><time>2021-05-01T14:44:44Z</time><name>PT5490</name></trkpt>
<trkpt lat="52.039989" lon="05.757268"><ele>33.6</ele><time>2021-05-01T14:44:45Z</time><name>PT5491</name></trkpt>
<trkpt lat="52.039976" lon="05.757267"><ele>33.8</ele><time>2021-05-01T14:44:46Z</time><name>PT5492</name></trkpt>
<trkpt lat="52.039965" lon="05.757267"><ele>33.7</ele><time>2021-05-01T14:44:47Z</time><name>PT5493</name></trkpt>
<trkpt lat="52.039963" lon="05.757260"><ele>33.9</ele><time>2021-05-01T14:44:48Z</time><name>PT5494</name></trkpt>
<trkpt lat="52.039954" lon="05.757255"><ele>33.8</ele><time>2021-05-01T14:44:49Z</time><name>PT5495</name></trkpt>
<trkpt lat="52.039951" lon="05.757255"><ele>33.8</ele><time>2021-05-01T14:44:50Z</time><name>PT5496</name></trkpt>
<trkpt lat="52.039941" lon="05.757246"><ele>33.9</ele><time>2021-05-01T14:44:51Z</time><name>PT5497</name></trkpt>
<trkpt lat="52.039932" lon="05.757242"><ele>34.1</ele><time>2021-05-01T14:44:52Z</time><name>PT5498</name></trkpt>
<trkpt lat="52.039925" lon="05.757240"><ele>33.8</ele><time>2021-05-01T14:44:53Z</time><name>PT5499</name></trkpt>
<trkpt lat="52.039914" lon="05.757237"><ele>33.8</ele><time>2021-05-01T14:44:54Z</time><name>PT5500</name></trkpt>
<trkpt lat="52.039900" lon="05.757239"><ele>33.8</ele><time>2021-05-01T14:44:55Z</time><name>PT5501</name></trkpt>
<trkpt lat="52.039887" lon="05.757237"><ele>33.8</ele><time>2021-05-01T14:44:56Z</time><name>PT5502</name></trkpt>
<trkpt lat="52.039880" lon="05.757233"><ele>33.8</ele><time>2021-05-01T14:44:57Z</time><name>PT5503</name></trkpt>
<trkpt lat="52.039872" lon="05.757228"><ele>33.9</ele><time>2021-05-01T14:44:58Z</time><name>PT5504</name></trkpt>
<trkpt lat="52.039866" lon="05.757226"><ele>33.8</ele><time>2021-05-01T14:44:59Z</time><name>PT5505</name></trkpt>
<trkpt lat="52.039861" lon="05.757228"><ele>33.8</ele><time>2021-05-01T14:45:00Z</time><name>PT5506</name></trkpt>
<trkpt lat="52.039850" lon="05.757213"><ele>33.7</ele><time>2021-05-01T14:45:01Z</time><name>PT5507</name></trkpt>
<trkpt lat="52.039836" lon="05.757202"><ele>33.5</ele><time>2021-05-01T14:45:02Z</time><name>PT5508</name></trkpt>
<trkpt lat="52.039827" lon="05.757200"><ele>33.5</ele><time>2021-05-01T14:45:03Z</time><name>PT5509</name></trkpt>
<trkpt lat="52.039820" lon="05.757204"><ele>33.6</ele><time>2021-05-01T14:45:04Z</time><name>PT5510</name></trkpt>
<trkpt lat="52.039813" lon="05.757209"><ele>33.6</ele><time>2021-05-01T14:45:05Z</time><name>PT5511</name></trkpt>
<trkpt lat="52.039808" lon="05.757212"><ele>33.6</ele><time>2021-05-01T14:45:06Z</time><name>PT5512</name></trkpt>
<trkpt lat="52.039791" lon="05.757207"><ele>33.6</ele><time>2021-05-01T14:45:07Z</time><name>PT5513</name></trkpt>
<trkpt lat="52.039775" lon="05.757201"><ele>33.5</ele><time>2021-05-01T14:45:08Z</time><name>PT5514</name></trkpt>
<trkpt lat="52.039761" lon="05.757201"><ele>33.5</ele><time>2021-05-01T14:45:09Z</time><name>PT5515</name></trkpt>
<trkpt lat="52.039760" lon="05.757202"><ele>33.6</ele><time>2021-05-01T14:45:10Z</time><name>PT5516</name></trkpt>
<trkpt lat="52.039757" lon="05.757206"><ele>33.6</ele><time>2021-05-01T14:45:11Z</time><name>PT5517</name></trkpt>
<trkpt lat="52.039748" lon="05.757216"><ele>33.8</ele><time>2021-05-01T14:45:12Z</time><name>PT5518</name></trkpt>
<trkpt lat="52.039737" lon="05.757223"><ele>34</ele><time>2021-05-01T14:45:13Z</time><name>PT5519</name></trkpt>
<trkpt lat="52.039723" lon="05.757223"><ele>34</ele><time>2021-05-01T14:45:14Z</time><name>PT5520</name></trkpt>
<trkpt lat="52.039709" lon="05.757215"><ele>33.9</ele><time>2021-05-01T14:45:15Z</time><name>PT5521</name></trkpt>
<trkpt lat="52.039701" lon="05.757216"><ele>33.9</ele><time>2021-05-01T14:45:16Z</time><name>PT5522</name></trkpt>
<trkpt lat="52.039696" lon="05.757216"><ele>33.8</ele><time>2021-05-01T14:45:17Z</time><name>PT5523</name></trkpt>
<trkpt lat="52.039687" lon="05.757226"><ele>33.6</ele><time>2021-05-01T14:45:18Z</time><name>PT5524</name></trkpt>
<trkpt lat="52.039674" lon="05.757222"><ele>33.6</ele><time>2021-05-01T14:45:19Z</time><name>PT5525</name></trkpt>
<trkpt lat="52.039653" lon="05.757222"><ele>33.6</ele><time>2021-05-01T14:45:20Z</time><name>PT5526</name></trkpt>
<trkpt lat="52.039640" lon="05.757226"><ele>33.6</ele><time>2021-05-01T14:45:21Z</time><name>PT5527</name></trkpt>
<trkpt lat="52.039635" lon="05.757229"><ele>33.6</ele><time>2021-05-01T14:45:22Z</time><name>PT5528</name></trkpt>
<trkpt lat="52.039630" lon="05.757232"><ele>33.6</ele><time>2021-05-01T14:45:23Z</time><name>PT5529</name></trkpt>
<trkpt lat="52.039626" lon="05.757235"><ele>33.6</ele><time>2021-05-01T14:45:24Z</time><name>PT5530</name></trkpt>
<trkpt lat="52.039617" lon="05.757246"><ele>33.4</ele><time>2021-05-01T14:45:25Z</time><name>PT5531</name></trkpt>
<trkpt lat="52.039606" lon="05.757253"><ele>33.5</ele><time>2021-05-01T14:45:26Z</time><name>PT5532</name></trkpt>
<trkpt lat="52.039597" lon="05.757263"><ele>33.5</ele><time>2021-05-01T14:45:27Z</time><name>PT5533</name></trkpt>
<trkpt lat="52.039588" lon="05.757272"><ele>33.5</ele><time>2021-05-01T14:45:28Z</time><name>PT5534</name></trkpt>
<trkpt lat="52.039577" lon="05.757281"><ele>33.5</ele><time>2021-05-01T14:45:29Z</time><name>PT5535</name></trkpt>
<trkpt lat="52.039563" lon="05.757293"><ele>33.4</ele><time>2021-05-01T14:45:30Z</time><name>PT5536</name></trkpt>
<trkpt lat="52.039555" lon="05.757299"><ele>33.5</ele><time>2021-05-01T14:45:31Z</time><name>PT5537</name></trkpt>
<trkpt lat="52.039545" lon="05.757304"><ele>33.4</ele><time>2021-05-01T14:45:32Z</time><name>PT5538</name></trkpt>
<trkpt lat="52.039534" lon="05.757314"><ele>33.4</ele><time>2021-05-01T14:45:33Z</time><name>PT5539</name></trkpt>
<trkpt lat="52.039526" lon="05.757320"><ele>33.4</ele><time>2021-05-01T14:45:34Z</time><name>PT5540</name></trkpt>
<trkpt lat="52.039521" lon="05.757322"><ele>33.5</ele><time>2021-05-01T14:45:35Z</time><name>PT5541</name></trkpt>
<trkpt lat="52.039513" lon="05.757328"><ele>33.6</ele><time>2021-05-01T14:45:36Z</time><name>PT5542</name></trkpt>
<trkpt lat="52.039502" lon="05.757335"><ele>33.6</ele><time>2021-05-01T14:45:38Z</time><name>PT5543</name></trkpt>
<trkpt lat="52.039494" lon="05.757336"><ele>33.6</ele><time>2021-05-01T14:45:39Z</time><name>PT5544</name></trkpt>
<trkpt lat="52.039487" lon="05.757335"><ele>33.6</ele><time>2021-05-01T14:45:40Z</time><name>PT5545</name></trkpt>
<trkpt lat="52.039477" lon="05.757326"><ele>33.7</ele><time>2021-05-01T14:45:41Z</time><name>PT5546</name></trkpt>
<trkpt lat="52.039465" lon="05.757321"><ele>33.6</ele><time>2021-05-01T14:45:42Z</time><name>PT5547</name></trkpt>
<trkpt lat="52.039451" lon="05.757306"><ele>33.7</ele><time>2021-05-01T14:45:43Z</time><name>PT5548</name></trkpt>
<trkpt lat="52.039438" lon="05.757295"><ele>33.7</ele><time>2021-05-01T14:45:44Z</time><name>PT5549</name></trkpt>
<trkpt lat="52.039436" lon="05.757300"><ele>33.8</ele><time>2021-05-01T14:45:45Z</time><name>PT5550</name></trkpt>
<trkpt lat="52.039432" lon="05.757300"><ele>33.6</ele><time>2021-05-01T14:45:46Z</time><name>PT5551</name></trkpt>
<trkpt lat="52.039426" lon="05.757297"><ele>33.7</ele><time>2021-05-01T14:45:47Z</time><name>PT5552</name></trkpt>
<trkpt lat="52.039415" lon="05.757305"><ele>33.8</ele><time>2021-05-01T14:45:48Z</time><name>PT5553</name></trkpt>
<trkpt lat="52.039398" lon="05.757305"><ele>33.8</ele><time>2021-05-01T14:45:49Z</time><name>PT5554</name></trkpt>
<trkpt lat="52.039377" lon="05.757297"><ele>33.9</ele><time>2021-05-01T14:45:50Z</time><name>PT5555</name></trkpt>
<trkpt lat="52.039366" lon="05.757296"><ele>33.9</ele><time>2021-05-01T14:45:51Z</time><name>PT5556</name></trkpt>
<trkpt lat="52.039362" lon="05.757303"><ele>33.9</ele><time>2021-05-01T14:45:52Z</time><name>PT5557</name></trkpt>
<trkpt lat="52.039359" lon="05.757304"><ele>33.8</ele><time>2021-05-01T14:45:53Z</time><name>PT5558</name></trkpt>
<trkpt lat="52.039352" lon="05.757309"><ele>33.9</ele><time>2021-05-01T14:45:54Z</time><name>PT5559</name></trkpt>
<trkpt lat="52.039335" lon="05.757308"><ele>33.8</ele><time>2021-05-01T14:45:55Z</time><name>PT5560</name></trkpt>
<trkpt lat="52.039326" lon="05.757303"><ele>34</ele><time>2021-05-01T14:45:56Z</time><name>PT5561</name></trkpt>
<trkpt lat="52.039316" lon="05.757301"><ele>33.9</ele><time>2021-05-01T14:45:57Z</time><name>PT5562</name></trkpt>
<trkpt lat="52.039311" lon="05.757297"><ele>34</ele><time>2021-05-01T14:45:58Z</time><name>PT5563</name></trkpt>
<trkpt lat="52.039305" lon="05.757299"><ele>34</ele><time>2021-05-01T14:45:59Z</time><name>PT5564</name></trkpt>
<trkpt lat="52.039289" lon="05.757295"><ele>34</ele><time>2021-05-01T14:46:00Z</time><name>PT5565</name></trkpt>
<trkpt lat="52.039267" lon="05.757292"><ele>34</ele><time>2021-05-01T14:46:01Z</time><name>PT5566</name></trkpt>
<trkpt lat="52.039253" lon="05.757287"><ele>34</ele><time>2021-05-01T14:46:02Z</time><name>PT5567</name></trkpt>
<trkpt lat="52.039248" lon="05.757288"><ele>33.9</ele><time>2021-05-01T14:46:03Z</time><name>PT5568</name></trkpt>
<trkpt lat="52.039245" lon="05.757288"><ele>33.9</ele><time>2021-05-01T14:46:04Z</time><name>PT5569</name></trkpt>
<trkpt lat="52.039231" lon="05.757288"><ele>33.9</ele><time>2021-05-01T14:46:05Z</time><name>PT5570</name></trkpt>
<trkpt lat="52.039213" lon="05.757291"><ele>34</ele><time>2021-05-01T14:46:06Z</time><name>PT5571</name></trkpt>
<trkpt lat="52.039196" lon="05.757290"><ele>33.9</ele><time>2021-05-01T14:46:07Z</time><name>PT5572</name></trkpt>
<trkpt lat="52.039191" lon="05.757292"><ele>33.9</ele><time>2021-05-01T14:46:08Z</time><name>PT5573</name></trkpt>
<trkpt lat="52.039190" lon="05.757291"><ele>33.8</ele><time>2021-05-01T14:46:09Z</time><name>PT5574</name></trkpt>
<trkpt lat="52.039188" lon="05.757291"><ele>33.8</ele><time>2021-05-01T14:46:10Z</time><name>PT5575</name></trkpt>
<trkpt lat="52.039176" lon="05.757282"><ele>33.6</ele><time>2021-05-01T14:46:11Z</time><name>PT5576</name></trkpt>
<trkpt lat="52.039158" lon="05.757276"><ele>33.6</ele><time>2021-05-01T14:46:12Z</time><name>PT5577</name></trkpt>
<trkpt lat="52.039148" lon="05.757276"><ele>33.6</ele><time>2021-05-01T14:46:13Z</time><name>PT5578</name></trkpt>
<trkpt lat="52.039146" lon="05.757280"><ele>33.6</ele><time>2021-05-01T14:46:14Z</time><name>PT5579</name></trkpt>
<trkpt lat="52.039146" lon="05.757286"><ele>33.8</ele><time>2021-05-01T14:46:15Z</time><name>PT5580</name></trkpt>
<trkpt lat="52.039135" lon="05.757298"><ele>33.9</ele><time>2021-05-01T14:46:16Z</time><name>PT5581</name></trkpt>
<trkpt lat="52.039118" lon="05.757301"><ele>34</ele><time>2021-05-01T14:46:17Z</time><name>PT5582</name></trkpt>
<trkpt lat="52.039100" lon="05.757300"><ele>34</ele><time>2021-05-01T14:46:18Z</time><name>PT5583</name></trkpt>
<trkpt lat="52.039089" lon="05.757293"><ele>34</ele><time>2021-05-01T14:46:19Z</time><name>PT5584</name></trkpt>
<trkpt lat="52.039082" lon="05.757290"><ele>34</ele><time>2021-05-01T14:46:20Z</time><name>PT5585</name></trkpt>
<trkpt lat="52.039078" lon="05.757294"><ele>34</ele><time>2021-05-01T14:46:21Z</time><name>PT5586</name></trkpt>
<trkpt lat="52.039072" lon="05.757293"><ele>34</ele><time>2021-05-01T14:46:22Z</time><name>PT5587</name></trkpt>
<trkpt lat="52.039060" lon="05.757295"><ele>34</ele><time>2021-05-01T14:46:23Z</time><name>PT5588</name></trkpt>
<trkpt lat="52.039041" lon="05.757287"><ele>34.1</ele><time>2021-05-01T14:46:24Z</time><name>PT5589</name></trkpt>
<trkpt lat="52.039032" lon="05.757286"><ele>34.1</ele><time>2021-05-01T14:46:25Z</time><name>PT5590</name></trkpt>
<trkpt lat="52.039031" lon="05.757286"><ele>34.1</ele><time>2021-05-01T14:46:26Z</time><name>PT5591</name></trkpt>
<trkpt lat="52.039025" lon="05.757292"><ele>34.1</ele><time>2021-05-01T14:46:27Z</time><name>PT5592</name></trkpt>
<trkpt lat="52.039003" lon="05.757300"><ele>34.1</ele><time>2021-05-01T14:46:28Z</time><name>PT5593</name></trkpt>
<trkpt lat="52.038985" lon="05.757302"><ele>34</ele><time>2021-05-01T14:46:29Z</time><name>PT5594</name></trkpt>
<trkpt lat="52.038979" lon="05.757301"><ele>34</ele><time>2021-05-01T14:46:30Z</time><name>PT5595</name></trkpt>
<trkpt lat="52.038978" lon="05.757299"><ele>34.1</ele><time>2021-05-01T14:46:31Z</time><name>PT5596</name></trkpt>
<trkpt lat="52.038977" lon="05.757290"><ele>34.1</ele><time>2021-05-01T14:46:32Z</time><name>PT5597</name></trkpt>
<trkpt lat="52.038970" lon="05.757290"><ele>34.2</ele><time>2021-05-01T14:46:33Z</time><name>PT5598</name></trkpt>
<trkpt lat="52.038948" lon="05.757288"><ele>34.2</ele><time>2021-05-01T14:46:34Z</time><name>PT5599</name></trkpt>
<trkpt lat="52.038929" lon="05.757294"><ele>34.1</ele><time>2021-05-01T14:46:35Z</time><name>PT5600</name></trkpt>
<trkpt lat="52.038915" lon="05.757292"><ele>34.1</ele><time>2021-05-01T14:46:36Z</time><name>PT5601</name></trkpt>
<trkpt lat="52.038902" lon="05.757289"><ele>34.1</ele><time>2021-05-01T14:46:37Z</time><name>PT5602</name></trkpt>
<trkpt lat="52.038897" lon="05.757283"><ele>34.1</ele><time>2021-05-01T14:46:38Z</time><name>PT5603</name></trkpt>
<trkpt lat="52.038892" lon="05.757286"><ele>34.3</ele><time>2021-05-01T14:46:39Z</time><name>PT5604</name></trkpt>
<trkpt lat="52.038879" lon="05.757295"><ele>34.4</ele><time>2021-05-01T14:46:40Z</time><name>PT5605</name></trkpt>
<trkpt lat="52.038861" lon="05.757296"><ele>34.4</ele><time>2021-05-01T14:46:41Z</time><name>PT5606</name></trkpt>
<trkpt lat="52.038842" lon="05.757289"><ele>34.5</ele><time>2021-05-01T14:46:42Z</time><name>PT5607</name></trkpt>
<trkpt lat="52.038834" lon="05.757287"><ele>34.6</ele><time>2021-05-01T14:46:43Z</time><name>PT5608</name></trkpt>
<trkpt lat="52.038833" lon="05.757288"><ele>34.5</ele><time>2021-05-01T14:46:44Z</time><name>PT5609</name></trkpt>
<trkpt lat="52.038829" lon="05.757291"><ele>34.6</ele><time>2021-05-01T14:46:45Z</time><name>PT5610</name></trkpt>
<trkpt lat="52.038819" lon="05.757300"><ele>34.6</ele><time>2021-05-01T14:46:46Z</time><name>PT5611</name></trkpt>
<trkpt lat="52.038803" lon="05.757307"><ele>34.6</ele><time>2021-05-01T14:46:47Z</time><name>PT5612</name></trkpt>
<trkpt lat="52.038792" lon="05.757309"><ele>34.6</ele><time>2021-05-01T14:46:48Z</time><name>PT5613</name></trkpt>
<trkpt lat="52.038784" lon="05.757301"><ele>34.6</ele><time>2021-05-01T14:46:49Z</time><name>PT5614</name></trkpt>
<trkpt lat="52.038778" lon="05.757297"><ele>34.6</ele><time>2021-05-01T14:46:50Z</time><name>PT5615</name></trkpt>
<trkpt lat="52.038770" lon="05.757303"><ele>34.8</ele><time>2021-05-01T14:46:51Z</time><name>PT5616</name></trkpt>
<trkpt lat="52.038753" lon="05.757304"><ele>34.9</ele><time>2021-05-01T14:46:52Z</time><name>PT5617</name></trkpt>
<trkpt lat="52.038732" lon="05.757300"><ele>35.1</ele><time>2021-05-01T14:46:53Z</time><name>PT5618</name></trkpt>
<trkpt lat="52.038720" lon="05.757301"><ele>35.1</ele><time>2021-05-01T14:46:54Z</time><name>PT5619</name></trkpt>
<trkpt lat="52.038715" lon="05.757299"><ele>35.1</ele><time>2021-05-01T14:46:55Z</time><name>PT5620</name></trkpt>
<trkpt lat="52.038710" lon="05.757300"><ele>35.2</ele><time>2021-05-01T14:46:56Z</time><name>PT5621</name></trkpt>
<trkpt lat="52.038700" lon="05.757301"><ele>35.3</ele><time>2021-05-01T14:46:57Z</time><name>PT5622</name></trkpt>
<trkpt lat="52.038682" lon="05.757305"><ele>35.2</ele><time>2021-05-01T14:46:58Z</time><name>PT5623</name></trkpt>
<trkpt lat="52.038661" lon="05.757308"><ele>35.4</ele><time>2021-05-01T14:46:59Z</time><name>PT5624</name></trkpt>
<trkpt lat="52.038650" lon="05.757320"><ele>35.3</ele><time>2021-05-01T14:47:01Z</time><name>PT5625</name></trkpt>
<trkpt lat="52.038638" lon="05.757323"><ele>35.2</ele><time>2021-05-01T14:47:01Z</time><name>PT5626</name></trkpt>
<trkpt lat="52.038629" lon="05.757322"><ele>35.2</ele><time>2021-05-01T14:47:02Z</time><name>PT5627</name></trkpt>
<trkpt lat="52.038623" lon="05.757324"><ele>35.1</ele><time>2021-05-01T14:47:03Z</time><name>PT5628</name></trkpt>
<trkpt lat="52.038609" lon="05.757328"><ele>34.9</ele><time>2021-05-01T14:47:04Z</time><name>PT5629</name></trkpt>
<trkpt lat="52.038586" lon="05.757326"><ele>34.8</ele><time>2021-05-01T14:47:05Z</time><name>PT5630</name></trkpt>
<trkpt lat="52.038566" lon="05.757320"><ele>34.5</ele><time>2021-05-01T14:47:07Z</time><name>PT5631</name></trkpt>
<trkpt lat="52.038552" lon="05.757317"><ele>34.6</ele><time>2021-05-01T14:47:07Z</time><name>PT5632</name></trkpt>
<trkpt lat="52.038547" lon="05.757313"><ele>34.5</ele><time>2021-05-01T14:47:08Z</time><name>PT5633</name></trkpt>
<trkpt lat="52.038544" lon="05.757312"><ele>34.5</ele><time>2021-05-01T14:47:09Z</time><name>PT5634</name></trkpt>
<trkpt lat="52.038538" lon="05.757321"><ele>34.6</ele><time>2021-05-01T14:47:10Z</time><name>PT5635</name></trkpt>
<trkpt lat="52.038524" lon="05.757328"><ele>34.6</ele><time>2021-05-01T14:47:11Z</time><name>PT5636</name></trkpt>
<trkpt lat="52.038510" lon="05.757325"><ele>34.6</ele><time>2021-05-01T14:47:13Z</time><name>PT5637</name></trkpt>
<trkpt lat="52.038494" lon="05.757319"><ele>34.8</ele><time>2021-05-01T14:47:13Z</time><name>PT5638</name></trkpt>
<trkpt lat="52.038484" lon="05.757318"><ele>34.9</ele><time>2021-05-01T14:47:14Z</time><name>PT5639</name></trkpt>
<trkpt lat="52.038480" lon="05.757320"><ele>34.9</ele><time>2021-05-01T14:47:15Z</time><name>PT5640</name></trkpt>
<trkpt lat="52.038477" lon="05.757323"><ele>35.1</ele><time>2021-05-01T14:47:16Z</time><name>PT5641</name></trkpt>
<trkpt lat="52.038470" lon="05.757326"><ele>35.2</ele><time>2021-05-01T14:47:17Z</time><name>PT5642</name></trkpt>
<trkpt lat="52.038457" lon="05.757321"><ele>35.1</ele><time>2021-05-01T14:47:18Z</time><name>PT5643</name></trkpt>
<trkpt lat="52.038442" lon="05.757319"><ele>35</ele><time>2021-05-01T14:47:19Z</time><name>PT5644</name></trkpt>
<trkpt lat="52.038438" lon="05.757327"><ele>35</ele><time>2021-05-01T14:47:20Z</time><name>PT5645</name></trkpt>
<trkpt lat="52.038435" lon="05.757331"><ele>34.8</ele><time>2021-05-01T14:47:21Z</time><name>PT5646</name></trkpt>
<trkpt lat="52.038431" lon="05.757338"><ele>34.7</ele><time>2021-05-01T14:47:22Z</time><name>PT5647</name></trkpt>
<trkpt lat="52.038416" lon="05.757337"><ele>34.6</ele><time>2021-05-01T14:47:23Z</time><name>PT5648</name></trkpt>
<trkpt lat="52.038395" lon="05.757337"><ele>34.6</ele><time>2021-05-01T14:47:24Z</time><name>PT5649</name></trkpt>
<trkpt lat="52.038379" lon="05.757336"><ele>34.6</ele><time>2021-05-01T14:47:25Z</time><name>PT5650</name></trkpt>
<trkpt lat="52.038373" lon="05.757338"><ele>34.5</ele><time>2021-05-01T14:47:26Z</time><name>PT5651</name></trkpt>
<trkpt lat="52.038370" lon="05.757339"><ele>34.5</ele><time>2021-05-01T14:47:27Z</time><name>PT5652</name></trkpt>
<trkpt lat="52.038360" lon="05.757344"><ele>34.6</ele><time>2021-05-01T14:47:28Z</time><name>PT5653</name></trkpt>
<trkpt lat="52.038345" lon="05.757344"><ele>34.6</ele><time>2021-05-01T14:47:29Z</time><name>PT5654</name></trkpt>
<trkpt lat="52.038329" lon="05.757340"><ele>34.6</ele><time>2021-05-01T14:47:30Z</time><name>PT5655</name></trkpt>
<trkpt lat="52.038314" lon="05.757336"><ele>34.5</ele><time>2021-05-01T14:47:31Z</time><name>PT5656</name></trkpt>
<trkpt lat="52.038311" lon="05.757342"><ele>34.5</ele><time>2021-05-01T14:47:32Z</time><name>PT5657</name></trkpt>
<trkpt lat="52.038314" lon="05.757343"><ele>34.4</ele><time>2021-05-01T14:47:33Z</time><name>PT5658</name></trkpt>
<trkpt lat="52.038313" lon="05.757342"><ele>34.5</ele><time>2021-05-01T14:47:34Z</time><name>PT5659</name></trkpt>
<trkpt lat="52.038305" lon="05.757352"><ele>34.5</ele><time>2021-05-01T14:47:35Z</time><name>PT5660</name></trkpt>
<trkpt lat="52.038292" lon="05.757354"><ele>34.5</ele><time>2021-05-01T14:47:36Z</time><name>PT5661</name></trkpt>
<trkpt lat="52.038279" lon="05.757354"><ele>34.3</ele><time>2021-05-01T14:47:37Z</time><name>PT5662</name></trkpt>
<trkpt lat="52.038272" lon="05.757357"><ele>34.5</ele><time>2021-05-01T14:47:38Z</time><name>PT5663</name></trkpt>
<trkpt lat="52.038266" lon="05.757357"><ele>34.2</ele><time>2021-05-01T14:47:39Z</time><name>PT5664</name></trkpt>
<trkpt lat="52.038263" lon="05.757355"><ele>34.1</ele><time>2021-05-01T14:47:40Z</time><name>PT5665</name></trkpt>
<trkpt lat="52.038262" lon="05.757362"><ele>34.1</ele><time>2021-05-01T14:47:41Z</time><name>PT5666</name></trkpt>
<trkpt lat="52.038254" lon="05.757361"><ele>34</ele><time>2021-05-01T14:47:42Z</time><name>PT5667</name></trkpt>
<trkpt lat="52.038237" lon="05.757359"><ele>34</ele><time>2021-05-01T14:47:43Z</time><name>PT5668</name></trkpt>
<trkpt lat="52.038220" lon="05.757359"><ele>34</ele><time>2021-05-01T14:47:44Z</time><name>PT5669</name></trkpt>
<trkpt lat="52.038209" lon="05.757358"><ele>34.1</ele><time>2021-05-01T14:47:45Z</time><name>PT5670</name></trkpt>
<trkpt lat="52.038208" lon="05.757360"><ele>34.1</ele><time>2021-05-01T14:47:46Z</time><name>PT5671</name></trkpt>
<trkpt lat="52.038208" lon="05.757359"><ele>34.1</ele><time>2021-05-01T14:47:47Z</time><name>PT5672</name></trkpt>
<trkpt lat="52.038207" lon="05.757358"><ele>34.1</ele><time>2021-05-01T14:47:48Z</time><name>PT5673</name></trkpt>
<trkpt lat="52.038192" lon="05.757372"><ele>34.3</ele><time>2021-05-01T14:47:49Z</time><name>PT5674</name></trkpt>
<trkpt lat="52.038178" lon="05.757382"><ele>34.4</ele><time>2021-05-01T14:47:50Z</time><name>PT5675</name></trkpt>
<trkpt lat="52.038168" lon="05.757379"><ele>34.6</ele><time>2021-05-01T14:47:51Z</time><name>PT5676</name></trkpt>
<trkpt lat="52.038156" lon="05.757372"><ele>34.6</ele><time>2021-05-01T14:47:52Z</time><name>PT5677</name></trkpt>
<trkpt lat="52.038142" lon="05.757379"><ele>34.6</ele><time>2021-05-01T14:47:53Z</time><name>PT5678</name></trkpt>
<trkpt lat="52.038121" lon="05.757374"><ele>34.6</ele><time>2021-05-01T14:47:54Z</time><name>PT5679</name></trkpt>
<trkpt lat="52.038105" lon="05.757367"><ele>34.5</ele><time>2021-05-01T14:47:55Z</time><name>PT5680</name></trkpt>
<trkpt lat="52.038097" lon="05.757369"><ele>34.6</ele><time>2021-05-01T14:47:56Z</time><name>PT5681</name></trkpt>
<trkpt lat="52.038092" lon="05.757366"><ele>34.5</ele><time>2021-05-01T14:47:57Z</time><name>PT5682</name></trkpt>
<trkpt lat="52.038080" lon="05.757368"><ele>34.5</ele><time>2021-05-01T14:47:58Z</time><name>PT5683</name></trkpt>
<trkpt lat="52.038066" lon="05.757383"><ele>34.4</ele><time>2021-05-01T14:47:59Z</time><name>PT5684</name></trkpt>
<trkpt lat="52.038052" lon="05.757395"><ele>34.3</ele><time>2021-05-01T14:48:00Z</time><name>PT5685</name></trkpt>
<trkpt lat="52.038048" lon="05.757395"><ele>34.2</ele><time>2021-05-01T14:48:01Z</time><name>PT5686</name></trkpt>
<trkpt lat="52.038043" lon="05.757393"><ele>34.5</ele><time>2021-05-01T14:48:02Z</time><name>PT5687</name></trkpt>
<trkpt lat="52.038033" lon="05.757397"><ele>34.6</ele><time>2021-05-01T14:48:03Z</time><name>PT5688</name></trkpt>
<trkpt lat="52.038023" lon="05.757390"><ele>34.6</ele><time>2021-05-01T14:48:04Z</time><name>PT5689</name></trkpt>
<trkpt lat="52.038015" lon="05.757381"><ele>34.7</ele><time>2021-05-01T14:48:05Z</time><name>PT5690</name></trkpt>
<trkpt lat="52.038013" lon="05.757377"><ele>34.9</ele><time>2021-05-01T14:48:06Z</time><name>PT5691</name></trkpt>
<trkpt lat="52.038011" lon="05.757372"><ele>34.9</ele><time>2021-05-01T14:48:07Z</time><name>PT5692</name></trkpt>
<trkpt lat="52.038008" lon="05.757359"><ele>34.8</ele><time>2021-05-01T14:48:08Z</time><name>PT5693</name></trkpt>
<trkpt lat="52.038007" lon="05.757339"><ele>35</ele><time>2021-05-01T14:48:09Z</time><name>PT5694</name></trkpt>
<trkpt lat="52.038006" lon="05.757327"><ele>35</ele><time>2021-05-01T14:48:10Z</time><name>PT5695</name></trkpt>
<trkpt lat="52.038004" lon="05.757321"><ele>34.9</ele><time>2021-05-01T14:48:11Z</time><name>PT5696</name></trkpt>
<trkpt lat="52.038001" lon="05.757316"><ele>34.7</ele><time>2021-05-01T14:48:12Z</time><name>PT5697</name></trkpt>
<trkpt lat="52.037988" lon="05.757310"><ele>34.6</ele><time>2021-05-01T14:48:13Z</time><name>PT5698</name></trkpt>
<trkpt lat="52.037976" lon="05.757295"><ele>34.6</ele><time>2021-05-01T14:48:14Z</time><name>PT5699</name></trkpt>
<trkpt lat="52.037967" lon="05.757280"><ele>34.6</ele><time>2021-05-01T14:48:15Z</time><name>PT5700</name></trkpt>
<trkpt lat="52.037963" lon="05.757273"><ele>34.6</ele><time>2021-05-01T14:48:16Z</time><name>PT5701</name></trkpt>
<trkpt lat="52.037958" lon="05.757268"><ele>34.7</ele><time>2021-05-01T14:48:17Z</time><name>PT5702</name></trkpt>
<trkpt lat="52.037956" lon="05.757254"><ele>35.1</ele><time>2021-05-01T14:48:18Z</time><name>PT5703</name></trkpt>
<trkpt lat="52.037951" lon="05.757229"><ele>35.1</ele><time>2021-05-01T14:48:19Z</time><name>PT5704</name></trkpt>
<trkpt lat="52.037950" lon="05.757199"><ele>35.1</ele><time>2021-05-01T14:48:20Z</time><name>PT5705</name></trkpt>
<trkpt lat="52.037955" lon="05.757181"><ele>35.1</ele><time>2021-05-01T14:48:21Z</time><name>PT5706</name></trkpt>
<trkpt lat="52.037960" lon="05.757170"><ele>35</ele><time>2021-05-01T14:48:22Z</time><name>PT5707</name></trkpt>
<trkpt lat="52.037960" lon="05.757164"><ele>34.9</ele><time>2021-05-01T14:48:23Z</time><name>PT5708</name></trkpt>
<trkpt lat="52.037962" lon="05.757165"><ele>34.8</ele><time>2021-05-01T14:48:24Z</time><name>PT5709</name></trkpt>
<trkpt lat="52.037963" lon="05.757157"><ele>34.6</ele><time>2021-05-01T14:48:25Z</time><name>PT5710</name></trkpt>
<trkpt lat="52.037969" lon="05.757133"><ele>34.7</ele><time>2021-05-01T14:48:26Z</time><name>PT5711</name></trkpt>
<trkpt lat="52.037976" lon="05.757103"><ele>34.8</ele><time>2021-05-01T14:48:27Z</time><name>PT5712</name></trkpt>
<trkpt lat="52.037984" lon="05.757071"><ele>34.6</ele><time>2021-05-01T14:48:28Z</time><name>PT5713</name></trkpt>
<trkpt lat="52.037990" lon="05.757057"><ele>34.6</ele><time>2021-05-01T14:48:29Z</time><name>PT5714</name></trkpt>
<trkpt lat="52.037991" lon="05.757056"><ele>34.7</ele><time>2021-05-01T14:48:30Z</time><name>PT5715</name></trkpt>
<trkpt lat="52.037996" lon="05.757056"><ele>34.6</ele><time>2021-05-01T14:48:31Z</time><name>PT5716</name></trkpt>
<trkpt lat="52.037998" lon="05.757045"><ele>34.7</ele><time>2021-05-01T14:48:33Z</time><name>PT5717</name></trkpt>
<trkpt lat="52.038011" lon="05.757024"><ele>34.7</ele><time>2021-05-01T14:48:33Z</time><name>PT5718</name></trkpt>
<trkpt lat="52.038028" lon="05.757002"><ele>34.6</ele><time>2021-05-01T14:48:34Z</time><name>PT5719</name></trkpt>
<trkpt lat="52.038043" lon="05.756985"><ele>34.6</ele><time>2021-05-01T14:48:35Z</time><name>PT5720</name></trkpt>
<trkpt lat="52.038051" lon="05.756973"><ele>34.6</ele><time>2021-05-01T14:48:36Z</time><name>PT5721</name></trkpt>
<trkpt lat="52.038055" lon="05.756970"><ele>34.4</ele><time>2021-05-01T14:48:37Z</time><name>PT5722</name></trkpt>
<trkpt lat="52.038059" lon="05.756966"><ele>34.4</ele><time>2021-05-01T14:48:38Z</time><name>PT5723</name></trkpt>
<trkpt lat="52.038065" lon="05.756962"><ele>34.5</ele><time>2021-05-01T14:48:39Z</time><name>PT5724</name></trkpt>
<trkpt lat="52.038075" lon="05.756947"><ele>34.5</ele><time>2021-05-01T14:48:41Z</time><name>PT5725</name></trkpt>
<trkpt lat="52.038092" lon="05.756932"><ele>34.5</ele><time>2021-05-01T14:48:41Z</time><name>PT5726</name></trkpt>
<trkpt lat="52.038105" lon="05.756918"><ele>34.4</ele><time>2021-05-01T14:48:43Z</time><name>PT5727</name></trkpt>
<trkpt lat="52.038115" lon="05.756908"><ele>34.6</ele><time>2021-05-01T14:48:43Z</time><name>PT5728</name></trkpt>
<trkpt lat="52.038121" lon="05.756895"><ele>34.5</ele><time>2021-05-01T14:48:44Z</time><name>PT5729</name></trkpt>
<trkpt lat="52.038124" lon="05.756886"><ele>34.5</ele><time>2021-05-01T14:48:45Z</time><name>PT5730</name></trkpt>
<trkpt lat="52.038125" lon="05.756873"><ele>34.6</ele><time>2021-05-01T14:48:46Z</time><name>PT5731</name></trkpt>
<trkpt lat="52.038131" lon="05.756864"><ele>34.8</ele><time>2021-05-01T14:48:47Z</time><name>PT5732</name></trkpt>
<trkpt lat="52.038137" lon="05.756845"><ele>34.7</ele><time>2021-05-01T14:48:48Z</time><name>PT5733</name></trkpt>
<trkpt lat="52.038148" lon="05.756818"><ele>34.8</ele><time>2021-05-01T14:48:49Z</time><name>PT5734</name></trkpt>
<trkpt lat="52.038157" lon="05.756793"><ele>34.8</ele><time>2021-05-01T14:48:50Z</time><name>PT5735</name></trkpt>
<trkpt lat="52.038162" lon="05.756774"><ele>34.6</ele><time>2021-05-01T14:48:51Z</time><name>PT5736</name></trkpt>
<trkpt lat="52.038163" lon="05.756769"><ele>34.6</ele><time>2021-05-01T14:48:53Z</time><name>PT5737</name></trkpt>
<trkpt lat="52.038165" lon="05.756765"><ele>34.6</ele><time>2021-05-01T14:48:53Z</time><name>PT5738</name></trkpt>
<trkpt lat="52.038166" lon="05.756755"><ele>34.6</ele><time>2021-05-01T14:48:54Z</time><name>PT5739</name></trkpt>
<trkpt lat="52.038171" lon="05.756739"><ele>34.6</ele><time>2021-05-01T14:48:55Z</time><name>PT5740</name></trkpt>
<trkpt lat="52.038176" lon="05.756713"><ele>34.6</ele><time>2021-05-01T14:48:56Z</time><name>PT5741</name></trkpt>
<trkpt lat="52.038184" lon="05.756693"><ele>34.6</ele><time>2021-05-01T14:48:57Z</time><name>PT5742</name></trkpt>
<trkpt lat="52.038187" lon="05.756680"><ele>34.6</ele><time>2021-05-01T14:48:58Z</time><name>PT5743</name></trkpt>
<trkpt lat="52.038186" lon="05.756670"><ele>34.5</ele><time>2021-05-01T14:48:59Z</time><name>PT5744</name></trkpt>
<trkpt lat="52.038184" lon="05.756660"><ele>34.5</ele><time>2021-05-01T14:49:00Z</time><name>PT5745</name></trkpt>
<trkpt lat="52.038185" lon="05.756637"><ele>34.5</ele><time>2021-05-01T14:49:01Z</time><name>PT5746</name></trkpt>
<trkpt lat="52.038184" lon="05.756616"><ele>34.6</ele><time>2021-05-01T14:49:03Z</time><name>PT5747</name></trkpt>
<trkpt lat="52.038181" lon="05.756592"><ele>34.6</ele><time>2021-05-01T14:49:03Z</time><name>PT5748</name></trkpt>
<trkpt lat="52.038175" lon="05.756569"><ele>34.5</ele><time>2021-05-01T14:49:04Z</time><name>PT5749</name></trkpt>
<trkpt lat="52.038170" lon="05.756554"><ele>34.6</ele><time>2021-05-01T14:49:05Z</time><name>PT5750</name></trkpt>
<trkpt lat="52.038167" lon="05.756552"><ele>34.6</ele><time>2021-05-01T14:49:06Z</time><name>PT5751</name></trkpt>
<trkpt lat="52.038164" lon="05.756547"><ele>34.7</ele><time>2021-05-01T14:49:07Z</time><name>PT5752</name></trkpt>
<trkpt lat="52.038157" lon="05.756531"><ele>34.7</ele><time>2021-05-01T14:49:08Z</time><name>PT5753</name></trkpt>
<trkpt lat="52.038146" lon="05.756505"><ele>34.8</ele><time>2021-05-01T14:49:09Z</time><name>PT5754</name></trkpt>
<trkpt lat="52.038146" lon="05.756480"><ele>34.6</ele><time>2021-05-01T14:49:10Z</time><name>PT5755</name></trkpt>
<trkpt lat="52.038150" lon="05.756453"><ele>34.7</ele><time>2021-05-01T14:49:11Z</time><name>PT5756</name></trkpt>
<trkpt lat="52.038153" lon="05.756431"><ele>34.6</ele><time>2021-05-01T14:49:12Z</time><name>PT5757</name></trkpt>
<trkpt lat="52.038153" lon="05.756421"><ele>34.8</ele><time>2021-05-01T14:49:13Z</time><name>PT5758</name></trkpt>
<trkpt lat="52.038154" lon="05.756422"><ele>34.9</ele><time>2021-05-01T14:49:14Z</time><name>PT5759</name></trkpt>
<trkpt lat="52.038150" lon="05.756415"><ele>35.1</ele><time>2021-05-01T14:49:15Z</time><name>PT5760</name></trkpt>
<trkpt lat="52.038142" lon="05.756399"><ele>35.1</ele><time>2021-05-01T14:49:16Z</time><name>PT5761</name></trkpt>
<trkpt lat="52.038140" lon="05.756375"><ele>35.2</ele><time>2021-05-01T14:49:17Z</time><name>PT5762</name></trkpt>
<trkpt lat="52.038134" lon="05.756352"><ele>35.1</ele><time>2021-05-01T14:49:18Z</time><name>PT5763</name></trkpt>
<trkpt lat="52.038133" lon="05.756334"><ele>35.1</ele><time>2021-05-01T14:49:19Z</time><name>PT5764</name></trkpt>
<trkpt lat="52.038131" lon="05.756322"><ele>35.1</ele><time>2021-05-01T14:49:20Z</time><name>PT5765</name></trkpt>
<trkpt lat="52.038132" lon="05.756312"><ele>35.1</ele><time>2021-05-01T14:49:21Z</time><name>PT5766</name></trkpt>
<trkpt lat="52.038134" lon="05.756301"><ele>35.3</ele><time>2021-05-01T14:49:22Z</time><name>PT5767</name></trkpt>
<trkpt lat="52.038131" lon="05.756282"><ele>35.3</ele><time>2021-05-01T14:49:23Z</time><name>PT5768</name></trkpt>
<trkpt lat="52.038126" lon="05.756257"><ele>35.4</ele><time>2021-05-01T14:49:24Z</time><name>PT5769</name></trkpt>
<trkpt lat="52.038126" lon="05.756228"><ele>35.3</ele><time>2021-05-01T14:49:25Z</time><name>PT5770</name></trkpt>
<trkpt lat="52.038127" lon="05.756207"><ele>35.2</ele><time>2021-05-01T14:49:26Z</time><name>PT5771</name></trkpt>
<trkpt lat="52.038124" lon="05.756200"><ele>35.1</ele><time>2021-05-01T14:49:27Z</time><name>PT5772</name></trkpt>
<trkpt lat="52.038122" lon="05.756193"><ele>35.1</ele><time>2021-05-01T14:49:28Z</time><name>PT5773</name></trkpt>
<trkpt lat="52.038117" lon="05.756185"><ele>35.1</ele><time>2021-05-01T14:49:29Z</time><name>PT5774</name></trkpt>
<trkpt lat="52.038114" lon="05.756181"><ele>35.3</ele><time>2021-05-01T14:49:30Z</time><name>PT5775</name></trkpt>
<trkpt lat="52.038114" lon="05.756153"><ele>35.4</ele><time>2021-05-01T14:49:31Z</time><name>PT5776</name></trkpt>
<trkpt lat="52.038121" lon="05.756126"><ele>35.3</ele><time>2021-05-01T14:49:32Z</time><name>PT5777</name></trkpt>
<trkpt lat="52.038122" lon="05.756110"><ele>35.2</ele><time>2021-05-01T14:49:33Z</time><name>PT5778</name></trkpt>
<trkpt lat="52.038122" lon="05.756103"><ele>35.3</ele><time>2021-05-01T14:49:34Z</time><name>PT5779</name></trkpt>
<trkpt lat="52.038123" lon="05.756095"><ele>35.3</ele><time>2021-05-01T14:49:35Z</time><name>PT5780</name></trkpt>
<trkpt lat="52.038109" lon="05.756075"><ele>35.2</ele><time>2021-05-01T14:49:36Z</time><name>PT5781</name></trkpt>
<trkpt lat="52.038103" lon="05.756047"><ele>35.2</ele><time>2021-05-01T14:49:37Z</time><name>PT5782</name></trkpt>
<trkpt lat="52.038099" lon="05.756010"><ele>35.5</ele><time>2021-05-01T14:49:38Z</time><name>PT5783</name></trkpt>
<trkpt lat="52.038097" lon="05.755978"><ele>35.5</ele><time>2021-05-01T14:49:39Z</time><name>PT5784</name></trkpt>
<trkpt lat="52.038095" lon="05.755952"><ele>35.5</ele><time>2021-05-01T14:49:40Z</time><name>PT5785</name></trkpt>
<trkpt lat="52.038094" lon="05.755930"><ele>35.5</ele><time>2021-05-01T14:49:41Z</time><name>PT5786</name></trkpt>
<trkpt lat="52.038089" lon="05.755921"><ele>35.6</ele><time>2021-05-01T14:49:42Z</time><name>PT5787</name></trkpt>
<trkpt lat="52.038084" lon="05.755915"><ele>35.6</ele><time>2021-05-01T14:49:43Z</time><name>PT5788</name></trkpt>
<trkpt lat="52.038071" lon="05.755894"><ele>35.5</ele><time>2021-05-01T14:49:44Z</time><name>PT5789</name></trkpt>
<trkpt lat="52.038066" lon="05.755866"><ele>35.6</ele><time>2021-05-01T14:49:45Z</time><name>PT5790</name></trkpt>
<trkpt lat="52.038055" lon="05.755841"><ele>35.8</ele><time>2021-05-01T14:49:46Z</time><name>PT5791</name></trkpt>
<trkpt lat="52.038044" lon="05.755819"><ele>35.8</ele><time>2021-05-01T14:49:47Z</time><name>PT5792</name></trkpt>
<trkpt lat="52.038035" lon="05.755807"><ele>35.8</ele><time>2021-05-01T14:49:48Z</time><name>PT5793</name></trkpt>
<trkpt lat="52.038030" lon="05.755801"><ele>35.7</ele><time>2021-05-01T14:49:49Z</time><name>PT5794</name></trkpt>
<trkpt lat="52.038027" lon="05.755797"><ele>35.6</ele><time>2021-05-01T14:49:50Z</time><name>PT5795</name></trkpt>
<trkpt lat="52.038028" lon="05.755781"><ele>35.6</ele><time>2021-05-01T14:49:51Z</time><name>PT5796</name></trkpt>
<trkpt lat="52.038025" lon="05.755765"><ele>35.6</ele><time>2021-05-01T14:49:52Z</time><name>PT5797</name></trkpt>
<trkpt lat="52.038016" lon="05.755745"><ele>35.6</ele><time>2021-05-01T14:49:53Z</time><name>PT5798</name></trkpt>
<trkpt lat="52.038011" lon="05.755729"><ele>35.7</ele><time>2021-05-01T14:49:54Z</time><name>PT5799</name></trkpt>
<trkpt lat="52.038009" lon="05.755719"><ele>35.8</ele><time>2021-05-01T14:49:55Z</time><name>PT5800</name></trkpt>
<trkpt lat="52.038009" lon="05.755716"><ele>35.8</ele><time>2021-05-01T14:49:56Z</time><name>PT5801</name></trkpt>
<trkpt lat="52.038006" lon="05.755707"><ele>35.8</ele><time>2021-05-01T14:49:57Z</time><name>PT5802</name></trkpt>
<trkpt lat="52.037995" lon="05.755700"><ele>35.8</ele><time>2021-05-01T14:49:58Z</time><name>PT5803</name></trkpt>
<trkpt lat="52.037986" lon="05.755682"><ele>35.8</ele><time>2021-05-01T14:49:59Z</time><name>PT5804</name></trkpt>
<trkpt lat="52.037979" lon="05.755664"><ele>35.6</ele><time>2021-05-01T14:50:00Z</time><name>PT5805</name></trkpt>
<trkpt lat="52.037980" lon="05.755660"><ele>35.6</ele><time>2021-05-01T14:50:01Z</time><name>PT5806</name></trkpt>
<trkpt lat="52.037978" lon="05.755660"><ele>35.6</ele><time>2021-05-01T14:50:02Z</time><name>PT5807</name></trkpt>
<trkpt lat="52.037976" lon="05.755649"><ele>35.8</ele><time>2021-05-01T14:50:03Z</time><name>PT5808</name></trkpt>
<trkpt lat="52.037977" lon="05.755636"><ele>35.9</ele><time>2021-05-01T14:50:04Z</time><name>PT5809</name></trkpt>
<trkpt lat="52.037980" lon="05.755615"><ele>35.8</ele><time>2021-05-01T14:50:05Z</time><name>PT5810</name></trkpt>
<trkpt lat="52.037979" lon="05.755614"><ele>35.6</ele><time>2021-05-01T14:50:06Z</time><name>PT5811</name></trkpt>
<trkpt lat="52.037978" lon="05.755607"><ele>35.8</ele><time>2021-05-01T14:50:07Z</time><name>PT5812</name></trkpt>
<trkpt lat="52.037978" lon="05.755601"><ele>35.7</ele><time>2021-05-01T14:50:08Z</time><name>PT5813</name></trkpt>
<trkpt lat="52.037975" lon="05.755590"><ele>35.6</ele><time>2021-05-01T14:50:09Z</time><name>PT5814</name></trkpt>
<trkpt lat="52.037977" lon="05.755567"><ele>35.8</ele><time>2021-05-01T14:50:10Z</time><name>PT5815</name></trkpt>
<trkpt lat="52.037978" lon="05.755533"><ele>35.7</ele><time>2021-05-01T14:50:11Z</time><name>PT5816</name></trkpt>
<trkpt lat="52.037979" lon="05.755515"><ele>35.7</ele><time>2021-05-01T14:50:12Z</time><name>PT5817</name></trkpt>
<trkpt lat="52.037976" lon="05.755507"><ele>36</ele><time>2021-05-01T14:50:13Z</time><name>PT5818</name></trkpt>
<trkpt lat="52.037974" lon="05.755507"><ele>36.1</ele><time>2021-05-01T14:50:14Z</time><name>PT5819</name></trkpt>
<trkpt lat="52.037974" lon="05.755499"><ele>36.1</ele><time>2021-05-01T14:50:15Z</time><name>PT5820</name></trkpt>
<trkpt lat="52.037974" lon="05.755482"><ele>36.3</ele><time>2021-05-01T14:50:16Z</time><name>PT5821</name></trkpt>
<trkpt lat="52.037977" lon="05.755448"><ele>36.1</ele><time>2021-05-01T14:50:17Z</time><name>PT5822</name></trkpt>
<trkpt lat="52.037975" lon="05.755415"><ele>36.1</ele><time>2021-05-01T14:50:18Z</time><name>PT5823</name></trkpt>
<trkpt lat="52.037973" lon="05.755396"><ele>36.1</ele><time>2021-05-01T14:50:19Z</time><name>PT5824</name></trkpt>
<trkpt lat="52.037971" lon="05.755389"><ele>35.7</ele><time>2021-05-01T14:50:20Z</time><name>PT5825</name></trkpt>
<trkpt lat="52.037969" lon="05.755383"><ele>35.9</ele><time>2021-05-01T14:50:21Z</time><name>PT5826</name></trkpt>
<trkpt lat="52.037966" lon="05.755372"><ele>35.6</ele><time>2021-05-01T14:50:22Z</time><name>PT5827</name></trkpt>
<trkpt lat="52.037964" lon="05.755342"><ele>35.7</ele><time>2021-05-01T14:50:23Z</time><name>PT5828</name></trkpt>
<trkpt lat="52.037961" lon="05.755309"><ele>36.1</ele><time>2021-05-01T14:50:24Z</time><name>PT5829</name></trkpt>
<trkpt lat="52.037962" lon="05.755276"><ele>35.9</ele><time>2021-05-01T14:50:25Z</time><name>PT5830</name></trkpt>
<trkpt lat="52.037961" lon="05.755247"><ele>35.9</ele><time>2021-05-01T14:50:26Z</time><name>PT5831</name></trkpt>
<trkpt lat="52.037955" lon="05.755235"><ele>36.1</ele><time>2021-05-01T14:50:27Z</time><name>PT5832</name></trkpt>
<trkpt lat="52.037951" lon="05.755227"><ele>36.1</ele><time>2021-05-01T14:50:28Z</time><name>PT5833</name></trkpt>
<trkpt lat="52.037948" lon="05.755223"><ele>36.1</ele><time>2021-05-01T14:50:29Z</time><name>PT5834</name></trkpt>
<trkpt lat="52.037941" lon="05.755208"><ele>36.1</ele><time>2021-05-01T14:50:30Z</time><name>PT5835</name></trkpt>
<trkpt lat="52.037942" lon="05.755189"><ele>36</ele><time>2021-05-01T14:50:31Z</time><name>PT5836</name></trkpt>
<trkpt lat="52.037938" lon="05.755161"><ele>36.1</ele><time>2021-05-01T14:50:32Z</time><name>PT5837</name></trkpt>
<trkpt lat="52.037931" lon="05.755133"><ele>36</ele><time>2021-05-01T14:50:33Z</time><name>PT5838</name></trkpt>
<trkpt lat="52.037925" lon="05.755121"><ele>36.1</ele><time>2021-05-01T14:50:34Z</time><name>PT5839</name></trkpt>
<trkpt lat="52.037918" lon="05.755122"><ele>36.2</ele><time>2021-05-01T14:50:35Z</time><name>PT5840</name></trkpt>
<trkpt lat="52.037914" lon="05.755125"><ele>36.3</ele><time>2021-05-01T14:50:36Z</time><name>PT5841</name></trkpt>
<trkpt lat="52.037910" lon="05.755116"><ele>36.4</ele><time>2021-05-01T14:50:37Z</time><name>PT5842</name></trkpt>
<trkpt lat="52.037912" lon="05.755088"><ele>36.5</ele><time>2021-05-01T14:50:38Z</time><name>PT5843</name></trkpt>
<trkpt lat="52.037905" lon="05.755055"><ele>36.4</ele><time>2021-05-01T14:50:39Z</time><name>PT5844</name></trkpt>
<trkpt lat="52.037900" lon="05.755025"><ele>36.1</ele><time>2021-05-01T14:50:40Z</time><name>PT5845</name></trkpt>
<trkpt lat="52.037896" lon="05.755012"><ele>36</ele><time>2021-05-01T14:50:41Z</time><name>PT5846</name></trkpt>
<trkpt lat="52.037890" lon="05.755007"><ele>35.9</ele><time>2021-05-01T14:50:42Z</time><name>PT5847</name></trkpt>
<trkpt lat="52.037887" lon="05.755003"><ele>35.9</ele><time>2021-05-01T14:50:43Z</time><name>PT5848</name></trkpt>
<trkpt lat="52.037882" lon="05.754981"><ele>36.1</ele><time>2021-05-01T14:50:44Z</time><name>PT5849</name></trkpt>
<trkpt lat="52.037876" lon="05.754949"><ele>36.1</ele><time>2021-05-01T14:50:45Z</time><name>PT5850</name></trkpt>
<trkpt lat="52.037863" lon="05.754925"><ele>36.2</ele><time>2021-05-01T14:50:46Z</time><name>PT5851</name></trkpt>
<trkpt lat="52.037857" lon="05.754898"><ele>36.2</ele><time>2021-05-01T14:50:47Z</time><name>PT5852</name></trkpt>
<trkpt lat="52.037854" lon="05.754880"><ele>36.3</ele><time>2021-05-01T14:50:48Z</time><name>PT5853</name></trkpt>
<trkpt lat="52.037852" lon="05.754878"><ele>36.4</ele><time>2021-05-01T14:50:49Z</time><name>PT5854</name></trkpt>
<trkpt lat="52.037851" lon="05.754875"><ele>36.4</ele><time>2021-05-01T14:50:50Z</time><name>PT5855</name></trkpt>
<trkpt lat="52.037846" lon="05.754872"><ele>36.5</ele><time>2021-05-01T14:50:51Z</time><name>PT5856</name></trkpt>
<trkpt lat="52.037828" lon="05.754844"><ele>36.4</ele><time>2021-05-01T14:50:52Z</time><name>PT5857</name></trkpt>
<trkpt lat="52.037811" lon="05.754822"><ele>36.5</ele><time>2021-05-01T14:50:53Z</time><name>PT5858</name></trkpt>
<trkpt lat="52.037799" lon="05.754808"><ele>36.1</ele><time>2021-05-01T14:50:54Z</time><name>PT5859</name></trkpt>
<trkpt lat="52.037793" lon="05.754805"><ele>36</ele><time>2021-05-01T14:50:55Z</time><name>PT5860</name></trkpt>
<trkpt lat="52.037788" lon="05.754798"><ele>36</ele><time>2021-05-01T14:50:56Z</time><name>PT5861</name></trkpt>
<trkpt lat="52.037785" lon="05.754790"><ele>36</ele><time>2021-05-01T14:50:57Z</time><name>PT5862</name></trkpt>
<trkpt lat="52.037784" lon="05.754785"><ele>36.1</ele><time>2021-05-01T14:50:58Z</time><name>PT5863</name></trkpt>
<trkpt lat="52.037768" lon="05.754778"><ele>36.1</ele><time>2021-05-01T14:50:59Z</time><name>PT5864</name></trkpt>
<trkpt lat="52.037752" lon="05.754763"><ele>36.1</ele><time>2021-05-01T14:51:00Z</time><name>PT5865</name></trkpt>
<trkpt lat="52.037734" lon="05.754732"><ele>36</ele><time>2021-05-01T14:51:01Z</time><name>PT5866</name></trkpt>
<trkpt lat="52.037719" lon="05.754708"><ele>36.1</ele><time>2021-05-01T14:51:02Z</time><name>PT5867</name></trkpt>
<trkpt lat="52.037708" lon="05.754697"><ele>36.1</ele><time>2021-05-01T14:51:03Z</time><name>PT5868</name></trkpt>
<trkpt lat="52.037700" lon="05.754684"><ele>36.1</ele><time>2021-05-01T14:51:04Z</time><name>PT5869</name></trkpt>
<trkpt lat="52.037698" lon="05.754675"><ele>36.1</ele><time>2021-05-01T14:51:05Z</time><name>PT5870</name></trkpt>
<trkpt lat="52.037691" lon="05.754663"><ele>36</ele><time>2021-05-01T14:51:06Z</time><name>PT5871</name></trkpt>
<trkpt lat="52.037686" lon="05.754638"><ele>36</ele><time>2021-05-01T14:51:07Z</time><name>PT5872</name></trkpt>
<trkpt lat="52.037683" lon="05.754621"><ele>36</ele><time>2021-05-01T14:51:08Z</time><name>PT5873</name></trkpt>
<trkpt lat="52.037678" lon="05.754611"><ele>36.1</ele><time>2021-05-01T14:51:09Z</time><name>PT5874</name></trkpt>
<trkpt lat="52.037674" lon="05.754601"><ele>36.2</ele><time>2021-05-01T14:51:10Z</time><name>PT5875</name></trkpt>
<trkpt lat="52.037673" lon="05.754599"><ele>36.3</ele><time>2021-05-01T14:51:11Z</time><name>PT5876</name></trkpt>
<trkpt lat="52.037673" lon="05.754588"><ele>36.4</ele><time>2021-05-01T14:51:12Z</time><name>PT5877</name></trkpt>
<trkpt lat="52.037676" lon="05.754561"><ele>36.4</ele><time>2021-05-01T14:51:13Z</time><name>PT5878</name></trkpt>
<trkpt lat="52.037676" lon="05.754536"><ele>36.1</ele><time>2021-05-01T14:51:14Z</time><name>PT5879</name></trkpt>
<trkpt lat="52.037676" lon="05.754523"><ele>36.1</ele><time>2021-05-01T14:51:15Z</time><name>PT5880</name></trkpt>
<trkpt lat="52.037675" lon="05.754521"><ele>36</ele><time>2021-05-01T14:51:16Z</time><name>PT5881</name></trkpt>
<trkpt lat="52.037671" lon="05.754522"><ele>36</ele><time>2021-05-01T14:51:17Z</time><name>PT5882</name></trkpt>
<trkpt lat="52.037671" lon="05.754508"><ele>36</ele><time>2021-05-01T14:51:18Z</time><name>PT5883</name></trkpt>
<trkpt lat="52.037675" lon="05.754481"><ele>36</ele><time>2021-05-01T14:51:19Z</time><name>PT5884</name></trkpt>
<trkpt lat="52.037680" lon="05.754449"><ele>35.9</ele><time>2021-05-01T14:51:20Z</time><name>PT5885</name></trkpt>
<trkpt lat="52.037680" lon="05.754425"><ele>35.9</ele><time>2021-05-01T14:51:21Z</time><name>PT5886</name></trkpt>
<trkpt lat="52.037682" lon="05.754415"><ele>36</ele><time>2021-05-01T14:51:22Z</time><name>PT5887</name></trkpt>
<trkpt lat="52.037680" lon="05.754412"><ele>36</ele><time>2021-05-01T14:51:23Z</time><name>PT5888</name></trkpt>
<trkpt lat="52.037680" lon="05.754412"><ele>36.1</ele><time>2021-05-01T14:51:24Z</time><name>PT5889</name></trkpt>
<trkpt lat="52.037682" lon="05.754403"><ele>36.1</ele><time>2021-05-01T14:51:25Z</time><name>PT5890</name></trkpt>
<trkpt lat="52.037678" lon="05.754378"><ele>36.1</ele><time>2021-05-01T14:51:26Z</time><name>PT5891</name></trkpt>
<trkpt lat="52.037679" lon="05.754349"><ele>36.1</ele><time>2021-05-01T14:51:27Z</time><name>PT5892</name></trkpt>
<trkpt lat="52.037682" lon="05.754324"><ele>36</ele><time>2021-05-01T14:51:28Z</time><name>PT5893</name></trkpt>
<trkpt lat="52.037681" lon="05.754309"><ele>36.1</ele><time>2021-05-01T14:51:29Z</time><name>PT5894</name></trkpt>
<trkpt lat="52.037678" lon="05.754296"><ele>36.3</ele><time>2021-05-01T14:51:30Z</time><name>PT5895</name></trkpt>
<trkpt lat="52.037673" lon="05.754294"><ele>36.3</ele><time>2021-05-01T14:51:31Z</time><name>PT5896</name></trkpt>
<trkpt lat="52.037667" lon="05.754286"><ele>36.5</ele><time>2021-05-01T14:51:32Z</time><name>PT5897</name></trkpt>
<trkpt lat="52.037669" lon="05.754267"><ele>36.4</ele><time>2021-05-01T14:51:33Z</time><name>PT5898</name></trkpt>
<trkpt lat="52.037677" lon="05.754240"><ele>36.3</ele><time>2021-05-01T14:51:34Z</time><name>PT5899</name></trkpt>
<trkpt lat="52.037687" lon="05.754219"><ele>36.3</ele><time>2021-05-01T14:51:35Z</time><name>PT5900</name></trkpt>
<trkpt lat="52.037689" lon="05.754209"><ele>36.3</ele><time>2021-05-01T14:51:36Z</time><name>PT5901</name></trkpt>
<trkpt lat="52.037686" lon="05.754203"><ele>36.4</ele><time>2021-05-01T14:51:37Z</time><name>PT5902</name></trkpt>
<trkpt lat="52.037688" lon="05.754199"><ele>36.4</ele><time>2021-05-01T14:51:38Z</time><name>PT5903</name></trkpt>
<trkpt lat="52.037691" lon="05.754185"><ele>36.4</ele><time>2021-05-01T14:51:39Z</time><name>PT5904</name></trkpt>
<trkpt lat="52.037693" lon="05.754149"><ele>36.2</ele><time>2021-05-01T14:51:40Z</time><name>PT5905</name></trkpt>
<trkpt lat="52.037703" lon="05.754127"><ele>36.1</ele><time>2021-05-01T14:51:41Z</time><name>PT5906</name></trkpt>
<trkpt lat="52.037706" lon="05.754110"><ele>36</ele><time>2021-05-01T14:51:42Z</time><name>PT5907</name></trkpt>
<trkpt lat="52.037709" lon="05.754104"><ele>36</ele><time>2021-05-01T14:51:43Z</time><name>PT5908</name></trkpt>
<trkpt lat="52.037707" lon="05.754102"><ele>36.1</ele><time>2021-05-01T14:51:44Z</time><name>PT5909</name></trkpt>
<trkpt lat="52.037702" lon="05.754089"><ele>36.3</ele><time>2021-05-01T14:51:45Z</time><name>PT5910</name></trkpt>
<trkpt lat="52.037706" lon="05.754065"><ele>36.4</ele><time>2021-05-01T14:51:46Z</time><name>PT5911</name></trkpt>
<trkpt lat="52.037703" lon="05.754032"><ele>36.4</ele><time>2021-05-01T14:51:47Z</time><name>PT5912</name></trkpt>
<trkpt lat="52.037699" lon="05.753997"><ele>36.2</ele><time>2021-05-01T14:51:48Z</time><name>PT5913</name></trkpt>
<trkpt lat="52.037695" lon="05.753977"><ele>36.1</ele><time>2021-05-01T14:51:49Z</time><name>PT5914</name></trkpt>
<trkpt lat="52.037692" lon="05.753971"><ele>36.1</ele><time>2021-05-01T14:51:50Z</time><name>PT5915</name></trkpt>
<trkpt lat="52.037688" lon="05.753964"><ele>36.1</ele><time>2021-05-01T14:51:51Z</time><name>PT5916</name></trkpt>
<trkpt lat="52.037676" lon="05.753953"><ele>36</ele><time>2021-05-01T14:51:52Z</time><name>PT5917</name></trkpt>
<trkpt lat="52.037670" lon="05.753924"><ele>36.2</ele><time>2021-05-01T14:51:53Z</time><name>PT5918</name></trkpt>
<trkpt lat="52.037669" lon="05.753897"><ele>36.2</ele><time>2021-05-01T14:51:54Z</time><name>PT5919</name></trkpt>
<trkpt lat="52.037668" lon="05.753877"><ele>36.3</ele><time>2021-05-01T14:51:55Z</time><name>PT5920</name></trkpt>
<trkpt lat="52.037671" lon="05.753869"><ele>36.2</ele><time>2021-05-01T14:51:56Z</time><name>PT5921</name></trkpt>
<trkpt lat="52.037671" lon="05.753860"><ele>36.1</ele><time>2021-05-01T14:51:57Z</time><name>PT5922</name></trkpt>
<trkpt lat="52.037674" lon="05.753864"><ele>36.1</ele><time>2021-05-01T14:51:58Z</time><name>PT5923</name></trkpt>
<trkpt lat="52.037675" lon="05.753861"><ele>36.1</ele><time>2021-05-01T14:51:59Z</time><name>PT5924</name></trkpt>
<trkpt lat="52.037668" lon="05.753841"><ele>36.2</ele><time>2021-05-01T14:52:00Z</time><name>PT5925</name></trkpt>
<trkpt lat="52.037669" lon="05.753822"><ele>36.1</ele><time>2021-05-01T14:52:01Z</time><name>PT5926</name></trkpt>
<trkpt lat="52.037667" lon="05.753809"><ele>36</ele><time>2021-05-01T14:52:02Z</time><name>PT5927</name></trkpt>
<trkpt lat="52.037654" lon="05.753787"><ele>36.1</ele><time>2021-05-01T14:52:03Z</time><name>PT5928</name></trkpt>
<trkpt lat="52.037649" lon="05.753770"><ele>36.1</ele><time>2021-05-01T14:52:04Z</time><name>PT5929</name></trkpt>
<trkpt lat="52.037646" lon="05.753757"><ele>35.9</ele><time>2021-05-01T14:52:05Z</time><name>PT5930</name></trkpt>
<trkpt lat="52.037648" lon="05.753751"><ele>36.2</ele><time>2021-05-01T14:52:06Z</time><name>PT5931</name></trkpt>
<trkpt lat="52.037646" lon="05.753743"><ele>36.3</ele><time>2021-05-01T14:52:07Z</time><name>PT5932</name></trkpt>
<trkpt lat="52.037640" lon="05.753739"><ele>36.5</ele><time>2021-05-01T14:52:08Z</time><name>PT5933</name></trkpt>
<trkpt lat="52.037642" lon="05.753727"><ele>36.5</ele><time>2021-05-01T14:52:09Z</time><name>PT5934</name></trkpt>
<trkpt lat="52.037638" lon="05.753713"><ele>36.5</ele><time>2021-05-01T14:52:10Z</time><name>PT5935</name></trkpt>
<trkpt lat="52.037639" lon="05.753710"><ele>36.6</ele><time>2021-05-01T14:52:11Z</time><name>PT5936</name></trkpt>
<trkpt lat="52.037637" lon="05.753711"><ele>36.5</ele><time>2021-05-01T14:52:12Z</time><name>PT5937</name></trkpt>
<trkpt lat="52.037636" lon="05.753707"><ele>36.5</ele><time>2021-05-01T14:52:13Z</time><name>PT5938</name></trkpt>
<trkpt lat="52.037632" lon="05.753695"><ele>36.5</ele><time>2021-05-01T14:52:14Z</time><name>PT5939</name></trkpt>
<trkpt lat="52.037631" lon="05.753679"><ele>36.5</ele><time>2021-05-01T14:52:15Z</time><name>PT5940</name></trkpt>
<trkpt lat="52.037630" lon="05.753666"><ele>36.2</ele><time>2021-05-01T14:52:16Z</time><name>PT5941</name></trkpt>
<trkpt lat="52.037628" lon="05.753649"><ele>36.3</ele><time>2021-05-01T14:52:17Z</time><name>PT5942</name></trkpt>
<trkpt lat="52.037632" lon="05.753631"><ele>36.5</ele><time>2021-05-01T14:52:18Z</time><name>PT5943</name></trkpt>
<trkpt lat="52.037639" lon="05.753613"><ele>36.3</ele><time>2021-05-01T14:52:19Z</time><name>PT5944</name></trkpt>
<trkpt lat="52.037646" lon="05.753594"><ele>36.6</ele><time>2021-05-01T14:52:20Z</time><name>PT5945</name></trkpt>
<trkpt lat="52.037648" lon="05.753582"><ele>36.6</ele><time>2021-05-01T14:52:21Z</time><name>PT5946</name></trkpt>
<trkpt lat="52.037649" lon="05.753574"><ele>36.6</ele><time>2021-05-01T14:52:22Z</time><name>PT5947</name></trkpt>
<trkpt lat="52.037645" lon="05.753559"><ele>36.6</ele><time>2021-05-01T14:52:23Z</time><name>PT5948</name></trkpt>
<trkpt lat="52.037646" lon="05.753538"><ele>36.6</ele><time>2021-05-01T14:52:24Z</time><name>PT5949</name></trkpt>
<trkpt lat="52.037641" lon="05.753524"><ele>36.6</ele><time>2021-05-01T14:52:25Z</time><name>PT5950</name></trkpt>
<trkpt lat="52.037638" lon="05.753518"><ele>36.7</ele><time>2021-05-01T14:52:26Z</time><name>PT5951</name></trkpt>
<trkpt lat="52.037633" lon="05.753508"><ele>37</ele><time>2021-05-01T14:52:27Z</time><name>PT5952</name></trkpt>
<trkpt lat="52.037632" lon="05.753489"><ele>37</ele><time>2021-05-01T14:52:28Z</time><name>PT5953</name></trkpt>
<trkpt lat="52.037626" lon="05.753460"><ele>37.1</ele><time>2021-05-01T14:52:29Z</time><name>PT5954</name></trkpt>
<trkpt lat="52.037623" lon="05.753434"><ele>37.1</ele><time>2021-05-01T14:52:30Z</time><name>PT5955</name></trkpt>
<trkpt lat="52.037623" lon="05.753420"><ele>37</ele><time>2021-05-01T14:52:31Z</time><name>PT5956</name></trkpt>
<trkpt lat="52.037626" lon="05.753414"><ele>37</ele><time>2021-05-01T14:52:32Z</time><name>PT5957</name></trkpt>
<trkpt lat="52.037618" lon="05.753405"><ele>36.7</ele><time>2021-05-01T14:52:34Z</time><name>PT5958</name></trkpt>
<trkpt lat="52.037608" lon="05.753391"><ele>36.8</ele><time>2021-05-01T14:52:35Z</time><name>PT5959</name></trkpt>
<trkpt lat="52.037600" lon="05.753366"><ele>36.9</ele><time>2021-05-01T14:52:36Z</time><name>PT5960</name></trkpt>
<trkpt lat="52.037583" lon="05.753337"><ele>37</ele><time>2021-05-01T14:52:37Z</time><name>PT5961</name></trkpt>
<trkpt lat="52.037573" lon="05.753311"><ele>36.7</ele><time>2021-05-01T14:52:38Z</time><name>PT5962</name></trkpt>
<trkpt lat="52.037570" lon="05.753301"><ele>36.6</ele><time>2021-05-01T14:52:39Z</time><name>PT5963</name></trkpt>
<trkpt lat="52.037566" lon="05.753287"><ele>36.6</ele><time>2021-05-01T14:52:40Z</time><name>PT5964</name></trkpt>
<trkpt lat="52.037563" lon="05.753272"><ele>36.8</ele><time>2021-05-01T14:52:41Z</time><name>PT5965</name></trkpt>
<trkpt lat="52.037561" lon="05.753267"><ele>37</ele><time>2021-05-01T14:52:42Z</time><name>PT5966</name></trkpt>
<trkpt lat="52.037554" lon="05.753251"><ele>37.2</ele><time>2021-05-01T14:52:43Z</time><name>PT5967</name></trkpt>
<trkpt lat="52.037543" lon="05.753227"><ele>37</ele><time>2021-05-01T14:52:44Z</time><name>PT5968</name></trkpt>
<trkpt lat="52.037538" lon="05.753208"><ele>37</ele><time>2021-05-01T14:52:45Z</time><name>PT5969</name></trkpt>
<trkpt lat="52.037541" lon="05.753197"><ele>37</ele><time>2021-05-01T14:52:46Z</time><name>PT5970</name></trkpt>
<trkpt lat="52.037538" lon="05.753187"><ele>37</ele><time>2021-05-01T14:52:47Z</time><name>PT5971</name></trkpt>
<trkpt lat="52.037535" lon="05.753181"><ele>36.9</ele><time>2021-05-01T14:52:48Z</time><name>PT5972</name></trkpt>
<trkpt lat="52.037526" lon="05.753171"><ele>36.8</ele><time>2021-05-01T14:52:49Z</time><name>PT5973</name></trkpt>
<trkpt lat="52.037510" lon="05.753139"><ele>36.7</ele><time>2021-05-01T14:52:50Z</time><name>PT5974</name></trkpt>
<trkpt lat="52.037500" lon="05.753101"><ele>36.7</ele><time>2021-05-01T14:52:51Z</time><name>PT5975</name></trkpt>
<trkpt lat="52.037486" lon="05.753067"><ele>36.9</ele><time>2021-05-01T14:52:52Z</time><name>PT5976</name></trkpt>
<trkpt lat="52.037476" lon="05.753041"><ele>37</ele><time>2021-05-01T14:52:53Z</time><name>PT5977</name></trkpt>
<trkpt lat="52.037471" lon="05.753025"><ele>37.3</ele><time>2021-05-01T14:52:54Z</time><name>PT5978</name></trkpt>
<trkpt lat="52.037471" lon="05.753019"><ele>37.2</ele><time>2021-05-01T14:52:55Z</time><name>PT5979</name></trkpt>
<trkpt lat="52.037465" lon="05.753020"><ele>37.3</ele><time>2021-05-01T14:52:56Z</time><name>PT5980</name></trkpt>
<trkpt lat="52.037455" lon="05.753009"><ele>37.2</ele><time>2021-05-01T14:52:57Z</time><name>PT5981</name></trkpt>
<trkpt lat="52.037447" lon="05.753000"><ele>37.3</ele><time>2021-05-01T14:52:58Z</time><name>PT5982</name></trkpt>
<trkpt lat="52.037440" lon="05.752984"><ele>37.3</ele><time>2021-05-01T14:52:59Z</time><name>PT5983</name></trkpt>
<trkpt lat="52.037432" lon="05.752966"><ele>37.1</ele><time>2021-05-01T14:53:00Z</time><name>PT5984</name></trkpt>
<trkpt lat="52.037426" lon="05.752950"><ele>37.1</ele><time>2021-05-01T14:53:01Z</time><name>PT5985</name></trkpt>
<trkpt lat="52.037423" lon="05.752934"><ele>37</ele><time>2021-05-01T14:53:03Z</time><name>PT5986</name></trkpt>
<trkpt lat="52.037417" lon="05.752921"><ele>37.1</ele><time>2021-05-01T14:53:03Z</time><name>PT5987</name></trkpt>
<trkpt lat="52.037411" lon="05.752906"><ele>37.1</ele><time>2021-05-01T14:53:04Z</time><name>PT5988</name></trkpt>
<trkpt lat="52.037404" lon="05.752891"><ele>37.2</ele><time>2021-05-01T14:53:05Z</time><name>PT5989</name></trkpt>
<trkpt lat="52.037395" lon="05.752872"><ele>37</ele><time>2021-05-01T14:53:06Z</time><name>PT5990</name></trkpt>
<trkpt lat="52.037390" lon="05.752853"><ele>37</ele><time>2021-05-01T14:53:07Z</time><name>PT5991</name></trkpt>
<trkpt lat="52.037386" lon="05.752835"><ele>36.9</ele><time>2021-05-01T14:53:09Z</time><name>PT5992</name></trkpt>
<trkpt lat="52.037383" lon="05.752820"><ele>36.8</ele><time>2021-05-01T14:53:09Z</time><name>PT5993</name></trkpt>
<trkpt lat="52.037380" lon="05.752806"><ele>36.8</ele><time>2021-05-01T14:53:10Z</time><name>PT5994</name></trkpt>
<trkpt lat="52.037372" lon="05.752795"><ele>36.9</ele><time>2021-05-01T14:53:11Z</time><name>PT5995</name></trkpt>
<trkpt lat="52.037367" lon="05.752784"><ele>36.9</ele><time>2021-05-01T14:53:12Z</time><name>PT5996</name></trkpt>
<trkpt lat="52.037364" lon="05.752776"><ele>37</ele><time>2021-05-01T14:53:13Z</time><name>PT5997</name></trkpt>
<trkpt lat="52.037364" lon="05.752762"><ele>37.4</ele><time>2021-05-01T14:53:14Z</time><name>PT5998</name></trkpt>
<trkpt lat="52.037367" lon="05.752752"><ele>37.4</ele><time>2021-05-01T14:53:15Z</time><name>PT5999</name></trkpt>
<trkpt lat="52.037367" lon="05.752736"><ele>37.4</ele><time>2021-05-01T14:53:16Z</time><name>PT6000</name></trkpt>
<trkpt lat="52.037366" lon="05.752717"><ele>37.5</ele><time>2021-05-01T14:53:17Z</time><name>PT6001</name></trkpt>
<trkpt lat="52.037365" lon="05.752713"><ele>37</ele><time>2021-05-01T14:53:18Z</time><name>PT6002</name></trkpt>
<trkpt lat="52.037369" lon="05.752703"><ele>36.8</ele><time>2021-05-01T14:53:19Z</time><name>PT6003</name></trkpt>
<trkpt lat="52.037370" lon="05.752697"><ele>36.7</ele><time>2021-05-01T14:53:20Z</time><name>PT6004</name></trkpt>
<trkpt lat="52.037372" lon="05.752687"><ele>36.7</ele><time>2021-05-01T14:53:21Z</time><name>PT6005</name></trkpt>
<trkpt lat="52.037367" lon="05.752673"><ele>36.6</ele><time>2021-05-01T14:53:22Z</time><name>PT6006</name></trkpt>
<trkpt lat="52.037365" lon="05.752653"><ele>36.6</ele><time>2021-05-01T14:53:23Z</time><name>PT6007</name></trkpt>
<trkpt lat="52.037366" lon="05.752632"><ele>36.5</ele><time>2021-05-01T14:53:24Z</time><name>PT6008</name></trkpt>
<trkpt lat="52.037366" lon="05.752615"><ele>36.5</ele><time>2021-05-01T14:53:25Z</time><name>PT6009</name></trkpt>
<trkpt lat="52.037363" lon="05.752597"><ele>36.4</ele><time>2021-05-01T14:53:27Z</time><name>PT6010</name></trkpt>
<trkpt lat="52.037359" lon="05.752592"><ele>36.1</ele><time>2021-05-01T14:53:27Z</time><name>PT6011</name></trkpt>
<trkpt lat="52.037355" lon="05.752585"><ele>36.2</ele><time>2021-05-01T14:53:29Z</time><name>PT6012</name></trkpt>
<trkpt lat="52.037353" lon="05.752580"><ele>36.1</ele><time>2021-05-01T14:53:29Z</time><name>PT6013</name></trkpt>
<trkpt lat="52.037348" lon="05.752559"><ele>36.2</ele><time>2021-05-01T14:53:31Z</time><name>PT6014</name></trkpt>
<trkpt lat="52.037346" lon="05.752537"><ele>36.5</ele><time>2021-05-01T14:53:31Z</time><name>PT6015</name></trkpt>
<trkpt lat="52.037337" lon="05.752517"><ele>36.8</ele><time>2021-05-01T14:53:32Z</time><name>PT6016</name></trkpt>
<trkpt lat="52.037331" lon="05.752501"><ele>37</ele><time>2021-05-01T14:53:33Z</time><name>PT6017</name></trkpt>
<trkpt lat="52.037331" lon="05.752490"><ele>37</ele><time>2021-05-01T14:53:34Z</time><name>PT6018</name></trkpt>
<trkpt lat="52.037325" lon="05.752477"><ele>37</ele><time>2021-05-01T14:53:35Z</time><name>PT6019</name></trkpt>
<trkpt lat="52.037327" lon="05.752472"><ele>36.9</ele><time>2021-05-01T14:53:36Z</time><name>PT6020</name></trkpt>
<trkpt lat="52.037325" lon="05.752461"><ele>36.6</ele><time>2021-05-01T14:53:37Z</time><name>PT6021</name></trkpt>
<trkpt lat="52.037324" lon="05.752436"><ele>36.5</ele><time>2021-05-01T14:53:38Z</time><name>PT6022</name></trkpt>
<trkpt lat="52.037325" lon="05.752397"><ele>36.5</ele><time>2021-05-01T14:53:39Z</time><name>PT6023</name></trkpt>
<trkpt lat="52.037329" lon="05.752364"><ele>36.3</ele><time>2021-05-01T14:53:40Z</time><name>PT6024</name></trkpt>
<trkpt lat="52.037334" lon="05.752336"><ele>36.2</ele><time>2021-05-01T14:53:41Z</time><name>PT6025</name></trkpt>
<trkpt lat="52.037339" lon="05.752318"><ele>36.1</ele><time>2021-05-01T14:53:42Z</time><name>PT6026</name></trkpt>
<trkpt lat="52.037338" lon="05.752304"><ele>36</ele><time>2021-05-01T14:53:43Z</time><name>PT6027</name></trkpt>
<trkpt lat="52.037340" lon="05.752294"><ele>35.8</ele><time>2021-05-01T14:53:44Z</time><name>PT6028</name></trkpt>
<trkpt lat="52.037339" lon="05.752290"><ele>35.9</ele><time>2021-05-01T14:53:45Z</time><name>PT6029</name></trkpt>
<trkpt lat="52.037333" lon="05.752278"><ele>35.9</ele><time>2021-05-01T14:53:46Z</time><name>PT6030</name></trkpt>
<trkpt lat="52.037327" lon="05.752246"><ele>36.1</ele><time>2021-05-01T14:53:47Z</time><name>PT6031</name></trkpt>
<trkpt lat="52.037324" lon="05.752214"><ele>36.2</ele><time>2021-05-01T14:53:48Z</time><name>PT6032</name></trkpt>
<trkpt lat="52.037326" lon="05.752184"><ele>36.1</ele><time>2021-05-01T14:53:49Z</time><name>PT6033</name></trkpt>
<trkpt lat="52.037329" lon="05.752152"><ele>36.1</ele><time>2021-05-01T14:53:50Z</time><name>PT6034</name></trkpt>
<trkpt lat="52.037327" lon="05.752132"><ele>36</ele><time>2021-05-01T14:53:51Z</time><name>PT6035</name></trkpt>
<trkpt lat="52.037329" lon="05.752116"><ele>36</ele><time>2021-05-01T14:53:52Z</time><name>PT6036</name></trkpt>
<trkpt lat="52.037330" lon="05.752108"><ele>35.8</ele><time>2021-05-01T14:53:53Z</time><name>PT6037</name></trkpt>
<trkpt lat="52.037328" lon="05.752097"><ele>35.9</ele><time>2021-05-01T14:53:54Z</time><name>PT6038</name></trkpt>
<trkpt lat="52.037322" lon="05.752084"><ele>36</ele><time>2021-05-01T14:53:55Z</time><name>PT6039</name></trkpt>
<trkpt lat="52.037318" lon="05.752066"><ele>36</ele><time>2021-05-01T14:53:56Z</time><name>PT6040</name></trkpt>
<trkpt lat="52.037315" lon="05.752049"><ele>36.1</ele><time>2021-05-01T14:53:57Z</time><name>PT6041</name></trkpt>
<trkpt lat="52.037311" lon="05.752021"><ele>36</ele><time>2021-05-01T14:53:58Z</time><name>PT6042</name></trkpt>
<trkpt lat="52.037314" lon="05.751998"><ele>36</ele><time>2021-05-01T14:53:59Z</time><name>PT6043</name></trkpt>
<trkpt lat="52.037317" lon="05.751984"><ele>35.8</ele><time>2021-05-01T14:54:00Z</time><name>PT6044</name></trkpt>
<trkpt lat="52.037318" lon="05.751977"><ele>36.1</ele><time>2021-05-01T14:54:01Z</time><name>PT6045</name></trkpt>
<trkpt lat="52.037320" lon="05.751977"><ele>36.1</ele><time>2021-05-01T14:54:02Z</time><name>PT6046</name></trkpt>
<trkpt lat="52.037317" lon="05.751966"><ele>36.1</ele><time>2021-05-01T14:54:03Z</time><name>PT6047</name></trkpt>
<trkpt lat="52.037321" lon="05.751947"><ele>36.2</ele><time>2021-05-01T14:54:04Z</time><name>PT6048</name></trkpt>
<trkpt lat="52.037328" lon="05.751919"><ele>36.4</ele><time>2021-05-01T14:54:05Z</time><name>PT6049</name></trkpt>
<trkpt lat="52.037333" lon="05.751891"><ele>36.4</ele><time>2021-05-01T14:54:06Z</time><name>PT6050</name></trkpt>
<trkpt lat="52.037341" lon="05.751868"><ele>36.4</ele><time>2021-05-01T14:54:07Z</time><name>PT6051</name></trkpt>
<trkpt lat="52.037346" lon="05.751850"><ele>36.6</ele><time>2021-05-01T14:54:09Z</time><name>PT6052</name></trkpt>
<trkpt lat="52.037348" lon="05.751835"><ele>36.6</ele><time>2021-05-01T14:54:09Z</time><name>PT6053</name></trkpt>
<trkpt lat="52.037351" lon="05.751824"><ele>36.6</ele><time>2021-05-01T14:54:11Z</time><name>PT6054</name></trkpt>
<trkpt lat="52.037349" lon="05.751811"><ele>36.6</ele><time>2021-05-01T14:54:11Z</time><name>PT6055</name></trkpt>
<trkpt lat="52.037351" lon="05.751802"><ele>36.5</ele><time>2021-05-01T14:54:12Z</time><name>PT6056</name></trkpt>
<trkpt lat="52.037350" lon="05.751776"><ele>36.5</ele><time>2021-05-01T14:54:13Z</time><name>PT6057</name></trkpt>
<trkpt lat="52.037351" lon="05.751739"><ele>36.2</ele><time>2021-05-01T14:54:14Z</time><name>PT6058</name></trkpt>
<trkpt lat="52.037360" lon="05.751715"><ele>36.2</ele><time>2021-05-01T14:54:15Z</time><name>PT6059</name></trkpt>
<trkpt lat="52.037361" lon="05.751700"><ele>36.2</ele><time>2021-05-01T14:54:16Z</time><name>PT6060</name></trkpt>
<trkpt lat="52.037360" lon="05.751697"><ele>36.4</ele><time>2021-05-01T14:54:17Z</time><name>PT6061</name></trkpt>
<trkpt lat="52.037361" lon="05.751701"><ele>36.5</ele><time>2021-05-01T14:54:18Z</time><name>PT6062</name></trkpt>
<trkpt lat="52.037364" lon="05.751691"><ele>36.6</ele><time>2021-05-01T14:54:19Z</time><name>PT6063</name></trkpt>
<trkpt lat="52.037367" lon="05.751666"><ele>36.6</ele><time>2021-05-01T14:54:20Z</time><name>PT6064</name></trkpt>
<trkpt lat="52.037382" lon="05.751637"><ele>36.5</ele><time>2021-05-01T14:54:21Z</time><name>PT6065</name></trkpt>
<trkpt lat="52.037392" lon="05.751622"><ele>36.4</ele><time>2021-05-01T14:54:22Z</time><name>PT6066</name></trkpt>
<trkpt lat="52.037393" lon="05.751614"><ele>36.5</ele><time>2021-05-01T14:54:23Z</time><name>PT6067</name></trkpt>
<trkpt lat="52.037390" lon="05.751607"><ele>36.4</ele><time>2021-05-01T14:54:24Z</time><name>PT6068</name></trkpt>
<trkpt lat="52.037389" lon="05.751604"><ele>36.5</ele><time>2021-05-01T14:54:25Z</time><name>PT6069</name></trkpt>
<trkpt lat="52.037390" lon="05.751596"><ele>36.5</ele><time>2021-05-01T14:54:26Z</time><name>PT6070</name></trkpt>
<trkpt lat="52.037391" lon="05.751573"><ele>36.6</ele><time>2021-05-01T14:54:27Z</time><name>PT6071</name></trkpt>
<trkpt lat="52.037395" lon="05.751560"><ele>36.5</ele><time>2021-05-01T14:54:28Z</time><name>PT6072</name></trkpt>
<trkpt lat="52.037393" lon="05.751544"><ele>36.4</ele><time>2021-05-01T14:54:29Z</time><name>PT6073</name></trkpt>
<trkpt lat="52.037388" lon="05.751529"><ele>36.2</ele><time>2021-05-01T14:54:30Z</time><name>PT6074</name></trkpt>
<trkpt lat="52.037383" lon="05.751518"><ele>36.3</ele><time>2021-05-01T14:54:31Z</time><name>PT6075</name></trkpt>
<trkpt lat="52.037382" lon="05.751504"><ele>36.1</ele><time>2021-05-01T14:54:32Z</time><name>PT6076</name></trkpt>
<trkpt lat="52.037371" lon="05.751471"><ele>36.1</ele><time>2021-05-01T14:54:33Z</time><name>PT6077</name></trkpt>
<trkpt lat="52.037363" lon="05.751440"><ele>35.9</ele><time>2021-05-01T14:54:34Z</time><name>PT6078</name></trkpt>
<trkpt lat="52.037353" lon="05.751405"><ele>35.8</ele><time>2021-05-01T14:54:35Z</time><name>PT6079</name></trkpt>
<trkpt lat="52.037344" lon="05.751377"><ele>35.7</ele><time>2021-05-01T14:54:36Z</time><name>PT6080</name></trkpt>
<trkpt lat="52.037337" lon="05.751356"><ele>35.7</ele><time>2021-05-01T14:54:37Z</time><name>PT6081</name></trkpt>
<trkpt lat="52.037333" lon="05.751339"><ele>35.8</ele><time>2021-05-01T14:54:38Z</time><name>PT6082</name></trkpt>
<trkpt lat="52.037333" lon="05.751329"><ele>35.7</ele><time>2021-05-01T14:54:39Z</time><name>PT6083</name></trkpt>
<trkpt lat="52.037331" lon="05.751321"><ele>35.7</ele><time>2021-05-01T14:54:40Z</time><name>PT6084</name></trkpt>
<trkpt lat="52.037328" lon="05.751314"><ele>35.7</ele><time>2021-05-01T14:54:41Z</time><name>PT6085</name></trkpt>
<trkpt lat="52.037326" lon="05.751304"><ele>35.8</ele><time>2021-05-01T14:54:42Z</time><name>PT6086</name></trkpt>
<trkpt lat="52.037323" lon="05.751284"><ele>36</ele><time>2021-05-01T14:54:43Z</time><name>PT6087</name></trkpt>
<trkpt lat="52.037317" lon="05.751257"><ele>36.1</ele><time>2021-05-01T14:54:44Z</time><name>PT6088</name></trkpt>
<trkpt lat="52.037314" lon="05.751227"><ele>36.1</ele><time>2021-05-01T14:54:45Z</time><name>PT6089</name></trkpt>
<trkpt lat="52.037315" lon="05.751213"><ele>36.1</ele><time>2021-05-01T14:54:46Z</time><name>PT6090</name></trkpt>
<trkpt lat="52.037310" lon="05.751202"><ele>36.1</ele><time>2021-05-01T14:54:47Z</time><name>PT6091</name></trkpt>
<trkpt lat="52.037309" lon="05.751187"><ele>35.9</ele><time>2021-05-01T14:54:48Z</time><name>PT6092</name></trkpt>
<trkpt lat="52.037306" lon="05.751174"><ele>36</ele><time>2021-05-01T14:54:49Z</time><name>PT6093</name></trkpt>
<trkpt lat="52.037310" lon="05.751166"><ele>36.1</ele><time>2021-05-01T14:54:50Z</time><name>PT6094</name></trkpt>
<trkpt lat="52.037325" lon="05.751147"><ele>36.1</ele><time>2021-05-01T14:54:51Z</time><name>PT6095</name></trkpt>
<trkpt lat="52.037334" lon="05.751122"><ele>36.2</ele><time>2021-05-01T14:54:52Z</time><name>PT6096</name></trkpt>
<trkpt lat="52.037336" lon="05.751114"><ele>36.4</ele><time>2021-05-01T14:54:53Z</time><name>PT6097</name></trkpt>
<trkpt lat="52.037332" lon="05.751112"><ele>36.5</ele><time>2021-05-01T14:54:54Z</time><name>PT6098</name></trkpt>
<trkpt lat="52.037333" lon="05.751109"><ele>36.5</ele><time>2021-05-01T14:54:55Z</time><name>PT6099</name></trkpt>
<trkpt lat="52.037336" lon="05.751095"><ele>36.5</ele><time>2021-05-01T14:54:56Z</time><name>PT6100</name></trkpt>
<trkpt lat="52.037349" lon="05.751088"><ele>36.5</ele><time>2021-05-01T14:54:57Z</time><name>PT6101</name></trkpt>
<trkpt lat="52.037359" lon="05.751074"><ele>36.4</ele><time>2021-05-01T14:54:58Z</time><name>PT6102</name></trkpt>
<trkpt lat="52.037367" lon="05.751058"><ele>36.6</ele><time>2021-05-01T14:54:59Z</time><name>PT6103</name></trkpt>
<trkpt lat="52.037376" lon="05.751041"><ele>36.6</ele><time>2021-05-01T14:55:00Z</time><name>PT6104</name></trkpt>
<trkpt lat="52.037383" lon="05.751031"><ele>36.5</ele><time>2021-05-01T14:55:01Z</time><name>PT6105</name></trkpt>
<trkpt lat="52.037383" lon="05.751026"><ele>36.4</ele><time>2021-05-01T14:55:02Z</time><name>PT6106</name></trkpt>
<trkpt lat="52.037384" lon="05.751022"><ele>36.5</ele><time>2021-05-01T14:55:03Z</time><name>PT6107</name></trkpt>
<trkpt lat="52.037382" lon="05.751013"><ele>36.4</ele><time>2021-05-01T14:55:04Z</time><name>PT6108</name></trkpt>
<trkpt lat="52.037387" lon="05.750995"><ele>36.4</ele><time>2021-05-01T14:55:05Z</time><name>PT6109</name></trkpt>
<trkpt lat="52.037393" lon="05.750966"><ele>36.5</ele><time>2021-05-01T14:55:06Z</time><name>PT6110</name></trkpt>
<trkpt lat="52.037401" lon="05.750927"><ele>36.6</ele><time>2021-05-01T14:55:07Z</time><name>PT6111</name></trkpt>
<trkpt lat="52.037408" lon="05.750891"><ele>36.5</ele><time>2021-05-01T14:55:08Z</time><name>PT6112</name></trkpt>
<trkpt lat="52.037411" lon="05.750864"><ele>36.4</ele><time>2021-05-01T14:55:09Z</time><name>PT6113</name></trkpt>
<trkpt lat="52.037416" lon="05.750851"><ele>36.3</ele><time>2021-05-01T14:55:10Z</time><name>PT6114</name></trkpt>
<trkpt lat="52.037421" lon="05.750833"><ele>36.3</ele><time>2021-05-01T14:55:11Z</time><name>PT6115</name></trkpt>
<trkpt lat="52.037425" lon="05.750834"><ele>36.4</ele><time>2021-05-01T14:55:12Z</time><name>PT6116</name></trkpt>
<trkpt lat="52.037423" lon="05.750822"><ele>36.4</ele><time>2021-05-01T14:55:13Z</time><name>PT6117</name></trkpt>
<trkpt lat="52.037424" lon="05.750804"><ele>36.5</ele><time>2021-05-01T14:55:14Z</time><name>PT6118</name></trkpt>
<trkpt lat="52.037417" lon="05.750789"><ele>36.6</ele><time>2021-05-01T14:55:15Z</time><name>PT6119</name></trkpt>
<trkpt lat="52.037412" lon="05.750759"><ele>36.5</ele><time>2021-05-01T14:55:16Z</time><name>PT6120</name></trkpt>
<trkpt lat="52.037412" lon="05.750727"><ele>36.5</ele><time>2021-05-01T14:55:17Z</time><name>PT6121</name></trkpt>
<trkpt lat="52.037410" lon="05.750700"><ele>36.5</ele><time>2021-05-01T14:55:18Z</time><name>PT6122</name></trkpt>
<trkpt lat="52.037410" lon="05.750684"><ele>36.6</ele><time>2021-05-01T14:55:19Z</time><name>PT6123</name></trkpt>
<trkpt lat="52.037411" lon="05.750678"><ele>36.8</ele><time>2021-05-01T14:55:20Z</time><name>PT6124</name></trkpt>
<trkpt lat="52.037407" lon="05.750675"><ele>37</ele><time>2021-05-01T14:55:21Z</time><name>PT6125</name></trkpt>
<trkpt lat="52.037404" lon="05.750669"><ele>37</ele><time>2021-05-01T14:55:22Z</time><name>PT6126</name></trkpt>
<trkpt lat="52.037404" lon="05.750653"><ele>37.1</ele><time>2021-05-01T14:55:23Z</time><name>PT6127</name></trkpt>
<trkpt lat="52.037399" lon="05.750624"><ele>37</ele><time>2021-05-01T14:55:24Z</time><name>PT6128</name></trkpt>
<trkpt lat="52.037393" lon="05.750597"><ele>37</ele><time>2021-05-01T14:55:25Z</time><name>PT6129</name></trkpt>
<trkpt lat="52.037388" lon="05.750582"><ele>37</ele><time>2021-05-01T14:55:26Z</time><name>PT6130</name></trkpt>
<trkpt lat="52.037386" lon="05.750574"><ele>37</ele><time>2021-05-01T14:55:27Z</time><name>PT6131</name></trkpt>
<trkpt lat="52.037383" lon="05.750574"><ele>37</ele><time>2021-05-01T14:55:29Z</time><name>PT6132</name></trkpt>
<trkpt lat="52.037382" lon="05.750568"><ele>37</ele><time>2021-05-01T14:55:29Z</time><name>PT6133</name></trkpt>
<trkpt lat="52.037376" lon="05.750557"><ele>37.1</ele><time>2021-05-01T14:55:30Z</time><name>PT6134</name></trkpt>
<trkpt lat="52.037370" lon="05.750543"><ele>37.1</ele><time>2021-05-01T14:55:31Z</time><name>PT6135</name></trkpt>
<trkpt lat="52.037368" lon="05.750529"><ele>37.2</ele><time>2021-05-01T14:55:32Z</time><name>PT6136</name></trkpt>
<trkpt lat="52.037364" lon="05.750520"><ele>37.3</ele><time>2021-05-01T14:55:33Z</time><name>PT6137</name></trkpt>
<trkpt lat="52.037360" lon="05.750520"><ele>37.2</ele><time>2021-05-01T14:55:34Z</time><name>PT6138</name></trkpt>
<trkpt lat="52.037361" lon="05.750525"><ele>37.3</ele><time>2021-05-01T14:55:35Z</time><name>PT6139</name></trkpt>
<trkpt lat="52.037359" lon="05.750520"><ele>37.2</ele><time>2021-05-01T14:55:37Z</time><name>PT6140</name></trkpt>
<trkpt lat="52.037354" lon="05.750503"><ele>37.4</ele><time>2021-05-01T14:55:37Z</time><name>PT6141</name></trkpt>
<trkpt lat="52.037353" lon="05.750466"><ele>37.5</ele><time>2021-05-01T14:55:39Z</time><name>PT6142</name></trkpt>
<trkpt lat="52.037353" lon="05.750435"><ele>37.5</ele><time>2021-05-01T14:55:39Z</time><name>PT6143</name></trkpt>
<trkpt lat="52.037352" lon="05.750418"><ele>37.6</ele><time>2021-05-01T14:55:40Z</time><name>PT6144</name></trkpt>
<trkpt lat="52.037348" lon="05.750408"><ele>37.8</ele><time>2021-05-01T14:55:41Z</time><name>PT6145</name></trkpt>
<trkpt lat="52.037347" lon="05.750402"><ele>37.7</ele><time>2021-05-01T14:55:42Z</time><name>PT6146</name></trkpt>
<trkpt lat="52.037344" lon="05.750396"><ele>37.5</ele><time>2021-05-01T14:55:43Z</time><name>PT6147</name></trkpt>
<trkpt lat="52.037340" lon="05.750382"><ele>37.6</ele><time>2021-05-01T14:55:44Z</time><name>PT6148</name></trkpt>
<trkpt lat="52.037340" lon="05.750370"><ele>37.5</ele><time>2021-05-01T14:55:45Z</time><name>PT6149</name></trkpt>
<trkpt lat="52.037340" lon="05.750353"><ele>37.5</ele><time>2021-05-01T14:55:47Z</time><name>PT6150</name></trkpt>
<trkpt lat="52.037339" lon="05.750335"><ele>37.6</ele><time>2021-05-01T14:55:47Z</time><name>PT6151</name></trkpt>
<trkpt lat="52.037341" lon="05.750301"><ele>37.6</ele><time>2021-05-01T14:55:48Z</time><name>PT6152</name></trkpt>
<trkpt lat="52.037350" lon="05.750267"><ele>37.9</ele><time>2021-05-01T14:55:49Z</time><name>PT6153</name></trkpt>
<trkpt lat="52.037353" lon="05.750251"><ele>38.1</ele><time>2021-05-01T14:55:50Z</time><name>PT6154</name></trkpt>
<trkpt lat="52.037367" lon="05.750216"><ele>38.1</ele><time>2021-05-01T14:55:51Z</time><name>PT6155</name></trkpt>
<trkpt lat="52.037370" lon="05.750197"><ele>37.8</ele><time>2021-05-01T14:55:52Z</time><name>PT6156</name></trkpt>
<trkpt lat="52.037369" lon="05.750174"><ele>38</ele><time>2021-05-01T14:55:53Z</time><name>PT6157</name></trkpt>
<trkpt lat="52.037363" lon="05.750147"><ele>37.9</ele><time>2021-05-01T14:55:54Z</time><name>PT6158</name></trkpt>
<trkpt lat="52.037363" lon="05.750127"><ele>37.6</ele><time>2021-05-01T14:55:55Z</time><name>PT6159</name></trkpt>
<trkpt lat="52.037365" lon="05.750107"><ele>37.8</ele><time>2021-05-01T14:55:57Z</time><name>PT6160</name></trkpt>
<trkpt lat="52.037364" lon="05.750089"><ele>37.8</ele><time>2021-05-01T14:55:57Z</time><name>PT6161</name></trkpt>
<trkpt lat="52.037366" lon="05.750069"><ele>37.5</ele><time>2021-05-01T14:55:58Z</time><name>PT6162</name></trkpt>
<trkpt lat="52.037367" lon="05.750055"><ele>37.5</ele><time>2021-05-01T14:55:59Z</time><name>PT6163</name></trkpt>
<trkpt lat="52.037370" lon="05.750039"><ele>37.5</ele><time>2021-05-01T14:56:00Z</time><name>PT6164</name></trkpt>
<trkpt lat="52.037372" lon="05.750020"><ele>37.5</ele><time>2021-05-01T14:56:01Z</time><name>PT6165</name></trkpt>
<trkpt lat="52.037372" lon="05.750001"><ele>37.5</ele><time>2021-05-01T14:56:02Z</time><name>PT6166</name></trkpt>
<trkpt lat="52.037370" lon="05.749982"><ele>37.5</ele><time>2021-05-01T14:56:03Z</time><name>PT6167</name></trkpt>
<trkpt lat="52.037374" lon="05.749970"><ele>37.1</ele><time>2021-05-01T14:56:04Z</time><name>PT6168</name></trkpt>
<trkpt lat="52.037375" lon="05.749955"><ele>37.1</ele><time>2021-05-01T14:56:05Z</time><name>PT6169</name></trkpt>
<trkpt lat="52.037379" lon="05.749940"><ele>37.5</ele><time>2021-05-01T14:56:06Z</time><name>PT6170</name></trkpt>
<trkpt lat="52.037378" lon="05.749921"><ele>37.5</ele><time>2021-05-01T14:56:07Z</time><name>PT6171</name></trkpt>
<trkpt lat="52.037377" lon="05.749902"><ele>38.1</ele><time>2021-05-01T14:56:08Z</time><name>PT6172</name></trkpt>
<trkpt lat="52.037376" lon="05.749880"><ele>38.4</ele><time>2021-05-01T14:56:09Z</time><name>PT6173</name></trkpt>
<trkpt lat="52.037377" lon="05.749863"><ele>38</ele><time>2021-05-01T14:56:10Z</time><name>PT6174</name></trkpt>
<trkpt lat="52.037382" lon="05.749843"><ele>37.9</ele><time>2021-05-01T14:56:11Z</time><name>PT6175</name></trkpt>
<trkpt lat="52.037389" lon="05.749826"><ele>37.7</ele><time>2021-05-01T14:56:12Z</time><name>PT6176</name></trkpt>
<trkpt lat="52.037392" lon="05.749805"><ele>37.4</ele><time>2021-05-01T14:56:13Z</time><name>PT6177</name></trkpt>
<trkpt lat="52.037392" lon="05.749793"><ele>37.1</ele><time>2021-05-01T14:56:14Z</time><name>PT6178</name></trkpt>
<trkpt lat="52.037394" lon="05.749781"><ele>37.3</ele><time>2021-05-01T14:56:15Z</time><name>PT6179</name></trkpt>
<trkpt lat="52.037398" lon="05.749772"><ele>37</ele><time>2021-05-01T14:56:16Z</time><name>PT6180</name></trkpt>
<trkpt lat="52.037402" lon="05.749759"><ele>37</ele><time>2021-05-01T14:56:17Z</time><name>PT6181</name></trkpt>
<trkpt lat="52.037414" lon="05.749730"><ele>36.8</ele><time>2021-05-01T14:56:18Z</time><name>PT6182</name></trkpt>
<trkpt lat="52.037428" lon="05.749701"><ele>36.8</ele><time>2021-05-01T14:56:19Z</time><name>PT6183</name></trkpt>
<trkpt lat="52.037443" lon="05.749674"><ele>36.6</ele><time>2021-05-01T14:56:20Z</time><name>PT6184</name></trkpt>
<trkpt lat="52.037455" lon="05.749652"><ele>36.5</ele><time>2021-05-01T14:56:21Z</time><name>PT6185</name></trkpt>
<trkpt lat="52.037462" lon="05.749637"><ele>36.5</ele><time>2021-05-01T14:56:22Z</time><name>PT6186</name></trkpt>
<trkpt lat="52.037466" lon="05.749633"><ele>36.5</ele><time>2021-05-01T14:56:23Z</time><name>PT6187</name></trkpt>
<trkpt lat="52.037467" lon="05.749623"><ele>36.4</ele><time>2021-05-01T14:56:24Z</time><name>PT6188</name></trkpt>
<trkpt lat="52.037469" lon="05.749617"><ele>36.5</ele><time>2021-05-01T14:56:25Z</time><name>PT6189</name></trkpt>
<trkpt lat="52.037474" lon="05.749591"><ele>36.6</ele><time>2021-05-01T14:56:26Z</time><name>PT6190</name></trkpt>
<trkpt lat="52.037478" lon="05.749564"><ele>36.7</ele><time>2021-05-01T14:56:27Z</time><name>PT6191</name></trkpt>
<trkpt lat="52.037476" lon="05.749534"><ele>36.6</ele><time>2021-05-01T14:56:28Z</time><name>PT6192</name></trkpt>
<trkpt lat="52.037478" lon="05.749515"><ele>36.6</ele><time>2021-05-01T14:56:29Z</time><name>PT6193</name></trkpt>
<trkpt lat="52.037478" lon="05.749498"><ele>36.6</ele><time>2021-05-01T14:56:30Z</time><name>PT6194</name></trkpt>
<trkpt lat="52.037478" lon="05.749491"><ele>36.6</ele><time>2021-05-01T14:56:31Z</time><name>PT6195</name></trkpt>
<trkpt lat="52.037478" lon="05.749491"><ele>36.6</ele><time>2021-05-01T14:56:32Z</time><name>PT6196</name></trkpt>
<trkpt lat="52.037475" lon="05.749481"><ele>36.6</ele><time>2021-05-01T14:56:33Z</time><name>PT6197</name></trkpt>
<trkpt lat="52.037477" lon="05.749461"><ele>36.6</ele><time>2021-05-01T14:56:34Z</time><name>PT6198</name></trkpt>
<trkpt lat="52.037490" lon="05.749437"><ele>36.8</ele><time>2021-05-01T14:56:35Z</time><name>PT6199</name></trkpt>
<trkpt lat="52.037500" lon="05.749414"><ele>36.7</ele><time>2021-05-01T14:56:36Z</time><name>PT6200</name></trkpt>
<trkpt lat="52.037505" lon="05.749401"><ele>36.6</ele><time>2021-05-01T14:56:37Z</time><name>PT6201</name></trkpt>
<trkpt lat="52.037500" lon="05.749385"><ele>36.7</ele><time>2021-05-01T14:56:38Z</time><name>PT6202</name></trkpt>
<trkpt lat="52.037498" lon="05.749383"><ele>36.7</ele><time>2021-05-01T14:56:39Z</time><name>PT6203</name></trkpt>
<trkpt lat="52.037495" lon="05.749367"><ele>36.7</ele><time>2021-05-01T14:56:40Z</time><name>PT6204</name></trkpt>
<trkpt lat="52.037498" lon="05.749345"><ele>36.8</ele><time>2021-05-01T14:56:41Z</time><name>PT6205</name></trkpt>
<trkpt lat="52.037497" lon="05.749324"><ele>36.8</ele><time>2021-05-01T14:56:42Z</time><name>PT6206</name></trkpt>
<trkpt lat="52.037497" lon="05.749300"><ele>36.8</ele><time>2021-05-01T14:56:43Z</time><name>PT6207</name></trkpt>
<trkpt lat="52.037495" lon="05.749280"><ele>36.7</ele><time>2021-05-01T14:56:44Z</time><name>PT6208</name></trkpt>
<trkpt lat="52.037496" lon="05.749272"><ele>36.8</ele><time>2021-05-01T14:56:45Z</time><name>PT6209</name></trkpt>
<trkpt lat="52.037495" lon="05.749273"><ele>36.7</ele><time>2021-05-01T14:56:46Z</time><name>PT6210</name></trkpt>
<trkpt lat="52.037487" lon="05.749258"><ele>36.7</ele><time>2021-05-01T14:56:47Z</time><name>PT6211</name></trkpt>
<trkpt lat="52.037492" lon="05.749222"><ele>36.8</ele><time>2021-05-01T14:56:48Z</time><name>PT6212</name></trkpt>
<trkpt lat="52.037498" lon="05.749198"><ele>36.8</ele><time>2021-05-01T14:56:49Z</time><name>PT6213</name></trkpt>
<trkpt lat="52.037499" lon="05.749181"><ele>36.9</ele><time>2021-05-01T14:56:50Z</time><name>PT6214</name></trkpt>
<trkpt lat="52.037503" lon="05.749163"><ele>37</ele><time>2021-05-01T14:56:51Z</time><name>PT6215</name></trkpt>
<trkpt lat="52.037507" lon="05.749147"><ele>36.7</ele><time>2021-05-01T14:56:52Z</time><name>PT6216</name></trkpt>
<trkpt lat="52.037508" lon="05.749133"><ele>36.7</ele><time>2021-05-01T14:56:53Z</time><name>PT6217</name></trkpt>
<trkpt lat="52.037509" lon="05.749129"><ele>36.7</ele><time>2021-05-01T14:56:54Z</time><name>PT6218</name></trkpt>
<trkpt lat="52.037515" lon="05.749123"><ele>36.6</ele><time>2021-05-01T14:56:55Z</time><name>PT6219</name></trkpt>
<trkpt lat="52.037526" lon="05.749104"><ele>36.4</ele><time>2021-05-01T14:56:56Z</time><name>PT6220</name></trkpt>
<trkpt lat="52.037538" lon="05.749079"><ele>36.5</ele><time>2021-05-01T14:56:57Z</time><name>PT6221</name></trkpt>
<trkpt lat="52.037543" lon="05.749055"><ele>36.5</ele><time>2021-05-01T14:56:58Z</time><name>PT6222</name></trkpt>
<trkpt lat="52.037546" lon="05.749045"><ele>36.4</ele><time>2021-05-01T14:56:59Z</time><name>PT6223</name></trkpt>
<trkpt lat="52.037552" lon="05.749035"><ele>36.4</ele><time>2021-05-01T14:57:00Z</time><name>PT6224</name></trkpt>
<trkpt lat="52.037557" lon="05.749026"><ele>36.5</ele><time>2021-05-01T14:57:01Z</time><name>PT6225</name></trkpt>
<trkpt lat="52.037560" lon="05.749009"><ele>36.4</ele><time>2021-05-01T14:57:02Z</time><name>PT6226</name></trkpt>
<trkpt lat="52.037564" lon="05.748978"><ele>36.2</ele><time>2021-05-01T14:57:03Z</time><name>PT6227</name></trkpt>
<trkpt lat="52.037572" lon="05.748943"><ele>36.3</ele><time>2021-05-01T14:57:04Z</time><name>PT6228</name></trkpt>
<trkpt lat="52.037579" lon="05.748911"><ele>36.2</ele><time>2021-05-01T14:57:05Z</time><name>PT6229</name></trkpt>
<trkpt lat="52.037582" lon="05.748887"><ele>36.2</ele><time>2021-05-01T14:57:06Z</time><name>PT6230</name></trkpt>
<trkpt lat="52.037582" lon="05.748879"><ele>36.4</ele><time>2021-05-01T14:57:07Z</time><name>PT6231</name></trkpt>
<trkpt lat="52.037582" lon="05.748873"><ele>36.6</ele><time>2021-05-01T14:57:08Z</time><name>PT6232</name></trkpt>
<trkpt lat="52.037581" lon="05.748865"><ele>36.5</ele><time>2021-05-01T14:57:09Z</time><name>PT6233</name></trkpt>
<trkpt lat="52.037579" lon="05.748841"><ele>36.6</ele><time>2021-05-01T14:57:10Z</time><name>PT6234</name></trkpt>
<trkpt lat="52.037584" lon="05.748814"><ele>36.6</ele><time>2021-05-01T14:57:11Z</time><name>PT6235</name></trkpt>
<trkpt lat="52.037590" lon="05.748789"><ele>36.4</ele><time>2021-05-01T14:57:12Z</time><name>PT6236</name></trkpt>
<trkpt lat="52.037592" lon="05.748773"><ele>36.5</ele><time>2021-05-01T14:57:13Z</time><name>PT6237</name></trkpt>
<trkpt lat="52.037596" lon="05.748766"><ele>36.6</ele><time>2021-05-01T14:57:14Z</time><name>PT6238</name></trkpt>
<trkpt lat="52.037595" lon="05.748744"><ele>36.4</ele><time>2021-05-01T14:57:15Z</time><name>PT6239</name></trkpt>
<trkpt lat="52.037599" lon="05.748714"><ele>36.4</ele><time>2021-05-01T14:57:16Z</time><name>PT6240</name></trkpt>
<trkpt lat="52.037598" lon="05.748686"><ele>36.4</ele><time>2021-05-01T14:57:17Z</time><name>PT6241</name></trkpt>
<trkpt lat="52.037594" lon="05.748675"><ele>36.2</ele><time>2021-05-01T14:57:18Z</time><name>PT6242</name></trkpt>
<trkpt lat="52.037592" lon="05.748667"><ele>36.2</ele><time>2021-05-01T14:57:19Z</time><name>PT6243</name></trkpt>
<trkpt lat="52.037589" lon="05.748648"><ele>36.4</ele><time>2021-05-01T14:57:20Z</time><name>PT6244</name></trkpt>
<trkpt lat="52.037588" lon="05.748614"><ele>36.4</ele><time>2021-05-01T14:57:21Z</time><name>PT6245</name></trkpt>
<trkpt lat="52.037591" lon="05.748589"><ele>36.6</ele><time>2021-05-01T14:57:22Z</time><name>PT6246</name></trkpt>
<trkpt lat="52.037592" lon="05.748575"><ele>36.6</ele><time>2021-05-01T14:57:23Z</time><name>PT6247</name></trkpt>
<trkpt lat="52.037594" lon="05.748574"><ele>36.6</ele><time>2021-05-01T14:57:24Z</time><name>PT6248</name></trkpt>
<trkpt lat="52.037596" lon="05.748568"><ele>36.7</ele><time>2021-05-01T14:57:25Z</time><name>PT6249</name></trkpt>
<trkpt lat="52.037592" lon="05.748550"><ele>36.6</ele><time>2021-05-01T14:57:26Z</time><name>PT6250</name></trkpt>
<trkpt lat="52.037587" lon="05.748531"><ele>36.6</ele><time>2021-05-01T14:57:27Z</time><name>PT6251</name></trkpt>
<trkpt lat="52.037583" lon="05.748498"><ele>36.7</ele><time>2021-05-01T14:57:28Z</time><name>PT6252</name></trkpt>
<trkpt lat="52.037585" lon="05.748472"><ele>36.7</ele><time>2021-05-01T14:57:29Z</time><name>PT6253</name></trkpt>
<trkpt lat="52.037585" lon="05.748461"><ele>36.6</ele><time>2021-05-01T14:57:30Z</time><name>PT6254</name></trkpt>
<trkpt lat="52.037588" lon="05.748456"><ele>36.7</ele><time>2021-05-01T14:57:31Z</time><name>PT6255</name></trkpt>
<trkpt lat="52.037578" lon="05.748457"><ele>36.6</ele><time>2021-05-01T14:57:32Z</time><name>PT6256</name></trkpt>
<trkpt lat="52.037574" lon="05.748448"><ele>36.4</ele><time>2021-05-01T14:57:33Z</time><name>PT6257</name></trkpt>
<trkpt lat="52.037577" lon="05.748436"><ele>36.3</ele><time>2021-05-01T14:57:34Z</time><name>PT6258</name></trkpt>
<trkpt lat="52.037579" lon="05.748415"><ele>36.3</ele><time>2021-05-01T14:57:35Z</time><name>PT6259</name></trkpt>
<trkpt lat="52.037593" lon="05.748390"><ele>36.2</ele><time>2021-05-01T14:57:36Z</time><name>PT6260</name></trkpt>
<trkpt lat="52.037604" lon="05.748356"><ele>36.1</ele><time>2021-05-01T14:57:37Z</time><name>PT6261</name></trkpt>
<trkpt lat="52.037612" lon="05.748335"><ele>36.1</ele><time>2021-05-01T14:57:38Z</time><name>PT6262</name></trkpt>
<trkpt lat="52.037615" lon="05.748322"><ele>36.1</ele><time>2021-05-01T14:57:39Z</time><name>PT6263</name></trkpt>
<trkpt lat="52.037615" lon="05.748311"><ele>36.1</ele><time>2021-05-01T14:57:40Z</time><name>PT6264</name></trkpt>
<trkpt lat="52.037613" lon="05.748306"><ele>36.3</ele><time>2021-05-01T14:57:41Z</time><name>PT6265</name></trkpt>
<trkpt lat="52.037611" lon="05.748293"><ele>36.4</ele><time>2021-05-01T14:57:42Z</time><name>PT6266</name></trkpt>
<trkpt lat="52.037611" lon="05.748274"><ele>36.3</ele><time>2021-05-01T14:57:43Z</time><name>PT6267</name></trkpt>
<trkpt lat="52.037617" lon="05.748237"><ele>36.1</ele><time>2021-05-01T14:57:44Z</time><name>PT6268</name></trkpt>
<trkpt lat="52.037622" lon="05.748204"><ele>36.1</ele><time>2021-05-01T14:57:45Z</time><name>PT6269</name></trkpt>
<trkpt lat="52.037622" lon="05.748182"><ele>36.1</ele><time>2021-05-01T14:57:46Z</time><name>PT6270</name></trkpt>
<trkpt lat="52.037622" lon="05.748173"><ele>36.2</ele><time>2021-05-01T14:57:47Z</time><name>PT6271</name></trkpt>
<trkpt lat="52.037620" lon="05.748171"><ele>36.4</ele><time>2021-05-01T14:57:48Z</time><name>PT6272</name></trkpt>
<trkpt lat="52.037616" lon="05.748166"><ele>36.5</ele><time>2021-05-01T14:57:49Z</time><name>PT6273</name></trkpt>
<trkpt lat="52.037618" lon="05.748148"><ele>36.5</ele><time>2021-05-01T14:57:50Z</time><name>PT6274</name></trkpt>
<trkpt lat="52.037618" lon="05.748111"><ele>36.5</ele><time>2021-05-01T14:57:51Z</time><name>PT6275</name></trkpt>
<trkpt lat="52.037629" lon="05.748084"><ele>36.5</ele><time>2021-05-01T14:57:52Z</time><name>PT6276</name></trkpt>
<trkpt lat="52.037635" lon="05.748066"><ele>36.6</ele><time>2021-05-01T14:57:53Z</time><name>PT6277</name></trkpt>
<trkpt lat="52.037626" lon="05.748046"><ele>36.8</ele><time>2021-05-01T14:57:54Z</time><name>PT6278</name></trkpt>
<trkpt lat="52.037617" lon="05.748031"><ele>36.8</ele><time>2021-05-01T14:57:55Z</time><name>PT6279</name></trkpt>
<trkpt lat="52.037617" lon="05.748014"><ele>36.8</ele><time>2021-05-01T14:57:56Z</time><name>PT6280</name></trkpt>
<trkpt lat="52.037624" lon="05.747989"><ele>36.9</ele><time>2021-05-01T14:57:57Z</time><name>PT6281</name></trkpt>
<trkpt lat="52.037628" lon="05.747974"><ele>36.6</ele><time>2021-05-01T14:57:58Z</time><name>PT6282</name></trkpt>
<trkpt lat="52.037630" lon="05.747967"><ele>36.6</ele><time>2021-05-01T14:57:59Z</time><name>PT6283</name></trkpt>
<trkpt lat="52.037632" lon="05.747952"><ele>36.7</ele><time>2021-05-01T14:58:00Z</time><name>PT6284</name></trkpt>
<trkpt lat="52.037634" lon="05.747942"><ele>36.6</ele><time>2021-05-01T14:58:01Z</time><name>PT6285</name></trkpt>
<trkpt lat="52.037645" lon="05.747922"><ele>36.6</ele><time>2021-05-01T14:58:02Z</time><name>PT6286</name></trkpt>
<trkpt lat="52.037651" lon="05.747907"><ele>36.6</ele><time>2021-05-01T14:58:03Z</time><name>PT6287</name></trkpt>
<trkpt lat="52.037650" lon="05.747902"><ele>36.6</ele><time>2021-05-01T14:58:04Z</time><name>PT6288</name></trkpt>
<trkpt lat="52.037651" lon="05.747902"><ele>36.5</ele><time>2021-05-01T14:58:06Z</time><name>PT6289</name></trkpt>
<trkpt lat="52.037649" lon="05.747903"><ele>36.5</ele><time>2021-05-01T14:58:06Z</time><name>PT6290</name></trkpt>
<trkpt lat="52.037648" lon="05.747896"><ele>36.3</ele><time>2021-05-01T14:58:07Z</time><name>PT6291</name></trkpt>
<trkpt lat="52.037652" lon="05.747884"><ele>36.3</ele><time>2021-05-01T14:58:08Z</time><name>PT6292</name></trkpt>
<trkpt lat="52.037656" lon="05.747857"><ele>36.4</ele><time>2021-05-01T14:58:09Z</time><name>PT6293</name></trkpt>
<trkpt lat="52.037661" lon="05.747824"><ele>36.2</ele><time>2021-05-01T14:58:10Z</time><name>PT6294</name></trkpt>
<trkpt lat="52.037668" lon="05.747803"><ele>36.5</ele><time>2021-05-01T14:58:11Z</time><name>PT6295</name></trkpt>
<trkpt lat="52.037667" lon="05.747792"><ele>36.6</ele><time>2021-05-01T14:58:12Z</time><name>PT6296</name></trkpt>
<trkpt lat="52.037665" lon="05.747792"><ele>36.8</ele><time>2021-05-01T14:58:13Z</time><name>PT6297</name></trkpt>
<trkpt lat="52.037666" lon="05.747788"><ele>36.7</ele><time>2021-05-01T14:58:14Z</time><name>PT6298</name></trkpt>
<trkpt lat="52.037665" lon="05.747776"><ele>36.9</ele><time>2021-05-01T14:58:15Z</time><name>PT6299</name></trkpt>
<trkpt lat="52.037669" lon="05.747754"><ele>36.8</ele><time>2021-05-01T14:58:16Z</time><name>PT6300</name></trkpt>
<trkpt lat="52.037674" lon="05.747730"><ele>36.9</ele><time>2021-05-01T14:58:17Z</time><name>PT6301</name></trkpt>
<trkpt lat="52.037676" lon="05.747713"><ele>36.8</ele><time>2021-05-01T14:58:18Z</time><name>PT6302</name></trkpt>
<trkpt lat="52.037676" lon="05.747698"><ele>36.8</ele><time>2021-05-01T14:58:19Z</time><name>PT6303</name></trkpt>
<trkpt lat="52.037678" lon="05.747691"><ele>36.6</ele><time>2021-05-01T14:58:20Z</time><name>PT6304</name></trkpt>
<trkpt lat="52.037679" lon="05.747673"><ele>36.7</ele><time>2021-05-01T14:58:21Z</time><name>PT6305</name></trkpt>
<trkpt lat="52.037691" lon="05.747631"><ele>36.4</ele><time>2021-05-01T14:58:23Z</time><name>PT6306</name></trkpt>
<trkpt lat="52.037706" lon="05.747585"><ele>36.3</ele><time>2021-05-01T14:58:24Z</time><name>PT6307</name></trkpt>
<trkpt lat="52.037713" lon="05.747560"><ele>36.3</ele><time>2021-05-01T14:58:25Z</time><name>PT6308</name></trkpt>
<trkpt lat="52.037716" lon="05.747543"><ele>36.3</ele><time>2021-05-01T14:58:26Z</time><name>PT6309</name></trkpt>
<trkpt lat="52.037714" lon="05.747534"><ele>36.5</ele><time>2021-05-01T14:58:27Z</time><name>PT6310</name></trkpt>
<trkpt lat="52.037716" lon="05.747505"><ele>36.6</ele><time>2021-05-01T14:58:28Z</time><name>PT6311</name></trkpt>
<trkpt lat="52.037723" lon="05.747474"><ele>36.7</ele><time>2021-05-01T14:58:29Z</time><name>PT6312</name></trkpt>
<trkpt lat="52.037732" lon="05.747440"><ele>36.6</ele><time>2021-05-01T14:58:30Z</time><name>PT6313</name></trkpt>
<trkpt lat="52.037738" lon="05.747417"><ele>36.6</ele><time>2021-05-01T14:58:31Z</time><name>PT6314</name></trkpt>
<trkpt lat="52.037738" lon="05.747399"><ele>36.6</ele><time>2021-05-01T14:58:32Z</time><name>PT6315</name></trkpt>
<trkpt lat="52.037738" lon="05.747388"><ele>36.5</ele><time>2021-05-01T14:58:33Z</time><name>PT6316</name></trkpt>
<trkpt lat="52.037739" lon="05.747379"><ele>36.4</ele><time>2021-05-01T14:58:34Z</time><name>PT6317</name></trkpt>
<trkpt lat="52.037730" lon="05.747359"><ele>36.4</ele><time>2021-05-01T14:58:35Z</time><name>PT6318</name></trkpt>
<trkpt lat="52.037728" lon="05.747339"><ele>36.4</ele><time>2021-05-01T14:58:36Z</time><name>PT6319</name></trkpt>
<trkpt lat="52.037736" lon="05.747312"><ele>36.3</ele><time>2021-05-01T14:58:37Z</time><name>PT6320</name></trkpt>
<trkpt lat="52.037742" lon="05.747290"><ele>36.3</ele><time>2021-05-01T14:58:38Z</time><name>PT6321</name></trkpt>
<trkpt lat="52.037746" lon="05.747275"><ele>36.3</ele><time>2021-05-01T14:58:39Z</time><name>PT6322</name></trkpt>
<trkpt lat="52.037746" lon="05.747269"><ele>36.3</ele><time>2021-05-01T14:58:40Z</time><name>PT6323</name></trkpt>
<trkpt lat="52.037746" lon="05.747266"><ele>36.3</ele><time>2021-05-01T14:58:41Z</time><name>PT6324</name></trkpt>
<trkpt lat="52.037745" lon="05.747253"><ele>36.3</ele><time>2021-05-01T14:58:42Z</time><name>PT6325</name></trkpt>
<trkpt lat="52.037741" lon="05.747233"><ele>36.2</ele><time>2021-05-01T14:58:43Z</time><name>PT6326</name></trkpt>
<trkpt lat="52.037750" lon="05.747212"><ele>36.1</ele><time>2021-05-01T14:58:44Z</time><name>PT6327</name></trkpt>
<trkpt lat="52.037758" lon="05.747189"><ele>36.3</ele><time>2021-05-01T14:58:45Z</time><name>PT6328</name></trkpt>
<trkpt lat="52.037762" lon="05.747159"><ele>36.1</ele><time>2021-05-01T14:58:46Z</time><name>PT6329</name></trkpt>
<trkpt lat="52.037764" lon="05.747134"><ele>36.2</ele><time>2021-05-01T14:58:47Z</time><name>PT6330</name></trkpt>
<trkpt lat="52.037762" lon="05.747125"><ele>36.2</ele><time>2021-05-01T14:58:48Z</time><name>PT6331</name></trkpt>
<trkpt lat="52.037764" lon="05.747123"><ele>36.2</ele><time>2021-05-01T14:58:49Z</time><name>PT6332</name></trkpt>
<trkpt lat="52.037764" lon="05.747109"><ele>36.4</ele><time>2021-05-01T14:58:50Z</time><name>PT6333</name></trkpt>
<trkpt lat="52.037765" lon="05.747089"><ele>36.4</ele><time>2021-05-01T14:58:51Z</time><name>PT6334</name></trkpt>
<trkpt lat="52.037764" lon="05.747061"><ele>36.4</ele><time>2021-05-01T14:58:52Z</time><name>PT6335</name></trkpt>
<trkpt lat="52.037765" lon="05.747038"><ele>36.5</ele><time>2021-05-01T14:58:53Z</time><name>PT6336</name></trkpt>
<trkpt lat="52.037768" lon="05.747026"><ele>36.4</ele><time>2021-05-01T14:58:54Z</time><name>PT6337</name></trkpt>
<trkpt lat="52.037764" lon="05.747019"><ele>36.2</ele><time>2021-05-01T14:58:55Z</time><name>PT6338</name></trkpt>
<trkpt lat="52.037762" lon="05.747012"><ele>36.2</ele><time>2021-05-01T14:58:56Z</time><name>PT6339</name></trkpt>
<trkpt lat="52.037759" lon="05.747010"><ele>36.1</ele><time>2021-05-01T14:58:57Z</time><name>PT6340</name></trkpt>
<trkpt lat="52.037756" lon="05.747002"><ele>36.2</ele><time>2021-05-01T14:58:58Z</time><name>PT6341</name></trkpt>
<trkpt lat="52.037754" lon="05.746980"><ele>36.2</ele><time>2021-05-01T14:58:59Z</time><name>PT6342</name></trkpt>
<trkpt lat="52.037752" lon="05.746959"><ele>36.2</ele><time>2021-05-01T14:59:01Z</time><name>PT6343</name></trkpt>
<trkpt lat="52.037742" lon="05.746934"><ele>36.2</ele><time>2021-05-01T14:59:01Z</time><name>PT6344</name></trkpt>
<trkpt lat="52.037738" lon="05.746917"><ele>36.3</ele><time>2021-05-01T14:59:03Z</time><name>PT6345</name></trkpt>
<trkpt lat="52.037740" lon="05.746899"><ele>36.3</ele><time>2021-05-01T14:59:03Z</time><name>PT6346</name></trkpt>
<trkpt lat="52.037741" lon="05.746870"><ele>36.3</ele><time>2021-05-01T14:59:04Z</time><name>PT6347</name></trkpt>
<trkpt lat="52.037742" lon="05.746852"><ele>36.3</ele><time>2021-05-01T14:59:05Z</time><name>PT6348</name></trkpt>
<trkpt lat="52.037744" lon="05.746838"><ele>36.1</ele><time>2021-05-01T14:59:06Z</time><name>PT6349</name></trkpt>
<trkpt lat="52.037747" lon="05.746829"><ele>36.1</ele><time>2021-05-01T14:59:07Z</time><name>PT6350</name></trkpt>
<trkpt lat="52.037751" lon="05.746825"><ele>36</ele><time>2021-05-01T14:59:08Z</time><name>PT6351</name></trkpt>
<trkpt lat="52.037756" lon="05.746813"><ele>36.1</ele><time>2021-05-01T14:59:09Z</time><name>PT6352</name></trkpt>
<trkpt lat="52.037757" lon="05.746794"><ele>36.3</ele><time>2021-05-01T14:59:10Z</time><name>PT6353</name></trkpt>
<trkpt lat="52.037766" lon="05.746762"><ele>36.3</ele><time>2021-05-01T14:59:11Z</time><name>PT6354</name></trkpt>
<trkpt lat="52.037776" lon="05.746734"><ele>36.1</ele><time>2021-05-01T14:59:13Z</time><name>PT6355</name></trkpt>
<trkpt lat="52.037778" lon="05.746720"><ele>36.1</ele><time>2021-05-01T14:59:13Z</time><name>PT6356</name></trkpt>
<trkpt lat="52.037779" lon="05.746712"><ele>36</ele><time>2021-05-01T14:59:15Z</time><name>PT6357</name></trkpt>
<trkpt lat="52.037777" lon="05.746709"><ele>35.8</ele><time>2021-05-01T14:59:15Z</time><name>PT6358</name></trkpt>
<trkpt lat="52.037779" lon="05.746698"><ele>35.8</ele><time>2021-05-01T14:59:16Z</time><name>PT6359</name></trkpt>
<trkpt lat="52.037780" lon="05.746682"><ele>35.9</ele><time>2021-05-01T14:59:17Z</time><name>PT6360</name></trkpt>
<trkpt lat="52.037780" lon="05.746644"><ele>35.9</ele><time>2021-05-01T14:59:18Z</time><name>PT6361</name></trkpt>
<trkpt lat="52.037785" lon="05.746607"><ele>35.9</ele><time>2021-05-01T14:59:19Z</time><name>PT6362</name></trkpt>
<trkpt lat="52.037793" lon="05.746573"><ele>35.9</ele><time>2021-05-01T14:59:20Z</time><name>PT6363</name></trkpt>
<trkpt lat="52.037795" lon="05.746546"><ele>35.8</ele><time>2021-05-01T14:59:21Z</time><name>PT6364</name></trkpt>
<trkpt lat="52.037791" lon="05.746533"><ele>35.8</ele><time>2021-05-01T14:59:23Z</time><name>PT6365</name></trkpt>
<trkpt lat="52.037790" lon="05.746528"><ele>35.8</ele><time>2021-05-01T14:59:23Z</time><name>PT6366</name></trkpt>
<trkpt lat="52.037792" lon="05.746520"><ele>36</ele><time>2021-05-01T14:59:24Z</time><name>PT6367</name></trkpt>
<trkpt lat="52.037792" lon="05.746499"><ele>36</ele><time>2021-05-01T14:59:25Z</time><name>PT6368</name></trkpt>
<trkpt lat="52.037793" lon="05.746469"><ele>36</ele><time>2021-05-01T14:59:26Z</time><name>PT6369</name></trkpt>
<trkpt lat="52.037789" lon="05.746444"><ele>35.9</ele><time>2021-05-01T14:59:27Z</time><name>PT6370</name></trkpt>
<trkpt lat="52.037792" lon="05.746420"><ele>36</ele><time>2021-05-01T14:59:28Z</time><name>PT6371</name></trkpt>
<trkpt lat="52.037791" lon="05.746404"><ele>36</ele><time>2021-05-01T14:59:29Z</time><name>PT6372</name></trkpt>
<trkpt lat="52.037788" lon="05.746395"><ele>36</ele><time>2021-05-01T14:59:30Z</time><name>PT6373</name></trkpt>
<trkpt lat="52.037785" lon="05.746390"><ele>36</ele><time>2021-05-01T14:59:31Z</time><name>PT6374</name></trkpt>
<trkpt lat="52.037789" lon="05.746376"><ele>36.1</ele><time>2021-05-01T14:59:32Z</time><name>PT6375</name></trkpt>
<trkpt lat="52.037795" lon="05.746352"><ele>36.1</ele><time>2021-05-01T14:59:33Z</time><name>PT6376</name></trkpt>
<trkpt lat="52.037797" lon="05.746323"><ele>36.1</ele><time>2021-05-01T14:59:34Z</time><name>PT6377</name></trkpt>
<trkpt lat="52.037807" lon="05.746290"><ele>36.1</ele><time>2021-05-01T14:59:35Z</time><name>PT6378</name></trkpt>
<trkpt lat="52.037813" lon="05.746257"><ele>36.1</ele><time>2021-05-01T14:59:36Z</time><name>PT6379</name></trkpt>
<trkpt lat="52.037812" lon="05.746247"><ele>36.3</ele><time>2021-05-01T14:59:37Z</time><name>PT6380</name></trkpt>
<trkpt lat="52.037812" lon="05.746236"><ele>36.5</ele><time>2021-05-01T14:59:38Z</time><name>PT6381</name></trkpt>
<trkpt lat="52.037812" lon="05.746221"><ele>36.6</ele><time>2021-05-01T14:59:39Z</time><name>PT6382</name></trkpt>
<trkpt lat="52.037809" lon="05.746211"><ele>36.5</ele><time>2021-05-01T14:59:40Z</time><name>PT6383</name></trkpt>
<trkpt lat="52.037809" lon="05.746187"><ele>36.6</ele><time>2021-05-01T14:59:41Z</time><name>PT6384</name></trkpt>
<trkpt lat="52.037816" lon="05.746157"><ele>36.5</ele><time>2021-05-01T14:59:42Z</time><name>PT6385</name></trkpt>
<trkpt lat="52.037819" lon="05.746131"><ele>36.3</ele><time>2021-05-01T14:59:43Z</time><name>PT6386</name></trkpt>
<trkpt lat="52.037819" lon="05.746115"><ele>36.3</ele><time>2021-05-01T14:59:44Z</time><name>PT6387</name></trkpt>
<trkpt lat="52.037821" lon="05.746112"><ele>36.2</ele><time>2021-05-01T14:59:45Z</time><name>PT6388</name></trkpt>
<trkpt lat="52.037820" lon="05.746099"><ele>36.2</ele><time>2021-05-01T14:59:46Z</time><name>PT6389</name></trkpt>
<trkpt lat="52.037820" lon="05.746082"><ele>36.2</ele><time>2021-05-01T14:59:47Z</time><name>PT6390</name></trkpt>
<trkpt lat="52.037822" lon="05.746062"><ele>36.4</ele><time>2021-05-01T14:59:48Z</time><name>PT6391</name></trkpt>
<trkpt lat="52.037814" lon="05.746041"><ele>36.4</ele><time>2021-05-01T14:59:49Z</time><name>PT6392</name></trkpt>
<trkpt lat="52.037814" lon="05.746021"><ele>36.5</ele><time>2021-05-01T14:59:50Z</time><name>PT6393</name></trkpt>
<trkpt lat="52.037819" lon="05.746003"><ele>36.6</ele><time>2021-05-01T14:59:51Z</time><name>PT6394</name></trkpt>
<trkpt lat="52.037823" lon="05.745985"><ele>36.7</ele><time>2021-05-01T14:59:52Z</time><name>PT6395</name></trkpt>
<trkpt lat="52.037823" lon="05.745974"><ele>36.6</ele><time>2021-05-01T14:59:53Z</time><name>PT6396</name></trkpt>
<trkpt lat="52.037826" lon="05.745957"><ele>36.8</ele><time>2021-05-01T14:59:54Z</time><name>PT6397</name></trkpt>
<trkpt lat="52.037825" lon="05.745937"><ele>36.6</ele><time>2021-05-01T14:59:55Z</time><name>PT6398</name></trkpt>
<trkpt lat="52.037832" lon="05.745915"><ele>36.5</ele><time>2021-05-01T14:59:56Z</time><name>PT6399</name></trkpt>
<trkpt lat="52.037835" lon="05.745891"><ele>36.5</ele><time>2021-05-01T14:59:57Z</time><name>PT6400</name></trkpt>
<trkpt lat="52.037835" lon="05.745871"><ele>36.2</ele><time>2021-05-01T14:59:58Z</time><name>PT6401</name></trkpt>
<trkpt lat="52.037832" lon="05.745859"><ele>36.1</ele><time>2021-05-01T14:59:59Z</time><name>PT6402</name></trkpt>
<trkpt lat="52.037832" lon="05.745850"><ele>36.2</ele><time>2021-05-01T15:00:00Z</time><name>PT6403</name></trkpt>
<trkpt lat="52.037830" lon="05.745842"><ele>36.1</ele><time>2021-05-01T15:00:01Z</time><name>PT6404</name></trkpt>
<trkpt lat="52.037825" lon="05.745826"><ele>36</ele><time>2021-05-01T15:00:02Z</time><name>PT6405</name></trkpt>
<trkpt lat="52.037826" lon="05.745798"><ele>35.9</ele><time>2021-05-01T15:00:03Z</time><name>PT6406</name></trkpt>
<trkpt lat="52.037827" lon="05.745768"><ele>36</ele><time>2021-05-01T15:00:04Z</time><name>PT6407</name></trkpt>
<trkpt lat="52.037828" lon="05.745743"><ele>36.1</ele><time>2021-05-01T15:00:05Z</time><name>PT6408</name></trkpt>
<trkpt lat="52.037826" lon="05.745720"><ele>36.1</ele><time>2021-05-01T15:00:06Z</time><name>PT6409</name></trkpt>
<trkpt lat="52.037822" lon="05.745706"><ele>36.2</ele><time>2021-05-01T15:00:07Z</time><name>PT6410</name></trkpt>
<trkpt lat="52.037819" lon="05.745696"><ele>36.1</ele><time>2021-05-01T15:00:08Z</time><name>PT6411</name></trkpt>
<trkpt lat="52.037817" lon="05.745689"><ele>36.1</ele><time>2021-05-01T15:00:09Z</time><name>PT6412</name></trkpt>
<trkpt lat="52.037813" lon="05.745673"><ele>35.9</ele><time>2021-05-01T15:00:10Z</time><name>PT6413</name></trkpt>
<trkpt lat="52.037812" lon="05.745648"><ele>35.7</ele><time>2021-05-01T15:00:11Z</time><name>PT6414</name></trkpt>
<trkpt lat="52.037812" lon="05.745619"><ele>35.8</ele><time>2021-05-01T15:00:13Z</time><name>PT6415</name></trkpt>
<trkpt lat="52.037812" lon="05.745604"><ele>35.8</ele><time>2021-05-01T15:00:13Z</time><name>PT6416</name></trkpt>
<trkpt lat="52.037812" lon="05.745601"><ele>35.7</ele><time>2021-05-01T15:00:14Z</time><name>PT6417</name></trkpt>
<trkpt lat="52.037812" lon="05.745602"><ele>35.6</ele><time>2021-05-01T15:00:15Z</time><name>PT6418</name></trkpt>
<trkpt lat="52.037811" lon="05.745596"><ele>35.9</ele><time>2021-05-01T15:00:16Z</time><name>PT6419</name></trkpt>
<trkpt lat="52.037815" lon="05.745586"><ele>35.9</ele><time>2021-05-01T15:00:17Z</time><name>PT6420</name></trkpt>
<trkpt lat="52.037818" lon="05.745557"><ele>35.8</ele><time>2021-05-01T15:00:18Z</time><name>PT6421</name></trkpt>
<trkpt lat="52.037824" lon="05.745530"><ele>35.9</ele><time>2021-05-01T15:00:19Z</time><name>PT6422</name></trkpt>
<trkpt lat="52.037819" lon="05.745513"><ele>35.9</ele><time>2021-05-01T15:00:20Z</time><name>PT6423</name></trkpt>
<trkpt lat="52.037815" lon="05.745503"><ele>35.9</ele><time>2021-05-01T15:00:21Z</time><name>PT6424</name></trkpt>
<trkpt lat="52.037814" lon="05.745491"><ele>36.1</ele><time>2021-05-01T15:00:22Z</time><name>PT6425</name></trkpt>
<trkpt lat="52.037813" lon="05.745478"><ele>36.1</ele><time>2021-05-01T15:00:23Z</time><name>PT6426</name></trkpt>
<trkpt lat="52.037810" lon="05.745455"><ele>36.4</ele><time>2021-05-01T15:00:24Z</time><name>PT6427</name></trkpt>
<trkpt lat="52.037808" lon="05.745434"><ele>36.5</ele><time>2021-05-01T15:00:25Z</time><name>PT6428</name></trkpt>
<trkpt lat="52.037807" lon="05.745419"><ele>36.5</ele><time>2021-05-01T15:00:26Z</time><name>PT6429</name></trkpt>
<trkpt lat="52.037806" lon="05.745401"><ele>36.5</ele><time>2021-05-01T15:00:27Z</time><name>PT6430</name></trkpt>
<trkpt lat="52.037810" lon="05.745384"><ele>36.4</ele><time>2021-05-01T15:00:28Z</time><name>PT6431</name></trkpt>
<trkpt lat="52.037812" lon="05.745370"><ele>36.4</ele><time>2021-05-01T15:00:29Z</time><name>PT6432</name></trkpt>
<trkpt lat="52.037815" lon="05.745359"><ele>36.4</ele><time>2021-05-01T15:00:30Z</time><name>PT6433</name></trkpt>
<trkpt lat="52.037816" lon="05.745352"><ele>36.4</ele><time>2021-05-01T15:00:31Z</time><name>PT6434</name></trkpt>
<trkpt lat="52.037818" lon="05.745338"><ele>36.3</ele><time>2021-05-01T15:00:32Z</time><name>PT6435</name></trkpt>
<trkpt lat="52.037824" lon="05.745314"><ele>36.1</ele><time>2021-05-01T15:00:33Z</time><name>PT6436</name></trkpt>
<trkpt lat="52.037829" lon="05.745293"><ele>36.1</ele><time>2021-05-01T15:00:34Z</time><name>PT6437</name></trkpt>
<trkpt lat="52.037830" lon="05.745283"><ele>36</ele><time>2021-05-01T15:00:35Z</time><name>PT6438</name></trkpt>
<trkpt lat="52.037827" lon="05.745275"><ele>36.2</ele><time>2021-05-01T15:00:36Z</time><name>PT6439</name></trkpt>
<trkpt lat="52.037823" lon="05.745264"><ele>36.1</ele><time>2021-05-01T15:00:37Z</time><name>PT6440</name></trkpt>
<trkpt lat="52.037828" lon="05.745250"><ele>36.3</ele><time>2021-05-01T15:00:38Z</time><name>PT6441</name></trkpt>
<trkpt lat="52.037834" lon="05.745232"><ele>36.2</ele><time>2021-05-01T15:00:39Z</time><name>PT6442</name></trkpt>
<trkpt lat="52.037836" lon="05.745208"><ele>36.1</ele><time>2021-05-01T15:00:40Z</time><name>PT6443</name></trkpt>
<trkpt lat="52.037839" lon="05.745184"><ele>36.1</ele><time>2021-05-01T15:00:41Z</time><name>PT6444</name></trkpt>
<trkpt lat="52.037839" lon="05.745162"><ele>35.8</ele><time>2021-05-01T15:00:42Z</time><name>PT6445</name></trkpt>
<trkpt lat="52.037841" lon="05.745155"><ele>35.8</ele><time>2021-05-01T15:00:43Z</time><name>PT6446</name></trkpt>
<trkpt lat="52.037841" lon="05.745145"><ele>35.7</ele><time>2021-05-01T15:00:44Z</time><name>PT6447</name></trkpt>
<trkpt lat="52.037840" lon="05.745136"><ele>35.7</ele><time>2021-05-01T15:00:45Z</time><name>PT6448</name></trkpt>
<trkpt lat="52.037836" lon="05.745119"><ele>35.6</ele><time>2021-05-01T15:00:46Z</time><name>PT6449</name></trkpt>
<trkpt lat="52.037838" lon="05.745094"><ele>35.6</ele><time>2021-05-01T15:00:47Z</time><name>PT6450</name></trkpt>
<trkpt lat="52.037838" lon="05.745068"><ele>35.5</ele><time>2021-05-01T15:00:48Z</time><name>PT6451</name></trkpt>
<trkpt lat="52.037840" lon="05.745055"><ele>35.5</ele><time>2021-05-01T15:00:49Z</time><name>PT6452</name></trkpt>
<trkpt lat="52.037840" lon="05.745050"><ele>35.6</ele><time>2021-05-01T15:00:50Z</time><name>PT6453</name></trkpt>
<trkpt lat="52.037840" lon="05.745047"><ele>35.6</ele><time>2021-05-01T15:00:51Z</time><name>PT6454</name></trkpt>
<trkpt lat="52.037843" lon="05.745038"><ele>35.8</ele><time>2021-05-01T15:00:52Z</time><name>PT6455</name></trkpt>
<trkpt lat="52.037841" lon="05.745017"><ele>35.9</ele><time>2021-05-01T15:00:53Z</time><name>PT6456</name></trkpt>
<trkpt lat="52.037838" lon="05.745007"><ele>35.8</ele><time>2021-05-01T15:00:54Z</time><name>PT6457</name></trkpt>
<trkpt lat="52.037834" lon="05.744994"><ele>35.7</ele><time>2021-05-01T15:00:55Z</time><name>PT6458</name></trkpt>
<trkpt lat="52.037834" lon="05.744985"><ele>35.7</ele><time>2021-05-01T15:00:56Z</time><name>PT6459</name></trkpt>
<trkpt lat="52.037828" lon="05.744977"><ele>35.6</ele><time>2021-05-01T15:00:57Z</time><name>PT6460</name></trkpt>
<trkpt lat="52.037819" lon="05.744961"><ele>35.5</ele><time>2021-05-01T15:00:58Z</time><name>PT6461</name></trkpt>
<trkpt lat="52.037809" lon="05.744936"><ele>35.6</ele><time>2021-05-01T15:00:59Z</time><name>PT6462</name></trkpt>
<trkpt lat="52.037803" lon="05.744913"><ele>35.5</ele><time>2021-05-01T15:01:00Z</time><name>PT6463</name></trkpt>
<trkpt lat="52.037798" lon="05.744898"><ele>35.5</ele><time>2021-05-01T15:01:01Z</time><name>PT6464</name></trkpt>
<trkpt lat="52.037794" lon="05.744889"><ele>35.6</ele><time>2021-05-01T15:01:02Z</time><name>PT6465</name></trkpt>
<trkpt lat="52.037792" lon="05.744873"><ele>35.6</ele><time>2021-05-01T15:01:03Z</time><name>PT6466</name></trkpt>
<trkpt lat="52.037788" lon="05.744861"><ele>35.6</ele><time>2021-05-01T15:01:04Z</time><name>PT6467</name></trkpt>
<trkpt lat="52.037789" lon="05.744845"><ele>35.6</ele><time>2021-05-01T15:01:05Z</time><name>PT6468</name></trkpt>
<trkpt lat="52.037783" lon="05.744836"><ele>35.6</ele><time>2021-05-01T15:01:06Z</time><name>PT6469</name></trkpt>
<trkpt lat="52.037783" lon="05.744824"><ele>35.6</ele><time>2021-05-01T15:01:07Z</time><name>PT6470</name></trkpt>
<trkpt lat="52.037768" lon="05.744790"><ele>35.5</ele><time>2021-05-01T15:01:09Z</time><name>PT6471</name></trkpt>
<trkpt lat="52.037765" lon="05.744794"><ele>35.6</ele><time>2021-05-01T15:01:10Z</time><name>PT6472</name></trkpt>
<trkpt lat="52.037763" lon="05.744782"><ele>35.6</ele><time>2021-05-01T15:01:11Z</time><name>PT6473</name></trkpt>
<trkpt lat="52.037754" lon="05.744784"><ele>35.6</ele><time>2021-05-01T15:01:16Z</time><name>PT6474</name></trkpt>
<trkpt lat="52.037749" lon="05.744765"><ele>35.6</ele><time>2021-05-01T15:01:17Z</time><name>PT6475</name></trkpt>
<trkpt lat="52.037746" lon="05.744741"><ele>35.6</ele><time>2021-05-01T15:01:18Z</time><name>PT6476</name></trkpt>
<trkpt lat="52.037747" lon="05.744724"><ele>35.6</ele><time>2021-05-01T15:01:20Z</time><name>PT6477</name></trkpt>
<trkpt lat="52.037750" lon="05.744709"><ele>35.6</ele><time>2021-05-01T15:01:20Z</time><name>PT6478</name></trkpt>
<trkpt lat="52.037752" lon="05.744694"><ele>35.6</ele><time>2021-05-01T15:01:21Z</time><name>PT6479</name></trkpt>
<trkpt lat="52.037752" lon="05.744679"><ele>35.5</ele><time>2021-05-01T15:01:22Z</time><name>PT6480</name></trkpt>
<trkpt lat="52.037761" lon="05.744658"><ele>35.5</ele><time>2021-05-01T15:01:23Z</time><name>PT6481</name></trkpt>
<trkpt lat="52.037765" lon="05.744643"><ele>35.3</ele><time>2021-05-01T15:01:24Z</time><name>PT6482</name></trkpt>
<trkpt lat="52.037775" lon="05.744628"><ele>35.4</ele><time>2021-05-01T15:01:25Z</time><name>PT6483</name></trkpt>
<trkpt lat="52.037777" lon="05.744615"><ele>35.3</ele><time>2021-05-01T15:01:26Z</time><name>PT6484</name></trkpt>
<trkpt lat="52.037783" lon="05.744603"><ele>35.5</ele><time>2021-05-01T15:01:27Z</time><name>PT6485</name></trkpt>
<trkpt lat="52.037793" lon="05.744571"><ele>35.5</ele><time>2021-05-01T15:01:28Z</time><name>PT6486</name></trkpt>
<trkpt lat="52.037800" lon="05.744554"><ele>35.5</ele><time>2021-05-01T15:01:29Z</time><name>PT6487</name></trkpt>
<trkpt lat="52.037804" lon="05.744553"><ele>35.6</ele><time>2021-05-01T15:01:30Z</time><name>PT6488</name></trkpt>
<trkpt lat="52.037805" lon="05.744546"><ele>35.7</ele><time>2021-05-01T15:01:31Z</time><name>PT6489</name></trkpt>
<trkpt lat="52.037809" lon="05.744539"><ele>35.6</ele><time>2021-05-01T15:01:32Z</time><name>PT6490</name></trkpt>
<trkpt lat="52.037815" lon="05.744530"><ele>35.7</ele><time>2021-05-01T15:01:34Z</time><name>PT6491</name></trkpt>
<trkpt lat="52.037826" lon="05.744519"><ele>35.7</ele><time>2021-05-01T15:01:34Z</time><name>PT6492</name></trkpt>
<trkpt lat="52.037836" lon="05.744513"><ele>35.6</ele><time>2021-05-01T15:01:35Z</time><name>PT6493</name></trkpt>
<trkpt lat="52.037845" lon="05.744503"><ele>35.6</ele><time>2021-05-01T15:01:36Z</time><name>PT6494</name></trkpt>
<trkpt lat="52.037853" lon="05.744492"><ele>35.9</ele><time>2021-05-01T15:01:37Z</time><name>PT6495</name></trkpt>
<trkpt lat="52.037861" lon="05.744484"><ele>36</ele><time>2021-05-01T15:01:38Z</time><name>PT6496</name></trkpt>
<trkpt lat="52.037870" lon="05.744477"><ele>35.9</ele><time>2021-05-01T15:01:39Z</time><name>PT6497</name></trkpt>
<trkpt lat="52.037879" lon="05.744471"><ele>36.1</ele><time>2021-05-01T15:01:40Z</time><name>PT6498</name></trkpt>
<trkpt lat="52.037888" lon="05.744462"><ele>36.1</ele><time>2021-05-01T15:01:41Z</time><name>PT6499</name></trkpt>
<trkpt lat="52.037899" lon="05.744452"><ele>36.1</ele><time>2021-05-01T15:01:42Z</time><name>PT6500</name></trkpt>
<trkpt lat="52.037909" lon="05.744448"><ele>36</ele><time>2021-05-01T15:01:43Z</time><name>PT6501</name></trkpt>
<trkpt lat="52.037917" lon="05.744442"><ele>36</ele><time>2021-05-01T15:01:44Z</time><name>PT6502</name></trkpt>
<trkpt lat="52.037925" lon="05.744436"><ele>36</ele><time>2021-05-01T15:01:45Z</time><name>PT6503</name></trkpt>
<trkpt lat="52.037933" lon="05.744427"><ele>36</ele><time>2021-05-01T15:01:46Z</time><name>PT6504</name></trkpt>
<trkpt lat="52.037942" lon="05.744418"><ele>36.1</ele><time>2021-05-01T15:01:47Z</time><name>PT6505</name></trkpt>
<trkpt lat="52.037952" lon="05.744410"><ele>36.1</ele><time>2021-05-01T15:01:48Z</time><name>PT6506</name></trkpt>
<trkpt lat="52.037961" lon="05.744405"><ele>36.1</ele><time>2021-05-01T15:01:49Z</time><name>PT6507</name></trkpt>
<trkpt lat="52.037969" lon="05.744398"><ele>36.1</ele><time>2021-05-01T15:01:50Z</time><name>PT6508</name></trkpt>
<trkpt lat="52.037968" lon="05.744394"><ele>36</ele><time>2021-05-01T15:01:51Z</time><name>PT6509</name></trkpt>
<trkpt lat="52.037971" lon="05.744389"><ele>36.1</ele><time>2021-05-01T15:01:52Z</time><name>PT6510</name></trkpt>
<trkpt lat="52.037975" lon="05.744384"><ele>36.2</ele><time>2021-05-01T15:01:54Z</time><name>PT6511</name></trkpt>
<trkpt lat="52.037979" lon="05.744379"><ele>36.1</ele><time>2021-05-01T15:01:55Z</time><name>PT6512</name></trkpt>
<trkpt lat="52.037994" lon="05.744363"><ele>36.1</ele><time>2021-05-01T15:01:56Z</time><name>PT6513</name></trkpt>
<trkpt lat="52.038000" lon="05.744357"><ele>36</ele><time>2021-05-01T15:01:57Z</time><name>PT6514</name></trkpt>
<trkpt lat="52.038010" lon="05.744349"><ele>35.8</ele><time>2021-05-01T15:01:58Z</time><name>PT6515</name></trkpt>
<trkpt lat="52.038013" lon="05.744343"><ele>35.6</ele><time>2021-05-01T15:02:00Z</time><name>PT6516</name></trkpt>
<trkpt lat="52.038022" lon="05.744332"><ele>35.8</ele><time>2021-05-01T15:02:00Z</time><name>PT6517</name></trkpt>
<trkpt lat="52.038030" lon="05.744320"><ele>36.1</ele><time>2021-05-01T15:02:01Z</time><name>PT6518</name></trkpt>
<trkpt lat="52.038040" lon="05.744306"><ele>36.2</ele><time>2021-05-01T15:02:02Z</time><name>PT6519</name></trkpt>
<trkpt lat="52.038049" lon="05.744294"><ele>36.3</ele><time>2021-05-01T15:02:03Z</time><name>PT6520</name></trkpt>
<trkpt lat="52.038056" lon="05.744284"><ele>36.5</ele><time>2021-05-01T15:02:04Z</time><name>PT6521</name></trkpt>
<trkpt lat="52.038064" lon="05.744275"><ele>36.2</ele><time>2021-05-01T15:02:05Z</time><name>PT6522</name></trkpt>
<trkpt lat="52.038068" lon="05.744273"><ele>36</ele><time>2021-05-01T15:02:06Z</time><name>PT6523</name></trkpt>
<trkpt lat="52.038076" lon="05.744264"><ele>35.9</ele><time>2021-05-01T15:02:07Z</time><name>PT6524</name></trkpt>
<trkpt lat="52.038084" lon="05.744253"><ele>35.7</ele><time>2021-05-01T15:02:08Z</time><name>PT6525</name></trkpt>
<trkpt lat="52.038092" lon="05.744235"><ele>35.7</ele><time>2021-05-01T15:02:09Z</time><name>PT6526</name></trkpt>
<trkpt lat="52.038100" lon="05.744227"><ele>35.7</ele><time>2021-05-01T15:02:10Z</time><name>PT6527</name></trkpt>
<trkpt lat="52.038108" lon="05.744222"><ele>36</ele><time>2021-05-01T15:02:11Z</time><name>PT6528</name></trkpt>
<trkpt lat="52.038116" lon="05.744220"><ele>36.1</ele><time>2021-05-01T15:02:12Z</time><name>PT6529</name></trkpt>
<trkpt lat="52.038126" lon="05.744213"><ele>36.1</ele><time>2021-05-01T15:02:13Z</time><name>PT6530</name></trkpt>
<trkpt lat="52.038137" lon="05.744203"><ele>36.1</ele><time>2021-05-01T15:02:14Z</time><name>PT6531</name></trkpt>
<trkpt lat="52.038147" lon="05.744192"><ele>35.9</ele><time>2021-05-01T15:02:15Z</time><name>PT6532</name></trkpt>
<trkpt lat="52.038159" lon="05.744179"><ele>35.9</ele><time>2021-05-01T15:02:16Z</time><name>PT6533</name></trkpt>
<trkpt lat="52.038167" lon="05.744170"><ele>35.7</ele><time>2021-05-01T15:02:17Z</time><name>PT6534</name></trkpt>
<trkpt lat="52.038176" lon="05.744162"><ele>35.6</ele><time>2021-05-01T15:02:18Z</time><name>PT6535</name></trkpt>
<trkpt lat="52.038187" lon="05.744153"><ele>35.8</ele><time>2021-05-01T15:02:19Z</time><name>PT6536</name></trkpt>
<trkpt lat="52.038196" lon="05.744147"><ele>36</ele><time>2021-05-01T15:02:20Z</time><name>PT6537</name></trkpt>
<trkpt lat="52.038204" lon="05.744139"><ele>36</ele><time>2021-05-01T15:02:21Z</time><name>PT6538</name></trkpt>
<trkpt lat="52.038213" lon="05.744129"><ele>35.5</ele><time>2021-05-01T15:02:22Z</time><name>PT6539</name></trkpt>
<trkpt lat="52.038224" lon="05.744119"><ele>35.1</ele><time>2021-05-01T15:02:24Z</time><name>PT6540</name></trkpt>
<trkpt lat="52.038235" lon="05.744110"><ele>35</ele><time>2021-05-01T15:02:24Z</time><name>PT6541</name></trkpt>
<trkpt lat="52.038244" lon="05.744103"><ele>35.1</ele><time>2021-05-01T15:02:25Z</time><name>PT6542</name></trkpt>
<trkpt lat="52.038252" lon="05.744097"><ele>35.4</ele><time>2021-05-01T15:02:26Z</time><name>PT6543</name></trkpt>
<trkpt lat="52.038261" lon="05.744089"><ele>35.6</ele><time>2021-05-01T15:02:27Z</time><name>PT6544</name></trkpt>
<trkpt lat="52.038267" lon="05.744085"><ele>36.1</ele><time>2021-05-01T15:02:28Z</time><name>PT6545</name></trkpt>
<trkpt lat="52.038275" lon="05.744081"><ele>35.8</ele><time>2021-05-01T15:02:29Z</time><name>PT6546</name></trkpt>
<trkpt lat="52.038282" lon="05.744077"><ele>35.9</ele><time>2021-05-01T15:02:30Z</time><name>PT6547</name></trkpt>
<trkpt lat="52.038287" lon="05.744075"><ele>35.1</ele><time>2021-05-01T15:02:31Z</time><name>PT6548</name></trkpt>
<trkpt lat="52.038293" lon="05.744069"><ele>36.7</ele><time>2021-05-01T15:02:32Z</time><name>PT6549</name></trkpt>
<trkpt lat="52.038302" lon="05.744061"><ele>37.1</ele><time>2021-05-01T15:02:33Z</time><name>PT6550</name></trkpt>
<trkpt lat="52.038310" lon="05.744052"><ele>36.7</ele><time>2021-05-01T15:02:34Z</time><name>PT6551</name></trkpt>
<trkpt lat="52.038317" lon="05.744040"><ele>37</ele><time>2021-05-01T15:02:35Z</time><name>PT6552</name></trkpt>
<trkpt lat="52.038322" lon="05.744032"><ele>36.9</ele><time>2021-05-01T15:02:36Z</time><name>PT6553</name></trkpt>
<trkpt lat="52.038330" lon="05.744024"><ele>36.1</ele><time>2021-05-01T15:02:37Z</time><name>PT6554</name></trkpt>
<trkpt lat="52.038337" lon="05.744017"><ele>36</ele><time>2021-05-01T15:02:38Z</time><name>PT6555</name></trkpt>
<trkpt lat="52.038346" lon="05.744006"><ele>35.8</ele><time>2021-05-01T15:02:39Z</time><name>PT6556</name></trkpt>
<trkpt lat="52.038356" lon="05.743998"><ele>35.6</ele><time>2021-05-01T15:02:40Z</time><name>PT6557</name></trkpt>
<trkpt lat="52.038368" lon="05.743992"><ele>35.7</ele><time>2021-05-01T15:02:41Z</time><name>PT6558</name></trkpt>
<trkpt lat="52.038376" lon="05.743982"><ele>35.9</ele><time>2021-05-01T15:02:42Z</time><name>PT6559</name></trkpt>
<trkpt lat="52.038382" lon="05.743970"><ele>36.3</ele><time>2021-05-01T15:02:43Z</time><name>PT6560</name></trkpt>
<trkpt lat="52.038390" lon="05.743958"><ele>36.1</ele><time>2021-05-01T15:02:44Z</time><name>PT6561</name></trkpt>
<trkpt lat="52.038400" lon="05.743947"><ele>36.3</ele><time>2021-05-01T15:02:45Z</time><name>PT6562</name></trkpt>
<trkpt lat="52.038409" lon="05.743937"><ele>36.1</ele><time>2021-05-01T15:02:46Z</time><name>PT6563</name></trkpt>
<trkpt lat="52.038419" lon="05.743931"><ele>35.9</ele><time>2021-05-01T15:02:47Z</time><name>PT6564</name></trkpt>
<trkpt lat="52.038429" lon="05.743924"><ele>35.9</ele><time>2021-05-01T15:02:48Z</time><name>PT6565</name></trkpt>
<trkpt lat="52.038436" lon="05.743910"><ele>36</ele><time>2021-05-01T15:02:49Z</time><name>PT6566</name></trkpt>
<trkpt lat="52.038446" lon="05.743894"><ele>36.1</ele><time>2021-05-01T15:02:50Z</time><name>PT6567</name></trkpt>
<trkpt lat="52.038457" lon="05.743882"><ele>36.1</ele><time>2021-05-01T15:02:51Z</time><name>PT6568</name></trkpt>
<trkpt lat="52.038468" lon="05.743867"><ele>36.2</ele><time>2021-05-01T15:02:52Z</time><name>PT6569</name></trkpt>
<trkpt lat="52.038478" lon="05.743857"><ele>36.1</ele><time>2021-05-01T15:02:53Z</time><name>PT6570</name></trkpt>
<trkpt lat="52.038487" lon="05.743850"><ele>36.1</ele><time>2021-05-01T15:02:54Z</time><name>PT6571</name></trkpt>
<trkpt lat="52.038495" lon="05.743842"><ele>36.1</ele><time>2021-05-01T15:02:55Z</time><name>PT6572</name></trkpt>
<trkpt lat="52.038506" lon="05.743834"><ele>36.1</ele><time>2021-05-01T15:02:56Z</time><name>PT6573</name></trkpt>
<trkpt lat="52.038515" lon="05.743825"><ele>36</ele><time>2021-05-01T15:02:57Z</time><name>PT6574</name></trkpt>
<trkpt lat="52.038524" lon="05.743816"><ele>36</ele><time>2021-05-01T15:02:58Z</time><name>PT6575</name></trkpt>
<trkpt lat="52.038535" lon="05.743807"><ele>35.9</ele><time>2021-05-01T15:02:59Z</time><name>PT6576</name></trkpt>
<trkpt lat="52.038543" lon="05.743793"><ele>35.9</ele><time>2021-05-01T15:03:00Z</time><name>PT6577</name></trkpt>
<trkpt lat="52.038552" lon="05.743783"><ele>36</ele><time>2021-05-01T15:03:01Z</time><name>PT6578</name></trkpt>
<trkpt lat="52.038558" lon="05.743781"><ele>36</ele><time>2021-05-01T15:03:02Z</time><name>PT6579</name></trkpt>
<trkpt lat="52.038561" lon="05.743778"><ele>35.7</ele><time>2021-05-01T15:03:03Z</time><name>PT6580</name></trkpt>
<trkpt lat="52.038565" lon="05.743770"><ele>35.6</ele><time>2021-05-01T15:03:04Z</time><name>PT6581</name></trkpt>
<trkpt lat="52.038574" lon="05.743756"><ele>35.6</ele><time>2021-05-01T15:03:05Z</time><name>PT6582</name></trkpt>
<trkpt lat="52.038589" lon="05.743747"><ele>35.3</ele><time>2021-05-01T15:03:06Z</time><name>PT6583</name></trkpt>
<trkpt lat="52.038599" lon="05.743738"><ele>35.2</ele><time>2021-05-01T15:03:07Z</time><name>PT6584</name></trkpt>
<trkpt lat="52.038606" lon="05.743728"><ele>35.3</ele><time>2021-05-01T15:03:08Z</time><name>PT6585</name></trkpt>
<trkpt lat="52.038610" lon="05.743720"><ele>35.5</ele><time>2021-05-01T15:03:09Z</time><name>PT6586</name></trkpt>
<trkpt lat="52.038616" lon="05.743716"><ele>35.5</ele><time>2021-05-01T15:03:10Z</time><name>PT6587</name></trkpt>
<trkpt lat="52.038626" lon="05.743709"><ele>35.5</ele><time>2021-05-01T15:03:11Z</time><name>PT6588</name></trkpt>
<trkpt lat="52.038640" lon="05.743694"><ele>35.5</ele><time>2021-05-01T15:03:12Z</time><name>PT6589</name></trkpt>
<trkpt lat="52.038653" lon="05.743681"><ele>35.6</ele><time>2021-05-01T15:03:13Z</time><name>PT6590</name></trkpt>
<trkpt lat="52.038662" lon="05.743676"><ele>35.5</ele><time>2021-05-01T15:03:15Z</time><name>PT6591</name></trkpt>
<trkpt lat="52.038669" lon="05.743671"><ele>35.4</ele><time>2021-05-01T15:03:15Z</time><name>PT6592</name></trkpt>
<trkpt lat="52.038676" lon="05.743673"><ele>35.5</ele><time>2021-05-01T15:03:16Z</time><name>PT6593</name></trkpt>
<trkpt lat="52.038678" lon="05.743669"><ele>35.4</ele><time>2021-05-01T15:03:17Z</time><name>PT6594</name></trkpt>
<trkpt lat="52.038691" lon="05.743650"><ele>35.2</ele><time>2021-05-01T15:03:18Z</time><name>PT6595</name></trkpt>
<trkpt lat="52.038715" lon="05.743637"><ele>35.1</ele><time>2021-05-01T15:03:19Z</time><name>PT6596</name></trkpt>
<trkpt lat="52.038736" lon="05.743624"><ele>35.1</ele><time>2021-05-01T15:03:20Z</time><name>PT6597</name></trkpt>
<trkpt lat="52.038751" lon="05.743614"><ele>35</ele><time>2021-05-01T15:03:21Z</time><name>PT6598</name></trkpt>
<trkpt lat="52.038757" lon="05.743609"><ele>35.2</ele><time>2021-05-01T15:03:22Z</time><name>PT6599</name></trkpt>
<trkpt lat="52.038761" lon="05.743606"><ele>35.1</ele><time>2021-05-01T15:03:23Z</time><name>PT6600</name></trkpt>
<trkpt lat="52.038766" lon="05.743595"><ele>35.3</ele><time>2021-05-01T15:03:24Z</time><name>PT6601</name></trkpt>
<trkpt lat="52.038777" lon="05.743591"><ele>35.5</ele><time>2021-05-01T15:03:25Z</time><name>PT6602</name></trkpt>
<trkpt lat="52.038790" lon="05.743588"><ele>35.5</ele><time>2021-05-01T15:03:26Z</time><name>PT6603</name></trkpt>
<trkpt lat="52.038802" lon="05.743579"><ele>35.4</ele><time>2021-05-01T15:03:27Z</time><name>PT6604</name></trkpt>
<trkpt lat="52.038814" lon="05.743566"><ele>35.6</ele><time>2021-05-01T15:03:28Z</time><name>PT6605</name></trkpt>
<trkpt lat="52.038824" lon="05.743556"><ele>35.6</ele><time>2021-05-01T15:03:29Z</time><name>PT6606</name></trkpt>
<trkpt lat="52.038837" lon="05.743552"><ele>35.3</ele><time>2021-05-01T15:03:30Z</time><name>PT6607</name></trkpt>
<trkpt lat="52.038846" lon="05.743544"><ele>35.4</ele><time>2021-05-01T15:03:31Z</time><name>PT6608</name></trkpt>
<trkpt lat="52.038849" lon="05.743533"><ele>35.6</ele><time>2021-05-01T15:03:32Z</time><name>PT6609</name></trkpt>
<trkpt lat="52.038863" lon="05.743520"><ele>35.6</ele><time>2021-05-01T15:03:34Z</time><name>PT6610</name></trkpt>
<trkpt lat="52.038876" lon="05.743505"><ele>35.4</ele><time>2021-05-01T15:03:34Z</time><name>PT6611</name></trkpt>
<trkpt lat="52.038881" lon="05.743495"><ele>35.5</ele><time>2021-05-01T15:03:35Z</time><name>PT6612</name></trkpt>
<trkpt lat="52.038884" lon="05.743490"><ele>35.7</ele><time>2021-05-01T15:03:36Z</time><name>PT6613</name></trkpt>
<trkpt lat="52.038891" lon="05.743479"><ele>35.7</ele><time>2021-05-01T15:03:37Z</time><name>PT6614</name></trkpt>
<trkpt lat="52.038896" lon="05.743466"><ele>35.8</ele><time>2021-05-01T15:03:38Z</time><name>PT6615</name></trkpt>
<trkpt lat="52.038896" lon="05.743458"><ele>35.8</ele><time>2021-05-01T15:03:39Z</time><name>PT6616</name></trkpt>
<trkpt lat="52.038897" lon="05.743452"><ele>35.9</ele><time>2021-05-01T15:03:40Z</time><name>PT6617</name></trkpt>
<trkpt lat="52.038900" lon="05.743445"><ele>35.9</ele><time>2021-05-01T15:03:41Z</time><name>PT6618</name></trkpt>
<trkpt lat="52.038909" lon="05.743429"><ele>35.8</ele><time>2021-05-01T15:03:42Z</time><name>PT6619</name></trkpt>
<trkpt lat="52.038914" lon="05.743404"><ele>35.8</ele><time>2021-05-01T15:03:43Z</time><name>PT6620</name></trkpt>
<trkpt lat="52.038920" lon="05.743390"><ele>35.7</ele><time>2021-05-01T15:03:44Z</time><name>PT6621</name></trkpt>
<trkpt lat="52.038926" lon="05.743382"><ele>35.7</ele><time>2021-05-01T15:03:45Z</time><name>PT6622</name></trkpt>
<trkpt lat="52.038924" lon="05.743374"><ele>35.7</ele><time>2021-05-01T15:03:46Z</time><name>PT6623</name></trkpt>
<trkpt lat="52.038923" lon="05.743366"><ele>35.8</ele><time>2021-05-01T15:03:47Z</time><name>PT6624</name></trkpt>
<trkpt lat="52.038925" lon="05.743349"><ele>35.9</ele><time>2021-05-01T15:03:48Z</time><name>PT6625</name></trkpt>
<trkpt lat="52.038927" lon="05.743329"><ele>36.1</ele><time>2021-05-01T15:03:49Z</time><name>PT6626</name></trkpt>
<trkpt lat="52.038930" lon="05.743311"><ele>36.1</ele><time>2021-05-01T15:03:50Z</time><name>PT6627</name></trkpt>
<trkpt lat="52.038933" lon="05.743300"><ele>36</ele><time>2021-05-01T15:03:51Z</time><name>PT6628</name></trkpt>
<trkpt lat="52.038936" lon="05.743289"><ele>36</ele><time>2021-05-01T15:03:52Z</time><name>PT6629</name></trkpt>
<trkpt lat="52.038938" lon="05.743279"><ele>35.8</ele><time>2021-05-01T15:03:53Z</time><name>PT6630</name></trkpt>
<trkpt lat="52.038941" lon="05.743268"><ele>35.7</ele><time>2021-05-01T15:03:54Z</time><name>PT6631</name></trkpt>
<trkpt lat="52.038943" lon="05.743250"><ele>35.6</ele><time>2021-05-01T15:03:55Z</time><name>PT6632</name></trkpt>
<trkpt lat="52.038942" lon="05.743243"><ele>35.6</ele><time>2021-05-01T15:03:56Z</time><name>PT6633</name></trkpt>
<trkpt lat="52.038937" lon="05.743233"><ele>35.4</ele><time>2021-05-01T15:03:57Z</time><name>PT6634</name></trkpt>
<trkpt lat="52.038935" lon="05.743219"><ele>35.3</ele><time>2021-05-01T15:03:58Z</time><name>PT6635</name></trkpt>
<trkpt lat="52.038934" lon="05.743209"><ele>35.3</ele><time>2021-05-01T15:03:59Z</time><name>PT6636</name></trkpt>
<trkpt lat="52.038929" lon="05.743194"><ele>35.2</ele><time>2021-05-01T15:04:00Z</time><name>PT6637</name></trkpt>
<trkpt lat="52.038926" lon="05.743177"><ele>35.2</ele><time>2021-05-01T15:04:01Z</time><name>PT6638</name></trkpt>
<trkpt lat="52.038926" lon="05.743160"><ele>35.4</ele><time>2021-05-01T15:04:02Z</time><name>PT6639</name></trkpt>
<trkpt lat="52.038925" lon="05.743146"><ele>35.6</ele><time>2021-05-01T15:04:03Z</time><name>PT6640</name></trkpt>
<trkpt lat="52.038924" lon="05.743127"><ele>35.6</ele><time>2021-05-01T15:04:04Z</time><name>PT6641</name></trkpt>
<trkpt lat="52.038923" lon="05.743114"><ele>35.6</ele><time>2021-05-01T15:04:05Z</time><name>PT6642</name></trkpt>
<trkpt lat="52.038928" lon="05.743091"><ele>35.7</ele><time>2021-05-01T15:04:06Z</time><name>PT6643</name></trkpt>
<trkpt lat="52.038932" lon="05.743061"><ele>35.6</ele><time>2021-05-01T15:04:07Z</time><name>PT6644</name></trkpt>
<trkpt lat="52.038935" lon="05.743039"><ele>35.6</ele><time>2021-05-01T15:04:08Z</time><name>PT6645</name></trkpt>
<trkpt lat="52.038935" lon="05.743018"><ele>35.8</ele><time>2021-05-01T15:04:09Z</time><name>PT6646</name></trkpt>
<trkpt lat="52.038938" lon="05.742999"><ele>35.7</ele><time>2021-05-01T15:04:10Z</time><name>PT6647</name></trkpt>
<trkpt lat="52.038939" lon="05.742987"><ele>35.8</ele><time>2021-05-01T15:04:11Z</time><name>PT6648</name></trkpt>
<trkpt lat="52.038938" lon="05.742979"><ele>35.9</ele><time>2021-05-01T15:04:12Z</time><name>PT6649</name></trkpt>
<trkpt lat="52.038941" lon="05.742963"><ele>35.9</ele><time>2021-05-01T15:04:13Z</time><name>PT6650</name></trkpt>
<trkpt lat="52.038946" lon="05.742936"><ele>35.7</ele><time>2021-05-01T15:04:14Z</time><name>PT6651</name></trkpt>
<trkpt lat="52.038948" lon="05.742912"><ele>35.6</ele><time>2021-05-01T15:04:15Z</time><name>PT6652</name></trkpt>
<trkpt lat="52.038952" lon="05.742892"><ele>35.6</ele><time>2021-05-01T15:04:17Z</time><name>PT6653</name></trkpt>
<trkpt lat="52.038957" lon="05.742877"><ele>35.5</ele><time>2021-05-01T15:04:17Z</time><name>PT6654</name></trkpt>
<trkpt lat="52.038961" lon="05.742867"><ele>35.5</ele><time>2021-05-01T15:04:18Z</time><name>PT6655</name></trkpt>
<trkpt lat="52.038962" lon="05.742860"><ele>35.6</ele><time>2021-05-01T15:04:19Z</time><name>PT6656</name></trkpt>
<trkpt lat="52.038966" lon="05.742848"><ele>35.6</ele><time>2021-05-01T15:04:20Z</time><name>PT6657</name></trkpt>
<trkpt lat="52.038972" lon="05.742828"><ele>35.6</ele><time>2021-05-01T15:04:21Z</time><name>PT6658</name></trkpt>
<trkpt lat="52.038981" lon="05.742802"><ele>35.6</ele><time>2021-05-01T15:04:22Z</time><name>PT6659</name></trkpt>
<trkpt lat="52.038988" lon="05.742776"><ele>35.6</ele><time>2021-05-01T15:04:23Z</time><name>PT6660</name></trkpt>
<trkpt lat="52.038994" lon="05.742754"><ele>35.6</ele><time>2021-05-01T15:04:24Z</time><name>PT6661</name></trkpt>
<trkpt lat="52.038997" lon="05.742738"><ele>35.7</ele><time>2021-05-01T15:04:25Z</time><name>PT6662</name></trkpt>
<trkpt lat="52.038998" lon="05.742722"><ele>35.6</ele><time>2021-05-01T15:04:26Z</time><name>PT6663</name></trkpt>
<trkpt lat="52.038997" lon="05.742705"><ele>35.6</ele><time>2021-05-01T15:04:27Z</time><name>PT6664</name></trkpt>
<trkpt lat="52.038994" lon="05.742690"><ele>35.6</ele><time>2021-05-01T15:04:28Z</time><name>PT6665</name></trkpt>
<trkpt lat="52.038993" lon="05.742675"><ele>35.6</ele><time>2021-05-01T15:04:29Z</time><name>PT6666</name></trkpt>
<trkpt lat="52.038993" lon="05.742661"><ele>35.5</ele><time>2021-05-01T15:04:30Z</time><name>PT6667</name></trkpt>
<trkpt lat="52.038995" lon="05.742642"><ele>35.6</ele><time>2021-05-01T15:04:31Z</time><name>PT6668</name></trkpt>
<trkpt lat="52.038999" lon="05.742626"><ele>35.6</ele><time>2021-05-01T15:04:32Z</time><name>PT6669</name></trkpt>
<trkpt lat="52.039002" lon="05.742612"><ele>35.5</ele><time>2021-05-01T15:04:33Z</time><name>PT6670</name></trkpt>
<trkpt lat="52.039004" lon="05.742598"><ele>35.6</ele><time>2021-05-01T15:04:34Z</time><name>PT6671</name></trkpt>
<trkpt lat="52.039005" lon="05.742580"><ele>35.8</ele><time>2021-05-01T15:04:35Z</time><name>PT6672</name></trkpt>
<trkpt lat="52.039008" lon="05.742563"><ele>35.9</ele><time>2021-05-01T15:04:36Z</time><name>PT6673</name></trkpt>
<trkpt lat="52.039013" lon="05.742544"><ele>36</ele><time>2021-05-01T15:04:37Z</time><name>PT6674</name></trkpt>
<trkpt lat="52.039015" lon="05.742523"><ele>36.1</ele><time>2021-05-01T15:04:38Z</time><name>PT6675</name></trkpt>
<trkpt lat="52.039018" lon="05.742505"><ele>35.8</ele><time>2021-05-01T15:04:39Z</time><name>PT6676</name></trkpt>
<trkpt lat="52.039021" lon="05.742488"><ele>35.7</ele><time>2021-05-01T15:04:40Z</time><name>PT6677</name></trkpt>
<trkpt lat="52.039024" lon="05.742472"><ele>35.7</ele><time>2021-05-01T15:04:41Z</time><name>PT6678</name></trkpt>
<trkpt lat="52.039026" lon="05.742457"><ele>35.7</ele><time>2021-05-01T15:04:42Z</time><name>PT6679</name></trkpt>
<trkpt lat="52.039029" lon="05.742443"><ele>35.8</ele><time>2021-05-01T15:04:43Z</time><name>PT6680</name></trkpt>
<trkpt lat="52.039032" lon="05.742427"><ele>35.9</ele><time>2021-05-01T15:04:44Z</time><name>PT6681</name></trkpt>
<trkpt lat="52.039034" lon="05.742411"><ele>36</ele><time>2021-05-01T15:04:45Z</time><name>PT6682</name></trkpt>
<trkpt lat="52.039036" lon="05.742396"><ele>36</ele><time>2021-05-01T15:04:46Z</time><name>PT6683</name></trkpt>
<trkpt lat="52.039039" lon="05.742380"><ele>36</ele><time>2021-05-01T15:04:47Z</time><name>PT6684</name></trkpt>
<trkpt lat="52.039043" lon="05.742364"><ele>35.9</ele><time>2021-05-01T15:04:48Z</time><name>PT6685</name></trkpt>
<trkpt lat="52.039047" lon="05.742345"><ele>35.9</ele><time>2021-05-01T15:04:49Z</time><name>PT6686</name></trkpt>
<trkpt lat="52.039051" lon="05.742328"><ele>35.7</ele><time>2021-05-01T15:04:50Z</time><name>PT6687</name></trkpt>
<trkpt lat="52.039055" lon="05.742315"><ele>35.8</ele><time>2021-05-01T15:04:51Z</time><name>PT6688</name></trkpt>
<trkpt lat="52.039057" lon="05.742304"><ele>36</ele><time>2021-05-01T15:04:52Z</time><name>PT6689</name></trkpt>
<trkpt lat="52.039057" lon="05.742284"><ele>35.9</ele><time>2021-05-01T15:04:53Z</time><name>PT6690</name></trkpt>
<trkpt lat="52.039059" lon="05.742265"><ele>35.8</ele><time>2021-05-01T15:04:54Z</time><name>PT6691</name></trkpt>
<trkpt lat="52.039063" lon="05.742249"><ele>35.9</ele><time>2021-05-01T15:04:55Z</time><name>PT6692</name></trkpt>
<trkpt lat="52.039067" lon="05.742233"><ele>35.7</ele><time>2021-05-01T15:04:56Z</time><name>PT6693</name></trkpt>
<trkpt lat="52.039071" lon="05.742216"><ele>35.7</ele><time>2021-05-01T15:04:57Z</time><name>PT6694</name></trkpt>
<trkpt lat="52.039074" lon="05.742200"><ele>35.7</ele><time>2021-05-01T15:04:58Z</time><name>PT6695</name></trkpt>
<trkpt lat="52.039076" lon="05.742193"><ele>35.7</ele><time>2021-05-01T15:04:59Z</time><name>PT6696</name></trkpt>
<trkpt lat="52.039077" lon="05.742188"><ele>35.9</ele><time>2021-05-01T15:05:00Z</time><name>PT6697</name></trkpt>
<trkpt lat="52.039081" lon="05.742178"><ele>36</ele><time>2021-05-01T15:05:01Z</time><name>PT6698</name></trkpt>
<trkpt lat="52.039088" lon="05.742158"><ele>36</ele><time>2021-05-01T15:05:02Z</time><name>PT6699</name></trkpt>
<trkpt lat="52.039093" lon="05.742131"><ele>36</ele><time>2021-05-01T15:05:03Z</time><name>PT6700</name></trkpt>
<trkpt lat="52.039096" lon="05.742102"><ele>36</ele><time>2021-05-01T15:05:04Z</time><name>PT6701</name></trkpt>
<trkpt lat="52.039097" lon="05.742086"><ele>36</ele><time>2021-05-01T15:05:05Z</time><name>PT6702</name></trkpt>
<trkpt lat="52.039096" lon="05.742078"><ele>36</ele><time>2021-05-01T15:05:06Z</time><name>PT6703</name></trkpt>
<trkpt lat="52.039094" lon="05.742069"><ele>36</ele><time>2021-05-01T15:05:07Z</time><name>PT6704</name></trkpt>
<trkpt lat="52.039093" lon="05.742055"><ele>36</ele><time>2021-05-01T15:05:09Z</time><name>PT6705</name></trkpt>
<trkpt lat="52.039091" lon="05.742033"><ele>36</ele><time>2021-05-01T15:05:09Z</time><name>PT6706</name></trkpt>
<trkpt lat="52.039092" lon="05.741986"><ele>36</ele><time>2021-05-01T15:05:11Z</time><name>PT6707</name></trkpt>
<trkpt lat="52.039092" lon="05.741976"><ele>36</ele><time>2021-05-01T15:05:12Z</time><name>PT6708</name></trkpt>
<trkpt lat="52.039091" lon="05.741974"><ele>36</ele><time>2021-05-01T15:05:13Z</time><name>PT6709</name></trkpt>
<trkpt lat="52.039091" lon="05.741965"><ele>35.9</ele><time>2021-05-01T15:05:14Z</time><name>PT6710</name></trkpt>
<trkpt lat="52.039093" lon="05.741943"><ele>35.8</ele><time>2021-05-01T15:05:15Z</time><name>PT6711</name></trkpt>
<trkpt lat="52.039098" lon="05.741913"><ele>35.6</ele><time>2021-05-01T15:05:16Z</time><name>PT6712</name></trkpt>
<trkpt lat="52.039100" lon="05.741888"><ele>35.6</ele><time>2021-05-01T15:05:17Z</time><name>PT6713</name></trkpt>
<trkpt lat="52.039101" lon="05.741877"><ele>35.9</ele><time>2021-05-01T15:05:18Z</time><name>PT6714</name></trkpt>
<trkpt lat="52.039097" lon="05.741875"><ele>35.8</ele><time>2021-05-01T15:05:19Z</time><name>PT6715</name></trkpt>
<trkpt lat="52.039093" lon="05.741868"><ele>35.9</ele><time>2021-05-01T15:05:21Z</time><name>PT6716</name></trkpt>
<trkpt lat="52.039094" lon="05.741846"><ele>36</ele><time>2021-05-01T15:05:22Z</time><name>PT6717</name></trkpt>
<trkpt lat="52.039095" lon="05.741817"><ele>36.1</ele><time>2021-05-01T15:05:23Z</time><name>PT6718</name></trkpt>
<trkpt lat="52.039097" lon="05.741792"><ele>36.1</ele><time>2021-05-01T15:05:23Z</time><name>PT6719</name></trkpt>
<trkpt lat="52.039096" lon="05.741780"><ele>36.1</ele><time>2021-05-01T15:05:24Z</time><name>PT6720</name></trkpt>
<trkpt lat="52.039098" lon="05.741776"><ele>36.1</ele><time>2021-05-01T15:05:25Z</time><name>PT6721</name></trkpt>
<trkpt lat="52.039092" lon="05.741771"><ele>36.2</ele><time>2021-05-01T15:05:26Z</time><name>PT6722</name></trkpt>
<trkpt lat="52.039091" lon="05.741757"><ele>36.1</ele><time>2021-05-01T15:05:27Z</time><name>PT6723</name></trkpt>
<trkpt lat="52.039094" lon="05.741737"><ele>36.1</ele><time>2021-05-01T15:05:28Z</time><name>PT6724</name></trkpt>
<trkpt lat="52.039098" lon="05.741715"><ele>36.1</ele><time>2021-05-01T15:05:29Z</time><name>PT6725</name></trkpt>
<trkpt lat="52.039100" lon="05.741698"><ele>36.1</ele><time>2021-05-01T15:05:30Z</time><name>PT6726</name></trkpt>
<trkpt lat="52.039099" lon="05.741690"><ele>36.1</ele><time>2021-05-01T15:05:31Z</time><name>PT6727</name></trkpt>
<trkpt lat="52.039098" lon="05.741685"><ele>36</ele><time>2021-05-01T15:05:32Z</time><name>PT6728</name></trkpt>
<trkpt lat="52.039096" lon="05.741673"><ele>35.9</ele><time>2021-05-01T15:05:33Z</time><name>PT6729</name></trkpt>
<trkpt lat="52.039095" lon="05.741650"><ele>35.6</ele><time>2021-05-01T15:05:34Z</time><name>PT6730</name></trkpt>
<trkpt lat="52.039099" lon="05.741622"><ele>35.6</ele><time>2021-05-01T15:05:35Z</time><name>PT6731</name></trkpt>
<trkpt lat="52.039101" lon="05.741600"><ele>35.6</ele><time>2021-05-01T15:05:36Z</time><name>PT6732</name></trkpt>
<trkpt lat="52.039100" lon="05.741590"><ele>35.7</ele><time>2021-05-01T15:05:37Z</time><name>PT6733</name></trkpt>
<trkpt lat="52.039098" lon="05.741572"><ele>36</ele><time>2021-05-01T15:05:39Z</time><name>PT6734</name></trkpt>
<trkpt lat="52.039096" lon="05.741544"><ele>35.9</ele><time>2021-05-01T15:05:40Z</time><name>PT6735</name></trkpt>
<trkpt lat="52.039100" lon="05.741514"><ele>36</ele><time>2021-05-01T15:05:41Z</time><name>PT6736</name></trkpt>
<trkpt lat="52.039103" lon="05.741479"><ele>35.8</ele><time>2021-05-01T15:05:42Z</time><name>PT6737</name></trkpt>
<trkpt lat="52.039102" lon="05.741452"><ele>35.9</ele><time>2021-05-01T15:05:43Z</time><name>PT6738</name></trkpt>
<trkpt lat="52.039098" lon="05.741437"><ele>35.8</ele><time>2021-05-01T15:05:44Z</time><name>PT6739</name></trkpt>
<trkpt lat="52.039099" lon="05.741421"><ele>35.8</ele><time>2021-05-01T15:05:45Z</time><name>PT6740</name></trkpt>
<trkpt lat="52.039098" lon="05.741400"><ele>36</ele><time>2021-05-01T15:05:46Z</time><name>PT6741</name></trkpt>
<trkpt lat="52.039095" lon="05.741373"><ele>36.1</ele><time>2021-05-01T15:05:47Z</time><name>PT6742</name></trkpt>
<trkpt lat="52.039095" lon="05.741346"><ele>36</ele><time>2021-05-01T15:05:48Z</time><name>PT6743</name></trkpt>
<trkpt lat="52.039093" lon="05.741331"><ele>36</ele><time>2021-05-01T15:05:49Z</time><name>PT6744</name></trkpt>
<trkpt lat="52.039092" lon="05.741322"><ele>36</ele><time>2021-05-01T15:05:50Z</time><name>PT6745</name></trkpt>
<trkpt lat="52.039092" lon="05.741311"><ele>35.9</ele><time>2021-05-01T15:05:51Z</time><name>PT6746</name></trkpt>
<trkpt lat="52.039088" lon="05.741290"><ele>36</ele><time>2021-05-01T15:05:52Z</time><name>PT6747</name></trkpt>
<trkpt lat="52.039087" lon="05.741264"><ele>36</ele><time>2021-05-01T15:05:53Z</time><name>PT6748</name></trkpt>
<trkpt lat="52.039086" lon="05.741244"><ele>36.1</ele><time>2021-05-01T15:05:54Z</time><name>PT6749</name></trkpt>
<trkpt lat="52.039087" lon="05.741230"><ele>36.1</ele><time>2021-05-01T15:05:55Z</time><name>PT6750</name></trkpt>
<trkpt lat="52.039087" lon="05.741222"><ele>36.1</ele><time>2021-05-01T15:05:56Z</time><name>PT6751</name></trkpt>
<trkpt lat="52.039087" lon="05.741218"><ele>36.2</ele><time>2021-05-01T15:05:57Z</time><name>PT6752</name></trkpt>
<trkpt lat="52.039084" lon="05.741202"><ele>36.2</ele><time>2021-05-01T15:05:58Z</time><name>PT6753</name></trkpt>
<trkpt lat="52.039085" lon="05.741177"><ele>36.2</ele><time>2021-05-01T15:05:59Z</time><name>PT6754</name></trkpt>
<trkpt lat="52.039088" lon="05.741158"><ele>36.1</ele><time>2021-05-01T15:06:00Z</time><name>PT6755</name></trkpt>
<trkpt lat="52.039087" lon="05.741153"><ele>36.1</ele><time>2021-05-01T15:06:01Z</time><name>PT6756</name></trkpt>
<trkpt lat="52.039086" lon="05.741150"><ele>36</ele><time>2021-05-01T15:06:02Z</time><name>PT6757</name></trkpt>
<trkpt lat="52.039085" lon="05.741147"><ele>36</ele><time>2021-05-01T15:06:03Z</time><name>PT6758</name></trkpt>
<trkpt lat="52.039084" lon="05.741132"><ele>35.9</ele><time>2021-05-01T15:06:04Z</time><name>PT6759</name></trkpt>
<trkpt lat="52.039084" lon="05.741104"><ele>35.8</ele><time>2021-05-01T15:06:05Z</time><name>PT6760</name></trkpt>
<trkpt lat="52.039084" lon="05.741076"><ele>36</ele><time>2021-05-01T15:06:06Z</time><name>PT6761</name></trkpt>
<trkpt lat="52.039085" lon="05.741057"><ele>36</ele><time>2021-05-01T15:06:07Z</time><name>PT6762</name></trkpt>
<trkpt lat="52.039086" lon="05.741054"><ele>35.9</ele><time>2021-05-01T15:06:08Z</time><name>PT6763</name></trkpt>
<trkpt lat="52.039087" lon="05.741052"><ele>36</ele><time>2021-05-01T15:06:09Z</time><name>PT6764</name></trkpt>
<trkpt lat="52.039085" lon="05.741033"><ele>36</ele><time>2021-05-01T15:06:10Z</time><name>PT6765</name></trkpt>
<trkpt lat="52.039084" lon="05.741002"><ele>36</ele><time>2021-05-01T15:06:11Z</time><name>PT6766</name></trkpt>
<trkpt lat="52.039083" lon="05.740973"><ele>36</ele><time>2021-05-01T15:06:12Z</time><name>PT6767</name></trkpt>
<trkpt lat="52.039080" lon="05.740956"><ele>36.1</ele><time>2021-05-01T15:06:13Z</time><name>PT6768</name></trkpt>
<trkpt lat="52.039076" lon="05.740948"><ele>36.1</ele><time>2021-05-01T15:06:14Z</time><name>PT6769</name></trkpt>
<trkpt lat="52.039076" lon="05.740940"><ele>36.2</ele><time>2021-05-01T15:06:15Z</time><name>PT6770</name></trkpt>
<trkpt lat="52.039074" lon="05.740926"><ele>36.4</ele><time>2021-05-01T15:06:16Z</time><name>PT6771</name></trkpt>
<trkpt lat="52.039075" lon="05.740897"><ele>36.4</ele><time>2021-05-01T15:06:17Z</time><name>PT6772</name></trkpt>
<trkpt lat="52.039073" lon="05.740862"><ele>36.3</ele><time>2021-05-01T15:06:18Z</time><name>PT6773</name></trkpt>
<trkpt lat="52.039072" lon="05.740838"><ele>36.3</ele><time>2021-05-01T15:06:19Z</time><name>PT6774</name></trkpt>
<trkpt lat="52.039072" lon="05.740831"><ele>36.3</ele><time>2021-05-01T15:06:20Z</time><name>PT6775</name></trkpt>
<trkpt lat="52.039070" lon="05.740829"><ele>36.1</ele><time>2021-05-01T15:06:21Z</time><name>PT6776</name></trkpt>
<trkpt lat="52.039067" lon="05.740821"><ele>36.2</ele><time>2021-05-01T15:06:22Z</time><name>PT6777</name></trkpt>
<trkpt lat="52.039066" lon="05.740797"><ele>36.3</ele><time>2021-05-01T15:06:23Z</time><name>PT6778</name></trkpt>
<trkpt lat="52.039067" lon="05.740766"><ele>36.2</ele><time>2021-05-01T15:06:24Z</time><name>PT6779</name></trkpt>
<trkpt lat="52.039068" lon="05.740746"><ele>36.2</ele><time>2021-05-01T15:06:25Z</time><name>PT6780</name></trkpt>
<trkpt lat="52.039068" lon="05.740737"><ele>36.2</ele><time>2021-05-01T15:06:26Z</time><name>PT6781</name></trkpt>
<trkpt lat="52.039066" lon="05.740737"><ele>36.3</ele><time>2021-05-01T15:06:27Z</time><name>PT6782</name></trkpt>
<trkpt lat="52.039067" lon="05.740731"><ele>36.2</ele><time>2021-05-01T15:06:28Z</time><name>PT6783</name></trkpt>
<trkpt lat="52.039067" lon="05.740709"><ele>36.1</ele><time>2021-05-01T15:06:29Z</time><name>PT6784</name></trkpt>
<trkpt lat="52.039069" lon="05.740672"><ele>36.2</ele><time>2021-05-01T15:06:30Z</time><name>PT6785</name></trkpt>
<trkpt lat="52.039072" lon="05.740639"><ele>36.1</ele><time>2021-05-01T15:06:31Z</time><name>PT6786</name></trkpt>
<trkpt lat="52.039071" lon="05.740620"><ele>36.2</ele><time>2021-05-01T15:06:32Z</time><name>PT6787</name></trkpt>
<trkpt lat="52.039069" lon="05.740615"><ele>36.3</ele><time>2021-05-01T15:06:33Z</time><name>PT6788</name></trkpt>
<trkpt lat="52.039069" lon="05.740609"><ele>36.4</ele><time>2021-05-01T15:06:34Z</time><name>PT6789</name></trkpt>
<trkpt lat="52.039069" lon="05.740594"><ele>36.6</ele><time>2021-05-01T15:06:35Z</time><name>PT6790</name></trkpt>
<trkpt lat="52.039063" lon="05.740572"><ele>36.6</ele><time>2021-05-01T15:06:36Z</time><name>PT6791</name></trkpt>
<trkpt lat="52.039062" lon="05.740544"><ele>36.6</ele><time>2021-05-01T15:06:37Z</time><name>PT6792</name></trkpt>
<trkpt lat="52.039063" lon="05.740518"><ele>36.6</ele><time>2021-05-01T15:06:38Z</time><name>PT6793</name></trkpt>
<trkpt lat="52.039063" lon="05.740506"><ele>36.6</ele><time>2021-05-01T15:06:39Z</time><name>PT6794</name></trkpt>
<trkpt lat="52.039061" lon="05.740501"><ele>36.4</ele><time>2021-05-01T15:06:40Z</time><name>PT6795</name></trkpt>
<trkpt lat="52.039062" lon="05.740497"><ele>36.3</ele><time>2021-05-01T15:06:41Z</time><name>PT6796</name></trkpt>
<trkpt lat="52.039060" lon="05.740480"><ele>36.3</ele><time>2021-05-01T15:06:42Z</time><name>PT6797</name></trkpt>
<trkpt lat="52.039056" lon="05.740454"><ele>36.4</ele><time>2021-05-01T15:06:43Z</time><name>PT6798</name></trkpt>
<trkpt lat="52.039054" lon="05.740423"><ele>36.5</ele><time>2021-05-01T15:06:44Z</time><name>PT6799</name></trkpt>
<trkpt lat="52.039052" lon="05.740401"><ele>36.4</ele><time>2021-05-01T15:06:45Z</time><name>PT6800</name></trkpt>
<trkpt lat="52.039050" lon="05.740394"><ele>36.5</ele><time>2021-05-01T15:06:46Z</time><name>PT6801</name></trkpt>
<trkpt lat="52.039049" lon="05.740386"><ele>36.6</ele><time>2021-05-01T15:06:47Z</time><name>PT6802</name></trkpt>
<trkpt lat="52.039047" lon="05.740374"><ele>36.6</ele><time>2021-05-01T15:06:48Z</time><name>PT6803</name></trkpt>
<trkpt lat="52.039045" lon="05.740352"><ele>36.5</ele><time>2021-05-01T15:06:49Z</time><name>PT6804</name></trkpt>
<trkpt lat="52.039045" lon="05.740324"><ele>36.6</ele><time>2021-05-01T15:06:50Z</time><name>PT6805</name></trkpt>
<trkpt lat="52.039043" lon="05.740306"><ele>36.6</ele><time>2021-05-01T15:06:51Z</time><name>PT6806</name></trkpt>
<trkpt lat="52.039041" lon="05.740295"><ele>36.6</ele><time>2021-05-01T15:06:52Z</time><name>PT6807</name></trkpt>
<trkpt lat="52.039040" lon="05.740289"><ele>36.6</ele><time>2021-05-01T15:06:53Z</time><name>PT6808</name></trkpt>
<trkpt lat="52.039033" lon="05.740271"><ele>36.7</ele><time>2021-05-01T15:06:54Z</time><name>PT6809</name></trkpt>
<trkpt lat="52.039029" lon="05.740252"><ele>36.9</ele><time>2021-05-01T15:06:55Z</time><name>PT6810</name></trkpt>
<trkpt lat="52.039026" lon="05.740230"><ele>36.8</ele><time>2021-05-01T15:06:57Z</time><name>PT6811</name></trkpt>
<trkpt lat="52.039025" lon="05.740209"><ele>36.7</ele><time>2021-05-01T15:06:57Z</time><name>PT6812</name></trkpt>
<trkpt lat="52.039023" lon="05.740195"><ele>36.6</ele><time>2021-05-01T15:06:58Z</time><name>PT6813</name></trkpt>
<trkpt lat="52.039022" lon="05.740186"><ele>36.6</ele><time>2021-05-01T15:06:59Z</time><name>PT6814</name></trkpt>
<trkpt lat="52.039021" lon="05.740181"><ele>36.5</ele><time>2021-05-01T15:07:00Z</time><name>PT6815</name></trkpt>
<trkpt lat="52.039021" lon="05.740171"><ele>36.6</ele><time>2021-05-01T15:07:01Z</time><name>PT6816</name></trkpt>
<trkpt lat="52.039019" lon="05.740149"><ele>36.6</ele><time>2021-05-01T15:07:02Z</time><name>PT6817</name></trkpt>
<trkpt lat="52.039018" lon="05.740124"><ele>36.5</ele><time>2021-05-01T15:07:03Z</time><name>PT6818</name></trkpt>
<trkpt lat="52.039018" lon="05.740105"><ele>36.5</ele><time>2021-05-01T15:07:04Z</time><name>PT6819</name></trkpt>
<trkpt lat="52.039018" lon="05.740094"><ele>36.5</ele><time>2021-05-01T15:07:05Z</time><name>PT6820</name></trkpt>
<trkpt lat="52.039019" lon="05.740091"><ele>36.5</ele><time>2021-05-01T15:07:07Z</time><name>PT6821</name></trkpt>
<trkpt lat="52.039018" lon="05.740089"><ele>36.6</ele><time>2021-05-01T15:07:07Z</time><name>PT6822</name></trkpt>
<trkpt lat="52.039014" lon="05.740073"><ele>36.7</ele><time>2021-05-01T15:07:09Z</time><name>PT6823</name></trkpt>
<trkpt lat="52.039009" lon="05.740043"><ele>36.8</ele><time>2021-05-01T15:07:09Z</time><name>PT6824</name></trkpt>
<trkpt lat="52.039007" lon="05.740007"><ele>36.8</ele><time>2021-05-01T15:07:10Z</time><name>PT6825</name></trkpt>
<trkpt lat="52.039005" lon="05.739983"><ele>37</ele><time>2021-05-01T15:07:11Z</time><name>PT6826</name></trkpt>
<trkpt lat="52.039003" lon="05.739971"><ele>37</ele><time>2021-05-01T15:07:12Z</time><name>PT6827</name></trkpt>
<trkpt lat="52.039003" lon="05.739967"><ele>37</ele><time>2021-05-01T15:07:13Z</time><name>PT6828</name></trkpt>
<trkpt lat="52.039002" lon="05.739959"><ele>37.1</ele><time>2021-05-01T15:07:14Z</time><name>PT6829</name></trkpt>
<trkpt lat="52.039000" lon="05.739938"><ele>37</ele><time>2021-05-01T15:07:15Z</time><name>PT6830</name></trkpt>
<trkpt lat="52.038997" lon="05.739902"><ele>37</ele><time>2021-05-01T15:07:16Z</time><name>PT6831</name></trkpt>
<trkpt lat="52.038997" lon="05.739871"><ele>37</ele><time>2021-05-01T15:07:17Z</time><name>PT6832</name></trkpt>
<trkpt lat="52.038994" lon="05.739849"><ele>37</ele><time>2021-05-01T15:07:18Z</time><name>PT6833</name></trkpt>
<trkpt lat="52.038992" lon="05.739844"><ele>37</ele><time>2021-05-01T15:07:19Z</time><name>PT6834</name></trkpt>
<trkpt lat="52.038993" lon="05.739842"><ele>37.1</ele><time>2021-05-01T15:07:20Z</time><name>PT6835</name></trkpt>
<trkpt lat="52.038991" lon="05.739831"><ele>37.1</ele><time>2021-05-01T15:07:21Z</time><name>PT6836</name></trkpt>
<trkpt lat="52.038988" lon="05.739808"><ele>37</ele><time>2021-05-01T15:07:22Z</time><name>PT6837</name></trkpt>
<trkpt lat="52.038987" lon="05.739786"><ele>37.1</ele><time>2021-05-01T15:07:23Z</time><name>PT6838</name></trkpt>
<trkpt lat="52.038985" lon="05.739767"><ele>37</ele><time>2021-05-01T15:07:24Z</time><name>PT6839</name></trkpt>
<trkpt lat="52.038983" lon="05.739748"><ele>37</ele><time>2021-05-01T15:07:25Z</time><name>PT6840</name></trkpt>
<trkpt lat="52.038978" lon="05.739733"><ele>37</ele><time>2021-05-01T15:07:26Z</time><name>PT6841</name></trkpt>
<trkpt lat="52.038975" lon="05.739717"><ele>36.9</ele><time>2021-05-01T15:07:27Z</time><name>PT6842</name></trkpt>
<trkpt lat="52.038972" lon="05.739689"><ele>36.8</ele><time>2021-05-01T15:07:28Z</time><name>PT6843</name></trkpt>
<trkpt lat="52.038970" lon="05.739658"><ele>36.9</ele><time>2021-05-01T15:07:29Z</time><name>PT6844</name></trkpt>
<trkpt lat="52.038970" lon="05.739639"><ele>37</ele><time>2021-05-01T15:07:30Z</time><name>PT6845</name></trkpt>
<trkpt lat="52.038971" lon="05.739634"><ele>37.1</ele><time>2021-05-01T15:07:31Z</time><name>PT6846</name></trkpt>
<trkpt lat="52.038971" lon="05.739633"><ele>37.1</ele><time>2021-05-01T15:07:32Z</time><name>PT6847</name></trkpt>
<trkpt lat="52.038969" lon="05.739617"><ele>37.2</ele><time>2021-05-01T15:07:33Z</time><name>PT6848</name></trkpt>
<trkpt lat="52.038962" lon="05.739584"><ele>37</ele><time>2021-05-01T15:07:34Z</time><name>PT6849</name></trkpt>
<trkpt lat="52.038964" lon="05.739556"><ele>37</ele><time>2021-05-01T15:07:35Z</time><name>PT6850</name></trkpt>
<trkpt lat="52.038964" lon="05.739540"><ele>37</ele><time>2021-05-01T15:07:36Z</time><name>PT6851</name></trkpt>
<trkpt lat="52.038966" lon="05.739537"><ele>37</ele><time>2021-05-01T15:07:37Z</time><name>PT6852</name></trkpt>
<trkpt lat="52.038964" lon="05.739532"><ele>37.1</ele><time>2021-05-01T15:07:38Z</time><name>PT6853</name></trkpt>
<trkpt lat="52.038966" lon="05.739516"><ele>37</ele><time>2021-05-01T15:07:39Z</time><name>PT6854</name></trkpt>
<trkpt lat="52.038970" lon="05.739492"><ele>37.1</ele><time>2021-05-01T15:07:40Z</time><name>PT6855</name></trkpt>
<trkpt lat="52.038971" lon="05.739470"><ele>37</ele><time>2021-05-01T15:07:41Z</time><name>PT6856</name></trkpt>
<trkpt lat="52.038971" lon="05.739463"><ele>37.1</ele><time>2021-05-01T15:07:42Z</time><name>PT6857</name></trkpt>
<trkpt lat="52.038974" lon="05.739463"><ele>37</ele><time>2021-05-01T15:07:43Z</time><name>PT6858</name></trkpt>
<trkpt lat="52.038974" lon="05.739453"><ele>37</ele><time>2021-05-01T15:07:44Z</time><name>PT6859</name></trkpt>
<trkpt lat="52.038987" lon="05.739436"><ele>37</ele><time>2021-05-01T15:07:45Z</time><name>PT6860</name></trkpt>
<trkpt lat="52.038995" lon="05.739420"><ele>37</ele><time>2021-05-01T15:07:46Z</time><name>PT6861</name></trkpt>
<trkpt lat="52.038997" lon="05.739408"><ele>37</ele><time>2021-05-01T15:07:47Z</time><name>PT6862</name></trkpt>
<trkpt lat="52.038996" lon="05.739401"><ele>36.8</ele><time>2021-05-01T15:07:48Z</time><name>PT6863</name></trkpt>
<trkpt lat="52.038993" lon="05.739385"><ele>36.9</ele><time>2021-05-01T15:07:49Z</time><name>PT6864</name></trkpt>
<trkpt lat="52.038991" lon="05.739360"><ele>36.9</ele><time>2021-05-01T15:07:50Z</time><name>PT6865</name></trkpt>
<trkpt lat="52.038993" lon="05.739329"><ele>36.9</ele><time>2021-05-01T15:07:51Z</time><name>PT6866</name></trkpt>
<trkpt lat="52.038994" lon="05.739310"><ele>36.7</ele><time>2021-05-01T15:07:52Z</time><name>PT6867</name></trkpt>
<trkpt lat="52.038995" lon="05.739305"><ele>36.9</ele><time>2021-05-01T15:07:53Z</time><name>PT6868</name></trkpt>
<trkpt lat="52.038997" lon="05.739301"><ele>37</ele><time>2021-05-01T15:07:54Z</time><name>PT6869</name></trkpt>
<trkpt lat="52.038998" lon="05.739285"><ele>36.9</ele><time>2021-05-01T15:07:55Z</time><name>PT6870</name></trkpt>
<trkpt lat="52.038996" lon="05.739252"><ele>37</ele><time>2021-05-01T15:07:56Z</time><name>PT6871</name></trkpt>
<trkpt lat="52.038996" lon="05.739224"><ele>37</ele><time>2021-05-01T15:07:57Z</time><name>PT6872</name></trkpt>
<trkpt lat="52.038993" lon="05.739207"><ele>36.8</ele><time>2021-05-01T15:07:58Z</time><name>PT6873</name></trkpt>
<trkpt lat="52.038994" lon="05.739204"><ele>36.7</ele><time>2021-05-01T15:07:59Z</time><name>PT6874</name></trkpt>
<trkpt lat="52.038995" lon="05.739200"><ele>36.6</ele><time>2021-05-01T15:08:00Z</time><name>PT6875</name></trkpt>
<trkpt lat="52.038993" lon="05.739179"><ele>36.6</ele><time>2021-05-01T15:08:01Z</time><name>PT6876</name></trkpt>
<trkpt lat="52.038994" lon="05.739150"><ele>36.5</ele><time>2021-05-01T15:08:02Z</time><name>PT6877</name></trkpt>
<trkpt lat="52.038996" lon="05.739125"><ele>36.5</ele><time>2021-05-01T15:08:03Z</time><name>PT6878</name></trkpt>
<trkpt lat="52.038993" lon="05.739109"><ele>36.6</ele><time>2021-05-01T15:08:04Z</time><name>PT6879</name></trkpt>
<trkpt lat="52.038991" lon="05.739109"><ele>36.7</ele><time>2021-05-01T15:08:05Z</time><name>PT6880</name></trkpt>
<trkpt lat="52.038990" lon="05.739097"><ele>37</ele><time>2021-05-01T15:08:06Z</time><name>PT6881</name></trkpt>
<trkpt lat="52.038990" lon="05.739073"><ele>37.1</ele><time>2021-05-01T15:08:07Z</time><name>PT6882</name></trkpt>
<trkpt lat="52.038993" lon="05.739046"><ele>37.2</ele><time>2021-05-01T15:08:08Z</time><name>PT6883</name></trkpt>
<trkpt lat="52.038994" lon="05.739029"><ele>37.2</ele><time>2021-05-01T15:08:09Z</time><name>PT6884</name></trkpt>
<trkpt lat="52.038994" lon="05.739023"><ele>37.1</ele><time>2021-05-01T15:08:10Z</time><name>PT6885</name></trkpt>
<trkpt lat="52.038997" lon="05.739019"><ele>37.2</ele><time>2021-05-01T15:08:11Z</time><name>PT6886</name></trkpt>
<trkpt lat="52.038998" lon="05.738999"><ele>37.2</ele><time>2021-05-01T15:08:12Z</time><name>PT6887</name></trkpt>
<trkpt lat="52.038997" lon="05.738970"><ele>37</ele><time>2021-05-01T15:08:13Z</time><name>PT6888</name></trkpt>
<trkpt lat="52.038997" lon="05.738953"><ele>36.9</ele><time>2021-05-01T15:08:14Z</time><name>PT6889</name></trkpt>
<trkpt lat="52.038997" lon="05.738946"><ele>36.9</ele><time>2021-05-01T15:08:15Z</time><name>PT6890</name></trkpt>
<trkpt lat="52.038996" lon="05.738933"><ele>36.7</ele><time>2021-05-01T15:08:16Z</time><name>PT6891</name></trkpt>
<trkpt lat="52.038997" lon="05.738907"><ele>36.6</ele><time>2021-05-01T15:08:17Z</time><name>PT6892</name></trkpt>
<trkpt lat="52.039000" lon="05.738882"><ele>36.6</ele><time>2021-05-01T15:08:18Z</time><name>PT6893</name></trkpt>
<trkpt lat="52.039000" lon="05.738866"><ele>36.6</ele><time>2021-05-01T15:08:19Z</time><name>PT6894</name></trkpt>
<trkpt lat="52.038999" lon="05.738858"><ele>36.6</ele><time>2021-05-01T15:08:20Z</time><name>PT6895</name></trkpt>
<trkpt lat="52.038998" lon="05.738848"><ele>36.6</ele><time>2021-05-01T15:08:21Z</time><name>PT6896</name></trkpt>
<trkpt lat="52.038997" lon="05.738824"><ele>36.7</ele><time>2021-05-01T15:08:22Z</time><name>PT6897</name></trkpt>
<trkpt lat="52.038998" lon="05.738796"><ele>36.6</ele><time>2021-05-01T15:08:23Z</time><name>PT6898</name></trkpt>
<trkpt lat="52.038999" lon="05.738772"><ele>36.9</ele><time>2021-05-01T15:08:24Z</time><name>PT6899</name></trkpt>
<trkpt lat="52.038998" lon="05.738759"><ele>36.9</ele><time>2021-05-01T15:08:25Z</time><name>PT6900</name></trkpt>
<trkpt lat="52.038998" lon="05.738760"><ele>36.9</ele><time>2021-05-01T15:08:26Z</time><name>PT6901</name></trkpt>
<trkpt lat="52.038998" lon="05.738749"><ele>36.8</ele><time>2021-05-01T15:08:27Z</time><name>PT6902</name></trkpt>
<trkpt lat="52.039001" lon="05.738723"><ele>36.9</ele><time>2021-05-01T15:08:28Z</time><name>PT6903</name></trkpt>
<trkpt lat="52.039003" lon="05.738696"><ele>36.8</ele><time>2021-05-01T15:08:29Z</time><name>PT6904</name></trkpt>
<trkpt lat="52.039001" lon="05.738677"><ele>36.8</ele><time>2021-05-01T15:08:30Z</time><name>PT6905</name></trkpt>
<trkpt lat="52.038998" lon="05.738670"><ele>36.7</ele><time>2021-05-01T15:08:31Z</time><name>PT6906</name></trkpt>
<trkpt lat="52.038998" lon="05.738671"><ele>36.8</ele><time>2021-05-01T15:08:32Z</time><name>PT6907</name></trkpt>
<trkpt lat="52.038999" lon="05.738654"><ele>36.7</ele><time>2021-05-01T15:08:33Z</time><name>PT6908</name></trkpt>
<trkpt lat="52.039003" lon="05.738623"><ele>36.6</ele><time>2021-05-01T15:08:34Z</time><name>PT6909</name></trkpt>
<trkpt lat="52.039003" lon="05.738598"><ele>36.6</ele><time>2021-05-01T15:08:35Z</time><name>PT6910</name></trkpt>
<trkpt lat="52.039002" lon="05.738589"><ele>36.6</ele><time>2021-05-01T15:08:36Z</time><name>PT6911</name></trkpt>
<trkpt lat="52.039003" lon="05.738589"><ele>36.5</ele><time>2021-05-01T15:08:37Z</time><name>PT6912</name></trkpt>
<trkpt lat="52.039001" lon="05.738575"><ele>36.5</ele><time>2021-05-01T15:08:38Z</time><name>PT6913</name></trkpt>
<trkpt lat="52.038999" lon="05.738545"><ele>36.5</ele><time>2021-05-01T15:08:39Z</time><name>PT6914</name></trkpt>
<trkpt lat="52.038998" lon="05.738518"><ele>36.6</ele><time>2021-05-01T15:08:40Z</time><name>PT6915</name></trkpt>
<trkpt lat="52.038996" lon="05.738502"><ele>36.7</ele><time>2021-05-01T15:08:41Z</time><name>PT6916</name></trkpt>
<trkpt lat="52.038997" lon="05.738503"><ele>36.9</ele><time>2021-05-01T15:08:42Z</time><name>PT6917</name></trkpt>
<trkpt lat="52.038996" lon="05.738498"><ele>36.8</ele><time>2021-05-01T15:08:43Z</time><name>PT6918</name></trkpt>
<trkpt lat="52.038996" lon="05.738475"><ele>36.8</ele><time>2021-05-01T15:08:44Z</time><name>PT6919</name></trkpt>
<trkpt lat="52.038998" lon="05.738443"><ele>36.7</ele><time>2021-05-01T15:08:45Z</time><name>PT6920</name></trkpt>
<trkpt lat="52.039001" lon="05.738411"><ele>36.6</ele><time>2021-05-01T15:08:46Z</time><name>PT6921</name></trkpt>
<trkpt lat="52.039000" lon="05.738395"><ele>36.6</ele><time>2021-05-01T15:08:47Z</time><name>PT6922</name></trkpt>
<trkpt lat="52.038998" lon="05.738384"><ele>36.6</ele><time>2021-05-01T15:08:48Z</time><name>PT6923</name></trkpt>
<trkpt lat="52.038999" lon="05.738378"><ele>36.6</ele><time>2021-05-01T15:08:49Z</time><name>PT6924</name></trkpt>
<trkpt lat="52.038997" lon="05.738362"><ele>36.7</ele><time>2021-05-01T15:08:50Z</time><name>PT6925</name></trkpt>
<trkpt lat="52.038994" lon="05.738343"><ele>36.9</ele><time>2021-05-01T15:08:51Z</time><name>PT6926</name></trkpt>
<trkpt lat="52.038997" lon="05.738313"><ele>36.9</ele><time>2021-05-01T15:08:52Z</time><name>PT6927</name></trkpt>
<trkpt lat="52.039001" lon="05.738282"><ele>37</ele><time>2021-05-01T15:08:53Z</time><name>PT6928</name></trkpt>
<trkpt lat="52.039003" lon="05.738258"><ele>36.8</ele><time>2021-05-01T15:08:54Z</time><name>PT6929</name></trkpt>
<trkpt lat="52.039001" lon="05.738246"><ele>36.7</ele><time>2021-05-01T15:08:55Z</time><name>PT6930</name></trkpt>
<trkpt lat="52.039001" lon="05.738246"><ele>36.6</ele><time>2021-05-01T15:08:56Z</time><name>PT6931</name></trkpt>
<trkpt lat="52.039002" lon="05.738247"><ele>36.5</ele><time>2021-05-01T15:08:57Z</time><name>PT6932</name></trkpt>
<trkpt lat="52.039000" lon="05.738243"><ele>36.5</ele><time>2021-05-01T15:08:58Z</time><name>PT6933</name></trkpt>
<trkpt lat="52.038996" lon="05.738230"><ele>36.4</ele><time>2021-05-01T15:08:59Z</time><name>PT6934</name></trkpt>
<trkpt lat="52.038994" lon="05.738201"><ele>36.5</ele><time>2021-05-01T15:09:00Z</time><name>PT6935</name></trkpt>
<trkpt lat="52.038997" lon="05.738173"><ele>36.5</ele><time>2021-05-01T15:09:01Z</time><name>PT6936</name></trkpt>
<trkpt lat="52.038997" lon="05.738145"><ele>36.6</ele><time>2021-05-01T15:09:02Z</time><name>PT6937</name></trkpt>
<trkpt lat="52.038996" lon="05.738128"><ele>36.6</ele><time>2021-05-01T15:09:03Z</time><name>PT6938</name></trkpt>
<trkpt lat="52.038993" lon="05.738113"><ele>36.8</ele><time>2021-05-01T15:09:04Z</time><name>PT6939</name></trkpt>
<trkpt lat="52.038991" lon="05.738096"><ele>36.9</ele><time>2021-05-01T15:09:05Z</time><name>PT6940</name></trkpt>
<trkpt lat="52.038992" lon="05.738090"><ele>36.8</ele><time>2021-05-01T15:09:06Z</time><name>PT6941</name></trkpt>
<trkpt lat="52.038992" lon="05.738071"><ele>36.9</ele><time>2021-05-01T15:09:07Z</time><name>PT6942</name></trkpt>
<trkpt lat="52.038994" lon="05.738046"><ele>36.8</ele><time>2021-05-01T15:09:08Z</time><name>PT6943</name></trkpt>
<trkpt lat="52.038994" lon="05.738013"><ele>36.7</ele><time>2021-05-01T15:09:09Z</time><name>PT6944</name></trkpt>
<trkpt lat="52.038995" lon="05.737986"><ele>36.6</ele><time>2021-05-01T15:09:10Z</time><name>PT6945</name></trkpt>
<trkpt lat="52.038994" lon="05.737962"><ele>36.5</ele><time>2021-05-01T15:09:11Z</time><name>PT6946</name></trkpt>
<trkpt lat="52.038992" lon="05.737948"><ele>36.4</ele><time>2021-05-01T15:09:12Z</time><name>PT6947</name></trkpt>
<trkpt lat="52.038990" lon="05.737947"><ele>36.2</ele><time>2021-05-01T15:09:13Z</time><name>PT6948</name></trkpt>
<trkpt lat="52.038988" lon="05.737943"><ele>36.2</ele><time>2021-05-01T15:09:14Z</time><name>PT6949</name></trkpt>
<trkpt lat="52.038985" lon="05.737930"><ele>36.2</ele><time>2021-05-01T15:09:15Z</time><name>PT6950</name></trkpt>
<trkpt lat="52.038988" lon="05.737908"><ele>36.3</ele><time>2021-05-01T15:09:16Z</time><name>PT6951</name></trkpt>
<trkpt lat="52.038989" lon="05.737893"><ele>36.1</ele><time>2021-05-01T15:09:17Z</time><name>PT6952</name></trkpt>
<trkpt lat="52.038987" lon="05.737888"><ele>36.2</ele><time>2021-05-01T15:09:18Z</time><name>PT6953</name></trkpt>
<trkpt lat="52.038986" lon="05.737884"><ele>36.3</ele><time>2021-05-01T15:09:19Z</time><name>PT6954</name></trkpt>
<trkpt lat="52.038984" lon="05.737884"><ele>36.5</ele><time>2021-05-01T15:09:20Z</time><name>PT6955</name></trkpt>
<trkpt lat="52.038984" lon="05.737886"><ele>36.5</ele><time>2021-05-01T15:09:21Z</time><name>PT6956</name></trkpt>
<trkpt lat="52.038983" lon="05.737888"><ele>36.7</ele><time>2021-05-01T15:09:22Z</time><name>PT6957</name></trkpt>
<trkpt lat="52.038984" lon="05.737888"><ele>36.6</ele><time>2021-05-01T15:09:23Z</time><name>PT6958</name></trkpt>
<trkpt lat="52.038983" lon="05.737894"><ele>36.2</ele><time>2021-05-01T15:09:27Z</time><name>PT6959</name></trkpt>
<trkpt lat="52.038985" lon="05.737884"><ele>36.3</ele><time>2021-05-01T15:09:28Z</time><name>PT6960</name></trkpt>
<trkpt lat="52.038984" lon="05.737859"><ele>36.3</ele><time>2021-05-01T15:09:29Z</time><name>PT6961</name></trkpt>
<trkpt lat="52.038985" lon="05.737835"><ele>36.4</ele><time>2021-05-01T15:09:30Z</time><name>PT6962</name></trkpt>
<trkpt lat="52.038983" lon="05.737817"><ele>36.5</ele><time>2021-05-01T15:09:31Z</time><name>PT6963</name></trkpt>
<trkpt lat="52.038976" lon="05.737809"><ele>36.7</ele><time>2021-05-01T15:09:32Z</time><name>PT6964</name></trkpt>
<trkpt lat="52.038976" lon="05.737809"><ele>36.6</ele><time>2021-05-01T15:09:33Z</time><name>PT6965</name></trkpt>
<trkpt lat="52.038977" lon="05.737806"><ele>36.8</ele><time>2021-05-01T15:09:34Z</time><name>PT6966</name></trkpt>
<trkpt lat="52.038975" lon="05.737786"><ele>36.8</ele><time>2021-05-01T15:09:35Z</time><name>PT6967</name></trkpt>
<trkpt lat="52.038970" lon="05.737755"><ele>36.6</ele><time>2021-05-01T15:09:36Z</time><name>PT6968</name></trkpt>
<trkpt lat="52.038966" lon="05.737726"><ele>36.6</ele><time>2021-05-01T15:09:37Z</time><name>PT6969</name></trkpt>
<trkpt lat="52.038974" lon="05.737724"><ele>36.6</ele><time>2021-05-01T15:09:38Z</time><name>PT6970</name></trkpt>
<trkpt lat="52.038977" lon="05.737722"><ele>36.6</ele><time>2021-05-01T15:09:39Z</time><name>PT6971</name></trkpt>
<trkpt lat="52.038976" lon="05.737716"><ele>36.6</ele><time>2021-05-01T15:09:40Z</time><name>PT6972</name></trkpt>
<trkpt lat="52.038973" lon="05.737704"><ele>36.6</ele><time>2021-05-01T15:09:41Z</time><name>PT6973</name></trkpt>
<trkpt lat="52.038969" lon="05.737681"><ele>36.7</ele><time>2021-05-01T15:09:42Z</time><name>PT6974</name></trkpt>
<trkpt lat="52.038968" lon="05.737647"><ele>36.6</ele><time>2021-05-01T15:09:43Z</time><name>PT6975</name></trkpt>
<trkpt lat="52.038967" lon="05.737619"><ele>36.7</ele><time>2021-05-01T15:09:44Z</time><name>PT6976</name></trkpt>
<trkpt lat="52.038964" lon="05.737602"><ele>36.7</ele><time>2021-05-01T15:09:45Z</time><name>PT6977</name></trkpt>
<trkpt lat="52.038961" lon="05.737598"><ele>36.8</ele><time>2021-05-01T15:09:46Z</time><name>PT6978</name></trkpt>
<trkpt lat="52.038960" lon="05.737594"><ele>36.8</ele><time>2021-05-01T15:09:47Z</time><name>PT6979</name></trkpt>
<trkpt lat="52.038959" lon="05.737581"><ele>36.8</ele><time>2021-05-01T15:09:48Z</time><name>PT6980</name></trkpt>
<trkpt lat="52.038955" lon="05.737562"><ele>36.8</ele><time>2021-05-01T15:09:49Z</time><name>PT6981</name></trkpt>
<trkpt lat="52.038953" lon="05.737533"><ele>36.8</ele><time>2021-05-01T15:09:50Z</time><name>PT6982</name></trkpt>
<trkpt lat="52.038950" lon="05.737509"><ele>36.7</ele><time>2021-05-01T15:09:51Z</time><name>PT6983</name></trkpt>
<trkpt lat="52.038948" lon="05.737498"><ele>36.8</ele><time>2021-05-01T15:09:52Z</time><name>PT6984</name></trkpt>
<trkpt lat="52.038941" lon="05.737481"><ele>36.9</ele><time>2021-05-01T15:09:53Z</time><name>PT6985</name></trkpt>
<trkpt lat="52.038936" lon="05.737464"><ele>36.9</ele><time>2021-05-01T15:09:54Z</time><name>PT6986</name></trkpt>
<trkpt lat="52.038933" lon="05.737445"><ele>36.9</ele><time>2021-05-01T15:09:55Z</time><name>PT6987</name></trkpt>
<trkpt lat="52.038929" lon="05.737430"><ele>36.9</ele><time>2021-05-01T15:09:56Z</time><name>PT6988</name></trkpt>
<trkpt lat="52.038926" lon="05.737413"><ele>37</ele><time>2021-05-01T15:09:57Z</time><name>PT6989</name></trkpt>
<trkpt lat="52.038924" lon="05.737398"><ele>37.2</ele><time>2021-05-01T15:09:58Z</time><name>PT6990</name></trkpt>
<trkpt lat="52.038921" lon="05.737381"><ele>37.1</ele><time>2021-05-01T15:09:59Z</time><name>PT6991</name></trkpt>
<trkpt lat="52.038917" lon="05.737366"><ele>37.3</ele><time>2021-05-01T15:10:00Z</time><name>PT6992</name></trkpt>
<trkpt lat="52.038912" lon="05.737350"><ele>37.4</ele><time>2021-05-01T15:10:01Z</time><name>PT6993</name></trkpt>
<trkpt lat="52.038906" lon="05.737335"><ele>37.1</ele><time>2021-05-01T15:10:02Z</time><name>PT6994</name></trkpt>
<trkpt lat="52.038902" lon="05.737320"><ele>37</ele><time>2021-05-01T15:10:03Z</time><name>PT6995</name></trkpt>
<trkpt lat="52.038897" lon="05.737306"><ele>36.9</ele><time>2021-05-01T15:10:04Z</time><name>PT6996</name></trkpt>
<trkpt lat="52.038895" lon="05.737300"><ele>36.6</ele><time>2021-05-01T15:10:05Z</time><name>PT6997</name></trkpt>
<trkpt lat="52.038891" lon="05.737294"><ele>36.5</ele><time>2021-05-01T15:10:06Z</time><name>PT6998</name></trkpt>
<trkpt lat="52.038886" lon="05.737285"><ele>36.6</ele><time>2021-05-01T15:10:07Z</time><name>PT6999</name></trkpt>
<trkpt lat="52.038881" lon="05.737263"><ele>36.4</ele><time>2021-05-01T15:10:08Z</time><name>PT7000</name></trkpt>
<trkpt lat="52.038874" lon="05.737239"><ele>36.6</ele><time>2021-05-01T15:10:09Z</time><name>PT7001</name></trkpt>
<trkpt lat="52.038869" lon="05.737221"><ele>36.8</ele><time>2021-05-01T15:10:10Z</time><name>PT7002</name></trkpt>
<trkpt lat="52.038866" lon="05.737206"><ele>36.8</ele><time>2021-05-01T15:10:11Z</time><name>PT7003</name></trkpt>
<trkpt lat="52.038864" lon="05.737198"><ele>36.9</ele><time>2021-05-01T15:10:12Z</time><name>PT7004</name></trkpt>
<trkpt lat="52.038862" lon="05.737185"><ele>36.9</ele><time>2021-05-01T15:10:13Z</time><name>PT7005</name></trkpt>
<trkpt lat="52.038856" lon="05.737164"><ele>37</ele><time>2021-05-01T15:10:14Z</time><name>PT7006</name></trkpt>
<trkpt lat="52.038849" lon="05.737141"><ele>37</ele><time>2021-05-01T15:10:15Z</time><name>PT7007</name></trkpt>
<trkpt lat="52.038845" lon="05.737121"><ele>37</ele><time>2021-05-01T15:10:16Z</time><name>PT7008</name></trkpt>
<trkpt lat="52.038842" lon="05.737106"><ele>37.2</ele><time>2021-05-01T15:10:17Z</time><name>PT7009</name></trkpt>
<trkpt lat="52.038841" lon="05.737098"><ele>37</ele><time>2021-05-01T15:10:18Z</time><name>PT7010</name></trkpt>
<trkpt lat="52.038837" lon="05.737087"><ele>37</ele><time>2021-05-01T15:10:19Z</time><name>PT7011</name></trkpt>
<trkpt lat="52.038833" lon="05.737068"><ele>37</ele><time>2021-05-01T15:10:20Z</time><name>PT7012</name></trkpt>
<trkpt lat="52.038829" lon="05.737045"><ele>36.9</ele><time>2021-05-01T15:10:21Z</time><name>PT7013</name></trkpt>
<trkpt lat="52.038826" lon="05.737024"><ele>36.8</ele><time>2021-05-01T15:10:22Z</time><name>PT7014</name></trkpt>
<trkpt lat="52.038822" lon="05.737012"><ele>36.9</ele><time>2021-05-01T15:10:23Z</time><name>PT7015</name></trkpt>
<trkpt lat="52.038818" lon="05.737001"><ele>37</ele><time>2021-05-01T15:10:24Z</time><name>PT7016</name></trkpt>
<trkpt lat="52.038814" lon="05.736990"><ele>37</ele><time>2021-05-01T15:10:25Z</time><name>PT7017</name></trkpt>
<trkpt lat="52.038807" lon="05.736974"><ele>36.9</ele><time>2021-05-01T15:10:26Z</time><name>PT7018</name></trkpt>
<trkpt lat="52.038801" lon="05.736951"><ele>37</ele><time>2021-05-01T15:10:27Z</time><name>PT7019</name></trkpt>
<trkpt lat="52.038797" lon="05.736928"><ele>36.9</ele><time>2021-05-01T15:10:28Z</time><name>PT7020</name></trkpt>
<trkpt lat="52.038795" lon="05.736912"><ele>36.9</ele><time>2021-05-01T15:10:29Z</time><name>PT7021</name></trkpt>
<trkpt lat="52.038792" lon="05.736901"><ele>36.7</ele><time>2021-05-01T15:10:30Z</time><name>PT7022</name></trkpt>
<trkpt lat="52.038788" lon="05.736891"><ele>36.9</ele><time>2021-05-01T15:10:31Z</time><name>PT7023</name></trkpt>
<trkpt lat="52.038784" lon="05.736882"><ele>37</ele><time>2021-05-01T15:10:32Z</time><name>PT7024</name></trkpt>
<trkpt lat="52.038777" lon="05.736863"><ele>36.9</ele><time>2021-05-01T15:10:33Z</time><name>PT7025</name></trkpt>
<trkpt lat="52.038773" lon="05.736840"><ele>37</ele><time>2021-05-01T15:10:34Z</time><name>PT7026</name></trkpt>
<trkpt lat="52.038770" lon="05.736820"><ele>37</ele><time>2021-05-01T15:10:35Z</time><name>PT7027</name></trkpt>
<trkpt lat="52.038766" lon="05.736805"><ele>37</ele><time>2021-05-01T15:10:36Z</time><name>PT7028</name></trkpt>
<trkpt lat="52.038760" lon="05.736794"><ele>37.1</ele><time>2021-05-01T15:10:37Z</time><name>PT7029</name></trkpt>
<trkpt lat="52.038757" lon="05.736786"><ele>37</ele><time>2021-05-01T15:10:38Z</time><name>PT7030</name></trkpt>
<trkpt lat="52.038755" lon="05.736781"><ele>37</ele><time>2021-05-01T15:10:39Z</time><name>PT7031</name></trkpt>
<trkpt lat="52.038751" lon="05.736764"><ele>36.8</ele><time>2021-05-01T15:10:40Z</time><name>PT7032</name></trkpt>
<trkpt lat="52.038749" lon="05.736743"><ele>36.8</ele><time>2021-05-01T15:10:41Z</time><name>PT7033</name></trkpt>
<trkpt lat="52.038747" lon="05.736726"><ele>36.9</ele><time>2021-05-01T15:10:42Z</time><name>PT7034</name></trkpt>
<trkpt lat="52.038745" lon="05.736713"><ele>37</ele><time>2021-05-01T15:10:43Z</time><name>PT7035</name></trkpt>
<trkpt lat="52.038745" lon="05.736708"><ele>37</ele><time>2021-05-01T15:10:44Z</time><name>PT7036</name></trkpt>
<trkpt lat="52.038743" lon="05.736705"><ele>37</ele><time>2021-05-01T15:10:45Z</time><name>PT7037</name></trkpt>
<trkpt lat="52.038738" lon="05.736692"><ele>37</ele><time>2021-05-01T15:10:46Z</time><name>PT7038</name></trkpt>
<trkpt lat="52.038730" lon="05.736682"><ele>37</ele><time>2021-05-01T15:10:47Z</time><name>PT7039</name></trkpt>
<trkpt lat="52.038728" lon="05.736661"><ele>37</ele><time>2021-05-01T15:10:48Z</time><name>PT7040</name></trkpt>
<trkpt lat="52.038725" lon="05.736638"><ele>36.9</ele><time>2021-05-01T15:10:49Z</time><name>PT7041</name></trkpt>
<trkpt lat="52.038723" lon="05.736627"><ele>36.8</ele><time>2021-05-01T15:10:50Z</time><name>PT7042</name></trkpt>
<trkpt lat="52.038722" lon="05.736619"><ele>36.7</ele><time>2021-05-01T15:10:51Z</time><name>PT7043</name></trkpt>
<trkpt lat="52.038718" lon="05.736612"><ele>36.9</ele><time>2021-05-01T15:10:52Z</time><name>PT7044</name></trkpt>
<trkpt lat="52.038717" lon="05.736595"><ele>36.9</ele><time>2021-05-01T15:10:53Z</time><name>PT7045</name></trkpt>
<trkpt lat="52.038710" lon="05.736571"><ele>37</ele><time>2021-05-01T15:10:54Z</time><name>PT7046</name></trkpt>
<trkpt lat="52.038706" lon="05.736546"><ele>37</ele><time>2021-05-01T15:10:55Z</time><name>PT7047</name></trkpt>
<trkpt lat="52.038703" lon="05.736529"><ele>37</ele><time>2021-05-01T15:10:56Z</time><name>PT7048</name></trkpt>
<trkpt lat="52.038702" lon="05.736521"><ele>37.1</ele><time>2021-05-01T15:10:57Z</time><name>PT7049</name></trkpt>
<trkpt lat="52.038698" lon="05.736516"><ele>37.3</ele><time>2021-05-01T15:10:58Z</time><name>PT7050</name></trkpt>
<trkpt lat="52.038690" lon="05.736491"><ele>37</ele><time>2021-05-01T15:10:59Z</time><name>PT7051</name></trkpt>
<trkpt lat="52.038686" lon="05.736473"><ele>37.2</ele><time>2021-05-01T15:11:00Z</time><name>PT7052</name></trkpt>
<trkpt lat="52.038683" lon="05.736456"><ele>37.1</ele><time>2021-05-01T15:11:01Z</time><name>PT7053</name></trkpt>
<trkpt lat="52.038678" lon="05.736438"><ele>37</ele><time>2021-05-01T15:11:02Z</time><name>PT7054</name></trkpt>
<trkpt lat="52.038671" lon="05.736424"><ele>37.4</ele><time>2021-05-01T15:11:03Z</time><name>PT7055</name></trkpt>
<trkpt lat="52.038667" lon="05.736406"><ele>37.5</ele><time>2021-05-01T15:11:04Z</time><name>PT7056</name></trkpt>
<trkpt lat="52.038661" lon="05.736389"><ele>37.7</ele><time>2021-05-01T15:11:05Z</time><name>PT7057</name></trkpt>
<trkpt lat="52.038656" lon="05.736373"><ele>37.6</ele><time>2021-05-01T15:11:06Z</time><name>PT7058</name></trkpt>
<trkpt lat="52.038650" lon="05.736355"><ele>37.6</ele><time>2021-05-01T15:11:07Z</time><name>PT7059</name></trkpt>
<trkpt lat="52.038644" lon="05.736339"><ele>37.4</ele><time>2021-05-01T15:11:09Z</time><name>PT7060</name></trkpt>
<trkpt lat="52.038638" lon="05.736322"><ele>37.3</ele><time>2021-05-01T15:11:09Z</time><name>PT7061</name></trkpt>
<trkpt lat="52.038634" lon="05.736307"><ele>37</ele><time>2021-05-01T15:11:10Z</time><name>PT7062</name></trkpt>
<trkpt lat="52.038630" lon="05.736296"><ele>37</ele><time>2021-05-01T15:11:11Z</time><name>PT7063</name></trkpt>
<trkpt lat="52.038628" lon="05.736283"><ele>37</ele><time>2021-05-01T15:11:12Z</time><name>PT7064</name></trkpt>
<trkpt lat="52.038627" lon="05.736269"><ele>36.8</ele><time>2021-05-01T15:11:13Z</time><name>PT7065</name></trkpt>
<trkpt lat="52.038624" lon="05.736248"><ele>36.9</ele><time>2021-05-01T15:11:14Z</time><name>PT7066</name></trkpt>
<trkpt lat="52.038621" lon="05.736231"><ele>37</ele><time>2021-05-01T15:11:15Z</time><name>PT7067</name></trkpt>
<trkpt lat="52.038618" lon="05.736217"><ele>37.1</ele><time>2021-05-01T15:11:16Z</time><name>PT7068</name></trkpt>
<trkpt lat="52.038618" lon="05.736206"><ele>37.1</ele><time>2021-05-01T15:11:17Z</time><name>PT7069</name></trkpt>
<trkpt lat="52.038619" lon="05.736186"><ele>37.3</ele><time>2021-05-01T15:11:18Z</time><name>PT7070</name></trkpt>
<trkpt lat="52.038624" lon="05.736165"><ele>37.4</ele><time>2021-05-01T15:11:19Z</time><name>PT7071</name></trkpt>
<trkpt lat="52.038629" lon="05.736153"><ele>37.4</ele><time>2021-05-01T15:11:20Z</time><name>PT7072</name></trkpt>
<trkpt lat="52.038634" lon="05.736144"><ele>37.2</ele><time>2021-05-01T15:11:21Z</time><name>PT7073</name></trkpt>
<trkpt lat="52.038640" lon="05.736129"><ele>37.2</ele><time>2021-05-01T15:11:22Z</time><name>PT7074</name></trkpt>
<trkpt lat="52.038648" lon="05.736109"><ele>37.2</ele><time>2021-05-01T15:11:23Z</time><name>PT7075</name></trkpt>
<trkpt lat="52.038658" lon="05.736092"><ele>37.1</ele><time>2021-05-01T15:11:24Z</time><name>PT7076</name></trkpt>
<trkpt lat="52.038666" lon="05.736080"><ele>37</ele><time>2021-05-01T15:11:25Z</time><name>PT7077</name></trkpt>
<trkpt lat="52.038670" lon="05.736068"><ele>37</ele><time>2021-05-01T15:11:26Z</time><name>PT7078</name></trkpt>
<trkpt lat="52.038674" lon="05.736059"><ele>36.9</ele><time>2021-05-01T15:11:27Z</time><name>PT7079</name></trkpt>
<trkpt lat="52.038679" lon="05.736052"><ele>37</ele><time>2021-05-01T15:11:28Z</time><name>PT7080</name></trkpt>
<trkpt lat="52.038689" lon="05.736045"><ele>36.9</ele><time>2021-05-01T15:11:29Z</time><name>PT7081</name></trkpt>
<trkpt lat="52.038702" lon="05.736035"><ele>37</ele><time>2021-05-01T15:11:30Z</time><name>PT7082</name></trkpt>
<trkpt lat="52.038710" lon="05.736028"><ele>37</ele><time>2021-05-01T15:11:31Z</time><name>PT7083</name></trkpt>
<trkpt lat="52.038714" lon="05.736022"><ele>37</ele><time>2021-05-01T15:11:32Z</time><name>PT7084</name></trkpt>
<trkpt lat="52.038719" lon="05.736012"><ele>37</ele><time>2021-05-01T15:11:33Z</time><name>PT7085</name></trkpt>
<trkpt lat="52.038725" lon="05.736003"><ele>37</ele><time>2021-05-01T15:11:34Z</time><name>PT7086</name></trkpt>
<trkpt lat="52.038736" lon="05.735988"><ele>37</ele><time>2021-05-01T15:11:35Z</time><name>PT7087</name></trkpt>
<trkpt lat="52.038746" lon="05.735972"><ele>37</ele><time>2021-05-01T15:11:36Z</time><name>PT7088</name></trkpt>
<trkpt lat="52.038755" lon="05.735956"><ele>37</ele><time>2021-05-01T15:11:37Z</time><name>PT7089</name></trkpt>
<trkpt lat="52.038759" lon="05.735944"><ele>37.1</ele><time>2021-05-01T15:11:38Z</time><name>PT7090</name></trkpt>
<trkpt lat="52.038766" lon="05.735943"><ele>37.2</ele><time>2021-05-01T15:11:39Z</time><name>PT7091</name></trkpt>
<trkpt lat="52.038773" lon="05.735937"><ele>37.2</ele><time>2021-05-01T15:11:40Z</time><name>PT7092</name></trkpt>
<trkpt lat="52.038785" lon="05.735925"><ele>37.3</ele><time>2021-05-01T15:11:41Z</time><name>PT7093</name></trkpt>
<trkpt lat="52.038800" lon="05.735908"><ele>37.1</ele><time>2021-05-01T15:11:42Z</time><name>PT7094</name></trkpt>
<trkpt lat="52.038811" lon="05.735890"><ele>37</ele><time>2021-05-01T15:11:43Z</time><name>PT7095</name></trkpt>
<trkpt lat="52.038822" lon="05.735878"><ele>37</ele><time>2021-05-01T15:11:44Z</time><name>PT7096</name></trkpt>
<trkpt lat="52.038832" lon="05.735873"><ele>37</ele><time>2021-05-01T15:11:45Z</time><name>PT7097</name></trkpt>
<trkpt lat="52.038836" lon="05.735870"><ele>37.1</ele><time>2021-05-01T15:11:46Z</time><name>PT7098</name></trkpt>
<trkpt lat="52.038844" lon="05.735863"><ele>37.3</ele><time>2021-05-01T15:11:47Z</time><name>PT7099</name></trkpt>
<trkpt lat="52.038860" lon="05.735852"><ele>37.4</ele><time>2021-05-01T15:11:48Z</time><name>PT7100</name></trkpt>
<trkpt lat="52.038870" lon="05.735838"><ele>37.5</ele><time>2021-05-01T15:11:49Z</time><name>PT7101</name></trkpt>
<trkpt lat="52.038877" lon="05.735827"><ele>37.6</ele><time>2021-05-01T15:11:50Z</time><name>PT7102</name></trkpt>
<trkpt lat="52.038885" lon="05.735815"><ele>37.5</ele><time>2021-05-01T15:11:51Z</time><name>PT7103</name></trkpt>
<trkpt lat="52.038895" lon="05.735804"><ele>37.6</ele><time>2021-05-01T15:11:52Z</time><name>PT7104</name></trkpt>
<trkpt lat="52.038906" lon="05.735795"><ele>37.8</ele><time>2021-05-01T15:11:53Z</time><name>PT7105</name></trkpt>
<trkpt lat="52.038915" lon="05.735787"><ele>37.8</ele><time>2021-05-01T15:11:54Z</time><name>PT7106</name></trkpt>
<trkpt lat="52.038923" lon="05.735780"><ele>37.9</ele><time>2021-05-01T15:11:55Z</time><name>PT7107</name></trkpt>
<trkpt lat="52.038932" lon="05.735772"><ele>37.9</ele><time>2021-05-01T15:11:56Z</time><name>PT7108</name></trkpt>
<trkpt lat="52.038941" lon="05.735763"><ele>37.9</ele><time>2021-05-01T15:11:57Z</time><name>PT7109</name></trkpt>
<trkpt lat="52.038952" lon="05.735756"><ele>37.8</ele><time>2021-05-01T15:11:58Z</time><name>PT7110</name></trkpt>
<trkpt lat="52.038968" lon="05.735742"><ele>37.6</ele><time>2021-05-01T15:11:59Z</time><name>PT7111</name></trkpt>
<trkpt lat="52.038985" lon="05.735727"><ele>37.5</ele><time>2021-05-01T15:12:00Z</time><name>PT7112</name></trkpt>
<trkpt lat="52.038998" lon="05.735720"><ele>37.5</ele><time>2021-05-01T15:12:01Z</time><name>PT7113</name></trkpt>
<trkpt lat="52.039011" lon="05.735709"><ele>37.4</ele><time>2021-05-01T15:12:02Z</time><name>PT7114</name></trkpt>
<trkpt lat="52.039020" lon="05.735696"><ele>37.5</ele><time>2021-05-01T15:12:03Z</time><name>PT7115</name></trkpt>
<trkpt lat="52.039026" lon="05.735686"><ele>37.5</ele><time>2021-05-01T15:12:04Z</time><name>PT7116</name></trkpt>
<trkpt lat="52.039027" lon="05.735682"><ele>37.6</ele><time>2021-05-01T15:12:05Z</time><name>PT7117</name></trkpt>
<trkpt lat="52.039027" lon="05.735681"><ele>37.5</ele><time>2021-05-01T15:12:06Z</time><name>PT7118</name></trkpt>
<trkpt lat="52.039032" lon="05.735678"><ele>37.5</ele><time>2021-05-01T15:12:07Z</time><name>PT7119</name></trkpt>
<trkpt lat="52.039040" lon="05.735666"><ele>37.5</ele><time>2021-05-01T15:12:08Z</time><name>PT7120</name></trkpt>
<trkpt lat="52.039051" lon="05.735661"><ele>37.6</ele><time>2021-05-01T15:12:09Z</time><name>PT7121</name></trkpt>
<trkpt lat="52.039063" lon="05.735655"><ele>37.8</ele><time>2021-05-01T15:12:10Z</time><name>PT7122</name></trkpt>
<trkpt lat="52.039071" lon="05.735648"><ele>37.9</ele><time>2021-05-01T15:12:11Z</time><name>PT7123</name></trkpt>
<trkpt lat="52.039080" lon="05.735640"><ele>38</ele><time>2021-05-01T15:12:12Z</time><name>PT7124</name></trkpt>
<trkpt lat="52.039090" lon="05.735628"><ele>38</ele><time>2021-05-01T15:12:13Z</time><name>PT7125</name></trkpt>
<trkpt lat="52.039096" lon="05.735617"><ele>38</ele><time>2021-05-01T15:12:14Z</time><name>PT7126</name></trkpt>
<trkpt lat="52.039105" lon="05.735611"><ele>38</ele><time>2021-05-01T15:12:15Z</time><name>PT7127</name></trkpt>
<trkpt lat="52.039112" lon="05.735608"><ele>38</ele><time>2021-05-01T15:12:16Z</time><name>PT7128</name></trkpt>
<trkpt lat="52.039121" lon="05.735602"><ele>38</ele><time>2021-05-01T15:12:17Z</time><name>PT7129</name></trkpt>
<trkpt lat="52.039131" lon="05.735595"><ele>38.1</ele><time>2021-05-01T15:12:18Z</time><name>PT7130</name></trkpt>
<trkpt lat="52.039135" lon="05.735582"><ele>38.2</ele><time>2021-05-01T15:12:19Z</time><name>PT7131</name></trkpt>
<trkpt lat="52.039141" lon="05.735576"><ele>38.1</ele><time>2021-05-01T15:12:20Z</time><name>PT7132</name></trkpt>
<trkpt lat="52.039150" lon="05.735572"><ele>38</ele><time>2021-05-01T15:12:21Z</time><name>PT7133</name></trkpt>
<trkpt lat="52.039158" lon="05.735568"><ele>38</ele><time>2021-05-01T15:12:22Z</time><name>PT7134</name></trkpt>
<trkpt lat="52.039165" lon="05.735560"><ele>38</ele><time>2021-05-01T15:12:23Z</time><name>PT7135</name></trkpt>
<trkpt lat="52.039171" lon="05.735552"><ele>38.1</ele><time>2021-05-01T15:12:24Z</time><name>PT7136</name></trkpt>
<trkpt lat="52.039177" lon="05.735545"><ele>38.2</ele><time>2021-05-01T15:12:25Z</time><name>PT7137</name></trkpt>
<trkpt lat="52.039185" lon="05.735537"><ele>38.3</ele><time>2021-05-01T15:12:26Z</time><name>PT7138</name></trkpt>
<trkpt lat="52.039193" lon="05.735525"><ele>38.4</ele><time>2021-05-01T15:12:27Z</time><name>PT7139</name></trkpt>
<trkpt lat="52.039200" lon="05.735513"><ele>38.4</ele><time>2021-05-01T15:12:28Z</time><name>PT7140</name></trkpt>
<trkpt lat="52.039208" lon="05.735501"><ele>38.3</ele><time>2021-05-01T15:12:29Z</time><name>PT7141</name></trkpt>
<trkpt lat="52.039215" lon="05.735491"><ele>38.2</ele><time>2021-05-01T15:12:30Z</time><name>PT7142</name></trkpt>
<trkpt lat="52.039223" lon="05.735481"><ele>38.3</ele><time>2021-05-01T15:12:31Z</time><name>PT7143</name></trkpt>
<trkpt lat="52.039228" lon="05.735469"><ele>38.4</ele><time>2021-05-01T15:12:32Z</time><name>PT7144</name></trkpt>
<trkpt lat="52.039232" lon="05.735456"><ele>38.4</ele><time>2021-05-01T15:12:33Z</time><name>PT7145</name></trkpt>
<trkpt lat="52.039235" lon="05.735442"><ele>38.5</ele><time>2021-05-01T15:12:34Z</time><name>PT7146</name></trkpt>
<trkpt lat="52.039238" lon="05.735428"><ele>38.5</ele><time>2021-05-01T15:12:35Z</time><name>PT7147</name></trkpt>
<trkpt lat="52.039243" lon="05.735418"><ele>38.5</ele><time>2021-05-01T15:12:36Z</time><name>PT7148</name></trkpt>
<trkpt lat="52.039248" lon="05.735404"><ele>38.6</ele><time>2021-05-01T15:12:37Z</time><name>PT7149</name></trkpt>
<trkpt lat="52.039250" lon="05.735390"><ele>38.5</ele><time>2021-05-01T15:12:38Z</time><name>PT7150</name></trkpt>
<trkpt lat="52.039252" lon="05.735377"><ele>38.5</ele><time>2021-05-01T15:12:39Z</time><name>PT7151</name></trkpt>
<trkpt lat="52.039255" lon="05.735363"><ele>38.4</ele><time>2021-05-01T15:12:40Z</time><name>PT7152</name></trkpt>
<trkpt lat="52.039257" lon="05.735351"><ele>38.5</ele><time>2021-05-01T15:12:41Z</time><name>PT7153</name></trkpt>
<trkpt lat="52.039260" lon="05.735338"><ele>38.3</ele><time>2021-05-01T15:12:42Z</time><name>PT7154</name></trkpt>
<trkpt lat="52.039265" lon="05.735325"><ele>38.5</ele><time>2021-05-01T15:12:43Z</time><name>PT7155</name></trkpt>
<trkpt lat="52.039267" lon="05.735311"><ele>38.5</ele><time>2021-05-01T15:12:44Z</time><name>PT7156</name></trkpt>
<trkpt lat="52.039270" lon="05.735296"><ele>38.5</ele><time>2021-05-01T15:12:45Z</time><name>PT7157</name></trkpt>
<trkpt lat="52.039271" lon="05.735282"><ele>38.5</ele><time>2021-05-01T15:12:46Z</time><name>PT7158</name></trkpt>
<trkpt lat="52.039274" lon="05.735267"><ele>38.5</ele><time>2021-05-01T15:12:47Z</time><name>PT7159</name></trkpt>
<trkpt lat="52.039278" lon="05.735253"><ele>38.5</ele><time>2021-05-01T15:12:48Z</time><name>PT7160</name></trkpt>
<trkpt lat="52.039282" lon="05.735237"><ele>38.5</ele><time>2021-05-01T15:12:49Z</time><name>PT7161</name></trkpt>
<trkpt lat="52.039286" lon="05.735219"><ele>38.6</ele><time>2021-05-01T15:12:50Z</time><name>PT7162</name></trkpt>
<trkpt lat="52.039290" lon="05.735203"><ele>38.5</ele><time>2021-05-01T15:12:51Z</time><name>PT7163</name></trkpt>
<trkpt lat="52.039293" lon="05.735189"><ele>38.5</ele><time>2021-05-01T15:12:52Z</time><name>PT7164</name></trkpt>
<trkpt lat="52.039297" lon="05.735171"><ele>38.5</ele><time>2021-05-01T15:12:53Z</time><name>PT7165</name></trkpt>
<trkpt lat="52.039302" lon="05.735155"><ele>38.4</ele><time>2021-05-01T15:12:54Z</time><name>PT7166</name></trkpt>
<trkpt lat="52.039309" lon="05.735143"><ele>38.3</ele><time>2021-05-01T15:12:55Z</time><name>PT7167</name></trkpt>
<trkpt lat="52.039314" lon="05.735128"><ele>38.4</ele><time>2021-05-01T15:12:56Z</time><name>PT7168</name></trkpt>
<trkpt lat="52.039318" lon="05.735110"><ele>38.5</ele><time>2021-05-01T15:12:57Z</time><name>PT7169</name></trkpt>
<trkpt lat="52.039322" lon="05.735092"><ele>38.5</ele><time>2021-05-01T15:12:58Z</time><name>PT7170</name></trkpt>
<trkpt lat="52.039326" lon="05.735077"><ele>38.5</ele><time>2021-05-01T15:12:59Z</time><name>PT7171</name></trkpt>
<trkpt lat="52.039330" lon="05.735063"><ele>38.5</ele><time>2021-05-01T15:13:00Z</time><name>PT7172</name></trkpt>
<trkpt lat="52.039333" lon="05.735051"><ele>38.3</ele><time>2021-05-01T15:13:01Z</time><name>PT7173</name></trkpt>
<trkpt lat="52.039336" lon="05.735038"><ele>38.2</ele><time>2021-05-01T15:13:02Z</time><name>PT7174</name></trkpt>
<trkpt lat="52.039339" lon="05.735025"><ele>38.2</ele><time>2021-05-01T15:13:03Z</time><name>PT7175</name></trkpt>
<trkpt lat="52.039339" lon="05.735008"><ele>38.3</ele><time>2021-05-01T15:13:04Z</time><name>PT7176</name></trkpt>
<trkpt lat="52.039341" lon="05.734993"><ele>38.3</ele><time>2021-05-01T15:13:05Z</time><name>PT7177</name></trkpt>
<trkpt lat="52.039344" lon="05.734975"><ele>38.5</ele><time>2021-05-01T15:13:06Z</time><name>PT7178</name></trkpt>
<trkpt lat="52.039347" lon="05.734960"><ele>38.4</ele><time>2021-05-01T15:13:07Z</time><name>PT7179</name></trkpt>
<trkpt lat="52.039351" lon="05.734945"><ele>38.3</ele><time>2021-05-01T15:13:08Z</time><name>PT7180</name></trkpt>
<trkpt lat="52.039355" lon="05.734929"><ele>38.4</ele><time>2021-05-01T15:13:09Z</time><name>PT7181</name></trkpt>
<trkpt lat="52.039361" lon="05.734913"><ele>38.4</ele><time>2021-05-01T15:13:10Z</time><name>PT7182</name></trkpt>
<trkpt lat="52.039365" lon="05.734900"><ele>38.3</ele><time>2021-05-01T15:13:11Z</time><name>PT7183</name></trkpt>
<trkpt lat="52.039369" lon="05.734886"><ele>38.4</ele><time>2021-05-01T15:13:12Z</time><name>PT7184</name></trkpt>
<trkpt lat="52.039374" lon="05.734873"><ele>38.4</ele><time>2021-05-01T15:13:13Z</time><name>PT7185</name></trkpt>
<trkpt lat="52.039379" lon="05.734859"><ele>38.2</ele><time>2021-05-01T15:13:14Z</time><name>PT7186</name></trkpt>
<trkpt lat="52.039383" lon="05.734844"><ele>38.2</ele><time>2021-05-01T15:13:15Z</time><name>PT7187</name></trkpt>
<trkpt lat="52.039386" lon="05.734826"><ele>38.2</ele><time>2021-05-01T15:13:16Z</time><name>PT7188</name></trkpt>
<trkpt lat="52.039389" lon="05.734813"><ele>38.1</ele><time>2021-05-01T15:13:17Z</time><name>PT7189</name></trkpt>
<trkpt lat="52.039393" lon="05.734797"><ele>38.3</ele><time>2021-05-01T15:13:18Z</time><name>PT7190</name></trkpt>
<trkpt lat="52.039396" lon="05.734783"><ele>38.2</ele><time>2021-05-01T15:13:19Z</time><name>PT7191</name></trkpt>
<trkpt lat="52.039400" lon="05.734768"><ele>38.1</ele><time>2021-05-01T15:13:20Z</time><name>PT7192</name></trkpt>
<trkpt lat="52.039404" lon="05.734753"><ele>38.1</ele><time>2021-05-01T15:13:21Z</time><name>PT7193</name></trkpt>
<trkpt lat="52.039406" lon="05.734737"><ele>38.1</ele><time>2021-05-01T15:13:23Z</time><name>PT7194</name></trkpt>
<trkpt lat="52.039410" lon="05.734720"><ele>38.1</ele><time>2021-05-01T15:13:23Z</time><name>PT7195</name></trkpt>
<trkpt lat="52.039414" lon="05.734699"><ele>38.1</ele><time>2021-05-01T15:13:24Z</time><name>PT7196</name></trkpt>
<trkpt lat="52.039414" lon="05.734682"><ele>38.2</ele><time>2021-05-01T15:13:25Z</time><name>PT7197</name></trkpt>
<trkpt lat="52.039415" lon="05.734668"><ele>38.1</ele><time>2021-05-01T15:13:26Z</time><name>PT7198</name></trkpt>
<trkpt lat="52.039419" lon="05.734655"><ele>38.1</ele><time>2021-05-01T15:13:27Z</time><name>PT7199</name></trkpt>
<trkpt lat="52.039426" lon="05.734638"><ele>38.1</ele><time>2021-05-01T15:13:28Z</time><name>PT7200</name></trkpt>
<trkpt lat="52.039434" lon="05.734616"><ele>38</ele><time>2021-05-01T15:13:29Z</time><name>PT7201</name></trkpt>
<trkpt lat="52.039441" lon="05.734591"><ele>38</ele><time>2021-05-01T15:13:30Z</time><name>PT7202</name></trkpt>
<trkpt lat="52.039445" lon="05.734572"><ele>38.2</ele><time>2021-05-01T15:13:31Z</time><name>PT7203</name></trkpt>
<trkpt lat="52.039448" lon="05.734562"><ele>38.1</ele><time>2021-05-01T15:13:32Z</time><name>PT7204</name></trkpt>
<trkpt lat="52.039448" lon="05.734552"><ele>38</ele><time>2021-05-01T15:13:33Z</time><name>PT7205</name></trkpt>
<trkpt lat="52.039452" lon="05.734539"><ele>38.1</ele><time>2021-05-01T15:13:34Z</time><name>PT7206</name></trkpt>
<trkpt lat="52.039459" lon="05.734520"><ele>38</ele><time>2021-05-01T15:13:35Z</time><name>PT7207</name></trkpt>
<trkpt lat="52.039464" lon="05.734499"><ele>37.9</ele><time>2021-05-01T15:13:36Z</time><name>PT7208</name></trkpt>
<trkpt lat="52.039469" lon="05.734482"><ele>38</ele><time>2021-05-01T15:13:37Z</time><name>PT7209</name></trkpt>
<trkpt lat="52.039469" lon="05.734469"><ele>37.8</ele><time>2021-05-01T15:13:38Z</time><name>PT7210</name></trkpt>
<trkpt lat="52.039471" lon="05.734461"><ele>37.7</ele><time>2021-05-01T15:13:39Z</time><name>PT7211</name></trkpt>
<trkpt lat="52.039476" lon="05.734454"><ele>37.8</ele><time>2021-05-01T15:13:40Z</time><name>PT7212</name></trkpt>
<trkpt lat="52.039485" lon="05.734438"><ele>37.7</ele><time>2021-05-01T15:13:41Z</time><name>PT7213</name></trkpt>
<trkpt lat="52.039493" lon="05.734418"><ele>37.7</ele><time>2021-05-01T15:13:42Z</time><name>PT7214</name></trkpt>
<trkpt lat="52.039499" lon="05.734397"><ele>37.9</ele><time>2021-05-01T15:13:43Z</time><name>PT7215</name></trkpt>
<trkpt lat="52.039504" lon="05.734385"><ele>37.8</ele><time>2021-05-01T15:13:44Z</time><name>PT7216</name></trkpt>
<trkpt lat="52.039509" lon="05.734375"><ele>37.7</ele><time>2021-05-01T15:13:45Z</time><name>PT7217</name></trkpt>
<trkpt lat="52.039513" lon="05.734361"><ele>37.8</ele><time>2021-05-01T15:13:46Z</time><name>PT7218</name></trkpt>
<trkpt lat="52.039516" lon="05.734350"><ele>37.7</ele><time>2021-05-01T15:13:47Z</time><name>PT7219</name></trkpt>
<trkpt lat="52.039518" lon="05.734340"><ele>37.7</ele><time>2021-05-01T15:13:48Z</time><name>PT7220</name></trkpt>
<trkpt lat="52.039521" lon="05.734330"><ele>37.9</ele><time>2021-05-01T15:13:49Z</time><name>PT7221</name></trkpt>
<trkpt lat="52.039524" lon="05.734321"><ele>38</ele><time>2021-05-01T15:13:50Z</time><name>PT7222</name></trkpt>
<trkpt lat="52.039529" lon="05.734310"><ele>38.1</ele><time>2021-05-01T15:13:51Z</time><name>PT7223</name></trkpt>
<trkpt lat="52.039532" lon="05.734295"><ele>38.4</ele><time>2021-05-01T15:13:52Z</time><name>PT7224</name></trkpt>
<trkpt lat="52.039534" lon="05.734280"><ele>38.5</ele><time>2021-05-01T15:13:53Z</time><name>PT7225</name></trkpt>
<trkpt lat="52.039536" lon="05.734262"><ele>38.4</ele><time>2021-05-01T15:13:54Z</time><name>PT7226</name></trkpt>
<trkpt lat="52.039541" lon="05.734250"><ele>38.2</ele><time>2021-05-01T15:13:55Z</time><name>PT7227</name></trkpt>
<trkpt lat="52.039544" lon="05.734237"><ele>38</ele><time>2021-05-01T15:13:56Z</time><name>PT7228</name></trkpt>
<trkpt lat="52.039549" lon="05.734218"><ele>38</ele><time>2021-05-01T15:13:57Z</time><name>PT7229</name></trkpt>
<trkpt lat="52.039557" lon="05.734198"><ele>37.9</ele><time>2021-05-01T15:13:58Z</time><name>PT7230</name></trkpt>
<trkpt lat="52.039560" lon="05.734187"><ele>37.7</ele><time>2021-05-01T15:13:59Z</time><name>PT7231</name></trkpt>
<trkpt lat="52.039563" lon="05.734178"><ele>37.7</ele><time>2021-05-01T15:14:00Z</time><name>PT7232</name></trkpt>
<trkpt lat="52.039567" lon="05.734172"><ele>37.5</ele><time>2021-05-01T15:14:01Z</time><name>PT7233</name></trkpt>
<trkpt lat="52.039572" lon="05.734149"><ele>37.4</ele><time>2021-05-01T15:14:02Z</time><name>PT7234</name></trkpt>
<trkpt lat="52.039578" lon="05.734126"><ele>37.3</ele><time>2021-05-01T15:14:03Z</time><name>PT7235</name></trkpt>
<trkpt lat="52.039580" lon="05.734113"><ele>37.4</ele><time>2021-05-01T15:14:04Z</time><name>PT7236</name></trkpt>
<trkpt lat="52.039583" lon="05.734104"><ele>37.4</ele><time>2021-05-01T15:14:05Z</time><name>PT7237</name></trkpt>
<trkpt lat="52.039586" lon="05.734090"><ele>37.5</ele><time>2021-05-01T15:14:06Z</time><name>PT7238</name></trkpt>
<trkpt lat="52.039592" lon="05.734074"><ele>37.5</ele><time>2021-05-01T15:14:07Z</time><name>PT7239</name></trkpt>
<trkpt lat="52.039599" lon="05.734056"><ele>37.5</ele><time>2021-05-01T15:14:08Z</time><name>PT7240</name></trkpt>
<trkpt lat="52.039605" lon="05.734044"><ele>37.5</ele><time>2021-05-01T15:14:09Z</time><name>PT7241</name></trkpt>
<trkpt lat="52.039608" lon="05.734033"><ele>37.5</ele><time>2021-05-01T15:14:10Z</time><name>PT7242</name></trkpt>
<trkpt lat="52.039612" lon="05.734019"><ele>37.5</ele><time>2021-05-01T15:14:12Z</time><name>PT7243</name></trkpt>
<trkpt lat="52.039617" lon="05.733999"><ele>37.5</ele><time>2021-05-01T15:14:12Z</time><name>PT7244</name></trkpt>
<trkpt lat="52.039622" lon="05.733980"><ele>37.4</ele><time>2021-05-01T15:14:13Z</time><name>PT7245</name></trkpt>
<trkpt lat="52.039625" lon="05.733966"><ele>37.3</ele><time>2021-05-01T15:14:14Z</time><name>PT7246</name></trkpt>
<trkpt lat="52.039628" lon="05.733959"><ele>37.2</ele><time>2021-05-01T15:14:15Z</time><name>PT7247</name></trkpt>
<trkpt lat="52.039630" lon="05.733950"><ele>37.1</ele><time>2021-05-01T15:14:17Z</time><name>PT7248</name></trkpt>
<trkpt lat="52.039636" lon="05.733934"><ele>37</ele><time>2021-05-01T15:14:17Z</time><name>PT7249</name></trkpt>
<trkpt lat="52.039640" lon="05.733919"><ele>37</ele><time>2021-05-01T15:14:18Z</time><name>PT7250</name></trkpt>
<trkpt lat="52.039644" lon="05.733907"><ele>37</ele><time>2021-05-01T15:14:19Z</time><name>PT7251</name></trkpt>
<trkpt lat="52.039647" lon="05.733898"><ele>37.1</ele><time>2021-05-01T15:14:20Z</time><name>PT7252</name></trkpt>
<trkpt lat="52.039651" lon="05.733880"><ele>37.1</ele><time>2021-05-01T15:14:21Z</time><name>PT7253</name></trkpt>
<trkpt lat="52.039653" lon="05.733861"><ele>37.4</ele><time>2021-05-01T15:14:22Z</time><name>PT7254</name></trkpt>
<trkpt lat="52.039659" lon="05.733839"><ele>37.5</ele><time>2021-05-01T15:14:23Z</time><name>PT7255</name></trkpt>
<trkpt lat="52.039665" lon="05.733829"><ele>37.6</ele><time>2021-05-01T15:14:24Z</time><name>PT7256</name></trkpt>
<trkpt lat="52.039667" lon="05.733814"><ele>37.8</ele><time>2021-05-01T15:14:25Z</time><name>PT7257</name></trkpt>
<trkpt lat="52.039670" lon="05.733801"><ele>37.8</ele><time>2021-05-01T15:14:26Z</time><name>PT7258</name></trkpt>
<trkpt lat="52.039674" lon="05.733783"><ele>37.8</ele><time>2021-05-01T15:14:27Z</time><name>PT7259</name></trkpt>
<trkpt lat="52.039676" lon="05.733766"><ele>37.9</ele><time>2021-05-01T15:14:28Z</time><name>PT7260</name></trkpt>
<trkpt lat="52.039678" lon="05.733753"><ele>37.8</ele><time>2021-05-01T15:14:29Z</time><name>PT7261</name></trkpt>
<trkpt lat="52.039680" lon="05.733740"><ele>37.7</ele><time>2021-05-01T15:14:30Z</time><name>PT7262</name></trkpt>
<trkpt lat="52.039683" lon="05.733725"><ele>37.8</ele><time>2021-05-01T15:14:31Z</time><name>PT7263</name></trkpt>
<trkpt lat="52.039685" lon="05.733707"><ele>37.9</ele><time>2021-05-01T15:14:32Z</time><name>PT7264</name></trkpt>
<trkpt lat="52.039687" lon="05.733690"><ele>37.7</ele><time>2021-05-01T15:14:33Z</time><name>PT7265</name></trkpt>
<trkpt lat="52.039688" lon="05.733675"><ele>37.8</ele><time>2021-05-01T15:14:34Z</time><name>PT7266</name></trkpt>
<trkpt lat="52.039688" lon="05.733659"><ele>37.7</ele><time>2021-05-01T15:14:35Z</time><name>PT7267</name></trkpt>
<trkpt lat="52.039691" lon="05.733643"><ele>37.7</ele><time>2021-05-01T15:14:36Z</time><name>PT7268</name></trkpt>
<trkpt lat="52.039694" lon="05.733626"><ele>37.7</ele><time>2021-05-01T15:14:37Z</time><name>PT7269</name></trkpt>
<trkpt lat="52.039696" lon="05.733611"><ele>37.8</ele><time>2021-05-01T15:14:38Z</time><name>PT7270</name></trkpt>
<trkpt lat="52.039700" lon="05.733597"><ele>37.9</ele><time>2021-05-01T15:14:39Z</time><name>PT7271</name></trkpt>
<trkpt lat="52.039701" lon="05.733580"><ele>37.7</ele><time>2021-05-01T15:14:40Z</time><name>PT7272</name></trkpt>
<trkpt lat="52.039703" lon="05.733562"><ele>37.7</ele><time>2021-05-01T15:14:41Z</time><name>PT7273</name></trkpt>
<trkpt lat="52.039704" lon="05.733544"><ele>37.8</ele><time>2021-05-01T15:14:42Z</time><name>PT7274</name></trkpt>
<trkpt lat="52.039705" lon="05.733527"><ele>37.9</ele><time>2021-05-01T15:14:43Z</time><name>PT7275</name></trkpt>
<trkpt lat="52.039706" lon="05.733511"><ele>37.7</ele><time>2021-05-01T15:14:44Z</time><name>PT7276</name></trkpt>
<trkpt lat="52.039706" lon="05.733494"><ele>37.7</ele><time>2021-05-01T15:14:45Z</time><name>PT7277</name></trkpt>
<trkpt lat="52.039706" lon="05.733485"><ele>37.7</ele><time>2021-05-01T15:14:46Z</time><name>PT7278</name></trkpt>
<trkpt lat="52.039708" lon="05.733468"><ele>37.7</ele><time>2021-05-01T15:14:47Z</time><name>PT7279</name></trkpt>
<trkpt lat="52.039711" lon="05.733446"><ele>37.8</ele><time>2021-05-01T15:14:48Z</time><name>PT7280</name></trkpt>
<trkpt lat="52.039716" lon="05.733426"><ele>38</ele><time>2021-05-01T15:14:49Z</time><name>PT7281</name></trkpt>
<trkpt lat="52.039718" lon="05.733413"><ele>38</ele><time>2021-05-01T15:14:50Z</time><name>PT7282</name></trkpt>
<trkpt lat="52.039715" lon="05.733402"><ele>38.1</ele><time>2021-05-01T15:14:51Z</time><name>PT7283</name></trkpt>
<trkpt lat="52.039710" lon="05.733395"><ele>38</ele><time>2021-05-01T15:14:52Z</time><name>PT7284</name></trkpt>
<trkpt lat="52.039706" lon="05.733389"><ele>38</ele><time>2021-05-01T15:14:53Z</time><name>PT7285</name></trkpt>
<trkpt lat="52.039703" lon="05.733383"><ele>38</ele><time>2021-05-01T15:14:54Z</time><name>PT7286</name></trkpt>
<trkpt lat="52.039702" lon="05.733384"><ele>38</ele><time>2021-05-01T15:14:55Z</time><name>PT7287</name></trkpt>
<trkpt lat="52.039702" lon="05.733377"><ele>38</ele><time>2021-05-01T15:14:56Z</time><name>PT7288</name></trkpt>
<trkpt lat="52.039702" lon="05.733361"><ele>38</ele><time>2021-05-01T15:14:57Z</time><name>PT7289</name></trkpt>
<trkpt lat="52.039704" lon="05.733353"><ele>38.1</ele><time>2021-05-01T15:14:58Z</time><name>PT7290</name></trkpt>
<trkpt lat="52.039706" lon="05.733347"><ele>37.9</ele><time>2021-05-01T15:14:59Z</time><name>PT7291</name></trkpt>
<trkpt lat="52.039708" lon="05.733338"><ele>37.6</ele><time>2021-05-01T15:15:00Z</time><name>PT7292</name></trkpt>
<trkpt lat="52.039708" lon="05.733316"><ele>37.6</ele><time>2021-05-01T15:15:01Z</time><name>PT7293</name></trkpt>
<trkpt lat="52.039708" lon="05.733292"><ele>37.5</ele><time>2021-05-01T15:15:02Z</time><name>PT7294</name></trkpt>
<trkpt lat="52.039709" lon="05.733275"><ele>37.6</ele><time>2021-05-01T15:15:03Z</time><name>PT7295</name></trkpt>
<trkpt lat="52.039711" lon="05.733266"><ele>37.9</ele><time>2021-05-01T15:15:04Z</time><name>PT7296</name></trkpt>
<trkpt lat="52.039712" lon="05.733255"><ele>37.8</ele><time>2021-05-01T15:15:05Z</time><name>PT7297</name></trkpt>
<trkpt lat="52.039712" lon="05.733239"><ele>37.9</ele><time>2021-05-01T15:15:06Z</time><name>PT7298</name></trkpt>
<trkpt lat="52.039713" lon="05.733218"><ele>37.7</ele><time>2021-05-01T15:15:07Z</time><name>PT7299</name></trkpt>
<trkpt lat="52.039716" lon="05.733200"><ele>37.7</ele><time>2021-05-01T15:15:08Z</time><name>PT7300</name></trkpt>
<trkpt lat="52.039717" lon="05.733186"><ele>37.6</ele><time>2021-05-01T15:15:09Z</time><name>PT7301</name></trkpt>
<trkpt lat="52.039717" lon="05.733171"><ele>37.8</ele><time>2021-05-01T15:15:10Z</time><name>PT7302</name></trkpt>
<trkpt lat="52.039720" lon="05.733157"><ele>37.8</ele><time>2021-05-01T15:15:11Z</time><name>PT7303</name></trkpt>
<trkpt lat="52.039723" lon="05.733144"><ele>37.9</ele><time>2021-05-01T15:15:12Z</time><name>PT7304</name></trkpt>
<trkpt lat="52.039726" lon="05.733124"><ele>37.8</ele><time>2021-05-01T15:15:13Z</time><name>PT7305</name></trkpt>
<trkpt lat="52.039730" lon="05.733101"><ele>37.9</ele><time>2021-05-01T15:15:14Z</time><name>PT7306</name></trkpt>
<trkpt lat="52.039732" lon="05.733089"><ele>37.9</ele><time>2021-05-01T15:15:15Z</time><name>PT7307</name></trkpt>
<trkpt lat="52.039736" lon="05.733081"><ele>37.7</ele><time>2021-05-01T15:15:16Z</time><name>PT7308</name></trkpt>
<trkpt lat="52.039739" lon="05.733075"><ele>37.7</ele><time>2021-05-01T15:15:17Z</time><name>PT7309</name></trkpt>
<trkpt lat="52.039745" lon="05.733064"><ele>37.6</ele><time>2021-05-01T15:15:18Z</time><name>PT7310</name></trkpt>
<trkpt lat="52.039751" lon="05.733045"><ele>37.6</ele><time>2021-05-01T15:15:19Z</time><name>PT7311</name></trkpt>
<trkpt lat="52.039759" lon="05.733029"><ele>37.5</ele><time>2021-05-01T15:15:20Z</time><name>PT7312</name></trkpt>
<trkpt lat="52.039765" lon="05.733016"><ele>37.4</ele><time>2021-05-01T15:15:21Z</time><name>PT7313</name></trkpt>
<trkpt lat="52.039769" lon="05.733005"><ele>37.4</ele><time>2021-05-01T15:15:22Z</time><name>PT7314</name></trkpt>
<trkpt lat="52.039774" lon="05.733000"><ele>37.5</ele><time>2021-05-01T15:15:23Z</time><name>PT7315</name></trkpt>
<trkpt lat="52.039784" lon="05.732986"><ele>37.6</ele><time>2021-05-01T15:15:24Z</time><name>PT7316</name></trkpt>
<trkpt lat="52.039796" lon="05.732961"><ele>37.6</ele><time>2021-05-01T15:15:25Z</time><name>PT7317</name></trkpt>
<trkpt lat="52.039811" lon="05.732941"><ele>37.9</ele><time>2021-05-01T15:15:26Z</time><name>PT7318</name></trkpt>
<trkpt lat="52.039818" lon="05.732927"><ele>38</ele><time>2021-05-01T15:15:28Z</time><name>PT7319</name></trkpt>
<trkpt lat="52.039818" lon="05.732922"><ele>38</ele><time>2021-05-01T15:15:28Z</time><name>PT7320</name></trkpt>
<trkpt lat="52.039821" lon="05.732917"><ele>38</ele><time>2021-05-01T15:15:29Z</time><name>PT7321</name></trkpt>
<trkpt lat="52.039829" lon="05.732905"><ele>37.8</ele><time>2021-05-01T15:15:30Z</time><name>PT7322</name></trkpt>
<trkpt lat="52.039840" lon="05.732890"><ele>37.6</ele><time>2021-05-01T15:15:31Z</time><name>PT7323</name></trkpt>
<trkpt lat="52.039848" lon="05.732879"><ele>37.7</ele><time>2021-05-01T15:15:32Z</time><name>PT7324</name></trkpt>
<trkpt lat="52.039852" lon="05.732869"><ele>37.7</ele><time>2021-05-01T15:15:33Z</time><name>PT7325</name></trkpt>
<trkpt lat="52.039857" lon="05.732861"><ele>37.8</ele><time>2021-05-01T15:15:35Z</time><name>PT7326</name></trkpt>
<trkpt lat="52.039862" lon="05.732850"><ele>38</ele><time>2021-05-01T15:15:35Z</time><name>PT7327</name></trkpt>
<trkpt lat="52.039871" lon="05.732840"><ele>38</ele><time>2021-05-01T15:15:36Z</time><name>PT7328</name></trkpt>
<trkpt lat="52.039877" lon="05.732836"><ele>37.6</ele><time>2021-05-01T15:15:37Z</time><name>PT7329</name></trkpt>
<trkpt lat="52.039883" lon="05.732832"><ele>37.6</ele><time>2021-05-01T15:15:38Z</time><name>PT7330</name></trkpt>
<trkpt lat="52.039891" lon="05.732815"><ele>37.5</ele><time>2021-05-01T15:15:39Z</time><name>PT7331</name></trkpt>
<trkpt lat="52.039897" lon="05.732799"><ele>37.5</ele><time>2021-05-01T15:15:40Z</time><name>PT7332</name></trkpt>
<trkpt lat="52.039905" lon="05.732789"><ele>37.5</ele><time>2021-05-01T15:15:42Z</time><name>PT7333</name></trkpt>
<trkpt lat="52.039912" lon="05.732783"><ele>37.5</ele><time>2021-05-01T15:15:42Z</time><name>PT7334</name></trkpt>
<trkpt lat="52.039921" lon="05.732780"><ele>37.8</ele><time>2021-05-01T15:15:43Z</time><name>PT7335</name></trkpt>
<trkpt lat="52.039926" lon="05.732776"><ele>37.9</ele><time>2021-05-01T15:15:44Z</time><name>PT7336</name></trkpt>
<trkpt lat="52.039933" lon="05.732766"><ele>37.8</ele><time>2021-05-01T15:15:45Z</time><name>PT7337</name></trkpt>
<trkpt lat="52.039946" lon="05.732750"><ele>37.8</ele><time>2021-05-01T15:15:47Z</time><name>PT7338</name></trkpt>
<trkpt lat="52.039959" lon="05.732741"><ele>37.9</ele><time>2021-05-01T15:15:47Z</time><name>PT7339</name></trkpt>
<trkpt lat="52.039970" lon="05.732734"><ele>37.8</ele><time>2021-05-01T15:15:48Z</time><name>PT7340</name></trkpt>
<trkpt lat="52.039979" lon="05.732727"><ele>38</ele><time>2021-05-01T15:15:49Z</time><name>PT7341</name></trkpt>
<trkpt lat="52.039985" lon="05.732723"><ele>38.1</ele><time>2021-05-01T15:15:50Z</time><name>PT7342</name></trkpt>
<trkpt lat="52.039993" lon="05.732716"><ele>38.4</ele><time>2021-05-01T15:15:51Z</time><name>PT7343</name></trkpt>
<trkpt lat="52.040002" lon="05.732704"><ele>38.4</ele><time>2021-05-01T15:15:52Z</time><name>PT7344</name></trkpt>
<trkpt lat="52.040011" lon="05.732691"><ele>38.3</ele><time>2021-05-01T15:15:54Z</time><name>PT7345</name></trkpt>
<trkpt lat="52.040021" lon="05.732679"><ele>38.1</ele><time>2021-05-01T15:15:54Z</time><name>PT7346</name></trkpt>
<trkpt lat="52.040028" lon="05.732671"><ele>38</ele><time>2021-05-01T15:15:55Z</time><name>PT7347</name></trkpt>
<trkpt lat="52.040032" lon="05.732670"><ele>37.7</ele><time>2021-05-01T15:15:56Z</time><name>PT7348</name></trkpt>
<trkpt lat="52.040040" lon="05.732664"><ele>37.8</ele><time>2021-05-01T15:15:57Z</time><name>PT7349</name></trkpt>
<trkpt lat="52.040052" lon="05.732652"><ele>37.8</ele><time>2021-05-01T15:15:58Z</time><name>PT7350</name></trkpt>
<trkpt lat="52.040058" lon="05.732649"><ele>37.6</ele><time>2021-05-01T15:15:59Z</time><name>PT7351</name></trkpt>
<trkpt lat="52.040063" lon="05.732645"><ele>37.7</ele><time>2021-05-01T15:16:01Z</time><name>PT7352</name></trkpt>
<trkpt lat="52.040069" lon="05.732648"><ele>37.7</ele><time>2021-05-01T15:16:01Z</time><name>PT7353</name></trkpt>
<trkpt lat="52.040074" lon="05.732643"><ele>37.6</ele><time>2021-05-01T15:16:02Z</time><name>PT7354</name></trkpt>
<trkpt lat="52.040082" lon="05.732634"><ele>37.6</ele><time>2021-05-01T15:16:03Z</time><name>PT7355</name></trkpt>
<trkpt lat="52.040093" lon="05.732624"><ele>37.6</ele><time>2021-05-01T15:16:04Z</time><name>PT7356</name></trkpt>
<trkpt lat="52.040103" lon="05.732619"><ele>37.6</ele><time>2021-05-01T15:16:05Z</time><name>PT7357</name></trkpt>
<trkpt lat="52.040111" lon="05.732618"><ele>37.7</ele><time>2021-05-01T15:16:07Z</time><name>PT7358</name></trkpt>
<trkpt lat="52.040117" lon="05.732612"><ele>37.7</ele><time>2021-05-01T15:16:07Z</time><name>PT7359</name></trkpt>
<trkpt lat="52.040126" lon="05.732607"><ele>37.9</ele><time>2021-05-01T15:16:08Z</time><name>PT7360</name></trkpt>
<trkpt lat="52.040139" lon="05.732598"><ele>38</ele><time>2021-05-01T15:16:09Z</time><name>PT7361</name></trkpt>
<trkpt lat="52.040157" lon="05.732591"><ele>37.9</ele><time>2021-05-01T15:16:10Z</time><name>PT7362</name></trkpt>
<trkpt lat="52.040168" lon="05.732586"><ele>38</ele><time>2021-05-01T15:16:11Z</time><name>PT7363</name></trkpt>
<trkpt lat="52.040175" lon="05.732581"><ele>38</ele><time>2021-05-01T15:16:12Z</time><name>PT7364</name></trkpt>
<trkpt lat="52.040178" lon="05.732571"><ele>37.7</ele><time>2021-05-01T15:16:14Z</time><name>PT7365</name></trkpt>
<trkpt lat="52.040183" lon="05.732562"><ele>37.6</ele><time>2021-05-01T15:16:14Z</time><name>PT7366</name></trkpt>
<trkpt lat="52.040194" lon="05.732551"><ele>37.6</ele><time>2021-05-01T15:16:15Z</time><name>PT7367</name></trkpt>
<trkpt lat="52.040202" lon="05.732545"><ele>37.6</ele><time>2021-05-01T15:16:16Z</time><name>PT7368</name></trkpt>
<trkpt lat="52.040206" lon="05.732538"><ele>37.7</ele><time>2021-05-01T15:16:17Z</time><name>PT7369</name></trkpt>
<trkpt lat="52.040212" lon="05.732532"><ele>37.8</ele><time>2021-05-01T15:16:18Z</time><name>PT7370</name></trkpt>
<trkpt lat="52.040221" lon="05.732524"><ele>37.8</ele><time>2021-05-01T15:16:19Z</time><name>PT7371</name></trkpt>
<trkpt lat="52.040228" lon="05.732517"><ele>37.8</ele><time>2021-05-01T15:16:20Z</time><name>PT7372</name></trkpt>
<trkpt lat="52.040233" lon="05.732508"><ele>37.6</ele><time>2021-05-01T15:16:21Z</time><name>PT7373</name></trkpt>
<trkpt lat="52.040238" lon="05.732499"><ele>37.8</ele><time>2021-05-01T15:16:22Z</time><name>PT7374</name></trkpt>
<trkpt lat="52.040246" lon="05.732494"><ele>37.8</ele><time>2021-05-01T15:16:23Z</time><name>PT7375</name></trkpt>
<trkpt lat="52.040253" lon="05.732481"><ele>37.8</ele><time>2021-05-01T15:16:24Z</time><name>PT7376</name></trkpt>
<trkpt lat="52.040260" lon="05.732472"><ele>37.9</ele><time>2021-05-01T15:16:25Z</time><name>PT7377</name></trkpt>
<trkpt lat="52.040266" lon="05.732468"><ele>37.9</ele><time>2021-05-01T15:16:26Z</time><name>PT7378</name></trkpt>
<trkpt lat="52.040270" lon="05.732458"><ele>37.8</ele><time>2021-05-01T15:16:27Z</time><name>PT7379</name></trkpt>
<trkpt lat="52.040277" lon="05.732454"><ele>37.8</ele><time>2021-05-01T15:16:28Z</time><name>PT7380</name></trkpt>
<trkpt lat="52.040285" lon="05.732447"><ele>37.8</ele><time>2021-05-01T15:16:29Z</time><name>PT7381</name></trkpt>
<trkpt lat="52.040300" lon="05.732444"><ele>37.8</ele><time>2021-05-01T15:16:30Z</time><name>PT7382</name></trkpt>
<trkpt lat="52.040306" lon="05.732439"><ele>38</ele><time>2021-05-01T15:16:31Z</time><name>PT7383</name></trkpt>
<trkpt lat="52.040310" lon="05.732436"><ele>38</ele><time>2021-05-01T15:16:32Z</time><name>PT7384</name></trkpt>
<trkpt lat="52.040319" lon="05.732432"><ele>38</ele><time>2021-05-01T15:16:33Z</time><name>PT7385</name></trkpt>
<trkpt lat="52.040331" lon="05.732421"><ele>38.1</ele><time>2021-05-01T15:16:34Z</time><name>PT7386</name></trkpt>
<trkpt lat="52.040341" lon="05.732411"><ele>38</ele><time>2021-05-01T15:16:35Z</time><name>PT7387</name></trkpt>
<trkpt lat="52.040349" lon="05.732396"><ele>38</ele><time>2021-05-01T15:16:36Z</time><name>PT7388</name></trkpt>
<trkpt lat="52.040358" lon="05.732390"><ele>38</ele><time>2021-05-01T15:16:37Z</time><name>PT7389</name></trkpt>
<trkpt lat="52.040365" lon="05.732387"><ele>38</ele><time>2021-05-01T15:16:38Z</time><name>PT7390</name></trkpt>
<trkpt lat="52.040373" lon="05.732385"><ele>38.2</ele><time>2021-05-01T15:16:39Z</time><name>PT7391</name></trkpt>
<trkpt lat="52.040382" lon="05.732379"><ele>38.1</ele><time>2021-05-01T15:16:40Z</time><name>PT7392</name></trkpt>
<trkpt lat="52.040393" lon="05.732373"><ele>38</ele><time>2021-05-01T15:16:41Z</time><name>PT7393</name></trkpt>
<trkpt lat="52.040400" lon="05.732367"><ele>38</ele><time>2021-05-01T15:16:42Z</time><name>PT7394</name></trkpt>
<trkpt lat="52.040408" lon="05.732364"><ele>38</ele><time>2021-05-01T15:16:43Z</time><name>PT7395</name></trkpt>
<trkpt lat="52.040414" lon="05.732357"><ele>38</ele><time>2021-05-01T15:16:44Z</time><name>PT7396</name></trkpt>
<trkpt lat="52.040422" lon="05.732350"><ele>38.2</ele><time>2021-05-01T15:16:45Z</time><name>PT7397</name></trkpt>
<trkpt lat="52.040432" lon="05.732338"><ele>38.3</ele><time>2021-05-01T15:16:46Z</time><name>PT7398</name></trkpt>
<trkpt lat="52.040439" lon="05.732330"><ele>38.4</ele><time>2021-05-01T15:16:47Z</time><name>PT7399</name></trkpt>
<trkpt lat="52.040441" lon="05.732320"><ele>38.5</ele><time>2021-05-01T15:16:48Z</time><name>PT7400</name></trkpt>
<trkpt lat="52.040447" lon="05.732318"><ele>38.5</ele><time>2021-05-01T15:16:49Z</time><name>PT7401</name></trkpt>
<trkpt lat="52.040456" lon="05.732307"><ele>38.5</ele><time>2021-05-01T15:16:50Z</time><name>PT7402</name></trkpt>
<trkpt lat="52.040466" lon="05.732296"><ele>38.8</ele><time>2021-05-01T15:16:51Z</time><name>PT7403</name></trkpt>
<trkpt lat="52.040472" lon="05.732300"><ele>38.8</ele><time>2021-05-01T15:16:52Z</time><name>PT7404</name></trkpt>
<trkpt lat="52.040479" lon="05.732299"><ele>38.7</ele><time>2021-05-01T15:16:53Z</time><name>PT7405</name></trkpt>
<trkpt lat="52.040488" lon="05.732295"><ele>38.7</ele><time>2021-05-01T15:16:54Z</time><name>PT7406</name></trkpt>
<trkpt lat="52.040494" lon="05.732295"><ele>38.6</ele><time>2021-05-01T15:16:55Z</time><name>PT7407</name></trkpt>
<trkpt lat="52.040505" lon="05.732291"><ele>38.5</ele><time>2021-05-01T15:16:56Z</time><name>PT7408</name></trkpt>
<trkpt lat="52.040516" lon="05.732283"><ele>38.8</ele><time>2021-05-01T15:16:57Z</time><name>PT7409</name></trkpt>
<trkpt lat="52.040527" lon="05.732277"><ele>38.9</ele><time>2021-05-01T15:16:58Z</time><name>PT7410</name></trkpt>
<trkpt lat="52.040536" lon="05.732270"><ele>38.9</ele><time>2021-05-01T15:16:59Z</time><name>PT7411</name></trkpt>
<trkpt lat="52.040544" lon="05.732264"><ele>39</ele><time>2021-05-01T15:17:00Z</time><name>PT7412</name></trkpt>
<trkpt lat="52.040553" lon="05.732253"><ele>39</ele><time>2021-05-01T15:17:01Z</time><name>PT7413</name></trkpt>
<trkpt lat="52.040561" lon="05.732252"><ele>39</ele><time>2021-05-01T15:17:02Z</time><name>PT7414</name></trkpt>
<trkpt lat="52.040574" lon="05.732252"><ele>39</ele><time>2021-05-01T15:17:03Z</time><name>PT7415</name></trkpt>
<trkpt lat="52.040578" lon="05.732245"><ele>39</ele><time>2021-05-01T15:17:05Z</time><name>PT7416</name></trkpt>
<trkpt lat="52.040584" lon="05.732241"><ele>39</ele><time>2021-05-01T15:17:05Z</time><name>PT7417</name></trkpt>
<trkpt lat="52.040595" lon="05.732228"><ele>39</ele><time>2021-05-01T15:17:06Z</time><name>PT7418</name></trkpt>
<trkpt lat="52.040601" lon="05.732219"><ele>39</ele><time>2021-05-01T15:17:07Z</time><name>PT7419</name></trkpt>
<trkpt lat="52.040606" lon="05.732211"><ele>39.1</ele><time>2021-05-01T15:17:08Z</time><name>PT7420</name></trkpt>
<trkpt lat="52.040611" lon="05.732206"><ele>39.2</ele><time>2021-05-01T15:17:09Z</time><name>PT7421</name></trkpt>
<trkpt lat="52.040617" lon="05.732209"><ele>39.3</ele><time>2021-05-01T15:17:10Z</time><name>PT7422</name></trkpt>
<trkpt lat="52.040622" lon="05.732208"><ele>39.2</ele><time>2021-05-01T15:17:11Z</time><name>PT7423</name></trkpt>
<trkpt lat="52.040634" lon="05.732208"><ele>39.2</ele><time>2021-05-01T15:17:12Z</time><name>PT7424</name></trkpt>
<trkpt lat="52.040638" lon="05.732210"><ele>39.2</ele><time>2021-05-01T15:17:13Z</time><name>PT7425</name></trkpt>
<trkpt lat="52.040643" lon="05.732220"><ele>39.1</ele><time>2021-05-01T15:17:14Z</time><name>PT7426</name></trkpt>
<trkpt lat="52.040646" lon="05.732220"><ele>39.1</ele><time>2021-05-01T15:17:15Z</time><name>PT7427</name></trkpt>
<trkpt lat="52.040650" lon="05.732221"><ele>39.1</ele><time>2021-05-01T15:17:16Z</time><name>PT7428</name></trkpt>
<trkpt lat="52.040655" lon="05.732219"><ele>39</ele><time>2021-05-01T15:17:17Z</time><name>PT7429</name></trkpt>
<trkpt lat="52.040662" lon="05.732219"><ele>39</ele><time>2021-05-01T15:17:18Z</time><name>PT7430</name></trkpt>
<trkpt lat="52.040675" lon="05.732210"><ele>39</ele><time>2021-05-01T15:17:19Z</time><name>PT7431</name></trkpt>
<trkpt lat="52.040689" lon="05.732209"><ele>39.2</ele><time>2021-05-01T15:17:20Z</time><name>PT7432</name></trkpt>
<trkpt lat="52.040698" lon="05.732206"><ele>39.2</ele><time>2021-05-01T15:17:21Z</time><name>PT7433</name></trkpt>
<trkpt lat="52.040705" lon="05.732200"><ele>39.4</ele><time>2021-05-01T15:17:22Z</time><name>PT7434</name></trkpt>
<trkpt lat="52.040712" lon="05.732193"><ele>39.4</ele><time>2021-05-01T15:17:23Z</time><name>PT7435</name></trkpt>
<trkpt lat="52.040722" lon="05.732194"><ele>39.3</ele><time>2021-05-01T15:17:24Z</time><name>PT7436</name></trkpt>
<trkpt lat="52.040734" lon="05.732193"><ele>39.2</ele><time>2021-05-01T15:17:25Z</time><name>PT7437</name></trkpt>
<trkpt lat="52.040743" lon="05.732196"><ele>39.3</ele><time>2021-05-01T15:17:26Z</time><name>PT7438</name></trkpt>
<trkpt lat="52.040751" lon="05.732203"><ele>39.2</ele><time>2021-05-01T15:17:27Z</time><name>PT7439</name></trkpt>
<trkpt lat="52.040759" lon="05.732201"><ele>39.2</ele><time>2021-05-01T15:17:28Z</time><name>PT7440</name></trkpt>
<trkpt lat="52.040770" lon="05.732198"><ele>39.2</ele><time>2021-05-01T15:17:29Z</time><name>PT7441</name></trkpt>
<trkpt lat="52.040784" lon="05.732196"><ele>39.2</ele><time>2021-05-01T15:17:30Z</time><name>PT7442</name></trkpt>
<trkpt lat="52.040796" lon="05.732195"><ele>39.3</ele><time>2021-05-01T15:17:31Z</time><name>PT7443</name></trkpt>
<trkpt lat="52.040802" lon="05.732195"><ele>39.4</ele><time>2021-05-01T15:17:32Z</time><name>PT7444</name></trkpt>
<trkpt lat="52.040811" lon="05.732190"><ele>39.5</ele><time>2021-05-01T15:17:33Z</time><name>PT7445</name></trkpt>
<trkpt lat="52.040823" lon="05.732169"><ele>39.5</ele><time>2021-05-01T15:17:34Z</time><name>PT7446</name></trkpt>
<trkpt lat="52.040834" lon="05.732156"><ele>39.5</ele><time>2021-05-01T15:17:35Z</time><name>PT7447</name></trkpt>
<trkpt lat="52.040843" lon="05.732146"><ele>39.5</ele><time>2021-05-01T15:17:36Z</time><name>PT7448</name></trkpt>
<trkpt lat="52.040851" lon="05.732137"><ele>39.5</ele><time>2021-05-01T15:17:37Z</time><name>PT7449</name></trkpt>
<trkpt lat="52.040858" lon="05.732134"><ele>39.4</ele><time>2021-05-01T15:17:38Z</time><name>PT7450</name></trkpt>
<trkpt lat="52.040871" lon="05.732117"><ele>39.5</ele><time>2021-05-01T15:17:39Z</time><name>PT7451</name></trkpt>
<trkpt lat="52.040887" lon="05.732108"><ele>39.5</ele><time>2021-05-01T15:17:40Z</time><name>PT7452</name></trkpt>
<trkpt lat="52.040895" lon="05.732107"><ele>39.4</ele><time>2021-05-01T15:17:41Z</time><name>PT7453</name></trkpt>
<trkpt lat="52.040899" lon="05.732105"><ele>39.2</ele><time>2021-05-01T15:17:42Z</time><name>PT7454</name></trkpt>
<trkpt lat="52.040906" lon="05.732102"><ele>39.2</ele><time>2021-05-01T15:17:43Z</time><name>PT7455</name></trkpt>
<trkpt lat="52.040911" lon="05.732096"><ele>39.1</ele><time>2021-05-01T15:17:44Z</time><name>PT7456</name></trkpt>
<trkpt lat="52.040921" lon="05.732092"><ele>39</ele><time>2021-05-01T15:17:45Z</time><name>PT7457</name></trkpt>
<trkpt lat="52.040930" lon="05.732092"><ele>39</ele><time>2021-05-01T15:17:46Z</time><name>PT7458</name></trkpt>
<trkpt lat="52.040938" lon="05.732083"><ele>38.9</ele><time>2021-05-01T15:17:47Z</time><name>PT7459</name></trkpt>
<trkpt lat="52.040942" lon="05.732083"><ele>39</ele><time>2021-05-01T15:17:48Z</time><name>PT7460</name></trkpt>
<trkpt lat="52.040957" lon="05.732071"><ele>39</ele><time>2021-05-01T15:17:49Z</time><name>PT7461</name></trkpt>
<trkpt lat="52.040971" lon="05.732054"><ele>39.2</ele><time>2021-05-01T15:17:50Z</time><name>PT7462</name></trkpt>
<trkpt lat="52.040981" lon="05.732048"><ele>39.2</ele><time>2021-05-01T15:17:51Z</time><name>PT7463</name></trkpt>
<trkpt lat="52.040986" lon="05.732050"><ele>39.3</ele><time>2021-05-01T15:17:52Z</time><name>PT7464</name></trkpt>
<trkpt lat="52.040991" lon="05.732047"><ele>39.2</ele><time>2021-05-01T15:17:53Z</time><name>PT7465</name></trkpt>
<trkpt lat="52.041000" lon="05.732034"><ele>39</ele><time>2021-05-01T15:17:54Z</time><name>PT7466</name></trkpt>
<trkpt lat="52.041015" lon="05.732018"><ele>38.9</ele><time>2021-05-01T15:17:55Z</time><name>PT7467</name></trkpt>
<trkpt lat="52.041026" lon="05.732008"><ele>38.7</ele><time>2021-05-01T15:17:56Z</time><name>PT7468</name></trkpt>
<trkpt lat="52.041033" lon="05.732003"><ele>38.8</ele><time>2021-05-01T15:17:57Z</time><name>PT7469</name></trkpt>
<trkpt lat="52.041039" lon="05.732001"><ele>38.7</ele><time>2021-05-01T15:17:58Z</time><name>PT7470</name></trkpt>
<trkpt lat="52.041055" lon="05.731990"><ele>38.8</ele><time>2021-05-01T15:17:59Z</time><name>PT7471</name></trkpt>
<trkpt lat="52.041074" lon="05.731974"><ele>38.9</ele><time>2021-05-01T15:18:00Z</time><name>PT7472</name></trkpt>
<trkpt lat="52.041084" lon="05.731968"><ele>38.9</ele><time>2021-05-01T15:18:02Z</time><name>PT7473</name></trkpt>
<trkpt lat="52.041091" lon="05.731960"><ele>38.8</ele><time>2021-05-01T15:18:02Z</time><name>PT7474</name></trkpt>
<trkpt lat="52.041096" lon="05.731956"><ele>38.8</ele><time>2021-05-01T15:18:03Z</time><name>PT7475</name></trkpt>
<trkpt lat="52.041102" lon="05.731948"><ele>38.8</ele><time>2021-05-01T15:18:04Z</time><name>PT7476</name></trkpt>
<trkpt lat="52.041114" lon="05.731940"><ele>38.5</ele><time>2021-05-01T15:18:05Z</time><name>PT7477</name></trkpt>
<trkpt lat="52.041121" lon="05.731934"><ele>38.6</ele><time>2021-05-01T15:18:06Z</time><name>PT7478</name></trkpt>
<trkpt lat="52.041126" lon="05.731929"><ele>38.7</ele><time>2021-05-01T15:18:07Z</time><name>PT7479</name></trkpt>
<trkpt lat="52.041132" lon="05.731923"><ele>38.6</ele><time>2021-05-01T15:18:08Z</time><name>PT7480</name></trkpt>
<trkpt lat="52.041145" lon="05.731912"><ele>38.6</ele><time>2021-05-01T15:18:09Z</time><name>PT7481</name></trkpt>
<trkpt lat="52.041156" lon="05.731904"><ele>38.8</ele><time>2021-05-01T15:18:10Z</time><name>PT7482</name></trkpt>
<trkpt lat="52.041163" lon="05.731904"><ele>38.6</ele><time>2021-05-01T15:18:11Z</time><name>PT7483</name></trkpt>
<trkpt lat="52.041168" lon="05.731901"><ele>38.5</ele><time>2021-05-01T15:18:12Z</time><name>PT7484</name></trkpt>
<trkpt lat="52.041173" lon="05.731897"><ele>38.4</ele><time>2021-05-01T15:18:13Z</time><name>PT7485</name></trkpt>
<trkpt lat="52.041185" lon="05.731886"><ele>38.5</ele><time>2021-05-01T15:18:15Z</time><name>PT7486</name></trkpt>
<trkpt lat="52.041193" lon="05.731884"><ele>38.5</ele><time>2021-05-01T15:18:15Z</time><name>PT7487</name></trkpt>
<trkpt lat="52.041198" lon="05.731883"><ele>38.5</ele><time>2021-05-01T15:18:16Z</time><name>PT7488</name></trkpt>
<trkpt lat="52.041209" lon="05.731878"><ele>38.5</ele><time>2021-05-01T15:18:17Z</time><name>PT7489</name></trkpt>
<trkpt lat="52.041220" lon="05.731867"><ele>38.9</ele><time>2021-05-01T15:18:18Z</time><name>PT7490</name></trkpt>
<trkpt lat="52.041229" lon="05.731859"><ele>39</ele><time>2021-05-01T15:18:19Z</time><name>PT7491</name></trkpt>
<trkpt lat="52.041239" lon="05.731853"><ele>39</ele><time>2021-05-01T15:18:20Z</time><name>PT7492</name></trkpt>
<trkpt lat="52.041245" lon="05.731845"><ele>39</ele><time>2021-05-01T15:18:22Z</time><name>PT7493</name></trkpt>
<trkpt lat="52.041251" lon="05.731836"><ele>39</ele><time>2021-05-01T15:18:22Z</time><name>PT7494</name></trkpt>
<trkpt lat="52.041261" lon="05.731827"><ele>38.9</ele><time>2021-05-01T15:18:23Z</time><name>PT7495</name></trkpt>
<trkpt lat="52.041274" lon="05.731820"><ele>38.8</ele><time>2021-05-01T15:18:24Z</time><name>PT7496</name></trkpt>
<trkpt lat="52.041280" lon="05.731813"><ele>38.7</ele><time>2021-05-01T15:18:25Z</time><name>PT7497</name></trkpt>
<trkpt lat="52.041287" lon="05.731807"><ele>38.6</ele><time>2021-05-01T15:18:26Z</time><name>PT7498</name></trkpt>
<trkpt lat="52.041294" lon="05.731796"><ele>38.6</ele><time>2021-05-01T15:18:27Z</time><name>PT7499</name></trkpt>
<trkpt lat="52.041302" lon="05.731786"><ele>38.8</ele><time>2021-05-01T15:18:28Z</time><name>PT7500</name></trkpt>
<trkpt lat="52.041312" lon="05.731772"><ele>38.8</ele><time>2021-05-01T15:18:29Z</time><name>PT7501</name></trkpt>
<trkpt lat="52.041321" lon="05.731765"><ele>38.8</ele><time>2021-05-01T15:18:30Z</time><name>PT7502</name></trkpt>
<trkpt lat="52.041327" lon="05.731760"><ele>38.7</ele><time>2021-05-01T15:18:31Z</time><name>PT7503</name></trkpt>
<trkpt lat="52.041330" lon="05.731754"><ele>38.7</ele><time>2021-05-01T15:18:32Z</time><name>PT7504</name></trkpt>
<trkpt lat="52.041338" lon="05.731746"><ele>38.8</ele><time>2021-05-01T15:18:33Z</time><name>PT7505</name></trkpt>
<trkpt lat="52.041348" lon="05.731739"><ele>38.8</ele><time>2021-05-01T15:18:34Z</time><name>PT7506</name></trkpt>
<trkpt lat="52.041356" lon="05.731734"><ele>38.6</ele><time>2021-05-01T15:18:35Z</time><name>PT7507</name></trkpt>
<trkpt lat="52.041360" lon="05.731726"><ele>38.6</ele><time>2021-05-01T15:18:36Z</time><name>PT7508</name></trkpt>
<trkpt lat="52.041365" lon="05.731710"><ele>38.6</ele><time>2021-05-01T15:18:37Z</time><name>PT7509</name></trkpt>
<trkpt lat="52.041379" lon="05.731705"><ele>38.7</ele><time>2021-05-01T15:18:38Z</time><name>PT7510</name></trkpt>
<trkpt lat="52.041385" lon="05.731706"><ele>38.7</ele><time>2021-05-01T15:18:39Z</time><name>PT7511</name></trkpt>
<trkpt lat="52.041386" lon="05.731713"><ele>39</ele><time>2021-05-01T15:18:40Z</time><name>PT7512</name></trkpt>
<trkpt lat="52.041390" lon="05.731712"><ele>39</ele><time>2021-05-01T15:18:41Z</time><name>PT7513</name></trkpt>
<trkpt lat="52.041396" lon="05.731705"><ele>39</ele><time>2021-05-01T15:18:42Z</time><name>PT7514</name></trkpt>
<trkpt lat="52.041405" lon="05.731695"><ele>39</ele><time>2021-05-01T15:18:43Z</time><name>PT7515</name></trkpt>
<trkpt lat="52.041416" lon="05.731693"><ele>39</ele><time>2021-05-01T15:18:44Z</time><name>PT7516</name></trkpt>
<trkpt lat="52.041425" lon="05.731688"><ele>38.9</ele><time>2021-05-01T15:18:45Z</time><name>PT7517</name></trkpt>
<trkpt lat="52.041431" lon="05.731675"><ele>39</ele><time>2021-05-01T15:18:46Z</time><name>PT7518</name></trkpt>
<trkpt lat="52.041437" lon="05.731661"><ele>38.8</ele><time>2021-05-01T15:18:47Z</time><name>PT7519</name></trkpt>
<trkpt lat="52.041443" lon="05.731649"><ele>38.7</ele><time>2021-05-01T15:18:48Z</time><name>PT7520</name></trkpt>
<trkpt lat="52.041452" lon="05.731634"><ele>38.8</ele><time>2021-05-01T15:18:49Z</time><name>PT7521</name></trkpt>
<trkpt lat="52.041461" lon="05.731620"><ele>38.7</ele><time>2021-05-01T15:18:50Z</time><name>PT7522</name></trkpt>
<trkpt lat="52.041471" lon="05.731605"><ele>38.7</ele><time>2021-05-01T15:18:51Z</time><name>PT7523</name></trkpt>
<trkpt lat="52.041482" lon="05.731595"><ele>38.9</ele><time>2021-05-01T15:18:52Z</time><name>PT7524</name></trkpt>
<trkpt lat="52.041492" lon="05.731586"><ele>38.9</ele><time>2021-05-01T15:18:53Z</time><name>PT7525</name></trkpt>
<trkpt lat="52.041498" lon="05.731583"><ele>38.8</ele><time>2021-05-01T15:18:54Z</time><name>PT7526</name></trkpt>
<trkpt lat="52.041502" lon="05.731580"><ele>38.8</ele><time>2021-05-01T15:18:55Z</time><name>PT7527</name></trkpt>
<trkpt lat="52.041509" lon="05.731572"><ele>39</ele><time>2021-05-01T15:18:57Z</time><name>PT7528</name></trkpt>
<trkpt lat="52.041523" lon="05.731559"><ele>39</ele><time>2021-05-01T15:18:57Z</time><name>PT7529</name></trkpt>
<trkpt lat="52.041537" lon="05.731548"><ele>39</ele><time>2021-05-01T15:18:58Z</time><name>PT7530</name></trkpt>
<trkpt lat="52.041545" lon="05.731539"><ele>39</ele><time>2021-05-01T15:19:00Z</time><name>PT7531</name></trkpt>
<trkpt lat="52.041551" lon="05.731531"><ele>39.1</ele><time>2021-05-01T15:19:00Z</time><name>PT7532</name></trkpt>
<trkpt lat="52.041562" lon="05.731519"><ele>39</ele><time>2021-05-01T15:19:01Z</time><name>PT7533</name></trkpt>
<trkpt lat="52.041571" lon="05.731504"><ele>38.8</ele><time>2021-05-01T15:19:03Z</time><name>PT7534</name></trkpt>
<trkpt lat="52.041581" lon="05.731497"><ele>38.6</ele><time>2021-05-01T15:19:03Z</time><name>PT7535</name></trkpt>
<trkpt lat="52.041588" lon="05.731490"><ele>38.6</ele><time>2021-05-01T15:19:04Z</time><name>PT7536</name></trkpt>
<trkpt lat="52.041596" lon="05.731477"><ele>38.6</ele><time>2021-05-01T15:19:06Z</time><name>PT7537</name></trkpt>
<trkpt lat="52.041607" lon="05.731468"><ele>38.6</ele><time>2021-05-01T15:19:06Z</time><name>PT7538</name></trkpt>
<trkpt lat="52.041616" lon="05.731463"><ele>38.8</ele><time>2021-05-01T15:19:07Z</time><name>PT7539</name></trkpt>
<trkpt lat="52.041628" lon="05.731453"><ele>38.8</ele><time>2021-05-01T15:19:09Z</time><name>PT7540</name></trkpt>
<trkpt lat="52.041636" lon="05.731443"><ele>38.9</ele><time>2021-05-01T15:19:09Z</time><name>PT7541</name></trkpt>
<trkpt lat="52.041642" lon="05.731436"><ele>38.9</ele><time>2021-05-01T15:19:10Z</time><name>PT7542</name></trkpt>
<trkpt lat="52.041647" lon="05.731428"><ele>39</ele><time>2021-05-01T15:19:11Z</time><name>PT7543</name></trkpt>
<trkpt lat="52.041657" lon="05.731416"><ele>38.9</ele><time>2021-05-01T15:19:12Z</time><name>PT7544</name></trkpt>
<trkpt lat="52.041674" lon="05.731403"><ele>39</ele><time>2021-05-01T15:19:13Z</time><name>PT7545</name></trkpt>
<trkpt lat="52.041690" lon="05.731393"><ele>38.8</ele><time>2021-05-01T15:19:14Z</time><name>PT7546</name></trkpt>
<trkpt lat="52.041701" lon="05.731385"><ele>38.8</ele><time>2021-05-01T15:19:15Z</time><name>PT7547</name></trkpt>
<trkpt lat="52.041708" lon="05.731374"><ele>38.7</ele><time>2021-05-01T15:19:16Z</time><name>PT7548</name></trkpt>
<trkpt lat="52.041714" lon="05.731366"><ele>38.8</ele><time>2021-05-01T15:19:17Z</time><name>PT7549</name></trkpt>
<trkpt lat="52.041722" lon="05.731356"><ele>38.8</ele><time>2021-05-01T15:19:18Z</time><name>PT7550</name></trkpt>
<trkpt lat="52.041733" lon="05.731344"><ele>38.8</ele><time>2021-05-01T15:19:19Z</time><name>PT7551</name></trkpt>
<trkpt lat="52.041743" lon="05.731326"><ele>38.8</ele><time>2021-05-01T15:19:20Z</time><name>PT7552</name></trkpt>
<trkpt lat="52.041754" lon="05.731314"><ele>38.8</ele><time>2021-05-01T15:19:21Z</time><name>PT7553</name></trkpt>
<trkpt lat="52.041762" lon="05.731303"><ele>38.9</ele><time>2021-05-01T15:19:22Z</time><name>PT7554</name></trkpt>
<trkpt lat="52.041770" lon="05.731291"><ele>38.8</ele><time>2021-05-01T15:19:23Z</time><name>PT7555</name></trkpt>
<trkpt lat="52.041776" lon="05.731275"><ele>39</ele><time>2021-05-01T15:19:24Z</time><name>PT7556</name></trkpt>
<trkpt lat="52.041783" lon="05.731255"><ele>39</ele><time>2021-05-01T15:19:25Z</time><name>PT7557</name></trkpt>
<trkpt lat="52.041791" lon="05.731239"><ele>39</ele><time>2021-05-01T15:19:26Z</time><name>PT7558</name></trkpt>
<trkpt lat="52.041798" lon="05.731223"><ele>39.1</ele><time>2021-05-01T15:19:27Z</time><name>PT7559</name></trkpt>
<trkpt lat="52.041804" lon="05.731209"><ele>39</ele><time>2021-05-01T15:19:28Z</time><name>PT7560</name></trkpt>
<trkpt lat="52.041810" lon="05.731195"><ele>39</ele><time>2021-05-01T15:19:29Z</time><name>PT7561</name></trkpt>
<trkpt lat="52.041816" lon="05.731180"><ele>38.7</ele><time>2021-05-01T15:19:30Z</time><name>PT7562</name></trkpt>
<trkpt lat="52.041819" lon="05.731162"><ele>38.8</ele><time>2021-05-01T15:19:31Z</time><name>PT7563</name></trkpt>
<trkpt lat="52.041824" lon="05.731145"><ele>38.7</ele><time>2021-05-01T15:19:32Z</time><name>PT7564</name></trkpt>
<trkpt lat="52.041830" lon="05.731128"><ele>38.7</ele><time>2021-05-01T15:19:33Z</time><name>PT7565</name></trkpt>
<trkpt lat="52.041838" lon="05.731111"><ele>38.6</ele><time>2021-05-01T15:19:34Z</time><name>PT7566</name></trkpt>
<trkpt lat="52.041842" lon="05.731094"><ele>38.6</ele><time>2021-05-01T15:19:35Z</time><name>PT7567</name></trkpt>
<trkpt lat="52.041846" lon="05.731080"><ele>38.6</ele><time>2021-05-01T15:19:36Z</time><name>PT7568</name></trkpt>
<trkpt lat="52.041852" lon="05.731067"><ele>38.5</ele><time>2021-05-01T15:19:37Z</time><name>PT7569</name></trkpt>
<trkpt lat="52.041855" lon="05.731049"><ele>38.5</ele><time>2021-05-01T15:19:38Z</time><name>PT7570</name></trkpt>
<trkpt lat="52.041860" lon="05.731033"><ele>38.6</ele><time>2021-05-01T15:19:39Z</time><name>PT7571</name></trkpt>
<trkpt lat="52.041865" lon="05.731018"><ele>38.5</ele><time>2021-05-01T15:19:40Z</time><name>PT7572</name></trkpt>
<trkpt lat="52.041870" lon="05.731005"><ele>38.6</ele><time>2021-05-01T15:19:41Z</time><name>PT7573</name></trkpt>
<trkpt lat="52.041875" lon="05.730995"><ele>38.6</ele><time>2021-05-01T15:19:42Z</time><name>PT7574</name></trkpt>
<trkpt lat="52.041881" lon="05.730982"><ele>38.7</ele><time>2021-05-01T15:19:43Z</time><name>PT7575</name></trkpt>
<trkpt lat="52.041884" lon="05.730965"><ele>38.9</ele><time>2021-05-01T15:19:44Z</time><name>PT7576</name></trkpt>
<trkpt lat="52.041887" lon="05.730948"><ele>38.9</ele><time>2021-05-01T15:19:45Z</time><name>PT7577</name></trkpt>
<trkpt lat="52.041892" lon="05.730931"><ele>38.8</ele><time>2021-05-01T15:19:46Z</time><name>PT7578</name></trkpt>
<trkpt lat="52.041895" lon="05.730916"><ele>39</ele><time>2021-05-01T15:19:47Z</time><name>PT7579</name></trkpt>
<trkpt lat="52.041898" lon="05.730900"><ele>39.1</ele><time>2021-05-01T15:19:48Z</time><name>PT7580</name></trkpt>
<trkpt lat="52.041898" lon="05.730883"><ele>39.2</ele><time>2021-05-01T15:19:49Z</time><name>PT7581</name></trkpt>
<trkpt lat="52.041902" lon="05.730867"><ele>39.1</ele><time>2021-05-01T15:19:50Z</time><name>PT7582</name></trkpt>
<trkpt lat="52.041906" lon="05.730850"><ele>39.1</ele><time>2021-05-01T15:19:51Z</time><name>PT7583</name></trkpt>
<trkpt lat="52.041908" lon="05.730836"><ele>39.1</ele><time>2021-05-01T15:19:52Z</time><name>PT7584</name></trkpt>
<trkpt lat="52.041912" lon="05.730820"><ele>39</ele><time>2021-05-01T15:19:53Z</time><name>PT7585</name></trkpt>
<trkpt lat="52.041917" lon="05.730806"><ele>39</ele><time>2021-05-01T15:19:54Z</time><name>PT7586</name></trkpt>
<trkpt lat="52.041920" lon="05.730791"><ele>39.1</ele><time>2021-05-01T15:19:55Z</time><name>PT7587</name></trkpt>
<trkpt lat="52.041920" lon="05.730776"><ele>39.2</ele><time>2021-05-01T15:19:56Z</time><name>PT7588</name></trkpt>
<trkpt lat="52.041920" lon="05.730765"><ele>39.2</ele><time>2021-05-01T15:19:57Z</time><name>PT7589</name></trkpt>
<trkpt lat="52.041922" lon="05.730762"><ele>39.2</ele><time>2021-05-01T15:19:58Z</time><name>PT7590</name></trkpt>
<trkpt lat="52.041925" lon="05.730758"><ele>39.2</ele><time>2021-05-01T15:19:59Z</time><name>PT7591</name></trkpt>
<trkpt lat="52.041932" lon="05.730749"><ele>39.2</ele><time>2021-05-01T15:20:00Z</time><name>PT7592</name></trkpt>
<trkpt lat="52.041939" lon="05.730740"><ele>39.1</ele><time>2021-05-01T15:20:01Z</time><name>PT7593</name></trkpt>
<trkpt lat="52.041946" lon="05.730736"><ele>39</ele><time>2021-05-01T15:20:02Z</time><name>PT7594</name></trkpt>
<trkpt lat="52.041955" lon="05.730725"><ele>39</ele><time>2021-05-01T15:20:03Z</time><name>PT7595</name></trkpt>
<trkpt lat="52.041965" lon="05.730715"><ele>39.2</ele><time>2021-05-01T15:20:04Z</time><name>PT7596</name></trkpt>
<trkpt lat="52.041974" lon="05.730706"><ele>39.4</ele><time>2021-05-01T15:20:05Z</time><name>PT7597</name></trkpt>
<trkpt lat="52.041982" lon="05.730698"><ele>39.5</ele><time>2021-05-01T15:20:06Z</time><name>PT7598</name></trkpt>
<trkpt lat="52.041990" lon="05.730689"><ele>39.5</ele><time>2021-05-01T15:20:07Z</time><name>PT7599</name></trkpt>
<trkpt lat="52.041998" lon="05.730680"><ele>39.5</ele><time>2021-05-01T15:20:08Z</time><name>PT7600</name></trkpt>
<trkpt lat="52.042005" lon="05.730671"><ele>39.4</ele><time>2021-05-01T15:20:09Z</time><name>PT7601</name></trkpt>
<trkpt lat="52.042012" lon="05.730659"><ele>39.3</ele><time>2021-05-01T15:20:10Z</time><name>PT7602</name></trkpt>
<trkpt lat="52.042018" lon="05.730648"><ele>39.4</ele><time>2021-05-01T15:20:11Z</time><name>PT7603</name></trkpt>
<trkpt lat="52.042024" lon="05.730633"><ele>39.5</ele><time>2021-05-01T15:20:12Z</time><name>PT7604</name></trkpt>
<trkpt lat="52.042031" lon="05.730621"><ele>39.5</ele><time>2021-05-01T15:20:13Z</time><name>PT7605</name></trkpt>
<trkpt lat="52.042037" lon="05.730609"><ele>39.9</ele><time>2021-05-01T15:20:14Z</time><name>PT7606</name></trkpt>
<trkpt lat="52.042044" lon="05.730596"><ele>40</ele><time>2021-05-01T15:20:15Z</time><name>PT7607</name></trkpt>
<trkpt lat="52.042049" lon="05.730583"><ele>40</ele><time>2021-05-01T15:20:16Z</time><name>PT7608</name></trkpt>
<trkpt lat="52.042055" lon="05.730569"><ele>40</ele><time>2021-05-01T15:20:17Z</time><name>PT7609</name></trkpt>
<trkpt lat="52.042061" lon="05.730556"><ele>39.9</ele><time>2021-05-01T15:20:18Z</time><name>PT7610</name></trkpt>
<trkpt lat="52.042065" lon="05.730545"><ele>39.8</ele><time>2021-05-01T15:20:19Z</time><name>PT7611</name></trkpt>
<trkpt lat="52.042072" lon="05.730530"><ele>39.7</ele><time>2021-05-01T15:20:20Z</time><name>PT7612</name></trkpt>
<trkpt lat="52.042080" lon="05.730517"><ele>39.8</ele><time>2021-05-01T15:20:21Z</time><name>PT7613</name></trkpt>
<trkpt lat="52.042088" lon="05.730507"><ele>39.8</ele><time>2021-05-01T15:20:22Z</time><name>PT7614</name></trkpt>
<trkpt lat="52.042095" lon="05.730499"><ele>39.8</ele><time>2021-05-01T15:20:23Z</time><name>PT7615</name></trkpt>
<trkpt lat="52.042100" lon="05.730490"><ele>39.7</ele><time>2021-05-01T15:20:24Z</time><name>PT7616</name></trkpt>
<trkpt lat="52.042105" lon="05.730481"><ele>39.5</ele><time>2021-05-01T15:20:25Z</time><name>PT7617</name></trkpt>
<trkpt lat="52.042114" lon="05.730470"><ele>39.6</ele><time>2021-05-01T15:20:26Z</time><name>PT7618</name></trkpt>
<trkpt lat="52.042119" lon="05.730462"><ele>39.5</ele><time>2021-05-01T15:20:27Z</time><name>PT7619</name></trkpt>
<trkpt lat="52.042125" lon="05.730454"><ele>39.8</ele><time>2021-05-01T15:20:28Z</time><name>PT7620</name></trkpt>
<trkpt lat="52.042132" lon="05.730446"><ele>39.9</ele><time>2021-05-01T15:20:29Z</time><name>PT7621</name></trkpt>
<trkpt lat="52.042140" lon="05.730438"><ele>40</ele><time>2021-05-01T15:20:30Z</time><name>PT7622</name></trkpt>
<trkpt lat="52.042146" lon="05.730427"><ele>40</ele><time>2021-05-01T15:20:31Z</time><name>PT7623</name></trkpt>
<trkpt lat="52.042155" lon="05.730417"><ele>40</ele><time>2021-05-01T15:20:32Z</time><name>PT7624</name></trkpt>
<trkpt lat="52.042162" lon="05.730409"><ele>39.9</ele><time>2021-05-01T15:20:33Z</time><name>PT7625</name></trkpt>
<trkpt lat="52.042170" lon="05.730398"><ele>39.9</ele><time>2021-05-01T15:20:34Z</time><name>PT7626</name></trkpt>
<trkpt lat="52.042179" lon="05.730388"><ele>39.9</ele><time>2021-05-01T15:20:36Z</time><name>PT7627</name></trkpt>
<trkpt lat="52.042186" lon="05.730379"><ele>39.8</ele><time>2021-05-01T15:20:36Z</time><name>PT7628</name></trkpt>
<trkpt lat="52.042194" lon="05.730373"><ele>40</ele><time>2021-05-01T15:20:37Z</time><name>PT7629</name></trkpt>
<trkpt lat="52.042201" lon="05.730367"><ele>39.9</ele><time>2021-05-01T15:20:38Z</time><name>PT7630</name></trkpt>
<trkpt lat="52.042205" lon="05.730361"><ele>39.9</ele><time>2021-05-01T15:20:39Z</time><name>PT7631</name></trkpt>
<trkpt lat="52.042210" lon="05.730354"><ele>39.8</ele><time>2021-05-01T15:20:40Z</time><name>PT7632</name></trkpt>
<trkpt lat="52.042218" lon="05.730349"><ele>39.5</ele><time>2021-05-01T15:20:41Z</time><name>PT7633</name></trkpt>
<trkpt lat="52.042228" lon="05.730343"><ele>39.5</ele><time>2021-05-01T15:20:42Z</time><name>PT7634</name></trkpt>
<trkpt lat="52.042236" lon="05.730339"><ele>39.5</ele><time>2021-05-01T15:20:43Z</time><name>PT7635</name></trkpt>
<trkpt lat="52.042247" lon="05.730336"><ele>39.5</ele><time>2021-05-01T15:20:44Z</time><name>PT7636</name></trkpt>
<trkpt lat="52.042258" lon="05.730333"><ele>39.6</ele><time>2021-05-01T15:20:45Z</time><name>PT7637</name></trkpt>
<trkpt lat="52.042268" lon="05.730328"><ele>39.7</ele><time>2021-05-01T15:20:46Z</time><name>PT7638</name></trkpt>
<trkpt lat="52.042279" lon="05.730326"><ele>39.8</ele><time>2021-05-01T15:20:47Z</time><name>PT7639</name></trkpt>
<trkpt lat="52.042290" lon="05.730324"><ele>39.8</ele><time>2021-05-01T15:20:48Z</time><name>PT7640</name></trkpt>
<trkpt lat="52.042297" lon="05.730319"><ele>39.7</ele><time>2021-05-01T15:20:49Z</time><name>PT7641</name></trkpt>
<trkpt lat="52.042306" lon="05.730312"><ele>39.5</ele><time>2021-05-01T15:20:50Z</time><name>PT7642</name></trkpt>
<trkpt lat="52.042316" lon="05.730308"><ele>39.5</ele><time>2021-05-01T15:20:51Z</time><name>PT7643</name></trkpt>
<trkpt lat="52.042323" lon="05.730305"><ele>39.3</ele><time>2021-05-01T15:20:52Z</time><name>PT7644</name></trkpt>
<trkpt lat="52.042328" lon="05.730301"><ele>39.2</ele><time>2021-05-01T15:20:53Z</time><name>PT7645</name></trkpt>
<trkpt lat="52.042336" lon="05.730298"><ele>39.2</ele><time>2021-05-01T15:20:54Z</time><name>PT7646</name></trkpt>
<trkpt lat="52.042344" lon="05.730297"><ele>39.2</ele><time>2021-05-01T15:20:55Z</time><name>PT7647</name></trkpt>
<trkpt lat="52.042355" lon="05.730297"><ele>39.1</ele><time>2021-05-01T15:20:56Z</time><name>PT7648</name></trkpt>
<trkpt lat="52.042365" lon="05.730294"><ele>39.1</ele><time>2021-05-01T15:20:57Z</time><name>PT7649</name></trkpt>
<trkpt lat="52.042379" lon="05.730291"><ele>39.2</ele><time>2021-05-01T15:20:58Z</time><name>PT7650</name></trkpt>
<trkpt lat="52.042391" lon="05.730291"><ele>39.2</ele><time>2021-05-01T15:20:59Z</time><name>PT7651</name></trkpt>
<trkpt lat="52.042397" lon="05.730289"><ele>39.1</ele><time>2021-05-01T15:21:00Z</time><name>PT7652</name></trkpt>
<trkpt lat="52.042404" lon="05.730281"><ele>39</ele><time>2021-05-01T15:21:01Z</time><name>PT7653</name></trkpt>
<trkpt lat="52.042416" lon="05.730275"><ele>39.1</ele><time>2021-05-01T15:21:02Z</time><name>PT7654</name></trkpt>
<trkpt lat="52.042427" lon="05.730273"><ele>39</ele><time>2021-05-01T15:21:03Z</time><name>PT7655</name></trkpt>
<trkpt lat="52.042435" lon="05.730271"><ele>39</ele><time>2021-05-01T15:21:04Z</time><name>PT7656</name></trkpt>
<trkpt lat="52.042446" lon="05.730270"><ele>39</ele><time>2021-05-01T15:21:05Z</time><name>PT7657</name></trkpt>
<trkpt lat="52.042458" lon="05.730268"><ele>39.2</ele><time>2021-05-01T15:21:06Z</time><name>PT7658</name></trkpt>
<trkpt lat="52.042469" lon="05.730268"><ele>39.2</ele><time>2021-05-01T15:21:07Z</time><name>PT7659</name></trkpt>
<trkpt lat="52.042479" lon="05.730264"><ele>39.2</ele><time>2021-05-01T15:21:08Z</time><name>PT7660</name></trkpt>
<trkpt lat="52.042488" lon="05.730263"><ele>39</ele><time>2021-05-01T15:21:09Z</time><name>PT7661</name></trkpt>
<trkpt lat="52.042498" lon="05.730260"><ele>39</ele><time>2021-05-01T15:21:10Z</time><name>PT7662</name></trkpt>
<trkpt lat="52.042508" lon="05.730257"><ele>39.3</ele><time>2021-05-01T15:21:11Z</time><name>PT7663</name></trkpt>
<trkpt lat="52.042518" lon="05.730256"><ele>39.3</ele><time>2021-05-01T15:21:12Z</time><name>PT7664</name></trkpt>
<trkpt lat="52.042529" lon="05.730257"><ele>39.3</ele><time>2021-05-01T15:21:13Z</time><name>PT7665</name></trkpt>
<trkpt lat="52.042541" lon="05.730261"><ele>39.4</ele><time>2021-05-01T15:21:14Z</time><name>PT7666</name></trkpt>
<trkpt lat="52.042554" lon="05.730267"><ele>39.3</ele><time>2021-05-01T15:21:15Z</time><name>PT7667</name></trkpt>
<trkpt lat="52.042563" lon="05.730272"><ele>39.1</ele><time>2021-05-01T15:21:16Z</time><name>PT7668</name></trkpt>
<trkpt lat="52.042573" lon="05.730272"><ele>39.2</ele><time>2021-05-01T15:21:17Z</time><name>PT7669</name></trkpt>
<trkpt lat="52.042582" lon="05.730273"><ele>39.2</ele><time>2021-05-01T15:21:18Z</time><name>PT7670</name></trkpt>
<trkpt lat="52.042587" lon="05.730279"><ele>39.2</ele><time>2021-05-01T15:21:19Z</time><name>PT7671</name></trkpt>
<trkpt lat="52.042597" lon="05.730286"><ele>39.4</ele><time>2021-05-01T15:21:20Z</time><name>PT7672</name></trkpt>
<trkpt lat="52.042605" lon="05.730292"><ele>39.5</ele><time>2021-05-01T15:21:21Z</time><name>PT7673</name></trkpt>
<trkpt lat="52.042608" lon="05.730296"><ele>39.4</ele><time>2021-05-01T15:21:22Z</time><name>PT7674</name></trkpt>
<trkpt lat="52.042612" lon="05.730297"><ele>39.3</ele><time>2021-05-01T15:21:23Z</time><name>PT7675</name></trkpt>
<trkpt lat="52.042615" lon="05.730303"><ele>39.3</ele><time>2021-05-01T15:21:24Z</time><name>PT7676</name></trkpt>
<trkpt lat="52.042619" lon="05.730305"><ele>39</ele><time>2021-05-01T15:21:25Z</time><name>PT7677</name></trkpt>
<trkpt lat="52.042622" lon="05.730312"><ele>39</ele><time>2021-05-01T15:21:26Z</time><name>PT7678</name></trkpt>
<trkpt lat="52.042627" lon="05.730317"><ele>39.1</ele><time>2021-05-01T15:21:27Z</time><name>PT7679</name></trkpt>
<trkpt lat="52.042630" lon="05.730319"><ele>39.3</ele><time>2021-05-01T15:21:28Z</time><name>PT7680</name></trkpt>
<trkpt lat="52.042633" lon="05.730323"><ele>39.4</ele><time>2021-05-01T15:21:29Z</time><name>PT7681</name></trkpt>
<trkpt lat="52.042637" lon="05.730328"><ele>39.4</ele><time>2021-05-01T15:21:30Z</time><name>PT7682</name></trkpt>
<trkpt lat="52.042642" lon="05.730337"><ele>39.3</ele><time>2021-05-01T15:21:31Z</time><name>PT7683</name></trkpt>
<trkpt lat="52.042645" lon="05.730347"><ele>39.4</ele><time>2021-05-01T15:21:32Z</time><name>PT7684</name></trkpt>
<trkpt lat="52.042650" lon="05.730355"><ele>39.2</ele><time>2021-05-01T15:21:33Z</time><name>PT7685</name></trkpt>
<trkpt lat="52.042654" lon="05.730363"><ele>39.1</ele><time>2021-05-01T15:21:34Z</time><name>PT7686</name></trkpt>
<trkpt lat="52.042655" lon="05.730361"><ele>39</ele><time>2021-05-01T15:21:35Z</time><name>PT7687</name></trkpt>
<trkpt lat="52.042656" lon="05.730360"><ele>39.3</ele><time>2021-05-01T15:21:36Z</time><name>PT7688</name></trkpt>
<trkpt lat="52.042657" lon="05.730363"><ele>39.6</ele><time>2021-05-01T15:21:37Z</time><name>PT7689</name></trkpt></trkseg></trk></gpx>